<?xml version="1.0" encoding="UTF-8" standalone="no" ?>
<gpx xmlns="http://www.topografix.com/GPX/1/1" xmlns:xsi="http://www.w3.org/2001/XMLSchema-instance" xsi:schemaLocation="http://www.topografix.com/GPX/1/1 http://www.topografix.com/GPX/1/1/gpx.xsd" version="1.1" creator="VisuGPX - https://www.visugpx.com">
  <metadata>
    <name>Rando Maubec</name>
  </metadata>
  <trk>
    <name><![CDATA[2023-08-29T06:03:09Z]]></name>
    <trkseg>
      <trkpt lat="45.56725" lon="5.26394">
        <ele>438.8</ele>
        <time>2023-08-29T06:03:09Z</time>
      </trkpt>
      <trkpt lat="45.56725" lon="5.26394">
        <ele>438.8</ele>
        <time>2023-08-29T06:03:10Z</time>
      </trkpt>
      <trkpt lat="45.56721" lon="5.26404">
        <ele>442.6</ele>
        <time>2023-08-29T06:05:25Z</time>
      </trkpt>
      <trkpt lat="45.56719" lon="5.26405">
        <ele>442.6</ele>
        <time>2023-08-29T06:05:26Z</time>
      </trkpt>
      <trkpt lat="45.56717" lon="5.26406">
        <ele>442.6</ele>
        <time>2023-08-29T06:05:27Z</time>
      </trkpt>
      <trkpt lat="45.56715" lon="5.26408">
        <ele>442.6</ele>
        <time>2023-08-29T06:05:28Z</time>
      </trkpt>
      <trkpt lat="45.56714" lon="5.26408">
        <ele>442.6</ele>
        <time>2023-08-29T06:05:29Z</time>
      </trkpt>
      <trkpt lat="45.56712" lon="5.26409">
        <ele>442.4</ele>
        <time>2023-08-29T06:05:30Z</time>
      </trkpt>
      <trkpt lat="45.56711" lon="5.2641">
        <ele>442.4</ele>
        <time>2023-08-29T06:05:31Z</time>
      </trkpt>
      <trkpt lat="45.5671" lon="5.26411">
        <ele>442.4</ele>
        <time>2023-08-29T06:05:32Z</time>
      </trkpt>
      <trkpt lat="45.5671" lon="5.26412">
        <ele>442.4</ele>
        <time>2023-08-29T06:05:33Z</time>
      </trkpt>
      <trkpt lat="45.5671" lon="5.26412">
        <ele>442.4</ele>
        <time>2023-08-29T06:05:34Z</time>
      </trkpt>
      <trkpt lat="45.56704" lon="5.26408">
        <ele>442.4</ele>
        <time>2023-08-29T06:05:38Z</time>
      </trkpt>
      <trkpt lat="45.56704" lon="5.26408">
        <ele>442.4</ele>
        <time>2023-08-29T06:05:39Z</time>
      </trkpt>
      <trkpt lat="45.56702" lon="5.26405">
        <ele>442.4</ele>
        <time>2023-08-29T06:05:40Z</time>
      </trkpt>
      <trkpt lat="45.56702" lon="5.26402">
        <ele>442.4</ele>
        <time>2023-08-29T06:05:41Z</time>
      </trkpt>
      <trkpt lat="45.567" lon="5.26399">
        <ele>442.4</ele>
        <time>2023-08-29T06:05:42Z</time>
      </trkpt>
      <trkpt lat="45.56699" lon="5.26398">
        <ele>442.4</ele>
        <time>2023-08-29T06:05:43Z</time>
      </trkpt>
      <trkpt lat="45.56697" lon="5.26397">
        <ele>442.4</ele>
        <time>2023-08-29T06:05:44Z</time>
      </trkpt>
      <trkpt lat="45.56695" lon="5.26397">
        <ele>442.4</ele>
        <time>2023-08-29T06:05:45Z</time>
      </trkpt>
      <trkpt lat="45.56692" lon="5.26399">
        <ele>442</ele>
        <time>2023-08-29T06:05:46Z</time>
      </trkpt>
      <trkpt lat="45.56689" lon="5.264">
        <ele>442</ele>
        <time>2023-08-29T06:05:47Z</time>
      </trkpt>
      <trkpt lat="45.56687" lon="5.26403">
        <ele>442</ele>
        <time>2023-08-29T06:05:48Z</time>
      </trkpt>
      <trkpt lat="45.56684" lon="5.26404">
        <ele>442</ele>
        <time>2023-08-29T06:05:49Z</time>
      </trkpt>
      <trkpt lat="45.56681" lon="5.26407">
        <ele>442</ele>
        <time>2023-08-29T06:05:50Z</time>
      </trkpt>
      <trkpt lat="45.56678" lon="5.2641">
        <ele>442</ele>
        <time>2023-08-29T06:05:51Z</time>
      </trkpt>
      <trkpt lat="45.56674" lon="5.26412">
        <ele>441.6</ele>
        <time>2023-08-29T06:05:52Z</time>
      </trkpt>
      <trkpt lat="45.56671" lon="5.26415">
        <ele>441.6</ele>
        <time>2023-08-29T06:05:53Z</time>
      </trkpt>
      <trkpt lat="45.56666" lon="5.26418">
        <ele>441.6</ele>
        <time>2023-08-29T06:05:54Z</time>
      </trkpt>
      <trkpt lat="45.56662" lon="5.2642">
        <ele>441.6</ele>
        <time>2023-08-29T06:05:55Z</time>
      </trkpt>
      <trkpt lat="45.56657" lon="5.26422">
        <ele>441.4</ele>
        <time>2023-08-29T06:05:56Z</time>
      </trkpt>
      <trkpt lat="45.56653" lon="5.26423">
        <ele>441.2</ele>
        <time>2023-08-29T06:05:57Z</time>
      </trkpt>
      <trkpt lat="45.56648" lon="5.26425">
        <ele>441</ele>
        <time>2023-08-29T06:05:58Z</time>
      </trkpt>
      <trkpt lat="45.56643" lon="5.26427">
        <ele>441</ele>
        <time>2023-08-29T06:05:59Z</time>
      </trkpt>
      <trkpt lat="45.56638" lon="5.26428">
        <ele>440.8</ele>
        <time>2023-08-29T06:06:00Z</time>
      </trkpt>
      <trkpt lat="45.56634" lon="5.2643">
        <ele>440.6</ele>
        <time>2023-08-29T06:06:01Z</time>
      </trkpt>
      <trkpt lat="45.56629" lon="5.26433">
        <ele>440.6</ele>
        <time>2023-08-29T06:06:02Z</time>
      </trkpt>
      <trkpt lat="45.56625" lon="5.26436">
        <ele>440.6</ele>
        <time>2023-08-29T06:06:03Z</time>
      </trkpt>
      <trkpt lat="45.56621" lon="5.26439">
        <ele>440.4</ele>
        <time>2023-08-29T06:06:04Z</time>
      </trkpt>
      <trkpt lat="45.56617" lon="5.26442">
        <ele>440.2</ele>
        <time>2023-08-29T06:06:05Z</time>
      </trkpt>
      <trkpt lat="45.56612" lon="5.26446">
        <ele>440.2</ele>
        <time>2023-08-29T06:06:06Z</time>
      </trkpt>
      <trkpt lat="45.56608" lon="5.26449">
        <ele>440.2</ele>
        <time>2023-08-29T06:06:07Z</time>
      </trkpt>
      <trkpt lat="45.56603" lon="5.26452">
        <ele>440.2</ele>
        <time>2023-08-29T06:06:08Z</time>
      </trkpt>
      <trkpt lat="45.56599" lon="5.26456">
        <ele>440.2</ele>
        <time>2023-08-29T06:06:09Z</time>
      </trkpt>
      <trkpt lat="45.56595" lon="5.2646">
        <ele>440.2</ele>
        <time>2023-08-29T06:06:10Z</time>
      </trkpt>
      <trkpt lat="45.56591" lon="5.26464">
        <ele>440.2</ele>
        <time>2023-08-29T06:06:11Z</time>
      </trkpt>
      <trkpt lat="45.56587" lon="5.26468">
        <ele>440.2</ele>
        <time>2023-08-29T06:06:12Z</time>
      </trkpt>
      <trkpt lat="45.56583" lon="5.26473">
        <ele>440</ele>
        <time>2023-08-29T06:06:13Z</time>
      </trkpt>
      <trkpt lat="45.56579" lon="5.26477">
        <ele>440.2</ele>
        <time>2023-08-29T06:06:14Z</time>
      </trkpt>
      <trkpt lat="45.56575" lon="5.2648">
        <ele>440.2</ele>
        <time>2023-08-29T06:06:15Z</time>
      </trkpt>
      <trkpt lat="45.56571" lon="5.26484">
        <ele>440</ele>
        <time>2023-08-29T06:06:16Z</time>
      </trkpt>
      <trkpt lat="45.56568" lon="5.26487">
        <ele>440.2</ele>
        <time>2023-08-29T06:06:17Z</time>
      </trkpt>
      <trkpt lat="45.56564" lon="5.2649">
        <ele>440.2</ele>
        <time>2023-08-29T06:06:18Z</time>
      </trkpt>
      <trkpt lat="45.5656" lon="5.26493">
        <ele>440.2</ele>
        <time>2023-08-29T06:06:19Z</time>
      </trkpt>
      <trkpt lat="45.56557" lon="5.26496">
        <ele>440.2</ele>
        <time>2023-08-29T06:06:20Z</time>
      </trkpt>
      <trkpt lat="45.56554" lon="5.26498">
        <ele>440.2</ele>
        <time>2023-08-29T06:06:21Z</time>
      </trkpt>
      <trkpt lat="45.56551" lon="5.265">
        <ele>440.2</ele>
        <time>2023-08-29T06:06:22Z</time>
      </trkpt>
      <trkpt lat="45.56547" lon="5.26502">
        <ele>440.4</ele>
        <time>2023-08-29T06:06:23Z</time>
      </trkpt>
      <trkpt lat="45.56544" lon="5.26503">
        <ele>440.6</ele>
        <time>2023-08-29T06:06:24Z</time>
      </trkpt>
      <trkpt lat="45.56541" lon="5.26505">
        <ele>440.8</ele>
        <time>2023-08-29T06:06:25Z</time>
      </trkpt>
      <trkpt lat="45.56538" lon="5.26507">
        <ele>441</ele>
        <time>2023-08-29T06:06:26Z</time>
      </trkpt>
      <trkpt lat="45.56534" lon="5.26509">
        <ele>441.2</ele>
        <time>2023-08-29T06:06:27Z</time>
      </trkpt>
      <trkpt lat="45.5653" lon="5.2651">
        <ele>441.4</ele>
        <time>2023-08-29T06:06:28Z</time>
      </trkpt>
      <trkpt lat="45.56526" lon="5.26511">
        <ele>441.4</ele>
        <time>2023-08-29T06:06:29Z</time>
      </trkpt>
      <trkpt lat="45.56522" lon="5.26512">
        <ele>441.4</ele>
        <time>2023-08-29T06:06:30Z</time>
      </trkpt>
      <trkpt lat="45.56518" lon="5.26513">
        <ele>441.4</ele>
        <time>2023-08-29T06:06:31Z</time>
      </trkpt>
      <trkpt lat="45.56513" lon="5.26514">
        <ele>441.4</ele>
        <time>2023-08-29T06:06:32Z</time>
      </trkpt>
      <trkpt lat="45.56509" lon="5.26514">
        <ele>441.4</ele>
        <time>2023-08-29T06:06:33Z</time>
      </trkpt>
      <trkpt lat="45.56505" lon="5.26513">
        <ele>441.2</ele>
        <time>2023-08-29T06:06:34Z</time>
      </trkpt>
      <trkpt lat="45.565" lon="5.26513">
        <ele>441.2</ele>
        <time>2023-08-29T06:06:35Z</time>
      </trkpt>
      <trkpt lat="45.56496" lon="5.26513">
        <ele>441.2</ele>
        <time>2023-08-29T06:06:36Z</time>
      </trkpt>
      <trkpt lat="45.5649" lon="5.26512">
        <ele>441</ele>
        <time>2023-08-29T06:06:37Z</time>
      </trkpt>
      <trkpt lat="45.56485" lon="5.26511">
        <ele>440.8</ele>
        <time>2023-08-29T06:06:38Z</time>
      </trkpt>
      <trkpt lat="45.56479" lon="5.26511">
        <ele>440.6</ele>
        <time>2023-08-29T06:06:39Z</time>
      </trkpt>
      <trkpt lat="45.56473" lon="5.26512">
        <ele>440.4</ele>
        <time>2023-08-29T06:06:40Z</time>
      </trkpt>
      <trkpt lat="45.56467" lon="5.26513">
        <ele>440.2</ele>
        <time>2023-08-29T06:06:41Z</time>
      </trkpt>
      <trkpt lat="45.5646" lon="5.26515">
        <ele>439.6</ele>
        <time>2023-08-29T06:06:42Z</time>
      </trkpt>
      <trkpt lat="45.56452" lon="5.26517">
        <ele>439.6</ele>
        <time>2023-08-29T06:06:43Z</time>
      </trkpt>
      <trkpt lat="45.56444" lon="5.2652">
        <ele>439.4</ele>
        <time>2023-08-29T06:06:44Z</time>
      </trkpt>
      <trkpt lat="45.56436" lon="5.26525">
        <ele>439.2</ele>
        <time>2023-08-29T06:06:45Z</time>
      </trkpt>
      <trkpt lat="45.56428" lon="5.2653">
        <ele>438.4</ele>
        <time>2023-08-29T06:06:46Z</time>
      </trkpt>
      <trkpt lat="45.5642" lon="5.26535">
        <ele>438</ele>
        <time>2023-08-29T06:06:47Z</time>
      </trkpt>
      <trkpt lat="45.56412" lon="5.26539">
        <ele>437.4</ele>
        <time>2023-08-29T06:06:48Z</time>
      </trkpt>
      <trkpt lat="45.56404" lon="5.26544">
        <ele>436.6</ele>
        <time>2023-08-29T06:06:49Z</time>
      </trkpt>
      <trkpt lat="45.56397" lon="5.2655">
        <ele>436</ele>
        <time>2023-08-29T06:06:50Z</time>
      </trkpt>
      <trkpt lat="45.56391" lon="5.26555">
        <ele>435.4</ele>
        <time>2023-08-29T06:06:51Z</time>
      </trkpt>
      <trkpt lat="45.56385" lon="5.26562">
        <ele>435</ele>
        <time>2023-08-29T06:06:52Z</time>
      </trkpt>
      <trkpt lat="45.56379" lon="5.26568">
        <ele>434.6</ele>
        <time>2023-08-29T06:06:53Z</time>
      </trkpt>
      <trkpt lat="45.56373" lon="5.26574">
        <ele>434.2</ele>
        <time>2023-08-29T06:06:54Z</time>
      </trkpt>
      <trkpt lat="45.56368" lon="5.2658">
        <ele>433.2</ele>
        <time>2023-08-29T06:06:55Z</time>
      </trkpt>
      <trkpt lat="45.56363" lon="5.26585">
        <ele>432.2</ele>
        <time>2023-08-29T06:06:56Z</time>
      </trkpt>
      <trkpt lat="45.56358" lon="5.2659">
        <ele>431.6</ele>
        <time>2023-08-29T06:06:57Z</time>
      </trkpt>
      <trkpt lat="45.56353" lon="5.26595">
        <ele>431</ele>
        <time>2023-08-29T06:06:58Z</time>
      </trkpt>
      <trkpt lat="45.56348" lon="5.266">
        <ele>430.4</ele>
        <time>2023-08-29T06:06:59Z</time>
      </trkpt>
      <trkpt lat="45.56342" lon="5.26606">
        <ele>429.4</ele>
        <time>2023-08-29T06:07:00Z</time>
      </trkpt>
      <trkpt lat="45.56337" lon="5.26611">
        <ele>429</ele>
        <time>2023-08-29T06:07:01Z</time>
      </trkpt>
      <trkpt lat="45.56333" lon="5.26616">
        <ele>428.6</ele>
        <time>2023-08-29T06:07:02Z</time>
      </trkpt>
      <trkpt lat="45.56328" lon="5.26621">
        <ele>428.4</ele>
        <time>2023-08-29T06:07:03Z</time>
      </trkpt>
      <trkpt lat="45.56324" lon="5.26626">
        <ele>427.6</ele>
        <time>2023-08-29T06:07:04Z</time>
      </trkpt>
      <trkpt lat="45.5632" lon="5.2663">
        <ele>427.4</ele>
        <time>2023-08-29T06:07:05Z</time>
      </trkpt>
      <trkpt lat="45.56316" lon="5.26634">
        <ele>427.4</ele>
        <time>2023-08-29T06:07:06Z</time>
      </trkpt>
      <trkpt lat="45.56311" lon="5.26639">
        <ele>427.2</ele>
        <time>2023-08-29T06:07:07Z</time>
      </trkpt>
      <trkpt lat="45.56307" lon="5.26644">
        <ele>426.6</ele>
        <time>2023-08-29T06:07:08Z</time>
      </trkpt>
      <trkpt lat="45.56302" lon="5.26649">
        <ele>426.6</ele>
        <time>2023-08-29T06:07:09Z</time>
      </trkpt>
      <trkpt lat="45.56296" lon="5.26654">
        <ele>426.2</ele>
        <time>2023-08-29T06:07:10Z</time>
      </trkpt>
      <trkpt lat="45.56291" lon="5.26658">
        <ele>425.8</ele>
        <time>2023-08-29T06:07:11Z</time>
      </trkpt>
      <trkpt lat="45.56283" lon="5.2666">
        <ele>425.4</ele>
        <time>2023-08-29T06:07:12Z</time>
      </trkpt>
      <trkpt lat="45.56276" lon="5.26661">
        <ele>425</ele>
        <time>2023-08-29T06:07:13Z</time>
      </trkpt>
      <trkpt lat="45.56269" lon="5.26662">
        <ele>424.8</ele>
        <time>2023-08-29T06:07:14Z</time>
      </trkpt>
      <trkpt lat="45.56262" lon="5.26662">
        <ele>424.8</ele>
        <time>2023-08-29T06:07:15Z</time>
      </trkpt>
      <trkpt lat="45.56255" lon="5.26662">
        <ele>424.4</ele>
        <time>2023-08-29T06:07:16Z</time>
      </trkpt>
      <trkpt lat="45.56248" lon="5.26662">
        <ele>424</ele>
        <time>2023-08-29T06:07:17Z</time>
      </trkpt>
      <trkpt lat="45.5624" lon="5.26661">
        <ele>424</ele>
        <time>2023-08-29T06:07:18Z</time>
      </trkpt>
      <trkpt lat="45.56232" lon="5.2666">
        <ele>424</ele>
        <time>2023-08-29T06:07:19Z</time>
      </trkpt>
      <trkpt lat="45.56223" lon="5.26659">
        <ele>423.6</ele>
        <time>2023-08-29T06:07:20Z</time>
      </trkpt>
      <trkpt lat="45.56215" lon="5.26657">
        <ele>423.4</ele>
        <time>2023-08-29T06:07:21Z</time>
      </trkpt>
      <trkpt lat="45.56206" lon="5.26656">
        <ele>422.8</ele>
        <time>2023-08-29T06:07:22Z</time>
      </trkpt>
      <trkpt lat="45.56198" lon="5.26654">
        <ele>422.6</ele>
        <time>2023-08-29T06:07:23Z</time>
      </trkpt>
      <trkpt lat="45.5619" lon="5.26652">
        <ele>422</ele>
        <time>2023-08-29T06:07:24Z</time>
      </trkpt>
      <trkpt lat="45.56183" lon="5.26648">
        <ele>421.4</ele>
        <time>2023-08-29T06:07:25Z</time>
      </trkpt>
      <trkpt lat="45.56175" lon="5.26643">
        <ele>420.8</ele>
        <time>2023-08-29T06:07:26Z</time>
      </trkpt>
      <trkpt lat="45.56167" lon="5.26637">
        <ele>420.4</ele>
        <time>2023-08-29T06:07:27Z</time>
      </trkpt>
      <trkpt lat="45.5616" lon="5.26631">
        <ele>419.8</ele>
        <time>2023-08-29T06:07:28Z</time>
      </trkpt>
      <trkpt lat="45.56153" lon="5.26623">
        <ele>419.2</ele>
        <time>2023-08-29T06:07:29Z</time>
      </trkpt>
      <trkpt lat="45.56145" lon="5.26615">
        <ele>418.6</ele>
        <time>2023-08-29T06:07:30Z</time>
      </trkpt>
      <trkpt lat="45.56138" lon="5.26608">
        <ele>418.2</ele>
        <time>2023-08-29T06:07:31Z</time>
      </trkpt>
      <trkpt lat="45.56131" lon="5.26601">
        <ele>416.8</ele>
        <time>2023-08-29T06:07:32Z</time>
      </trkpt>
      <trkpt lat="45.56123" lon="5.26595">
        <ele>416.4</ele>
        <time>2023-08-29T06:07:33Z</time>
      </trkpt>
      <trkpt lat="45.56115" lon="5.26591">
        <ele>415.6</ele>
        <time>2023-08-29T06:07:34Z</time>
      </trkpt>
      <trkpt lat="45.56108" lon="5.26586">
        <ele>415.2</ele>
        <time>2023-08-29T06:07:35Z</time>
      </trkpt>
      <trkpt lat="45.56101" lon="5.26582">
        <ele>415.2</ele>
        <time>2023-08-29T06:07:36Z</time>
      </trkpt>
      <trkpt lat="45.56095" lon="5.26578">
        <ele>415</ele>
        <time>2023-08-29T06:07:37Z</time>
      </trkpt>
      <trkpt lat="45.56088" lon="5.26574">
        <ele>415</ele>
        <time>2023-08-29T06:07:38Z</time>
      </trkpt>
      <trkpt lat="45.56082" lon="5.26569">
        <ele>415</ele>
        <time>2023-08-29T06:07:39Z</time>
      </trkpt>
      <trkpt lat="45.56075" lon="5.26565">
        <ele>415</ele>
        <time>2023-08-29T06:07:40Z</time>
      </trkpt>
      <trkpt lat="45.56068" lon="5.26561">
        <ele>415</ele>
        <time>2023-08-29T06:07:41Z</time>
      </trkpt>
      <trkpt lat="45.56062" lon="5.26556">
        <ele>415</ele>
        <time>2023-08-29T06:07:42Z</time>
      </trkpt>
      <trkpt lat="45.56056" lon="5.26551">
        <ele>414.4</ele>
        <time>2023-08-29T06:07:43Z</time>
      </trkpt>
      <trkpt lat="45.56049" lon="5.26546">
        <ele>414.2</ele>
        <time>2023-08-29T06:07:44Z</time>
      </trkpt>
      <trkpt lat="45.56044" lon="5.26541">
        <ele>413.2</ele>
        <time>2023-08-29T06:07:45Z</time>
      </trkpt>
      <trkpt lat="45.56038" lon="5.26536">
        <ele>412.6</ele>
        <time>2023-08-29T06:07:46Z</time>
      </trkpt>
      <trkpt lat="45.56032" lon="5.26532">
        <ele>411.8</ele>
        <time>2023-08-29T06:07:47Z</time>
      </trkpt>
      <trkpt lat="45.56025" lon="5.26531">
        <ele>411.2</ele>
        <time>2023-08-29T06:07:48Z</time>
      </trkpt>
      <trkpt lat="45.56018" lon="5.26533">
        <ele>410.6</ele>
        <time>2023-08-29T06:07:49Z</time>
      </trkpt>
      <trkpt lat="45.5601" lon="5.26536">
        <ele>410.2</ele>
        <time>2023-08-29T06:07:50Z</time>
      </trkpt>
      <trkpt lat="45.56002" lon="5.26539">
        <ele>409.6</ele>
        <time>2023-08-29T06:07:51Z</time>
      </trkpt>
      <trkpt lat="45.55994" lon="5.26541">
        <ele>409.2</ele>
        <time>2023-08-29T06:07:52Z</time>
      </trkpt>
      <trkpt lat="45.55987" lon="5.26544">
        <ele>408</ele>
        <time>2023-08-29T06:07:53Z</time>
      </trkpt>
      <trkpt lat="45.55981" lon="5.26546">
        <ele>407.2</ele>
        <time>2023-08-29T06:07:54Z</time>
      </trkpt>
      <trkpt lat="45.55975" lon="5.26548">
        <ele>407.2</ele>
        <time>2023-08-29T06:07:55Z</time>
      </trkpt>
      <trkpt lat="45.55971" lon="5.26551">
        <ele>406.6</ele>
        <time>2023-08-29T06:07:56Z</time>
      </trkpt>
      <trkpt lat="45.55966" lon="5.26554">
        <ele>406</ele>
        <time>2023-08-29T06:07:57Z</time>
      </trkpt>
      <trkpt lat="45.55961" lon="5.26557">
        <ele>405.4</ele>
        <time>2023-08-29T06:07:58Z</time>
      </trkpt>
      <trkpt lat="45.55956" lon="5.2656">
        <ele>404.8</ele>
        <time>2023-08-29T06:07:59Z</time>
      </trkpt>
      <trkpt lat="45.55951" lon="5.26562">
        <ele>404.8</ele>
        <time>2023-08-29T06:08:00Z</time>
      </trkpt>
      <trkpt lat="45.55947" lon="5.26564">
        <ele>404.6</ele>
        <time>2023-08-29T06:08:01Z</time>
      </trkpt>
      <trkpt lat="45.55942" lon="5.26566">
        <ele>404.6</ele>
        <time>2023-08-29T06:08:02Z</time>
      </trkpt>
      <trkpt lat="45.55938" lon="5.26567">
        <ele>404.4</ele>
        <time>2023-08-29T06:08:03Z</time>
      </trkpt>
      <trkpt lat="45.55934" lon="5.26568">
        <ele>404.4</ele>
        <time>2023-08-29T06:08:04Z</time>
      </trkpt>
      <trkpt lat="45.55931" lon="5.26568">
        <ele>404.6</ele>
        <time>2023-08-29T06:08:05Z</time>
      </trkpt>
      <trkpt lat="45.55928" lon="5.26569">
        <ele>404.6</ele>
        <time>2023-08-29T06:08:06Z</time>
      </trkpt>
      <trkpt lat="45.55925" lon="5.2657">
        <ele>404.6</ele>
        <time>2023-08-29T06:08:07Z</time>
      </trkpt>
      <trkpt lat="45.55922" lon="5.26572">
        <ele>405</ele>
        <time>2023-08-29T06:08:08Z</time>
      </trkpt>
      <trkpt lat="45.55919" lon="5.26574">
        <ele>405</ele>
        <time>2023-08-29T06:08:09Z</time>
      </trkpt>
      <trkpt lat="45.55916" lon="5.26576">
        <ele>405.4</ele>
        <time>2023-08-29T06:08:10Z</time>
      </trkpt>
      <trkpt lat="45.55912" lon="5.26578">
        <ele>405.4</ele>
        <time>2023-08-29T06:08:11Z</time>
      </trkpt>
      <trkpt lat="45.55908" lon="5.2658">
        <ele>405.4</ele>
        <time>2023-08-29T06:08:12Z</time>
      </trkpt>
      <trkpt lat="45.55904" lon="5.26582">
        <ele>405.4</ele>
        <time>2023-08-29T06:08:13Z</time>
      </trkpt>
      <trkpt lat="45.559" lon="5.26584">
        <ele>405.4</ele>
        <time>2023-08-29T06:08:14Z</time>
      </trkpt>
      <trkpt lat="45.55896" lon="5.26587">
        <ele>405.4</ele>
        <time>2023-08-29T06:08:15Z</time>
      </trkpt>
      <trkpt lat="45.55892" lon="5.26589">
        <ele>405.4</ele>
        <time>2023-08-29T06:08:16Z</time>
      </trkpt>
      <trkpt lat="45.55888" lon="5.26591">
        <ele>405.4</ele>
        <time>2023-08-29T06:08:17Z</time>
      </trkpt>
      <trkpt lat="45.55885" lon="5.26593">
        <ele>405.4</ele>
        <time>2023-08-29T06:08:18Z</time>
      </trkpt>
      <trkpt lat="45.55882" lon="5.26595">
        <ele>405.4</ele>
        <time>2023-08-29T06:08:19Z</time>
      </trkpt>
      <trkpt lat="45.55878" lon="5.26597">
        <ele>405.4</ele>
        <time>2023-08-29T06:08:20Z</time>
      </trkpt>
      <trkpt lat="45.55874" lon="5.26599">
        <ele>405.4</ele>
        <time>2023-08-29T06:08:21Z</time>
      </trkpt>
      <trkpt lat="45.55871" lon="5.26602">
        <ele>405.2</ele>
        <time>2023-08-29T06:08:22Z</time>
      </trkpt>
      <trkpt lat="45.55867" lon="5.26604">
        <ele>405.2</ele>
        <time>2023-08-29T06:08:23Z</time>
      </trkpt>
      <trkpt lat="45.55863" lon="5.26606">
        <ele>405.2</ele>
        <time>2023-08-29T06:08:24Z</time>
      </trkpt>
      <trkpt lat="45.55859" lon="5.26608">
        <ele>405.2</ele>
        <time>2023-08-29T06:08:25Z</time>
      </trkpt>
      <trkpt lat="45.55855" lon="5.2661">
        <ele>405</ele>
        <time>2023-08-29T06:08:26Z</time>
      </trkpt>
      <trkpt lat="45.55851" lon="5.26612">
        <ele>405</ele>
        <time>2023-08-29T06:08:27Z</time>
      </trkpt>
      <trkpt lat="45.55848" lon="5.26615">
        <ele>405</ele>
        <time>2023-08-29T06:08:28Z</time>
      </trkpt>
      <trkpt lat="45.55844" lon="5.26617">
        <ele>404.8</ele>
        <time>2023-08-29T06:08:29Z</time>
      </trkpt>
      <trkpt lat="45.55841" lon="5.26619">
        <ele>404.8</ele>
        <time>2023-08-29T06:08:30Z</time>
      </trkpt>
      <trkpt lat="45.55837" lon="5.26622">
        <ele>404.8</ele>
        <time>2023-08-29T06:08:31Z</time>
      </trkpt>
      <trkpt lat="45.55834" lon="5.26624">
        <ele>404.8</ele>
        <time>2023-08-29T06:08:32Z</time>
      </trkpt>
      <trkpt lat="45.55831" lon="5.26627">
        <ele>405</ele>
        <time>2023-08-29T06:08:33Z</time>
      </trkpt>
      <trkpt lat="45.55828" lon="5.26629">
        <ele>405</ele>
        <time>2023-08-29T06:08:34Z</time>
      </trkpt>
      <trkpt lat="45.55825" lon="5.26631">
        <ele>405.2</ele>
        <time>2023-08-29T06:08:35Z</time>
      </trkpt>
      <trkpt lat="45.55822" lon="5.26633">
        <ele>405.2</ele>
        <time>2023-08-29T06:08:36Z</time>
      </trkpt>
      <trkpt lat="45.5582" lon="5.26636">
        <ele>405.4</ele>
        <time>2023-08-29T06:08:37Z</time>
      </trkpt>
      <trkpt lat="45.55817" lon="5.26639">
        <ele>405.6</ele>
        <time>2023-08-29T06:08:38Z</time>
      </trkpt>
      <trkpt lat="45.55813" lon="5.26641">
        <ele>405.6</ele>
        <time>2023-08-29T06:08:39Z</time>
      </trkpt>
      <trkpt lat="45.5581" lon="5.26644">
        <ele>405.8</ele>
        <time>2023-08-29T06:08:40Z</time>
      </trkpt>
      <trkpt lat="45.55807" lon="5.26648">
        <ele>405.8</ele>
        <time>2023-08-29T06:08:41Z</time>
      </trkpt>
      <trkpt lat="45.55804" lon="5.26652">
        <ele>405.8</ele>
        <time>2023-08-29T06:08:42Z</time>
      </trkpt>
      <trkpt lat="45.55801" lon="5.26655">
        <ele>405.8</ele>
        <time>2023-08-29T06:08:43Z</time>
      </trkpt>
      <trkpt lat="45.55798" lon="5.2666">
        <ele>405.8</ele>
        <time>2023-08-29T06:08:44Z</time>
      </trkpt>
      <trkpt lat="45.55795" lon="5.26666">
        <ele>405.8</ele>
        <time>2023-08-29T06:08:45Z</time>
      </trkpt>
      <trkpt lat="45.55792" lon="5.26672">
        <ele>405.8</ele>
        <time>2023-08-29T06:08:46Z</time>
      </trkpt>
      <trkpt lat="45.5579" lon="5.26678">
        <ele>405.4</ele>
        <time>2023-08-29T06:08:47Z</time>
      </trkpt>
      <trkpt lat="45.55788" lon="5.26685">
        <ele>405.2</ele>
        <time>2023-08-29T06:08:48Z</time>
      </trkpt>
      <trkpt lat="45.55787" lon="5.26693">
        <ele>405.2</ele>
        <time>2023-08-29T06:08:49Z</time>
      </trkpt>
      <trkpt lat="45.55786" lon="5.267">
        <ele>404.6</ele>
        <time>2023-08-29T06:08:50Z</time>
      </trkpt>
      <trkpt lat="45.55786" lon="5.26706">
        <ele>404.2</ele>
        <time>2023-08-29T06:08:51Z</time>
      </trkpt>
      <trkpt lat="45.55785" lon="5.26714">
        <ele>403.8</ele>
        <time>2023-08-29T06:08:52Z</time>
      </trkpt>
      <trkpt lat="45.55784" lon="5.26722">
        <ele>403.4</ele>
        <time>2023-08-29T06:08:53Z</time>
      </trkpt>
      <trkpt lat="45.55782" lon="5.26731">
        <ele>403</ele>
        <time>2023-08-29T06:08:54Z</time>
      </trkpt>
      <trkpt lat="45.5578" lon="5.2674">
        <ele>402.4</ele>
        <time>2023-08-29T06:08:55Z</time>
      </trkpt>
      <trkpt lat="45.55777" lon="5.26748">
        <ele>401.6</ele>
        <time>2023-08-29T06:08:56Z</time>
      </trkpt>
      <trkpt lat="45.55775" lon="5.26757">
        <ele>400.8</ele>
        <time>2023-08-29T06:08:57Z</time>
      </trkpt>
      <trkpt lat="45.55772" lon="5.26765">
        <ele>400</ele>
        <time>2023-08-29T06:08:58Z</time>
      </trkpt>
      <trkpt lat="45.55769" lon="5.26774">
        <ele>399.6</ele>
        <time>2023-08-29T06:08:59Z</time>
      </trkpt>
      <trkpt lat="45.55766" lon="5.26782">
        <ele>399</ele>
        <time>2023-08-29T06:09:00Z</time>
      </trkpt>
      <trkpt lat="45.55763" lon="5.26791">
        <ele>398.2</ele>
        <time>2023-08-29T06:09:01Z</time>
      </trkpt>
      <trkpt lat="45.55759" lon="5.26799">
        <ele>397.6</ele>
        <time>2023-08-29T06:09:02Z</time>
      </trkpt>
      <trkpt lat="45.55756" lon="5.26807">
        <ele>396.8</ele>
        <time>2023-08-29T06:09:03Z</time>
      </trkpt>
      <trkpt lat="45.55752" lon="5.26814">
        <ele>396.2</ele>
        <time>2023-08-29T06:09:04Z</time>
      </trkpt>
      <trkpt lat="45.55748" lon="5.26822">
        <ele>395.2</ele>
        <time>2023-08-29T06:09:05Z</time>
      </trkpt>
      <trkpt lat="45.55744" lon="5.26828">
        <ele>394.8</ele>
        <time>2023-08-29T06:09:06Z</time>
      </trkpt>
      <trkpt lat="45.5574" lon="5.26836">
        <ele>394.8</ele>
        <time>2023-08-29T06:09:07Z</time>
      </trkpt>
      <trkpt lat="45.55735" lon="5.26843">
        <ele>393.8</ele>
        <time>2023-08-29T06:09:08Z</time>
      </trkpt>
      <trkpt lat="45.5573" lon="5.2685">
        <ele>393</ele>
        <time>2023-08-29T06:09:09Z</time>
      </trkpt>
      <trkpt lat="45.55726" lon="5.26857">
        <ele>392</ele>
        <time>2023-08-29T06:09:10Z</time>
      </trkpt>
      <trkpt lat="45.55721" lon="5.26863">
        <ele>391</ele>
        <time>2023-08-29T06:09:11Z</time>
      </trkpt>
      <trkpt lat="45.55717" lon="5.2687">
        <ele>390.4</ele>
        <time>2023-08-29T06:09:12Z</time>
      </trkpt>
      <trkpt lat="45.55713" lon="5.26877">
        <ele>389.8</ele>
        <time>2023-08-29T06:09:13Z</time>
      </trkpt>
      <trkpt lat="45.55709" lon="5.26884">
        <ele>389.2</ele>
        <time>2023-08-29T06:09:14Z</time>
      </trkpt>
      <trkpt lat="45.55706" lon="5.26891">
        <ele>388.6</ele>
        <time>2023-08-29T06:09:15Z</time>
      </trkpt>
      <trkpt lat="45.55702" lon="5.26897">
        <ele>387.8</ele>
        <time>2023-08-29T06:09:16Z</time>
      </trkpt>
      <trkpt lat="45.55699" lon="5.26902">
        <ele>387</ele>
        <time>2023-08-29T06:09:17Z</time>
      </trkpt>
      <trkpt lat="45.55695" lon="5.26907">
        <ele>386.6</ele>
        <time>2023-08-29T06:09:18Z</time>
      </trkpt>
      <trkpt lat="45.55691" lon="5.26911">
        <ele>385.8</ele>
        <time>2023-08-29T06:09:19Z</time>
      </trkpt>
      <trkpt lat="45.55687" lon="5.26914">
        <ele>385.2</ele>
        <time>2023-08-29T06:09:20Z</time>
      </trkpt>
      <trkpt lat="45.55682" lon="5.26916">
        <ele>384.6</ele>
        <time>2023-08-29T06:09:21Z</time>
      </trkpt>
      <trkpt lat="45.55678" lon="5.26917">
        <ele>383.8</ele>
        <time>2023-08-29T06:09:22Z</time>
      </trkpt>
      <trkpt lat="45.55674" lon="5.26916">
        <ele>383.2</ele>
        <time>2023-08-29T06:09:23Z</time>
      </trkpt>
      <trkpt lat="45.5567" lon="5.26915">
        <ele>382.4</ele>
        <time>2023-08-29T06:09:24Z</time>
      </trkpt>
      <trkpt lat="45.55667" lon="5.26912">
        <ele>381.8</ele>
        <time>2023-08-29T06:09:25Z</time>
      </trkpt>
      <trkpt lat="45.55663" lon="5.26909">
        <ele>381.4</ele>
        <time>2023-08-29T06:09:26Z</time>
      </trkpt>
      <trkpt lat="45.5566" lon="5.26904">
        <ele>380.4</ele>
        <time>2023-08-29T06:09:27Z</time>
      </trkpt>
      <trkpt lat="45.55658" lon="5.26899">
        <ele>379.8</ele>
        <time>2023-08-29T06:09:28Z</time>
      </trkpt>
      <trkpt lat="45.55657" lon="5.26893">
        <ele>379</ele>
        <time>2023-08-29T06:09:29Z</time>
      </trkpt>
      <trkpt lat="45.55656" lon="5.26887">
        <ele>378.4</ele>
        <time>2023-08-29T06:09:30Z</time>
      </trkpt>
      <trkpt lat="45.55656" lon="5.26881">
        <ele>378</ele>
        <time>2023-08-29T06:09:31Z</time>
      </trkpt>
      <trkpt lat="45.55656" lon="5.26876">
        <ele>377.4</ele>
        <time>2023-08-29T06:09:32Z</time>
      </trkpt>
      <trkpt lat="45.55656" lon="5.2687">
        <ele>376.6</ele>
        <time>2023-08-29T06:09:33Z</time>
      </trkpt>
      <trkpt lat="45.55656" lon="5.26864">
        <ele>376</ele>
        <time>2023-08-29T06:09:34Z</time>
      </trkpt>
      <trkpt lat="45.55656" lon="5.26859">
        <ele>375.6</ele>
        <time>2023-08-29T06:09:35Z</time>
      </trkpt>
      <trkpt lat="45.55655" lon="5.26854">
        <ele>375</ele>
        <time>2023-08-29T06:09:36Z</time>
      </trkpt>
      <trkpt lat="45.55653" lon="5.26849">
        <ele>374.6</ele>
        <time>2023-08-29T06:09:37Z</time>
      </trkpt>
      <trkpt lat="45.55651" lon="5.26845">
        <ele>374</ele>
        <time>2023-08-29T06:09:38Z</time>
      </trkpt>
      <trkpt lat="45.55648" lon="5.26842">
        <ele>373.4</ele>
        <time>2023-08-29T06:09:39Z</time>
      </trkpt>
      <trkpt lat="45.55644" lon="5.2684">
        <ele>372.8</ele>
        <time>2023-08-29T06:09:40Z</time>
      </trkpt>
      <trkpt lat="45.55641" lon="5.2684">
        <ele>372.4</ele>
        <time>2023-08-29T06:09:41Z</time>
      </trkpt>
      <trkpt lat="45.55638" lon="5.26841">
        <ele>371.6</ele>
        <time>2023-08-29T06:09:42Z</time>
      </trkpt>
      <trkpt lat="45.55634" lon="5.26843">
        <ele>371.6</ele>
        <time>2023-08-29T06:09:43Z</time>
      </trkpt>
      <trkpt lat="45.5563" lon="5.26847">
        <ele>371</ele>
        <time>2023-08-29T06:09:44Z</time>
      </trkpt>
      <trkpt lat="45.55627" lon="5.26851">
        <ele>370.4</ele>
        <time>2023-08-29T06:09:45Z</time>
      </trkpt>
      <trkpt lat="45.55623" lon="5.26855">
        <ele>369.8</ele>
        <time>2023-08-29T06:09:46Z</time>
      </trkpt>
      <trkpt lat="45.55619" lon="5.2686">
        <ele>369</ele>
        <time>2023-08-29T06:09:47Z</time>
      </trkpt>
      <trkpt lat="45.55615" lon="5.26864">
        <ele>368.2</ele>
        <time>2023-08-29T06:09:48Z</time>
      </trkpt>
      <trkpt lat="45.5561" lon="5.26867">
        <ele>367.2</ele>
        <time>2023-08-29T06:09:49Z</time>
      </trkpt>
      <trkpt lat="45.55606" lon="5.26869">
        <ele>366.6</ele>
        <time>2023-08-29T06:09:50Z</time>
      </trkpt>
      <trkpt lat="45.55601" lon="5.2687">
        <ele>365.8</ele>
        <time>2023-08-29T06:09:51Z</time>
      </trkpt>
      <trkpt lat="45.55595" lon="5.26871">
        <ele>364.2</ele>
        <time>2023-08-29T06:09:52Z</time>
      </trkpt>
      <trkpt lat="45.55588" lon="5.26872">
        <ele>363.2</ele>
        <time>2023-08-29T06:09:53Z</time>
      </trkpt>
      <trkpt lat="45.55582" lon="5.26873">
        <ele>362.4</ele>
        <time>2023-08-29T06:09:54Z</time>
      </trkpt>
      <trkpt lat="45.55575" lon="5.26875">
        <ele>361.4</ele>
        <time>2023-08-29T06:09:55Z</time>
      </trkpt>
      <trkpt lat="45.55569" lon="5.26876">
        <ele>360.4</ele>
        <time>2023-08-29T06:09:56Z</time>
      </trkpt>
      <trkpt lat="45.55563" lon="5.26877">
        <ele>359.4</ele>
        <time>2023-08-29T06:09:57Z</time>
      </trkpt>
      <trkpt lat="45.55557" lon="5.26878">
        <ele>358.4</ele>
        <time>2023-08-29T06:09:58Z</time>
      </trkpt>
      <trkpt lat="45.55551" lon="5.26877">
        <ele>357.2</ele>
        <time>2023-08-29T06:09:59Z</time>
      </trkpt>
      <trkpt lat="45.55545" lon="5.26876">
        <ele>356.2</ele>
        <time>2023-08-29T06:10:00Z</time>
      </trkpt>
      <trkpt lat="45.55539" lon="5.26875">
        <ele>355.2</ele>
        <time>2023-08-29T06:10:01Z</time>
      </trkpt>
      <trkpt lat="45.55532" lon="5.26873">
        <ele>354.2</ele>
        <time>2023-08-29T06:10:02Z</time>
      </trkpt>
      <trkpt lat="45.55524" lon="5.26871">
        <ele>353.2</ele>
        <time>2023-08-29T06:10:03Z</time>
      </trkpt>
      <trkpt lat="45.55516" lon="5.26869">
        <ele>352.4</ele>
        <time>2023-08-29T06:10:04Z</time>
      </trkpt>
      <trkpt lat="45.55509" lon="5.26868">
        <ele>351.2</ele>
        <time>2023-08-29T06:10:05Z</time>
      </trkpt>
      <trkpt lat="45.55501" lon="5.26866">
        <ele>349.8</ele>
        <time>2023-08-29T06:10:06Z</time>
      </trkpt>
      <trkpt lat="45.55494" lon="5.26864">
        <ele>348.6</ele>
        <time>2023-08-29T06:10:07Z</time>
      </trkpt>
      <trkpt lat="45.55486" lon="5.26862">
        <ele>347.6</ele>
        <time>2023-08-29T06:10:08Z</time>
      </trkpt>
      <trkpt lat="45.55479" lon="5.2686">
        <ele>346.4</ele>
        <time>2023-08-29T06:10:09Z</time>
      </trkpt>
      <trkpt lat="45.55471" lon="5.26859">
        <ele>345.2</ele>
        <time>2023-08-29T06:10:10Z</time>
      </trkpt>
      <trkpt lat="45.55463" lon="5.26857">
        <ele>344.4</ele>
        <time>2023-08-29T06:10:11Z</time>
      </trkpt>
      <trkpt lat="45.55454" lon="5.26856">
        <ele>343.6</ele>
        <time>2023-08-29T06:10:12Z</time>
      </trkpt>
      <trkpt lat="45.55446" lon="5.26855">
        <ele>342.6</ele>
        <time>2023-08-29T06:10:13Z</time>
      </trkpt>
      <trkpt lat="45.55438" lon="5.26855">
        <ele>341.8</ele>
        <time>2023-08-29T06:10:14Z</time>
      </trkpt>
      <trkpt lat="45.5543" lon="5.26854">
        <ele>340.6</ele>
        <time>2023-08-29T06:10:15Z</time>
      </trkpt>
      <trkpt lat="45.55422" lon="5.26854">
        <ele>339.8</ele>
        <time>2023-08-29T06:10:16Z</time>
      </trkpt>
      <trkpt lat="45.55414" lon="5.26854">
        <ele>339.2</ele>
        <time>2023-08-29T06:10:17Z</time>
      </trkpt>
      <trkpt lat="45.55406" lon="5.26853">
        <ele>338.8</ele>
        <time>2023-08-29T06:10:18Z</time>
      </trkpt>
      <trkpt lat="45.55398" lon="5.26851">
        <ele>338.8</ele>
        <time>2023-08-29T06:10:19Z</time>
      </trkpt>
      <trkpt lat="45.5539" lon="5.2685">
        <ele>337.8</ele>
        <time>2023-08-29T06:10:20Z</time>
      </trkpt>
      <trkpt lat="45.55381" lon="5.26848">
        <ele>336.4</ele>
        <time>2023-08-29T06:10:21Z</time>
      </trkpt>
      <trkpt lat="45.55373" lon="5.26847">
        <ele>335</ele>
        <time>2023-08-29T06:10:22Z</time>
      </trkpt>
      <trkpt lat="45.55365" lon="5.26847">
        <ele>333.8</ele>
        <time>2023-08-29T06:10:23Z</time>
      </trkpt>
      <trkpt lat="45.55359" lon="5.26847">
        <ele>333</ele>
        <time>2023-08-29T06:10:24Z</time>
      </trkpt>
      <trkpt lat="45.55353" lon="5.26847">
        <ele>332.2</ele>
        <time>2023-08-29T06:10:25Z</time>
      </trkpt>
      <trkpt lat="45.55347" lon="5.26847">
        <ele>331.2</ele>
        <time>2023-08-29T06:10:26Z</time>
      </trkpt>
      <trkpt lat="45.55343" lon="5.26847">
        <ele>330.2</ele>
        <time>2023-08-29T06:10:27Z</time>
      </trkpt>
      <trkpt lat="45.55338" lon="5.26846">
        <ele>329.8</ele>
        <time>2023-08-29T06:10:28Z</time>
      </trkpt>
      <trkpt lat="45.55333" lon="5.26845">
        <ele>328.8</ele>
        <time>2023-08-29T06:10:29Z</time>
      </trkpt>
      <trkpt lat="45.55327" lon="5.26843">
        <ele>328.2</ele>
        <time>2023-08-29T06:10:30Z</time>
      </trkpt>
      <trkpt lat="45.55321" lon="5.26841">
        <ele>328</ele>
        <time>2023-08-29T06:10:31Z</time>
      </trkpt>
      <trkpt lat="45.55315" lon="5.26839">
        <ele>327.6</ele>
        <time>2023-08-29T06:10:32Z</time>
      </trkpt>
      <trkpt lat="45.55308" lon="5.26838">
        <ele>327</ele>
        <time>2023-08-29T06:10:33Z</time>
      </trkpt>
      <trkpt lat="45.55302" lon="5.26837">
        <ele>326.6</ele>
        <time>2023-08-29T06:10:34Z</time>
      </trkpt>
      <trkpt lat="45.55296" lon="5.26836">
        <ele>326.2</ele>
        <time>2023-08-29T06:10:35Z</time>
      </trkpt>
      <trkpt lat="45.55291" lon="5.26833">
        <ele>325.8</ele>
        <time>2023-08-29T06:10:36Z</time>
      </trkpt>
      <trkpt lat="45.55286" lon="5.26829">
        <ele>325.4</ele>
        <time>2023-08-29T06:10:37Z</time>
      </trkpt>
      <trkpt lat="45.55282" lon="5.26826">
        <ele>324.8</ele>
        <time>2023-08-29T06:10:38Z</time>
      </trkpt>
      <trkpt lat="45.55277" lon="5.26822">
        <ele>324.4</ele>
        <time>2023-08-29T06:10:39Z</time>
      </trkpt>
      <trkpt lat="45.55273" lon="5.26821">
        <ele>324.4</ele>
        <time>2023-08-29T06:10:40Z</time>
      </trkpt>
      <trkpt lat="45.55268" lon="5.26821">
        <ele>324.4</ele>
        <time>2023-08-29T06:10:41Z</time>
      </trkpt>
      <trkpt lat="45.55265" lon="5.26822">
        <ele>324.6</ele>
        <time>2023-08-29T06:10:42Z</time>
      </trkpt>
      <trkpt lat="45.55261" lon="5.26822">
        <ele>324.8</ele>
        <time>2023-08-29T06:10:43Z</time>
      </trkpt>
      <trkpt lat="45.55258" lon="5.26823">
        <ele>325</ele>
        <time>2023-08-29T06:10:44Z</time>
      </trkpt>
      <trkpt lat="45.55256" lon="5.26823">
        <ele>325.2</ele>
        <time>2023-08-29T06:10:45Z</time>
      </trkpt>
      <trkpt lat="45.55254" lon="5.26824">
        <ele>325.4</ele>
        <time>2023-08-29T06:10:46Z</time>
      </trkpt>
      <trkpt lat="45.55252" lon="5.26826">
        <ele>325.6</ele>
        <time>2023-08-29T06:10:47Z</time>
      </trkpt>
      <trkpt lat="45.5525" lon="5.26827">
        <ele>326</ele>
        <time>2023-08-29T06:10:48Z</time>
      </trkpt>
      <trkpt lat="45.55249" lon="5.26829">
        <ele>326.2</ele>
        <time>2023-08-29T06:10:49Z</time>
      </trkpt>
      <trkpt lat="45.55247" lon="5.26832">
        <ele>326.4</ele>
        <time>2023-08-29T06:10:50Z</time>
      </trkpt>
      <trkpt lat="45.55245" lon="5.26836">
        <ele>326.4</ele>
        <time>2023-08-29T06:10:51Z</time>
      </trkpt>
      <trkpt lat="45.55245" lon="5.26841">
        <ele>326.4</ele>
        <time>2023-08-29T06:10:52Z</time>
      </trkpt>
      <trkpt lat="45.55245" lon="5.26846">
        <ele>326.4</ele>
        <time>2023-08-29T06:10:53Z</time>
      </trkpt>
      <trkpt lat="45.55246" lon="5.26852">
        <ele>326.4</ele>
        <time>2023-08-29T06:10:54Z</time>
      </trkpt>
      <trkpt lat="45.55247" lon="5.26857">
        <ele>326.2</ele>
        <time>2023-08-29T06:10:55Z</time>
      </trkpt>
      <trkpt lat="45.55248" lon="5.26863">
        <ele>326.2</ele>
        <time>2023-08-29T06:10:56Z</time>
      </trkpt>
      <trkpt lat="45.55249" lon="5.26869">
        <ele>326.2</ele>
        <time>2023-08-29T06:10:57Z</time>
      </trkpt>
      <trkpt lat="45.5525" lon="5.26875">
        <ele>326</ele>
        <time>2023-08-29T06:10:58Z</time>
      </trkpt>
      <trkpt lat="45.5525" lon="5.26881">
        <ele>325.8</ele>
        <time>2023-08-29T06:10:59Z</time>
      </trkpt>
      <trkpt lat="45.55252" lon="5.26887">
        <ele>325.8</ele>
        <time>2023-08-29T06:11:00Z</time>
      </trkpt>
      <trkpt lat="45.55253" lon="5.26893">
        <ele>325.6</ele>
        <time>2023-08-29T06:11:01Z</time>
      </trkpt>
      <trkpt lat="45.55254" lon="5.269">
        <ele>325.2</ele>
        <time>2023-08-29T06:11:02Z</time>
      </trkpt>
      <trkpt lat="45.55255" lon="5.26906">
        <ele>325.2</ele>
        <time>2023-08-29T06:11:03Z</time>
      </trkpt>
      <trkpt lat="45.55257" lon="5.26911">
        <ele>325.2</ele>
        <time>2023-08-29T06:11:04Z</time>
      </trkpt>
      <trkpt lat="45.55258" lon="5.26917">
        <ele>325.2</ele>
        <time>2023-08-29T06:11:05Z</time>
      </trkpt>
      <trkpt lat="45.55259" lon="5.26924">
        <ele>325.2</ele>
        <time>2023-08-29T06:11:06Z</time>
      </trkpt>
      <trkpt lat="45.55259" lon="5.26931">
        <ele>325.2</ele>
        <time>2023-08-29T06:11:07Z</time>
      </trkpt>
      <trkpt lat="45.5526" lon="5.26937">
        <ele>325</ele>
        <time>2023-08-29T06:11:08Z</time>
      </trkpt>
      <trkpt lat="45.55262" lon="5.26943">
        <ele>325</ele>
        <time>2023-08-29T06:11:09Z</time>
      </trkpt>
      <trkpt lat="45.55263" lon="5.2695">
        <ele>325</ele>
        <time>2023-08-29T06:11:10Z</time>
      </trkpt>
      <trkpt lat="45.55264" lon="5.26956">
        <ele>324.8</ele>
        <time>2023-08-29T06:11:11Z</time>
      </trkpt>
      <trkpt lat="45.55265" lon="5.26963">
        <ele>324.8</ele>
        <time>2023-08-29T06:11:12Z</time>
      </trkpt>
      <trkpt lat="45.55266" lon="5.2697">
        <ele>324.8</ele>
        <time>2023-08-29T06:11:13Z</time>
      </trkpt>
      <trkpt lat="45.55268" lon="5.26976">
        <ele>324.6</ele>
        <time>2023-08-29T06:11:14Z</time>
      </trkpt>
      <trkpt lat="45.55269" lon="5.26982">
        <ele>324.6</ele>
        <time>2023-08-29T06:11:15Z</time>
      </trkpt>
      <trkpt lat="45.5527" lon="5.26989">
        <ele>324.6</ele>
        <time>2023-08-29T06:11:16Z</time>
      </trkpt>
      <trkpt lat="45.55271" lon="5.26996">
        <ele>324.4</ele>
        <time>2023-08-29T06:11:17Z</time>
      </trkpt>
      <trkpt lat="45.55272" lon="5.27003">
        <ele>324.6</ele>
        <time>2023-08-29T06:11:18Z</time>
      </trkpt>
      <trkpt lat="45.55273" lon="5.2701">
        <ele>324.6</ele>
        <time>2023-08-29T06:11:19Z</time>
      </trkpt>
      <trkpt lat="45.55275" lon="5.27017">
        <ele>324.4</ele>
        <time>2023-08-29T06:11:20Z</time>
      </trkpt>
      <trkpt lat="45.55276" lon="5.27024">
        <ele>324.4</ele>
        <time>2023-08-29T06:11:21Z</time>
      </trkpt>
      <trkpt lat="45.55277" lon="5.27031">
        <ele>324.4</ele>
        <time>2023-08-29T06:11:22Z</time>
      </trkpt>
      <trkpt lat="45.55278" lon="5.27038">
        <ele>324.4</ele>
        <time>2023-08-29T06:11:23Z</time>
      </trkpt>
      <trkpt lat="45.55279" lon="5.27045">
        <ele>324.4</ele>
        <time>2023-08-29T06:11:24Z</time>
      </trkpt>
      <trkpt lat="45.5528" lon="5.27052">
        <ele>324.4</ele>
        <time>2023-08-29T06:11:25Z</time>
      </trkpt>
      <trkpt lat="45.55281" lon="5.27059">
        <ele>324.4</ele>
        <time>2023-08-29T06:11:26Z</time>
      </trkpt>
      <trkpt lat="45.55282" lon="5.27066">
        <ele>324.4</ele>
        <time>2023-08-29T06:11:27Z</time>
      </trkpt>
      <trkpt lat="45.55283" lon="5.27073">
        <ele>324.4</ele>
        <time>2023-08-29T06:11:28Z</time>
      </trkpt>
      <trkpt lat="45.55284" lon="5.2708">
        <ele>324.4</ele>
        <time>2023-08-29T06:11:29Z</time>
      </trkpt>
      <trkpt lat="45.55286" lon="5.27088">
        <ele>324.4</ele>
        <time>2023-08-29T06:11:30Z</time>
      </trkpt>
      <trkpt lat="45.55287" lon="5.27095">
        <ele>324.4</ele>
        <time>2023-08-29T06:11:31Z</time>
      </trkpt>
      <trkpt lat="45.55288" lon="5.27102">
        <ele>324.4</ele>
        <time>2023-08-29T06:11:32Z</time>
      </trkpt>
      <trkpt lat="45.5529" lon="5.27109">
        <ele>324.4</ele>
        <time>2023-08-29T06:11:33Z</time>
      </trkpt>
      <trkpt lat="45.55291" lon="5.27116">
        <ele>324.4</ele>
        <time>2023-08-29T06:11:34Z</time>
      </trkpt>
      <trkpt lat="45.55293" lon="5.27123">
        <ele>324.2</ele>
        <time>2023-08-29T06:11:35Z</time>
      </trkpt>
      <trkpt lat="45.55294" lon="5.2713">
        <ele>324</ele>
        <time>2023-08-29T06:11:36Z</time>
      </trkpt>
      <trkpt lat="45.55296" lon="5.27137">
        <ele>324</ele>
        <time>2023-08-29T06:11:37Z</time>
      </trkpt>
      <trkpt lat="45.55298" lon="5.27143">
        <ele>323.8</ele>
        <time>2023-08-29T06:11:38Z</time>
      </trkpt>
      <trkpt lat="45.553" lon="5.2715">
        <ele>323.8</ele>
        <time>2023-08-29T06:11:39Z</time>
      </trkpt>
      <trkpt lat="45.55302" lon="5.27157">
        <ele>323.8</ele>
        <time>2023-08-29T06:11:40Z</time>
      </trkpt>
      <trkpt lat="45.55304" lon="5.27163">
        <ele>323.8</ele>
        <time>2023-08-29T06:11:41Z</time>
      </trkpt>
      <trkpt lat="45.55306" lon="5.2717">
        <ele>323.8</ele>
        <time>2023-08-29T06:11:42Z</time>
      </trkpt>
      <trkpt lat="45.55308" lon="5.27177">
        <ele>324</ele>
        <time>2023-08-29T06:11:43Z</time>
      </trkpt>
      <trkpt lat="45.55311" lon="5.27184">
        <ele>323.8</ele>
        <time>2023-08-29T06:11:44Z</time>
      </trkpt>
      <trkpt lat="45.55313" lon="5.2719">
        <ele>323.8</ele>
        <time>2023-08-29T06:11:45Z</time>
      </trkpt>
      <trkpt lat="45.55316" lon="5.27197">
        <ele>323.8</ele>
        <time>2023-08-29T06:11:46Z</time>
      </trkpt>
      <trkpt lat="45.55318" lon="5.27203">
        <ele>323.8</ele>
        <time>2023-08-29T06:11:47Z</time>
      </trkpt>
      <trkpt lat="45.55321" lon="5.27209">
        <ele>323.8</ele>
        <time>2023-08-29T06:11:48Z</time>
      </trkpt>
      <trkpt lat="45.55324" lon="5.27216">
        <ele>323.6</ele>
        <time>2023-08-29T06:11:49Z</time>
      </trkpt>
      <trkpt lat="45.55327" lon="5.27222">
        <ele>323.6</ele>
        <time>2023-08-29T06:11:50Z</time>
      </trkpt>
      <trkpt lat="45.5533" lon="5.27228">
        <ele>323.6</ele>
        <time>2023-08-29T06:11:51Z</time>
      </trkpt>
      <trkpt lat="45.55333" lon="5.27234">
        <ele>323.4</ele>
        <time>2023-08-29T06:11:52Z</time>
      </trkpt>
      <trkpt lat="45.55336" lon="5.2724">
        <ele>323.4</ele>
        <time>2023-08-29T06:11:53Z</time>
      </trkpt>
      <trkpt lat="45.55339" lon="5.27247">
        <ele>323.2</ele>
        <time>2023-08-29T06:11:54Z</time>
      </trkpt>
      <trkpt lat="45.55342" lon="5.27253">
        <ele>323</ele>
        <time>2023-08-29T06:11:55Z</time>
      </trkpt>
      <trkpt lat="45.55345" lon="5.2726">
        <ele>322.8</ele>
        <time>2023-08-29T06:11:56Z</time>
      </trkpt>
      <trkpt lat="45.55349" lon="5.27266">
        <ele>322.8</ele>
        <time>2023-08-29T06:11:57Z</time>
      </trkpt>
      <trkpt lat="45.55352" lon="5.27272">
        <ele>322.6</ele>
        <time>2023-08-29T06:11:58Z</time>
      </trkpt>
      <trkpt lat="45.55356" lon="5.27278">
        <ele>322.6</ele>
        <time>2023-08-29T06:11:59Z</time>
      </trkpt>
      <trkpt lat="45.55359" lon="5.27284">
        <ele>322.4</ele>
        <time>2023-08-29T06:12:00Z</time>
      </trkpt>
      <trkpt lat="45.55362" lon="5.27288">
        <ele>322.4</ele>
        <time>2023-08-29T06:12:01Z</time>
      </trkpt>
      <trkpt lat="45.55365" lon="5.27293">
        <ele>322</ele>
        <time>2023-08-29T06:12:02Z</time>
      </trkpt>
      <trkpt lat="45.55368" lon="5.27297">
        <ele>322</ele>
        <time>2023-08-29T06:12:03Z</time>
      </trkpt>
      <trkpt lat="45.55371" lon="5.27301">
        <ele>321.8</ele>
        <time>2023-08-29T06:12:04Z</time>
      </trkpt>
      <trkpt lat="45.55372" lon="5.27306">
        <ele>321.8</ele>
        <time>2023-08-29T06:12:05Z</time>
      </trkpt>
      <trkpt lat="45.55374" lon="5.27311">
        <ele>321.8</ele>
        <time>2023-08-29T06:12:06Z</time>
      </trkpt>
      <trkpt lat="45.55376" lon="5.27315">
        <ele>321.8</ele>
        <time>2023-08-29T06:12:07Z</time>
      </trkpt>
      <trkpt lat="45.55376" lon="5.27319">
        <ele>321.8</ele>
        <time>2023-08-29T06:12:08Z</time>
      </trkpt>
      <trkpt lat="45.55376" lon="5.27322">
        <ele>321.8</ele>
        <time>2023-08-29T06:12:09Z</time>
      </trkpt>
      <trkpt lat="45.55376" lon="5.27325">
        <ele>321.8</ele>
        <time>2023-08-29T06:12:10Z</time>
      </trkpt>
      <trkpt lat="45.55376" lon="5.27328">
        <ele>321.8</ele>
        <time>2023-08-29T06:12:11Z</time>
      </trkpt>
      <trkpt lat="45.55375" lon="5.2733">
        <ele>321.8</ele>
        <time>2023-08-29T06:12:12Z</time>
      </trkpt>
      <trkpt lat="45.55375" lon="5.27332">
        <ele>321.8</ele>
        <time>2023-08-29T06:12:13Z</time>
      </trkpt>
      <trkpt lat="45.55374" lon="5.27332">
        <ele>322</ele>
        <time>2023-08-29T06:12:14Z</time>
      </trkpt>
      <trkpt lat="45.55374" lon="5.27332">
        <ele>322</ele>
        <time>2023-08-29T06:12:15Z</time>
      </trkpt>
      <trkpt lat="45.55374" lon="5.27332">
        <ele>322</ele>
        <time>2023-08-29T06:12:16Z</time>
      </trkpt>
      <trkpt lat="45.55374" lon="5.27347">
        <ele>322</ele>
        <time>2023-08-29T06:22:06Z</time>
      </trkpt>
      <trkpt lat="45.55374" lon="5.27349">
        <ele>322</ele>
        <time>2023-08-29T06:22:07Z</time>
      </trkpt>
      <trkpt lat="45.55374" lon="5.27352">
        <ele>322</ele>
        <time>2023-08-29T06:22:08Z</time>
      </trkpt>
      <trkpt lat="45.55375" lon="5.27355">
        <ele>322</ele>
        <time>2023-08-29T06:22:09Z</time>
      </trkpt>
      <trkpt lat="45.55376" lon="5.27358">
        <ele>322</ele>
        <time>2023-08-29T06:22:10Z</time>
      </trkpt>
      <trkpt lat="45.55377" lon="5.27361">
        <ele>322</ele>
        <time>2023-08-29T06:22:11Z</time>
      </trkpt>
      <trkpt lat="45.55378" lon="5.27364">
        <ele>322</ele>
        <time>2023-08-29T06:22:12Z</time>
      </trkpt>
      <trkpt lat="45.55379" lon="5.27368">
        <ele>322</ele>
        <time>2023-08-29T06:22:13Z</time>
      </trkpt>
      <trkpt lat="45.5538" lon="5.27372">
        <ele>322</ele>
        <time>2023-08-29T06:22:14Z</time>
      </trkpt>
      <trkpt lat="45.55381" lon="5.27377">
        <ele>322</ele>
        <time>2023-08-29T06:22:15Z</time>
      </trkpt>
      <trkpt lat="45.55381" lon="5.27382">
        <ele>322</ele>
        <time>2023-08-29T06:22:16Z</time>
      </trkpt>
      <trkpt lat="45.55382" lon="5.27387">
        <ele>322</ele>
        <time>2023-08-29T06:22:17Z</time>
      </trkpt>
      <trkpt lat="45.55383" lon="5.27393">
        <ele>321.8</ele>
        <time>2023-08-29T06:22:18Z</time>
      </trkpt>
      <trkpt lat="45.55384" lon="5.274">
        <ele>321.8</ele>
        <time>2023-08-29T06:22:19Z</time>
      </trkpt>
      <trkpt lat="45.55384" lon="5.27407">
        <ele>321.8</ele>
        <time>2023-08-29T06:22:20Z</time>
      </trkpt>
      <trkpt lat="45.55384" lon="5.27414">
        <ele>321.4</ele>
        <time>2023-08-29T06:22:21Z</time>
      </trkpt>
      <trkpt lat="45.55382" lon="5.2742">
        <ele>321.4</ele>
        <time>2023-08-29T06:22:22Z</time>
      </trkpt>
      <trkpt lat="45.55381" lon="5.27427">
        <ele>321</ele>
        <time>2023-08-29T06:22:23Z</time>
      </trkpt>
      <trkpt lat="45.5538" lon="5.27434">
        <ele>320.8</ele>
        <time>2023-08-29T06:22:24Z</time>
      </trkpt>
      <trkpt lat="45.55378" lon="5.2744">
        <ele>320.8</ele>
        <time>2023-08-29T06:22:25Z</time>
      </trkpt>
      <trkpt lat="45.55376" lon="5.27446">
        <ele>320.8</ele>
        <time>2023-08-29T06:22:26Z</time>
      </trkpt>
      <trkpt lat="45.55374" lon="5.27452">
        <ele>320.6</ele>
        <time>2023-08-29T06:22:27Z</time>
      </trkpt>
      <trkpt lat="45.55372" lon="5.27459">
        <ele>320.6</ele>
        <time>2023-08-29T06:22:28Z</time>
      </trkpt>
      <trkpt lat="45.55371" lon="5.27466">
        <ele>320.8</ele>
        <time>2023-08-29T06:22:29Z</time>
      </trkpt>
      <trkpt lat="45.55369" lon="5.27472">
        <ele>320.8</ele>
        <time>2023-08-29T06:22:30Z</time>
      </trkpt>
      <trkpt lat="45.55367" lon="5.27478">
        <ele>320.8</ele>
        <time>2023-08-29T06:22:31Z</time>
      </trkpt>
      <trkpt lat="45.55365" lon="5.27485">
        <ele>320.6</ele>
        <time>2023-08-29T06:22:32Z</time>
      </trkpt>
      <trkpt lat="45.55363" lon="5.27492">
        <ele>320.6</ele>
        <time>2023-08-29T06:22:33Z</time>
      </trkpt>
      <trkpt lat="45.55361" lon="5.275">
        <ele>320.6</ele>
        <time>2023-08-29T06:22:34Z</time>
      </trkpt>
      <trkpt lat="45.55359" lon="5.27508">
        <ele>320.6</ele>
        <time>2023-08-29T06:22:35Z</time>
      </trkpt>
      <trkpt lat="45.55357" lon="5.27516">
        <ele>320.6</ele>
        <time>2023-08-29T06:22:36Z</time>
      </trkpt>
      <trkpt lat="45.55355" lon="5.27524">
        <ele>320.6</ele>
        <time>2023-08-29T06:22:37Z</time>
      </trkpt>
      <trkpt lat="45.55354" lon="5.27533">
        <ele>320.6</ele>
        <time>2023-08-29T06:22:38Z</time>
      </trkpt>
      <trkpt lat="45.55352" lon="5.2754">
        <ele>320.6</ele>
        <time>2023-08-29T06:22:39Z</time>
      </trkpt>
      <trkpt lat="45.55351" lon="5.27547">
        <ele>320.8</ele>
        <time>2023-08-29T06:22:40Z</time>
      </trkpt>
      <trkpt lat="45.5535" lon="5.27555">
        <ele>320.8</ele>
        <time>2023-08-29T06:22:41Z</time>
      </trkpt>
      <trkpt lat="45.55349" lon="5.27561">
        <ele>320.8</ele>
        <time>2023-08-29T06:22:42Z</time>
      </trkpt>
      <trkpt lat="45.55348" lon="5.27568">
        <ele>320.8</ele>
        <time>2023-08-29T06:22:43Z</time>
      </trkpt>
      <trkpt lat="45.55347" lon="5.27575">
        <ele>320.8</ele>
        <time>2023-08-29T06:22:44Z</time>
      </trkpt>
      <trkpt lat="45.55346" lon="5.2758">
        <ele>321</ele>
        <time>2023-08-29T06:22:45Z</time>
      </trkpt>
      <trkpt lat="45.55345" lon="5.27586">
        <ele>321.2</ele>
        <time>2023-08-29T06:22:46Z</time>
      </trkpt>
      <trkpt lat="45.55344" lon="5.27592">
        <ele>321.4</ele>
        <time>2023-08-29T06:22:47Z</time>
      </trkpt>
      <trkpt lat="45.55343" lon="5.27597">
        <ele>321.8</ele>
        <time>2023-08-29T06:22:48Z</time>
      </trkpt>
      <trkpt lat="45.55343" lon="5.27602">
        <ele>322.2</ele>
        <time>2023-08-29T06:22:49Z</time>
      </trkpt>
      <trkpt lat="45.55342" lon="5.27607">
        <ele>322.4</ele>
        <time>2023-08-29T06:22:50Z</time>
      </trkpt>
      <trkpt lat="45.55341" lon="5.27612">
        <ele>322.8</ele>
        <time>2023-08-29T06:22:51Z</time>
      </trkpt>
      <trkpt lat="45.55341" lon="5.27617">
        <ele>322.8</ele>
        <time>2023-08-29T06:22:52Z</time>
      </trkpt>
      <trkpt lat="45.5534" lon="5.27621">
        <ele>322.8</ele>
        <time>2023-08-29T06:22:53Z</time>
      </trkpt>
      <trkpt lat="45.55339" lon="5.27625">
        <ele>323.2</ele>
        <time>2023-08-29T06:22:54Z</time>
      </trkpt>
      <trkpt lat="45.55338" lon="5.2763">
        <ele>323.4</ele>
        <time>2023-08-29T06:22:55Z</time>
      </trkpt>
      <trkpt lat="45.55338" lon="5.27635">
        <ele>323.8</ele>
        <time>2023-08-29T06:22:56Z</time>
      </trkpt>
      <trkpt lat="45.55337" lon="5.27639">
        <ele>323.8</ele>
        <time>2023-08-29T06:22:57Z</time>
      </trkpt>
      <trkpt lat="45.55336" lon="5.27643">
        <ele>324.2</ele>
        <time>2023-08-29T06:22:58Z</time>
      </trkpt>
      <trkpt lat="45.55336" lon="5.27647">
        <ele>324.4</ele>
        <time>2023-08-29T06:22:59Z</time>
      </trkpt>
      <trkpt lat="45.55335" lon="5.27651">
        <ele>324.6</ele>
        <time>2023-08-29T06:23:00Z</time>
      </trkpt>
      <trkpt lat="45.55334" lon="5.27655">
        <ele>324.8</ele>
        <time>2023-08-29T06:23:01Z</time>
      </trkpt>
      <trkpt lat="45.55334" lon="5.27659">
        <ele>325</ele>
        <time>2023-08-29T06:23:02Z</time>
      </trkpt>
      <trkpt lat="45.55333" lon="5.27663">
        <ele>325.4</ele>
        <time>2023-08-29T06:23:03Z</time>
      </trkpt>
      <trkpt lat="45.55333" lon="5.27667">
        <ele>325.6</ele>
        <time>2023-08-29T06:23:04Z</time>
      </trkpt>
      <trkpt lat="45.55332" lon="5.27672">
        <ele>325.6</ele>
        <time>2023-08-29T06:23:05Z</time>
      </trkpt>
      <trkpt lat="45.55331" lon="5.27677">
        <ele>326</ele>
        <time>2023-08-29T06:23:06Z</time>
      </trkpt>
      <trkpt lat="45.55331" lon="5.27682">
        <ele>326.2</ele>
        <time>2023-08-29T06:23:07Z</time>
      </trkpt>
      <trkpt lat="45.5533" lon="5.27686">
        <ele>326.4</ele>
        <time>2023-08-29T06:23:08Z</time>
      </trkpt>
      <trkpt lat="45.55329" lon="5.27691">
        <ele>326.6</ele>
        <time>2023-08-29T06:23:09Z</time>
      </trkpt>
      <trkpt lat="45.55329" lon="5.27695">
        <ele>326.8</ele>
        <time>2023-08-29T06:23:10Z</time>
      </trkpt>
      <trkpt lat="45.55328" lon="5.277">
        <ele>327</ele>
        <time>2023-08-29T06:23:11Z</time>
      </trkpt>
      <trkpt lat="45.55327" lon="5.27704">
        <ele>327.2</ele>
        <time>2023-08-29T06:23:12Z</time>
      </trkpt>
      <trkpt lat="45.55327" lon="5.27708">
        <ele>327.4</ele>
        <time>2023-08-29T06:23:13Z</time>
      </trkpt>
      <trkpt lat="45.55326" lon="5.27712">
        <ele>327.6</ele>
        <time>2023-08-29T06:23:14Z</time>
      </trkpt>
      <trkpt lat="45.55325" lon="5.27717">
        <ele>328</ele>
        <time>2023-08-29T06:23:15Z</time>
      </trkpt>
      <trkpt lat="45.55325" lon="5.27721">
        <ele>328.2</ele>
        <time>2023-08-29T06:23:16Z</time>
      </trkpt>
      <trkpt lat="45.55324" lon="5.27725">
        <ele>328.2</ele>
        <time>2023-08-29T06:23:17Z</time>
      </trkpt>
      <trkpt lat="45.55323" lon="5.27729">
        <ele>328.4</ele>
        <time>2023-08-29T06:23:18Z</time>
      </trkpt>
      <trkpt lat="45.55323" lon="5.27732">
        <ele>328.6</ele>
        <time>2023-08-29T06:23:19Z</time>
      </trkpt>
      <trkpt lat="45.55322" lon="5.27735">
        <ele>329</ele>
        <time>2023-08-29T06:23:20Z</time>
      </trkpt>
      <trkpt lat="45.55322" lon="5.27738">
        <ele>329.2</ele>
        <time>2023-08-29T06:23:21Z</time>
      </trkpt>
      <trkpt lat="45.55321" lon="5.27742">
        <ele>329.6</ele>
        <time>2023-08-29T06:23:22Z</time>
      </trkpt>
      <trkpt lat="45.55321" lon="5.27745">
        <ele>329.8</ele>
        <time>2023-08-29T06:23:23Z</time>
      </trkpt>
      <trkpt lat="45.55321" lon="5.27748">
        <ele>330</ele>
        <time>2023-08-29T06:23:24Z</time>
      </trkpt>
      <trkpt lat="45.5532" lon="5.27753">
        <ele>330.2</ele>
        <time>2023-08-29T06:23:25Z</time>
      </trkpt>
      <trkpt lat="45.5532" lon="5.27756">
        <ele>330.6</ele>
        <time>2023-08-29T06:23:26Z</time>
      </trkpt>
      <trkpt lat="45.55319" lon="5.2776">
        <ele>330.8</ele>
        <time>2023-08-29T06:23:27Z</time>
      </trkpt>
      <trkpt lat="45.55319" lon="5.27763">
        <ele>330.8</ele>
        <time>2023-08-29T06:23:28Z</time>
      </trkpt>
      <trkpt lat="45.55318" lon="5.27767">
        <ele>331</ele>
        <time>2023-08-29T06:23:29Z</time>
      </trkpt>
      <trkpt lat="45.55318" lon="5.27771">
        <ele>331</ele>
        <time>2023-08-29T06:23:30Z</time>
      </trkpt>
      <trkpt lat="45.55317" lon="5.27775">
        <ele>331.4</ele>
        <time>2023-08-29T06:23:31Z</time>
      </trkpt>
      <trkpt lat="45.55316" lon="5.27778">
        <ele>331.6</ele>
        <time>2023-08-29T06:23:32Z</time>
      </trkpt>
      <trkpt lat="45.55316" lon="5.27781">
        <ele>332</ele>
        <time>2023-08-29T06:23:33Z</time>
      </trkpt>
      <trkpt lat="45.55316" lon="5.27784">
        <ele>332</ele>
        <time>2023-08-29T06:23:34Z</time>
      </trkpt>
      <trkpt lat="45.55315" lon="5.27787">
        <ele>332.4</ele>
        <time>2023-08-29T06:23:35Z</time>
      </trkpt>
      <trkpt lat="45.55315" lon="5.2779">
        <ele>332.6</ele>
        <time>2023-08-29T06:23:36Z</time>
      </trkpt>
      <trkpt lat="45.55314" lon="5.27794">
        <ele>332.8</ele>
        <time>2023-08-29T06:23:37Z</time>
      </trkpt>
      <trkpt lat="45.55313" lon="5.27797">
        <ele>333</ele>
        <time>2023-08-29T06:23:38Z</time>
      </trkpt>
      <trkpt lat="45.55313" lon="5.278">
        <ele>333.2</ele>
        <time>2023-08-29T06:23:39Z</time>
      </trkpt>
      <trkpt lat="45.55313" lon="5.27804">
        <ele>333.4</ele>
        <time>2023-08-29T06:23:40Z</time>
      </trkpt>
      <trkpt lat="45.55313" lon="5.27808">
        <ele>333.8</ele>
        <time>2023-08-29T06:23:41Z</time>
      </trkpt>
      <trkpt lat="45.55313" lon="5.27812">
        <ele>334</ele>
        <time>2023-08-29T06:23:42Z</time>
      </trkpt>
      <trkpt lat="45.55313" lon="5.27816">
        <ele>334</ele>
        <time>2023-08-29T06:23:43Z</time>
      </trkpt>
      <trkpt lat="45.55313" lon="5.2782">
        <ele>334.2</ele>
        <time>2023-08-29T06:23:44Z</time>
      </trkpt>
      <trkpt lat="45.55313" lon="5.27824">
        <ele>334.4</ele>
        <time>2023-08-29T06:23:45Z</time>
      </trkpt>
      <trkpt lat="45.55313" lon="5.27828">
        <ele>334.4</ele>
        <time>2023-08-29T06:23:46Z</time>
      </trkpt>
      <trkpt lat="45.55313" lon="5.27832">
        <ele>334.8</ele>
        <time>2023-08-29T06:23:47Z</time>
      </trkpt>
      <trkpt lat="45.55314" lon="5.27836">
        <ele>335</ele>
        <time>2023-08-29T06:23:48Z</time>
      </trkpt>
      <trkpt lat="45.55314" lon="5.2784">
        <ele>335</ele>
        <time>2023-08-29T06:23:49Z</time>
      </trkpt>
      <trkpt lat="45.55315" lon="5.27843">
        <ele>335.4</ele>
        <time>2023-08-29T06:23:50Z</time>
      </trkpt>
      <trkpt lat="45.55315" lon="5.27847">
        <ele>335.6</ele>
        <time>2023-08-29T06:23:51Z</time>
      </trkpt>
      <trkpt lat="45.55316" lon="5.27851">
        <ele>335.8</ele>
        <time>2023-08-29T06:23:52Z</time>
      </trkpt>
      <trkpt lat="45.55317" lon="5.27855">
        <ele>336</ele>
        <time>2023-08-29T06:23:53Z</time>
      </trkpt>
      <trkpt lat="45.55318" lon="5.27858">
        <ele>336.4</ele>
        <time>2023-08-29T06:23:54Z</time>
      </trkpt>
      <trkpt lat="45.55319" lon="5.27862">
        <ele>336.6</ele>
        <time>2023-08-29T06:23:55Z</time>
      </trkpt>
      <trkpt lat="45.5532" lon="5.27865">
        <ele>336.8</ele>
        <time>2023-08-29T06:23:56Z</time>
      </trkpt>
      <trkpt lat="45.55322" lon="5.27869">
        <ele>337</ele>
        <time>2023-08-29T06:23:57Z</time>
      </trkpt>
      <trkpt lat="45.55323" lon="5.27872">
        <ele>337.4</ele>
        <time>2023-08-29T06:23:58Z</time>
      </trkpt>
      <trkpt lat="45.55324" lon="5.27875">
        <ele>337.6</ele>
        <time>2023-08-29T06:23:59Z</time>
      </trkpt>
      <trkpt lat="45.55325" lon="5.27879">
        <ele>337.8</ele>
        <time>2023-08-29T06:24:00Z</time>
      </trkpt>
      <trkpt lat="45.55326" lon="5.27882">
        <ele>338</ele>
        <time>2023-08-29T06:24:01Z</time>
      </trkpt>
      <trkpt lat="45.55327" lon="5.27885">
        <ele>338</ele>
        <time>2023-08-29T06:24:02Z</time>
      </trkpt>
      <trkpt lat="45.55329" lon="5.27888">
        <ele>338.2</ele>
        <time>2023-08-29T06:24:03Z</time>
      </trkpt>
      <trkpt lat="45.5533" lon="5.27892">
        <ele>338.2</ele>
        <time>2023-08-29T06:24:04Z</time>
      </trkpt>
      <trkpt lat="45.55331" lon="5.27895">
        <ele>338.4</ele>
        <time>2023-08-29T06:24:05Z</time>
      </trkpt>
      <trkpt lat="45.55333" lon="5.27898">
        <ele>338.6</ele>
        <time>2023-08-29T06:24:06Z</time>
      </trkpt>
      <trkpt lat="45.55334" lon="5.27902">
        <ele>338.8</ele>
        <time>2023-08-29T06:24:07Z</time>
      </trkpt>
      <trkpt lat="45.55335" lon="5.27905">
        <ele>339.2</ele>
        <time>2023-08-29T06:24:08Z</time>
      </trkpt>
      <trkpt lat="45.55336" lon="5.2791">
        <ele>339.2</ele>
        <time>2023-08-29T06:24:09Z</time>
      </trkpt>
      <trkpt lat="45.55337" lon="5.27913">
        <ele>339.6</ele>
        <time>2023-08-29T06:24:10Z</time>
      </trkpt>
      <trkpt lat="45.55338" lon="5.27917">
        <ele>339.8</ele>
        <time>2023-08-29T06:24:11Z</time>
      </trkpt>
      <trkpt lat="45.55338" lon="5.2792">
        <ele>340</ele>
        <time>2023-08-29T06:24:12Z</time>
      </trkpt>
      <trkpt lat="45.55339" lon="5.27924">
        <ele>340</ele>
        <time>2023-08-29T06:24:13Z</time>
      </trkpt>
      <trkpt lat="45.55339" lon="5.27928">
        <ele>340.4</ele>
        <time>2023-08-29T06:24:14Z</time>
      </trkpt>
      <trkpt lat="45.55339" lon="5.27932">
        <ele>340.8</ele>
        <time>2023-08-29T06:24:15Z</time>
      </trkpt>
      <trkpt lat="45.55338" lon="5.27935">
        <ele>340.8</ele>
        <time>2023-08-29T06:24:16Z</time>
      </trkpt>
      <trkpt lat="45.55338" lon="5.27939">
        <ele>341</ele>
        <time>2023-08-29T06:24:17Z</time>
      </trkpt>
      <trkpt lat="45.55338" lon="5.27943">
        <ele>341.2</ele>
        <time>2023-08-29T06:24:18Z</time>
      </trkpt>
      <trkpt lat="45.55338" lon="5.27946">
        <ele>341.4</ele>
        <time>2023-08-29T06:24:19Z</time>
      </trkpt>
      <trkpt lat="45.55337" lon="5.27949">
        <ele>341.8</ele>
        <time>2023-08-29T06:24:20Z</time>
      </trkpt>
      <trkpt lat="45.55336" lon="5.27953">
        <ele>342</ele>
        <time>2023-08-29T06:24:21Z</time>
      </trkpt>
      <trkpt lat="45.55334" lon="5.27957">
        <ele>342.2</ele>
        <time>2023-08-29T06:24:22Z</time>
      </trkpt>
      <trkpt lat="45.55333" lon="5.2796">
        <ele>342.4</ele>
        <time>2023-08-29T06:24:23Z</time>
      </trkpt>
      <trkpt lat="45.55331" lon="5.27963">
        <ele>342.8</ele>
        <time>2023-08-29T06:24:24Z</time>
      </trkpt>
      <trkpt lat="45.5533" lon="5.27967">
        <ele>343</ele>
        <time>2023-08-29T06:24:25Z</time>
      </trkpt>
      <trkpt lat="45.55329" lon="5.27971">
        <ele>343.2</ele>
        <time>2023-08-29T06:24:26Z</time>
      </trkpt>
      <trkpt lat="45.55328" lon="5.27974">
        <ele>343.4</ele>
        <time>2023-08-29T06:24:27Z</time>
      </trkpt>
      <trkpt lat="45.55327" lon="5.27977">
        <ele>343.6</ele>
        <time>2023-08-29T06:24:28Z</time>
      </trkpt>
      <trkpt lat="45.55326" lon="5.2798">
        <ele>343.8</ele>
        <time>2023-08-29T06:24:29Z</time>
      </trkpt>
      <trkpt lat="45.55324" lon="5.27983">
        <ele>343.8</ele>
        <time>2023-08-29T06:24:30Z</time>
      </trkpt>
      <trkpt lat="45.55323" lon="5.27986">
        <ele>344.2</ele>
        <time>2023-08-29T06:24:31Z</time>
      </trkpt>
      <trkpt lat="45.55322" lon="5.27989">
        <ele>344.4</ele>
        <time>2023-08-29T06:24:32Z</time>
      </trkpt>
      <trkpt lat="45.55321" lon="5.27992">
        <ele>344.6</ele>
        <time>2023-08-29T06:24:33Z</time>
      </trkpt>
      <trkpt lat="45.5532" lon="5.27996">
        <ele>344.8</ele>
        <time>2023-08-29T06:24:34Z</time>
      </trkpt>
      <trkpt lat="45.55319" lon="5.27999">
        <ele>345.2</ele>
        <time>2023-08-29T06:24:35Z</time>
      </trkpt>
      <trkpt lat="45.55318" lon="5.28002">
        <ele>345.4</ele>
        <time>2023-08-29T06:24:36Z</time>
      </trkpt>
      <trkpt lat="45.55317" lon="5.28005">
        <ele>345.8</ele>
        <time>2023-08-29T06:24:37Z</time>
      </trkpt>
      <trkpt lat="45.55316" lon="5.28009">
        <ele>346.2</ele>
        <time>2023-08-29T06:24:38Z</time>
      </trkpt>
      <trkpt lat="45.55315" lon="5.28013">
        <ele>346.2</ele>
        <time>2023-08-29T06:24:39Z</time>
      </trkpt>
      <trkpt lat="45.55314" lon="5.28017">
        <ele>346.2</ele>
        <time>2023-08-29T06:24:40Z</time>
      </trkpt>
      <trkpt lat="45.55314" lon="5.28021">
        <ele>346.6</ele>
        <time>2023-08-29T06:24:41Z</time>
      </trkpt>
      <trkpt lat="45.55314" lon="5.28024">
        <ele>346.8</ele>
        <time>2023-08-29T06:24:42Z</time>
      </trkpt>
      <trkpt lat="45.55314" lon="5.28028">
        <ele>347</ele>
        <time>2023-08-29T06:24:43Z</time>
      </trkpt>
      <trkpt lat="45.55314" lon="5.28032">
        <ele>347.4</ele>
        <time>2023-08-29T06:24:44Z</time>
      </trkpt>
      <trkpt lat="45.55314" lon="5.28035">
        <ele>347.6</ele>
        <time>2023-08-29T06:24:45Z</time>
      </trkpt>
      <trkpt lat="45.55315" lon="5.28039">
        <ele>347.8</ele>
        <time>2023-08-29T06:24:46Z</time>
      </trkpt>
      <trkpt lat="45.55316" lon="5.28042">
        <ele>347.8</ele>
        <time>2023-08-29T06:24:47Z</time>
      </trkpt>
      <trkpt lat="45.55316" lon="5.28045">
        <ele>348.2</ele>
        <time>2023-08-29T06:24:48Z</time>
      </trkpt>
      <trkpt lat="45.55318" lon="5.28049">
        <ele>348.4</ele>
        <time>2023-08-29T06:24:49Z</time>
      </trkpt>
      <trkpt lat="45.55319" lon="5.28053">
        <ele>348.6</ele>
        <time>2023-08-29T06:24:50Z</time>
      </trkpt>
      <trkpt lat="45.55321" lon="5.28056">
        <ele>348.8</ele>
        <time>2023-08-29T06:24:51Z</time>
      </trkpt>
      <trkpt lat="45.55322" lon="5.28059">
        <ele>349</ele>
        <time>2023-08-29T06:24:52Z</time>
      </trkpt>
      <trkpt lat="45.55324" lon="5.28063">
        <ele>349.2</ele>
        <time>2023-08-29T06:24:53Z</time>
      </trkpt>
      <trkpt lat="45.55325" lon="5.28066">
        <ele>349.4</ele>
        <time>2023-08-29T06:24:54Z</time>
      </trkpt>
      <trkpt lat="45.55327" lon="5.2807">
        <ele>349.6</ele>
        <time>2023-08-29T06:24:55Z</time>
      </trkpt>
      <trkpt lat="45.55328" lon="5.28073">
        <ele>349.8</ele>
        <time>2023-08-29T06:24:56Z</time>
      </trkpt>
      <trkpt lat="45.55329" lon="5.28077">
        <ele>350</ele>
        <time>2023-08-29T06:24:57Z</time>
      </trkpt>
      <trkpt lat="45.5533" lon="5.28081">
        <ele>350.2</ele>
        <time>2023-08-29T06:24:58Z</time>
      </trkpt>
      <trkpt lat="45.55332" lon="5.28085">
        <ele>350.2</ele>
        <time>2023-08-29T06:24:59Z</time>
      </trkpt>
      <trkpt lat="45.55333" lon="5.28089">
        <ele>350.6</ele>
        <time>2023-08-29T06:25:00Z</time>
      </trkpt>
      <trkpt lat="45.55334" lon="5.28093">
        <ele>351</ele>
        <time>2023-08-29T06:25:01Z</time>
      </trkpt>
      <trkpt lat="45.55335" lon="5.28098">
        <ele>351.2</ele>
        <time>2023-08-29T06:25:02Z</time>
      </trkpt>
      <trkpt lat="45.55337" lon="5.28102">
        <ele>351.4</ele>
        <time>2023-08-29T06:25:03Z</time>
      </trkpt>
      <trkpt lat="45.55339" lon="5.28107">
        <ele>351.6</ele>
        <time>2023-08-29T06:25:04Z</time>
      </trkpt>
      <trkpt lat="45.55342" lon="5.28112">
        <ele>351.8</ele>
        <time>2023-08-29T06:25:05Z</time>
      </trkpt>
      <trkpt lat="45.55345" lon="5.28117">
        <ele>351.6</ele>
        <time>2023-08-29T06:25:06Z</time>
      </trkpt>
      <trkpt lat="45.5535" lon="5.28122">
        <ele>351.6</ele>
        <time>2023-08-29T06:25:07Z</time>
      </trkpt>
      <trkpt lat="45.55356" lon="5.28128">
        <ele>351.6</ele>
        <time>2023-08-29T06:25:08Z</time>
      </trkpt>
      <trkpt lat="45.55364" lon="5.28135">
        <ele>351.2</ele>
        <time>2023-08-29T06:25:09Z</time>
      </trkpt>
      <trkpt lat="45.55371" lon="5.2814">
        <ele>350</ele>
        <time>2023-08-29T06:25:10Z</time>
      </trkpt>
      <trkpt lat="45.5538" lon="5.28146">
        <ele>349</ele>
        <time>2023-08-29T06:25:11Z</time>
      </trkpt>
      <trkpt lat="45.55388" lon="5.28151">
        <ele>348.2</ele>
        <time>2023-08-29T06:25:12Z</time>
      </trkpt>
      <trkpt lat="45.55398" lon="5.28155">
        <ele>346.4</ele>
        <time>2023-08-29T06:25:13Z</time>
      </trkpt>
      <trkpt lat="45.55408" lon="5.28158">
        <ele>345.4</ele>
        <time>2023-08-29T06:25:14Z</time>
      </trkpt>
      <trkpt lat="45.55417" lon="5.28161">
        <ele>343</ele>
        <time>2023-08-29T06:25:15Z</time>
      </trkpt>
      <trkpt lat="45.55425" lon="5.28163">
        <ele>343</ele>
        <time>2023-08-29T06:25:16Z</time>
      </trkpt>
      <trkpt lat="45.55433" lon="5.28165">
        <ele>342.8</ele>
        <time>2023-08-29T06:25:17Z</time>
      </trkpt>
      <trkpt lat="45.5544" lon="5.28167">
        <ele>341.4</ele>
        <time>2023-08-29T06:25:18Z</time>
      </trkpt>
      <trkpt lat="45.55447" lon="5.28168">
        <ele>340.2</ele>
        <time>2023-08-29T06:25:19Z</time>
      </trkpt>
      <trkpt lat="45.55455" lon="5.28169">
        <ele>340.2</ele>
        <time>2023-08-29T06:25:20Z</time>
      </trkpt>
      <trkpt lat="45.55461" lon="5.28168">
        <ele>340</ele>
        <time>2023-08-29T06:25:21Z</time>
      </trkpt>
      <trkpt lat="45.55467" lon="5.28167">
        <ele>340</ele>
        <time>2023-08-29T06:25:22Z</time>
      </trkpt>
      <trkpt lat="45.55473" lon="5.28167">
        <ele>340</ele>
        <time>2023-08-29T06:25:23Z</time>
      </trkpt>
      <trkpt lat="45.5548" lon="5.28167">
        <ele>340</ele>
        <time>2023-08-29T06:25:24Z</time>
      </trkpt>
      <trkpt lat="45.55486" lon="5.28168">
        <ele>340</ele>
        <time>2023-08-29T06:25:25Z</time>
      </trkpt>
      <trkpt lat="45.55492" lon="5.28168">
        <ele>340</ele>
        <time>2023-08-29T06:25:26Z</time>
      </trkpt>
      <trkpt lat="45.55498" lon="5.28167">
        <ele>340</ele>
        <time>2023-08-29T06:25:27Z</time>
      </trkpt>
      <trkpt lat="45.55503" lon="5.28167">
        <ele>340</ele>
        <time>2023-08-29T06:25:28Z</time>
      </trkpt>
      <trkpt lat="45.55509" lon="5.28167">
        <ele>340.2</ele>
        <time>2023-08-29T06:25:29Z</time>
      </trkpt>
      <trkpt lat="45.55514" lon="5.28168">
        <ele>340.2</ele>
        <time>2023-08-29T06:25:30Z</time>
      </trkpt>
      <trkpt lat="45.5552" lon="5.28168">
        <ele>340.2</ele>
        <time>2023-08-29T06:25:31Z</time>
      </trkpt>
      <trkpt lat="45.55524" lon="5.2817">
        <ele>340.4</ele>
        <time>2023-08-29T06:25:32Z</time>
      </trkpt>
      <trkpt lat="45.55529" lon="5.28171">
        <ele>340.4</ele>
        <time>2023-08-29T06:25:33Z</time>
      </trkpt>
      <trkpt lat="45.55534" lon="5.28172">
        <ele>340.6</ele>
        <time>2023-08-29T06:25:34Z</time>
      </trkpt>
      <trkpt lat="45.55538" lon="5.28174">
        <ele>341</ele>
        <time>2023-08-29T06:25:35Z</time>
      </trkpt>
      <trkpt lat="45.55543" lon="5.28177">
        <ele>341</ele>
        <time>2023-08-29T06:25:36Z</time>
      </trkpt>
      <trkpt lat="45.55547" lon="5.2818">
        <ele>341</ele>
        <time>2023-08-29T06:25:37Z</time>
      </trkpt>
      <trkpt lat="45.55551" lon="5.28184">
        <ele>341</ele>
        <time>2023-08-29T06:25:38Z</time>
      </trkpt>
      <trkpt lat="45.55555" lon="5.28188">
        <ele>341.2</ele>
        <time>2023-08-29T06:25:39Z</time>
      </trkpt>
      <trkpt lat="45.55558" lon="5.28192">
        <ele>341.2</ele>
        <time>2023-08-29T06:25:40Z</time>
      </trkpt>
      <trkpt lat="45.55561" lon="5.28196">
        <ele>341.4</ele>
        <time>2023-08-29T06:25:41Z</time>
      </trkpt>
      <trkpt lat="45.55565" lon="5.282">
        <ele>341.4</ele>
        <time>2023-08-29T06:25:42Z</time>
      </trkpt>
      <trkpt lat="45.55568" lon="5.28205">
        <ele>341.4</ele>
        <time>2023-08-29T06:25:43Z</time>
      </trkpt>
      <trkpt lat="45.55572" lon="5.28209">
        <ele>341.4</ele>
        <time>2023-08-29T06:25:44Z</time>
      </trkpt>
      <trkpt lat="45.55575" lon="5.28214">
        <ele>341.8</ele>
        <time>2023-08-29T06:25:45Z</time>
      </trkpt>
      <trkpt lat="45.55579" lon="5.28218">
        <ele>341.8</ele>
        <time>2023-08-29T06:25:46Z</time>
      </trkpt>
      <trkpt lat="45.55582" lon="5.28223">
        <ele>342</ele>
        <time>2023-08-29T06:25:47Z</time>
      </trkpt>
      <trkpt lat="45.55585" lon="5.28228">
        <ele>342</ele>
        <time>2023-08-29T06:25:48Z</time>
      </trkpt>
      <trkpt lat="45.55588" lon="5.28233">
        <ele>342.2</ele>
        <time>2023-08-29T06:25:49Z</time>
      </trkpt>
      <trkpt lat="45.55592" lon="5.28238">
        <ele>342.2</ele>
        <time>2023-08-29T06:25:50Z</time>
      </trkpt>
      <trkpt lat="45.55595" lon="5.28244">
        <ele>342.2</ele>
        <time>2023-08-29T06:25:51Z</time>
      </trkpt>
      <trkpt lat="45.55597" lon="5.28249">
        <ele>342.2</ele>
        <time>2023-08-29T06:25:52Z</time>
      </trkpt>
      <trkpt lat="45.556" lon="5.28254">
        <ele>342.2</ele>
        <time>2023-08-29T06:25:53Z</time>
      </trkpt>
      <trkpt lat="45.55602" lon="5.2826">
        <ele>342.2</ele>
        <time>2023-08-29T06:25:54Z</time>
      </trkpt>
      <trkpt lat="45.55605" lon="5.28265">
        <ele>342.2</ele>
        <time>2023-08-29T06:25:55Z</time>
      </trkpt>
      <trkpt lat="45.55607" lon="5.28271">
        <ele>342.2</ele>
        <time>2023-08-29T06:25:56Z</time>
      </trkpt>
      <trkpt lat="45.55608" lon="5.28277">
        <ele>342.2</ele>
        <time>2023-08-29T06:25:57Z</time>
      </trkpt>
      <trkpt lat="45.55609" lon="5.28284">
        <ele>342.2</ele>
        <time>2023-08-29T06:25:58Z</time>
      </trkpt>
      <trkpt lat="45.5561" lon="5.28291">
        <ele>342.2</ele>
        <time>2023-08-29T06:25:59Z</time>
      </trkpt>
      <trkpt lat="45.55611" lon="5.28297">
        <ele>342.2</ele>
        <time>2023-08-29T06:26:00Z</time>
      </trkpt>
      <trkpt lat="45.55611" lon="5.28304">
        <ele>342.2</ele>
        <time>2023-08-29T06:26:01Z</time>
      </trkpt>
      <trkpt lat="45.55612" lon="5.28311">
        <ele>342.2</ele>
        <time>2023-08-29T06:26:02Z</time>
      </trkpt>
      <trkpt lat="45.55612" lon="5.28318">
        <ele>342.4</ele>
        <time>2023-08-29T06:26:03Z</time>
      </trkpt>
      <trkpt lat="45.55612" lon="5.28325">
        <ele>342.6</ele>
        <time>2023-08-29T06:26:04Z</time>
      </trkpt>
      <trkpt lat="45.55612" lon="5.28332">
        <ele>342.6</ele>
        <time>2023-08-29T06:26:05Z</time>
      </trkpt>
      <trkpt lat="45.55612" lon="5.28339">
        <ele>342.6</ele>
        <time>2023-08-29T06:26:06Z</time>
      </trkpt>
      <trkpt lat="45.55612" lon="5.28345">
        <ele>342.6</ele>
        <time>2023-08-29T06:26:07Z</time>
      </trkpt>
      <trkpt lat="45.55612" lon="5.28352">
        <ele>342.6</ele>
        <time>2023-08-29T06:26:08Z</time>
      </trkpt>
      <trkpt lat="45.55612" lon="5.28358">
        <ele>342.6</ele>
        <time>2023-08-29T06:26:09Z</time>
      </trkpt>
      <trkpt lat="45.55612" lon="5.28365">
        <ele>342.6</ele>
        <time>2023-08-29T06:26:10Z</time>
      </trkpt>
      <trkpt lat="45.55612" lon="5.28372">
        <ele>342.8</ele>
        <time>2023-08-29T06:26:11Z</time>
      </trkpt>
      <trkpt lat="45.55612" lon="5.28379">
        <ele>342.8</ele>
        <time>2023-08-29T06:26:12Z</time>
      </trkpt>
      <trkpt lat="45.55612" lon="5.28386">
        <ele>342.8</ele>
        <time>2023-08-29T06:26:13Z</time>
      </trkpt>
      <trkpt lat="45.55612" lon="5.28392">
        <ele>342.8</ele>
        <time>2023-08-29T06:26:14Z</time>
      </trkpt>
      <trkpt lat="45.55612" lon="5.28399">
        <ele>342.8</ele>
        <time>2023-08-29T06:26:15Z</time>
      </trkpt>
      <trkpt lat="45.55612" lon="5.28405">
        <ele>342.8</ele>
        <time>2023-08-29T06:26:16Z</time>
      </trkpt>
      <trkpt lat="45.55612" lon="5.28412">
        <ele>343</ele>
        <time>2023-08-29T06:26:17Z</time>
      </trkpt>
      <trkpt lat="45.55613" lon="5.28419">
        <ele>343</ele>
        <time>2023-08-29T06:26:18Z</time>
      </trkpt>
      <trkpt lat="45.55613" lon="5.28426">
        <ele>343</ele>
        <time>2023-08-29T06:26:19Z</time>
      </trkpt>
      <trkpt lat="45.55614" lon="5.28433">
        <ele>343.2</ele>
        <time>2023-08-29T06:26:20Z</time>
      </trkpt>
      <trkpt lat="45.55614" lon="5.2844">
        <ele>343.2</ele>
        <time>2023-08-29T06:26:21Z</time>
      </trkpt>
      <trkpt lat="45.55615" lon="5.28446">
        <ele>343.2</ele>
        <time>2023-08-29T06:26:22Z</time>
      </trkpt>
      <trkpt lat="45.55616" lon="5.28453">
        <ele>343.2</ele>
        <time>2023-08-29T06:26:23Z</time>
      </trkpt>
      <trkpt lat="45.55616" lon="5.2846">
        <ele>343.2</ele>
        <time>2023-08-29T06:26:24Z</time>
      </trkpt>
      <trkpt lat="45.55617" lon="5.28467">
        <ele>343.4</ele>
        <time>2023-08-29T06:26:25Z</time>
      </trkpt>
      <trkpt lat="45.55618" lon="5.28474">
        <ele>343.4</ele>
        <time>2023-08-29T06:26:26Z</time>
      </trkpt>
      <trkpt lat="45.55618" lon="5.28481">
        <ele>343.4</ele>
        <time>2023-08-29T06:26:27Z</time>
      </trkpt>
      <trkpt lat="45.55618" lon="5.28488">
        <ele>343.4</ele>
        <time>2023-08-29T06:26:28Z</time>
      </trkpt>
      <trkpt lat="45.55619" lon="5.28496">
        <ele>343.4</ele>
        <time>2023-08-29T06:26:29Z</time>
      </trkpt>
      <trkpt lat="45.5562" lon="5.28503">
        <ele>343.4</ele>
        <time>2023-08-29T06:26:30Z</time>
      </trkpt>
      <trkpt lat="45.55621" lon="5.28511">
        <ele>343.2</ele>
        <time>2023-08-29T06:26:31Z</time>
      </trkpt>
      <trkpt lat="45.55621" lon="5.28519">
        <ele>343</ele>
        <time>2023-08-29T06:26:32Z</time>
      </trkpt>
      <trkpt lat="45.55622" lon="5.28527">
        <ele>343</ele>
        <time>2023-08-29T06:26:33Z</time>
      </trkpt>
      <trkpt lat="45.55622" lon="5.28535">
        <ele>343</ele>
        <time>2023-08-29T06:26:34Z</time>
      </trkpt>
      <trkpt lat="45.55623" lon="5.28542">
        <ele>343</ele>
        <time>2023-08-29T06:26:35Z</time>
      </trkpt>
      <trkpt lat="45.55623" lon="5.28549">
        <ele>343</ele>
        <time>2023-08-29T06:26:36Z</time>
      </trkpt>
      <trkpt lat="45.55624" lon="5.28556">
        <ele>342.8</ele>
        <time>2023-08-29T06:26:37Z</time>
      </trkpt>
      <trkpt lat="45.55625" lon="5.28563">
        <ele>342.8</ele>
        <time>2023-08-29T06:26:38Z</time>
      </trkpt>
      <trkpt lat="45.55626" lon="5.2857">
        <ele>342.8</ele>
        <time>2023-08-29T06:26:39Z</time>
      </trkpt>
      <trkpt lat="45.55627" lon="5.28577">
        <ele>342.8</ele>
        <time>2023-08-29T06:26:40Z</time>
      </trkpt>
      <trkpt lat="45.55628" lon="5.28584">
        <ele>342.8</ele>
        <time>2023-08-29T06:26:41Z</time>
      </trkpt>
      <trkpt lat="45.55629" lon="5.28591">
        <ele>342.8</ele>
        <time>2023-08-29T06:26:42Z</time>
      </trkpt>
      <trkpt lat="45.5563" lon="5.28598">
        <ele>343</ele>
        <time>2023-08-29T06:26:43Z</time>
      </trkpt>
      <trkpt lat="45.5563" lon="5.28605">
        <ele>343.2</ele>
        <time>2023-08-29T06:26:44Z</time>
      </trkpt>
      <trkpt lat="45.55631" lon="5.28611">
        <ele>343.2</ele>
        <time>2023-08-29T06:26:45Z</time>
      </trkpt>
      <trkpt lat="45.55632" lon="5.28618">
        <ele>343.4</ele>
        <time>2023-08-29T06:26:46Z</time>
      </trkpt>
      <trkpt lat="45.55633" lon="5.28626">
        <ele>343.4</ele>
        <time>2023-08-29T06:26:47Z</time>
      </trkpt>
      <trkpt lat="45.55634" lon="5.28633">
        <ele>343.4</ele>
        <time>2023-08-29T06:26:48Z</time>
      </trkpt>
      <trkpt lat="45.55635" lon="5.28639">
        <ele>343.6</ele>
        <time>2023-08-29T06:26:49Z</time>
      </trkpt>
      <trkpt lat="45.55635" lon="5.28646">
        <ele>343.6</ele>
        <time>2023-08-29T06:26:50Z</time>
      </trkpt>
      <trkpt lat="45.55637" lon="5.28653">
        <ele>343.8</ele>
        <time>2023-08-29T06:26:51Z</time>
      </trkpt>
      <trkpt lat="45.55637" lon="5.2866">
        <ele>343.8</ele>
        <time>2023-08-29T06:26:52Z</time>
      </trkpt>
      <trkpt lat="45.55638" lon="5.28667">
        <ele>343.8</ele>
        <time>2023-08-29T06:26:53Z</time>
      </trkpt>
      <trkpt lat="45.5564" lon="5.28674">
        <ele>343.8</ele>
        <time>2023-08-29T06:26:54Z</time>
      </trkpt>
      <trkpt lat="45.55641" lon="5.2868">
        <ele>343.8</ele>
        <time>2023-08-29T06:26:55Z</time>
      </trkpt>
      <trkpt lat="45.55642" lon="5.28686">
        <ele>343.8</ele>
        <time>2023-08-29T06:26:56Z</time>
      </trkpt>
      <trkpt lat="45.55643" lon="5.28693">
        <ele>343.8</ele>
        <time>2023-08-29T06:26:57Z</time>
      </trkpt>
      <trkpt lat="45.55645" lon="5.28699">
        <ele>343.8</ele>
        <time>2023-08-29T06:26:58Z</time>
      </trkpt>
      <trkpt lat="45.55646" lon="5.28705">
        <ele>344</ele>
        <time>2023-08-29T06:26:59Z</time>
      </trkpt>
      <trkpt lat="45.55647" lon="5.28711">
        <ele>344.2</ele>
        <time>2023-08-29T06:27:00Z</time>
      </trkpt>
      <trkpt lat="45.55649" lon="5.28718">
        <ele>344.2</ele>
        <time>2023-08-29T06:27:01Z</time>
      </trkpt>
      <trkpt lat="45.5565" lon="5.28724">
        <ele>344.4</ele>
        <time>2023-08-29T06:27:02Z</time>
      </trkpt>
      <trkpt lat="45.55652" lon="5.2873">
        <ele>344.4</ele>
        <time>2023-08-29T06:27:03Z</time>
      </trkpt>
      <trkpt lat="45.55653" lon="5.28737">
        <ele>344.4</ele>
        <time>2023-08-29T06:27:04Z</time>
      </trkpt>
      <trkpt lat="45.55655" lon="5.28743">
        <ele>344.4</ele>
        <time>2023-08-29T06:27:05Z</time>
      </trkpt>
      <trkpt lat="45.55656" lon="5.2875">
        <ele>344.4</ele>
        <time>2023-08-29T06:27:06Z</time>
      </trkpt>
      <trkpt lat="45.55658" lon="5.28756">
        <ele>344.4</ele>
        <time>2023-08-29T06:27:07Z</time>
      </trkpt>
      <trkpt lat="45.55659" lon="5.28761">
        <ele>344.4</ele>
        <time>2023-08-29T06:27:08Z</time>
      </trkpt>
      <trkpt lat="45.5566" lon="5.28767">
        <ele>344.4</ele>
        <time>2023-08-29T06:27:09Z</time>
      </trkpt>
      <trkpt lat="45.55662" lon="5.28774">
        <ele>344.6</ele>
        <time>2023-08-29T06:27:10Z</time>
      </trkpt>
      <trkpt lat="45.55663" lon="5.28779">
        <ele>344.8</ele>
        <time>2023-08-29T06:27:11Z</time>
      </trkpt>
      <trkpt lat="45.55664" lon="5.28785">
        <ele>344.8</ele>
        <time>2023-08-29T06:27:12Z</time>
      </trkpt>
      <trkpt lat="45.55665" lon="5.2879">
        <ele>344.8</ele>
        <time>2023-08-29T06:27:13Z</time>
      </trkpt>
      <trkpt lat="45.55666" lon="5.28795">
        <ele>345</ele>
        <time>2023-08-29T06:27:14Z</time>
      </trkpt>
      <trkpt lat="45.55667" lon="5.288">
        <ele>345</ele>
        <time>2023-08-29T06:27:15Z</time>
      </trkpt>
      <trkpt lat="45.55668" lon="5.28805">
        <ele>345.2</ele>
        <time>2023-08-29T06:27:16Z</time>
      </trkpt>
      <trkpt lat="45.55669" lon="5.2881">
        <ele>345.4</ele>
        <time>2023-08-29T06:27:17Z</time>
      </trkpt>
      <trkpt lat="45.55669" lon="5.28815">
        <ele>345.4</ele>
        <time>2023-08-29T06:27:18Z</time>
      </trkpt>
      <trkpt lat="45.5567" lon="5.28819">
        <ele>345.6</ele>
        <time>2023-08-29T06:27:19Z</time>
      </trkpt>
      <trkpt lat="45.55669" lon="5.28823">
        <ele>345.8</ele>
        <time>2023-08-29T06:27:20Z</time>
      </trkpt>
      <trkpt lat="45.55668" lon="5.28827">
        <ele>345.8</ele>
        <time>2023-08-29T06:27:21Z</time>
      </trkpt>
      <trkpt lat="45.55668" lon="5.28831">
        <ele>346.2</ele>
        <time>2023-08-29T06:27:22Z</time>
      </trkpt>
      <trkpt lat="45.55668" lon="5.28836">
        <ele>346.2</ele>
        <time>2023-08-29T06:27:23Z</time>
      </trkpt>
      <trkpt lat="45.55668" lon="5.28842">
        <ele>346.4</ele>
        <time>2023-08-29T06:27:24Z</time>
      </trkpt>
      <trkpt lat="45.5567" lon="5.28847">
        <ele>346.4</ele>
        <time>2023-08-29T06:27:25Z</time>
      </trkpt>
      <trkpt lat="45.55672" lon="5.28853">
        <ele>346.4</ele>
        <time>2023-08-29T06:27:26Z</time>
      </trkpt>
      <trkpt lat="45.55674" lon="5.28859">
        <ele>346.4</ele>
        <time>2023-08-29T06:27:27Z</time>
      </trkpt>
      <trkpt lat="45.55676" lon="5.28865">
        <ele>346.4</ele>
        <time>2023-08-29T06:27:28Z</time>
      </trkpt>
      <trkpt lat="45.55678" lon="5.2887">
        <ele>346.4</ele>
        <time>2023-08-29T06:27:29Z</time>
      </trkpt>
      <trkpt lat="45.5568" lon="5.28876">
        <ele>346.2</ele>
        <time>2023-08-29T06:27:30Z</time>
      </trkpt>
      <trkpt lat="45.55681" lon="5.28882">
        <ele>346.2</ele>
        <time>2023-08-29T06:27:31Z</time>
      </trkpt>
      <trkpt lat="45.55682" lon="5.28888">
        <ele>346.2</ele>
        <time>2023-08-29T06:27:32Z</time>
      </trkpt>
      <trkpt lat="45.55683" lon="5.28894">
        <ele>346.2</ele>
        <time>2023-08-29T06:27:33Z</time>
      </trkpt>
      <trkpt lat="45.55684" lon="5.289">
        <ele>346.4</ele>
        <time>2023-08-29T06:27:34Z</time>
      </trkpt>
      <trkpt lat="45.55685" lon="5.28906">
        <ele>346.4</ele>
        <time>2023-08-29T06:27:35Z</time>
      </trkpt>
      <trkpt lat="45.55686" lon="5.28911">
        <ele>346.4</ele>
        <time>2023-08-29T06:27:36Z</time>
      </trkpt>
      <trkpt lat="45.55686" lon="5.28917">
        <ele>346.4</ele>
        <time>2023-08-29T06:27:37Z</time>
      </trkpt>
      <trkpt lat="45.55688" lon="5.28923">
        <ele>346.4</ele>
        <time>2023-08-29T06:27:38Z</time>
      </trkpt>
      <trkpt lat="45.55689" lon="5.28929">
        <ele>346.4</ele>
        <time>2023-08-29T06:27:39Z</time>
      </trkpt>
      <trkpt lat="45.5569" lon="5.28935">
        <ele>346.6</ele>
        <time>2023-08-29T06:27:40Z</time>
      </trkpt>
      <trkpt lat="45.55691" lon="5.2894">
        <ele>346.8</ele>
        <time>2023-08-29T06:27:41Z</time>
      </trkpt>
      <trkpt lat="45.55691" lon="5.28946">
        <ele>346.8</ele>
        <time>2023-08-29T06:27:42Z</time>
      </trkpt>
      <trkpt lat="45.55692" lon="5.28952">
        <ele>346.8</ele>
        <time>2023-08-29T06:27:43Z</time>
      </trkpt>
      <trkpt lat="45.55693" lon="5.28957">
        <ele>347</ele>
        <time>2023-08-29T06:27:44Z</time>
      </trkpt>
      <trkpt lat="45.55695" lon="5.28963">
        <ele>347.2</ele>
        <time>2023-08-29T06:27:45Z</time>
      </trkpt>
      <trkpt lat="45.55696" lon="5.28968">
        <ele>347.2</ele>
        <time>2023-08-29T06:27:46Z</time>
      </trkpt>
      <trkpt lat="45.55698" lon="5.28974">
        <ele>347.2</ele>
        <time>2023-08-29T06:27:47Z</time>
      </trkpt>
      <trkpt lat="45.55699" lon="5.28979">
        <ele>347.2</ele>
        <time>2023-08-29T06:27:48Z</time>
      </trkpt>
      <trkpt lat="45.55701" lon="5.28984">
        <ele>347.4</ele>
        <time>2023-08-29T06:27:49Z</time>
      </trkpt>
      <trkpt lat="45.55703" lon="5.28989">
        <ele>347.4</ele>
        <time>2023-08-29T06:27:50Z</time>
      </trkpt>
      <trkpt lat="45.55705" lon="5.28995">
        <ele>347.6</ele>
        <time>2023-08-29T06:27:51Z</time>
      </trkpt>
      <trkpt lat="45.55707" lon="5.28999">
        <ele>347.6</ele>
        <time>2023-08-29T06:27:52Z</time>
      </trkpt>
      <trkpt lat="45.55709" lon="5.29004">
        <ele>347.6</ele>
        <time>2023-08-29T06:27:53Z</time>
      </trkpt>
      <trkpt lat="45.55711" lon="5.29009">
        <ele>347.6</ele>
        <time>2023-08-29T06:27:54Z</time>
      </trkpt>
      <trkpt lat="45.55714" lon="5.29015">
        <ele>347.6</ele>
        <time>2023-08-29T06:27:55Z</time>
      </trkpt>
      <trkpt lat="45.55716" lon="5.2902">
        <ele>347.6</ele>
        <time>2023-08-29T06:27:56Z</time>
      </trkpt>
      <trkpt lat="45.55718" lon="5.29025">
        <ele>347.6</ele>
        <time>2023-08-29T06:27:57Z</time>
      </trkpt>
      <trkpt lat="45.5572" lon="5.2903">
        <ele>347.8</ele>
        <time>2023-08-29T06:27:58Z</time>
      </trkpt>
      <trkpt lat="45.55723" lon="5.29036">
        <ele>347.8</ele>
        <time>2023-08-29T06:27:59Z</time>
      </trkpt>
      <trkpt lat="45.55725" lon="5.2904">
        <ele>347.8</ele>
        <time>2023-08-29T06:28:00Z</time>
      </trkpt>
      <trkpt lat="45.55727" lon="5.29046">
        <ele>347.8</ele>
        <time>2023-08-29T06:28:01Z</time>
      </trkpt>
      <trkpt lat="45.55729" lon="5.29051">
        <ele>348</ele>
        <time>2023-08-29T06:28:02Z</time>
      </trkpt>
      <trkpt lat="45.55731" lon="5.29055">
        <ele>348</ele>
        <time>2023-08-29T06:28:03Z</time>
      </trkpt>
      <trkpt lat="45.55733" lon="5.2906">
        <ele>348</ele>
        <time>2023-08-29T06:28:04Z</time>
      </trkpt>
      <trkpt lat="45.55735" lon="5.29065">
        <ele>348</ele>
        <time>2023-08-29T06:28:05Z</time>
      </trkpt>
      <trkpt lat="45.55737" lon="5.2907">
        <ele>348</ele>
        <time>2023-08-29T06:28:06Z</time>
      </trkpt>
      <trkpt lat="45.55738" lon="5.29075">
        <ele>348.2</ele>
        <time>2023-08-29T06:28:07Z</time>
      </trkpt>
      <trkpt lat="45.5574" lon="5.2908">
        <ele>348.2</ele>
        <time>2023-08-29T06:28:08Z</time>
      </trkpt>
      <trkpt lat="45.55742" lon="5.29086">
        <ele>348.2</ele>
        <time>2023-08-29T06:28:09Z</time>
      </trkpt>
      <trkpt lat="45.55743" lon="5.29091">
        <ele>348.4</ele>
        <time>2023-08-29T06:28:10Z</time>
      </trkpt>
      <trkpt lat="45.55745" lon="5.29096">
        <ele>348.4</ele>
        <time>2023-08-29T06:28:11Z</time>
      </trkpt>
      <trkpt lat="45.55747" lon="5.291">
        <ele>348.4</ele>
        <time>2023-08-29T06:28:12Z</time>
      </trkpt>
      <trkpt lat="45.55748" lon="5.29105">
        <ele>348.4</ele>
        <time>2023-08-29T06:28:13Z</time>
      </trkpt>
      <trkpt lat="45.5575" lon="5.2911">
        <ele>348.4</ele>
        <time>2023-08-29T06:28:14Z</time>
      </trkpt>
      <trkpt lat="45.55753" lon="5.29114">
        <ele>348.4</ele>
        <time>2023-08-29T06:28:15Z</time>
      </trkpt>
      <trkpt lat="45.55754" lon="5.29119">
        <ele>348.6</ele>
        <time>2023-08-29T06:28:16Z</time>
      </trkpt>
      <trkpt lat="45.55756" lon="5.29123">
        <ele>348.6</ele>
        <time>2023-08-29T06:28:17Z</time>
      </trkpt>
      <trkpt lat="45.55757" lon="5.29127">
        <ele>348.8</ele>
        <time>2023-08-29T06:28:18Z</time>
      </trkpt>
      <trkpt lat="45.55759" lon="5.29131">
        <ele>348.8</ele>
        <time>2023-08-29T06:28:19Z</time>
      </trkpt>
      <trkpt lat="45.55761" lon="5.29135">
        <ele>349</ele>
        <time>2023-08-29T06:28:20Z</time>
      </trkpt>
      <trkpt lat="45.55763" lon="5.29139">
        <ele>349.2</ele>
        <time>2023-08-29T06:28:21Z</time>
      </trkpt>
      <trkpt lat="45.55764" lon="5.29143">
        <ele>349.2</ele>
        <time>2023-08-29T06:28:22Z</time>
      </trkpt>
      <trkpt lat="45.55767" lon="5.29147">
        <ele>349.4</ele>
        <time>2023-08-29T06:28:23Z</time>
      </trkpt>
      <trkpt lat="45.55769" lon="5.29151">
        <ele>349.4</ele>
        <time>2023-08-29T06:28:24Z</time>
      </trkpt>
      <trkpt lat="45.5577" lon="5.29154">
        <ele>349.8</ele>
        <time>2023-08-29T06:28:25Z</time>
      </trkpt>
      <trkpt lat="45.55772" lon="5.29158">
        <ele>349.8</ele>
        <time>2023-08-29T06:28:26Z</time>
      </trkpt>
      <trkpt lat="45.55773" lon="5.29163">
        <ele>350</ele>
        <time>2023-08-29T06:28:27Z</time>
      </trkpt>
      <trkpt lat="45.55774" lon="5.29167">
        <ele>350.2</ele>
        <time>2023-08-29T06:28:28Z</time>
      </trkpt>
      <trkpt lat="45.55775" lon="5.29172">
        <ele>350.4</ele>
        <time>2023-08-29T06:28:29Z</time>
      </trkpt>
      <trkpt lat="45.55776" lon="5.29177">
        <ele>350.4</ele>
        <time>2023-08-29T06:28:30Z</time>
      </trkpt>
      <trkpt lat="45.55776" lon="5.29183">
        <ele>350.6</ele>
        <time>2023-08-29T06:28:31Z</time>
      </trkpt>
      <trkpt lat="45.55778" lon="5.29189">
        <ele>350.6</ele>
        <time>2023-08-29T06:28:32Z</time>
      </trkpt>
      <trkpt lat="45.5578" lon="5.29195">
        <ele>350.6</ele>
        <time>2023-08-29T06:28:33Z</time>
      </trkpt>
      <trkpt lat="45.55781" lon="5.29199">
        <ele>350.6</ele>
        <time>2023-08-29T06:28:34Z</time>
      </trkpt>
      <trkpt lat="45.55782" lon="5.29205">
        <ele>350.2</ele>
        <time>2023-08-29T06:28:35Z</time>
      </trkpt>
      <trkpt lat="45.55784" lon="5.29211">
        <ele>350.2</ele>
        <time>2023-08-29T06:28:36Z</time>
      </trkpt>
      <trkpt lat="45.55786" lon="5.29218">
        <ele>350</ele>
        <time>2023-08-29T06:28:37Z</time>
      </trkpt>
      <trkpt lat="45.55787" lon="5.29224">
        <ele>350</ele>
        <time>2023-08-29T06:28:38Z</time>
      </trkpt>
      <trkpt lat="45.55789" lon="5.2923">
        <ele>349.8</ele>
        <time>2023-08-29T06:28:39Z</time>
      </trkpt>
      <trkpt lat="45.5579" lon="5.29236">
        <ele>349.6</ele>
        <time>2023-08-29T06:28:40Z</time>
      </trkpt>
      <trkpt lat="45.55792" lon="5.29243">
        <ele>349.6</ele>
        <time>2023-08-29T06:28:41Z</time>
      </trkpt>
      <trkpt lat="45.55793" lon="5.2925">
        <ele>349.6</ele>
        <time>2023-08-29T06:28:42Z</time>
      </trkpt>
      <trkpt lat="45.55795" lon="5.29257">
        <ele>349.4</ele>
        <time>2023-08-29T06:28:43Z</time>
      </trkpt>
      <trkpt lat="45.55797" lon="5.29263">
        <ele>349.4</ele>
        <time>2023-08-29T06:28:44Z</time>
      </trkpt>
      <trkpt lat="45.558" lon="5.29269">
        <ele>349.4</ele>
        <time>2023-08-29T06:28:45Z</time>
      </trkpt>
      <trkpt lat="45.55802" lon="5.29274">
        <ele>349.4</ele>
        <time>2023-08-29T06:28:46Z</time>
      </trkpt>
      <trkpt lat="45.55804" lon="5.2928">
        <ele>349.4</ele>
        <time>2023-08-29T06:28:47Z</time>
      </trkpt>
      <trkpt lat="45.55806" lon="5.29286">
        <ele>349.4</ele>
        <time>2023-08-29T06:28:48Z</time>
      </trkpt>
      <trkpt lat="45.55809" lon="5.29292">
        <ele>349.2</ele>
        <time>2023-08-29T06:28:49Z</time>
      </trkpt>
      <trkpt lat="45.55812" lon="5.29298">
        <ele>349.2</ele>
        <time>2023-08-29T06:28:50Z</time>
      </trkpt>
      <trkpt lat="45.55814" lon="5.29304">
        <ele>349.2</ele>
        <time>2023-08-29T06:28:51Z</time>
      </trkpt>
      <trkpt lat="45.55817" lon="5.2931">
        <ele>349.2</ele>
        <time>2023-08-29T06:28:52Z</time>
      </trkpt>
      <trkpt lat="45.55819" lon="5.29315">
        <ele>349.2</ele>
        <time>2023-08-29T06:28:53Z</time>
      </trkpt>
      <trkpt lat="45.55821" lon="5.2932">
        <ele>349.2</ele>
        <time>2023-08-29T06:28:54Z</time>
      </trkpt>
      <trkpt lat="45.55824" lon="5.29326">
        <ele>349.2</ele>
        <time>2023-08-29T06:28:55Z</time>
      </trkpt>
      <trkpt lat="45.55826" lon="5.29331">
        <ele>349</ele>
        <time>2023-08-29T06:28:56Z</time>
      </trkpt>
      <trkpt lat="45.55829" lon="5.29336">
        <ele>349</ele>
        <time>2023-08-29T06:28:57Z</time>
      </trkpt>
      <trkpt lat="45.55832" lon="5.29341">
        <ele>349</ele>
        <time>2023-08-29T06:28:58Z</time>
      </trkpt>
      <trkpt lat="45.55835" lon="5.29346">
        <ele>349.2</ele>
        <time>2023-08-29T06:28:59Z</time>
      </trkpt>
      <trkpt lat="45.55838" lon="5.29349">
        <ele>349.2</ele>
        <time>2023-08-29T06:29:00Z</time>
      </trkpt>
      <trkpt lat="45.55842" lon="5.29352">
        <ele>349.2</ele>
        <time>2023-08-29T06:29:01Z</time>
      </trkpt>
      <trkpt lat="45.55845" lon="5.29353">
        <ele>349.2</ele>
        <time>2023-08-29T06:29:02Z</time>
      </trkpt>
      <trkpt lat="45.55848" lon="5.29355">
        <ele>349.4</ele>
        <time>2023-08-29T06:29:03Z</time>
      </trkpt>
      <trkpt lat="45.55853" lon="5.29356">
        <ele>349.6</ele>
        <time>2023-08-29T06:29:04Z</time>
      </trkpt>
      <trkpt lat="45.55857" lon="5.29358">
        <ele>349.6</ele>
        <time>2023-08-29T06:29:05Z</time>
      </trkpt>
      <trkpt lat="45.55861" lon="5.29358">
        <ele>349.6</ele>
        <time>2023-08-29T06:29:06Z</time>
      </trkpt>
      <trkpt lat="45.55865" lon="5.29359">
        <ele>349.6</ele>
        <time>2023-08-29T06:29:07Z</time>
      </trkpt>
      <trkpt lat="45.5587" lon="5.2936">
        <ele>349.6</ele>
        <time>2023-08-29T06:29:08Z</time>
      </trkpt>
      <trkpt lat="45.55874" lon="5.29361">
        <ele>349.6</ele>
        <time>2023-08-29T06:29:09Z</time>
      </trkpt>
      <trkpt lat="45.55878" lon="5.29362">
        <ele>349.6</ele>
        <time>2023-08-29T06:29:10Z</time>
      </trkpt>
      <trkpt lat="45.55883" lon="5.29363">
        <ele>349.4</ele>
        <time>2023-08-29T06:29:11Z</time>
      </trkpt>
      <trkpt lat="45.55888" lon="5.29364">
        <ele>349.4</ele>
        <time>2023-08-29T06:29:12Z</time>
      </trkpt>
      <trkpt lat="45.55893" lon="5.29365">
        <ele>349.4</ele>
        <time>2023-08-29T06:29:13Z</time>
      </trkpt>
      <trkpt lat="45.55898" lon="5.29367">
        <ele>349.2</ele>
        <time>2023-08-29T06:29:14Z</time>
      </trkpt>
      <trkpt lat="45.55904" lon="5.29368">
        <ele>349</ele>
        <time>2023-08-29T06:29:15Z</time>
      </trkpt>
      <trkpt lat="45.55909" lon="5.29369">
        <ele>349</ele>
        <time>2023-08-29T06:29:16Z</time>
      </trkpt>
      <trkpt lat="45.55914" lon="5.2937">
        <ele>349</ele>
        <time>2023-08-29T06:29:17Z</time>
      </trkpt>
      <trkpt lat="45.55919" lon="5.29371">
        <ele>348.8</ele>
        <time>2023-08-29T06:29:18Z</time>
      </trkpt>
      <trkpt lat="45.55924" lon="5.29372">
        <ele>348.6</ele>
        <time>2023-08-29T06:29:19Z</time>
      </trkpt>
      <trkpt lat="45.55929" lon="5.29373">
        <ele>348.6</ele>
        <time>2023-08-29T06:29:20Z</time>
      </trkpt>
      <trkpt lat="45.55933" lon="5.29374">
        <ele>348.6</ele>
        <time>2023-08-29T06:29:21Z</time>
      </trkpt>
      <trkpt lat="45.55938" lon="5.29377">
        <ele>348.6</ele>
        <time>2023-08-29T06:29:22Z</time>
      </trkpt>
      <trkpt lat="45.55942" lon="5.29381">
        <ele>348.6</ele>
        <time>2023-08-29T06:29:23Z</time>
      </trkpt>
      <trkpt lat="45.55944" lon="5.29386">
        <ele>348.6</ele>
        <time>2023-08-29T06:29:24Z</time>
      </trkpt>
      <trkpt lat="45.55946" lon="5.29392">
        <ele>348.6</ele>
        <time>2023-08-29T06:29:25Z</time>
      </trkpt>
      <trkpt lat="45.55947" lon="5.29398">
        <ele>348.6</ele>
        <time>2023-08-29T06:29:26Z</time>
      </trkpt>
      <trkpt lat="45.55948" lon="5.29403">
        <ele>348.6</ele>
        <time>2023-08-29T06:29:27Z</time>
      </trkpt>
      <trkpt lat="45.5595" lon="5.2941">
        <ele>348.6</ele>
        <time>2023-08-29T06:29:28Z</time>
      </trkpt>
      <trkpt lat="45.55951" lon="5.29416">
        <ele>348.8</ele>
        <time>2023-08-29T06:29:29Z</time>
      </trkpt>
      <trkpt lat="45.55951" lon="5.29421">
        <ele>349</ele>
        <time>2023-08-29T06:29:30Z</time>
      </trkpt>
      <trkpt lat="45.55951" lon="5.29428">
        <ele>349</ele>
        <time>2023-08-29T06:29:31Z</time>
      </trkpt>
      <trkpt lat="45.55952" lon="5.29433">
        <ele>349.2</ele>
        <time>2023-08-29T06:29:32Z</time>
      </trkpt>
      <trkpt lat="45.55952" lon="5.29438">
        <ele>349.4</ele>
        <time>2023-08-29T06:29:33Z</time>
      </trkpt>
      <trkpt lat="45.55952" lon="5.29444">
        <ele>349.4</ele>
        <time>2023-08-29T06:29:34Z</time>
      </trkpt>
      <trkpt lat="45.55952" lon="5.29449">
        <ele>349.4</ele>
        <time>2023-08-29T06:29:35Z</time>
      </trkpt>
      <trkpt lat="45.55953" lon="5.29455">
        <ele>349.6</ele>
        <time>2023-08-29T06:29:36Z</time>
      </trkpt>
      <trkpt lat="45.55953" lon="5.2946">
        <ele>349.8</ele>
        <time>2023-08-29T06:29:37Z</time>
      </trkpt>
      <trkpt lat="45.55953" lon="5.29466">
        <ele>350</ele>
        <time>2023-08-29T06:29:38Z</time>
      </trkpt>
      <trkpt lat="45.55953" lon="5.29471">
        <ele>350.2</ele>
        <time>2023-08-29T06:29:39Z</time>
      </trkpt>
      <trkpt lat="45.55953" lon="5.29476">
        <ele>350.4</ele>
        <time>2023-08-29T06:29:40Z</time>
      </trkpt>
      <trkpt lat="45.55954" lon="5.29481">
        <ele>350.4</ele>
        <time>2023-08-29T06:29:41Z</time>
      </trkpt>
      <trkpt lat="45.55954" lon="5.29486">
        <ele>350.8</ele>
        <time>2023-08-29T06:29:42Z</time>
      </trkpt>
      <trkpt lat="45.55955" lon="5.29491">
        <ele>351</ele>
        <time>2023-08-29T06:29:43Z</time>
      </trkpt>
      <trkpt lat="45.55955" lon="5.29496">
        <ele>351.2</ele>
        <time>2023-08-29T06:29:44Z</time>
      </trkpt>
      <trkpt lat="45.55956" lon="5.29501">
        <ele>351.8</ele>
        <time>2023-08-29T06:29:45Z</time>
      </trkpt>
      <trkpt lat="45.55957" lon="5.29505">
        <ele>352</ele>
        <time>2023-08-29T06:29:46Z</time>
      </trkpt>
      <trkpt lat="45.55959" lon="5.2951">
        <ele>352.2</ele>
        <time>2023-08-29T06:29:47Z</time>
      </trkpt>
      <trkpt lat="45.55961" lon="5.29514">
        <ele>352.4</ele>
        <time>2023-08-29T06:29:48Z</time>
      </trkpt>
      <trkpt lat="45.55962" lon="5.29519">
        <ele>353</ele>
        <time>2023-08-29T06:29:49Z</time>
      </trkpt>
      <trkpt lat="45.55963" lon="5.29523">
        <ele>353.2</ele>
        <time>2023-08-29T06:29:50Z</time>
      </trkpt>
      <trkpt lat="45.55965" lon="5.29527">
        <ele>353.4</ele>
        <time>2023-08-29T06:29:51Z</time>
      </trkpt>
      <trkpt lat="45.55966" lon="5.29531">
        <ele>353.6</ele>
        <time>2023-08-29T06:29:52Z</time>
      </trkpt>
      <trkpt lat="45.55968" lon="5.29536">
        <ele>354</ele>
        <time>2023-08-29T06:29:53Z</time>
      </trkpt>
      <trkpt lat="45.55969" lon="5.2954">
        <ele>354.2</ele>
        <time>2023-08-29T06:29:54Z</time>
      </trkpt>
      <trkpt lat="45.5597" lon="5.29545">
        <ele>354.6</ele>
        <time>2023-08-29T06:29:55Z</time>
      </trkpt>
      <trkpt lat="45.55971" lon="5.2955">
        <ele>354.6</ele>
        <time>2023-08-29T06:29:56Z</time>
      </trkpt>
      <trkpt lat="45.55972" lon="5.29556">
        <ele>355.2</ele>
        <time>2023-08-29T06:29:57Z</time>
      </trkpt>
      <trkpt lat="45.55972" lon="5.29561">
        <ele>355.2</ele>
        <time>2023-08-29T06:29:58Z</time>
      </trkpt>
      <trkpt lat="45.55973" lon="5.29568">
        <ele>355.2</ele>
        <time>2023-08-29T06:29:59Z</time>
      </trkpt>
      <trkpt lat="45.55973" lon="5.29577">
        <ele>355.2</ele>
        <time>2023-08-29T06:30:00Z</time>
      </trkpt>
      <trkpt lat="45.55973" lon="5.29586">
        <ele>355.2</ele>
        <time>2023-08-29T06:30:01Z</time>
      </trkpt>
      <trkpt lat="45.55973" lon="5.29596">
        <ele>355.2</ele>
        <time>2023-08-29T06:30:02Z</time>
      </trkpt>
      <trkpt lat="45.55972" lon="5.29606">
        <ele>355.2</ele>
        <time>2023-08-29T06:30:03Z</time>
      </trkpt>
      <trkpt lat="45.55972" lon="5.29617">
        <ele>354.4</ele>
        <time>2023-08-29T06:30:04Z</time>
      </trkpt>
      <trkpt lat="45.55972" lon="5.29629">
        <ele>353.8</ele>
        <time>2023-08-29T06:30:05Z</time>
      </trkpt>
      <trkpt lat="45.55972" lon="5.29641">
        <ele>353.4</ele>
        <time>2023-08-29T06:30:06Z</time>
      </trkpt>
      <trkpt lat="45.55972" lon="5.29654">
        <ele>352</ele>
        <time>2023-08-29T06:30:07Z</time>
      </trkpt>
      <trkpt lat="45.55971" lon="5.29667">
        <ele>350.6</ele>
        <time>2023-08-29T06:30:08Z</time>
      </trkpt>
      <trkpt lat="45.5597" lon="5.2968">
        <ele>350</ele>
        <time>2023-08-29T06:30:09Z</time>
      </trkpt>
      <trkpt lat="45.55969" lon="5.29693">
        <ele>349.2</ele>
        <time>2023-08-29T06:30:10Z</time>
      </trkpt>
      <trkpt lat="45.55967" lon="5.29706">
        <ele>348.4</ele>
        <time>2023-08-29T06:30:11Z</time>
      </trkpt>
      <trkpt lat="45.55964" lon="5.29718">
        <ele>347</ele>
        <time>2023-08-29T06:30:12Z</time>
      </trkpt>
      <trkpt lat="45.55962" lon="5.2973">
        <ele>345.8</ele>
        <time>2023-08-29T06:30:13Z</time>
      </trkpt>
      <trkpt lat="45.55961" lon="5.29743">
        <ele>344.6</ele>
        <time>2023-08-29T06:30:14Z</time>
      </trkpt>
      <trkpt lat="45.5596" lon="5.29755">
        <ele>343.8</ele>
        <time>2023-08-29T06:30:15Z</time>
      </trkpt>
      <trkpt lat="45.5596" lon="5.29766">
        <ele>342.6</ele>
        <time>2023-08-29T06:30:16Z</time>
      </trkpt>
      <trkpt lat="45.55961" lon="5.29778">
        <ele>341.4</ele>
        <time>2023-08-29T06:30:17Z</time>
      </trkpt>
      <trkpt lat="45.55961" lon="5.2979">
        <ele>340.6</ele>
        <time>2023-08-29T06:30:18Z</time>
      </trkpt>
      <trkpt lat="45.55961" lon="5.29802">
        <ele>339.8</ele>
        <time>2023-08-29T06:30:19Z</time>
      </trkpt>
      <trkpt lat="45.55959" lon="5.29813">
        <ele>338.4</ele>
        <time>2023-08-29T06:30:20Z</time>
      </trkpt>
      <trkpt lat="45.55956" lon="5.29825">
        <ele>337.2</ele>
        <time>2023-08-29T06:30:21Z</time>
      </trkpt>
      <trkpt lat="45.55953" lon="5.29837">
        <ele>336.2</ele>
        <time>2023-08-29T06:30:22Z</time>
      </trkpt>
      <trkpt lat="45.5595" lon="5.29849">
        <ele>335</ele>
        <time>2023-08-29T06:30:23Z</time>
      </trkpt>
      <trkpt lat="45.55947" lon="5.2986">
        <ele>333.6</ele>
        <time>2023-08-29T06:30:24Z</time>
      </trkpt>
      <trkpt lat="45.55944" lon="5.29873">
        <ele>332.6</ele>
        <time>2023-08-29T06:30:25Z</time>
      </trkpt>
      <trkpt lat="45.55943" lon="5.29885">
        <ele>331.2</ele>
        <time>2023-08-29T06:30:26Z</time>
      </trkpt>
      <trkpt lat="45.55942" lon="5.29899">
        <ele>329.8</ele>
        <time>2023-08-29T06:30:27Z</time>
      </trkpt>
      <trkpt lat="45.55943" lon="5.29912">
        <ele>329</ele>
        <time>2023-08-29T06:30:28Z</time>
      </trkpt>
      <trkpt lat="45.55944" lon="5.29924">
        <ele>327.6</ele>
        <time>2023-08-29T06:30:29Z</time>
      </trkpt>
      <trkpt lat="45.55946" lon="5.29937">
        <ele>326.2</ele>
        <time>2023-08-29T06:30:30Z</time>
      </trkpt>
      <trkpt lat="45.55948" lon="5.2995">
        <ele>324.8</ele>
        <time>2023-08-29T06:30:31Z</time>
      </trkpt>
      <trkpt lat="45.55952" lon="5.29963">
        <ele>323.6</ele>
        <time>2023-08-29T06:30:32Z</time>
      </trkpt>
      <trkpt lat="45.55956" lon="5.29976">
        <ele>322</ele>
        <time>2023-08-29T06:30:33Z</time>
      </trkpt>
      <trkpt lat="45.55961" lon="5.29988">
        <ele>320.4</ele>
        <time>2023-08-29T06:30:34Z</time>
      </trkpt>
      <trkpt lat="45.55966" lon="5.3">
        <ele>319.4</ele>
        <time>2023-08-29T06:30:35Z</time>
      </trkpt>
      <trkpt lat="45.55971" lon="5.30012">
        <ele>317.8</ele>
        <time>2023-08-29T06:30:36Z</time>
      </trkpt>
      <trkpt lat="45.55975" lon="5.30023">
        <ele>317.8</ele>
        <time>2023-08-29T06:30:37Z</time>
      </trkpt>
      <trkpt lat="45.55979" lon="5.30034">
        <ele>315.8</ele>
        <time>2023-08-29T06:30:38Z</time>
      </trkpt>
      <trkpt lat="45.5598" lon="5.30046">
        <ele>314.4</ele>
        <time>2023-08-29T06:30:39Z</time>
      </trkpt>
      <trkpt lat="45.55982" lon="5.3006">
        <ele>312.2</ele>
        <time>2023-08-29T06:30:40Z</time>
      </trkpt>
      <trkpt lat="45.55982" lon="5.30073">
        <ele>311.4</ele>
        <time>2023-08-29T06:30:41Z</time>
      </trkpt>
      <trkpt lat="45.55981" lon="5.30086">
        <ele>310.4</ele>
        <time>2023-08-29T06:30:42Z</time>
      </trkpt>
      <trkpt lat="45.55979" lon="5.30097">
        <ele>309.4</ele>
        <time>2023-08-29T06:30:43Z</time>
      </trkpt>
      <trkpt lat="45.55976" lon="5.30108">
        <ele>308</ele>
        <time>2023-08-29T06:30:44Z</time>
      </trkpt>
      <trkpt lat="45.55972" lon="5.30117">
        <ele>307.2</ele>
        <time>2023-08-29T06:30:45Z</time>
      </trkpt>
      <trkpt lat="45.55967" lon="5.30125">
        <ele>305.8</ele>
        <time>2023-08-29T06:30:46Z</time>
      </trkpt>
      <trkpt lat="45.55962" lon="5.30132">
        <ele>304.6</ele>
        <time>2023-08-29T06:30:47Z</time>
      </trkpt>
      <trkpt lat="45.55956" lon="5.30138">
        <ele>303.8</ele>
        <time>2023-08-29T06:30:48Z</time>
      </trkpt>
      <trkpt lat="45.55952" lon="5.30143">
        <ele>303.2</ele>
        <time>2023-08-29T06:30:49Z</time>
      </trkpt>
      <trkpt lat="45.5595" lon="5.3015">
        <ele>303.2</ele>
        <time>2023-08-29T06:30:50Z</time>
      </trkpt>
      <trkpt lat="45.55948" lon="5.30158">
        <ele>303.2</ele>
        <time>2023-08-29T06:30:51Z</time>
      </trkpt>
      <trkpt lat="45.55947" lon="5.30165">
        <ele>303</ele>
        <time>2023-08-29T06:30:52Z</time>
      </trkpt>
      <trkpt lat="45.55946" lon="5.30175">
        <ele>303</ele>
        <time>2023-08-29T06:30:53Z</time>
      </trkpt>
      <trkpt lat="45.55945" lon="5.30185">
        <ele>303</ele>
        <time>2023-08-29T06:30:54Z</time>
      </trkpt>
      <trkpt lat="45.55944" lon="5.30196">
        <ele>303</ele>
        <time>2023-08-29T06:30:55Z</time>
      </trkpt>
      <trkpt lat="45.55942" lon="5.30207">
        <ele>302.6</ele>
        <time>2023-08-29T06:30:56Z</time>
      </trkpt>
      <trkpt lat="45.55939" lon="5.30216">
        <ele>301.8</ele>
        <time>2023-08-29T06:30:57Z</time>
      </trkpt>
      <trkpt lat="45.55935" lon="5.30225">
        <ele>301.4</ele>
        <time>2023-08-29T06:30:58Z</time>
      </trkpt>
      <trkpt lat="45.5593" lon="5.30234">
        <ele>300</ele>
        <time>2023-08-29T06:30:59Z</time>
      </trkpt>
      <trkpt lat="45.55924" lon="5.30243">
        <ele>299</ele>
        <time>2023-08-29T06:31:00Z</time>
      </trkpt>
      <trkpt lat="45.55917" lon="5.30253">
        <ele>298.6</ele>
        <time>2023-08-29T06:31:01Z</time>
      </trkpt>
      <trkpt lat="45.55912" lon="5.30264">
        <ele>297.6</ele>
        <time>2023-08-29T06:31:02Z</time>
      </trkpt>
      <trkpt lat="45.55908" lon="5.30276">
        <ele>297</ele>
        <time>2023-08-29T06:31:03Z</time>
      </trkpt>
      <trkpt lat="45.55905" lon="5.30288">
        <ele>296.2</ele>
        <time>2023-08-29T06:31:04Z</time>
      </trkpt>
      <trkpt lat="45.55902" lon="5.303">
        <ele>294.8</ele>
        <time>2023-08-29T06:31:05Z</time>
      </trkpt>
      <trkpt lat="45.55901" lon="5.30313">
        <ele>294.4</ele>
        <time>2023-08-29T06:31:06Z</time>
      </trkpt>
      <trkpt lat="45.559" lon="5.30325">
        <ele>294.2</ele>
        <time>2023-08-29T06:31:07Z</time>
      </trkpt>
      <trkpt lat="45.559" lon="5.30336">
        <ele>293.4</ele>
        <time>2023-08-29T06:31:08Z</time>
      </trkpt>
      <trkpt lat="45.55901" lon="5.30346">
        <ele>293.4</ele>
        <time>2023-08-29T06:31:09Z</time>
      </trkpt>
      <trkpt lat="45.55903" lon="5.30355">
        <ele>293.2</ele>
        <time>2023-08-29T06:31:10Z</time>
      </trkpt>
      <trkpt lat="45.55904" lon="5.30363">
        <ele>293.2</ele>
        <time>2023-08-29T06:31:11Z</time>
      </trkpt>
      <trkpt lat="45.55906" lon="5.30371">
        <ele>293.2</ele>
        <time>2023-08-29T06:31:12Z</time>
      </trkpt>
      <trkpt lat="45.55907" lon="5.30378">
        <ele>293.2</ele>
        <time>2023-08-29T06:31:13Z</time>
      </trkpt>
      <trkpt lat="45.55908" lon="5.30385">
        <ele>293.2</ele>
        <time>2023-08-29T06:31:14Z</time>
      </trkpt>
      <trkpt lat="45.5591" lon="5.30391">
        <ele>293.4</ele>
        <time>2023-08-29T06:31:15Z</time>
      </trkpt>
      <trkpt lat="45.55911" lon="5.30396">
        <ele>293.8</ele>
        <time>2023-08-29T06:31:16Z</time>
      </trkpt>
      <trkpt lat="45.55912" lon="5.30401">
        <ele>294</ele>
        <time>2023-08-29T06:31:17Z</time>
      </trkpt>
      <trkpt lat="45.55912" lon="5.30406">
        <ele>294.2</ele>
        <time>2023-08-29T06:31:18Z</time>
      </trkpt>
      <trkpt lat="45.55913" lon="5.3041">
        <ele>294.6</ele>
        <time>2023-08-29T06:31:19Z</time>
      </trkpt>
      <trkpt lat="45.55914" lon="5.30414">
        <ele>294.8</ele>
        <time>2023-08-29T06:31:20Z</time>
      </trkpt>
      <trkpt lat="45.55915" lon="5.30417">
        <ele>295</ele>
        <time>2023-08-29T06:31:21Z</time>
      </trkpt>
      <trkpt lat="45.55916" lon="5.3042">
        <ele>295.2</ele>
        <time>2023-08-29T06:31:22Z</time>
      </trkpt>
      <trkpt lat="45.55916" lon="5.30421">
        <ele>295.2</ele>
        <time>2023-08-29T06:31:23Z</time>
      </trkpt>
      <trkpt lat="45.55917" lon="5.30422">
        <ele>295.4</ele>
        <time>2023-08-29T06:31:24Z</time>
      </trkpt>
      <trkpt lat="45.55917" lon="5.30422">
        <ele>295.4</ele>
        <time>2023-08-29T06:31:25Z</time>
      </trkpt>
      <trkpt lat="45.55917" lon="5.30422">
        <ele>295.6</ele>
        <time>2023-08-29T06:31:26Z</time>
      </trkpt>
      <trkpt lat="45.55918" lon="5.30424">
        <ele>295.6</ele>
        <time>2023-08-29T06:31:27Z</time>
      </trkpt>
      <trkpt lat="45.55918" lon="5.30426">
        <ele>295.6</ele>
        <time>2023-08-29T06:31:28Z</time>
      </trkpt>
      <trkpt lat="45.55919" lon="5.30429">
        <ele>295.8</ele>
        <time>2023-08-29T06:31:29Z</time>
      </trkpt>
      <trkpt lat="45.55919" lon="5.3043">
        <ele>295.8</ele>
        <time>2023-08-29T06:31:30Z</time>
      </trkpt>
      <trkpt lat="45.5592" lon="5.30433">
        <ele>295.8</ele>
        <time>2023-08-29T06:31:31Z</time>
      </trkpt>
      <trkpt lat="45.55921" lon="5.30437">
        <ele>296</ele>
        <time>2023-08-29T06:31:32Z</time>
      </trkpt>
      <trkpt lat="45.55921" lon="5.3044">
        <ele>296</ele>
        <time>2023-08-29T06:31:33Z</time>
      </trkpt>
      <trkpt lat="45.55919" lon="5.30444">
        <ele>296</ele>
        <time>2023-08-29T06:31:34Z</time>
      </trkpt>
      <trkpt lat="45.55916" lon="5.30446">
        <ele>296.2</ele>
        <time>2023-08-29T06:31:35Z</time>
      </trkpt>
      <trkpt lat="45.55912" lon="5.30446">
        <ele>296.2</ele>
        <time>2023-08-29T06:31:36Z</time>
      </trkpt>
      <trkpt lat="45.55908" lon="5.30448">
        <ele>296.2</ele>
        <time>2023-08-29T06:31:37Z</time>
      </trkpt>
      <trkpt lat="45.55905" lon="5.3045">
        <ele>296.4</ele>
        <time>2023-08-29T06:31:38Z</time>
      </trkpt>
      <trkpt lat="45.55901" lon="5.30451">
        <ele>296.4</ele>
        <time>2023-08-29T06:31:39Z</time>
      </trkpt>
      <trkpt lat="45.55897" lon="5.30452">
        <ele>296.4</ele>
        <time>2023-08-29T06:31:40Z</time>
      </trkpt>
      <trkpt lat="45.55892" lon="5.30452">
        <ele>296.4</ele>
        <time>2023-08-29T06:31:41Z</time>
      </trkpt>
      <trkpt lat="45.55887" lon="5.30452">
        <ele>296.6</ele>
        <time>2023-08-29T06:31:42Z</time>
      </trkpt>
      <trkpt lat="45.55883" lon="5.30453">
        <ele>296.6</ele>
        <time>2023-08-29T06:31:43Z</time>
      </trkpt>
      <trkpt lat="45.55879" lon="5.30455">
        <ele>296.6</ele>
        <time>2023-08-29T06:31:44Z</time>
      </trkpt>
      <trkpt lat="45.55876" lon="5.30455">
        <ele>296.8</ele>
        <time>2023-08-29T06:31:45Z</time>
      </trkpt>
      <trkpt lat="45.55872" lon="5.30456">
        <ele>296.8</ele>
        <time>2023-08-29T06:31:46Z</time>
      </trkpt>
      <trkpt lat="45.55868" lon="5.30458">
        <ele>297</ele>
        <time>2023-08-29T06:31:47Z</time>
      </trkpt>
      <trkpt lat="45.55864" lon="5.30459">
        <ele>297.2</ele>
        <time>2023-08-29T06:31:48Z</time>
      </trkpt>
      <trkpt lat="45.5586" lon="5.3046">
        <ele>297.2</ele>
        <time>2023-08-29T06:31:49Z</time>
      </trkpt>
      <trkpt lat="45.55856" lon="5.3046">
        <ele>297.2</ele>
        <time>2023-08-29T06:31:50Z</time>
      </trkpt>
      <trkpt lat="45.55852" lon="5.30461">
        <ele>297.4</ele>
        <time>2023-08-29T06:31:51Z</time>
      </trkpt>
      <trkpt lat="45.55847" lon="5.30462">
        <ele>297.4</ele>
        <time>2023-08-29T06:31:52Z</time>
      </trkpt>
      <trkpt lat="45.55843" lon="5.30462">
        <ele>297.8</ele>
        <time>2023-08-29T06:31:53Z</time>
      </trkpt>
      <trkpt lat="45.55838" lon="5.30463">
        <ele>298</ele>
        <time>2023-08-29T06:31:54Z</time>
      </trkpt>
      <trkpt lat="45.55834" lon="5.30464">
        <ele>298</ele>
        <time>2023-08-29T06:31:55Z</time>
      </trkpt>
      <trkpt lat="45.5583" lon="5.30465">
        <ele>298.2</ele>
        <time>2023-08-29T06:31:56Z</time>
      </trkpt>
      <trkpt lat="45.55826" lon="5.30465">
        <ele>298.2</ele>
        <time>2023-08-29T06:31:57Z</time>
      </trkpt>
      <trkpt lat="45.55822" lon="5.30466">
        <ele>298.6</ele>
        <time>2023-08-29T06:31:58Z</time>
      </trkpt>
      <trkpt lat="45.55817" lon="5.30466">
        <ele>298.6</ele>
        <time>2023-08-29T06:31:59Z</time>
      </trkpt>
      <trkpt lat="45.55813" lon="5.30467">
        <ele>298.8</ele>
        <time>2023-08-29T06:32:00Z</time>
      </trkpt>
      <trkpt lat="45.55809" lon="5.30467">
        <ele>299</ele>
        <time>2023-08-29T06:32:01Z</time>
      </trkpt>
      <trkpt lat="45.55805" lon="5.30467">
        <ele>299.2</ele>
        <time>2023-08-29T06:32:02Z</time>
      </trkpt>
      <trkpt lat="45.55802" lon="5.30467">
        <ele>299.6</ele>
        <time>2023-08-29T06:32:03Z</time>
      </trkpt>
      <trkpt lat="45.55798" lon="5.30468">
        <ele>299.6</ele>
        <time>2023-08-29T06:32:04Z</time>
      </trkpt>
      <trkpt lat="45.55794" lon="5.30468">
        <ele>299.8</ele>
        <time>2023-08-29T06:32:05Z</time>
      </trkpt>
      <trkpt lat="45.5579" lon="5.30469">
        <ele>300</ele>
        <time>2023-08-29T06:32:06Z</time>
      </trkpt>
      <trkpt lat="45.55786" lon="5.3047">
        <ele>300.2</ele>
        <time>2023-08-29T06:32:07Z</time>
      </trkpt>
      <trkpt lat="45.55783" lon="5.30471">
        <ele>300.8</ele>
        <time>2023-08-29T06:32:08Z</time>
      </trkpt>
      <trkpt lat="45.55779" lon="5.30472">
        <ele>300.8</ele>
        <time>2023-08-29T06:32:09Z</time>
      </trkpt>
      <trkpt lat="45.55775" lon="5.30473">
        <ele>300.8</ele>
        <time>2023-08-29T06:32:10Z</time>
      </trkpt>
      <trkpt lat="45.55771" lon="5.30474">
        <ele>301</ele>
        <time>2023-08-29T06:32:11Z</time>
      </trkpt>
      <trkpt lat="45.55767" lon="5.30476">
        <ele>301.2</ele>
        <time>2023-08-29T06:32:12Z</time>
      </trkpt>
      <trkpt lat="45.55763" lon="5.30477">
        <ele>301.4</ele>
        <time>2023-08-29T06:32:13Z</time>
      </trkpt>
      <trkpt lat="45.55758" lon="5.30479">
        <ele>301.8</ele>
        <time>2023-08-29T06:32:14Z</time>
      </trkpt>
      <trkpt lat="45.55753" lon="5.30479">
        <ele>301.8</ele>
        <time>2023-08-29T06:32:15Z</time>
      </trkpt>
      <trkpt lat="45.55748" lon="5.30481">
        <ele>302.2</ele>
        <time>2023-08-29T06:32:16Z</time>
      </trkpt>
      <trkpt lat="45.55744" lon="5.30482">
        <ele>302.4</ele>
        <time>2023-08-29T06:32:17Z</time>
      </trkpt>
      <trkpt lat="45.5574" lon="5.30483">
        <ele>302.4</ele>
        <time>2023-08-29T06:32:18Z</time>
      </trkpt>
      <trkpt lat="45.55735" lon="5.30485">
        <ele>302.4</ele>
        <time>2023-08-29T06:32:19Z</time>
      </trkpt>
      <trkpt lat="45.55731" lon="5.30485">
        <ele>302.6</ele>
        <time>2023-08-29T06:32:20Z</time>
      </trkpt>
      <trkpt lat="45.55727" lon="5.30486">
        <ele>302.8</ele>
        <time>2023-08-29T06:32:21Z</time>
      </trkpt>
      <trkpt lat="45.55722" lon="5.30487">
        <ele>303</ele>
        <time>2023-08-29T06:32:22Z</time>
      </trkpt>
      <trkpt lat="45.55717" lon="5.30489">
        <ele>303.4</ele>
        <time>2023-08-29T06:32:23Z</time>
      </trkpt>
      <trkpt lat="45.55712" lon="5.30491">
        <ele>303.4</ele>
        <time>2023-08-29T06:32:24Z</time>
      </trkpt>
      <trkpt lat="45.55707" lon="5.30493">
        <ele>303.6</ele>
        <time>2023-08-29T06:32:25Z</time>
      </trkpt>
      <trkpt lat="45.55702" lon="5.30494">
        <ele>303.8</ele>
        <time>2023-08-29T06:32:26Z</time>
      </trkpt>
      <trkpt lat="45.55697" lon="5.30495">
        <ele>304</ele>
        <time>2023-08-29T06:32:27Z</time>
      </trkpt>
      <trkpt lat="45.55693" lon="5.30496">
        <ele>304.4</ele>
        <time>2023-08-29T06:32:28Z</time>
      </trkpt>
      <trkpt lat="45.5569" lon="5.30495">
        <ele>304.4</ele>
        <time>2023-08-29T06:32:29Z</time>
      </trkpt>
      <trkpt lat="45.55687" lon="5.30496">
        <ele>304.6</ele>
        <time>2023-08-29T06:32:30Z</time>
      </trkpt>
      <trkpt lat="45.55683" lon="5.30498">
        <ele>304.6</ele>
        <time>2023-08-29T06:32:31Z</time>
      </trkpt>
      <trkpt lat="45.55679" lon="5.30499">
        <ele>304.8</ele>
        <time>2023-08-29T06:32:32Z</time>
      </trkpt>
      <trkpt lat="45.55677" lon="5.30505">
        <ele>305</ele>
        <time>2023-08-29T06:32:33Z</time>
      </trkpt>
      <trkpt lat="45.55675" lon="5.30511">
        <ele>305.2</ele>
        <time>2023-08-29T06:32:34Z</time>
      </trkpt>
      <trkpt lat="45.55676" lon="5.30516">
        <ele>305.4</ele>
        <time>2023-08-29T06:32:35Z</time>
      </trkpt>
      <trkpt lat="45.55677" lon="5.30522">
        <ele>305.6</ele>
        <time>2023-08-29T06:32:36Z</time>
      </trkpt>
      <trkpt lat="45.55677" lon="5.30527">
        <ele>305.6</ele>
        <time>2023-08-29T06:32:37Z</time>
      </trkpt>
      <trkpt lat="45.55678" lon="5.30533">
        <ele>305.8</ele>
        <time>2023-08-29T06:32:38Z</time>
      </trkpt>
      <trkpt lat="45.55679" lon="5.30539">
        <ele>305.8</ele>
        <time>2023-08-29T06:32:39Z</time>
      </trkpt>
      <trkpt lat="45.5568" lon="5.30545">
        <ele>306</ele>
        <time>2023-08-29T06:32:40Z</time>
      </trkpt>
      <trkpt lat="45.5568" lon="5.30551">
        <ele>306</ele>
        <time>2023-08-29T06:32:41Z</time>
      </trkpt>
      <trkpt lat="45.5568" lon="5.30556">
        <ele>306</ele>
        <time>2023-08-29T06:32:42Z</time>
      </trkpt>
      <trkpt lat="45.55681" lon="5.30562">
        <ele>306</ele>
        <time>2023-08-29T06:32:43Z</time>
      </trkpt>
      <trkpt lat="45.55681" lon="5.30567">
        <ele>306</ele>
        <time>2023-08-29T06:32:44Z</time>
      </trkpt>
      <trkpt lat="45.55681" lon="5.30573">
        <ele>306</ele>
        <time>2023-08-29T06:32:45Z</time>
      </trkpt>
      <trkpt lat="45.55681" lon="5.30579">
        <ele>306.2</ele>
        <time>2023-08-29T06:32:46Z</time>
      </trkpt>
      <trkpt lat="45.55682" lon="5.30584">
        <ele>306.2</ele>
        <time>2023-08-29T06:32:47Z</time>
      </trkpt>
      <trkpt lat="45.55681" lon="5.3059">
        <ele>306.2</ele>
        <time>2023-08-29T06:32:48Z</time>
      </trkpt>
      <trkpt lat="45.55682" lon="5.30596">
        <ele>306.2</ele>
        <time>2023-08-29T06:32:49Z</time>
      </trkpt>
      <trkpt lat="45.55682" lon="5.30601">
        <ele>306.2</ele>
        <time>2023-08-29T06:32:50Z</time>
      </trkpt>
      <trkpt lat="45.55682" lon="5.30607">
        <ele>306.2</ele>
        <time>2023-08-29T06:32:51Z</time>
      </trkpt>
      <trkpt lat="45.55682" lon="5.30613">
        <ele>306.2</ele>
        <time>2023-08-29T06:32:52Z</time>
      </trkpt>
      <trkpt lat="45.55682" lon="5.30618">
        <ele>306.2</ele>
        <time>2023-08-29T06:32:53Z</time>
      </trkpt>
      <trkpt lat="45.55682" lon="5.30623">
        <ele>306</ele>
        <time>2023-08-29T06:32:54Z</time>
      </trkpt>
      <trkpt lat="45.55682" lon="5.30629">
        <ele>306</ele>
        <time>2023-08-29T06:32:55Z</time>
      </trkpt>
      <trkpt lat="45.55682" lon="5.30635">
        <ele>306</ele>
        <time>2023-08-29T06:32:56Z</time>
      </trkpt>
      <trkpt lat="45.55682" lon="5.30641">
        <ele>306</ele>
        <time>2023-08-29T06:32:57Z</time>
      </trkpt>
      <trkpt lat="45.55682" lon="5.30646">
        <ele>306.2</ele>
        <time>2023-08-29T06:32:58Z</time>
      </trkpt>
      <trkpt lat="45.55682" lon="5.30652">
        <ele>306.2</ele>
        <time>2023-08-29T06:32:59Z</time>
      </trkpt>
      <trkpt lat="45.55681" lon="5.30657">
        <ele>306.2</ele>
        <time>2023-08-29T06:33:00Z</time>
      </trkpt>
      <trkpt lat="45.55681" lon="5.30663">
        <ele>306.2</ele>
        <time>2023-08-29T06:33:01Z</time>
      </trkpt>
      <trkpt lat="45.55679" lon="5.30669">
        <ele>306.2</ele>
        <time>2023-08-29T06:33:02Z</time>
      </trkpt>
      <trkpt lat="45.55677" lon="5.30675">
        <ele>306.2</ele>
        <time>2023-08-29T06:33:03Z</time>
      </trkpt>
      <trkpt lat="45.55676" lon="5.3068">
        <ele>306.2</ele>
        <time>2023-08-29T06:33:04Z</time>
      </trkpt>
      <trkpt lat="45.55676" lon="5.30686">
        <ele>306</ele>
        <time>2023-08-29T06:33:05Z</time>
      </trkpt>
      <trkpt lat="45.55675" lon="5.30692">
        <ele>306</ele>
        <time>2023-08-29T06:33:06Z</time>
      </trkpt>
      <trkpt lat="45.55674" lon="5.30698">
        <ele>306</ele>
        <time>2023-08-29T06:33:07Z</time>
      </trkpt>
      <trkpt lat="45.55673" lon="5.30703">
        <ele>306</ele>
        <time>2023-08-29T06:33:08Z</time>
      </trkpt>
      <trkpt lat="45.55673" lon="5.30709">
        <ele>306</ele>
        <time>2023-08-29T06:33:09Z</time>
      </trkpt>
      <trkpt lat="45.55672" lon="5.30715">
        <ele>306.2</ele>
        <time>2023-08-29T06:33:10Z</time>
      </trkpt>
      <trkpt lat="45.55671" lon="5.30721">
        <ele>306.2</ele>
        <time>2023-08-29T06:33:11Z</time>
      </trkpt>
      <trkpt lat="45.55671" lon="5.30726">
        <ele>306.2</ele>
        <time>2023-08-29T06:33:12Z</time>
      </trkpt>
      <trkpt lat="45.55671" lon="5.30732">
        <ele>306.2</ele>
        <time>2023-08-29T06:33:13Z</time>
      </trkpt>
      <trkpt lat="45.5567" lon="5.30739">
        <ele>306.2</ele>
        <time>2023-08-29T06:33:14Z</time>
      </trkpt>
      <trkpt lat="45.5567" lon="5.30745">
        <ele>306.2</ele>
        <time>2023-08-29T06:33:15Z</time>
      </trkpt>
      <trkpt lat="45.5567" lon="5.30751">
        <ele>306.2</ele>
        <time>2023-08-29T06:33:16Z</time>
      </trkpt>
      <trkpt lat="45.5567" lon="5.30757">
        <ele>306</ele>
        <time>2023-08-29T06:33:17Z</time>
      </trkpt>
      <trkpt lat="45.55669" lon="5.30762">
        <ele>306</ele>
        <time>2023-08-29T06:33:18Z</time>
      </trkpt>
      <trkpt lat="45.55667" lon="5.30767">
        <ele>306</ele>
        <time>2023-08-29T06:33:19Z</time>
      </trkpt>
      <trkpt lat="45.55664" lon="5.30771">
        <ele>306</ele>
        <time>2023-08-29T06:33:20Z</time>
      </trkpt>
      <trkpt lat="45.55661" lon="5.30776">
        <ele>306</ele>
        <time>2023-08-29T06:33:21Z</time>
      </trkpt>
      <trkpt lat="45.55659" lon="5.30781">
        <ele>306</ele>
        <time>2023-08-29T06:33:22Z</time>
      </trkpt>
      <trkpt lat="45.55656" lon="5.30786">
        <ele>306</ele>
        <time>2023-08-29T06:33:23Z</time>
      </trkpt>
      <trkpt lat="45.55654" lon="5.30792">
        <ele>306</ele>
        <time>2023-08-29T06:33:24Z</time>
      </trkpt>
      <trkpt lat="45.55653" lon="5.30798">
        <ele>306.2</ele>
        <time>2023-08-29T06:33:25Z</time>
      </trkpt>
      <trkpt lat="45.55652" lon="5.30804">
        <ele>306.2</ele>
        <time>2023-08-29T06:33:26Z</time>
      </trkpt>
      <trkpt lat="45.5565" lon="5.3081">
        <ele>306.4</ele>
        <time>2023-08-29T06:33:27Z</time>
      </trkpt>
      <trkpt lat="45.55649" lon="5.30816">
        <ele>306.6</ele>
        <time>2023-08-29T06:33:28Z</time>
      </trkpt>
      <trkpt lat="45.55648" lon="5.30822">
        <ele>306.6</ele>
        <time>2023-08-29T06:33:29Z</time>
      </trkpt>
      <trkpt lat="45.55646" lon="5.30829">
        <ele>307</ele>
        <time>2023-08-29T06:33:30Z</time>
      </trkpt>
      <trkpt lat="45.55645" lon="5.30835">
        <ele>307</ele>
        <time>2023-08-29T06:33:31Z</time>
      </trkpt>
      <trkpt lat="45.55644" lon="5.30841">
        <ele>307</ele>
        <time>2023-08-29T06:33:32Z</time>
      </trkpt>
      <trkpt lat="45.55642" lon="5.30847">
        <ele>307</ele>
        <time>2023-08-29T06:33:33Z</time>
      </trkpt>
      <trkpt lat="45.55642" lon="5.30852">
        <ele>307.2</ele>
        <time>2023-08-29T06:33:34Z</time>
      </trkpt>
      <trkpt lat="45.5564" lon="5.30858">
        <ele>307.2</ele>
        <time>2023-08-29T06:33:35Z</time>
      </trkpt>
      <trkpt lat="45.55639" lon="5.30864">
        <ele>307.2</ele>
        <time>2023-08-29T06:33:36Z</time>
      </trkpt>
      <trkpt lat="45.55637" lon="5.30871">
        <ele>307.2</ele>
        <time>2023-08-29T06:33:37Z</time>
      </trkpt>
      <trkpt lat="45.55636" lon="5.30876">
        <ele>307.2</ele>
        <time>2023-08-29T06:33:38Z</time>
      </trkpt>
      <trkpt lat="45.55635" lon="5.30882">
        <ele>307.2</ele>
        <time>2023-08-29T06:33:39Z</time>
      </trkpt>
      <trkpt lat="45.55635" lon="5.30888">
        <ele>307.2</ele>
        <time>2023-08-29T06:33:40Z</time>
      </trkpt>
      <trkpt lat="45.55635" lon="5.30893">
        <ele>307.2</ele>
        <time>2023-08-29T06:33:41Z</time>
      </trkpt>
      <trkpt lat="45.55635" lon="5.30899">
        <ele>307.2</ele>
        <time>2023-08-29T06:33:42Z</time>
      </trkpt>
      <trkpt lat="45.55635" lon="5.30904">
        <ele>307.2</ele>
        <time>2023-08-29T06:33:43Z</time>
      </trkpt>
      <trkpt lat="45.55635" lon="5.30909">
        <ele>307.2</ele>
        <time>2023-08-29T06:33:44Z</time>
      </trkpt>
      <trkpt lat="45.55635" lon="5.30915">
        <ele>307.4</ele>
        <time>2023-08-29T06:33:45Z</time>
      </trkpt>
      <trkpt lat="45.55634" lon="5.3092">
        <ele>307.6</ele>
        <time>2023-08-29T06:33:46Z</time>
      </trkpt>
      <trkpt lat="45.55633" lon="5.30926">
        <ele>307.6</ele>
        <time>2023-08-29T06:33:47Z</time>
      </trkpt>
      <trkpt lat="45.55633" lon="5.30931">
        <ele>307.6</ele>
        <time>2023-08-29T06:33:48Z</time>
      </trkpt>
      <trkpt lat="45.55632" lon="5.30937">
        <ele>307.8</ele>
        <time>2023-08-29T06:33:49Z</time>
      </trkpt>
      <trkpt lat="45.55632" lon="5.30943">
        <ele>307.8</ele>
        <time>2023-08-29T06:33:50Z</time>
      </trkpt>
      <trkpt lat="45.55631" lon="5.30949">
        <ele>307.8</ele>
        <time>2023-08-29T06:33:51Z</time>
      </trkpt>
      <trkpt lat="45.5563" lon="5.30956">
        <ele>307.8</ele>
        <time>2023-08-29T06:33:52Z</time>
      </trkpt>
      <trkpt lat="45.55629" lon="5.30961">
        <ele>308</ele>
        <time>2023-08-29T06:33:53Z</time>
      </trkpt>
      <trkpt lat="45.55628" lon="5.30966">
        <ele>308</ele>
        <time>2023-08-29T06:33:54Z</time>
      </trkpt>
      <trkpt lat="45.55627" lon="5.30971">
        <ele>308.2</ele>
        <time>2023-08-29T06:33:55Z</time>
      </trkpt>
      <trkpt lat="45.55627" lon="5.30976">
        <ele>308.4</ele>
        <time>2023-08-29T06:33:56Z</time>
      </trkpt>
      <trkpt lat="45.55626" lon="5.3098">
        <ele>308.6</ele>
        <time>2023-08-29T06:33:57Z</time>
      </trkpt>
      <trkpt lat="45.55625" lon="5.30986">
        <ele>308.8</ele>
        <time>2023-08-29T06:33:58Z</time>
      </trkpt>
      <trkpt lat="45.55625" lon="5.30991">
        <ele>309.2</ele>
        <time>2023-08-29T06:33:59Z</time>
      </trkpt>
      <trkpt lat="45.55624" lon="5.30996">
        <ele>309.4</ele>
        <time>2023-08-29T06:34:00Z</time>
      </trkpt>
      <trkpt lat="45.55623" lon="5.31001">
        <ele>309.6</ele>
        <time>2023-08-29T06:34:01Z</time>
      </trkpt>
      <trkpt lat="45.55622" lon="5.31006">
        <ele>309.8</ele>
        <time>2023-08-29T06:34:02Z</time>
      </trkpt>
      <trkpt lat="45.55621" lon="5.31011">
        <ele>309.8</ele>
        <time>2023-08-29T06:34:03Z</time>
      </trkpt>
      <trkpt lat="45.5562" lon="5.31016">
        <ele>310</ele>
        <time>2023-08-29T06:34:04Z</time>
      </trkpt>
      <trkpt lat="45.55618" lon="5.3102">
        <ele>310.4</ele>
        <time>2023-08-29T06:34:05Z</time>
      </trkpt>
      <trkpt lat="45.55617" lon="5.31024">
        <ele>310.4</ele>
        <time>2023-08-29T06:34:06Z</time>
      </trkpt>
      <trkpt lat="45.55616" lon="5.31027">
        <ele>310.6</ele>
        <time>2023-08-29T06:34:07Z</time>
      </trkpt>
      <trkpt lat="45.55615" lon="5.31032">
        <ele>311</ele>
        <time>2023-08-29T06:34:08Z</time>
      </trkpt>
      <trkpt lat="45.55614" lon="5.31035">
        <ele>311.4</ele>
        <time>2023-08-29T06:34:09Z</time>
      </trkpt>
      <trkpt lat="45.55613" lon="5.31039">
        <ele>311.6</ele>
        <time>2023-08-29T06:34:10Z</time>
      </trkpt>
      <trkpt lat="45.55612" lon="5.31043">
        <ele>311.8</ele>
        <time>2023-08-29T06:34:11Z</time>
      </trkpt>
      <trkpt lat="45.55611" lon="5.31047">
        <ele>311.8</ele>
        <time>2023-08-29T06:34:12Z</time>
      </trkpt>
      <trkpt lat="45.5561" lon="5.3105">
        <ele>312</ele>
        <time>2023-08-29T06:34:13Z</time>
      </trkpt>
      <trkpt lat="45.55608" lon="5.31053">
        <ele>312.4</ele>
        <time>2023-08-29T06:34:14Z</time>
      </trkpt>
      <trkpt lat="45.55607" lon="5.31057">
        <ele>312.6</ele>
        <time>2023-08-29T06:34:15Z</time>
      </trkpt>
      <trkpt lat="45.55607" lon="5.31059">
        <ele>312.8</ele>
        <time>2023-08-29T06:34:16Z</time>
      </trkpt>
      <trkpt lat="45.55606" lon="5.31062">
        <ele>313.2</ele>
        <time>2023-08-29T06:34:17Z</time>
      </trkpt>
      <trkpt lat="45.55605" lon="5.31065">
        <ele>313.4</ele>
        <time>2023-08-29T06:34:18Z</time>
      </trkpt>
      <trkpt lat="45.55604" lon="5.31068">
        <ele>313.8</ele>
        <time>2023-08-29T06:34:19Z</time>
      </trkpt>
      <trkpt lat="45.55602" lon="5.31072">
        <ele>314</ele>
        <time>2023-08-29T06:34:20Z</time>
      </trkpt>
      <trkpt lat="45.556" lon="5.31075">
        <ele>314.2</ele>
        <time>2023-08-29T06:34:21Z</time>
      </trkpt>
      <trkpt lat="45.55598" lon="5.31078">
        <ele>314.4</ele>
        <time>2023-08-29T06:34:22Z</time>
      </trkpt>
      <trkpt lat="45.55596" lon="5.31082">
        <ele>314.6</ele>
        <time>2023-08-29T06:34:23Z</time>
      </trkpt>
      <trkpt lat="45.55595" lon="5.31085">
        <ele>314.8</ele>
        <time>2023-08-29T06:34:24Z</time>
      </trkpt>
      <trkpt lat="45.55594" lon="5.31088">
        <ele>315.2</ele>
        <time>2023-08-29T06:34:25Z</time>
      </trkpt>
      <trkpt lat="45.55592" lon="5.31091">
        <ele>315.4</ele>
        <time>2023-08-29T06:34:26Z</time>
      </trkpt>
      <trkpt lat="45.55591" lon="5.31094">
        <ele>315.6</ele>
        <time>2023-08-29T06:34:27Z</time>
      </trkpt>
      <trkpt lat="45.5559" lon="5.31097">
        <ele>315.6</ele>
        <time>2023-08-29T06:34:28Z</time>
      </trkpt>
      <trkpt lat="45.55588" lon="5.31101">
        <ele>316</ele>
        <time>2023-08-29T06:34:29Z</time>
      </trkpt>
      <trkpt lat="45.55586" lon="5.31104">
        <ele>316.2</ele>
        <time>2023-08-29T06:34:30Z</time>
      </trkpt>
      <trkpt lat="45.55585" lon="5.31106">
        <ele>316.4</ele>
        <time>2023-08-29T06:34:31Z</time>
      </trkpt>
      <trkpt lat="45.55583" lon="5.31109">
        <ele>316.6</ele>
        <time>2023-08-29T06:34:32Z</time>
      </trkpt>
      <trkpt lat="45.55582" lon="5.31111">
        <ele>316.8</ele>
        <time>2023-08-29T06:34:33Z</time>
      </trkpt>
      <trkpt lat="45.5558" lon="5.31114">
        <ele>316.8</ele>
        <time>2023-08-29T06:34:34Z</time>
      </trkpt>
      <trkpt lat="45.55579" lon="5.31117">
        <ele>317.2</ele>
        <time>2023-08-29T06:34:35Z</time>
      </trkpt>
      <trkpt lat="45.55578" lon="5.3112">
        <ele>317.4</ele>
        <time>2023-08-29T06:34:36Z</time>
      </trkpt>
      <trkpt lat="45.55576" lon="5.31122">
        <ele>317.6</ele>
        <time>2023-08-29T06:34:37Z</time>
      </trkpt>
      <trkpt lat="45.55575" lon="5.31125">
        <ele>317.8</ele>
        <time>2023-08-29T06:34:38Z</time>
      </trkpt>
      <trkpt lat="45.55574" lon="5.31127">
        <ele>318</ele>
        <time>2023-08-29T06:34:39Z</time>
      </trkpt>
      <trkpt lat="45.55573" lon="5.3113">
        <ele>318.2</ele>
        <time>2023-08-29T06:34:40Z</time>
      </trkpt>
      <trkpt lat="45.55572" lon="5.31132">
        <ele>318.6</ele>
        <time>2023-08-29T06:34:41Z</time>
      </trkpt>
      <trkpt lat="45.5557" lon="5.31135">
        <ele>318.8</ele>
        <time>2023-08-29T06:34:42Z</time>
      </trkpt>
      <trkpt lat="45.55569" lon="5.31138">
        <ele>319</ele>
        <time>2023-08-29T06:34:43Z</time>
      </trkpt>
      <trkpt lat="45.55568" lon="5.31141">
        <ele>319.4</ele>
        <time>2023-08-29T06:34:44Z</time>
      </trkpt>
      <trkpt lat="45.55566" lon="5.31144">
        <ele>319.6</ele>
        <time>2023-08-29T06:34:45Z</time>
      </trkpt>
      <trkpt lat="45.55565" lon="5.31146">
        <ele>319.8</ele>
        <time>2023-08-29T06:34:46Z</time>
      </trkpt>
      <trkpt lat="45.55564" lon="5.31149">
        <ele>320</ele>
        <time>2023-08-29T06:34:47Z</time>
      </trkpt>
      <trkpt lat="45.55562" lon="5.31151">
        <ele>320</ele>
        <time>2023-08-29T06:34:48Z</time>
      </trkpt>
      <trkpt lat="45.55561" lon="5.31154">
        <ele>320.2</ele>
        <time>2023-08-29T06:34:49Z</time>
      </trkpt>
      <trkpt lat="45.5556" lon="5.31156">
        <ele>320.4</ele>
        <time>2023-08-29T06:34:50Z</time>
      </trkpt>
      <trkpt lat="45.55559" lon="5.31158">
        <ele>320.6</ele>
        <time>2023-08-29T06:34:51Z</time>
      </trkpt>
      <trkpt lat="45.55558" lon="5.3116">
        <ele>321</ele>
        <time>2023-08-29T06:34:52Z</time>
      </trkpt>
      <trkpt lat="45.55557" lon="5.31163">
        <ele>321.2</ele>
        <time>2023-08-29T06:34:53Z</time>
      </trkpt>
      <trkpt lat="45.55557" lon="5.31166">
        <ele>321.4</ele>
        <time>2023-08-29T06:34:54Z</time>
      </trkpt>
      <trkpt lat="45.55556" lon="5.31169">
        <ele>321.8</ele>
        <time>2023-08-29T06:34:55Z</time>
      </trkpt>
      <trkpt lat="45.55555" lon="5.31171">
        <ele>322</ele>
        <time>2023-08-29T06:34:56Z</time>
      </trkpt>
      <trkpt lat="45.55554" lon="5.31173">
        <ele>322.4</ele>
        <time>2023-08-29T06:34:57Z</time>
      </trkpt>
      <trkpt lat="45.55553" lon="5.31177">
        <ele>322.6</ele>
        <time>2023-08-29T06:34:58Z</time>
      </trkpt>
      <trkpt lat="45.55552" lon="5.3118">
        <ele>323</ele>
        <time>2023-08-29T06:34:59Z</time>
      </trkpt>
      <trkpt lat="45.5555" lon="5.31183">
        <ele>323.2</ele>
        <time>2023-08-29T06:35:00Z</time>
      </trkpt>
      <trkpt lat="45.55549" lon="5.31185">
        <ele>323.4</ele>
        <time>2023-08-29T06:35:01Z</time>
      </trkpt>
      <trkpt lat="45.55549" lon="5.31188">
        <ele>323.6</ele>
        <time>2023-08-29T06:35:02Z</time>
      </trkpt>
      <trkpt lat="45.55548" lon="5.3119">
        <ele>323.8</ele>
        <time>2023-08-29T06:35:03Z</time>
      </trkpt>
      <trkpt lat="45.55548" lon="5.31193">
        <ele>324</ele>
        <time>2023-08-29T06:35:04Z</time>
      </trkpt>
      <trkpt lat="45.55547" lon="5.31196">
        <ele>324.2</ele>
        <time>2023-08-29T06:35:05Z</time>
      </trkpt>
      <trkpt lat="45.55546" lon="5.31199">
        <ele>324.4</ele>
        <time>2023-08-29T06:35:06Z</time>
      </trkpt>
      <trkpt lat="45.55546" lon="5.31201">
        <ele>324.8</ele>
        <time>2023-08-29T06:35:07Z</time>
      </trkpt>
      <trkpt lat="45.55546" lon="5.31205">
        <ele>325</ele>
        <time>2023-08-29T06:35:08Z</time>
      </trkpt>
      <trkpt lat="45.55545" lon="5.31208">
        <ele>325.2</ele>
        <time>2023-08-29T06:35:09Z</time>
      </trkpt>
      <trkpt lat="45.55545" lon="5.31211">
        <ele>325.4</ele>
        <time>2023-08-29T06:35:10Z</time>
      </trkpt>
      <trkpt lat="45.55545" lon="5.31214">
        <ele>325.6</ele>
        <time>2023-08-29T06:35:11Z</time>
      </trkpt>
      <trkpt lat="45.55544" lon="5.31217">
        <ele>325.8</ele>
        <time>2023-08-29T06:35:12Z</time>
      </trkpt>
      <trkpt lat="45.55544" lon="5.3122">
        <ele>326.2</ele>
        <time>2023-08-29T06:35:13Z</time>
      </trkpt>
      <trkpt lat="45.55544" lon="5.31224">
        <ele>326.2</ele>
        <time>2023-08-29T06:35:14Z</time>
      </trkpt>
      <trkpt lat="45.55543" lon="5.31227">
        <ele>326.4</ele>
        <time>2023-08-29T06:35:15Z</time>
      </trkpt>
      <trkpt lat="45.55542" lon="5.31231">
        <ele>326.6</ele>
        <time>2023-08-29T06:35:16Z</time>
      </trkpt>
      <trkpt lat="45.55542" lon="5.31234">
        <ele>326.8</ele>
        <time>2023-08-29T06:35:17Z</time>
      </trkpt>
      <trkpt lat="45.55542" lon="5.31237">
        <ele>327</ele>
        <time>2023-08-29T06:35:18Z</time>
      </trkpt>
      <trkpt lat="45.55542" lon="5.31241">
        <ele>327</ele>
        <time>2023-08-29T06:35:19Z</time>
      </trkpt>
      <trkpt lat="45.55543" lon="5.31244">
        <ele>327.2</ele>
        <time>2023-08-29T06:35:20Z</time>
      </trkpt>
      <trkpt lat="45.55543" lon="5.31248">
        <ele>327.6</ele>
        <time>2023-08-29T06:35:21Z</time>
      </trkpt>
      <trkpt lat="45.55543" lon="5.31251">
        <ele>327.8</ele>
        <time>2023-08-29T06:35:22Z</time>
      </trkpt>
      <trkpt lat="45.55544" lon="5.31255">
        <ele>327.8</ele>
        <time>2023-08-29T06:35:23Z</time>
      </trkpt>
      <trkpt lat="45.55545" lon="5.31258">
        <ele>328</ele>
        <time>2023-08-29T06:35:24Z</time>
      </trkpt>
      <trkpt lat="45.55546" lon="5.31261">
        <ele>328.4</ele>
        <time>2023-08-29T06:35:25Z</time>
      </trkpt>
      <trkpt lat="45.55547" lon="5.31263">
        <ele>328.4</ele>
        <time>2023-08-29T06:35:26Z</time>
      </trkpt>
      <trkpt lat="45.55548" lon="5.31265">
        <ele>328.8</ele>
        <time>2023-08-29T06:35:27Z</time>
      </trkpt>
      <trkpt lat="45.55549" lon="5.31267">
        <ele>329.2</ele>
        <time>2023-08-29T06:35:28Z</time>
      </trkpt>
      <trkpt lat="45.55551" lon="5.31269">
        <ele>329.4</ele>
        <time>2023-08-29T06:35:29Z</time>
      </trkpt>
      <trkpt lat="45.55552" lon="5.31271">
        <ele>329.6</ele>
        <time>2023-08-29T06:35:30Z</time>
      </trkpt>
      <trkpt lat="45.55554" lon="5.31273">
        <ele>329.8</ele>
        <time>2023-08-29T06:35:31Z</time>
      </trkpt>
      <trkpt lat="45.55556" lon="5.31274">
        <ele>330</ele>
        <time>2023-08-29T06:35:32Z</time>
      </trkpt>
      <trkpt lat="45.55558" lon="5.31277">
        <ele>330.2</ele>
        <time>2023-08-29T06:35:33Z</time>
      </trkpt>
      <trkpt lat="45.5556" lon="5.31278">
        <ele>330.4</ele>
        <time>2023-08-29T06:35:34Z</time>
      </trkpt>
      <trkpt lat="45.55561" lon="5.3128">
        <ele>330.6</ele>
        <time>2023-08-29T06:35:35Z</time>
      </trkpt>
      <trkpt lat="45.55563" lon="5.31281">
        <ele>330.6</ele>
        <time>2023-08-29T06:35:36Z</time>
      </trkpt>
      <trkpt lat="45.55565" lon="5.31283">
        <ele>331</ele>
        <time>2023-08-29T06:35:37Z</time>
      </trkpt>
      <trkpt lat="45.55567" lon="5.31284">
        <ele>331</ele>
        <time>2023-08-29T06:35:38Z</time>
      </trkpt>
      <trkpt lat="45.55569" lon="5.31286">
        <ele>331.2</ele>
        <time>2023-08-29T06:35:39Z</time>
      </trkpt>
      <trkpt lat="45.55571" lon="5.31287">
        <ele>331.6</ele>
        <time>2023-08-29T06:35:40Z</time>
      </trkpt>
      <trkpt lat="45.55573" lon="5.31289">
        <ele>331.6</ele>
        <time>2023-08-29T06:35:41Z</time>
      </trkpt>
      <trkpt lat="45.55575" lon="5.3129">
        <ele>332</ele>
        <time>2023-08-29T06:35:42Z</time>
      </trkpt>
      <trkpt lat="45.55578" lon="5.31292">
        <ele>332.2</ele>
        <time>2023-08-29T06:35:43Z</time>
      </trkpt>
      <trkpt lat="45.5558" lon="5.31294">
        <ele>332.2</ele>
        <time>2023-08-29T06:35:44Z</time>
      </trkpt>
      <trkpt lat="45.55582" lon="5.31296">
        <ele>332.6</ele>
        <time>2023-08-29T06:35:45Z</time>
      </trkpt>
      <trkpt lat="45.55584" lon="5.31297">
        <ele>332.8</ele>
        <time>2023-08-29T06:35:46Z</time>
      </trkpt>
      <trkpt lat="45.55585" lon="5.31299">
        <ele>333</ele>
        <time>2023-08-29T06:35:47Z</time>
      </trkpt>
      <trkpt lat="45.55587" lon="5.31301">
        <ele>333.2</ele>
        <time>2023-08-29T06:35:48Z</time>
      </trkpt>
      <trkpt lat="45.55589" lon="5.31302">
        <ele>333.2</ele>
        <time>2023-08-29T06:35:49Z</time>
      </trkpt>
      <trkpt lat="45.55592" lon="5.31305">
        <ele>333.4</ele>
        <time>2023-08-29T06:35:50Z</time>
      </trkpt>
      <trkpt lat="45.55594" lon="5.31307">
        <ele>333.8</ele>
        <time>2023-08-29T06:35:51Z</time>
      </trkpt>
      <trkpt lat="45.55596" lon="5.31308">
        <ele>334</ele>
        <time>2023-08-29T06:35:52Z</time>
      </trkpt>
      <trkpt lat="45.55598" lon="5.31309">
        <ele>334.2</ele>
        <time>2023-08-29T06:35:53Z</time>
      </trkpt>
      <trkpt lat="45.556" lon="5.31311">
        <ele>334.4</ele>
        <time>2023-08-29T06:35:54Z</time>
      </trkpt>
      <trkpt lat="45.55602" lon="5.31313">
        <ele>334.6</ele>
        <time>2023-08-29T06:35:55Z</time>
      </trkpt>
      <trkpt lat="45.55604" lon="5.31315">
        <ele>334.8</ele>
        <time>2023-08-29T06:35:56Z</time>
      </trkpt>
      <trkpt lat="45.55607" lon="5.31317">
        <ele>334.8</ele>
        <time>2023-08-29T06:35:57Z</time>
      </trkpt>
      <trkpt lat="45.55609" lon="5.31319">
        <ele>335</ele>
        <time>2023-08-29T06:35:58Z</time>
      </trkpt>
      <trkpt lat="45.55611" lon="5.31322">
        <ele>335</ele>
        <time>2023-08-29T06:35:59Z</time>
      </trkpt>
      <trkpt lat="45.55614" lon="5.31323">
        <ele>335</ele>
        <time>2023-08-29T06:36:00Z</time>
      </trkpt>
      <trkpt lat="45.55616" lon="5.31326">
        <ele>335.2</ele>
        <time>2023-08-29T06:36:01Z</time>
      </trkpt>
      <trkpt lat="45.55619" lon="5.31328">
        <ele>335.2</ele>
        <time>2023-08-29T06:36:02Z</time>
      </trkpt>
      <trkpt lat="45.55622" lon="5.3133">
        <ele>335.4</ele>
        <time>2023-08-29T06:36:03Z</time>
      </trkpt>
      <trkpt lat="45.55625" lon="5.31332">
        <ele>335.4</ele>
        <time>2023-08-29T06:36:04Z</time>
      </trkpt>
      <trkpt lat="45.55627" lon="5.31334">
        <ele>335.6</ele>
        <time>2023-08-29T06:36:05Z</time>
      </trkpt>
      <trkpt lat="45.5563" lon="5.31335">
        <ele>335.6</ele>
        <time>2023-08-29T06:36:06Z</time>
      </trkpt>
      <trkpt lat="45.55633" lon="5.31337">
        <ele>335.6</ele>
        <time>2023-08-29T06:36:07Z</time>
      </trkpt>
      <trkpt lat="45.55636" lon="5.31339">
        <ele>335.6</ele>
        <time>2023-08-29T06:36:08Z</time>
      </trkpt>
      <trkpt lat="45.55638" lon="5.31341">
        <ele>335.8</ele>
        <time>2023-08-29T06:36:09Z</time>
      </trkpt>
      <trkpt lat="45.55641" lon="5.31343">
        <ele>335.8</ele>
        <time>2023-08-29T06:36:10Z</time>
      </trkpt>
      <trkpt lat="45.55644" lon="5.31344">
        <ele>335.8</ele>
        <time>2023-08-29T06:36:11Z</time>
      </trkpt>
      <trkpt lat="45.55646" lon="5.31346">
        <ele>335.8</ele>
        <time>2023-08-29T06:36:12Z</time>
      </trkpt>
      <trkpt lat="45.55649" lon="5.31348">
        <ele>336</ele>
        <time>2023-08-29T06:36:13Z</time>
      </trkpt>
      <trkpt lat="45.55651" lon="5.3135">
        <ele>336.2</ele>
        <time>2023-08-29T06:36:14Z</time>
      </trkpt>
      <trkpt lat="45.55654" lon="5.31351">
        <ele>336.4</ele>
        <time>2023-08-29T06:36:15Z</time>
      </trkpt>
      <trkpt lat="45.55656" lon="5.31352">
        <ele>336.4</ele>
        <time>2023-08-29T06:36:16Z</time>
      </trkpt>
      <trkpt lat="45.55659" lon="5.31354">
        <ele>336.4</ele>
        <time>2023-08-29T06:36:17Z</time>
      </trkpt>
      <trkpt lat="45.55662" lon="5.31355">
        <ele>336.4</ele>
        <time>2023-08-29T06:36:18Z</time>
      </trkpt>
      <trkpt lat="45.55664" lon="5.31356">
        <ele>336.4</ele>
        <time>2023-08-29T06:36:19Z</time>
      </trkpt>
      <trkpt lat="45.55667" lon="5.31358">
        <ele>336.4</ele>
        <time>2023-08-29T06:36:20Z</time>
      </trkpt>
      <trkpt lat="45.5567" lon="5.31359">
        <ele>336.4</ele>
        <time>2023-08-29T06:36:21Z</time>
      </trkpt>
      <trkpt lat="45.55674" lon="5.31361">
        <ele>336.4</ele>
        <time>2023-08-29T06:36:22Z</time>
      </trkpt>
      <trkpt lat="45.55677" lon="5.31363">
        <ele>336.4</ele>
        <time>2023-08-29T06:36:23Z</time>
      </trkpt>
      <trkpt lat="45.5568" lon="5.31364">
        <ele>336.4</ele>
        <time>2023-08-29T06:36:24Z</time>
      </trkpt>
      <trkpt lat="45.55684" lon="5.31366">
        <ele>336.4</ele>
        <time>2023-08-29T06:36:25Z</time>
      </trkpt>
      <trkpt lat="45.55688" lon="5.31368">
        <ele>336.2</ele>
        <time>2023-08-29T06:36:26Z</time>
      </trkpt>
      <trkpt lat="45.55692" lon="5.3137">
        <ele>336.2</ele>
        <time>2023-08-29T06:36:27Z</time>
      </trkpt>
      <trkpt lat="45.55695" lon="5.31372">
        <ele>336</ele>
        <time>2023-08-29T06:36:28Z</time>
      </trkpt>
      <trkpt lat="45.557" lon="5.31375">
        <ele>335.8</ele>
        <time>2023-08-29T06:36:29Z</time>
      </trkpt>
      <trkpt lat="45.55704" lon="5.31379">
        <ele>335.6</ele>
        <time>2023-08-29T06:36:30Z</time>
      </trkpt>
      <trkpt lat="45.55708" lon="5.31383">
        <ele>335.6</ele>
        <time>2023-08-29T06:36:31Z</time>
      </trkpt>
      <trkpt lat="45.55712" lon="5.31388">
        <ele>335.2</ele>
        <time>2023-08-29T06:36:32Z</time>
      </trkpt>
      <trkpt lat="45.55715" lon="5.31394">
        <ele>335</ele>
        <time>2023-08-29T06:36:33Z</time>
      </trkpt>
      <trkpt lat="45.55718" lon="5.31399">
        <ele>334.8</ele>
        <time>2023-08-29T06:36:34Z</time>
      </trkpt>
      <trkpt lat="45.5572" lon="5.31404">
        <ele>334.8</ele>
        <time>2023-08-29T06:36:35Z</time>
      </trkpt>
      <trkpt lat="45.55722" lon="5.31409">
        <ele>334.8</ele>
        <time>2023-08-29T06:36:36Z</time>
      </trkpt>
      <trkpt lat="45.55724" lon="5.31414">
        <ele>334.8</ele>
        <time>2023-08-29T06:36:37Z</time>
      </trkpt>
      <trkpt lat="45.55726" lon="5.31419">
        <ele>334.8</ele>
        <time>2023-08-29T06:36:38Z</time>
      </trkpt>
      <trkpt lat="45.55727" lon="5.31423">
        <ele>334.8</ele>
        <time>2023-08-29T06:36:39Z</time>
      </trkpt>
      <trkpt lat="45.55729" lon="5.31427">
        <ele>334.8</ele>
        <time>2023-08-29T06:36:40Z</time>
      </trkpt>
      <trkpt lat="45.55731" lon="5.31432">
        <ele>334.8</ele>
        <time>2023-08-29T06:36:41Z</time>
      </trkpt>
      <trkpt lat="45.55732" lon="5.31436">
        <ele>334.8</ele>
        <time>2023-08-29T06:36:42Z</time>
      </trkpt>
      <trkpt lat="45.55733" lon="5.3144">
        <ele>335</ele>
        <time>2023-08-29T06:36:43Z</time>
      </trkpt>
      <trkpt lat="45.55735" lon="5.31445">
        <ele>335</ele>
        <time>2023-08-29T06:36:44Z</time>
      </trkpt>
      <trkpt lat="45.55736" lon="5.31449">
        <ele>335.2</ele>
        <time>2023-08-29T06:36:45Z</time>
      </trkpt>
      <trkpt lat="45.55737" lon="5.31454">
        <ele>335.4</ele>
        <time>2023-08-29T06:36:46Z</time>
      </trkpt>
      <trkpt lat="45.55738" lon="5.31458">
        <ele>335.4</ele>
        <time>2023-08-29T06:36:47Z</time>
      </trkpt>
      <trkpt lat="45.5574" lon="5.31462">
        <ele>335.6</ele>
        <time>2023-08-29T06:36:48Z</time>
      </trkpt>
      <trkpt lat="45.5574" lon="5.31467">
        <ele>335.6</ele>
        <time>2023-08-29T06:36:49Z</time>
      </trkpt>
      <trkpt lat="45.55741" lon="5.31471">
        <ele>336</ele>
        <time>2023-08-29T06:36:50Z</time>
      </trkpt>
      <trkpt lat="45.55742" lon="5.31475">
        <ele>336</ele>
        <time>2023-08-29T06:36:51Z</time>
      </trkpt>
      <trkpt lat="45.55742" lon="5.3148">
        <ele>336.2</ele>
        <time>2023-08-29T06:36:52Z</time>
      </trkpt>
      <trkpt lat="45.55743" lon="5.31484">
        <ele>336.4</ele>
        <time>2023-08-29T06:36:53Z</time>
      </trkpt>
      <trkpt lat="45.55743" lon="5.31487">
        <ele>336.6</ele>
        <time>2023-08-29T06:36:54Z</time>
      </trkpt>
      <trkpt lat="45.55743" lon="5.31492">
        <ele>336.6</ele>
        <time>2023-08-29T06:36:55Z</time>
      </trkpt>
      <trkpt lat="45.55744" lon="5.31496">
        <ele>336.8</ele>
        <time>2023-08-29T06:36:56Z</time>
      </trkpt>
      <trkpt lat="45.55744" lon="5.315">
        <ele>337</ele>
        <time>2023-08-29T06:36:57Z</time>
      </trkpt>
      <trkpt lat="45.55745" lon="5.31504">
        <ele>337.2</ele>
        <time>2023-08-29T06:36:58Z</time>
      </trkpt>
      <trkpt lat="45.55745" lon="5.31509">
        <ele>337.4</ele>
        <time>2023-08-29T06:36:59Z</time>
      </trkpt>
      <trkpt lat="45.55745" lon="5.31514">
        <ele>337.6</ele>
        <time>2023-08-29T06:37:00Z</time>
      </trkpt>
      <trkpt lat="45.55746" lon="5.31519">
        <ele>337.8</ele>
        <time>2023-08-29T06:37:01Z</time>
      </trkpt>
      <trkpt lat="45.55746" lon="5.31523">
        <ele>337.8</ele>
        <time>2023-08-29T06:37:02Z</time>
      </trkpt>
      <trkpt lat="45.55747" lon="5.31528">
        <ele>337.8</ele>
        <time>2023-08-29T06:37:03Z</time>
      </trkpt>
      <trkpt lat="45.55747" lon="5.31533">
        <ele>338</ele>
        <time>2023-08-29T06:37:04Z</time>
      </trkpt>
      <trkpt lat="45.55748" lon="5.31537">
        <ele>338.2</ele>
        <time>2023-08-29T06:37:05Z</time>
      </trkpt>
      <trkpt lat="45.55749" lon="5.31542">
        <ele>338.2</ele>
        <time>2023-08-29T06:37:06Z</time>
      </trkpt>
      <trkpt lat="45.55749" lon="5.31547">
        <ele>338.2</ele>
        <time>2023-08-29T06:37:07Z</time>
      </trkpt>
      <trkpt lat="45.5575" lon="5.31552">
        <ele>338.4</ele>
        <time>2023-08-29T06:37:08Z</time>
      </trkpt>
      <trkpt lat="45.55752" lon="5.31558">
        <ele>338.4</ele>
        <time>2023-08-29T06:37:09Z</time>
      </trkpt>
      <trkpt lat="45.55754" lon="5.31563">
        <ele>338.4</ele>
        <time>2023-08-29T06:37:10Z</time>
      </trkpt>
      <trkpt lat="45.55756" lon="5.31567">
        <ele>338.2</ele>
        <time>2023-08-29T06:37:11Z</time>
      </trkpt>
      <trkpt lat="45.55759" lon="5.31573">
        <ele>338.2</ele>
        <time>2023-08-29T06:37:12Z</time>
      </trkpt>
      <trkpt lat="45.55762" lon="5.31577">
        <ele>338.2</ele>
        <time>2023-08-29T06:37:13Z</time>
      </trkpt>
      <trkpt lat="45.55766" lon="5.31582">
        <ele>338.2</ele>
        <time>2023-08-29T06:37:14Z</time>
      </trkpt>
      <trkpt lat="45.55769" lon="5.31588">
        <ele>338</ele>
        <time>2023-08-29T06:37:15Z</time>
      </trkpt>
      <trkpt lat="45.55771" lon="5.31593">
        <ele>337.8</ele>
        <time>2023-08-29T06:37:16Z</time>
      </trkpt>
      <trkpt lat="45.55774" lon="5.31599">
        <ele>337.8</ele>
        <time>2023-08-29T06:37:17Z</time>
      </trkpt>
      <trkpt lat="45.55777" lon="5.31605">
        <ele>337.6</ele>
        <time>2023-08-29T06:37:18Z</time>
      </trkpt>
      <trkpt lat="45.55779" lon="5.31611">
        <ele>337.4</ele>
        <time>2023-08-29T06:37:19Z</time>
      </trkpt>
      <trkpt lat="45.55781" lon="5.31618">
        <ele>337.2</ele>
        <time>2023-08-29T06:37:20Z</time>
      </trkpt>
      <trkpt lat="45.55783" lon="5.31625">
        <ele>336.8</ele>
        <time>2023-08-29T06:37:21Z</time>
      </trkpt>
      <trkpt lat="45.55785" lon="5.31633">
        <ele>336.4</ele>
        <time>2023-08-29T06:37:22Z</time>
      </trkpt>
      <trkpt lat="45.55786" lon="5.31641">
        <ele>336.2</ele>
        <time>2023-08-29T06:37:23Z</time>
      </trkpt>
      <trkpt lat="45.55788" lon="5.3165">
        <ele>336</ele>
        <time>2023-08-29T06:37:24Z</time>
      </trkpt>
      <trkpt lat="45.5579" lon="5.31658">
        <ele>335.4</ele>
        <time>2023-08-29T06:37:25Z</time>
      </trkpt>
      <trkpt lat="45.55792" lon="5.31667">
        <ele>335.2</ele>
        <time>2023-08-29T06:37:26Z</time>
      </trkpt>
      <trkpt lat="45.55793" lon="5.31677">
        <ele>334.8</ele>
        <time>2023-08-29T06:37:27Z</time>
      </trkpt>
      <trkpt lat="45.55794" lon="5.31686">
        <ele>334.8</ele>
        <time>2023-08-29T06:37:28Z</time>
      </trkpt>
      <trkpt lat="45.55795" lon="5.31696">
        <ele>334.2</ele>
        <time>2023-08-29T06:37:29Z</time>
      </trkpt>
      <trkpt lat="45.55797" lon="5.31706">
        <ele>334.2</ele>
        <time>2023-08-29T06:37:30Z</time>
      </trkpt>
      <trkpt lat="45.55798" lon="5.31716">
        <ele>333.4</ele>
        <time>2023-08-29T06:37:31Z</time>
      </trkpt>
      <trkpt lat="45.55801" lon="5.31726">
        <ele>333.2</ele>
        <time>2023-08-29T06:37:32Z</time>
      </trkpt>
      <trkpt lat="45.55805" lon="5.31735">
        <ele>332.8</ele>
        <time>2023-08-29T06:37:33Z</time>
      </trkpt>
      <trkpt lat="45.55809" lon="5.31743">
        <ele>332.6</ele>
        <time>2023-08-29T06:37:34Z</time>
      </trkpt>
      <trkpt lat="45.55813" lon="5.3175">
        <ele>332.4</ele>
        <time>2023-08-29T06:37:35Z</time>
      </trkpt>
      <trkpt lat="45.55818" lon="5.31756">
        <ele>332.4</ele>
        <time>2023-08-29T06:37:36Z</time>
      </trkpt>
      <trkpt lat="45.55823" lon="5.31762">
        <ele>332.2</ele>
        <time>2023-08-29T06:37:37Z</time>
      </trkpt>
      <trkpt lat="45.55827" lon="5.31768">
        <ele>332.2</ele>
        <time>2023-08-29T06:37:38Z</time>
      </trkpt>
      <trkpt lat="45.55832" lon="5.31775">
        <ele>332</ele>
        <time>2023-08-29T06:37:39Z</time>
      </trkpt>
      <trkpt lat="45.55836" lon="5.31782">
        <ele>332</ele>
        <time>2023-08-29T06:37:40Z</time>
      </trkpt>
      <trkpt lat="45.5584" lon="5.3179">
        <ele>332</ele>
        <time>2023-08-29T06:37:41Z</time>
      </trkpt>
      <trkpt lat="45.55844" lon="5.31798">
        <ele>332</ele>
        <time>2023-08-29T06:37:42Z</time>
      </trkpt>
      <trkpt lat="45.55847" lon="5.31805">
        <ele>332</ele>
        <time>2023-08-29T06:37:43Z</time>
      </trkpt>
      <trkpt lat="45.5585" lon="5.31813">
        <ele>332</ele>
        <time>2023-08-29T06:37:44Z</time>
      </trkpt>
      <trkpt lat="45.55852" lon="5.3182">
        <ele>332</ele>
        <time>2023-08-29T06:37:45Z</time>
      </trkpt>
      <trkpt lat="45.55855" lon="5.31827">
        <ele>332</ele>
        <time>2023-08-29T06:37:46Z</time>
      </trkpt>
      <trkpt lat="45.55857" lon="5.31834">
        <ele>332</ele>
        <time>2023-08-29T06:37:47Z</time>
      </trkpt>
      <trkpt lat="45.55858" lon="5.31841">
        <ele>332</ele>
        <time>2023-08-29T06:37:48Z</time>
      </trkpt>
      <trkpt lat="45.55859" lon="5.31849">
        <ele>332</ele>
        <time>2023-08-29T06:37:49Z</time>
      </trkpt>
      <trkpt lat="45.5586" lon="5.31856">
        <ele>332</ele>
        <time>2023-08-29T06:37:50Z</time>
      </trkpt>
      <trkpt lat="45.5586" lon="5.31863">
        <ele>332</ele>
        <time>2023-08-29T06:37:51Z</time>
      </trkpt>
      <trkpt lat="45.55861" lon="5.3187">
        <ele>332</ele>
        <time>2023-08-29T06:37:52Z</time>
      </trkpt>
      <trkpt lat="45.55861" lon="5.31877">
        <ele>332.2</ele>
        <time>2023-08-29T06:37:53Z</time>
      </trkpt>
      <trkpt lat="45.55861" lon="5.31883">
        <ele>332.2</ele>
        <time>2023-08-29T06:37:54Z</time>
      </trkpt>
      <trkpt lat="45.55861" lon="5.3189">
        <ele>332.4</ele>
        <time>2023-08-29T06:37:55Z</time>
      </trkpt>
      <trkpt lat="45.55861" lon="5.31897">
        <ele>332.4</ele>
        <time>2023-08-29T06:37:56Z</time>
      </trkpt>
      <trkpt lat="45.55861" lon="5.31904">
        <ele>332.4</ele>
        <time>2023-08-29T06:37:57Z</time>
      </trkpt>
      <trkpt lat="45.55861" lon="5.31911">
        <ele>332.4</ele>
        <time>2023-08-29T06:37:58Z</time>
      </trkpt>
      <trkpt lat="45.55861" lon="5.31917">
        <ele>332.4</ele>
        <time>2023-08-29T06:37:59Z</time>
      </trkpt>
      <trkpt lat="45.55861" lon="5.31924">
        <ele>332.6</ele>
        <time>2023-08-29T06:38:00Z</time>
      </trkpt>
      <trkpt lat="45.55861" lon="5.31931">
        <ele>332.6</ele>
        <time>2023-08-29T06:38:01Z</time>
      </trkpt>
      <trkpt lat="45.55861" lon="5.31937">
        <ele>332.6</ele>
        <time>2023-08-29T06:38:02Z</time>
      </trkpt>
      <trkpt lat="45.55861" lon="5.31944">
        <ele>332.8</ele>
        <time>2023-08-29T06:38:03Z</time>
      </trkpt>
      <trkpt lat="45.55861" lon="5.31951">
        <ele>332.8</ele>
        <time>2023-08-29T06:38:04Z</time>
      </trkpt>
      <trkpt lat="45.55861" lon="5.31958">
        <ele>332.8</ele>
        <time>2023-08-29T06:38:05Z</time>
      </trkpt>
      <trkpt lat="45.55861" lon="5.31965">
        <ele>332.8</ele>
        <time>2023-08-29T06:38:06Z</time>
      </trkpt>
      <trkpt lat="45.55861" lon="5.31972">
        <ele>332.8</ele>
        <time>2023-08-29T06:38:07Z</time>
      </trkpt>
      <trkpt lat="45.55861" lon="5.31978">
        <ele>332.8</ele>
        <time>2023-08-29T06:38:08Z</time>
      </trkpt>
      <trkpt lat="45.55862" lon="5.31985">
        <ele>332.8</ele>
        <time>2023-08-29T06:38:09Z</time>
      </trkpt>
      <trkpt lat="45.55862" lon="5.31991">
        <ele>332.8</ele>
        <time>2023-08-29T06:38:10Z</time>
      </trkpt>
      <trkpt lat="45.55863" lon="5.31998">
        <ele>332.8</ele>
        <time>2023-08-29T06:38:11Z</time>
      </trkpt>
      <trkpt lat="45.55864" lon="5.32004">
        <ele>332.8</ele>
        <time>2023-08-29T06:38:12Z</time>
      </trkpt>
      <trkpt lat="45.55866" lon="5.32011">
        <ele>332.8</ele>
        <time>2023-08-29T06:38:13Z</time>
      </trkpt>
      <trkpt lat="45.55867" lon="5.32017">
        <ele>332.8</ele>
        <time>2023-08-29T06:38:14Z</time>
      </trkpt>
      <trkpt lat="45.55869" lon="5.32023">
        <ele>332.8</ele>
        <time>2023-08-29T06:38:15Z</time>
      </trkpt>
      <trkpt lat="45.5587" lon="5.32029">
        <ele>332.8</ele>
        <time>2023-08-29T06:38:16Z</time>
      </trkpt>
      <trkpt lat="45.55872" lon="5.32035">
        <ele>333</ele>
        <time>2023-08-29T06:38:17Z</time>
      </trkpt>
      <trkpt lat="45.55874" lon="5.32041">
        <ele>333</ele>
        <time>2023-08-29T06:38:18Z</time>
      </trkpt>
      <trkpt lat="45.55876" lon="5.32047">
        <ele>333</ele>
        <time>2023-08-29T06:38:19Z</time>
      </trkpt>
      <trkpt lat="45.55878" lon="5.32053">
        <ele>333</ele>
        <time>2023-08-29T06:38:20Z</time>
      </trkpt>
      <trkpt lat="45.55881" lon="5.32058">
        <ele>333.2</ele>
        <time>2023-08-29T06:38:21Z</time>
      </trkpt>
      <trkpt lat="45.55883" lon="5.32065">
        <ele>333.2</ele>
        <time>2023-08-29T06:38:22Z</time>
      </trkpt>
      <trkpt lat="45.55886" lon="5.3207">
        <ele>333.2</ele>
        <time>2023-08-29T06:38:23Z</time>
      </trkpt>
      <trkpt lat="45.55889" lon="5.32074">
        <ele>333.2</ele>
        <time>2023-08-29T06:38:24Z</time>
      </trkpt>
      <trkpt lat="45.55893" lon="5.32079">
        <ele>333.2</ele>
        <time>2023-08-29T06:38:25Z</time>
      </trkpt>
      <trkpt lat="45.55896" lon="5.32083">
        <ele>333.2</ele>
        <time>2023-08-29T06:38:26Z</time>
      </trkpt>
      <trkpt lat="45.559" lon="5.32087">
        <ele>333.2</ele>
        <time>2023-08-29T06:38:27Z</time>
      </trkpt>
      <trkpt lat="45.55904" lon="5.32092">
        <ele>333.2</ele>
        <time>2023-08-29T06:38:28Z</time>
      </trkpt>
      <trkpt lat="45.55908" lon="5.32096">
        <ele>332.8</ele>
        <time>2023-08-29T06:38:29Z</time>
      </trkpt>
      <trkpt lat="45.55912" lon="5.321">
        <ele>332.8</ele>
        <time>2023-08-29T06:38:30Z</time>
      </trkpt>
      <trkpt lat="45.55916" lon="5.32104">
        <ele>332.8</ele>
        <time>2023-08-29T06:38:31Z</time>
      </trkpt>
      <trkpt lat="45.5592" lon="5.32108">
        <ele>332.8</ele>
        <time>2023-08-29T06:38:32Z</time>
      </trkpt>
      <trkpt lat="45.55924" lon="5.32113">
        <ele>332.8</ele>
        <time>2023-08-29T06:38:33Z</time>
      </trkpt>
      <trkpt lat="45.55927" lon="5.32117">
        <ele>332.6</ele>
        <time>2023-08-29T06:38:34Z</time>
      </trkpt>
      <trkpt lat="45.55931" lon="5.32122">
        <ele>332.4</ele>
        <time>2023-08-29T06:38:35Z</time>
      </trkpt>
      <trkpt lat="45.55934" lon="5.32127">
        <ele>332.4</ele>
        <time>2023-08-29T06:38:36Z</time>
      </trkpt>
      <trkpt lat="45.55938" lon="5.32131">
        <ele>332.4</ele>
        <time>2023-08-29T06:38:37Z</time>
      </trkpt>
      <trkpt lat="45.55941" lon="5.32137">
        <ele>332.4</ele>
        <time>2023-08-29T06:38:38Z</time>
      </trkpt>
      <trkpt lat="45.55944" lon="5.32142">
        <ele>332.4</ele>
        <time>2023-08-29T06:38:39Z</time>
      </trkpt>
      <trkpt lat="45.55947" lon="5.32148">
        <ele>332.4</ele>
        <time>2023-08-29T06:38:40Z</time>
      </trkpt>
      <trkpt lat="45.55949" lon="5.32153">
        <ele>332.4</ele>
        <time>2023-08-29T06:38:41Z</time>
      </trkpt>
      <trkpt lat="45.55952" lon="5.32158">
        <ele>332.4</ele>
        <time>2023-08-29T06:38:42Z</time>
      </trkpt>
      <trkpt lat="45.55954" lon="5.32162">
        <ele>332.4</ele>
        <time>2023-08-29T06:38:43Z</time>
      </trkpt>
      <trkpt lat="45.55955" lon="5.32167">
        <ele>332.6</ele>
        <time>2023-08-29T06:38:44Z</time>
      </trkpt>
      <trkpt lat="45.55957" lon="5.32172">
        <ele>332.8</ele>
        <time>2023-08-29T06:38:45Z</time>
      </trkpt>
      <trkpt lat="45.55959" lon="5.32177">
        <ele>333</ele>
        <time>2023-08-29T06:38:46Z</time>
      </trkpt>
      <trkpt lat="45.55961" lon="5.32182">
        <ele>333.2</ele>
        <time>2023-08-29T06:38:47Z</time>
      </trkpt>
      <trkpt lat="45.55962" lon="5.32187">
        <ele>333.6</ele>
        <time>2023-08-29T06:38:48Z</time>
      </trkpt>
      <trkpt lat="45.55963" lon="5.32192">
        <ele>333.8</ele>
        <time>2023-08-29T06:38:49Z</time>
      </trkpt>
      <trkpt lat="45.55964" lon="5.32197">
        <ele>334</ele>
        <time>2023-08-29T06:38:50Z</time>
      </trkpt>
      <trkpt lat="45.55965" lon="5.32203">
        <ele>334.2</ele>
        <time>2023-08-29T06:38:51Z</time>
      </trkpt>
      <trkpt lat="45.55965" lon="5.32209">
        <ele>334.4</ele>
        <time>2023-08-29T06:38:52Z</time>
      </trkpt>
      <trkpt lat="45.55965" lon="5.32214">
        <ele>334.6</ele>
        <time>2023-08-29T06:38:53Z</time>
      </trkpt>
      <trkpt lat="45.55964" lon="5.3222">
        <ele>335</ele>
        <time>2023-08-29T06:38:54Z</time>
      </trkpt>
      <trkpt lat="45.55964" lon="5.32225">
        <ele>335.2</ele>
        <time>2023-08-29T06:38:55Z</time>
      </trkpt>
      <trkpt lat="45.55963" lon="5.32231">
        <ele>335.4</ele>
        <time>2023-08-29T06:38:56Z</time>
      </trkpt>
      <trkpt lat="45.55962" lon="5.32236">
        <ele>335.4</ele>
        <time>2023-08-29T06:38:57Z</time>
      </trkpt>
      <trkpt lat="45.5596" lon="5.32242">
        <ele>335.4</ele>
        <time>2023-08-29T06:38:58Z</time>
      </trkpt>
      <trkpt lat="45.55959" lon="5.32247">
        <ele>335.4</ele>
        <time>2023-08-29T06:38:59Z</time>
      </trkpt>
      <trkpt lat="45.55958" lon="5.32252">
        <ele>335.6</ele>
        <time>2023-08-29T06:39:00Z</time>
      </trkpt>
      <trkpt lat="45.55957" lon="5.32258">
        <ele>335.8</ele>
        <time>2023-08-29T06:39:01Z</time>
      </trkpt>
      <trkpt lat="45.55956" lon="5.32263">
        <ele>335.8</ele>
        <time>2023-08-29T06:39:02Z</time>
      </trkpt>
      <trkpt lat="45.55954" lon="5.32269">
        <ele>335.8</ele>
        <time>2023-08-29T06:39:03Z</time>
      </trkpt>
      <trkpt lat="45.55953" lon="5.32274">
        <ele>335.8</ele>
        <time>2023-08-29T06:39:04Z</time>
      </trkpt>
      <trkpt lat="45.55952" lon="5.3228">
        <ele>335.8</ele>
        <time>2023-08-29T06:39:05Z</time>
      </trkpt>
      <trkpt lat="45.55951" lon="5.32286">
        <ele>335.8</ele>
        <time>2023-08-29T06:39:06Z</time>
      </trkpt>
      <trkpt lat="45.55949" lon="5.32292">
        <ele>336</ele>
        <time>2023-08-29T06:39:07Z</time>
      </trkpt>
      <trkpt lat="45.55948" lon="5.32297">
        <ele>336.2</ele>
        <time>2023-08-29T06:39:08Z</time>
      </trkpt>
      <trkpt lat="45.55947" lon="5.32303">
        <ele>336.2</ele>
        <time>2023-08-29T06:39:09Z</time>
      </trkpt>
      <trkpt lat="45.55946" lon="5.32309">
        <ele>336.4</ele>
        <time>2023-08-29T06:39:10Z</time>
      </trkpt>
      <trkpt lat="45.55946" lon="5.32314">
        <ele>336.4</ele>
        <time>2023-08-29T06:39:11Z</time>
      </trkpt>
      <trkpt lat="45.55945" lon="5.3232">
        <ele>336.6</ele>
        <time>2023-08-29T06:39:12Z</time>
      </trkpt>
      <trkpt lat="45.55944" lon="5.32326">
        <ele>336.6</ele>
        <time>2023-08-29T06:39:13Z</time>
      </trkpt>
      <trkpt lat="45.55943" lon="5.32331">
        <ele>336.8</ele>
        <time>2023-08-29T06:39:14Z</time>
      </trkpt>
      <trkpt lat="45.55943" lon="5.32337">
        <ele>336.8</ele>
        <time>2023-08-29T06:39:15Z</time>
      </trkpt>
      <trkpt lat="45.55942" lon="5.32343">
        <ele>336.8</ele>
        <time>2023-08-29T06:39:16Z</time>
      </trkpt>
      <trkpt lat="45.55941" lon="5.32349">
        <ele>336.8</ele>
        <time>2023-08-29T06:39:17Z</time>
      </trkpt>
      <trkpt lat="45.5594" lon="5.32355">
        <ele>337</ele>
        <time>2023-08-29T06:39:18Z</time>
      </trkpt>
      <trkpt lat="45.5594" lon="5.32361">
        <ele>337</ele>
        <time>2023-08-29T06:39:19Z</time>
      </trkpt>
      <trkpt lat="45.55939" lon="5.32367">
        <ele>337</ele>
        <time>2023-08-29T06:39:20Z</time>
      </trkpt>
      <trkpt lat="45.55938" lon="5.32372">
        <ele>337</ele>
        <time>2023-08-29T06:39:21Z</time>
      </trkpt>
      <trkpt lat="45.55938" lon="5.32378">
        <ele>337</ele>
        <time>2023-08-29T06:39:22Z</time>
      </trkpt>
      <trkpt lat="45.55937" lon="5.32384">
        <ele>337</ele>
        <time>2023-08-29T06:39:23Z</time>
      </trkpt>
      <trkpt lat="45.55936" lon="5.32391">
        <ele>337.2</ele>
        <time>2023-08-29T06:39:24Z</time>
      </trkpt>
      <trkpt lat="45.55936" lon="5.32397">
        <ele>337.2</ele>
        <time>2023-08-29T06:39:25Z</time>
      </trkpt>
      <trkpt lat="45.55935" lon="5.32403">
        <ele>337.2</ele>
        <time>2023-08-29T06:39:26Z</time>
      </trkpt>
      <trkpt lat="45.55935" lon="5.3241">
        <ele>337.2</ele>
        <time>2023-08-29T06:39:27Z</time>
      </trkpt>
      <trkpt lat="45.55934" lon="5.32416">
        <ele>337.2</ele>
        <time>2023-08-29T06:39:28Z</time>
      </trkpt>
      <trkpt lat="45.55933" lon="5.32423">
        <ele>337.2</ele>
        <time>2023-08-29T06:39:29Z</time>
      </trkpt>
      <trkpt lat="45.55932" lon="5.3243">
        <ele>337.2</ele>
        <time>2023-08-29T06:39:30Z</time>
      </trkpt>
      <trkpt lat="45.55931" lon="5.32437">
        <ele>337.2</ele>
        <time>2023-08-29T06:39:31Z</time>
      </trkpt>
      <trkpt lat="45.55931" lon="5.32443">
        <ele>337.2</ele>
        <time>2023-08-29T06:39:32Z</time>
      </trkpt>
      <trkpt lat="45.5593" lon="5.32451">
        <ele>337.2</ele>
        <time>2023-08-29T06:39:33Z</time>
      </trkpt>
      <trkpt lat="45.55929" lon="5.32458">
        <ele>337</ele>
        <time>2023-08-29T06:39:34Z</time>
      </trkpt>
      <trkpt lat="45.55929" lon="5.32464">
        <ele>337</ele>
        <time>2023-08-29T06:39:35Z</time>
      </trkpt>
      <trkpt lat="45.55928" lon="5.3247">
        <ele>337</ele>
        <time>2023-08-29T06:39:36Z</time>
      </trkpt>
      <trkpt lat="45.55928" lon="5.32476">
        <ele>336.8</ele>
        <time>2023-08-29T06:39:37Z</time>
      </trkpt>
      <trkpt lat="45.55927" lon="5.32483">
        <ele>336.8</ele>
        <time>2023-08-29T06:39:38Z</time>
      </trkpt>
      <trkpt lat="45.55926" lon="5.32489">
        <ele>336.8</ele>
        <time>2023-08-29T06:39:39Z</time>
      </trkpt>
      <trkpt lat="45.55926" lon="5.32496">
        <ele>336.8</ele>
        <time>2023-08-29T06:39:40Z</time>
      </trkpt>
      <trkpt lat="45.55925" lon="5.32502">
        <ele>336.8</ele>
        <time>2023-08-29T06:39:41Z</time>
      </trkpt>
      <trkpt lat="45.55925" lon="5.32509">
        <ele>336.8</ele>
        <time>2023-08-29T06:39:42Z</time>
      </trkpt>
      <trkpt lat="45.55924" lon="5.32515">
        <ele>336.8</ele>
        <time>2023-08-29T06:39:43Z</time>
      </trkpt>
      <trkpt lat="45.55924" lon="5.32522">
        <ele>337</ele>
        <time>2023-08-29T06:39:44Z</time>
      </trkpt>
      <trkpt lat="45.55923" lon="5.32528">
        <ele>337</ele>
        <time>2023-08-29T06:39:45Z</time>
      </trkpt>
      <trkpt lat="45.55922" lon="5.32535">
        <ele>337</ele>
        <time>2023-08-29T06:39:46Z</time>
      </trkpt>
      <trkpt lat="45.55922" lon="5.3254">
        <ele>337</ele>
        <time>2023-08-29T06:39:47Z</time>
      </trkpt>
      <trkpt lat="45.55921" lon="5.32547">
        <ele>337</ele>
        <time>2023-08-29T06:39:48Z</time>
      </trkpt>
      <trkpt lat="45.55921" lon="5.32553">
        <ele>337</ele>
        <time>2023-08-29T06:39:49Z</time>
      </trkpt>
      <trkpt lat="45.5592" lon="5.3256">
        <ele>337</ele>
        <time>2023-08-29T06:39:50Z</time>
      </trkpt>
      <trkpt lat="45.5592" lon="5.32566">
        <ele>337</ele>
        <time>2023-08-29T06:39:51Z</time>
      </trkpt>
      <trkpt lat="45.55919" lon="5.32572">
        <ele>337</ele>
        <time>2023-08-29T06:39:52Z</time>
      </trkpt>
      <trkpt lat="45.55919" lon="5.32579">
        <ele>337</ele>
        <time>2023-08-29T06:39:53Z</time>
      </trkpt>
      <trkpt lat="45.55918" lon="5.32586">
        <ele>337</ele>
        <time>2023-08-29T06:39:54Z</time>
      </trkpt>
      <trkpt lat="45.55917" lon="5.32592">
        <ele>337</ele>
        <time>2023-08-29T06:39:55Z</time>
      </trkpt>
      <trkpt lat="45.55917" lon="5.32598">
        <ele>337</ele>
        <time>2023-08-29T06:39:56Z</time>
      </trkpt>
      <trkpt lat="45.55916" lon="5.32604">
        <ele>337</ele>
        <time>2023-08-29T06:39:57Z</time>
      </trkpt>
      <trkpt lat="45.55915" lon="5.32611">
        <ele>337</ele>
        <time>2023-08-29T06:39:58Z</time>
      </trkpt>
      <trkpt lat="45.55914" lon="5.32617">
        <ele>337.2</ele>
        <time>2023-08-29T06:39:59Z</time>
      </trkpt>
      <trkpt lat="45.55914" lon="5.32623">
        <ele>337.2</ele>
        <time>2023-08-29T06:40:00Z</time>
      </trkpt>
      <trkpt lat="45.55913" lon="5.3263">
        <ele>337.2</ele>
        <time>2023-08-29T06:40:01Z</time>
      </trkpt>
      <trkpt lat="45.55912" lon="5.32636">
        <ele>337.4</ele>
        <time>2023-08-29T06:40:02Z</time>
      </trkpt>
      <trkpt lat="45.55911" lon="5.32642">
        <ele>337.4</ele>
        <time>2023-08-29T06:40:03Z</time>
      </trkpt>
      <trkpt lat="45.55911" lon="5.32648">
        <ele>337.4</ele>
        <time>2023-08-29T06:40:04Z</time>
      </trkpt>
      <trkpt lat="45.5591" lon="5.32653">
        <ele>337.6</ele>
        <time>2023-08-29T06:40:05Z</time>
      </trkpt>
      <trkpt lat="45.55909" lon="5.3266">
        <ele>337.6</ele>
        <time>2023-08-29T06:40:06Z</time>
      </trkpt>
      <trkpt lat="45.55908" lon="5.32666">
        <ele>337.6</ele>
        <time>2023-08-29T06:40:07Z</time>
      </trkpt>
      <trkpt lat="45.55907" lon="5.32672">
        <ele>337.8</ele>
        <time>2023-08-29T06:40:08Z</time>
      </trkpt>
      <trkpt lat="45.55907" lon="5.32678">
        <ele>337.8</ele>
        <time>2023-08-29T06:40:09Z</time>
      </trkpt>
      <trkpt lat="45.55906" lon="5.32684">
        <ele>337.8</ele>
        <time>2023-08-29T06:40:10Z</time>
      </trkpt>
      <trkpt lat="45.55905" lon="5.3269">
        <ele>337.8</ele>
        <time>2023-08-29T06:40:11Z</time>
      </trkpt>
      <trkpt lat="45.55905" lon="5.32696">
        <ele>338</ele>
        <time>2023-08-29T06:40:12Z</time>
      </trkpt>
      <trkpt lat="45.55904" lon="5.32701">
        <ele>338</ele>
        <time>2023-08-29T06:40:13Z</time>
      </trkpt>
      <trkpt lat="45.55903" lon="5.32707">
        <ele>338</ele>
        <time>2023-08-29T06:40:14Z</time>
      </trkpt>
      <trkpt lat="45.55902" lon="5.32713">
        <ele>338</ele>
        <time>2023-08-29T06:40:15Z</time>
      </trkpt>
      <trkpt lat="45.55901" lon="5.32719">
        <ele>338</ele>
        <time>2023-08-29T06:40:16Z</time>
      </trkpt>
      <trkpt lat="45.55901" lon="5.32724">
        <ele>338.2</ele>
        <time>2023-08-29T06:40:17Z</time>
      </trkpt>
      <trkpt lat="45.559" lon="5.3273">
        <ele>338.2</ele>
        <time>2023-08-29T06:40:18Z</time>
      </trkpt>
      <trkpt lat="45.55899" lon="5.32736">
        <ele>338.4</ele>
        <time>2023-08-29T06:40:19Z</time>
      </trkpt>
      <trkpt lat="45.55898" lon="5.32742">
        <ele>338.4</ele>
        <time>2023-08-29T06:40:20Z</time>
      </trkpt>
      <trkpt lat="45.55897" lon="5.32748">
        <ele>338.4</ele>
        <time>2023-08-29T06:40:21Z</time>
      </trkpt>
      <trkpt lat="45.55896" lon="5.32753">
        <ele>338.4</ele>
        <time>2023-08-29T06:40:22Z</time>
      </trkpt>
      <trkpt lat="45.55895" lon="5.32759">
        <ele>338.4</ele>
        <time>2023-08-29T06:40:23Z</time>
      </trkpt>
      <trkpt lat="45.55895" lon="5.32765">
        <ele>338.4</ele>
        <time>2023-08-29T06:40:24Z</time>
      </trkpt>
      <trkpt lat="45.55894" lon="5.32771">
        <ele>338.4</ele>
        <time>2023-08-29T06:40:25Z</time>
      </trkpt>
      <trkpt lat="45.55893" lon="5.32777">
        <ele>338.6</ele>
        <time>2023-08-29T06:40:26Z</time>
      </trkpt>
      <trkpt lat="45.55892" lon="5.32783">
        <ele>338.6</ele>
        <time>2023-08-29T06:40:27Z</time>
      </trkpt>
      <trkpt lat="45.55891" lon="5.32789">
        <ele>338.6</ele>
        <time>2023-08-29T06:40:28Z</time>
      </trkpt>
      <trkpt lat="45.55891" lon="5.32796">
        <ele>338.6</ele>
        <time>2023-08-29T06:40:29Z</time>
      </trkpt>
      <trkpt lat="45.5589" lon="5.32802">
        <ele>338.6</ele>
        <time>2023-08-29T06:40:30Z</time>
      </trkpt>
      <trkpt lat="45.55889" lon="5.32808">
        <ele>338.6</ele>
        <time>2023-08-29T06:40:31Z</time>
      </trkpt>
      <trkpt lat="45.55888" lon="5.32814">
        <ele>338.6</ele>
        <time>2023-08-29T06:40:32Z</time>
      </trkpt>
      <trkpt lat="45.55887" lon="5.3282">
        <ele>338.6</ele>
        <time>2023-08-29T06:40:33Z</time>
      </trkpt>
      <trkpt lat="45.55886" lon="5.32826">
        <ele>338.6</ele>
        <time>2023-08-29T06:40:34Z</time>
      </trkpt>
      <trkpt lat="45.55886" lon="5.32832">
        <ele>338.8</ele>
        <time>2023-08-29T06:40:35Z</time>
      </trkpt>
      <trkpt lat="45.55885" lon="5.32838">
        <ele>338.6</ele>
        <time>2023-08-29T06:40:36Z</time>
      </trkpt>
      <trkpt lat="45.55884" lon="5.32844">
        <ele>338.6</ele>
        <time>2023-08-29T06:40:37Z</time>
      </trkpt>
      <trkpt lat="45.55883" lon="5.3285">
        <ele>338.6</ele>
        <time>2023-08-29T06:40:38Z</time>
      </trkpt>
      <trkpt lat="45.55882" lon="5.32855">
        <ele>338.8</ele>
        <time>2023-08-29T06:40:39Z</time>
      </trkpt>
      <trkpt lat="45.55881" lon="5.32861">
        <ele>338.8</ele>
        <time>2023-08-29T06:40:40Z</time>
      </trkpt>
      <trkpt lat="45.5588" lon="5.32867">
        <ele>338.8</ele>
        <time>2023-08-29T06:40:41Z</time>
      </trkpt>
      <trkpt lat="45.55879" lon="5.32873">
        <ele>339</ele>
        <time>2023-08-29T06:40:42Z</time>
      </trkpt>
      <trkpt lat="45.55879" lon="5.32879">
        <ele>339</ele>
        <time>2023-08-29T06:40:43Z</time>
      </trkpt>
      <trkpt lat="45.55878" lon="5.32885">
        <ele>339</ele>
        <time>2023-08-29T06:40:44Z</time>
      </trkpt>
      <trkpt lat="45.55877" lon="5.32891">
        <ele>339</ele>
        <time>2023-08-29T06:40:45Z</time>
      </trkpt>
      <trkpt lat="45.55876" lon="5.32897">
        <ele>339</ele>
        <time>2023-08-29T06:40:46Z</time>
      </trkpt>
      <trkpt lat="45.55875" lon="5.32903">
        <ele>339</ele>
        <time>2023-08-29T06:40:47Z</time>
      </trkpt>
      <trkpt lat="45.55875" lon="5.32909">
        <ele>339</ele>
        <time>2023-08-29T06:40:48Z</time>
      </trkpt>
      <trkpt lat="45.55874" lon="5.32915">
        <ele>339</ele>
        <time>2023-08-29T06:40:49Z</time>
      </trkpt>
      <trkpt lat="45.55874" lon="5.32921">
        <ele>339.2</ele>
        <time>2023-08-29T06:40:50Z</time>
      </trkpt>
      <trkpt lat="45.55873" lon="5.32927">
        <ele>339.2</ele>
        <time>2023-08-29T06:40:51Z</time>
      </trkpt>
      <trkpt lat="45.55872" lon="5.32933">
        <ele>339.2</ele>
        <time>2023-08-29T06:40:52Z</time>
      </trkpt>
      <trkpt lat="45.55871" lon="5.32938">
        <ele>339.2</ele>
        <time>2023-08-29T06:40:53Z</time>
      </trkpt>
      <trkpt lat="45.5587" lon="5.32943">
        <ele>339.2</ele>
        <time>2023-08-29T06:40:54Z</time>
      </trkpt>
      <trkpt lat="45.5587" lon="5.32949">
        <ele>339.4</ele>
        <time>2023-08-29T06:40:55Z</time>
      </trkpt>
      <trkpt lat="45.55869" lon="5.32955">
        <ele>339.4</ele>
        <time>2023-08-29T06:40:56Z</time>
      </trkpt>
      <trkpt lat="45.55868" lon="5.32961">
        <ele>339.4</ele>
        <time>2023-08-29T06:40:57Z</time>
      </trkpt>
      <trkpt lat="45.55867" lon="5.32967">
        <ele>339.4</ele>
        <time>2023-08-29T06:40:58Z</time>
      </trkpt>
      <trkpt lat="45.55867" lon="5.32973">
        <ele>339.4</ele>
        <time>2023-08-29T06:40:59Z</time>
      </trkpt>
      <trkpt lat="45.55867" lon="5.32978">
        <ele>339.4</ele>
        <time>2023-08-29T06:41:00Z</time>
      </trkpt>
      <trkpt lat="45.55866" lon="5.32984">
        <ele>339.4</ele>
        <time>2023-08-29T06:41:01Z</time>
      </trkpt>
      <trkpt lat="45.55866" lon="5.3299">
        <ele>339.4</ele>
        <time>2023-08-29T06:41:02Z</time>
      </trkpt>
      <trkpt lat="45.55866" lon="5.32997">
        <ele>339.6</ele>
        <time>2023-08-29T06:41:03Z</time>
      </trkpt>
      <trkpt lat="45.55866" lon="5.33002">
        <ele>339.6</ele>
        <time>2023-08-29T06:41:04Z</time>
      </trkpt>
      <trkpt lat="45.55865" lon="5.33008">
        <ele>339.6</ele>
        <time>2023-08-29T06:41:05Z</time>
      </trkpt>
      <trkpt lat="45.55865" lon="5.33014">
        <ele>339.6</ele>
        <time>2023-08-29T06:41:06Z</time>
      </trkpt>
      <trkpt lat="45.55864" lon="5.3302">
        <ele>339.6</ele>
        <time>2023-08-29T06:41:07Z</time>
      </trkpt>
      <trkpt lat="45.55864" lon="5.33026">
        <ele>339.6</ele>
        <time>2023-08-29T06:41:08Z</time>
      </trkpt>
      <trkpt lat="45.55864" lon="5.33032">
        <ele>339.8</ele>
        <time>2023-08-29T06:41:09Z</time>
      </trkpt>
      <trkpt lat="45.55863" lon="5.33038">
        <ele>339.8</ele>
        <time>2023-08-29T06:41:10Z</time>
      </trkpt>
      <trkpt lat="45.55863" lon="5.33044">
        <ele>339.8</ele>
        <time>2023-08-29T06:41:11Z</time>
      </trkpt>
      <trkpt lat="45.55862" lon="5.3305">
        <ele>339.8</ele>
        <time>2023-08-29T06:41:12Z</time>
      </trkpt>
      <trkpt lat="45.55862" lon="5.33056">
        <ele>339.8</ele>
        <time>2023-08-29T06:41:13Z</time>
      </trkpt>
      <trkpt lat="45.55862" lon="5.33062">
        <ele>340</ele>
        <time>2023-08-29T06:41:14Z</time>
      </trkpt>
      <trkpt lat="45.55861" lon="5.33067">
        <ele>340</ele>
        <time>2023-08-29T06:41:15Z</time>
      </trkpt>
      <trkpt lat="45.55861" lon="5.33072">
        <ele>340.2</ele>
        <time>2023-08-29T06:41:16Z</time>
      </trkpt>
      <trkpt lat="45.5586" lon="5.33078">
        <ele>340.2</ele>
        <time>2023-08-29T06:41:17Z</time>
      </trkpt>
      <trkpt lat="45.5586" lon="5.33084">
        <ele>340.2</ele>
        <time>2023-08-29T06:41:18Z</time>
      </trkpt>
      <trkpt lat="45.55859" lon="5.33089">
        <ele>340.4</ele>
        <time>2023-08-29T06:41:19Z</time>
      </trkpt>
      <trkpt lat="45.55859" lon="5.33095">
        <ele>340.4</ele>
        <time>2023-08-29T06:41:20Z</time>
      </trkpt>
      <trkpt lat="45.55858" lon="5.33101">
        <ele>340.4</ele>
        <time>2023-08-29T06:41:21Z</time>
      </trkpt>
      <trkpt lat="45.55858" lon="5.33108">
        <ele>340.4</ele>
        <time>2023-08-29T06:41:22Z</time>
      </trkpt>
      <trkpt lat="45.55858" lon="5.33114">
        <ele>340.4</ele>
        <time>2023-08-29T06:41:23Z</time>
      </trkpt>
      <trkpt lat="45.55858" lon="5.33119">
        <ele>340.4</ele>
        <time>2023-08-29T06:41:24Z</time>
      </trkpt>
      <trkpt lat="45.55858" lon="5.33126">
        <ele>340.4</ele>
        <time>2023-08-29T06:41:25Z</time>
      </trkpt>
      <trkpt lat="45.55857" lon="5.33132">
        <ele>340.2</ele>
        <time>2023-08-29T06:41:26Z</time>
      </trkpt>
      <trkpt lat="45.55857" lon="5.33138">
        <ele>340.2</ele>
        <time>2023-08-29T06:41:27Z</time>
      </trkpt>
      <trkpt lat="45.55856" lon="5.33143">
        <ele>340.4</ele>
        <time>2023-08-29T06:41:28Z</time>
      </trkpt>
      <trkpt lat="45.55856" lon="5.33149">
        <ele>340.4</ele>
        <time>2023-08-29T06:41:29Z</time>
      </trkpt>
      <trkpt lat="45.55857" lon="5.33155">
        <ele>340.4</ele>
        <time>2023-08-29T06:41:30Z</time>
      </trkpt>
      <trkpt lat="45.55857" lon="5.3316">
        <ele>340.4</ele>
        <time>2023-08-29T06:41:31Z</time>
      </trkpt>
      <trkpt lat="45.55856" lon="5.33165">
        <ele>340.8</ele>
        <time>2023-08-29T06:41:32Z</time>
      </trkpt>
      <trkpt lat="45.55856" lon="5.3317">
        <ele>340.8</ele>
        <time>2023-08-29T06:41:33Z</time>
      </trkpt>
      <trkpt lat="45.55856" lon="5.33175">
        <ele>340.8</ele>
        <time>2023-08-29T06:41:34Z</time>
      </trkpt>
      <trkpt lat="45.55855" lon="5.3318">
        <ele>341</ele>
        <time>2023-08-29T06:41:35Z</time>
      </trkpt>
      <trkpt lat="45.55855" lon="5.33185">
        <ele>341.2</ele>
        <time>2023-08-29T06:41:36Z</time>
      </trkpt>
      <trkpt lat="45.55855" lon="5.3319">
        <ele>341.4</ele>
        <time>2023-08-29T06:41:37Z</time>
      </trkpt>
      <trkpt lat="45.55855" lon="5.33195">
        <ele>341.4</ele>
        <time>2023-08-29T06:41:38Z</time>
      </trkpt>
      <trkpt lat="45.55855" lon="5.33201">
        <ele>341.6</ele>
        <time>2023-08-29T06:41:39Z</time>
      </trkpt>
      <trkpt lat="45.55855" lon="5.33206">
        <ele>341.6</ele>
        <time>2023-08-29T06:41:40Z</time>
      </trkpt>
      <trkpt lat="45.55855" lon="5.33212">
        <ele>341.6</ele>
        <time>2023-08-29T06:41:41Z</time>
      </trkpt>
      <trkpt lat="45.55855" lon="5.33217">
        <ele>341.6</ele>
        <time>2023-08-29T06:41:42Z</time>
      </trkpt>
      <trkpt lat="45.55855" lon="5.33223">
        <ele>341.8</ele>
        <time>2023-08-29T06:41:43Z</time>
      </trkpt>
      <trkpt lat="45.55856" lon="5.33228">
        <ele>341.8</ele>
        <time>2023-08-29T06:41:44Z</time>
      </trkpt>
      <trkpt lat="45.55856" lon="5.33234">
        <ele>342</ele>
        <time>2023-08-29T06:41:45Z</time>
      </trkpt>
      <trkpt lat="45.55856" lon="5.33239">
        <ele>342</ele>
        <time>2023-08-29T06:41:46Z</time>
      </trkpt>
      <trkpt lat="45.55857" lon="5.33245">
        <ele>342.2</ele>
        <time>2023-08-29T06:41:47Z</time>
      </trkpt>
      <trkpt lat="45.55857" lon="5.33251">
        <ele>342.2</ele>
        <time>2023-08-29T06:41:48Z</time>
      </trkpt>
      <trkpt lat="45.55858" lon="5.33257">
        <ele>342.2</ele>
        <time>2023-08-29T06:41:49Z</time>
      </trkpt>
      <trkpt lat="45.55858" lon="5.33263">
        <ele>342.2</ele>
        <time>2023-08-29T06:41:50Z</time>
      </trkpt>
      <trkpt lat="45.55858" lon="5.33269">
        <ele>342.2</ele>
        <time>2023-08-29T06:41:51Z</time>
      </trkpt>
      <trkpt lat="45.55859" lon="5.33276">
        <ele>342.2</ele>
        <time>2023-08-29T06:41:52Z</time>
      </trkpt>
      <trkpt lat="45.55859" lon="5.33282">
        <ele>342.2</ele>
        <time>2023-08-29T06:41:53Z</time>
      </trkpt>
      <trkpt lat="45.55859" lon="5.33287">
        <ele>342.2</ele>
        <time>2023-08-29T06:41:54Z</time>
      </trkpt>
      <trkpt lat="45.55859" lon="5.33293">
        <ele>342.2</ele>
        <time>2023-08-29T06:41:55Z</time>
      </trkpt>
      <trkpt lat="45.55859" lon="5.333">
        <ele>342</ele>
        <time>2023-08-29T06:41:56Z</time>
      </trkpt>
      <trkpt lat="45.5586" lon="5.33306">
        <ele>342</ele>
        <time>2023-08-29T06:41:57Z</time>
      </trkpt>
      <trkpt lat="45.5586" lon="5.33312">
        <ele>342</ele>
        <time>2023-08-29T06:41:58Z</time>
      </trkpt>
      <trkpt lat="45.5586" lon="5.33318">
        <ele>342</ele>
        <time>2023-08-29T06:41:59Z</time>
      </trkpt>
      <trkpt lat="45.55861" lon="5.33323">
        <ele>342</ele>
        <time>2023-08-29T06:42:00Z</time>
      </trkpt>
      <trkpt lat="45.55862" lon="5.33329">
        <ele>342</ele>
        <time>2023-08-29T06:42:01Z</time>
      </trkpt>
      <trkpt lat="45.55862" lon="5.33335">
        <ele>342</ele>
        <time>2023-08-29T06:42:02Z</time>
      </trkpt>
      <trkpt lat="45.55863" lon="5.33341">
        <ele>342</ele>
        <time>2023-08-29T06:42:03Z</time>
      </trkpt>
      <trkpt lat="45.55864" lon="5.33347">
        <ele>342</ele>
        <time>2023-08-29T06:42:04Z</time>
      </trkpt>
      <trkpt lat="45.55865" lon="5.33353">
        <ele>342</ele>
        <time>2023-08-29T06:42:05Z</time>
      </trkpt>
      <trkpt lat="45.55865" lon="5.33359">
        <ele>342</ele>
        <time>2023-08-29T06:42:06Z</time>
      </trkpt>
      <trkpt lat="45.55866" lon="5.33366">
        <ele>342</ele>
        <time>2023-08-29T06:42:07Z</time>
      </trkpt>
      <trkpt lat="45.55866" lon="5.33373">
        <ele>342</ele>
        <time>2023-08-29T06:42:08Z</time>
      </trkpt>
      <trkpt lat="45.55865" lon="5.3338">
        <ele>342</ele>
        <time>2023-08-29T06:42:09Z</time>
      </trkpt>
      <trkpt lat="45.55865" lon="5.33386">
        <ele>342</ele>
        <time>2023-08-29T06:42:10Z</time>
      </trkpt>
      <trkpt lat="45.55865" lon="5.33394">
        <ele>342</ele>
        <time>2023-08-29T06:42:11Z</time>
      </trkpt>
      <trkpt lat="45.55864" lon="5.334">
        <ele>341.8</ele>
        <time>2023-08-29T06:42:12Z</time>
      </trkpt>
      <trkpt lat="45.55864" lon="5.33408">
        <ele>341.8</ele>
        <time>2023-08-29T06:42:13Z</time>
      </trkpt>
      <trkpt lat="45.55864" lon="5.33416">
        <ele>341.8</ele>
        <time>2023-08-29T06:42:14Z</time>
      </trkpt>
      <trkpt lat="45.55864" lon="5.33425">
        <ele>341.6</ele>
        <time>2023-08-29T06:42:15Z</time>
      </trkpt>
      <trkpt lat="45.55864" lon="5.33433">
        <ele>341.6</ele>
        <time>2023-08-29T06:42:16Z</time>
      </trkpt>
      <trkpt lat="45.55864" lon="5.33441">
        <ele>341.4</ele>
        <time>2023-08-29T06:42:17Z</time>
      </trkpt>
      <trkpt lat="45.55863" lon="5.3345">
        <ele>341.2</ele>
        <time>2023-08-29T06:42:18Z</time>
      </trkpt>
      <trkpt lat="45.55863" lon="5.33459">
        <ele>341.2</ele>
        <time>2023-08-29T06:42:19Z</time>
      </trkpt>
      <trkpt lat="45.55863" lon="5.33468">
        <ele>340.8</ele>
        <time>2023-08-29T06:42:20Z</time>
      </trkpt>
      <trkpt lat="45.55862" lon="5.33478">
        <ele>340.6</ele>
        <time>2023-08-29T06:42:21Z</time>
      </trkpt>
      <trkpt lat="45.55861" lon="5.33487">
        <ele>340.6</ele>
        <time>2023-08-29T06:42:22Z</time>
      </trkpt>
      <trkpt lat="45.5586" lon="5.33496">
        <ele>340</ele>
        <time>2023-08-29T06:42:23Z</time>
      </trkpt>
      <trkpt lat="45.55858" lon="5.33505">
        <ele>339.8</ele>
        <time>2023-08-29T06:42:24Z</time>
      </trkpt>
      <trkpt lat="45.55857" lon="5.33513">
        <ele>339.6</ele>
        <time>2023-08-29T06:42:25Z</time>
      </trkpt>
      <trkpt lat="45.55856" lon="5.33521">
        <ele>339.2</ele>
        <time>2023-08-29T06:42:26Z</time>
      </trkpt>
      <trkpt lat="45.55855" lon="5.3353">
        <ele>339</ele>
        <time>2023-08-29T06:42:27Z</time>
      </trkpt>
      <trkpt lat="45.55854" lon="5.33538">
        <ele>338.6</ele>
        <time>2023-08-29T06:42:28Z</time>
      </trkpt>
      <trkpt lat="45.55854" lon="5.33548">
        <ele>338.4</ele>
        <time>2023-08-29T06:42:29Z</time>
      </trkpt>
      <trkpt lat="45.55852" lon="5.33557">
        <ele>338.2</ele>
        <time>2023-08-29T06:42:30Z</time>
      </trkpt>
      <trkpt lat="45.55851" lon="5.33566">
        <ele>338.2</ele>
        <time>2023-08-29T06:42:31Z</time>
      </trkpt>
      <trkpt lat="45.55849" lon="5.33575">
        <ele>338.2</ele>
        <time>2023-08-29T06:42:32Z</time>
      </trkpt>
      <trkpt lat="45.55846" lon="5.33583">
        <ele>338</ele>
        <time>2023-08-29T06:42:33Z</time>
      </trkpt>
      <trkpt lat="45.55843" lon="5.33592">
        <ele>338</ele>
        <time>2023-08-29T06:42:34Z</time>
      </trkpt>
      <trkpt lat="45.5584" lon="5.33601">
        <ele>338</ele>
        <time>2023-08-29T06:42:35Z</time>
      </trkpt>
      <trkpt lat="45.55838" lon="5.3361">
        <ele>338</ele>
        <time>2023-08-29T06:42:36Z</time>
      </trkpt>
      <trkpt lat="45.55835" lon="5.33619">
        <ele>338</ele>
        <time>2023-08-29T06:42:37Z</time>
      </trkpt>
      <trkpt lat="45.55832" lon="5.33628">
        <ele>337.6</ele>
        <time>2023-08-29T06:42:38Z</time>
      </trkpt>
      <trkpt lat="45.5583" lon="5.33637">
        <ele>337.4</ele>
        <time>2023-08-29T06:42:39Z</time>
      </trkpt>
      <trkpt lat="45.55827" lon="5.33646">
        <ele>337.4</ele>
        <time>2023-08-29T06:42:40Z</time>
      </trkpt>
      <trkpt lat="45.55825" lon="5.33654">
        <ele>337.2</ele>
        <time>2023-08-29T06:42:41Z</time>
      </trkpt>
      <trkpt lat="45.55822" lon="5.33662">
        <ele>337.2</ele>
        <time>2023-08-29T06:42:42Z</time>
      </trkpt>
      <trkpt lat="45.5582" lon="5.3367">
        <ele>337</ele>
        <time>2023-08-29T06:42:43Z</time>
      </trkpt>
      <trkpt lat="45.55818" lon="5.33678">
        <ele>337</ele>
        <time>2023-08-29T06:42:44Z</time>
      </trkpt>
      <trkpt lat="45.55816" lon="5.33686">
        <ele>337</ele>
        <time>2023-08-29T06:42:45Z</time>
      </trkpt>
      <trkpt lat="45.55814" lon="5.33694">
        <ele>337</ele>
        <time>2023-08-29T06:42:46Z</time>
      </trkpt>
      <trkpt lat="45.55812" lon="5.33701">
        <ele>337</ele>
        <time>2023-08-29T06:42:47Z</time>
      </trkpt>
      <trkpt lat="45.5581" lon="5.33708">
        <ele>337</ele>
        <time>2023-08-29T06:42:48Z</time>
      </trkpt>
      <trkpt lat="45.55808" lon="5.33716">
        <ele>337</ele>
        <time>2023-08-29T06:42:49Z</time>
      </trkpt>
      <trkpt lat="45.55806" lon="5.33723">
        <ele>337.2</ele>
        <time>2023-08-29T06:42:50Z</time>
      </trkpt>
      <trkpt lat="45.55804" lon="5.3373">
        <ele>337.2</ele>
        <time>2023-08-29T06:42:51Z</time>
      </trkpt>
      <trkpt lat="45.55802" lon="5.33737">
        <ele>337.2</ele>
        <time>2023-08-29T06:42:52Z</time>
      </trkpt>
      <trkpt lat="45.558" lon="5.33745">
        <ele>337.4</ele>
        <time>2023-08-29T06:42:53Z</time>
      </trkpt>
      <trkpt lat="45.55799" lon="5.33752">
        <ele>337.4</ele>
        <time>2023-08-29T06:42:54Z</time>
      </trkpt>
      <trkpt lat="45.55797" lon="5.33759">
        <ele>337.4</ele>
        <time>2023-08-29T06:42:55Z</time>
      </trkpt>
      <trkpt lat="45.55796" lon="5.33767">
        <ele>337.4</ele>
        <time>2023-08-29T06:42:56Z</time>
      </trkpt>
      <trkpt lat="45.55794" lon="5.33774">
        <ele>337.4</ele>
        <time>2023-08-29T06:42:57Z</time>
      </trkpt>
      <trkpt lat="45.55792" lon="5.33782">
        <ele>337</ele>
        <time>2023-08-29T06:42:58Z</time>
      </trkpt>
      <trkpt lat="45.5579" lon="5.33789">
        <ele>337</ele>
        <time>2023-08-29T06:42:59Z</time>
      </trkpt>
      <trkpt lat="45.55788" lon="5.33798">
        <ele>336.6</ele>
        <time>2023-08-29T06:43:00Z</time>
      </trkpt>
      <trkpt lat="45.55787" lon="5.33806">
        <ele>336.6</ele>
        <time>2023-08-29T06:43:01Z</time>
      </trkpt>
      <trkpt lat="45.55785" lon="5.33814">
        <ele>336.2</ele>
        <time>2023-08-29T06:43:02Z</time>
      </trkpt>
      <trkpt lat="45.55783" lon="5.33822">
        <ele>336.2</ele>
        <time>2023-08-29T06:43:03Z</time>
      </trkpt>
      <trkpt lat="45.5578" lon="5.3383">
        <ele>336.2</ele>
        <time>2023-08-29T06:43:04Z</time>
      </trkpt>
      <trkpt lat="45.55779" lon="5.33838">
        <ele>335.6</ele>
        <time>2023-08-29T06:43:05Z</time>
      </trkpt>
      <trkpt lat="45.55777" lon="5.33846">
        <ele>335.6</ele>
        <time>2023-08-29T06:43:06Z</time>
      </trkpt>
      <trkpt lat="45.55776" lon="5.33854">
        <ele>335.4</ele>
        <time>2023-08-29T06:43:07Z</time>
      </trkpt>
      <trkpt lat="45.55774" lon="5.33862">
        <ele>335.4</ele>
        <time>2023-08-29T06:43:08Z</time>
      </trkpt>
      <trkpt lat="45.55772" lon="5.33871">
        <ele>335.2</ele>
        <time>2023-08-29T06:43:09Z</time>
      </trkpt>
      <trkpt lat="45.5577" lon="5.3388">
        <ele>335.2</ele>
        <time>2023-08-29T06:43:10Z</time>
      </trkpt>
      <trkpt lat="45.55768" lon="5.33889">
        <ele>335.2</ele>
        <time>2023-08-29T06:43:11Z</time>
      </trkpt>
      <trkpt lat="45.55767" lon="5.33898">
        <ele>335.2</ele>
        <time>2023-08-29T06:43:12Z</time>
      </trkpt>
      <trkpt lat="45.55767" lon="5.33907">
        <ele>335</ele>
        <time>2023-08-29T06:43:13Z</time>
      </trkpt>
      <trkpt lat="45.55766" lon="5.33916">
        <ele>334.8</ele>
        <time>2023-08-29T06:43:14Z</time>
      </trkpt>
      <trkpt lat="45.55766" lon="5.33926">
        <ele>334.6</ele>
        <time>2023-08-29T06:43:15Z</time>
      </trkpt>
      <trkpt lat="45.55765" lon="5.33936">
        <ele>334.2</ele>
        <time>2023-08-29T06:43:16Z</time>
      </trkpt>
      <trkpt lat="45.55765" lon="5.33947">
        <ele>334</ele>
        <time>2023-08-29T06:43:17Z</time>
      </trkpt>
      <trkpt lat="45.55764" lon="5.33958">
        <ele>333.8</ele>
        <time>2023-08-29T06:43:18Z</time>
      </trkpt>
      <trkpt lat="45.55764" lon="5.33969">
        <ele>333.8</ele>
        <time>2023-08-29T06:43:19Z</time>
      </trkpt>
      <trkpt lat="45.55763" lon="5.3398">
        <ele>332.4</ele>
        <time>2023-08-29T06:43:20Z</time>
      </trkpt>
      <trkpt lat="45.55762" lon="5.33991">
        <ele>332.4</ele>
        <time>2023-08-29T06:43:21Z</time>
      </trkpt>
      <trkpt lat="45.55762" lon="5.34002">
        <ele>332</ele>
        <time>2023-08-29T06:43:22Z</time>
      </trkpt>
      <trkpt lat="45.55761" lon="5.34014">
        <ele>331.4</ele>
        <time>2023-08-29T06:43:23Z</time>
      </trkpt>
      <trkpt lat="45.5576" lon="5.34026">
        <ele>331</ele>
        <time>2023-08-29T06:43:24Z</time>
      </trkpt>
      <trkpt lat="45.55759" lon="5.34038">
        <ele>331</ele>
        <time>2023-08-29T06:43:25Z</time>
      </trkpt>
      <trkpt lat="45.55758" lon="5.3405">
        <ele>330.8</ele>
        <time>2023-08-29T06:43:26Z</time>
      </trkpt>
      <trkpt lat="45.55757" lon="5.34063">
        <ele>330.6</ele>
        <time>2023-08-29T06:43:27Z</time>
      </trkpt>
      <trkpt lat="45.55756" lon="5.34076">
        <ele>330</ele>
        <time>2023-08-29T06:43:28Z</time>
      </trkpt>
      <trkpt lat="45.55755" lon="5.34088">
        <ele>329.2</ele>
        <time>2023-08-29T06:43:29Z</time>
      </trkpt>
      <trkpt lat="45.55754" lon="5.34101">
        <ele>328.8</ele>
        <time>2023-08-29T06:43:30Z</time>
      </trkpt>
      <trkpt lat="45.55754" lon="5.34113">
        <ele>328</ele>
        <time>2023-08-29T06:43:31Z</time>
      </trkpt>
      <trkpt lat="45.55754" lon="5.34124">
        <ele>327.6</ele>
        <time>2023-08-29T06:43:32Z</time>
      </trkpt>
      <trkpt lat="45.55755" lon="5.34134">
        <ele>327.4</ele>
        <time>2023-08-29T06:43:33Z</time>
      </trkpt>
      <trkpt lat="45.55756" lon="5.34146">
        <ele>327.2</ele>
        <time>2023-08-29T06:43:34Z</time>
      </trkpt>
      <trkpt lat="45.55758" lon="5.34157">
        <ele>327.2</ele>
        <time>2023-08-29T06:43:35Z</time>
      </trkpt>
      <trkpt lat="45.5576" lon="5.34169">
        <ele>326.8</ele>
        <time>2023-08-29T06:43:36Z</time>
      </trkpt>
      <trkpt lat="45.55762" lon="5.34181">
        <ele>326.8</ele>
        <time>2023-08-29T06:43:37Z</time>
      </trkpt>
      <trkpt lat="45.55764" lon="5.34194">
        <ele>326.8</ele>
        <time>2023-08-29T06:43:38Z</time>
      </trkpt>
      <trkpt lat="45.55767" lon="5.34207">
        <ele>326</ele>
        <time>2023-08-29T06:43:39Z</time>
      </trkpt>
      <trkpt lat="45.55769" lon="5.34221">
        <ele>325.6</ele>
        <time>2023-08-29T06:43:40Z</time>
      </trkpt>
      <trkpt lat="45.55771" lon="5.34234">
        <ele>324.6</ele>
        <time>2023-08-29T06:43:41Z</time>
      </trkpt>
      <trkpt lat="45.55771" lon="5.34248">
        <ele>323.2</ele>
        <time>2023-08-29T06:43:42Z</time>
      </trkpt>
      <trkpt lat="45.55771" lon="5.34262">
        <ele>322.2</ele>
        <time>2023-08-29T06:43:43Z</time>
      </trkpt>
      <trkpt lat="45.5577" lon="5.34276">
        <ele>321</ele>
        <time>2023-08-29T06:43:44Z</time>
      </trkpt>
      <trkpt lat="45.5577" lon="5.3429">
        <ele>321</ele>
        <time>2023-08-29T06:43:45Z</time>
      </trkpt>
      <trkpt lat="45.55768" lon="5.34304">
        <ele>320</ele>
        <time>2023-08-29T06:43:46Z</time>
      </trkpt>
      <trkpt lat="45.55767" lon="5.34317">
        <ele>319.2</ele>
        <time>2023-08-29T06:43:47Z</time>
      </trkpt>
      <trkpt lat="45.55767" lon="5.3433">
        <ele>318.2</ele>
        <time>2023-08-29T06:43:48Z</time>
      </trkpt>
      <trkpt lat="45.55767" lon="5.34341">
        <ele>318</ele>
        <time>2023-08-29T06:43:49Z</time>
      </trkpt>
      <trkpt lat="45.55767" lon="5.34352">
        <ele>318</ele>
        <time>2023-08-29T06:43:50Z</time>
      </trkpt>
      <trkpt lat="45.55768" lon="5.34363">
        <ele>318</ele>
        <time>2023-08-29T06:43:51Z</time>
      </trkpt>
      <trkpt lat="45.55769" lon="5.34373">
        <ele>318</ele>
        <time>2023-08-29T06:43:52Z</time>
      </trkpt>
      <trkpt lat="45.5577" lon="5.34383">
        <ele>318.6</ele>
        <time>2023-08-29T06:43:53Z</time>
      </trkpt>
      <trkpt lat="45.55771" lon="5.34392">
        <ele>318.8</ele>
        <time>2023-08-29T06:43:54Z</time>
      </trkpt>
      <trkpt lat="45.55772" lon="5.34401">
        <ele>318.8</ele>
        <time>2023-08-29T06:43:55Z</time>
      </trkpt>
      <trkpt lat="45.55773" lon="5.34409">
        <ele>319</ele>
        <time>2023-08-29T06:43:56Z</time>
      </trkpt>
      <trkpt lat="45.55774" lon="5.34417">
        <ele>319.2</ele>
        <time>2023-08-29T06:43:57Z</time>
      </trkpt>
      <trkpt lat="45.55774" lon="5.34424">
        <ele>319.4</ele>
        <time>2023-08-29T06:43:58Z</time>
      </trkpt>
      <trkpt lat="45.55774" lon="5.34432">
        <ele>319.4</ele>
        <time>2023-08-29T06:43:59Z</time>
      </trkpt>
      <trkpt lat="45.55774" lon="5.3444">
        <ele>319.8</ele>
        <time>2023-08-29T06:44:00Z</time>
      </trkpt>
      <trkpt lat="45.55773" lon="5.34447">
        <ele>320.2</ele>
        <time>2023-08-29T06:44:01Z</time>
      </trkpt>
      <trkpt lat="45.55772" lon="5.34452">
        <ele>320.2</ele>
        <time>2023-08-29T06:44:02Z</time>
      </trkpt>
      <trkpt lat="45.55769" lon="5.34459">
        <ele>320.2</ele>
        <time>2023-08-29T06:44:03Z</time>
      </trkpt>
      <trkpt lat="45.55767" lon="5.34464">
        <ele>320.2</ele>
        <time>2023-08-29T06:44:04Z</time>
      </trkpt>
      <trkpt lat="45.55764" lon="5.34469">
        <ele>320.2</ele>
        <time>2023-08-29T06:44:05Z</time>
      </trkpt>
      <trkpt lat="45.55762" lon="5.34476">
        <ele>320.2</ele>
        <time>2023-08-29T06:44:06Z</time>
      </trkpt>
      <trkpt lat="45.5576" lon="5.34485">
        <ele>320.2</ele>
        <time>2023-08-29T06:44:07Z</time>
      </trkpt>
      <trkpt lat="45.55758" lon="5.34494">
        <ele>320</ele>
        <time>2023-08-29T06:44:08Z</time>
      </trkpt>
      <trkpt lat="45.55756" lon="5.34504">
        <ele>319.6</ele>
        <time>2023-08-29T06:44:09Z</time>
      </trkpt>
      <trkpt lat="45.55754" lon="5.34515">
        <ele>319</ele>
        <time>2023-08-29T06:44:10Z</time>
      </trkpt>
      <trkpt lat="45.55751" lon="5.34526">
        <ele>318</ele>
        <time>2023-08-29T06:44:11Z</time>
      </trkpt>
      <trkpt lat="45.55748" lon="5.34538">
        <ele>316.8</ele>
        <time>2023-08-29T06:44:12Z</time>
      </trkpt>
      <trkpt lat="45.55744" lon="5.3455">
        <ele>315.4</ele>
        <time>2023-08-29T06:44:13Z</time>
      </trkpt>
      <trkpt lat="45.5574" lon="5.34564">
        <ele>314.4</ele>
        <time>2023-08-29T06:44:14Z</time>
      </trkpt>
      <trkpt lat="45.55735" lon="5.34578">
        <ele>313.4</ele>
        <time>2023-08-29T06:44:15Z</time>
      </trkpt>
      <trkpt lat="45.5573" lon="5.34591">
        <ele>312.2</ele>
        <time>2023-08-29T06:44:16Z</time>
      </trkpt>
      <trkpt lat="45.55724" lon="5.34606">
        <ele>311.2</ele>
        <time>2023-08-29T06:44:17Z</time>
      </trkpt>
      <trkpt lat="45.55718" lon="5.34619">
        <ele>310</ele>
        <time>2023-08-29T06:44:18Z</time>
      </trkpt>
      <trkpt lat="45.55711" lon="5.34633">
        <ele>308.4</ele>
        <time>2023-08-29T06:44:19Z</time>
      </trkpt>
      <trkpt lat="45.55705" lon="5.34648">
        <ele>307.4</ele>
        <time>2023-08-29T06:44:20Z</time>
      </trkpt>
      <trkpt lat="45.55698" lon="5.34662">
        <ele>307.4</ele>
        <time>2023-08-29T06:44:21Z</time>
      </trkpt>
      <trkpt lat="45.55692" lon="5.34677">
        <ele>305.6</ele>
        <time>2023-08-29T06:44:22Z</time>
      </trkpt>
      <trkpt lat="45.55685" lon="5.34692">
        <ele>304.6</ele>
        <time>2023-08-29T06:44:23Z</time>
      </trkpt>
      <trkpt lat="45.55679" lon="5.34706">
        <ele>303.4</ele>
        <time>2023-08-29T06:44:24Z</time>
      </trkpt>
      <trkpt lat="45.55674" lon="5.3472">
        <ele>302.6</ele>
        <time>2023-08-29T06:44:25Z</time>
      </trkpt>
      <trkpt lat="45.55668" lon="5.34734">
        <ele>301.8</ele>
        <time>2023-08-29T06:44:26Z</time>
      </trkpt>
      <trkpt lat="45.55663" lon="5.34748">
        <ele>301.6</ele>
        <time>2023-08-29T06:44:27Z</time>
      </trkpt>
      <trkpt lat="45.55657" lon="5.34761">
        <ele>301.2</ele>
        <time>2023-08-29T06:44:28Z</time>
      </trkpt>
      <trkpt lat="45.55653" lon="5.34774">
        <ele>301</ele>
        <time>2023-08-29T06:44:29Z</time>
      </trkpt>
      <trkpt lat="45.55648" lon="5.34787">
        <ele>301</ele>
        <time>2023-08-29T06:44:30Z</time>
      </trkpt>
      <trkpt lat="45.55644" lon="5.34799">
        <ele>300.8</ele>
        <time>2023-08-29T06:44:31Z</time>
      </trkpt>
      <trkpt lat="45.55639" lon="5.3481">
        <ele>300.8</ele>
        <time>2023-08-29T06:44:32Z</time>
      </trkpt>
      <trkpt lat="45.55634" lon="5.34821">
        <ele>300.8</ele>
        <time>2023-08-29T06:44:33Z</time>
      </trkpt>
      <trkpt lat="45.55629" lon="5.34832">
        <ele>301</ele>
        <time>2023-08-29T06:44:34Z</time>
      </trkpt>
      <trkpt lat="45.55625" lon="5.34841">
        <ele>301</ele>
        <time>2023-08-29T06:44:35Z</time>
      </trkpt>
      <trkpt lat="45.55622" lon="5.3485">
        <ele>301.2</ele>
        <time>2023-08-29T06:44:36Z</time>
      </trkpt>
      <trkpt lat="45.55618" lon="5.34859">
        <ele>301.6</ele>
        <time>2023-08-29T06:44:37Z</time>
      </trkpt>
      <trkpt lat="45.55615" lon="5.34867">
        <ele>301.8</ele>
        <time>2023-08-29T06:44:38Z</time>
      </trkpt>
      <trkpt lat="45.55611" lon="5.34876">
        <ele>301.8</ele>
        <time>2023-08-29T06:44:39Z</time>
      </trkpt>
      <trkpt lat="45.55608" lon="5.34884">
        <ele>302</ele>
        <time>2023-08-29T06:44:40Z</time>
      </trkpt>
      <trkpt lat="45.55605" lon="5.34891">
        <ele>302.4</ele>
        <time>2023-08-29T06:44:41Z</time>
      </trkpt>
      <trkpt lat="45.55602" lon="5.34898">
        <ele>302.8</ele>
        <time>2023-08-29T06:44:42Z</time>
      </trkpt>
      <trkpt lat="45.55599" lon="5.34905">
        <ele>303.4</ele>
        <time>2023-08-29T06:44:43Z</time>
      </trkpt>
      <trkpt lat="45.55597" lon="5.34912">
        <ele>303.8</ele>
        <time>2023-08-29T06:44:44Z</time>
      </trkpt>
      <trkpt lat="45.55594" lon="5.34919">
        <ele>304.4</ele>
        <time>2023-08-29T06:44:45Z</time>
      </trkpt>
      <trkpt lat="45.55592" lon="5.34926">
        <ele>304.8</ele>
        <time>2023-08-29T06:44:46Z</time>
      </trkpt>
      <trkpt lat="45.5559" lon="5.34932">
        <ele>305</ele>
        <time>2023-08-29T06:44:47Z</time>
      </trkpt>
      <trkpt lat="45.55588" lon="5.34938">
        <ele>305.2</ele>
        <time>2023-08-29T06:44:48Z</time>
      </trkpt>
      <trkpt lat="45.55585" lon="5.34943">
        <ele>305.6</ele>
        <time>2023-08-29T06:44:49Z</time>
      </trkpt>
      <trkpt lat="45.55582" lon="5.34949">
        <ele>305.8</ele>
        <time>2023-08-29T06:44:50Z</time>
      </trkpt>
      <trkpt lat="45.5558" lon="5.34955">
        <ele>306</ele>
        <time>2023-08-29T06:44:51Z</time>
      </trkpt>
      <trkpt lat="45.55577" lon="5.34961">
        <ele>306.2</ele>
        <time>2023-08-29T06:44:52Z</time>
      </trkpt>
      <trkpt lat="45.55575" lon="5.34967">
        <ele>306.6</ele>
        <time>2023-08-29T06:44:53Z</time>
      </trkpt>
      <trkpt lat="45.55572" lon="5.34973">
        <ele>306.6</ele>
        <time>2023-08-29T06:44:54Z</time>
      </trkpt>
      <trkpt lat="45.5557" lon="5.34978">
        <ele>306.8</ele>
        <time>2023-08-29T06:44:55Z</time>
      </trkpt>
      <trkpt lat="45.55569" lon="5.34984">
        <ele>306.8</ele>
        <time>2023-08-29T06:44:56Z</time>
      </trkpt>
      <trkpt lat="45.55567" lon="5.3499">
        <ele>306.8</ele>
        <time>2023-08-29T06:44:57Z</time>
      </trkpt>
      <trkpt lat="45.55565" lon="5.34997">
        <ele>307</ele>
        <time>2023-08-29T06:44:58Z</time>
      </trkpt>
      <trkpt lat="45.55564" lon="5.35004">
        <ele>307.4</ele>
        <time>2023-08-29T06:44:59Z</time>
      </trkpt>
      <trkpt lat="45.55563" lon="5.35009">
        <ele>307.4</ele>
        <time>2023-08-29T06:45:00Z</time>
      </trkpt>
      <trkpt lat="45.55562" lon="5.35016">
        <ele>307.8</ele>
        <time>2023-08-29T06:45:01Z</time>
      </trkpt>
      <trkpt lat="45.55561" lon="5.35022">
        <ele>308</ele>
        <time>2023-08-29T06:45:02Z</time>
      </trkpt>
      <trkpt lat="45.5556" lon="5.35027">
        <ele>308.2</ele>
        <time>2023-08-29T06:45:03Z</time>
      </trkpt>
      <trkpt lat="45.55559" lon="5.35033">
        <ele>308.4</ele>
        <time>2023-08-29T06:45:04Z</time>
      </trkpt>
      <trkpt lat="45.55557" lon="5.35039">
        <ele>308.6</ele>
        <time>2023-08-29T06:45:05Z</time>
      </trkpt>
      <trkpt lat="45.55555" lon="5.35045">
        <ele>308.6</ele>
        <time>2023-08-29T06:45:06Z</time>
      </trkpt>
      <trkpt lat="45.55553" lon="5.3505">
        <ele>309</ele>
        <time>2023-08-29T06:45:07Z</time>
      </trkpt>
      <trkpt lat="45.55551" lon="5.35056">
        <ele>309</ele>
        <time>2023-08-29T06:45:08Z</time>
      </trkpt>
      <trkpt lat="45.55549" lon="5.35063">
        <ele>309.2</ele>
        <time>2023-08-29T06:45:09Z</time>
      </trkpt>
      <trkpt lat="45.55547" lon="5.3507">
        <ele>309.4</ele>
        <time>2023-08-29T06:45:10Z</time>
      </trkpt>
      <trkpt lat="45.55545" lon="5.35076">
        <ele>309.4</ele>
        <time>2023-08-29T06:45:11Z</time>
      </trkpt>
      <trkpt lat="45.55544" lon="5.35084">
        <ele>309.6</ele>
        <time>2023-08-29T06:45:12Z</time>
      </trkpt>
      <trkpt lat="45.55543" lon="5.3509">
        <ele>309.6</ele>
        <time>2023-08-29T06:45:13Z</time>
      </trkpt>
      <trkpt lat="45.55542" lon="5.35097">
        <ele>309.6</ele>
        <time>2023-08-29T06:45:14Z</time>
      </trkpt>
      <trkpt lat="45.55541" lon="5.35104">
        <ele>309.6</ele>
        <time>2023-08-29T06:45:15Z</time>
      </trkpt>
      <trkpt lat="45.5554" lon="5.35112">
        <ele>309.6</ele>
        <time>2023-08-29T06:45:16Z</time>
      </trkpt>
      <trkpt lat="45.55538" lon="5.35119">
        <ele>309.6</ele>
        <time>2023-08-29T06:45:17Z</time>
      </trkpt>
      <trkpt lat="45.55537" lon="5.35126">
        <ele>309.6</ele>
        <time>2023-08-29T06:45:18Z</time>
      </trkpt>
      <trkpt lat="45.55536" lon="5.35133">
        <ele>309.6</ele>
        <time>2023-08-29T06:45:19Z</time>
      </trkpt>
      <trkpt lat="45.55535" lon="5.35141">
        <ele>309.6</ele>
        <time>2023-08-29T06:45:20Z</time>
      </trkpt>
      <trkpt lat="45.55533" lon="5.35148">
        <ele>309.6</ele>
        <time>2023-08-29T06:45:21Z</time>
      </trkpt>
      <trkpt lat="45.55532" lon="5.35155">
        <ele>309.6</ele>
        <time>2023-08-29T06:45:22Z</time>
      </trkpt>
      <trkpt lat="45.5553" lon="5.35163">
        <ele>309.6</ele>
        <time>2023-08-29T06:45:23Z</time>
      </trkpt>
      <trkpt lat="45.55529" lon="5.3517">
        <ele>309.6</ele>
        <time>2023-08-29T06:45:24Z</time>
      </trkpt>
      <trkpt lat="45.55527" lon="5.35178">
        <ele>309.6</ele>
        <time>2023-08-29T06:45:25Z</time>
      </trkpt>
      <trkpt lat="45.55526" lon="5.35185">
        <ele>309.4</ele>
        <time>2023-08-29T06:45:26Z</time>
      </trkpt>
      <trkpt lat="45.55524" lon="5.35193">
        <ele>309.4</ele>
        <time>2023-08-29T06:45:27Z</time>
      </trkpt>
      <trkpt lat="45.55523" lon="5.352">
        <ele>309.4</ele>
        <time>2023-08-29T06:45:28Z</time>
      </trkpt>
      <trkpt lat="45.55522" lon="5.35208">
        <ele>309.2</ele>
        <time>2023-08-29T06:45:29Z</time>
      </trkpt>
      <trkpt lat="45.55521" lon="5.35216">
        <ele>309.2</ele>
        <time>2023-08-29T06:45:30Z</time>
      </trkpt>
      <trkpt lat="45.55519" lon="5.35224">
        <ele>309</ele>
        <time>2023-08-29T06:45:31Z</time>
      </trkpt>
      <trkpt lat="45.55518" lon="5.35232">
        <ele>309</ele>
        <time>2023-08-29T06:45:32Z</time>
      </trkpt>
      <trkpt lat="45.55517" lon="5.3524">
        <ele>309</ele>
        <time>2023-08-29T06:45:33Z</time>
      </trkpt>
      <trkpt lat="45.55516" lon="5.35247">
        <ele>309</ele>
        <time>2023-08-29T06:45:34Z</time>
      </trkpt>
      <trkpt lat="45.55514" lon="5.35255">
        <ele>309</ele>
        <time>2023-08-29T06:45:35Z</time>
      </trkpt>
      <trkpt lat="45.55513" lon="5.35263">
        <ele>309</ele>
        <time>2023-08-29T06:45:36Z</time>
      </trkpt>
      <trkpt lat="45.55512" lon="5.35272">
        <ele>309</ele>
        <time>2023-08-29T06:45:37Z</time>
      </trkpt>
      <trkpt lat="45.5551" lon="5.35281">
        <ele>308.8</ele>
        <time>2023-08-29T06:45:38Z</time>
      </trkpt>
      <trkpt lat="45.55509" lon="5.35289">
        <ele>308.8</ele>
        <time>2023-08-29T06:45:39Z</time>
      </trkpt>
      <trkpt lat="45.55508" lon="5.35298">
        <ele>308.6</ele>
        <time>2023-08-29T06:45:40Z</time>
      </trkpt>
      <trkpt lat="45.55507" lon="5.35306">
        <ele>308.4</ele>
        <time>2023-08-29T06:45:41Z</time>
      </trkpt>
      <trkpt lat="45.55505" lon="5.35314">
        <ele>308.4</ele>
        <time>2023-08-29T06:45:42Z</time>
      </trkpt>
      <trkpt lat="45.55504" lon="5.35322">
        <ele>308.4</ele>
        <time>2023-08-29T06:45:43Z</time>
      </trkpt>
      <trkpt lat="45.55503" lon="5.35331">
        <ele>308.4</ele>
        <time>2023-08-29T06:45:44Z</time>
      </trkpt>
      <trkpt lat="45.55501" lon="5.35339">
        <ele>308.2</ele>
        <time>2023-08-29T06:45:45Z</time>
      </trkpt>
      <trkpt lat="45.555" lon="5.35347">
        <ele>308.2</ele>
        <time>2023-08-29T06:45:46Z</time>
      </trkpt>
      <trkpt lat="45.55498" lon="5.35356">
        <ele>308</ele>
        <time>2023-08-29T06:45:47Z</time>
      </trkpt>
      <trkpt lat="45.55497" lon="5.35363">
        <ele>308</ele>
        <time>2023-08-29T06:45:48Z</time>
      </trkpt>
      <trkpt lat="45.55496" lon="5.35371">
        <ele>308</ele>
        <time>2023-08-29T06:45:49Z</time>
      </trkpt>
      <trkpt lat="45.55495" lon="5.35379">
        <ele>307.8</ele>
        <time>2023-08-29T06:45:50Z</time>
      </trkpt>
      <trkpt lat="45.55494" lon="5.35387">
        <ele>307.8</ele>
        <time>2023-08-29T06:45:51Z</time>
      </trkpt>
      <trkpt lat="45.55492" lon="5.35395">
        <ele>307.8</ele>
        <time>2023-08-29T06:45:52Z</time>
      </trkpt>
      <trkpt lat="45.55491" lon="5.35403">
        <ele>307.8</ele>
        <time>2023-08-29T06:45:53Z</time>
      </trkpt>
      <trkpt lat="45.5549" lon="5.3541">
        <ele>307.8</ele>
        <time>2023-08-29T06:45:54Z</time>
      </trkpt>
      <trkpt lat="45.55488" lon="5.35418">
        <ele>307.8</ele>
        <time>2023-08-29T06:45:55Z</time>
      </trkpt>
      <trkpt lat="45.55487" lon="5.35426">
        <ele>307.8</ele>
        <time>2023-08-29T06:45:56Z</time>
      </trkpt>
      <trkpt lat="45.55486" lon="5.35434">
        <ele>307.8</ele>
        <time>2023-08-29T06:45:57Z</time>
      </trkpt>
      <trkpt lat="45.55484" lon="5.35442">
        <ele>307.8</ele>
        <time>2023-08-29T06:45:58Z</time>
      </trkpt>
      <trkpt lat="45.55483" lon="5.3545">
        <ele>307.8</ele>
        <time>2023-08-29T06:45:59Z</time>
      </trkpt>
      <trkpt lat="45.55482" lon="5.35457">
        <ele>307.8</ele>
        <time>2023-08-29T06:46:00Z</time>
      </trkpt>
      <trkpt lat="45.5548" lon="5.35465">
        <ele>307.8</ele>
        <time>2023-08-29T06:46:01Z</time>
      </trkpt>
      <trkpt lat="45.55479" lon="5.35472">
        <ele>307.8</ele>
        <time>2023-08-29T06:46:02Z</time>
      </trkpt>
      <trkpt lat="45.55477" lon="5.35479">
        <ele>307.8</ele>
        <time>2023-08-29T06:46:03Z</time>
      </trkpt>
      <trkpt lat="45.55476" lon="5.35486">
        <ele>308</ele>
        <time>2023-08-29T06:46:04Z</time>
      </trkpt>
      <trkpt lat="45.55474" lon="5.35493">
        <ele>308</ele>
        <time>2023-08-29T06:46:05Z</time>
      </trkpt>
      <trkpt lat="45.55472" lon="5.355">
        <ele>307.8</ele>
        <time>2023-08-29T06:46:06Z</time>
      </trkpt>
      <trkpt lat="45.55469" lon="5.35506">
        <ele>307.8</ele>
        <time>2023-08-29T06:46:07Z</time>
      </trkpt>
      <trkpt lat="45.55467" lon="5.35513">
        <ele>307.8</ele>
        <time>2023-08-29T06:46:08Z</time>
      </trkpt>
      <trkpt lat="45.55465" lon="5.3552">
        <ele>307.8</ele>
        <time>2023-08-29T06:46:09Z</time>
      </trkpt>
      <trkpt lat="45.55463" lon="5.35527">
        <ele>307.8</ele>
        <time>2023-08-29T06:46:10Z</time>
      </trkpt>
      <trkpt lat="45.5546" lon="5.35534">
        <ele>308</ele>
        <time>2023-08-29T06:46:11Z</time>
      </trkpt>
      <trkpt lat="45.55458" lon="5.3554">
        <ele>308</ele>
        <time>2023-08-29T06:46:12Z</time>
      </trkpt>
      <trkpt lat="45.55456" lon="5.35546">
        <ele>308</ele>
        <time>2023-08-29T06:46:13Z</time>
      </trkpt>
      <trkpt lat="45.55453" lon="5.35553">
        <ele>308</ele>
        <time>2023-08-29T06:46:14Z</time>
      </trkpt>
      <trkpt lat="45.5545" lon="5.35559">
        <ele>308</ele>
        <time>2023-08-29T06:46:15Z</time>
      </trkpt>
      <trkpt lat="45.55448" lon="5.35565">
        <ele>308</ele>
        <time>2023-08-29T06:46:16Z</time>
      </trkpt>
      <trkpt lat="45.55445" lon="5.35571">
        <ele>308</ele>
        <time>2023-08-29T06:46:17Z</time>
      </trkpt>
      <trkpt lat="45.55442" lon="5.35577">
        <ele>308</ele>
        <time>2023-08-29T06:46:18Z</time>
      </trkpt>
      <trkpt lat="45.5544" lon="5.35583">
        <ele>308</ele>
        <time>2023-08-29T06:46:19Z</time>
      </trkpt>
      <trkpt lat="45.55436" lon="5.3559">
        <ele>308.2</ele>
        <time>2023-08-29T06:46:20Z</time>
      </trkpt>
      <trkpt lat="45.55433" lon="5.35596">
        <ele>308.2</ele>
        <time>2023-08-29T06:46:21Z</time>
      </trkpt>
      <trkpt lat="45.5543" lon="5.35602">
        <ele>308.2</ele>
        <time>2023-08-29T06:46:22Z</time>
      </trkpt>
      <trkpt lat="45.55428" lon="5.35608">
        <ele>308.2</ele>
        <time>2023-08-29T06:46:23Z</time>
      </trkpt>
      <trkpt lat="45.55425" lon="5.35614">
        <ele>308.2</ele>
        <time>2023-08-29T06:46:24Z</time>
      </trkpt>
      <trkpt lat="45.55422" lon="5.35619">
        <ele>308.2</ele>
        <time>2023-08-29T06:46:25Z</time>
      </trkpt>
      <trkpt lat="45.55419" lon="5.35626">
        <ele>308.4</ele>
        <time>2023-08-29T06:46:26Z</time>
      </trkpt>
      <trkpt lat="45.55416" lon="5.35632">
        <ele>308.4</ele>
        <time>2023-08-29T06:46:27Z</time>
      </trkpt>
      <trkpt lat="45.55413" lon="5.35638">
        <ele>308.4</ele>
        <time>2023-08-29T06:46:28Z</time>
      </trkpt>
      <trkpt lat="45.55411" lon="5.35644">
        <ele>308.6</ele>
        <time>2023-08-29T06:46:29Z</time>
      </trkpt>
      <trkpt lat="45.55408" lon="5.3565">
        <ele>308.6</ele>
        <time>2023-08-29T06:46:30Z</time>
      </trkpt>
      <trkpt lat="45.55405" lon="5.35655">
        <ele>308.8</ele>
        <time>2023-08-29T06:46:31Z</time>
      </trkpt>
      <trkpt lat="45.55403" lon="5.35661">
        <ele>308.8</ele>
        <time>2023-08-29T06:46:32Z</time>
      </trkpt>
      <trkpt lat="45.554" lon="5.35667">
        <ele>308.8</ele>
        <time>2023-08-29T06:46:33Z</time>
      </trkpt>
      <trkpt lat="45.55398" lon="5.35673">
        <ele>308.8</ele>
        <time>2023-08-29T06:46:34Z</time>
      </trkpt>
      <trkpt lat="45.55395" lon="5.35679">
        <ele>309</ele>
        <time>2023-08-29T06:46:35Z</time>
      </trkpt>
      <trkpt lat="45.55393" lon="5.35685">
        <ele>309.2</ele>
        <time>2023-08-29T06:46:36Z</time>
      </trkpt>
      <trkpt lat="45.5539" lon="5.3569">
        <ele>309.4</ele>
        <time>2023-08-29T06:46:37Z</time>
      </trkpt>
      <trkpt lat="45.55388" lon="5.35696">
        <ele>309.4</ele>
        <time>2023-08-29T06:46:38Z</time>
      </trkpt>
      <trkpt lat="45.55385" lon="5.35702">
        <ele>309.4</ele>
        <time>2023-08-29T06:46:39Z</time>
      </trkpt>
      <trkpt lat="45.55382" lon="5.35708">
        <ele>309.4</ele>
        <time>2023-08-29T06:46:40Z</time>
      </trkpt>
      <trkpt lat="45.55379" lon="5.35713">
        <ele>309.4</ele>
        <time>2023-08-29T06:46:41Z</time>
      </trkpt>
      <trkpt lat="45.55377" lon="5.3572">
        <ele>309.6</ele>
        <time>2023-08-29T06:46:42Z</time>
      </trkpt>
      <trkpt lat="45.55374" lon="5.35725">
        <ele>309.6</ele>
        <time>2023-08-29T06:46:43Z</time>
      </trkpt>
      <trkpt lat="45.55372" lon="5.3573">
        <ele>309.6</ele>
        <time>2023-08-29T06:46:44Z</time>
      </trkpt>
      <trkpt lat="45.55369" lon="5.35736">
        <ele>309.6</ele>
        <time>2023-08-29T06:46:45Z</time>
      </trkpt>
      <trkpt lat="45.55367" lon="5.35742">
        <ele>309.8</ele>
        <time>2023-08-29T06:46:46Z</time>
      </trkpt>
      <trkpt lat="45.55364" lon="5.35748">
        <ele>309.8</ele>
        <time>2023-08-29T06:46:47Z</time>
      </trkpt>
      <trkpt lat="45.55361" lon="5.35753">
        <ele>309.8</ele>
        <time>2023-08-29T06:46:48Z</time>
      </trkpt>
      <trkpt lat="45.55359" lon="5.35759">
        <ele>310</ele>
        <time>2023-08-29T06:46:49Z</time>
      </trkpt>
      <trkpt lat="45.55357" lon="5.35765">
        <ele>310.2</ele>
        <time>2023-08-29T06:46:50Z</time>
      </trkpt>
      <trkpt lat="45.55354" lon="5.35771">
        <ele>310.4</ele>
        <time>2023-08-29T06:46:51Z</time>
      </trkpt>
      <trkpt lat="45.55351" lon="5.35776">
        <ele>310.4</ele>
        <time>2023-08-29T06:46:52Z</time>
      </trkpt>
      <trkpt lat="45.55349" lon="5.35782">
        <ele>310.4</ele>
        <time>2023-08-29T06:46:53Z</time>
      </trkpt>
      <trkpt lat="45.55346" lon="5.35787">
        <ele>310.4</ele>
        <time>2023-08-29T06:46:54Z</time>
      </trkpt>
      <trkpt lat="45.55344" lon="5.35793">
        <ele>310.4</ele>
        <time>2023-08-29T06:46:55Z</time>
      </trkpt>
      <trkpt lat="45.55341" lon="5.35798">
        <ele>310.6</ele>
        <time>2023-08-29T06:46:56Z</time>
      </trkpt>
      <trkpt lat="45.55339" lon="5.35804">
        <ele>310.6</ele>
        <time>2023-08-29T06:46:57Z</time>
      </trkpt>
      <trkpt lat="45.55336" lon="5.35808">
        <ele>310.6</ele>
        <time>2023-08-29T06:46:58Z</time>
      </trkpt>
      <trkpt lat="45.55334" lon="5.35814">
        <ele>310.6</ele>
        <time>2023-08-29T06:46:59Z</time>
      </trkpt>
      <trkpt lat="45.55331" lon="5.3582">
        <ele>310.8</ele>
        <time>2023-08-29T06:47:00Z</time>
      </trkpt>
      <trkpt lat="45.55329" lon="5.35825">
        <ele>311.2</ele>
        <time>2023-08-29T06:47:01Z</time>
      </trkpt>
      <trkpt lat="45.55327" lon="5.35831">
        <ele>311.4</ele>
        <time>2023-08-29T06:47:02Z</time>
      </trkpt>
      <trkpt lat="45.55324" lon="5.35836">
        <ele>311.4</ele>
        <time>2023-08-29T06:47:03Z</time>
      </trkpt>
      <trkpt lat="45.55321" lon="5.35841">
        <ele>311.6</ele>
        <time>2023-08-29T06:47:04Z</time>
      </trkpt>
      <trkpt lat="45.55319" lon="5.35847">
        <ele>311.6</ele>
        <time>2023-08-29T06:47:05Z</time>
      </trkpt>
      <trkpt lat="45.55317" lon="5.35852">
        <ele>311.8</ele>
        <time>2023-08-29T06:47:06Z</time>
      </trkpt>
      <trkpt lat="45.55314" lon="5.35858">
        <ele>311.8</ele>
        <time>2023-08-29T06:47:07Z</time>
      </trkpt>
      <trkpt lat="45.55312" lon="5.35863">
        <ele>311.8</ele>
        <time>2023-08-29T06:47:08Z</time>
      </trkpt>
      <trkpt lat="45.55309" lon="5.35868">
        <ele>311.8</ele>
        <time>2023-08-29T06:47:09Z</time>
      </trkpt>
      <trkpt lat="45.55307" lon="5.35874">
        <ele>312</ele>
        <time>2023-08-29T06:47:10Z</time>
      </trkpt>
      <trkpt lat="45.55305" lon="5.3588">
        <ele>312.2</ele>
        <time>2023-08-29T06:47:11Z</time>
      </trkpt>
      <trkpt lat="45.55302" lon="5.35885">
        <ele>312.2</ele>
        <time>2023-08-29T06:47:12Z</time>
      </trkpt>
      <trkpt lat="45.553" lon="5.35891">
        <ele>312.2</ele>
        <time>2023-08-29T06:47:13Z</time>
      </trkpt>
      <trkpt lat="45.55297" lon="5.35896">
        <ele>312.4</ele>
        <time>2023-08-29T06:47:14Z</time>
      </trkpt>
      <trkpt lat="45.55294" lon="5.35902">
        <ele>312.6</ele>
        <time>2023-08-29T06:47:15Z</time>
      </trkpt>
      <trkpt lat="45.55292" lon="5.35907">
        <ele>312.6</ele>
        <time>2023-08-29T06:47:16Z</time>
      </trkpt>
      <trkpt lat="45.55289" lon="5.35913">
        <ele>312.8</ele>
        <time>2023-08-29T06:47:17Z</time>
      </trkpt>
      <trkpt lat="45.55287" lon="5.35918">
        <ele>313</ele>
        <time>2023-08-29T06:47:18Z</time>
      </trkpt>
      <trkpt lat="45.55285" lon="5.35924">
        <ele>313.2</ele>
        <time>2023-08-29T06:47:19Z</time>
      </trkpt>
      <trkpt lat="45.55282" lon="5.3593">
        <ele>313.2</ele>
        <time>2023-08-29T06:47:20Z</time>
      </trkpt>
      <trkpt lat="45.5528" lon="5.35935">
        <ele>313.4</ele>
        <time>2023-08-29T06:47:21Z</time>
      </trkpt>
      <trkpt lat="45.55277" lon="5.35941">
        <ele>313.4</ele>
        <time>2023-08-29T06:47:22Z</time>
      </trkpt>
      <trkpt lat="45.55275" lon="5.35947">
        <ele>313.6</ele>
        <time>2023-08-29T06:47:23Z</time>
      </trkpt>
      <trkpt lat="45.55273" lon="5.35952">
        <ele>313.6</ele>
        <time>2023-08-29T06:47:24Z</time>
      </trkpt>
      <trkpt lat="45.5527" lon="5.35958">
        <ele>313.6</ele>
        <time>2023-08-29T06:47:25Z</time>
      </trkpt>
      <trkpt lat="45.55268" lon="5.35964">
        <ele>313.6</ele>
        <time>2023-08-29T06:47:26Z</time>
      </trkpt>
      <trkpt lat="45.55266" lon="5.35969">
        <ele>313.8</ele>
        <time>2023-08-29T06:47:27Z</time>
      </trkpt>
      <trkpt lat="45.55264" lon="5.35975">
        <ele>313.8</ele>
        <time>2023-08-29T06:47:28Z</time>
      </trkpt>
      <trkpt lat="45.55262" lon="5.35981">
        <ele>314</ele>
        <time>2023-08-29T06:47:29Z</time>
      </trkpt>
      <trkpt lat="45.55259" lon="5.35986">
        <ele>314</ele>
        <time>2023-08-29T06:47:30Z</time>
      </trkpt>
      <trkpt lat="45.55257" lon="5.35992">
        <ele>314.2</ele>
        <time>2023-08-29T06:47:31Z</time>
      </trkpt>
      <trkpt lat="45.55255" lon="5.35997">
        <ele>314.2</ele>
        <time>2023-08-29T06:47:32Z</time>
      </trkpt>
      <trkpt lat="45.55253" lon="5.36002">
        <ele>314.2</ele>
        <time>2023-08-29T06:47:33Z</time>
      </trkpt>
      <trkpt lat="45.55251" lon="5.36008">
        <ele>314.4</ele>
        <time>2023-08-29T06:47:34Z</time>
      </trkpt>
      <trkpt lat="45.55249" lon="5.36013">
        <ele>314.4</ele>
        <time>2023-08-29T06:47:35Z</time>
      </trkpt>
      <trkpt lat="45.55247" lon="5.36018">
        <ele>314.6</ele>
        <time>2023-08-29T06:47:36Z</time>
      </trkpt>
      <trkpt lat="45.55245" lon="5.36024">
        <ele>314.6</ele>
        <time>2023-08-29T06:47:37Z</time>
      </trkpt>
      <trkpt lat="45.55243" lon="5.36029">
        <ele>314.8</ele>
        <time>2023-08-29T06:47:38Z</time>
      </trkpt>
      <trkpt lat="45.55241" lon="5.36035">
        <ele>314.8</ele>
        <time>2023-08-29T06:47:39Z</time>
      </trkpt>
      <trkpt lat="45.55239" lon="5.3604">
        <ele>315</ele>
        <time>2023-08-29T06:47:40Z</time>
      </trkpt>
      <trkpt lat="45.55237" lon="5.36045">
        <ele>315</ele>
        <time>2023-08-29T06:47:41Z</time>
      </trkpt>
      <trkpt lat="45.55235" lon="5.3605">
        <ele>315.2</ele>
        <time>2023-08-29T06:47:42Z</time>
      </trkpt>
      <trkpt lat="45.55233" lon="5.36056">
        <ele>315.2</ele>
        <time>2023-08-29T06:47:43Z</time>
      </trkpt>
      <trkpt lat="45.55231" lon="5.36062">
        <ele>315.4</ele>
        <time>2023-08-29T06:47:44Z</time>
      </trkpt>
      <trkpt lat="45.55229" lon="5.36068">
        <ele>315.6</ele>
        <time>2023-08-29T06:47:45Z</time>
      </trkpt>
      <trkpt lat="45.55227" lon="5.36073">
        <ele>315.6</ele>
        <time>2023-08-29T06:47:46Z</time>
      </trkpt>
      <trkpt lat="45.55225" lon="5.36079">
        <ele>315.8</ele>
        <time>2023-08-29T06:47:47Z</time>
      </trkpt>
      <trkpt lat="45.55223" lon="5.36085">
        <ele>315.8</ele>
        <time>2023-08-29T06:47:48Z</time>
      </trkpt>
      <trkpt lat="45.55221" lon="5.3609">
        <ele>315.8</ele>
        <time>2023-08-29T06:47:49Z</time>
      </trkpt>
      <trkpt lat="45.55219" lon="5.36096">
        <ele>316</ele>
        <time>2023-08-29T06:47:50Z</time>
      </trkpt>
      <trkpt lat="45.55217" lon="5.36101">
        <ele>316</ele>
        <time>2023-08-29T06:47:51Z</time>
      </trkpt>
      <trkpt lat="45.55215" lon="5.36107">
        <ele>316.2</ele>
        <time>2023-08-29T06:47:52Z</time>
      </trkpt>
      <trkpt lat="45.55213" lon="5.36112">
        <ele>316.2</ele>
        <time>2023-08-29T06:47:53Z</time>
      </trkpt>
      <trkpt lat="45.55211" lon="5.36118">
        <ele>316.4</ele>
        <time>2023-08-29T06:47:54Z</time>
      </trkpt>
      <trkpt lat="45.55209" lon="5.36124">
        <ele>316.4</ele>
        <time>2023-08-29T06:47:55Z</time>
      </trkpt>
      <trkpt lat="45.55207" lon="5.36129">
        <ele>316.4</ele>
        <time>2023-08-29T06:47:56Z</time>
      </trkpt>
      <trkpt lat="45.55205" lon="5.36135">
        <ele>316.6</ele>
        <time>2023-08-29T06:47:57Z</time>
      </trkpt>
      <trkpt lat="45.55203" lon="5.3614">
        <ele>316.8</ele>
        <time>2023-08-29T06:47:58Z</time>
      </trkpt>
      <trkpt lat="45.55201" lon="5.36146">
        <ele>316.8</ele>
        <time>2023-08-29T06:47:59Z</time>
      </trkpt>
      <trkpt lat="45.55199" lon="5.36151">
        <ele>316.8</ele>
        <time>2023-08-29T06:48:00Z</time>
      </trkpt>
      <trkpt lat="45.55197" lon="5.36157">
        <ele>317.2</ele>
        <time>2023-08-29T06:48:01Z</time>
      </trkpt>
      <trkpt lat="45.55195" lon="5.36163">
        <ele>317.2</ele>
        <time>2023-08-29T06:48:02Z</time>
      </trkpt>
      <trkpt lat="45.55193" lon="5.36168">
        <ele>317.2</ele>
        <time>2023-08-29T06:48:03Z</time>
      </trkpt>
      <trkpt lat="45.55191" lon="5.36174">
        <ele>317.4</ele>
        <time>2023-08-29T06:48:04Z</time>
      </trkpt>
      <trkpt lat="45.55189" lon="5.3618">
        <ele>317.4</ele>
        <time>2023-08-29T06:48:05Z</time>
      </trkpt>
      <trkpt lat="45.55187" lon="5.36186">
        <ele>317.6</ele>
        <time>2023-08-29T06:48:06Z</time>
      </trkpt>
      <trkpt lat="45.55185" lon="5.36191">
        <ele>317.6</ele>
        <time>2023-08-29T06:48:07Z</time>
      </trkpt>
      <trkpt lat="45.55183" lon="5.36196">
        <ele>317.8</ele>
        <time>2023-08-29T06:48:08Z</time>
      </trkpt>
      <trkpt lat="45.55181" lon="5.36202">
        <ele>318</ele>
        <time>2023-08-29T06:48:09Z</time>
      </trkpt>
      <trkpt lat="45.55179" lon="5.36207">
        <ele>318</ele>
        <time>2023-08-29T06:48:10Z</time>
      </trkpt>
      <trkpt lat="45.55177" lon="5.36213">
        <ele>318.2</ele>
        <time>2023-08-29T06:48:11Z</time>
      </trkpt>
      <trkpt lat="45.55175" lon="5.36218">
        <ele>318.2</ele>
        <time>2023-08-29T06:48:12Z</time>
      </trkpt>
      <trkpt lat="45.55173" lon="5.36223">
        <ele>318.2</ele>
        <time>2023-08-29T06:48:13Z</time>
      </trkpt>
      <trkpt lat="45.55171" lon="5.36229">
        <ele>318.4</ele>
        <time>2023-08-29T06:48:14Z</time>
      </trkpt>
      <trkpt lat="45.55169" lon="5.36234">
        <ele>318.6</ele>
        <time>2023-08-29T06:48:15Z</time>
      </trkpt>
      <trkpt lat="45.55167" lon="5.3624">
        <ele>318.8</ele>
        <time>2023-08-29T06:48:16Z</time>
      </trkpt>
      <trkpt lat="45.55165" lon="5.36245">
        <ele>318.8</ele>
        <time>2023-08-29T06:48:17Z</time>
      </trkpt>
      <trkpt lat="45.55163" lon="5.3625">
        <ele>318.8</ele>
        <time>2023-08-29T06:48:18Z</time>
      </trkpt>
      <trkpt lat="45.55161" lon="5.36255">
        <ele>319</ele>
        <time>2023-08-29T06:48:19Z</time>
      </trkpt>
      <trkpt lat="45.55159" lon="5.36261">
        <ele>319</ele>
        <time>2023-08-29T06:48:20Z</time>
      </trkpt>
      <trkpt lat="45.55157" lon="5.36266">
        <ele>319.2</ele>
        <time>2023-08-29T06:48:21Z</time>
      </trkpt>
      <trkpt lat="45.55155" lon="5.36271">
        <ele>319.2</ele>
        <time>2023-08-29T06:48:22Z</time>
      </trkpt>
      <trkpt lat="45.55153" lon="5.36276">
        <ele>319.2</ele>
        <time>2023-08-29T06:48:23Z</time>
      </trkpt>
      <trkpt lat="45.55151" lon="5.36281">
        <ele>319.4</ele>
        <time>2023-08-29T06:48:24Z</time>
      </trkpt>
      <trkpt lat="45.55149" lon="5.36286">
        <ele>319.6</ele>
        <time>2023-08-29T06:48:25Z</time>
      </trkpt>
      <trkpt lat="45.55146" lon="5.36291">
        <ele>319.6</ele>
        <time>2023-08-29T06:48:26Z</time>
      </trkpt>
      <trkpt lat="45.55144" lon="5.36296">
        <ele>319.6</ele>
        <time>2023-08-29T06:48:27Z</time>
      </trkpt>
      <trkpt lat="45.55142" lon="5.36301">
        <ele>319.8</ele>
        <time>2023-08-29T06:48:28Z</time>
      </trkpt>
      <trkpt lat="45.55139" lon="5.36307">
        <ele>320</ele>
        <time>2023-08-29T06:48:29Z</time>
      </trkpt>
      <trkpt lat="45.55137" lon="5.36313">
        <ele>320</ele>
        <time>2023-08-29T06:48:30Z</time>
      </trkpt>
      <trkpt lat="45.55135" lon="5.36318">
        <ele>320</ele>
        <time>2023-08-29T06:48:31Z</time>
      </trkpt>
      <trkpt lat="45.55133" lon="5.36323">
        <ele>320</ele>
        <time>2023-08-29T06:48:32Z</time>
      </trkpt>
      <trkpt lat="45.5513" lon="5.36328">
        <ele>320.2</ele>
        <time>2023-08-29T06:48:33Z</time>
      </trkpt>
      <trkpt lat="45.55128" lon="5.36333">
        <ele>320.2</ele>
        <time>2023-08-29T06:48:34Z</time>
      </trkpt>
      <trkpt lat="45.55126" lon="5.36338">
        <ele>320.4</ele>
        <time>2023-08-29T06:48:35Z</time>
      </trkpt>
      <trkpt lat="45.55123" lon="5.36343">
        <ele>320.4</ele>
        <time>2023-08-29T06:48:36Z</time>
      </trkpt>
      <trkpt lat="45.55121" lon="5.36348">
        <ele>320.6</ele>
        <time>2023-08-29T06:48:37Z</time>
      </trkpt>
      <trkpt lat="45.55119" lon="5.36353">
        <ele>320.6</ele>
        <time>2023-08-29T06:48:38Z</time>
      </trkpt>
      <trkpt lat="45.55116" lon="5.36359">
        <ele>320.8</ele>
        <time>2023-08-29T06:48:39Z</time>
      </trkpt>
      <trkpt lat="45.55114" lon="5.36364">
        <ele>321</ele>
        <time>2023-08-29T06:48:40Z</time>
      </trkpt>
      <trkpt lat="45.55111" lon="5.36369">
        <ele>321</ele>
        <time>2023-08-29T06:48:41Z</time>
      </trkpt>
      <trkpt lat="45.55109" lon="5.36375">
        <ele>321.2</ele>
        <time>2023-08-29T06:48:42Z</time>
      </trkpt>
      <trkpt lat="45.55107" lon="5.3638">
        <ele>321.2</ele>
        <time>2023-08-29T06:48:43Z</time>
      </trkpt>
      <trkpt lat="45.55104" lon="5.36385">
        <ele>321.4</ele>
        <time>2023-08-29T06:48:44Z</time>
      </trkpt>
      <trkpt lat="45.55102" lon="5.3639">
        <ele>321.6</ele>
        <time>2023-08-29T06:48:45Z</time>
      </trkpt>
      <trkpt lat="45.55099" lon="5.36396">
        <ele>321.6</ele>
        <time>2023-08-29T06:48:46Z</time>
      </trkpt>
      <trkpt lat="45.55097" lon="5.36401">
        <ele>321.8</ele>
        <time>2023-08-29T06:48:47Z</time>
      </trkpt>
      <trkpt lat="45.55094" lon="5.36407">
        <ele>321.8</ele>
        <time>2023-08-29T06:48:48Z</time>
      </trkpt>
      <trkpt lat="45.55092" lon="5.36412">
        <ele>322</ele>
        <time>2023-08-29T06:48:49Z</time>
      </trkpt>
      <trkpt lat="45.5509" lon="5.36418">
        <ele>322</ele>
        <time>2023-08-29T06:48:50Z</time>
      </trkpt>
      <trkpt lat="45.55088" lon="5.36424">
        <ele>322.2</ele>
        <time>2023-08-29T06:48:51Z</time>
      </trkpt>
      <trkpt lat="45.55085" lon="5.36429">
        <ele>322.2</ele>
        <time>2023-08-29T06:48:52Z</time>
      </trkpt>
      <trkpt lat="45.55083" lon="5.36435">
        <ele>322.4</ele>
        <time>2023-08-29T06:48:53Z</time>
      </trkpt>
      <trkpt lat="45.5508" lon="5.3644">
        <ele>322.6</ele>
        <time>2023-08-29T06:48:54Z</time>
      </trkpt>
      <trkpt lat="45.55078" lon="5.36445">
        <ele>322.8</ele>
        <time>2023-08-29T06:48:55Z</time>
      </trkpt>
      <trkpt lat="45.55076" lon="5.36451">
        <ele>322.8</ele>
        <time>2023-08-29T06:48:56Z</time>
      </trkpt>
      <trkpt lat="45.55074" lon="5.36457">
        <ele>322.8</ele>
        <time>2023-08-29T06:48:57Z</time>
      </trkpt>
      <trkpt lat="45.55071" lon="5.36462">
        <ele>323</ele>
        <time>2023-08-29T06:48:58Z</time>
      </trkpt>
      <trkpt lat="45.55069" lon="5.36468">
        <ele>323</ele>
        <time>2023-08-29T06:48:59Z</time>
      </trkpt>
      <trkpt lat="45.55067" lon="5.36473">
        <ele>323.2</ele>
        <time>2023-08-29T06:49:00Z</time>
      </trkpt>
      <trkpt lat="45.55065" lon="5.36479">
        <ele>323.2</ele>
        <time>2023-08-29T06:49:01Z</time>
      </trkpt>
      <trkpt lat="45.55063" lon="5.36484">
        <ele>323.2</ele>
        <time>2023-08-29T06:49:02Z</time>
      </trkpt>
      <trkpt lat="45.55061" lon="5.36489">
        <ele>323.4</ele>
        <time>2023-08-29T06:49:03Z</time>
      </trkpt>
      <trkpt lat="45.55058" lon="5.36494">
        <ele>323.6</ele>
        <time>2023-08-29T06:49:04Z</time>
      </trkpt>
      <trkpt lat="45.55056" lon="5.365">
        <ele>324</ele>
        <time>2023-08-29T06:49:05Z</time>
      </trkpt>
      <trkpt lat="45.55053" lon="5.36505">
        <ele>324</ele>
        <time>2023-08-29T06:49:06Z</time>
      </trkpt>
      <trkpt lat="45.55051" lon="5.36511">
        <ele>324</ele>
        <time>2023-08-29T06:49:07Z</time>
      </trkpt>
      <trkpt lat="45.55048" lon="5.36517">
        <ele>324.2</ele>
        <time>2023-08-29T06:49:08Z</time>
      </trkpt>
      <trkpt lat="45.55046" lon="5.36522">
        <ele>324.4</ele>
        <time>2023-08-29T06:49:09Z</time>
      </trkpt>
      <trkpt lat="45.55044" lon="5.36528">
        <ele>324.6</ele>
        <time>2023-08-29T06:49:10Z</time>
      </trkpt>
      <trkpt lat="45.55042" lon="5.36534">
        <ele>324.8</ele>
        <time>2023-08-29T06:49:11Z</time>
      </trkpt>
      <trkpt lat="45.5504" lon="5.36539">
        <ele>325</ele>
        <time>2023-08-29T06:49:12Z</time>
      </trkpt>
      <trkpt lat="45.55037" lon="5.36545">
        <ele>325.2</ele>
        <time>2023-08-29T06:49:13Z</time>
      </trkpt>
      <trkpt lat="45.55035" lon="5.3655">
        <ele>325.4</ele>
        <time>2023-08-29T06:49:14Z</time>
      </trkpt>
      <trkpt lat="45.55032" lon="5.36556">
        <ele>325.4</ele>
        <time>2023-08-29T06:49:15Z</time>
      </trkpt>
      <trkpt lat="45.5503" lon="5.36561">
        <ele>325.4</ele>
        <time>2023-08-29T06:49:16Z</time>
      </trkpt>
      <trkpt lat="45.55028" lon="5.36567">
        <ele>325.6</ele>
        <time>2023-08-29T06:49:17Z</time>
      </trkpt>
      <trkpt lat="45.55026" lon="5.36572">
        <ele>326</ele>
        <time>2023-08-29T06:49:18Z</time>
      </trkpt>
      <trkpt lat="45.55023" lon="5.36578">
        <ele>326.2</ele>
        <time>2023-08-29T06:49:19Z</time>
      </trkpt>
      <trkpt lat="45.5502" lon="5.36584">
        <ele>326.2</ele>
        <time>2023-08-29T06:49:20Z</time>
      </trkpt>
      <trkpt lat="45.55018" lon="5.36589">
        <ele>326.4</ele>
        <time>2023-08-29T06:49:21Z</time>
      </trkpt>
      <trkpt lat="45.55015" lon="5.36595">
        <ele>326.6</ele>
        <time>2023-08-29T06:49:22Z</time>
      </trkpt>
      <trkpt lat="45.55013" lon="5.366">
        <ele>326.6</ele>
        <time>2023-08-29T06:49:23Z</time>
      </trkpt>
      <trkpt lat="45.55011" lon="5.36606">
        <ele>327</ele>
        <time>2023-08-29T06:49:24Z</time>
      </trkpt>
      <trkpt lat="45.55008" lon="5.36612">
        <ele>327.4</ele>
        <time>2023-08-29T06:49:25Z</time>
      </trkpt>
      <trkpt lat="45.55006" lon="5.36617">
        <ele>327.4</ele>
        <time>2023-08-29T06:49:26Z</time>
      </trkpt>
      <trkpt lat="45.55004" lon="5.36623">
        <ele>327.6</ele>
        <time>2023-08-29T06:49:27Z</time>
      </trkpt>
      <trkpt lat="45.55002" lon="5.36628">
        <ele>327.8</ele>
        <time>2023-08-29T06:49:28Z</time>
      </trkpt>
      <trkpt lat="45.54999" lon="5.36634">
        <ele>327.8</ele>
        <time>2023-08-29T06:49:29Z</time>
      </trkpt>
      <trkpt lat="45.54997" lon="5.3664">
        <ele>328</ele>
        <time>2023-08-29T06:49:30Z</time>
      </trkpt>
      <trkpt lat="45.54995" lon="5.36646">
        <ele>328</ele>
        <time>2023-08-29T06:49:31Z</time>
      </trkpt>
      <trkpt lat="45.54992" lon="5.36652">
        <ele>328</ele>
        <time>2023-08-29T06:49:32Z</time>
      </trkpt>
      <trkpt lat="45.5499" lon="5.36657">
        <ele>328.2</ele>
        <time>2023-08-29T06:49:33Z</time>
      </trkpt>
      <trkpt lat="45.54987" lon="5.36662">
        <ele>328.4</ele>
        <time>2023-08-29T06:49:34Z</time>
      </trkpt>
      <trkpt lat="45.54985" lon="5.36668">
        <ele>328.4</ele>
        <time>2023-08-29T06:49:35Z</time>
      </trkpt>
      <trkpt lat="45.54982" lon="5.36673">
        <ele>328.6</ele>
        <time>2023-08-29T06:49:36Z</time>
      </trkpt>
      <trkpt lat="45.5498" lon="5.36679">
        <ele>328.6</ele>
        <time>2023-08-29T06:49:37Z</time>
      </trkpt>
      <trkpt lat="45.54978" lon="5.36685">
        <ele>328.8</ele>
        <time>2023-08-29T06:49:38Z</time>
      </trkpt>
      <trkpt lat="45.54975" lon="5.36691">
        <ele>328.8</ele>
        <time>2023-08-29T06:49:39Z</time>
      </trkpt>
      <trkpt lat="45.54973" lon="5.36696">
        <ele>329</ele>
        <time>2023-08-29T06:49:40Z</time>
      </trkpt>
      <trkpt lat="45.5497" lon="5.36701">
        <ele>329</ele>
        <time>2023-08-29T06:49:41Z</time>
      </trkpt>
      <trkpt lat="45.54968" lon="5.36707">
        <ele>329</ele>
        <time>2023-08-29T06:49:42Z</time>
      </trkpt>
      <trkpt lat="45.54966" lon="5.36713">
        <ele>329</ele>
        <time>2023-08-29T06:49:43Z</time>
      </trkpt>
      <trkpt lat="45.54963" lon="5.36719">
        <ele>329.2</ele>
        <time>2023-08-29T06:49:44Z</time>
      </trkpt>
      <trkpt lat="45.54961" lon="5.36725">
        <ele>329.2</ele>
        <time>2023-08-29T06:49:45Z</time>
      </trkpt>
      <trkpt lat="45.54959" lon="5.3673">
        <ele>329.2</ele>
        <time>2023-08-29T06:49:46Z</time>
      </trkpt>
      <trkpt lat="45.54956" lon="5.36736">
        <ele>329.4</ele>
        <time>2023-08-29T06:49:47Z</time>
      </trkpt>
      <trkpt lat="45.54954" lon="5.36742">
        <ele>329.4</ele>
        <time>2023-08-29T06:49:48Z</time>
      </trkpt>
      <trkpt lat="45.54951" lon="5.36748">
        <ele>329.6</ele>
        <time>2023-08-29T06:49:49Z</time>
      </trkpt>
      <trkpt lat="45.54948" lon="5.36754">
        <ele>329.6</ele>
        <time>2023-08-29T06:49:50Z</time>
      </trkpt>
      <trkpt lat="45.54946" lon="5.3676">
        <ele>329.6</ele>
        <time>2023-08-29T06:49:51Z</time>
      </trkpt>
      <trkpt lat="45.54944" lon="5.36765">
        <ele>329.8</ele>
        <time>2023-08-29T06:49:52Z</time>
      </trkpt>
      <trkpt lat="45.54941" lon="5.36771">
        <ele>329.8</ele>
        <time>2023-08-29T06:49:53Z</time>
      </trkpt>
      <trkpt lat="45.54939" lon="5.36777">
        <ele>329.8</ele>
        <time>2023-08-29T06:49:54Z</time>
      </trkpt>
      <trkpt lat="45.54936" lon="5.36783">
        <ele>329.8</ele>
        <time>2023-08-29T06:49:55Z</time>
      </trkpt>
      <trkpt lat="45.54934" lon="5.36789">
        <ele>330</ele>
        <time>2023-08-29T06:49:56Z</time>
      </trkpt>
      <trkpt lat="45.54931" lon="5.36795">
        <ele>330</ele>
        <time>2023-08-29T06:49:57Z</time>
      </trkpt>
      <trkpt lat="45.54929" lon="5.36801">
        <ele>330.2</ele>
        <time>2023-08-29T06:49:58Z</time>
      </trkpt>
      <trkpt lat="45.54927" lon="5.36806">
        <ele>330.2</ele>
        <time>2023-08-29T06:49:59Z</time>
      </trkpt>
      <trkpt lat="45.54924" lon="5.36811">
        <ele>330.2</ele>
        <time>2023-08-29T06:50:00Z</time>
      </trkpt>
      <trkpt lat="45.54922" lon="5.36817">
        <ele>330.4</ele>
        <time>2023-08-29T06:50:01Z</time>
      </trkpt>
      <trkpt lat="45.5492" lon="5.36823">
        <ele>330.6</ele>
        <time>2023-08-29T06:50:02Z</time>
      </trkpt>
      <trkpt lat="45.54917" lon="5.36828">
        <ele>330.6</ele>
        <time>2023-08-29T06:50:03Z</time>
      </trkpt>
      <trkpt lat="45.54915" lon="5.36834">
        <ele>330.8</ele>
        <time>2023-08-29T06:50:04Z</time>
      </trkpt>
      <trkpt lat="45.54913" lon="5.36839">
        <ele>331</ele>
        <time>2023-08-29T06:50:05Z</time>
      </trkpt>
      <trkpt lat="45.5491" lon="5.36845">
        <ele>331</ele>
        <time>2023-08-29T06:50:06Z</time>
      </trkpt>
      <trkpt lat="45.54908" lon="5.36851">
        <ele>331.2</ele>
        <time>2023-08-29T06:50:07Z</time>
      </trkpt>
      <trkpt lat="45.54905" lon="5.36856">
        <ele>331.2</ele>
        <time>2023-08-29T06:50:08Z</time>
      </trkpt>
      <trkpt lat="45.54903" lon="5.36862">
        <ele>331.4</ele>
        <time>2023-08-29T06:50:09Z</time>
      </trkpt>
      <trkpt lat="45.54901" lon="5.36867">
        <ele>331.6</ele>
        <time>2023-08-29T06:50:10Z</time>
      </trkpt>
      <trkpt lat="45.54899" lon="5.36873">
        <ele>331.6</ele>
        <time>2023-08-29T06:50:11Z</time>
      </trkpt>
      <trkpt lat="45.54896" lon="5.36878">
        <ele>331.8</ele>
        <time>2023-08-29T06:50:12Z</time>
      </trkpt>
      <trkpt lat="45.54894" lon="5.36884">
        <ele>332</ele>
        <time>2023-08-29T06:50:13Z</time>
      </trkpt>
      <trkpt lat="45.54892" lon="5.36889">
        <ele>332.2</ele>
        <time>2023-08-29T06:50:14Z</time>
      </trkpt>
      <trkpt lat="45.5489" lon="5.36894">
        <ele>332.6</ele>
        <time>2023-08-29T06:50:15Z</time>
      </trkpt>
      <trkpt lat="45.54889" lon="5.369">
        <ele>332.8</ele>
        <time>2023-08-29T06:50:16Z</time>
      </trkpt>
      <trkpt lat="45.54887" lon="5.36906">
        <ele>333.2</ele>
        <time>2023-08-29T06:50:17Z</time>
      </trkpt>
      <trkpt lat="45.54886" lon="5.36911">
        <ele>333.2</ele>
        <time>2023-08-29T06:50:18Z</time>
      </trkpt>
      <trkpt lat="45.54885" lon="5.36917">
        <ele>333.6</ele>
        <time>2023-08-29T06:50:19Z</time>
      </trkpt>
      <trkpt lat="45.54884" lon="5.36922">
        <ele>334</ele>
        <time>2023-08-29T06:50:20Z</time>
      </trkpt>
      <trkpt lat="45.54883" lon="5.36928">
        <ele>334.4</ele>
        <time>2023-08-29T06:50:21Z</time>
      </trkpt>
      <trkpt lat="45.54883" lon="5.36933">
        <ele>334.6</ele>
        <time>2023-08-29T06:50:22Z</time>
      </trkpt>
      <trkpt lat="45.54882" lon="5.36938">
        <ele>334.8</ele>
        <time>2023-08-29T06:50:23Z</time>
      </trkpt>
      <trkpt lat="45.54882" lon="5.36943">
        <ele>334.8</ele>
        <time>2023-08-29T06:50:24Z</time>
      </trkpt>
      <trkpt lat="45.54881" lon="5.36949">
        <ele>335</ele>
        <time>2023-08-29T06:50:25Z</time>
      </trkpt>
      <trkpt lat="45.54881" lon="5.36955">
        <ele>335.6</ele>
        <time>2023-08-29T06:50:26Z</time>
      </trkpt>
      <trkpt lat="45.54881" lon="5.3696">
        <ele>336.2</ele>
        <time>2023-08-29T06:50:27Z</time>
      </trkpt>
      <trkpt lat="45.54881" lon="5.36966">
        <ele>336.6</ele>
        <time>2023-08-29T06:50:28Z</time>
      </trkpt>
      <trkpt lat="45.54882" lon="5.36971">
        <ele>336.6</ele>
        <time>2023-08-29T06:50:29Z</time>
      </trkpt>
      <trkpt lat="45.54882" lon="5.36976">
        <ele>336.8</ele>
        <time>2023-08-29T06:50:30Z</time>
      </trkpt>
      <trkpt lat="45.54883" lon="5.36982">
        <ele>337.2</ele>
        <time>2023-08-29T06:50:31Z</time>
      </trkpt>
      <trkpt lat="45.54883" lon="5.36988">
        <ele>337.4</ele>
        <time>2023-08-29T06:50:32Z</time>
      </trkpt>
      <trkpt lat="45.54884" lon="5.36993">
        <ele>337.6</ele>
        <time>2023-08-29T06:50:33Z</time>
      </trkpt>
      <trkpt lat="45.54886" lon="5.36998">
        <ele>338</ele>
        <time>2023-08-29T06:50:34Z</time>
      </trkpt>
      <trkpt lat="45.54887" lon="5.37004">
        <ele>338</ele>
        <time>2023-08-29T06:50:35Z</time>
      </trkpt>
      <trkpt lat="45.54889" lon="5.3701">
        <ele>338.4</ele>
        <time>2023-08-29T06:50:36Z</time>
      </trkpt>
      <trkpt lat="45.5489" lon="5.37016">
        <ele>338.6</ele>
        <time>2023-08-29T06:50:37Z</time>
      </trkpt>
      <trkpt lat="45.54892" lon="5.37021">
        <ele>338.8</ele>
        <time>2023-08-29T06:50:38Z</time>
      </trkpt>
      <trkpt lat="45.54894" lon="5.37026">
        <ele>338.8</ele>
        <time>2023-08-29T06:50:39Z</time>
      </trkpt>
      <trkpt lat="45.54896" lon="5.37031">
        <ele>339</ele>
        <time>2023-08-29T06:50:40Z</time>
      </trkpt>
      <trkpt lat="45.54899" lon="5.37036">
        <ele>339.4</ele>
        <time>2023-08-29T06:50:41Z</time>
      </trkpt>
      <trkpt lat="45.54902" lon="5.37041">
        <ele>339.4</ele>
        <time>2023-08-29T06:50:42Z</time>
      </trkpt>
      <trkpt lat="45.54904" lon="5.37046">
        <ele>339.6</ele>
        <time>2023-08-29T06:50:43Z</time>
      </trkpt>
      <trkpt lat="45.54907" lon="5.3705">
        <ele>339.8</ele>
        <time>2023-08-29T06:50:44Z</time>
      </trkpt>
      <trkpt lat="45.5491" lon="5.37055">
        <ele>340</ele>
        <time>2023-08-29T06:50:45Z</time>
      </trkpt>
      <trkpt lat="45.54912" lon="5.37059">
        <ele>340</ele>
        <time>2023-08-29T06:50:46Z</time>
      </trkpt>
      <trkpt lat="45.54915" lon="5.37063">
        <ele>340.2</ele>
        <time>2023-08-29T06:50:47Z</time>
      </trkpt>
      <trkpt lat="45.54917" lon="5.37067">
        <ele>340.4</ele>
        <time>2023-08-29T06:50:48Z</time>
      </trkpt>
      <trkpt lat="45.54921" lon="5.37072">
        <ele>340.4</ele>
        <time>2023-08-29T06:50:49Z</time>
      </trkpt>
      <trkpt lat="45.54924" lon="5.37076">
        <ele>340.6</ele>
        <time>2023-08-29T06:50:50Z</time>
      </trkpt>
      <trkpt lat="45.54926" lon="5.37081">
        <ele>340.8</ele>
        <time>2023-08-29T06:50:51Z</time>
      </trkpt>
      <trkpt lat="45.54929" lon="5.37086">
        <ele>340.8</ele>
        <time>2023-08-29T06:50:52Z</time>
      </trkpt>
      <trkpt lat="45.54931" lon="5.3709">
        <ele>340.8</ele>
        <time>2023-08-29T06:50:53Z</time>
      </trkpt>
      <trkpt lat="45.54934" lon="5.37096">
        <ele>340.8</ele>
        <time>2023-08-29T06:50:54Z</time>
      </trkpt>
      <trkpt lat="45.54937" lon="5.37101">
        <ele>340.8</ele>
        <time>2023-08-29T06:50:55Z</time>
      </trkpt>
      <trkpt lat="45.5494" lon="5.37106">
        <ele>340.8</ele>
        <time>2023-08-29T06:50:56Z</time>
      </trkpt>
      <trkpt lat="45.54943" lon="5.37111">
        <ele>340.8</ele>
        <time>2023-08-29T06:50:57Z</time>
      </trkpt>
      <trkpt lat="45.54946" lon="5.37116">
        <ele>340.8</ele>
        <time>2023-08-29T06:50:58Z</time>
      </trkpt>
      <trkpt lat="45.54949" lon="5.37121">
        <ele>340.8</ele>
        <time>2023-08-29T06:50:59Z</time>
      </trkpt>
      <trkpt lat="45.54953" lon="5.37127">
        <ele>340.8</ele>
        <time>2023-08-29T06:51:00Z</time>
      </trkpt>
      <trkpt lat="45.54957" lon="5.37134">
        <ele>340.6</ele>
        <time>2023-08-29T06:51:01Z</time>
      </trkpt>
      <trkpt lat="45.5496" lon="5.37141">
        <ele>340.4</ele>
        <time>2023-08-29T06:51:02Z</time>
      </trkpt>
      <trkpt lat="45.54964" lon="5.37147">
        <ele>340.2</ele>
        <time>2023-08-29T06:51:03Z</time>
      </trkpt>
      <trkpt lat="45.54968" lon="5.37153">
        <ele>339.8</ele>
        <time>2023-08-29T06:51:04Z</time>
      </trkpt>
      <trkpt lat="45.54972" lon="5.3716">
        <ele>339.6</ele>
        <time>2023-08-29T06:51:05Z</time>
      </trkpt>
      <trkpt lat="45.54976" lon="5.37167">
        <ele>339.2</ele>
        <time>2023-08-29T06:51:06Z</time>
      </trkpt>
      <trkpt lat="45.54981" lon="5.37176">
        <ele>339.2</ele>
        <time>2023-08-29T06:51:07Z</time>
      </trkpt>
      <trkpt lat="45.54986" lon="5.37185">
        <ele>338.6</ele>
        <time>2023-08-29T06:51:08Z</time>
      </trkpt>
      <trkpt lat="45.54991" lon="5.37193">
        <ele>338.2</ele>
        <time>2023-08-29T06:51:09Z</time>
      </trkpt>
      <trkpt lat="45.54996" lon="5.37202">
        <ele>337.6</ele>
        <time>2023-08-29T06:51:10Z</time>
      </trkpt>
      <trkpt lat="45.55002" lon="5.37211">
        <ele>337</ele>
        <time>2023-08-29T06:51:11Z</time>
      </trkpt>
      <trkpt lat="45.55008" lon="5.3722">
        <ele>336.6</ele>
        <time>2023-08-29T06:51:12Z</time>
      </trkpt>
      <trkpt lat="45.55013" lon="5.3723">
        <ele>336</ele>
        <time>2023-08-29T06:51:13Z</time>
      </trkpt>
      <trkpt lat="45.55018" lon="5.37242">
        <ele>335.6</ele>
        <time>2023-08-29T06:51:14Z</time>
      </trkpt>
      <trkpt lat="45.55022" lon="5.37253">
        <ele>335</ele>
        <time>2023-08-29T06:51:15Z</time>
      </trkpt>
      <trkpt lat="45.55026" lon="5.37265">
        <ele>334.6</ele>
        <time>2023-08-29T06:51:16Z</time>
      </trkpt>
      <trkpt lat="45.55029" lon="5.37278">
        <ele>333.8</ele>
        <time>2023-08-29T06:51:17Z</time>
      </trkpt>
      <trkpt lat="45.55032" lon="5.37292">
        <ele>333.4</ele>
        <time>2023-08-29T06:51:18Z</time>
      </trkpt>
      <trkpt lat="45.55034" lon="5.37305">
        <ele>332.6</ele>
        <time>2023-08-29T06:51:19Z</time>
      </trkpt>
      <trkpt lat="45.55036" lon="5.37319">
        <ele>332.2</ele>
        <time>2023-08-29T06:51:20Z</time>
      </trkpt>
      <trkpt lat="45.55036" lon="5.37333">
        <ele>331.8</ele>
        <time>2023-08-29T06:51:21Z</time>
      </trkpt>
      <trkpt lat="45.55037" lon="5.37346">
        <ele>331.6</ele>
        <time>2023-08-29T06:51:22Z</time>
      </trkpt>
      <trkpt lat="45.55037" lon="5.37358">
        <ele>330.8</ele>
        <time>2023-08-29T06:51:23Z</time>
      </trkpt>
      <trkpt lat="45.55037" lon="5.3737">
        <ele>330.4</ele>
        <time>2023-08-29T06:51:24Z</time>
      </trkpt>
      <trkpt lat="45.55036" lon="5.37382">
        <ele>330.4</ele>
        <time>2023-08-29T06:51:25Z</time>
      </trkpt>
      <trkpt lat="45.55036" lon="5.37394">
        <ele>330.4</ele>
        <time>2023-08-29T06:51:26Z</time>
      </trkpt>
      <trkpt lat="45.55036" lon="5.37405">
        <ele>330.4</ele>
        <time>2023-08-29T06:51:27Z</time>
      </trkpt>
      <trkpt lat="45.55035" lon="5.37416">
        <ele>330.6</ele>
        <time>2023-08-29T06:51:28Z</time>
      </trkpt>
      <trkpt lat="45.55035" lon="5.37426">
        <ele>330.6</ele>
        <time>2023-08-29T06:51:29Z</time>
      </trkpt>
      <trkpt lat="45.55035" lon="5.37437">
        <ele>330.6</ele>
        <time>2023-08-29T06:51:30Z</time>
      </trkpt>
      <trkpt lat="45.55035" lon="5.37447">
        <ele>330.8</ele>
        <time>2023-08-29T06:51:31Z</time>
      </trkpt>
      <trkpt lat="45.55035" lon="5.37456">
        <ele>331</ele>
        <time>2023-08-29T06:51:32Z</time>
      </trkpt>
      <trkpt lat="45.55035" lon="5.37465">
        <ele>331</ele>
        <time>2023-08-29T06:51:33Z</time>
      </trkpt>
      <trkpt lat="45.55035" lon="5.37474">
        <ele>331.2</ele>
        <time>2023-08-29T06:51:34Z</time>
      </trkpt>
      <trkpt lat="45.55034" lon="5.37483">
        <ele>331.4</ele>
        <time>2023-08-29T06:51:35Z</time>
      </trkpt>
      <trkpt lat="45.55034" lon="5.3749">
        <ele>331.4</ele>
        <time>2023-08-29T06:51:36Z</time>
      </trkpt>
      <trkpt lat="45.55034" lon="5.37498">
        <ele>331.6</ele>
        <time>2023-08-29T06:51:37Z</time>
      </trkpt>
      <trkpt lat="45.55034" lon="5.37506">
        <ele>331.6</ele>
        <time>2023-08-29T06:51:38Z</time>
      </trkpt>
      <trkpt lat="45.55034" lon="5.37514">
        <ele>331.8</ele>
        <time>2023-08-29T06:51:39Z</time>
      </trkpt>
      <trkpt lat="45.55035" lon="5.37521">
        <ele>331.8</ele>
        <time>2023-08-29T06:51:40Z</time>
      </trkpt>
      <trkpt lat="45.55035" lon="5.37528">
        <ele>332</ele>
        <time>2023-08-29T06:51:41Z</time>
      </trkpt>
      <trkpt lat="45.55035" lon="5.37535">
        <ele>332.4</ele>
        <time>2023-08-29T06:51:42Z</time>
      </trkpt>
      <trkpt lat="45.55034" lon="5.37542">
        <ele>332.8</ele>
        <time>2023-08-29T06:51:43Z</time>
      </trkpt>
      <trkpt lat="45.55034" lon="5.37549">
        <ele>333.2</ele>
        <time>2023-08-29T06:51:44Z</time>
      </trkpt>
      <trkpt lat="45.55034" lon="5.37557">
        <ele>333.2</ele>
        <time>2023-08-29T06:51:45Z</time>
      </trkpt>
      <trkpt lat="45.55034" lon="5.37563">
        <ele>333.2</ele>
        <time>2023-08-29T06:51:46Z</time>
      </trkpt>
      <trkpt lat="45.55033" lon="5.3757">
        <ele>333.6</ele>
        <time>2023-08-29T06:51:47Z</time>
      </trkpt>
      <trkpt lat="45.55033" lon="5.37576">
        <ele>333.8</ele>
        <time>2023-08-29T06:51:48Z</time>
      </trkpt>
      <trkpt lat="45.55032" lon="5.37583">
        <ele>333.8</ele>
        <time>2023-08-29T06:51:49Z</time>
      </trkpt>
      <trkpt lat="45.55032" lon="5.37591">
        <ele>334.2</ele>
        <time>2023-08-29T06:51:50Z</time>
      </trkpt>
      <trkpt lat="45.55031" lon="5.37598">
        <ele>334.2</ele>
        <time>2023-08-29T06:51:51Z</time>
      </trkpt>
      <trkpt lat="45.55031" lon="5.37605">
        <ele>334.4</ele>
        <time>2023-08-29T06:51:52Z</time>
      </trkpt>
      <trkpt lat="45.5503" lon="5.37612">
        <ele>334.6</ele>
        <time>2023-08-29T06:51:53Z</time>
      </trkpt>
      <trkpt lat="45.55029" lon="5.37618">
        <ele>334.6</ele>
        <time>2023-08-29T06:51:54Z</time>
      </trkpt>
      <trkpt lat="45.55028" lon="5.37625">
        <ele>334.6</ele>
        <time>2023-08-29T06:51:55Z</time>
      </trkpt>
      <trkpt lat="45.55027" lon="5.37632">
        <ele>334.6</ele>
        <time>2023-08-29T06:51:56Z</time>
      </trkpt>
      <trkpt lat="45.55026" lon="5.37639">
        <ele>334.6</ele>
        <time>2023-08-29T06:51:57Z</time>
      </trkpt>
      <trkpt lat="45.55025" lon="5.37645">
        <ele>334.8</ele>
        <time>2023-08-29T06:51:58Z</time>
      </trkpt>
      <trkpt lat="45.55024" lon="5.37652">
        <ele>335.2</ele>
        <time>2023-08-29T06:51:59Z</time>
      </trkpt>
      <trkpt lat="45.55024" lon="5.37658">
        <ele>335.4</ele>
        <time>2023-08-29T06:52:00Z</time>
      </trkpt>
      <trkpt lat="45.55023" lon="5.37664">
        <ele>335.4</ele>
        <time>2023-08-29T06:52:01Z</time>
      </trkpt>
      <trkpt lat="45.55022" lon="5.3767">
        <ele>335.6</ele>
        <time>2023-08-29T06:52:02Z</time>
      </trkpt>
      <trkpt lat="45.5502" lon="5.37677">
        <ele>336</ele>
        <time>2023-08-29T06:52:03Z</time>
      </trkpt>
      <trkpt lat="45.55019" lon="5.37683">
        <ele>336.2</ele>
        <time>2023-08-29T06:52:04Z</time>
      </trkpt>
      <trkpt lat="45.55017" lon="5.37689">
        <ele>336.4</ele>
        <time>2023-08-29T06:52:05Z</time>
      </trkpt>
      <trkpt lat="45.55016" lon="5.37695">
        <ele>336.4</ele>
        <time>2023-08-29T06:52:06Z</time>
      </trkpt>
      <trkpt lat="45.55015" lon="5.37701">
        <ele>336.4</ele>
        <time>2023-08-29T06:52:07Z</time>
      </trkpt>
      <trkpt lat="45.55013" lon="5.37707">
        <ele>336.6</ele>
        <time>2023-08-29T06:52:08Z</time>
      </trkpt>
      <trkpt lat="45.55012" lon="5.37712">
        <ele>337</ele>
        <time>2023-08-29T06:52:09Z</time>
      </trkpt>
      <trkpt lat="45.55011" lon="5.37718">
        <ele>337</ele>
        <time>2023-08-29T06:52:10Z</time>
      </trkpt>
      <trkpt lat="45.55009" lon="5.37723">
        <ele>337.2</ele>
        <time>2023-08-29T06:52:11Z</time>
      </trkpt>
      <trkpt lat="45.55008" lon="5.37729">
        <ele>337.2</ele>
        <time>2023-08-29T06:52:12Z</time>
      </trkpt>
      <trkpt lat="45.55006" lon="5.37734">
        <ele>337.4</ele>
        <time>2023-08-29T06:52:13Z</time>
      </trkpt>
      <trkpt lat="45.55005" lon="5.37741">
        <ele>337.4</ele>
        <time>2023-08-29T06:52:14Z</time>
      </trkpt>
      <trkpt lat="45.55004" lon="5.37747">
        <ele>337.6</ele>
        <time>2023-08-29T06:52:15Z</time>
      </trkpt>
      <trkpt lat="45.55002" lon="5.37753">
        <ele>337.6</ele>
        <time>2023-08-29T06:52:16Z</time>
      </trkpt>
      <trkpt lat="45.55" lon="5.37759">
        <ele>337.6</ele>
        <time>2023-08-29T06:52:17Z</time>
      </trkpt>
      <trkpt lat="45.54999" lon="5.37765">
        <ele>337.8</ele>
        <time>2023-08-29T06:52:18Z</time>
      </trkpt>
      <trkpt lat="45.54997" lon="5.37772">
        <ele>337.8</ele>
        <time>2023-08-29T06:52:19Z</time>
      </trkpt>
      <trkpt lat="45.54996" lon="5.37778">
        <ele>337.8</ele>
        <time>2023-08-29T06:52:20Z</time>
      </trkpt>
      <trkpt lat="45.54994" lon="5.37784">
        <ele>337.8</ele>
        <time>2023-08-29T06:52:21Z</time>
      </trkpt>
      <trkpt lat="45.54993" lon="5.37791">
        <ele>338</ele>
        <time>2023-08-29T06:52:22Z</time>
      </trkpt>
      <trkpt lat="45.54991" lon="5.37797">
        <ele>338.2</ele>
        <time>2023-08-29T06:52:23Z</time>
      </trkpt>
      <trkpt lat="45.54989" lon="5.37802">
        <ele>338.2</ele>
        <time>2023-08-29T06:52:24Z</time>
      </trkpt>
      <trkpt lat="45.54987" lon="5.37809">
        <ele>338.2</ele>
        <time>2023-08-29T06:52:25Z</time>
      </trkpt>
      <trkpt lat="45.54985" lon="5.37815">
        <ele>338.4</ele>
        <time>2023-08-29T06:52:26Z</time>
      </trkpt>
      <trkpt lat="45.54984" lon="5.37821">
        <ele>338.6</ele>
        <time>2023-08-29T06:52:27Z</time>
      </trkpt>
      <trkpt lat="45.54982" lon="5.37827">
        <ele>338.6</ele>
        <time>2023-08-29T06:52:28Z</time>
      </trkpt>
      <trkpt lat="45.54981" lon="5.37832">
        <ele>338.6</ele>
        <time>2023-08-29T06:52:29Z</time>
      </trkpt>
      <trkpt lat="45.5498" lon="5.37839">
        <ele>338.8</ele>
        <time>2023-08-29T06:52:30Z</time>
      </trkpt>
      <trkpt lat="45.54978" lon="5.37845">
        <ele>338.8</ele>
        <time>2023-08-29T06:52:31Z</time>
      </trkpt>
      <trkpt lat="45.54977" lon="5.37851">
        <ele>339</ele>
        <time>2023-08-29T06:52:32Z</time>
      </trkpt>
      <trkpt lat="45.54975" lon="5.37857">
        <ele>339.4</ele>
        <time>2023-08-29T06:52:33Z</time>
      </trkpt>
      <trkpt lat="45.54973" lon="5.37862">
        <ele>339.4</ele>
        <time>2023-08-29T06:52:34Z</time>
      </trkpt>
      <trkpt lat="45.54971" lon="5.37868">
        <ele>339.4</ele>
        <time>2023-08-29T06:52:35Z</time>
      </trkpt>
      <trkpt lat="45.54969" lon="5.37874">
        <ele>339.4</ele>
        <time>2023-08-29T06:52:36Z</time>
      </trkpt>
      <trkpt lat="45.54968" lon="5.3788">
        <ele>339.6</ele>
        <time>2023-08-29T06:52:37Z</time>
      </trkpt>
      <trkpt lat="45.54967" lon="5.37886">
        <ele>339.6</ele>
        <time>2023-08-29T06:52:38Z</time>
      </trkpt>
      <trkpt lat="45.54965" lon="5.37892">
        <ele>339.6</ele>
        <time>2023-08-29T06:52:39Z</time>
      </trkpt>
      <trkpt lat="45.54964" lon="5.37898">
        <ele>339.8</ele>
        <time>2023-08-29T06:52:40Z</time>
      </trkpt>
      <trkpt lat="45.54962" lon="5.37904">
        <ele>340</ele>
        <time>2023-08-29T06:52:41Z</time>
      </trkpt>
      <trkpt lat="45.54961" lon="5.3791">
        <ele>340</ele>
        <time>2023-08-29T06:52:42Z</time>
      </trkpt>
      <trkpt lat="45.54959" lon="5.37916">
        <ele>340</ele>
        <time>2023-08-29T06:52:43Z</time>
      </trkpt>
      <trkpt lat="45.54957" lon="5.37922">
        <ele>340</ele>
        <time>2023-08-29T06:52:44Z</time>
      </trkpt>
      <trkpt lat="45.54956" lon="5.37928">
        <ele>340</ele>
        <time>2023-08-29T06:52:45Z</time>
      </trkpt>
      <trkpt lat="45.54954" lon="5.37934">
        <ele>340</ele>
        <time>2023-08-29T06:52:46Z</time>
      </trkpt>
      <trkpt lat="45.54951" lon="5.3794">
        <ele>340</ele>
        <time>2023-08-29T06:52:47Z</time>
      </trkpt>
      <trkpt lat="45.54949" lon="5.37945">
        <ele>340</ele>
        <time>2023-08-29T06:52:48Z</time>
      </trkpt>
      <trkpt lat="45.54946" lon="5.37951">
        <ele>340</ele>
        <time>2023-08-29T06:52:49Z</time>
      </trkpt>
      <trkpt lat="45.54943" lon="5.37957">
        <ele>340</ele>
        <time>2023-08-29T06:52:50Z</time>
      </trkpt>
      <trkpt lat="45.54941" lon="5.37963">
        <ele>339.8</ele>
        <time>2023-08-29T06:52:51Z</time>
      </trkpt>
      <trkpt lat="45.54938" lon="5.37969">
        <ele>339.8</ele>
        <time>2023-08-29T06:52:52Z</time>
      </trkpt>
      <trkpt lat="45.54934" lon="5.37973">
        <ele>339.6</ele>
        <time>2023-08-29T06:52:53Z</time>
      </trkpt>
      <trkpt lat="45.54931" lon="5.37977">
        <ele>339.6</ele>
        <time>2023-08-29T06:52:54Z</time>
      </trkpt>
      <trkpt lat="45.54927" lon="5.37981">
        <ele>339.4</ele>
        <time>2023-08-29T06:52:55Z</time>
      </trkpt>
      <trkpt lat="45.54923" lon="5.37985">
        <ele>339.2</ele>
        <time>2023-08-29T06:52:56Z</time>
      </trkpt>
      <trkpt lat="45.54919" lon="5.37988">
        <ele>339.2</ele>
        <time>2023-08-29T06:52:57Z</time>
      </trkpt>
      <trkpt lat="45.54915" lon="5.37991">
        <ele>339.2</ele>
        <time>2023-08-29T06:52:58Z</time>
      </trkpt>
      <trkpt lat="45.54911" lon="5.37994">
        <ele>339.2</ele>
        <time>2023-08-29T06:52:59Z</time>
      </trkpt>
      <trkpt lat="45.54907" lon="5.37998">
        <ele>339.2</ele>
        <time>2023-08-29T06:53:00Z</time>
      </trkpt>
      <trkpt lat="45.54903" lon="5.38">
        <ele>339.2</ele>
        <time>2023-08-29T06:53:01Z</time>
      </trkpt>
      <trkpt lat="45.54899" lon="5.38002">
        <ele>339.2</ele>
        <time>2023-08-29T06:53:02Z</time>
      </trkpt>
      <trkpt lat="45.54896" lon="5.38004">
        <ele>339.2</ele>
        <time>2023-08-29T06:53:03Z</time>
      </trkpt>
      <trkpt lat="45.54892" lon="5.38006">
        <ele>339.2</ele>
        <time>2023-08-29T06:53:04Z</time>
      </trkpt>
      <trkpt lat="45.54888" lon="5.38009">
        <ele>339.2</ele>
        <time>2023-08-29T06:53:05Z</time>
      </trkpt>
      <trkpt lat="45.54884" lon="5.38011">
        <ele>339</ele>
        <time>2023-08-29T06:53:06Z</time>
      </trkpt>
      <trkpt lat="45.5488" lon="5.38013">
        <ele>339</ele>
        <time>2023-08-29T06:53:07Z</time>
      </trkpt>
      <trkpt lat="45.54876" lon="5.38015">
        <ele>339</ele>
        <time>2023-08-29T06:53:08Z</time>
      </trkpt>
      <trkpt lat="45.54871" lon="5.38017">
        <ele>339</ele>
        <time>2023-08-29T06:53:09Z</time>
      </trkpt>
      <trkpt lat="45.54867" lon="5.38019">
        <ele>339</ele>
        <time>2023-08-29T06:53:10Z</time>
      </trkpt>
      <trkpt lat="45.54862" lon="5.38022">
        <ele>339</ele>
        <time>2023-08-29T06:53:11Z</time>
      </trkpt>
      <trkpt lat="45.54857" lon="5.38024">
        <ele>339</ele>
        <time>2023-08-29T06:53:12Z</time>
      </trkpt>
      <trkpt lat="45.54853" lon="5.38027">
        <ele>339</ele>
        <time>2023-08-29T06:53:13Z</time>
      </trkpt>
      <trkpt lat="45.54849" lon="5.3803">
        <ele>339</ele>
        <time>2023-08-29T06:53:14Z</time>
      </trkpt>
      <trkpt lat="45.54845" lon="5.38033">
        <ele>339</ele>
        <time>2023-08-29T06:53:15Z</time>
      </trkpt>
      <trkpt lat="45.54841" lon="5.38036">
        <ele>339</ele>
        <time>2023-08-29T06:53:16Z</time>
      </trkpt>
      <trkpt lat="45.54837" lon="5.3804">
        <ele>339</ele>
        <time>2023-08-29T06:53:17Z</time>
      </trkpt>
      <trkpt lat="45.54834" lon="5.38044">
        <ele>339</ele>
        <time>2023-08-29T06:53:18Z</time>
      </trkpt>
      <trkpt lat="45.5483" lon="5.38048">
        <ele>339</ele>
        <time>2023-08-29T06:53:19Z</time>
      </trkpt>
      <trkpt lat="45.54827" lon="5.38053">
        <ele>339</ele>
        <time>2023-08-29T06:53:20Z</time>
      </trkpt>
      <trkpt lat="45.54824" lon="5.38059">
        <ele>339.2</ele>
        <time>2023-08-29T06:53:21Z</time>
      </trkpt>
      <trkpt lat="45.54822" lon="5.38064">
        <ele>339.4</ele>
        <time>2023-08-29T06:53:22Z</time>
      </trkpt>
      <trkpt lat="45.5482" lon="5.38069">
        <ele>339.4</ele>
        <time>2023-08-29T06:53:23Z</time>
      </trkpt>
      <trkpt lat="45.54818" lon="5.38076">
        <ele>339.6</ele>
        <time>2023-08-29T06:53:24Z</time>
      </trkpt>
      <trkpt lat="45.54817" lon="5.38082">
        <ele>339.6</ele>
        <time>2023-08-29T06:53:25Z</time>
      </trkpt>
      <trkpt lat="45.54816" lon="5.38088">
        <ele>339.8</ele>
        <time>2023-08-29T06:53:26Z</time>
      </trkpt>
      <trkpt lat="45.54816" lon="5.38096">
        <ele>340</ele>
        <time>2023-08-29T06:53:27Z</time>
      </trkpt>
      <trkpt lat="45.54816" lon="5.38102">
        <ele>340</ele>
        <time>2023-08-29T06:53:28Z</time>
      </trkpt>
      <trkpt lat="45.54816" lon="5.38109">
        <ele>340</ele>
        <time>2023-08-29T06:53:29Z</time>
      </trkpt>
      <trkpt lat="45.54817" lon="5.38116">
        <ele>340</ele>
        <time>2023-08-29T06:53:30Z</time>
      </trkpt>
      <trkpt lat="45.54818" lon="5.38124">
        <ele>340</ele>
        <time>2023-08-29T06:53:31Z</time>
      </trkpt>
      <trkpt lat="45.5482" lon="5.38131">
        <ele>340</ele>
        <time>2023-08-29T06:53:32Z</time>
      </trkpt>
      <trkpt lat="45.54821" lon="5.38139">
        <ele>339.8</ele>
        <time>2023-08-29T06:53:33Z</time>
      </trkpt>
      <trkpt lat="45.54823" lon="5.38146">
        <ele>339.8</ele>
        <time>2023-08-29T06:53:34Z</time>
      </trkpt>
      <trkpt lat="45.54824" lon="5.38153">
        <ele>339.6</ele>
        <time>2023-08-29T06:53:35Z</time>
      </trkpt>
      <trkpt lat="45.54825" lon="5.3816">
        <ele>339.4</ele>
        <time>2023-08-29T06:53:36Z</time>
      </trkpt>
      <trkpt lat="45.54826" lon="5.38167">
        <ele>339.2</ele>
        <time>2023-08-29T06:53:37Z</time>
      </trkpt>
      <trkpt lat="45.54828" lon="5.38175">
        <ele>339.2</ele>
        <time>2023-08-29T06:53:38Z</time>
      </trkpt>
      <trkpt lat="45.54829" lon="5.38183">
        <ele>339</ele>
        <time>2023-08-29T06:53:39Z</time>
      </trkpt>
      <trkpt lat="45.5483" lon="5.3819">
        <ele>339</ele>
        <time>2023-08-29T06:53:40Z</time>
      </trkpt>
      <trkpt lat="45.54831" lon="5.38198">
        <ele>338.8</ele>
        <time>2023-08-29T06:53:41Z</time>
      </trkpt>
      <trkpt lat="45.54832" lon="5.38205">
        <ele>338.6</ele>
        <time>2023-08-29T06:53:42Z</time>
      </trkpt>
      <trkpt lat="45.54834" lon="5.38213">
        <ele>338.4</ele>
        <time>2023-08-29T06:53:43Z</time>
      </trkpt>
      <trkpt lat="45.54834" lon="5.38221">
        <ele>338.4</ele>
        <time>2023-08-29T06:53:44Z</time>
      </trkpt>
      <trkpt lat="45.54835" lon="5.38229">
        <ele>338.4</ele>
        <time>2023-08-29T06:53:45Z</time>
      </trkpt>
      <trkpt lat="45.54836" lon="5.38236">
        <ele>338.4</ele>
        <time>2023-08-29T06:53:46Z</time>
      </trkpt>
      <trkpt lat="45.54836" lon="5.38245">
        <ele>338.4</ele>
        <time>2023-08-29T06:53:47Z</time>
      </trkpt>
      <trkpt lat="45.54837" lon="5.38253">
        <ele>338.4</ele>
        <time>2023-08-29T06:53:48Z</time>
      </trkpt>
      <trkpt lat="45.54837" lon="5.38261">
        <ele>338.2</ele>
        <time>2023-08-29T06:53:49Z</time>
      </trkpt>
      <trkpt lat="45.54837" lon="5.38269">
        <ele>338</ele>
        <time>2023-08-29T06:53:50Z</time>
      </trkpt>
      <trkpt lat="45.54837" lon="5.38277">
        <ele>337.8</ele>
        <time>2023-08-29T06:53:51Z</time>
      </trkpt>
      <trkpt lat="45.54837" lon="5.38285">
        <ele>337.8</ele>
        <time>2023-08-29T06:53:52Z</time>
      </trkpt>
      <trkpt lat="45.54837" lon="5.38292">
        <ele>337.8</ele>
        <time>2023-08-29T06:53:53Z</time>
      </trkpt>
      <trkpt lat="45.54837" lon="5.38299">
        <ele>337.8</ele>
        <time>2023-08-29T06:53:54Z</time>
      </trkpt>
      <trkpt lat="45.54837" lon="5.38306">
        <ele>337.8</ele>
        <time>2023-08-29T06:53:55Z</time>
      </trkpt>
      <trkpt lat="45.54837" lon="5.38313">
        <ele>337.8</ele>
        <time>2023-08-29T06:53:56Z</time>
      </trkpt>
      <trkpt lat="45.54837" lon="5.38321">
        <ele>337.8</ele>
        <time>2023-08-29T06:53:57Z</time>
      </trkpt>
      <trkpt lat="45.54838" lon="5.38328">
        <ele>337.8</ele>
        <time>2023-08-29T06:53:58Z</time>
      </trkpt>
      <trkpt lat="45.54838" lon="5.38335">
        <ele>337.8</ele>
        <time>2023-08-29T06:53:59Z</time>
      </trkpt>
      <trkpt lat="45.54839" lon="5.38342">
        <ele>337.8</ele>
        <time>2023-08-29T06:54:00Z</time>
      </trkpt>
      <trkpt lat="45.5484" lon="5.3835">
        <ele>338</ele>
        <time>2023-08-29T06:54:01Z</time>
      </trkpt>
      <trkpt lat="45.54841" lon="5.38358">
        <ele>338</ele>
        <time>2023-08-29T06:54:02Z</time>
      </trkpt>
      <trkpt lat="45.54842" lon="5.38366">
        <ele>338</ele>
        <time>2023-08-29T06:54:03Z</time>
      </trkpt>
      <trkpt lat="45.54843" lon="5.38373">
        <ele>338</ele>
        <time>2023-08-29T06:54:04Z</time>
      </trkpt>
      <trkpt lat="45.54845" lon="5.38381">
        <ele>338</ele>
        <time>2023-08-29T06:54:05Z</time>
      </trkpt>
      <trkpt lat="45.54847" lon="5.38389">
        <ele>338</ele>
        <time>2023-08-29T06:54:06Z</time>
      </trkpt>
      <trkpt lat="45.54848" lon="5.38397">
        <ele>337.8</ele>
        <time>2023-08-29T06:54:07Z</time>
      </trkpt>
      <trkpt lat="45.54851" lon="5.38405">
        <ele>337.6</ele>
        <time>2023-08-29T06:54:08Z</time>
      </trkpt>
      <trkpt lat="45.54853" lon="5.38413">
        <ele>337.4</ele>
        <time>2023-08-29T06:54:09Z</time>
      </trkpt>
      <trkpt lat="45.54855" lon="5.38421">
        <ele>337.4</ele>
        <time>2023-08-29T06:54:10Z</time>
      </trkpt>
      <trkpt lat="45.54857" lon="5.38428">
        <ele>337.2</ele>
        <time>2023-08-29T06:54:11Z</time>
      </trkpt>
      <trkpt lat="45.5486" lon="5.38436">
        <ele>337.2</ele>
        <time>2023-08-29T06:54:12Z</time>
      </trkpt>
      <trkpt lat="45.54862" lon="5.38444">
        <ele>337</ele>
        <time>2023-08-29T06:54:13Z</time>
      </trkpt>
      <trkpt lat="45.54864" lon="5.38451">
        <ele>337</ele>
        <time>2023-08-29T06:54:14Z</time>
      </trkpt>
      <trkpt lat="45.54865" lon="5.38458">
        <ele>337</ele>
        <time>2023-08-29T06:54:15Z</time>
      </trkpt>
      <trkpt lat="45.54868" lon="5.38466">
        <ele>336.8</ele>
        <time>2023-08-29T06:54:16Z</time>
      </trkpt>
      <trkpt lat="45.5487" lon="5.38473">
        <ele>336.8</ele>
        <time>2023-08-29T06:54:17Z</time>
      </trkpt>
      <trkpt lat="45.54872" lon="5.3848">
        <ele>336.8</ele>
        <time>2023-08-29T06:54:18Z</time>
      </trkpt>
      <trkpt lat="45.54874" lon="5.38486">
        <ele>336.8</ele>
        <time>2023-08-29T06:54:19Z</time>
      </trkpt>
      <trkpt lat="45.54876" lon="5.38492">
        <ele>337</ele>
        <time>2023-08-29T06:54:20Z</time>
      </trkpt>
      <trkpt lat="45.54878" lon="5.38499">
        <ele>337</ele>
        <time>2023-08-29T06:54:21Z</time>
      </trkpt>
      <trkpt lat="45.5488" lon="5.38505">
        <ele>337</ele>
        <time>2023-08-29T06:54:22Z</time>
      </trkpt>
      <trkpt lat="45.54882" lon="5.38512">
        <ele>337</ele>
        <time>2023-08-29T06:54:23Z</time>
      </trkpt>
      <trkpt lat="45.54883" lon="5.38518">
        <ele>337</ele>
        <time>2023-08-29T06:54:24Z</time>
      </trkpt>
      <trkpt lat="45.54885" lon="5.38524">
        <ele>337</ele>
        <time>2023-08-29T06:54:25Z</time>
      </trkpt>
      <trkpt lat="45.54887" lon="5.3853">
        <ele>337</ele>
        <time>2023-08-29T06:54:26Z</time>
      </trkpt>
      <trkpt lat="45.54889" lon="5.38536">
        <ele>337</ele>
        <time>2023-08-29T06:54:27Z</time>
      </trkpt>
      <trkpt lat="45.5489" lon="5.38542">
        <ele>337</ele>
        <time>2023-08-29T06:54:28Z</time>
      </trkpt>
      <trkpt lat="45.54892" lon="5.38546">
        <ele>337</ele>
        <time>2023-08-29T06:54:29Z</time>
      </trkpt>
      <trkpt lat="45.54893" lon="5.38552">
        <ele>337</ele>
        <time>2023-08-29T06:54:30Z</time>
      </trkpt>
      <trkpt lat="45.54895" lon="5.38557">
        <ele>337</ele>
        <time>2023-08-29T06:54:31Z</time>
      </trkpt>
      <trkpt lat="45.54896" lon="5.38562">
        <ele>337</ele>
        <time>2023-08-29T06:54:32Z</time>
      </trkpt>
      <trkpt lat="45.54898" lon="5.38567">
        <ele>337.2</ele>
        <time>2023-08-29T06:54:33Z</time>
      </trkpt>
      <trkpt lat="45.54899" lon="5.38572">
        <ele>337.2</ele>
        <time>2023-08-29T06:54:34Z</time>
      </trkpt>
      <trkpt lat="45.54901" lon="5.38578">
        <ele>337.4</ele>
        <time>2023-08-29T06:54:35Z</time>
      </trkpt>
      <trkpt lat="45.54903" lon="5.38583">
        <ele>337.6</ele>
        <time>2023-08-29T06:54:36Z</time>
      </trkpt>
      <trkpt lat="45.54904" lon="5.38588">
        <ele>337.6</ele>
        <time>2023-08-29T06:54:37Z</time>
      </trkpt>
      <trkpt lat="45.54905" lon="5.38593">
        <ele>337.8</ele>
        <time>2023-08-29T06:54:38Z</time>
      </trkpt>
      <trkpt lat="45.54906" lon="5.38598">
        <ele>338</ele>
        <time>2023-08-29T06:54:39Z</time>
      </trkpt>
      <trkpt lat="45.54906" lon="5.38603">
        <ele>338</ele>
        <time>2023-08-29T06:54:40Z</time>
      </trkpt>
      <trkpt lat="45.54904" lon="5.38607">
        <ele>338</ele>
        <time>2023-08-29T06:54:41Z</time>
      </trkpt>
      <trkpt lat="45.54902" lon="5.38612">
        <ele>338</ele>
        <time>2023-08-29T06:54:42Z</time>
      </trkpt>
      <trkpt lat="45.549" lon="5.38614">
        <ele>338</ele>
        <time>2023-08-29T06:54:43Z</time>
      </trkpt>
      <trkpt lat="45.54897" lon="5.38616">
        <ele>338.2</ele>
        <time>2023-08-29T06:54:44Z</time>
      </trkpt>
      <trkpt lat="45.54894" lon="5.38618">
        <ele>338.2</ele>
        <time>2023-08-29T06:54:45Z</time>
      </trkpt>
      <trkpt lat="45.54891" lon="5.38619">
        <ele>338.4</ele>
        <time>2023-08-29T06:54:46Z</time>
      </trkpt>
      <trkpt lat="45.54887" lon="5.3862">
        <ele>338.4</ele>
        <time>2023-08-29T06:54:47Z</time>
      </trkpt>
      <trkpt lat="45.54883" lon="5.3862">
        <ele>338.6</ele>
        <time>2023-08-29T06:54:48Z</time>
      </trkpt>
      <trkpt lat="45.54879" lon="5.38621">
        <ele>338.6</ele>
        <time>2023-08-29T06:54:49Z</time>
      </trkpt>
      <trkpt lat="45.54875" lon="5.38622">
        <ele>338.6</ele>
        <time>2023-08-29T06:54:50Z</time>
      </trkpt>
      <trkpt lat="45.54871" lon="5.38623">
        <ele>338.8</ele>
        <time>2023-08-29T06:54:51Z</time>
      </trkpt>
      <trkpt lat="45.54867" lon="5.38624">
        <ele>338.8</ele>
        <time>2023-08-29T06:54:52Z</time>
      </trkpt>
      <trkpt lat="45.54864" lon="5.38625">
        <ele>339</ele>
        <time>2023-08-29T06:54:53Z</time>
      </trkpt>
      <trkpt lat="45.5486" lon="5.38625">
        <ele>339</ele>
        <time>2023-08-29T06:54:54Z</time>
      </trkpt>
      <trkpt lat="45.54856" lon="5.38626">
        <ele>339</ele>
        <time>2023-08-29T06:54:55Z</time>
      </trkpt>
      <trkpt lat="45.54853" lon="5.38626">
        <ele>339.2</ele>
        <time>2023-08-29T06:54:56Z</time>
      </trkpt>
      <trkpt lat="45.54849" lon="5.38626">
        <ele>339.4</ele>
        <time>2023-08-29T06:54:57Z</time>
      </trkpt>
      <trkpt lat="45.54845" lon="5.38627">
        <ele>339.6</ele>
        <time>2023-08-29T06:54:58Z</time>
      </trkpt>
      <trkpt lat="45.54841" lon="5.38628">
        <ele>339.8</ele>
        <time>2023-08-29T06:54:59Z</time>
      </trkpt>
      <trkpt lat="45.54837" lon="5.38628">
        <ele>339.8</ele>
        <time>2023-08-29T06:55:00Z</time>
      </trkpt>
      <trkpt lat="45.54833" lon="5.38628">
        <ele>340</ele>
        <time>2023-08-29T06:55:01Z</time>
      </trkpt>
      <trkpt lat="45.54829" lon="5.38628">
        <ele>340.2</ele>
        <time>2023-08-29T06:55:02Z</time>
      </trkpt>
      <trkpt lat="45.54825" lon="5.38629">
        <ele>340.4</ele>
        <time>2023-08-29T06:55:03Z</time>
      </trkpt>
      <trkpt lat="45.54822" lon="5.3863">
        <ele>340.4</ele>
        <time>2023-08-29T06:55:04Z</time>
      </trkpt>
      <trkpt lat="45.54819" lon="5.3863">
        <ele>340.4</ele>
        <time>2023-08-29T06:55:05Z</time>
      </trkpt>
      <trkpt lat="45.54815" lon="5.3863">
        <ele>340.4</ele>
        <time>2023-08-29T06:55:06Z</time>
      </trkpt>
      <trkpt lat="45.54811" lon="5.3863">
        <ele>340.4</ele>
        <time>2023-08-29T06:55:07Z</time>
      </trkpt>
      <trkpt lat="45.54806" lon="5.3863">
        <ele>340.4</ele>
        <time>2023-08-29T06:55:08Z</time>
      </trkpt>
      <trkpt lat="45.54802" lon="5.38631">
        <ele>340.6</ele>
        <time>2023-08-29T06:55:09Z</time>
      </trkpt>
      <trkpt lat="45.54798" lon="5.38633">
        <ele>340.6</ele>
        <time>2023-08-29T06:55:10Z</time>
      </trkpt>
      <trkpt lat="45.54794" lon="5.38635">
        <ele>340.6</ele>
        <time>2023-08-29T06:55:11Z</time>
      </trkpt>
      <trkpt lat="45.5479" lon="5.38638">
        <ele>340.8</ele>
        <time>2023-08-29T06:55:12Z</time>
      </trkpt>
      <trkpt lat="45.54787" lon="5.38642">
        <ele>340.8</ele>
        <time>2023-08-29T06:55:13Z</time>
      </trkpt>
      <trkpt lat="45.54784" lon="5.38646">
        <ele>341</ele>
        <time>2023-08-29T06:55:14Z</time>
      </trkpt>
      <trkpt lat="45.54781" lon="5.38651">
        <ele>341.2</ele>
        <time>2023-08-29T06:55:15Z</time>
      </trkpt>
      <trkpt lat="45.54778" lon="5.38656">
        <ele>341.2</ele>
        <time>2023-08-29T06:55:16Z</time>
      </trkpt>
      <trkpt lat="45.54775" lon="5.38661">
        <ele>341.4</ele>
        <time>2023-08-29T06:55:17Z</time>
      </trkpt>
      <trkpt lat="45.54773" lon="5.38666">
        <ele>341.4</ele>
        <time>2023-08-29T06:55:18Z</time>
      </trkpt>
      <trkpt lat="45.5477" lon="5.38671">
        <ele>341.4</ele>
        <time>2023-08-29T06:55:19Z</time>
      </trkpt>
      <trkpt lat="45.54768" lon="5.38676">
        <ele>341.4</ele>
        <time>2023-08-29T06:55:20Z</time>
      </trkpt>
      <trkpt lat="45.54766" lon="5.38681">
        <ele>341.4</ele>
        <time>2023-08-29T06:55:21Z</time>
      </trkpt>
      <trkpt lat="45.54763" lon="5.38686">
        <ele>341.4</ele>
        <time>2023-08-29T06:55:22Z</time>
      </trkpt>
      <trkpt lat="45.5476" lon="5.38691">
        <ele>341.4</ele>
        <time>2023-08-29T06:55:23Z</time>
      </trkpt>
      <trkpt lat="45.54757" lon="5.38695">
        <ele>341.6</ele>
        <time>2023-08-29T06:55:24Z</time>
      </trkpt>
      <trkpt lat="45.54754" lon="5.387">
        <ele>341.6</ele>
        <time>2023-08-29T06:55:25Z</time>
      </trkpt>
      <trkpt lat="45.54751" lon="5.38704">
        <ele>341.6</ele>
        <time>2023-08-29T06:55:26Z</time>
      </trkpt>
      <trkpt lat="45.54749" lon="5.38709">
        <ele>341.6</ele>
        <time>2023-08-29T06:55:27Z</time>
      </trkpt>
      <trkpt lat="45.54746" lon="5.38713">
        <ele>341.8</ele>
        <time>2023-08-29T06:55:28Z</time>
      </trkpt>
      <trkpt lat="45.54743" lon="5.38716">
        <ele>341.8</ele>
        <time>2023-08-29T06:55:29Z</time>
      </trkpt>
      <trkpt lat="45.54739" lon="5.3872">
        <ele>342</ele>
        <time>2023-08-29T06:55:30Z</time>
      </trkpt>
      <trkpt lat="45.54736" lon="5.38724">
        <ele>342.2</ele>
        <time>2023-08-29T06:55:31Z</time>
      </trkpt>
      <trkpt lat="45.54732" lon="5.38728">
        <ele>342.2</ele>
        <time>2023-08-29T06:55:32Z</time>
      </trkpt>
      <trkpt lat="45.54728" lon="5.38733">
        <ele>342.2</ele>
        <time>2023-08-29T06:55:33Z</time>
      </trkpt>
      <trkpt lat="45.54724" lon="5.38737">
        <ele>342.4</ele>
        <time>2023-08-29T06:55:34Z</time>
      </trkpt>
      <trkpt lat="45.54721" lon="5.38742">
        <ele>342.4</ele>
        <time>2023-08-29T06:55:35Z</time>
      </trkpt>
      <trkpt lat="45.54717" lon="5.38746">
        <ele>342.4</ele>
        <time>2023-08-29T06:55:36Z</time>
      </trkpt>
      <trkpt lat="45.54714" lon="5.3875">
        <ele>342.6</ele>
        <time>2023-08-29T06:55:37Z</time>
      </trkpt>
      <trkpt lat="45.5471" lon="5.38754">
        <ele>342.4</ele>
        <time>2023-08-29T06:55:38Z</time>
      </trkpt>
      <trkpt lat="45.54707" lon="5.38759">
        <ele>342.4</ele>
        <time>2023-08-29T06:55:39Z</time>
      </trkpt>
      <trkpt lat="45.54704" lon="5.38763">
        <ele>342.4</ele>
        <time>2023-08-29T06:55:40Z</time>
      </trkpt>
      <trkpt lat="45.547" lon="5.38767">
        <ele>342.6</ele>
        <time>2023-08-29T06:55:41Z</time>
      </trkpt>
      <trkpt lat="45.54697" lon="5.38771">
        <ele>342.6</ele>
        <time>2023-08-29T06:55:42Z</time>
      </trkpt>
      <trkpt lat="45.54693" lon="5.38775">
        <ele>342.6</ele>
        <time>2023-08-29T06:55:43Z</time>
      </trkpt>
      <trkpt lat="45.5469" lon="5.3878">
        <ele>342.6</ele>
        <time>2023-08-29T06:55:44Z</time>
      </trkpt>
      <trkpt lat="45.54687" lon="5.38784">
        <ele>342.6</ele>
        <time>2023-08-29T06:55:45Z</time>
      </trkpt>
      <trkpt lat="45.54684" lon="5.38789">
        <ele>342.6</ele>
        <time>2023-08-29T06:55:46Z</time>
      </trkpt>
      <trkpt lat="45.54682" lon="5.38793">
        <ele>342.6</ele>
        <time>2023-08-29T06:55:47Z</time>
      </trkpt>
      <trkpt lat="45.54679" lon="5.38798">
        <ele>342.6</ele>
        <time>2023-08-29T06:55:48Z</time>
      </trkpt>
      <trkpt lat="45.54676" lon="5.38803">
        <ele>342.6</ele>
        <time>2023-08-29T06:55:49Z</time>
      </trkpt>
      <trkpt lat="45.54673" lon="5.38808">
        <ele>342.6</ele>
        <time>2023-08-29T06:55:50Z</time>
      </trkpt>
      <trkpt lat="45.54671" lon="5.38814">
        <ele>342.6</ele>
        <time>2023-08-29T06:55:51Z</time>
      </trkpt>
      <trkpt lat="45.54668" lon="5.38819">
        <ele>342.6</ele>
        <time>2023-08-29T06:55:52Z</time>
      </trkpt>
      <trkpt lat="45.54666" lon="5.38824">
        <ele>342.6</ele>
        <time>2023-08-29T06:55:53Z</time>
      </trkpt>
      <trkpt lat="45.54663" lon="5.3883">
        <ele>342.6</ele>
        <time>2023-08-29T06:55:54Z</time>
      </trkpt>
      <trkpt lat="45.54662" lon="5.38836">
        <ele>342.6</ele>
        <time>2023-08-29T06:55:55Z</time>
      </trkpt>
      <trkpt lat="45.5466" lon="5.38842">
        <ele>342.6</ele>
        <time>2023-08-29T06:55:56Z</time>
      </trkpt>
      <trkpt lat="45.54658" lon="5.38848">
        <ele>342.6</ele>
        <time>2023-08-29T06:55:57Z</time>
      </trkpt>
      <trkpt lat="45.54656" lon="5.38853">
        <ele>342.6</ele>
        <time>2023-08-29T06:55:58Z</time>
      </trkpt>
      <trkpt lat="45.54653" lon="5.38859">
        <ele>342.6</ele>
        <time>2023-08-29T06:55:59Z</time>
      </trkpt>
      <trkpt lat="45.5465" lon="5.38864">
        <ele>342.6</ele>
        <time>2023-08-29T06:56:00Z</time>
      </trkpt>
      <trkpt lat="45.54648" lon="5.3887">
        <ele>342.8</ele>
        <time>2023-08-29T06:56:01Z</time>
      </trkpt>
      <trkpt lat="45.54645" lon="5.38876">
        <ele>342.8</ele>
        <time>2023-08-29T06:56:02Z</time>
      </trkpt>
      <trkpt lat="45.54643" lon="5.38882">
        <ele>342.8</ele>
        <time>2023-08-29T06:56:03Z</time>
      </trkpt>
      <trkpt lat="45.5464" lon="5.38888">
        <ele>342.8</ele>
        <time>2023-08-29T06:56:04Z</time>
      </trkpt>
      <trkpt lat="45.54638" lon="5.38893">
        <ele>342.8</ele>
        <time>2023-08-29T06:56:05Z</time>
      </trkpt>
      <trkpt lat="45.54635" lon="5.38899">
        <ele>342.8</ele>
        <time>2023-08-29T06:56:06Z</time>
      </trkpt>
      <trkpt lat="45.54633" lon="5.38905">
        <ele>342.8</ele>
        <time>2023-08-29T06:56:07Z</time>
      </trkpt>
      <trkpt lat="45.54631" lon="5.38911">
        <ele>342.8</ele>
        <time>2023-08-29T06:56:08Z</time>
      </trkpt>
      <trkpt lat="45.54629" lon="5.38917">
        <ele>342.8</ele>
        <time>2023-08-29T06:56:09Z</time>
      </trkpt>
      <trkpt lat="45.54627" lon="5.38923">
        <ele>342.8</ele>
        <time>2023-08-29T06:56:10Z</time>
      </trkpt>
      <trkpt lat="45.54625" lon="5.38928">
        <ele>342.8</ele>
        <time>2023-08-29T06:56:11Z</time>
      </trkpt>
      <trkpt lat="45.54623" lon="5.38933">
        <ele>343</ele>
        <time>2023-08-29T06:56:12Z</time>
      </trkpt>
      <trkpt lat="45.54621" lon="5.38939">
        <ele>343</ele>
        <time>2023-08-29T06:56:13Z</time>
      </trkpt>
      <trkpt lat="45.54619" lon="5.38943">
        <ele>343</ele>
        <time>2023-08-29T06:56:14Z</time>
      </trkpt>
      <trkpt lat="45.54616" lon="5.38949">
        <ele>343</ele>
        <time>2023-08-29T06:56:15Z</time>
      </trkpt>
      <trkpt lat="45.54614" lon="5.38955">
        <ele>343</ele>
        <time>2023-08-29T06:56:16Z</time>
      </trkpt>
      <trkpt lat="45.54611" lon="5.38961">
        <ele>343</ele>
        <time>2023-08-29T06:56:17Z</time>
      </trkpt>
      <trkpt lat="45.54608" lon="5.38966">
        <ele>343</ele>
        <time>2023-08-29T06:56:18Z</time>
      </trkpt>
      <trkpt lat="45.54606" lon="5.38972">
        <ele>343</ele>
        <time>2023-08-29T06:56:19Z</time>
      </trkpt>
      <trkpt lat="45.54604" lon="5.38978">
        <ele>343</ele>
        <time>2023-08-29T06:56:20Z</time>
      </trkpt>
      <trkpt lat="45.54602" lon="5.38984">
        <ele>343</ele>
        <time>2023-08-29T06:56:21Z</time>
      </trkpt>
      <trkpt lat="45.546" lon="5.38989">
        <ele>343</ele>
        <time>2023-08-29T06:56:22Z</time>
      </trkpt>
      <trkpt lat="45.54598" lon="5.38994">
        <ele>343.4</ele>
        <time>2023-08-29T06:56:23Z</time>
      </trkpt>
      <trkpt lat="45.54596" lon="5.38999">
        <ele>343.6</ele>
        <time>2023-08-29T06:56:24Z</time>
      </trkpt>
      <trkpt lat="45.54593" lon="5.39003">
        <ele>343.8</ele>
        <time>2023-08-29T06:56:25Z</time>
      </trkpt>
      <trkpt lat="45.54591" lon="5.39009">
        <ele>344</ele>
        <time>2023-08-29T06:56:26Z</time>
      </trkpt>
      <trkpt lat="45.54588" lon="5.39014">
        <ele>344.2</ele>
        <time>2023-08-29T06:56:27Z</time>
      </trkpt>
      <trkpt lat="45.54586" lon="5.3902">
        <ele>344.4</ele>
        <time>2023-08-29T06:56:28Z</time>
      </trkpt>
      <trkpt lat="45.54584" lon="5.39025">
        <ele>344.6</ele>
        <time>2023-08-29T06:56:29Z</time>
      </trkpt>
      <trkpt lat="45.54582" lon="5.3903">
        <ele>344.8</ele>
        <time>2023-08-29T06:56:30Z</time>
      </trkpt>
      <trkpt lat="45.5458" lon="5.39035">
        <ele>345</ele>
        <time>2023-08-29T06:56:31Z</time>
      </trkpt>
      <trkpt lat="45.54578" lon="5.39041">
        <ele>345</ele>
        <time>2023-08-29T06:56:32Z</time>
      </trkpt>
      <trkpt lat="45.54576" lon="5.39047">
        <ele>345.2</ele>
        <time>2023-08-29T06:56:33Z</time>
      </trkpt>
      <trkpt lat="45.54573" lon="5.39052">
        <ele>345.2</ele>
        <time>2023-08-29T06:56:34Z</time>
      </trkpt>
      <trkpt lat="45.54571" lon="5.39058">
        <ele>345.2</ele>
        <time>2023-08-29T06:56:35Z</time>
      </trkpt>
      <trkpt lat="45.54569" lon="5.39063">
        <ele>345.2</ele>
        <time>2023-08-29T06:56:36Z</time>
      </trkpt>
      <trkpt lat="45.54567" lon="5.39069">
        <ele>345.2</ele>
        <time>2023-08-29T06:56:37Z</time>
      </trkpt>
      <trkpt lat="45.54564" lon="5.39074">
        <ele>345.2</ele>
        <time>2023-08-29T06:56:38Z</time>
      </trkpt>
      <trkpt lat="45.54562" lon="5.39079">
        <ele>345.2</ele>
        <time>2023-08-29T06:56:39Z</time>
      </trkpt>
      <trkpt lat="45.5456" lon="5.39084">
        <ele>345.2</ele>
        <time>2023-08-29T06:56:40Z</time>
      </trkpt>
      <trkpt lat="45.54557" lon="5.3909">
        <ele>345.2</ele>
        <time>2023-08-29T06:56:41Z</time>
      </trkpt>
      <trkpt lat="45.54555" lon="5.39094">
        <ele>345.2</ele>
        <time>2023-08-29T06:56:42Z</time>
      </trkpt>
      <trkpt lat="45.54552" lon="5.391">
        <ele>345.2</ele>
        <time>2023-08-29T06:56:43Z</time>
      </trkpt>
      <trkpt lat="45.54551" lon="5.39105">
        <ele>345.2</ele>
        <time>2023-08-29T06:56:44Z</time>
      </trkpt>
      <trkpt lat="45.54549" lon="5.3911">
        <ele>345.4</ele>
        <time>2023-08-29T06:56:45Z</time>
      </trkpt>
      <trkpt lat="45.54547" lon="5.39115">
        <ele>345.4</ele>
        <time>2023-08-29T06:56:46Z</time>
      </trkpt>
      <trkpt lat="45.54544" lon="5.3912">
        <ele>345.4</ele>
        <time>2023-08-29T06:56:47Z</time>
      </trkpt>
      <trkpt lat="45.54542" lon="5.39125">
        <ele>345.6</ele>
        <time>2023-08-29T06:56:48Z</time>
      </trkpt>
      <trkpt lat="45.5454" lon="5.3913">
        <ele>345.8</ele>
        <time>2023-08-29T06:56:49Z</time>
      </trkpt>
      <trkpt lat="45.54537" lon="5.39135">
        <ele>346</ele>
        <time>2023-08-29T06:56:50Z</time>
      </trkpt>
      <trkpt lat="45.54535" lon="5.3914">
        <ele>346</ele>
        <time>2023-08-29T06:56:51Z</time>
      </trkpt>
      <trkpt lat="45.54533" lon="5.39146">
        <ele>346.2</ele>
        <time>2023-08-29T06:56:52Z</time>
      </trkpt>
      <trkpt lat="45.54532" lon="5.39151">
        <ele>346.4</ele>
        <time>2023-08-29T06:56:53Z</time>
      </trkpt>
      <trkpt lat="45.54529" lon="5.39156">
        <ele>346.4</ele>
        <time>2023-08-29T06:56:54Z</time>
      </trkpt>
      <trkpt lat="45.54527" lon="5.39161">
        <ele>346.4</ele>
        <time>2023-08-29T06:56:55Z</time>
      </trkpt>
      <trkpt lat="45.54525" lon="5.39166">
        <ele>346.6</ele>
        <time>2023-08-29T06:56:56Z</time>
      </trkpt>
      <trkpt lat="45.54524" lon="5.39171">
        <ele>346.8</ele>
        <time>2023-08-29T06:56:57Z</time>
      </trkpt>
      <trkpt lat="45.54521" lon="5.39176">
        <ele>346.8</ele>
        <time>2023-08-29T06:56:58Z</time>
      </trkpt>
      <trkpt lat="45.54519" lon="5.39181">
        <ele>347.2</ele>
        <time>2023-08-29T06:56:59Z</time>
      </trkpt>
      <trkpt lat="45.54517" lon="5.39186">
        <ele>347.2</ele>
        <time>2023-08-29T06:57:00Z</time>
      </trkpt>
      <trkpt lat="45.54516" lon="5.39191">
        <ele>347.4</ele>
        <time>2023-08-29T06:57:01Z</time>
      </trkpt>
      <trkpt lat="45.54514" lon="5.39196">
        <ele>347.4</ele>
        <time>2023-08-29T06:57:02Z</time>
      </trkpt>
      <trkpt lat="45.54512" lon="5.392">
        <ele>347.8</ele>
        <time>2023-08-29T06:57:03Z</time>
      </trkpt>
      <trkpt lat="45.54509" lon="5.39205">
        <ele>347.8</ele>
        <time>2023-08-29T06:57:04Z</time>
      </trkpt>
      <trkpt lat="45.54507" lon="5.3921">
        <ele>347.8</ele>
        <time>2023-08-29T06:57:05Z</time>
      </trkpt>
      <trkpt lat="45.54505" lon="5.39215">
        <ele>348</ele>
        <time>2023-08-29T06:57:06Z</time>
      </trkpt>
      <trkpt lat="45.54503" lon="5.39219">
        <ele>348.2</ele>
        <time>2023-08-29T06:57:07Z</time>
      </trkpt>
      <trkpt lat="45.54501" lon="5.39224">
        <ele>348.6</ele>
        <time>2023-08-29T06:57:08Z</time>
      </trkpt>
      <trkpt lat="45.545" lon="5.39229">
        <ele>348.8</ele>
        <time>2023-08-29T06:57:09Z</time>
      </trkpt>
      <trkpt lat="45.54499" lon="5.39235">
        <ele>349</ele>
        <time>2023-08-29T06:57:10Z</time>
      </trkpt>
      <trkpt lat="45.54498" lon="5.39241">
        <ele>349</ele>
        <time>2023-08-29T06:57:11Z</time>
      </trkpt>
      <trkpt lat="45.54497" lon="5.39247">
        <ele>349.2</ele>
        <time>2023-08-29T06:57:12Z</time>
      </trkpt>
      <trkpt lat="45.54496" lon="5.39252">
        <ele>349.4</ele>
        <time>2023-08-29T06:57:13Z</time>
      </trkpt>
      <trkpt lat="45.54495" lon="5.39258">
        <ele>349.6</ele>
        <time>2023-08-29T06:57:14Z</time>
      </trkpt>
      <trkpt lat="45.54493" lon="5.39263">
        <ele>349.8</ele>
        <time>2023-08-29T06:57:15Z</time>
      </trkpt>
      <trkpt lat="45.54492" lon="5.39268">
        <ele>349.8</ele>
        <time>2023-08-29T06:57:16Z</time>
      </trkpt>
      <trkpt lat="45.5449" lon="5.39273">
        <ele>349.8</ele>
        <time>2023-08-29T06:57:17Z</time>
      </trkpt>
      <trkpt lat="45.54489" lon="5.39279">
        <ele>350</ele>
        <time>2023-08-29T06:57:18Z</time>
      </trkpt>
      <trkpt lat="45.54487" lon="5.39285">
        <ele>350.2</ele>
        <time>2023-08-29T06:57:19Z</time>
      </trkpt>
      <trkpt lat="45.54486" lon="5.3929">
        <ele>350.4</ele>
        <time>2023-08-29T06:57:20Z</time>
      </trkpt>
      <trkpt lat="45.54485" lon="5.39295">
        <ele>350.6</ele>
        <time>2023-08-29T06:57:21Z</time>
      </trkpt>
      <trkpt lat="45.54483" lon="5.393">
        <ele>350.6</ele>
        <time>2023-08-29T06:57:22Z</time>
      </trkpt>
      <trkpt lat="45.54482" lon="5.39305">
        <ele>351</ele>
        <time>2023-08-29T06:57:23Z</time>
      </trkpt>
      <trkpt lat="45.5448" lon="5.3931">
        <ele>351</ele>
        <time>2023-08-29T06:57:24Z</time>
      </trkpt>
      <trkpt lat="45.54478" lon="5.39314">
        <ele>351</ele>
        <time>2023-08-29T06:57:25Z</time>
      </trkpt>
      <trkpt lat="45.54476" lon="5.39319">
        <ele>351.2</ele>
        <time>2023-08-29T06:57:26Z</time>
      </trkpt>
      <trkpt lat="45.54475" lon="5.39323">
        <ele>351.2</ele>
        <time>2023-08-29T06:57:27Z</time>
      </trkpt>
      <trkpt lat="45.54473" lon="5.39328">
        <ele>351.2</ele>
        <time>2023-08-29T06:57:28Z</time>
      </trkpt>
      <trkpt lat="45.54471" lon="5.39332">
        <ele>351.4</ele>
        <time>2023-08-29T06:57:29Z</time>
      </trkpt>
      <trkpt lat="45.54469" lon="5.39337">
        <ele>351.4</ele>
        <time>2023-08-29T06:57:30Z</time>
      </trkpt>
      <trkpt lat="45.54467" lon="5.39342">
        <ele>351.4</ele>
        <time>2023-08-29T06:57:31Z</time>
      </trkpt>
      <trkpt lat="45.54465" lon="5.39347">
        <ele>351.4</ele>
        <time>2023-08-29T06:57:32Z</time>
      </trkpt>
      <trkpt lat="45.54463" lon="5.39352">
        <ele>351.8</ele>
        <time>2023-08-29T06:57:33Z</time>
      </trkpt>
      <trkpt lat="45.54462" lon="5.39357">
        <ele>351.8</ele>
        <time>2023-08-29T06:57:34Z</time>
      </trkpt>
      <trkpt lat="45.5446" lon="5.39361">
        <ele>351.8</ele>
        <time>2023-08-29T06:57:35Z</time>
      </trkpt>
      <trkpt lat="45.54459" lon="5.39367">
        <ele>352</ele>
        <time>2023-08-29T06:57:36Z</time>
      </trkpt>
      <trkpt lat="45.54457" lon="5.39372">
        <ele>352</ele>
        <time>2023-08-29T06:57:37Z</time>
      </trkpt>
      <trkpt lat="45.54456" lon="5.39377">
        <ele>352.2</ele>
        <time>2023-08-29T06:57:38Z</time>
      </trkpt>
      <trkpt lat="45.54454" lon="5.39382">
        <ele>352.2</ele>
        <time>2023-08-29T06:57:39Z</time>
      </trkpt>
      <trkpt lat="45.54452" lon="5.39387">
        <ele>352.2</ele>
        <time>2023-08-29T06:57:40Z</time>
      </trkpt>
      <trkpt lat="45.54451" lon="5.39393">
        <ele>352.2</ele>
        <time>2023-08-29T06:57:41Z</time>
      </trkpt>
      <trkpt lat="45.54449" lon="5.39398">
        <ele>352.2</ele>
        <time>2023-08-29T06:57:42Z</time>
      </trkpt>
      <trkpt lat="45.54448" lon="5.39402">
        <ele>352.2</ele>
        <time>2023-08-29T06:57:43Z</time>
      </trkpt>
      <trkpt lat="45.54446" lon="5.39408">
        <ele>352.2</ele>
        <time>2023-08-29T06:57:44Z</time>
      </trkpt>
      <trkpt lat="45.54445" lon="5.39413">
        <ele>352.4</ele>
        <time>2023-08-29T06:57:45Z</time>
      </trkpt>
      <trkpt lat="45.54444" lon="5.39418">
        <ele>352.4</ele>
        <time>2023-08-29T06:57:46Z</time>
      </trkpt>
      <trkpt lat="45.54442" lon="5.39423">
        <ele>352.6</ele>
        <time>2023-08-29T06:57:47Z</time>
      </trkpt>
      <trkpt lat="45.54441" lon="5.39428">
        <ele>352.6</ele>
        <time>2023-08-29T06:57:48Z</time>
      </trkpt>
      <trkpt lat="45.54439" lon="5.39434">
        <ele>352.8</ele>
        <time>2023-08-29T06:57:49Z</time>
      </trkpt>
      <trkpt lat="45.54438" lon="5.39438">
        <ele>352.8</ele>
        <time>2023-08-29T06:57:50Z</time>
      </trkpt>
      <trkpt lat="45.54436" lon="5.39443">
        <ele>352.8</ele>
        <time>2023-08-29T06:57:51Z</time>
      </trkpt>
      <trkpt lat="45.54434" lon="5.39448">
        <ele>352.8</ele>
        <time>2023-08-29T06:57:52Z</time>
      </trkpt>
      <trkpt lat="45.54433" lon="5.39453">
        <ele>352.8</ele>
        <time>2023-08-29T06:57:53Z</time>
      </trkpt>
      <trkpt lat="45.54432" lon="5.39458">
        <ele>352.8</ele>
        <time>2023-08-29T06:57:54Z</time>
      </trkpt>
      <trkpt lat="45.54431" lon="5.39464">
        <ele>353</ele>
        <time>2023-08-29T06:57:55Z</time>
      </trkpt>
      <trkpt lat="45.54429" lon="5.39469">
        <ele>353</ele>
        <time>2023-08-29T06:57:56Z</time>
      </trkpt>
      <trkpt lat="45.54427" lon="5.39474">
        <ele>353</ele>
        <time>2023-08-29T06:57:57Z</time>
      </trkpt>
      <trkpt lat="45.54426" lon="5.3948">
        <ele>353</ele>
        <time>2023-08-29T06:57:58Z</time>
      </trkpt>
      <trkpt lat="45.54424" lon="5.39485">
        <ele>353</ele>
        <time>2023-08-29T06:57:59Z</time>
      </trkpt>
      <trkpt lat="45.54422" lon="5.3949">
        <ele>353.2</ele>
        <time>2023-08-29T06:58:00Z</time>
      </trkpt>
      <trkpt lat="45.5442" lon="5.39496">
        <ele>353.2</ele>
        <time>2023-08-29T06:58:01Z</time>
      </trkpt>
      <trkpt lat="45.54418" lon="5.39501">
        <ele>353.4</ele>
        <time>2023-08-29T06:58:02Z</time>
      </trkpt>
      <trkpt lat="45.54416" lon="5.39506">
        <ele>353.4</ele>
        <time>2023-08-29T06:58:03Z</time>
      </trkpt>
      <trkpt lat="45.54414" lon="5.3951">
        <ele>353.6</ele>
        <time>2023-08-29T06:58:04Z</time>
      </trkpt>
      <trkpt lat="45.54412" lon="5.39515">
        <ele>353.6</ele>
        <time>2023-08-29T06:58:05Z</time>
      </trkpt>
      <trkpt lat="45.5441" lon="5.3952">
        <ele>353.6</ele>
        <time>2023-08-29T06:58:06Z</time>
      </trkpt>
      <trkpt lat="45.54407" lon="5.39524">
        <ele>353.8</ele>
        <time>2023-08-29T06:58:07Z</time>
      </trkpt>
      <trkpt lat="45.54405" lon="5.39528">
        <ele>353.8</ele>
        <time>2023-08-29T06:58:08Z</time>
      </trkpt>
      <trkpt lat="45.54403" lon="5.39532">
        <ele>353.8</ele>
        <time>2023-08-29T06:58:09Z</time>
      </trkpt>
      <trkpt lat="45.544" lon="5.39537">
        <ele>354</ele>
        <time>2023-08-29T06:58:10Z</time>
      </trkpt>
      <trkpt lat="45.54398" lon="5.39542">
        <ele>354</ele>
        <time>2023-08-29T06:58:11Z</time>
      </trkpt>
      <trkpt lat="45.54396" lon="5.39547">
        <ele>354</ele>
        <time>2023-08-29T06:58:12Z</time>
      </trkpt>
      <trkpt lat="45.54394" lon="5.39551">
        <ele>354</ele>
        <time>2023-08-29T06:58:13Z</time>
      </trkpt>
      <trkpt lat="45.54392" lon="5.39556">
        <ele>354.2</ele>
        <time>2023-08-29T06:58:14Z</time>
      </trkpt>
      <trkpt lat="45.5439" lon="5.3956">
        <ele>354.2</ele>
        <time>2023-08-29T06:58:15Z</time>
      </trkpt>
      <trkpt lat="45.54388" lon="5.39565">
        <ele>354.2</ele>
        <time>2023-08-29T06:58:16Z</time>
      </trkpt>
      <trkpt lat="45.54385" lon="5.3957">
        <ele>354.4</ele>
        <time>2023-08-29T06:58:17Z</time>
      </trkpt>
      <trkpt lat="45.54383" lon="5.39575">
        <ele>354.4</ele>
        <time>2023-08-29T06:58:18Z</time>
      </trkpt>
      <trkpt lat="45.5438" lon="5.3958">
        <ele>354.4</ele>
        <time>2023-08-29T06:58:19Z</time>
      </trkpt>
      <trkpt lat="45.54378" lon="5.39585">
        <ele>354.4</ele>
        <time>2023-08-29T06:58:20Z</time>
      </trkpt>
      <trkpt lat="45.54376" lon="5.39591">
        <ele>354.6</ele>
        <time>2023-08-29T06:58:21Z</time>
      </trkpt>
      <trkpt lat="45.54375" lon="5.39596">
        <ele>354.6</ele>
        <time>2023-08-29T06:58:22Z</time>
      </trkpt>
      <trkpt lat="45.54373" lon="5.39602">
        <ele>354.8</ele>
        <time>2023-08-29T06:58:23Z</time>
      </trkpt>
      <trkpt lat="45.54372" lon="5.39608">
        <ele>354.8</ele>
        <time>2023-08-29T06:58:24Z</time>
      </trkpt>
      <trkpt lat="45.5437" lon="5.39614">
        <ele>354.8</ele>
        <time>2023-08-29T06:58:25Z</time>
      </trkpt>
      <trkpt lat="45.54369" lon="5.39619">
        <ele>354.8</ele>
        <time>2023-08-29T06:58:26Z</time>
      </trkpt>
      <trkpt lat="45.54369" lon="5.39624">
        <ele>354.8</ele>
        <time>2023-08-29T06:58:27Z</time>
      </trkpt>
      <trkpt lat="45.54368" lon="5.3963">
        <ele>354.8</ele>
        <time>2023-08-29T06:58:28Z</time>
      </trkpt>
      <trkpt lat="45.54367" lon="5.39635">
        <ele>355</ele>
        <time>2023-08-29T06:58:29Z</time>
      </trkpt>
      <trkpt lat="45.54365" lon="5.39641">
        <ele>355</ele>
        <time>2023-08-29T06:58:30Z</time>
      </trkpt>
      <trkpt lat="45.54364" lon="5.39646">
        <ele>355</ele>
        <time>2023-08-29T06:58:31Z</time>
      </trkpt>
      <trkpt lat="45.54362" lon="5.39652">
        <ele>355</ele>
        <time>2023-08-29T06:58:32Z</time>
      </trkpt>
      <trkpt lat="45.54361" lon="5.39658">
        <ele>355.2</ele>
        <time>2023-08-29T06:58:33Z</time>
      </trkpt>
      <trkpt lat="45.5436" lon="5.39664">
        <ele>355.2</ele>
        <time>2023-08-29T06:58:34Z</time>
      </trkpt>
      <trkpt lat="45.54359" lon="5.39671">
        <ele>355.2</ele>
        <time>2023-08-29T06:58:35Z</time>
      </trkpt>
      <trkpt lat="45.54359" lon="5.39677">
        <ele>355.2</ele>
        <time>2023-08-29T06:58:36Z</time>
      </trkpt>
      <trkpt lat="45.54358" lon="5.39683">
        <ele>355.2</ele>
        <time>2023-08-29T06:58:37Z</time>
      </trkpt>
      <trkpt lat="45.54357" lon="5.39689">
        <ele>355.2</ele>
        <time>2023-08-29T06:58:38Z</time>
      </trkpt>
      <trkpt lat="45.54356" lon="5.39694">
        <ele>355.2</ele>
        <time>2023-08-29T06:58:39Z</time>
      </trkpt>
      <trkpt lat="45.54354" lon="5.397">
        <ele>355.2</ele>
        <time>2023-08-29T06:58:40Z</time>
      </trkpt>
      <trkpt lat="45.54352" lon="5.39704">
        <ele>355.4</ele>
        <time>2023-08-29T06:58:41Z</time>
      </trkpt>
      <trkpt lat="45.5435" lon="5.39709">
        <ele>355.4</ele>
        <time>2023-08-29T06:58:42Z</time>
      </trkpt>
      <trkpt lat="45.54347" lon="5.39713">
        <ele>355.4</ele>
        <time>2023-08-29T06:58:43Z</time>
      </trkpt>
      <trkpt lat="45.54344" lon="5.39717">
        <ele>355.4</ele>
        <time>2023-08-29T06:58:44Z</time>
      </trkpt>
      <trkpt lat="45.5434" lon="5.39722">
        <ele>355.4</ele>
        <time>2023-08-29T06:58:45Z</time>
      </trkpt>
      <trkpt lat="45.54337" lon="5.39726">
        <ele>355.6</ele>
        <time>2023-08-29T06:58:46Z</time>
      </trkpt>
      <trkpt lat="45.54334" lon="5.3973">
        <ele>355.6</ele>
        <time>2023-08-29T06:58:47Z</time>
      </trkpt>
      <trkpt lat="45.54331" lon="5.39735">
        <ele>355.6</ele>
        <time>2023-08-29T06:58:48Z</time>
      </trkpt>
      <trkpt lat="45.54329" lon="5.3974">
        <ele>355.6</ele>
        <time>2023-08-29T06:58:49Z</time>
      </trkpt>
      <trkpt lat="45.54327" lon="5.39745">
        <ele>355.8</ele>
        <time>2023-08-29T06:58:50Z</time>
      </trkpt>
      <trkpt lat="45.54324" lon="5.39749">
        <ele>355.8</ele>
        <time>2023-08-29T06:58:51Z</time>
      </trkpt>
      <trkpt lat="45.54321" lon="5.39754">
        <ele>355.8</ele>
        <time>2023-08-29T06:58:52Z</time>
      </trkpt>
      <trkpt lat="45.54318" lon="5.39758">
        <ele>356</ele>
        <time>2023-08-29T06:58:53Z</time>
      </trkpt>
      <trkpt lat="45.54315" lon="5.39763">
        <ele>356.2</ele>
        <time>2023-08-29T06:58:54Z</time>
      </trkpt>
      <trkpt lat="45.54312" lon="5.39768">
        <ele>356.2</ele>
        <time>2023-08-29T06:58:55Z</time>
      </trkpt>
      <trkpt lat="45.54309" lon="5.39773">
        <ele>356.2</ele>
        <time>2023-08-29T06:58:56Z</time>
      </trkpt>
      <trkpt lat="45.54306" lon="5.39778">
        <ele>356.2</ele>
        <time>2023-08-29T06:58:57Z</time>
      </trkpt>
      <trkpt lat="45.54303" lon="5.39783">
        <ele>356.2</ele>
        <time>2023-08-29T06:58:58Z</time>
      </trkpt>
      <trkpt lat="45.543" lon="5.39787">
        <ele>356.2</ele>
        <time>2023-08-29T06:58:59Z</time>
      </trkpt>
      <trkpt lat="45.54297" lon="5.39792">
        <ele>356.2</ele>
        <time>2023-08-29T06:59:00Z</time>
      </trkpt>
      <trkpt lat="45.54294" lon="5.39797">
        <ele>356.2</ele>
        <time>2023-08-29T06:59:01Z</time>
      </trkpt>
      <trkpt lat="45.54291" lon="5.39802">
        <ele>356.2</ele>
        <time>2023-08-29T06:59:02Z</time>
      </trkpt>
      <trkpt lat="45.54288" lon="5.39807">
        <ele>356.2</ele>
        <time>2023-08-29T06:59:03Z</time>
      </trkpt>
      <trkpt lat="45.54286" lon="5.39812">
        <ele>356.2</ele>
        <time>2023-08-29T06:59:04Z</time>
      </trkpt>
      <trkpt lat="45.54283" lon="5.39817">
        <ele>356.2</ele>
        <time>2023-08-29T06:59:05Z</time>
      </trkpt>
      <trkpt lat="45.54281" lon="5.39822">
        <ele>356</ele>
        <time>2023-08-29T06:59:06Z</time>
      </trkpt>
      <trkpt lat="45.54278" lon="5.39827">
        <ele>356</ele>
        <time>2023-08-29T06:59:07Z</time>
      </trkpt>
      <trkpt lat="45.54276" lon="5.39832">
        <ele>356</ele>
        <time>2023-08-29T06:59:08Z</time>
      </trkpt>
      <trkpt lat="45.54273" lon="5.39838">
        <ele>356</ele>
        <time>2023-08-29T06:59:09Z</time>
      </trkpt>
      <trkpt lat="45.54269" lon="5.39843">
        <ele>356.2</ele>
        <time>2023-08-29T06:59:10Z</time>
      </trkpt>
      <trkpt lat="45.54266" lon="5.39848">
        <ele>356.4</ele>
        <time>2023-08-29T06:59:11Z</time>
      </trkpt>
      <trkpt lat="45.54264" lon="5.39854">
        <ele>356.4</ele>
        <time>2023-08-29T06:59:12Z</time>
      </trkpt>
      <trkpt lat="45.54261" lon="5.3986">
        <ele>356.4</ele>
        <time>2023-08-29T06:59:13Z</time>
      </trkpt>
      <trkpt lat="45.5426" lon="5.39866">
        <ele>356.4</ele>
        <time>2023-08-29T06:59:14Z</time>
      </trkpt>
      <trkpt lat="45.54257" lon="5.39871">
        <ele>356.4</ele>
        <time>2023-08-29T06:59:15Z</time>
      </trkpt>
      <trkpt lat="45.54254" lon="5.39877">
        <ele>356.4</ele>
        <time>2023-08-29T06:59:16Z</time>
      </trkpt>
      <trkpt lat="45.54252" lon="5.39882">
        <ele>356.4</ele>
        <time>2023-08-29T06:59:17Z</time>
      </trkpt>
      <trkpt lat="45.54251" lon="5.39889">
        <ele>356.4</ele>
        <time>2023-08-29T06:59:18Z</time>
      </trkpt>
      <trkpt lat="45.5425" lon="5.39895">
        <ele>356.6</ele>
        <time>2023-08-29T06:59:19Z</time>
      </trkpt>
      <trkpt lat="45.54249" lon="5.399">
        <ele>356.8</ele>
        <time>2023-08-29T06:59:20Z</time>
      </trkpt>
      <trkpt lat="45.54248" lon="5.39905">
        <ele>357</ele>
        <time>2023-08-29T06:59:21Z</time>
      </trkpt>
      <trkpt lat="45.54247" lon="5.39911">
        <ele>357.2</ele>
        <time>2023-08-29T06:59:22Z</time>
      </trkpt>
      <trkpt lat="45.54245" lon="5.39917">
        <ele>357.4</ele>
        <time>2023-08-29T06:59:23Z</time>
      </trkpt>
      <trkpt lat="45.54245" lon="5.39923">
        <ele>357.8</ele>
        <time>2023-08-29T06:59:24Z</time>
      </trkpt>
      <trkpt lat="45.54244" lon="5.39929">
        <ele>357.8</ele>
        <time>2023-08-29T06:59:25Z</time>
      </trkpt>
      <trkpt lat="45.54244" lon="5.39934">
        <ele>358</ele>
        <time>2023-08-29T06:59:26Z</time>
      </trkpt>
      <trkpt lat="45.54244" lon="5.39939">
        <ele>358</ele>
        <time>2023-08-29T06:59:27Z</time>
      </trkpt>
      <trkpt lat="45.54244" lon="5.39943">
        <ele>358</ele>
        <time>2023-08-29T06:59:28Z</time>
      </trkpt>
      <trkpt lat="45.54244" lon="5.39948">
        <ele>358</ele>
        <time>2023-08-29T06:59:29Z</time>
      </trkpt>
      <trkpt lat="45.54244" lon="5.39953">
        <ele>358.4</ele>
        <time>2023-08-29T06:59:30Z</time>
      </trkpt>
      <trkpt lat="45.54243" lon="5.39958">
        <ele>358.4</ele>
        <time>2023-08-29T06:59:31Z</time>
      </trkpt>
      <trkpt lat="45.54243" lon="5.39964">
        <ele>358.8</ele>
        <time>2023-08-29T06:59:32Z</time>
      </trkpt>
      <trkpt lat="45.54242" lon="5.39971">
        <ele>359</ele>
        <time>2023-08-29T06:59:33Z</time>
      </trkpt>
      <trkpt lat="45.54242" lon="5.39978">
        <ele>359.2</ele>
        <time>2023-08-29T06:59:34Z</time>
      </trkpt>
      <trkpt lat="45.54242" lon="5.39984">
        <ele>359.4</ele>
        <time>2023-08-29T06:59:35Z</time>
      </trkpt>
      <trkpt lat="45.54243" lon="5.39991">
        <ele>359.4</ele>
        <time>2023-08-29T06:59:36Z</time>
      </trkpt>
      <trkpt lat="45.54243" lon="5.39996">
        <ele>359.6</ele>
        <time>2023-08-29T06:59:37Z</time>
      </trkpt>
      <trkpt lat="45.54242" lon="5.40002">
        <ele>359.6</ele>
        <time>2023-08-29T06:59:38Z</time>
      </trkpt>
      <trkpt lat="45.5424" lon="5.40007">
        <ele>359.6</ele>
        <time>2023-08-29T06:59:39Z</time>
      </trkpt>
      <trkpt lat="45.54238" lon="5.40012">
        <ele>359.8</ele>
        <time>2023-08-29T06:59:40Z</time>
      </trkpt>
      <trkpt lat="45.54235" lon="5.40016">
        <ele>360</ele>
        <time>2023-08-29T06:59:41Z</time>
      </trkpt>
      <trkpt lat="45.54232" lon="5.40021">
        <ele>360.2</ele>
        <time>2023-08-29T06:59:42Z</time>
      </trkpt>
      <trkpt lat="45.5423" lon="5.40025">
        <ele>360.2</ele>
        <time>2023-08-29T06:59:43Z</time>
      </trkpt>
      <trkpt lat="45.54228" lon="5.40029">
        <ele>360.4</ele>
        <time>2023-08-29T06:59:44Z</time>
      </trkpt>
      <trkpt lat="45.54226" lon="5.40034">
        <ele>360.6</ele>
        <time>2023-08-29T06:59:45Z</time>
      </trkpt>
      <trkpt lat="45.54224" lon="5.40039">
        <ele>360.8</ele>
        <time>2023-08-29T06:59:46Z</time>
      </trkpt>
      <trkpt lat="45.54222" lon="5.40043">
        <ele>360.8</ele>
        <time>2023-08-29T06:59:47Z</time>
      </trkpt>
      <trkpt lat="45.54219" lon="5.40048">
        <ele>360.8</ele>
        <time>2023-08-29T06:59:48Z</time>
      </trkpt>
      <trkpt lat="45.54216" lon="5.40052">
        <ele>360.8</ele>
        <time>2023-08-29T06:59:49Z</time>
      </trkpt>
      <trkpt lat="45.54213" lon="5.40056">
        <ele>360.8</ele>
        <time>2023-08-29T06:59:50Z</time>
      </trkpt>
      <trkpt lat="45.5421" lon="5.40061">
        <ele>360.8</ele>
        <time>2023-08-29T06:59:51Z</time>
      </trkpt>
      <trkpt lat="45.54207" lon="5.40066">
        <ele>360.8</ele>
        <time>2023-08-29T06:59:52Z</time>
      </trkpt>
      <trkpt lat="45.54204" lon="5.4007">
        <ele>360.8</ele>
        <time>2023-08-29T06:59:53Z</time>
      </trkpt>
      <trkpt lat="45.54201" lon="5.40075">
        <ele>360.8</ele>
        <time>2023-08-29T06:59:54Z</time>
      </trkpt>
      <trkpt lat="45.54198" lon="5.40079">
        <ele>360.8</ele>
        <time>2023-08-29T06:59:55Z</time>
      </trkpt>
      <trkpt lat="45.54196" lon="5.40083">
        <ele>360.8</ele>
        <time>2023-08-29T06:59:56Z</time>
      </trkpt>
      <trkpt lat="45.54193" lon="5.40087">
        <ele>360.8</ele>
        <time>2023-08-29T06:59:57Z</time>
      </trkpt>
      <trkpt lat="45.5419" lon="5.40091">
        <ele>360.8</ele>
        <time>2023-08-29T06:59:58Z</time>
      </trkpt>
      <trkpt lat="45.54188" lon="5.40095">
        <ele>360.8</ele>
        <time>2023-08-29T06:59:59Z</time>
      </trkpt>
      <trkpt lat="45.54185" lon="5.40099">
        <ele>360.8</ele>
        <time>2023-08-29T07:00:00Z</time>
      </trkpt>
      <trkpt lat="45.54183" lon="5.40103">
        <ele>360.8</ele>
        <time>2023-08-29T07:00:01Z</time>
      </trkpt>
      <trkpt lat="45.5418" lon="5.40107">
        <ele>361</ele>
        <time>2023-08-29T07:00:02Z</time>
      </trkpt>
      <trkpt lat="45.54177" lon="5.40111">
        <ele>361</ele>
        <time>2023-08-29T07:00:03Z</time>
      </trkpt>
      <trkpt lat="45.54174" lon="5.40115">
        <ele>361</ele>
        <time>2023-08-29T07:00:04Z</time>
      </trkpt>
      <trkpt lat="45.54171" lon="5.40119">
        <ele>361.2</ele>
        <time>2023-08-29T07:00:05Z</time>
      </trkpt>
      <trkpt lat="45.54168" lon="5.40123">
        <ele>361.2</ele>
        <time>2023-08-29T07:00:06Z</time>
      </trkpt>
      <trkpt lat="45.54165" lon="5.40128">
        <ele>361.4</ele>
        <time>2023-08-29T07:00:07Z</time>
      </trkpt>
      <trkpt lat="45.54162" lon="5.40133">
        <ele>361.4</ele>
        <time>2023-08-29T07:00:08Z</time>
      </trkpt>
      <trkpt lat="45.54159" lon="5.40137">
        <ele>361.6</ele>
        <time>2023-08-29T07:00:09Z</time>
      </trkpt>
      <trkpt lat="45.54155" lon="5.40141">
        <ele>361.6</ele>
        <time>2023-08-29T07:00:10Z</time>
      </trkpt>
      <trkpt lat="45.54152" lon="5.40146">
        <ele>361.6</ele>
        <time>2023-08-29T07:00:11Z</time>
      </trkpt>
      <trkpt lat="45.54149" lon="5.4015">
        <ele>361.6</ele>
        <time>2023-08-29T07:00:12Z</time>
      </trkpt>
      <trkpt lat="45.54146" lon="5.40155">
        <ele>361.6</ele>
        <time>2023-08-29T07:00:13Z</time>
      </trkpt>
      <trkpt lat="45.54143" lon="5.40159">
        <ele>361.6</ele>
        <time>2023-08-29T07:00:14Z</time>
      </trkpt>
      <trkpt lat="45.5414" lon="5.40164">
        <ele>361.6</ele>
        <time>2023-08-29T07:00:15Z</time>
      </trkpt>
      <trkpt lat="45.54137" lon="5.40168">
        <ele>361.6</ele>
        <time>2023-08-29T07:00:16Z</time>
      </trkpt>
      <trkpt lat="45.54133" lon="5.40172">
        <ele>361.6</ele>
        <time>2023-08-29T07:00:17Z</time>
      </trkpt>
      <trkpt lat="45.5413" lon="5.40176">
        <ele>361.6</ele>
        <time>2023-08-29T07:00:18Z</time>
      </trkpt>
      <trkpt lat="45.54127" lon="5.40181">
        <ele>361.6</ele>
        <time>2023-08-29T07:00:19Z</time>
      </trkpt>
      <trkpt lat="45.54124" lon="5.40186">
        <ele>361.6</ele>
        <time>2023-08-29T07:00:20Z</time>
      </trkpt>
      <trkpt lat="45.54121" lon="5.40191">
        <ele>361.6</ele>
        <time>2023-08-29T07:00:21Z</time>
      </trkpt>
      <trkpt lat="45.54117" lon="5.40196">
        <ele>361.6</ele>
        <time>2023-08-29T07:00:22Z</time>
      </trkpt>
      <trkpt lat="45.54114" lon="5.402">
        <ele>361.6</ele>
        <time>2023-08-29T07:00:23Z</time>
      </trkpt>
      <trkpt lat="45.54111" lon="5.40205">
        <ele>361.6</ele>
        <time>2023-08-29T07:00:24Z</time>
      </trkpt>
      <trkpt lat="45.54109" lon="5.40209">
        <ele>361.6</ele>
        <time>2023-08-29T07:00:25Z</time>
      </trkpt>
      <trkpt lat="45.54106" lon="5.40214">
        <ele>361.8</ele>
        <time>2023-08-29T07:00:26Z</time>
      </trkpt>
      <trkpt lat="45.54103" lon="5.40218">
        <ele>361.8</ele>
        <time>2023-08-29T07:00:27Z</time>
      </trkpt>
      <trkpt lat="45.541" lon="5.40222">
        <ele>361.8</ele>
        <time>2023-08-29T07:00:28Z</time>
      </trkpt>
      <trkpt lat="45.54097" lon="5.40227">
        <ele>361.8</ele>
        <time>2023-08-29T07:00:29Z</time>
      </trkpt>
      <trkpt lat="45.54094" lon="5.4023">
        <ele>361.8</ele>
        <time>2023-08-29T07:00:30Z</time>
      </trkpt>
      <trkpt lat="45.54091" lon="5.40234">
        <ele>361.8</ele>
        <time>2023-08-29T07:00:31Z</time>
      </trkpt>
      <trkpt lat="45.54088" lon="5.40239">
        <ele>362</ele>
        <time>2023-08-29T07:00:32Z</time>
      </trkpt>
      <trkpt lat="45.54085" lon="5.40243">
        <ele>362</ele>
        <time>2023-08-29T07:00:33Z</time>
      </trkpt>
      <trkpt lat="45.54082" lon="5.40248">
        <ele>362</ele>
        <time>2023-08-29T07:00:34Z</time>
      </trkpt>
      <trkpt lat="45.54079" lon="5.40252">
        <ele>362</ele>
        <time>2023-08-29T07:00:35Z</time>
      </trkpt>
      <trkpt lat="45.54076" lon="5.40257">
        <ele>362</ele>
        <time>2023-08-29T07:00:36Z</time>
      </trkpt>
      <trkpt lat="45.54073" lon="5.40261">
        <ele>362</ele>
        <time>2023-08-29T07:00:37Z</time>
      </trkpt>
      <trkpt lat="45.54071" lon="5.40265">
        <ele>362.2</ele>
        <time>2023-08-29T07:00:38Z</time>
      </trkpt>
      <trkpt lat="45.54068" lon="5.4027">
        <ele>362.4</ele>
        <time>2023-08-29T07:00:39Z</time>
      </trkpt>
      <trkpt lat="45.54066" lon="5.40274">
        <ele>362.4</ele>
        <time>2023-08-29T07:00:40Z</time>
      </trkpt>
      <trkpt lat="45.54063" lon="5.40279">
        <ele>362.8</ele>
        <time>2023-08-29T07:00:41Z</time>
      </trkpt>
      <trkpt lat="45.5406" lon="5.40283">
        <ele>362.8</ele>
        <time>2023-08-29T07:00:42Z</time>
      </trkpt>
      <trkpt lat="45.54057" lon="5.40287">
        <ele>363</ele>
        <time>2023-08-29T07:00:43Z</time>
      </trkpt>
      <trkpt lat="45.54055" lon="5.40291">
        <ele>363.2</ele>
        <time>2023-08-29T07:00:44Z</time>
      </trkpt>
      <trkpt lat="45.54052" lon="5.40295">
        <ele>363.2</ele>
        <time>2023-08-29T07:00:45Z</time>
      </trkpt>
      <trkpt lat="45.54049" lon="5.403">
        <ele>363.6</ele>
        <time>2023-08-29T07:00:46Z</time>
      </trkpt>
      <trkpt lat="45.54047" lon="5.40304">
        <ele>363.8</ele>
        <time>2023-08-29T07:00:47Z</time>
      </trkpt>
      <trkpt lat="45.54044" lon="5.40309">
        <ele>364</ele>
        <time>2023-08-29T07:00:48Z</time>
      </trkpt>
      <trkpt lat="45.54041" lon="5.40313">
        <ele>364.2</ele>
        <time>2023-08-29T07:00:49Z</time>
      </trkpt>
      <trkpt lat="45.54038" lon="5.40318">
        <ele>364.4</ele>
        <time>2023-08-29T07:00:50Z</time>
      </trkpt>
      <trkpt lat="45.54036" lon="5.40322">
        <ele>364.6</ele>
        <time>2023-08-29T07:00:51Z</time>
      </trkpt>
      <trkpt lat="45.54033" lon="5.40326">
        <ele>364.8</ele>
        <time>2023-08-29T07:00:52Z</time>
      </trkpt>
      <trkpt lat="45.54031" lon="5.4033">
        <ele>364.8</ele>
        <time>2023-08-29T07:00:53Z</time>
      </trkpt>
      <trkpt lat="45.54029" lon="5.40336">
        <ele>365</ele>
        <time>2023-08-29T07:00:54Z</time>
      </trkpt>
      <trkpt lat="45.54027" lon="5.4034">
        <ele>365.4</ele>
        <time>2023-08-29T07:00:55Z</time>
      </trkpt>
      <trkpt lat="45.54024" lon="5.40345">
        <ele>365.6</ele>
        <time>2023-08-29T07:00:56Z</time>
      </trkpt>
      <trkpt lat="45.54022" lon="5.40349">
        <ele>365.6</ele>
        <time>2023-08-29T07:00:57Z</time>
      </trkpt>
      <trkpt lat="45.54019" lon="5.40353">
        <ele>366</ele>
        <time>2023-08-29T07:00:58Z</time>
      </trkpt>
      <trkpt lat="45.54017" lon="5.40357">
        <ele>366.2</ele>
        <time>2023-08-29T07:00:59Z</time>
      </trkpt>
      <trkpt lat="45.54014" lon="5.40362">
        <ele>366.2</ele>
        <time>2023-08-29T07:01:00Z</time>
      </trkpt>
      <trkpt lat="45.54011" lon="5.40366">
        <ele>366.6</ele>
        <time>2023-08-29T07:01:01Z</time>
      </trkpt>
      <trkpt lat="45.54008" lon="5.4037">
        <ele>366.6</ele>
        <time>2023-08-29T07:01:02Z</time>
      </trkpt>
      <trkpt lat="45.54004" lon="5.40375">
        <ele>366.8</ele>
        <time>2023-08-29T07:01:03Z</time>
      </trkpt>
      <trkpt lat="45.54001" lon="5.4038">
        <ele>366.8</ele>
        <time>2023-08-29T07:01:04Z</time>
      </trkpt>
      <trkpt lat="45.53998" lon="5.40384">
        <ele>366.8</ele>
        <time>2023-08-29T07:01:05Z</time>
      </trkpt>
      <trkpt lat="45.53995" lon="5.40389">
        <ele>367</ele>
        <time>2023-08-29T07:01:06Z</time>
      </trkpt>
      <trkpt lat="45.53992" lon="5.40393">
        <ele>367.2</ele>
        <time>2023-08-29T07:01:07Z</time>
      </trkpt>
      <trkpt lat="45.53989" lon="5.40396">
        <ele>367.4</ele>
        <time>2023-08-29T07:01:08Z</time>
      </trkpt>
      <trkpt lat="45.53986" lon="5.404">
        <ele>367.6</ele>
        <time>2023-08-29T07:01:09Z</time>
      </trkpt>
      <trkpt lat="45.53983" lon="5.40404">
        <ele>367.6</ele>
        <time>2023-08-29T07:01:10Z</time>
      </trkpt>
      <trkpt lat="45.5398" lon="5.40407">
        <ele>367.8</ele>
        <time>2023-08-29T07:01:11Z</time>
      </trkpt>
      <trkpt lat="45.53977" lon="5.40411">
        <ele>368</ele>
        <time>2023-08-29T07:01:12Z</time>
      </trkpt>
      <trkpt lat="45.53973" lon="5.40415">
        <ele>368.2</ele>
        <time>2023-08-29T07:01:13Z</time>
      </trkpt>
      <trkpt lat="45.5397" lon="5.40419">
        <ele>368.2</ele>
        <time>2023-08-29T07:01:14Z</time>
      </trkpt>
      <trkpt lat="45.53967" lon="5.40424">
        <ele>368.2</ele>
        <time>2023-08-29T07:01:15Z</time>
      </trkpt>
      <trkpt lat="45.53964" lon="5.40428">
        <ele>368.4</ele>
        <time>2023-08-29T07:01:16Z</time>
      </trkpt>
      <trkpt lat="45.53961" lon="5.40432">
        <ele>368.6</ele>
        <time>2023-08-29T07:01:17Z</time>
      </trkpt>
      <trkpt lat="45.53957" lon="5.40436">
        <ele>368.6</ele>
        <time>2023-08-29T07:01:18Z</time>
      </trkpt>
      <trkpt lat="45.53954" lon="5.40441">
        <ele>368.8</ele>
        <time>2023-08-29T07:01:19Z</time>
      </trkpt>
      <trkpt lat="45.53951" lon="5.40445">
        <ele>368.8</ele>
        <time>2023-08-29T07:01:20Z</time>
      </trkpt>
      <trkpt lat="45.53948" lon="5.40449">
        <ele>368.8</ele>
        <time>2023-08-29T07:01:21Z</time>
      </trkpt>
      <trkpt lat="45.53944" lon="5.40453">
        <ele>368.8</ele>
        <time>2023-08-29T07:01:22Z</time>
      </trkpt>
      <trkpt lat="45.53941" lon="5.40458">
        <ele>369</ele>
        <time>2023-08-29T07:01:23Z</time>
      </trkpt>
      <trkpt lat="45.53938" lon="5.40462">
        <ele>369</ele>
        <time>2023-08-29T07:01:24Z</time>
      </trkpt>
      <trkpt lat="45.53935" lon="5.40467">
        <ele>369</ele>
        <time>2023-08-29T07:01:25Z</time>
      </trkpt>
      <trkpt lat="45.53933" lon="5.40471">
        <ele>369.2</ele>
        <time>2023-08-29T07:01:26Z</time>
      </trkpt>
      <trkpt lat="45.5393" lon="5.40475">
        <ele>369.4</ele>
        <time>2023-08-29T07:01:27Z</time>
      </trkpt>
      <trkpt lat="45.53927" lon="5.40479">
        <ele>369.4</ele>
        <time>2023-08-29T07:01:28Z</time>
      </trkpt>
      <trkpt lat="45.53925" lon="5.40483">
        <ele>369.6</ele>
        <time>2023-08-29T07:01:29Z</time>
      </trkpt>
      <trkpt lat="45.53922" lon="5.40488">
        <ele>369.8</ele>
        <time>2023-08-29T07:01:30Z</time>
      </trkpt>
      <trkpt lat="45.53919" lon="5.40492">
        <ele>370</ele>
        <time>2023-08-29T07:01:31Z</time>
      </trkpt>
      <trkpt lat="45.53917" lon="5.40497">
        <ele>370</ele>
        <time>2023-08-29T07:01:32Z</time>
      </trkpt>
      <trkpt lat="45.53915" lon="5.40502">
        <ele>370.2</ele>
        <time>2023-08-29T07:01:33Z</time>
      </trkpt>
      <trkpt lat="45.53913" lon="5.40507">
        <ele>370.4</ele>
        <time>2023-08-29T07:01:34Z</time>
      </trkpt>
      <trkpt lat="45.53911" lon="5.40511">
        <ele>370.4</ele>
        <time>2023-08-29T07:01:35Z</time>
      </trkpt>
      <trkpt lat="45.53908" lon="5.40516">
        <ele>370.6</ele>
        <time>2023-08-29T07:01:36Z</time>
      </trkpt>
      <trkpt lat="45.53906" lon="5.40521">
        <ele>370.6</ele>
        <time>2023-08-29T07:01:37Z</time>
      </trkpt>
      <trkpt lat="45.53904" lon="5.40525">
        <ele>371</ele>
        <time>2023-08-29T07:01:38Z</time>
      </trkpt>
      <trkpt lat="45.53902" lon="5.4053">
        <ele>371</ele>
        <time>2023-08-29T07:01:39Z</time>
      </trkpt>
      <trkpt lat="45.53901" lon="5.40536">
        <ele>371.2</ele>
        <time>2023-08-29T07:01:40Z</time>
      </trkpt>
      <trkpt lat="45.53899" lon="5.40541">
        <ele>371.2</ele>
        <time>2023-08-29T07:01:41Z</time>
      </trkpt>
      <trkpt lat="45.53897" lon="5.40547">
        <ele>371.2</ele>
        <time>2023-08-29T07:01:42Z</time>
      </trkpt>
      <trkpt lat="45.53896" lon="5.40552">
        <ele>371.4</ele>
        <time>2023-08-29T07:01:43Z</time>
      </trkpt>
      <trkpt lat="45.53894" lon="5.40558">
        <ele>371.8</ele>
        <time>2023-08-29T07:01:44Z</time>
      </trkpt>
      <trkpt lat="45.53893" lon="5.40563">
        <ele>372</ele>
        <time>2023-08-29T07:01:45Z</time>
      </trkpt>
      <trkpt lat="45.53891" lon="5.40568">
        <ele>372</ele>
        <time>2023-08-29T07:01:46Z</time>
      </trkpt>
      <trkpt lat="45.5389" lon="5.40573">
        <ele>372.2</ele>
        <time>2023-08-29T07:01:47Z</time>
      </trkpt>
      <trkpt lat="45.53888" lon="5.40578">
        <ele>372.4</ele>
        <time>2023-08-29T07:01:48Z</time>
      </trkpt>
      <trkpt lat="45.53885" lon="5.40583">
        <ele>372.4</ele>
        <time>2023-08-29T07:01:49Z</time>
      </trkpt>
      <trkpt lat="45.53883" lon="5.40589">
        <ele>372.6</ele>
        <time>2023-08-29T07:01:50Z</time>
      </trkpt>
      <trkpt lat="45.5388" lon="5.40594">
        <ele>373</ele>
        <time>2023-08-29T07:01:51Z</time>
      </trkpt>
      <trkpt lat="45.53878" lon="5.40599">
        <ele>373</ele>
        <time>2023-08-29T07:01:52Z</time>
      </trkpt>
      <trkpt lat="45.53877" lon="5.40603">
        <ele>373.2</ele>
        <time>2023-08-29T07:01:53Z</time>
      </trkpt>
      <trkpt lat="45.53874" lon="5.40608">
        <ele>373.6</ele>
        <time>2023-08-29T07:01:54Z</time>
      </trkpt>
      <trkpt lat="45.53872" lon="5.40613">
        <ele>373.8</ele>
        <time>2023-08-29T07:01:55Z</time>
      </trkpt>
      <trkpt lat="45.53871" lon="5.40618">
        <ele>374</ele>
        <time>2023-08-29T07:01:56Z</time>
      </trkpt>
      <trkpt lat="45.53869" lon="5.40623">
        <ele>374.2</ele>
        <time>2023-08-29T07:01:57Z</time>
      </trkpt>
      <trkpt lat="45.53868" lon="5.40629">
        <ele>374.4</ele>
        <time>2023-08-29T07:01:58Z</time>
      </trkpt>
      <trkpt lat="45.53866" lon="5.40635">
        <ele>374.6</ele>
        <time>2023-08-29T07:01:59Z</time>
      </trkpt>
      <trkpt lat="45.53864" lon="5.40641">
        <ele>374.8</ele>
        <time>2023-08-29T07:02:00Z</time>
      </trkpt>
      <trkpt lat="45.53863" lon="5.40647">
        <ele>375</ele>
        <time>2023-08-29T07:02:01Z</time>
      </trkpt>
      <trkpt lat="45.53861" lon="5.40652">
        <ele>375.2</ele>
        <time>2023-08-29T07:02:02Z</time>
      </trkpt>
      <trkpt lat="45.5386" lon="5.40658">
        <ele>375.4</ele>
        <time>2023-08-29T07:02:03Z</time>
      </trkpt>
      <trkpt lat="45.53859" lon="5.40664">
        <ele>375.4</ele>
        <time>2023-08-29T07:02:04Z</time>
      </trkpt>
      <trkpt lat="45.53857" lon="5.40669">
        <ele>375.8</ele>
        <time>2023-08-29T07:02:05Z</time>
      </trkpt>
      <trkpt lat="45.53856" lon="5.40674">
        <ele>375.8</ele>
        <time>2023-08-29T07:02:06Z</time>
      </trkpt>
      <trkpt lat="45.53855" lon="5.40679">
        <ele>376</ele>
        <time>2023-08-29T07:02:07Z</time>
      </trkpt>
      <trkpt lat="45.53854" lon="5.40685">
        <ele>376.2</ele>
        <time>2023-08-29T07:02:08Z</time>
      </trkpt>
      <trkpt lat="45.53853" lon="5.40691">
        <ele>376.2</ele>
        <time>2023-08-29T07:02:09Z</time>
      </trkpt>
      <trkpt lat="45.53851" lon="5.40697">
        <ele>376.4</ele>
        <time>2023-08-29T07:02:10Z</time>
      </trkpt>
      <trkpt lat="45.5385" lon="5.40702">
        <ele>376.6</ele>
        <time>2023-08-29T07:02:11Z</time>
      </trkpt>
      <trkpt lat="45.53849" lon="5.40708">
        <ele>376.6</ele>
        <time>2023-08-29T07:02:12Z</time>
      </trkpt>
      <trkpt lat="45.53849" lon="5.40714">
        <ele>376.8</ele>
        <time>2023-08-29T07:02:13Z</time>
      </trkpt>
      <trkpt lat="45.53848" lon="5.4072">
        <ele>377</ele>
        <time>2023-08-29T07:02:14Z</time>
      </trkpt>
      <trkpt lat="45.53847" lon="5.40725">
        <ele>377</ele>
        <time>2023-08-29T07:02:15Z</time>
      </trkpt>
      <trkpt lat="45.53846" lon="5.40732">
        <ele>377</ele>
        <time>2023-08-29T07:02:16Z</time>
      </trkpt>
      <trkpt lat="45.53845" lon="5.40738">
        <ele>377</ele>
        <time>2023-08-29T07:02:17Z</time>
      </trkpt>
      <trkpt lat="45.53843" lon="5.40745">
        <ele>377</ele>
        <time>2023-08-29T07:02:18Z</time>
      </trkpt>
      <trkpt lat="45.53843" lon="5.4075">
        <ele>377.2</ele>
        <time>2023-08-29T07:02:19Z</time>
      </trkpt>
      <trkpt lat="45.53842" lon="5.40755">
        <ele>377.2</ele>
        <time>2023-08-29T07:02:20Z</time>
      </trkpt>
      <trkpt lat="45.53841" lon="5.40761">
        <ele>377.2</ele>
        <time>2023-08-29T07:02:21Z</time>
      </trkpt>
      <trkpt lat="45.53841" lon="5.40766">
        <ele>377.2</ele>
        <time>2023-08-29T07:02:22Z</time>
      </trkpt>
      <trkpt lat="45.5384" lon="5.40771">
        <ele>377.4</ele>
        <time>2023-08-29T07:02:23Z</time>
      </trkpt>
      <trkpt lat="45.53839" lon="5.40777">
        <ele>377.4</ele>
        <time>2023-08-29T07:02:24Z</time>
      </trkpt>
      <trkpt lat="45.53838" lon="5.40782">
        <ele>377.4</ele>
        <time>2023-08-29T07:02:25Z</time>
      </trkpt>
      <trkpt lat="45.53837" lon="5.40788">
        <ele>377.6</ele>
        <time>2023-08-29T07:02:26Z</time>
      </trkpt>
      <trkpt lat="45.53836" lon="5.40794">
        <ele>377.6</ele>
        <time>2023-08-29T07:02:27Z</time>
      </trkpt>
      <trkpt lat="45.53834" lon="5.40801">
        <ele>377.6</ele>
        <time>2023-08-29T07:02:28Z</time>
      </trkpt>
      <trkpt lat="45.53833" lon="5.40806">
        <ele>377.8</ele>
        <time>2023-08-29T07:02:29Z</time>
      </trkpt>
      <trkpt lat="45.53832" lon="5.40812">
        <ele>377.8</ele>
        <time>2023-08-29T07:02:30Z</time>
      </trkpt>
      <trkpt lat="45.53831" lon="5.40819">
        <ele>378</ele>
        <time>2023-08-29T07:02:31Z</time>
      </trkpt>
      <trkpt lat="45.5383" lon="5.40825">
        <ele>378</ele>
        <time>2023-08-29T07:02:32Z</time>
      </trkpt>
      <trkpt lat="45.53828" lon="5.40832">
        <ele>378</ele>
        <time>2023-08-29T07:02:33Z</time>
      </trkpt>
      <trkpt lat="45.53827" lon="5.40838">
        <ele>378</ele>
        <time>2023-08-29T07:02:34Z</time>
      </trkpt>
      <trkpt lat="45.53825" lon="5.40844">
        <ele>378</ele>
        <time>2023-08-29T07:02:35Z</time>
      </trkpt>
      <trkpt lat="45.53823" lon="5.40851">
        <ele>378</ele>
        <time>2023-08-29T07:02:36Z</time>
      </trkpt>
      <trkpt lat="45.53822" lon="5.40858">
        <ele>378</ele>
        <time>2023-08-29T07:02:37Z</time>
      </trkpt>
      <trkpt lat="45.53821" lon="5.40864">
        <ele>378</ele>
        <time>2023-08-29T07:02:38Z</time>
      </trkpt>
      <trkpt lat="45.5382" lon="5.4087">
        <ele>377.8</ele>
        <time>2023-08-29T07:02:39Z</time>
      </trkpt>
      <trkpt lat="45.53819" lon="5.40876">
        <ele>377.8</ele>
        <time>2023-08-29T07:02:40Z</time>
      </trkpt>
      <trkpt lat="45.53818" lon="5.40883">
        <ele>377.8</ele>
        <time>2023-08-29T07:02:41Z</time>
      </trkpt>
      <trkpt lat="45.53816" lon="5.40889">
        <ele>377.8</ele>
        <time>2023-08-29T07:02:42Z</time>
      </trkpt>
      <trkpt lat="45.53815" lon="5.40895">
        <ele>377.8</ele>
        <time>2023-08-29T07:02:43Z</time>
      </trkpt>
      <trkpt lat="45.53814" lon="5.40901">
        <ele>378</ele>
        <time>2023-08-29T07:02:44Z</time>
      </trkpt>
      <trkpt lat="45.53813" lon="5.40907">
        <ele>378</ele>
        <time>2023-08-29T07:02:45Z</time>
      </trkpt>
      <trkpt lat="45.53812" lon="5.40914">
        <ele>378</ele>
        <time>2023-08-29T07:02:46Z</time>
      </trkpt>
      <trkpt lat="45.5381" lon="5.4092">
        <ele>378.2</ele>
        <time>2023-08-29T07:02:47Z</time>
      </trkpt>
      <trkpt lat="45.53809" lon="5.40927">
        <ele>378.2</ele>
        <time>2023-08-29T07:02:48Z</time>
      </trkpt>
      <trkpt lat="45.53808" lon="5.40933">
        <ele>378.4</ele>
        <time>2023-08-29T07:02:49Z</time>
      </trkpt>
      <trkpt lat="45.53806" lon="5.40939">
        <ele>378.4</ele>
        <time>2023-08-29T07:02:50Z</time>
      </trkpt>
      <trkpt lat="45.53805" lon="5.40946">
        <ele>378.4</ele>
        <time>2023-08-29T07:02:51Z</time>
      </trkpt>
      <trkpt lat="45.53804" lon="5.40952">
        <ele>378.6</ele>
        <time>2023-08-29T07:02:52Z</time>
      </trkpt>
      <trkpt lat="45.53803" lon="5.40958">
        <ele>378.6</ele>
        <time>2023-08-29T07:02:53Z</time>
      </trkpt>
      <trkpt lat="45.53802" lon="5.40964">
        <ele>378.6</ele>
        <time>2023-08-29T07:02:54Z</time>
      </trkpt>
      <trkpt lat="45.53801" lon="5.4097">
        <ele>378.6</ele>
        <time>2023-08-29T07:02:55Z</time>
      </trkpt>
      <trkpt lat="45.538" lon="5.40977">
        <ele>378.6</ele>
        <time>2023-08-29T07:02:56Z</time>
      </trkpt>
      <trkpt lat="45.53799" lon="5.40983">
        <ele>378.8</ele>
        <time>2023-08-29T07:02:57Z</time>
      </trkpt>
      <trkpt lat="45.53798" lon="5.40989">
        <ele>379</ele>
        <time>2023-08-29T07:02:58Z</time>
      </trkpt>
      <trkpt lat="45.53797" lon="5.40995">
        <ele>379</ele>
        <time>2023-08-29T07:02:59Z</time>
      </trkpt>
      <trkpt lat="45.53796" lon="5.41002">
        <ele>379.2</ele>
        <time>2023-08-29T07:03:00Z</time>
      </trkpt>
      <trkpt lat="45.53794" lon="5.41008">
        <ele>379.2</ele>
        <time>2023-08-29T07:03:01Z</time>
      </trkpt>
      <trkpt lat="45.53793" lon="5.41014">
        <ele>379.4</ele>
        <time>2023-08-29T07:03:02Z</time>
      </trkpt>
      <trkpt lat="45.53791" lon="5.41021">
        <ele>379.6</ele>
        <time>2023-08-29T07:03:03Z</time>
      </trkpt>
      <trkpt lat="45.53789" lon="5.41027">
        <ele>379.6</ele>
        <time>2023-08-29T07:03:04Z</time>
      </trkpt>
      <trkpt lat="45.53788" lon="5.41033">
        <ele>379.6</ele>
        <time>2023-08-29T07:03:05Z</time>
      </trkpt>
      <trkpt lat="45.53786" lon="5.41039">
        <ele>379.6</ele>
        <time>2023-08-29T07:03:06Z</time>
      </trkpt>
      <trkpt lat="45.53784" lon="5.41046">
        <ele>379.6</ele>
        <time>2023-08-29T07:03:07Z</time>
      </trkpt>
      <trkpt lat="45.53782" lon="5.41053">
        <ele>379.8</ele>
        <time>2023-08-29T07:03:08Z</time>
      </trkpt>
      <trkpt lat="45.5378" lon="5.4106">
        <ele>380</ele>
        <time>2023-08-29T07:03:09Z</time>
      </trkpt>
      <trkpt lat="45.53778" lon="5.41066">
        <ele>380</ele>
        <time>2023-08-29T07:03:10Z</time>
      </trkpt>
      <trkpt lat="45.53776" lon="5.41072">
        <ele>380</ele>
        <time>2023-08-29T07:03:11Z</time>
      </trkpt>
      <trkpt lat="45.53774" lon="5.41078">
        <ele>380</ele>
        <time>2023-08-29T07:03:12Z</time>
      </trkpt>
      <trkpt lat="45.53771" lon="5.41084">
        <ele>380</ele>
        <time>2023-08-29T07:03:13Z</time>
      </trkpt>
      <trkpt lat="45.53768" lon="5.4109">
        <ele>380</ele>
        <time>2023-08-29T07:03:14Z</time>
      </trkpt>
      <trkpt lat="45.53765" lon="5.41096">
        <ele>380</ele>
        <time>2023-08-29T07:03:15Z</time>
      </trkpt>
      <trkpt lat="45.53762" lon="5.41102">
        <ele>380</ele>
        <time>2023-08-29T07:03:16Z</time>
      </trkpt>
      <trkpt lat="45.53759" lon="5.41108">
        <ele>380</ele>
        <time>2023-08-29T07:03:17Z</time>
      </trkpt>
      <trkpt lat="45.53757" lon="5.41115">
        <ele>380</ele>
        <time>2023-08-29T07:03:18Z</time>
      </trkpt>
      <trkpt lat="45.53756" lon="5.41122">
        <ele>380</ele>
        <time>2023-08-29T07:03:19Z</time>
      </trkpt>
      <trkpt lat="45.53754" lon="5.41129">
        <ele>380</ele>
        <time>2023-08-29T07:03:20Z</time>
      </trkpt>
      <trkpt lat="45.53752" lon="5.41135">
        <ele>380.2</ele>
        <time>2023-08-29T07:03:21Z</time>
      </trkpt>
      <trkpt lat="45.53751" lon="5.41142">
        <ele>380.2</ele>
        <time>2023-08-29T07:03:22Z</time>
      </trkpt>
      <trkpt lat="45.53749" lon="5.41147">
        <ele>380.6</ele>
        <time>2023-08-29T07:03:23Z</time>
      </trkpt>
      <trkpt lat="45.53747" lon="5.41153">
        <ele>380.6</ele>
        <time>2023-08-29T07:03:24Z</time>
      </trkpt>
      <trkpt lat="45.53745" lon="5.41159">
        <ele>380.8</ele>
        <time>2023-08-29T07:03:25Z</time>
      </trkpt>
      <trkpt lat="45.53744" lon="5.41165">
        <ele>380.8</ele>
        <time>2023-08-29T07:03:26Z</time>
      </trkpt>
      <trkpt lat="45.53742" lon="5.41172">
        <ele>381</ele>
        <time>2023-08-29T07:03:27Z</time>
      </trkpt>
      <trkpt lat="45.5374" lon="5.41177">
        <ele>381</ele>
        <time>2023-08-29T07:03:28Z</time>
      </trkpt>
      <trkpt lat="45.53737" lon="5.41184">
        <ele>381</ele>
        <time>2023-08-29T07:03:29Z</time>
      </trkpt>
      <trkpt lat="45.53735" lon="5.4119">
        <ele>381</ele>
        <time>2023-08-29T07:03:30Z</time>
      </trkpt>
      <trkpt lat="45.53732" lon="5.41196">
        <ele>381.2</ele>
        <time>2023-08-29T07:03:31Z</time>
      </trkpt>
      <trkpt lat="45.53729" lon="5.41203">
        <ele>381.2</ele>
        <time>2023-08-29T07:03:32Z</time>
      </trkpt>
      <trkpt lat="45.53727" lon="5.41208">
        <ele>381.2</ele>
        <time>2023-08-29T07:03:33Z</time>
      </trkpt>
      <trkpt lat="45.53724" lon="5.41215">
        <ele>381.4</ele>
        <time>2023-08-29T07:03:34Z</time>
      </trkpt>
      <trkpt lat="45.53721" lon="5.41221">
        <ele>381.4</ele>
        <time>2023-08-29T07:03:35Z</time>
      </trkpt>
      <trkpt lat="45.53719" lon="5.41226">
        <ele>381.4</ele>
        <time>2023-08-29T07:03:36Z</time>
      </trkpt>
      <trkpt lat="45.53716" lon="5.41232">
        <ele>381.4</ele>
        <time>2023-08-29T07:03:37Z</time>
      </trkpt>
      <trkpt lat="45.53714" lon="5.41237">
        <ele>381.4</ele>
        <time>2023-08-29T07:03:38Z</time>
      </trkpt>
      <trkpt lat="45.53711" lon="5.41243">
        <ele>381.4</ele>
        <time>2023-08-29T07:03:39Z</time>
      </trkpt>
      <trkpt lat="45.53708" lon="5.41248">
        <ele>381.4</ele>
        <time>2023-08-29T07:03:40Z</time>
      </trkpt>
      <trkpt lat="45.53705" lon="5.41254">
        <ele>381.4</ele>
        <time>2023-08-29T07:03:41Z</time>
      </trkpt>
      <trkpt lat="45.53703" lon="5.41259">
        <ele>381.4</ele>
        <time>2023-08-29T07:03:42Z</time>
      </trkpt>
      <trkpt lat="45.537" lon="5.41265">
        <ele>381.4</ele>
        <time>2023-08-29T07:03:43Z</time>
      </trkpt>
      <trkpt lat="45.53697" lon="5.4127">
        <ele>381.6</ele>
        <time>2023-08-29T07:03:44Z</time>
      </trkpt>
      <trkpt lat="45.53694" lon="5.41276">
        <ele>381.8</ele>
        <time>2023-08-29T07:03:45Z</time>
      </trkpt>
      <trkpt lat="45.53691" lon="5.41281">
        <ele>381.8</ele>
        <time>2023-08-29T07:03:46Z</time>
      </trkpt>
      <trkpt lat="45.53689" lon="5.41286">
        <ele>382</ele>
        <time>2023-08-29T07:03:47Z</time>
      </trkpt>
      <trkpt lat="45.53686" lon="5.41292">
        <ele>382</ele>
        <time>2023-08-29T07:03:48Z</time>
      </trkpt>
      <trkpt lat="45.53683" lon="5.41297">
        <ele>382.2</ele>
        <time>2023-08-29T07:03:49Z</time>
      </trkpt>
      <trkpt lat="45.53681" lon="5.41302">
        <ele>382.2</ele>
        <time>2023-08-29T07:03:50Z</time>
      </trkpt>
      <trkpt lat="45.53678" lon="5.41308">
        <ele>382.2</ele>
        <time>2023-08-29T07:03:51Z</time>
      </trkpt>
      <trkpt lat="45.53676" lon="5.41313">
        <ele>382.4</ele>
        <time>2023-08-29T07:03:52Z</time>
      </trkpt>
      <trkpt lat="45.53674" lon="5.41318">
        <ele>382.4</ele>
        <time>2023-08-29T07:03:53Z</time>
      </trkpt>
      <trkpt lat="45.53671" lon="5.41323">
        <ele>382.6</ele>
        <time>2023-08-29T07:03:54Z</time>
      </trkpt>
      <trkpt lat="45.53668" lon="5.41329">
        <ele>382.6</ele>
        <time>2023-08-29T07:03:55Z</time>
      </trkpt>
      <trkpt lat="45.53665" lon="5.41334">
        <ele>382.8</ele>
        <time>2023-08-29T07:03:56Z</time>
      </trkpt>
      <trkpt lat="45.53663" lon="5.41339">
        <ele>382.8</ele>
        <time>2023-08-29T07:03:57Z</time>
      </trkpt>
      <trkpt lat="45.5366" lon="5.41344">
        <ele>382.8</ele>
        <time>2023-08-29T07:03:58Z</time>
      </trkpt>
      <trkpt lat="45.53657" lon="5.4135">
        <ele>383.2</ele>
        <time>2023-08-29T07:03:59Z</time>
      </trkpt>
      <trkpt lat="45.53655" lon="5.41355">
        <ele>383.2</ele>
        <time>2023-08-29T07:04:00Z</time>
      </trkpt>
      <trkpt lat="45.53652" lon="5.4136">
        <ele>383.2</ele>
        <time>2023-08-29T07:04:01Z</time>
      </trkpt>
      <trkpt lat="45.53649" lon="5.41365">
        <ele>383.4</ele>
        <time>2023-08-29T07:04:02Z</time>
      </trkpt>
      <trkpt lat="45.53647" lon="5.41371">
        <ele>383.4</ele>
        <time>2023-08-29T07:04:03Z</time>
      </trkpt>
      <trkpt lat="45.53644" lon="5.41376">
        <ele>383.6</ele>
        <time>2023-08-29T07:04:04Z</time>
      </trkpt>
      <trkpt lat="45.53641" lon="5.41381">
        <ele>383.8</ele>
        <time>2023-08-29T07:04:05Z</time>
      </trkpt>
      <trkpt lat="45.53638" lon="5.41386">
        <ele>383.8</ele>
        <time>2023-08-29T07:04:06Z</time>
      </trkpt>
      <trkpt lat="45.53635" lon="5.41391">
        <ele>383.8</ele>
        <time>2023-08-29T07:04:07Z</time>
      </trkpt>
      <trkpt lat="45.53633" lon="5.41397">
        <ele>383.8</ele>
        <time>2023-08-29T07:04:08Z</time>
      </trkpt>
      <trkpt lat="45.5363" lon="5.41403">
        <ele>384</ele>
        <time>2023-08-29T07:04:09Z</time>
      </trkpt>
      <trkpt lat="45.53628" lon="5.41409">
        <ele>384</ele>
        <time>2023-08-29T07:04:10Z</time>
      </trkpt>
      <trkpt lat="45.53625" lon="5.41414">
        <ele>384</ele>
        <time>2023-08-29T07:04:11Z</time>
      </trkpt>
      <trkpt lat="45.53623" lon="5.4142">
        <ele>384.2</ele>
        <time>2023-08-29T07:04:12Z</time>
      </trkpt>
      <trkpt lat="45.5362" lon="5.41425">
        <ele>384.6</ele>
        <time>2023-08-29T07:04:13Z</time>
      </trkpt>
      <trkpt lat="45.53617" lon="5.41429">
        <ele>384.6</ele>
        <time>2023-08-29T07:04:14Z</time>
      </trkpt>
      <trkpt lat="45.53614" lon="5.41434">
        <ele>384.8</ele>
        <time>2023-08-29T07:04:15Z</time>
      </trkpt>
      <trkpt lat="45.5361" lon="5.41439">
        <ele>385</ele>
        <time>2023-08-29T07:04:16Z</time>
      </trkpt>
      <trkpt lat="45.53607" lon="5.41442">
        <ele>385</ele>
        <time>2023-08-29T07:04:17Z</time>
      </trkpt>
      <trkpt lat="45.53604" lon="5.41446">
        <ele>385</ele>
        <time>2023-08-29T07:04:18Z</time>
      </trkpt>
      <trkpt lat="45.536" lon="5.4145">
        <ele>385</ele>
        <time>2023-08-29T07:04:19Z</time>
      </trkpt>
      <trkpt lat="45.53597" lon="5.41454">
        <ele>385.2</ele>
        <time>2023-08-29T07:04:20Z</time>
      </trkpt>
      <trkpt lat="45.53594" lon="5.41458">
        <ele>385.2</ele>
        <time>2023-08-29T07:04:21Z</time>
      </trkpt>
      <trkpt lat="45.53592" lon="5.41462">
        <ele>385.2</ele>
        <time>2023-08-29T07:04:22Z</time>
      </trkpt>
      <trkpt lat="45.53588" lon="5.41467">
        <ele>385.4</ele>
        <time>2023-08-29T07:04:23Z</time>
      </trkpt>
      <trkpt lat="45.53585" lon="5.41471">
        <ele>385.4</ele>
        <time>2023-08-29T07:04:24Z</time>
      </trkpt>
      <trkpt lat="45.53583" lon="5.41476">
        <ele>385.4</ele>
        <time>2023-08-29T07:04:25Z</time>
      </trkpt>
      <trkpt lat="45.5358" lon="5.4148">
        <ele>385.6</ele>
        <time>2023-08-29T07:04:26Z</time>
      </trkpt>
      <trkpt lat="45.53578" lon="5.41485">
        <ele>385.8</ele>
        <time>2023-08-29T07:04:27Z</time>
      </trkpt>
      <trkpt lat="45.53575" lon="5.4149">
        <ele>385.8</ele>
        <time>2023-08-29T07:04:28Z</time>
      </trkpt>
      <trkpt lat="45.53572" lon="5.41494">
        <ele>385.8</ele>
        <time>2023-08-29T07:04:29Z</time>
      </trkpt>
      <trkpt lat="45.53569" lon="5.41498">
        <ele>386</ele>
        <time>2023-08-29T07:04:30Z</time>
      </trkpt>
      <trkpt lat="45.53565" lon="5.41502">
        <ele>386.2</ele>
        <time>2023-08-29T07:04:31Z</time>
      </trkpt>
      <trkpt lat="45.53562" lon="5.41506">
        <ele>386.4</ele>
        <time>2023-08-29T07:04:32Z</time>
      </trkpt>
      <trkpt lat="45.53559" lon="5.41511">
        <ele>386.6</ele>
        <time>2023-08-29T07:04:33Z</time>
      </trkpt>
      <trkpt lat="45.53555" lon="5.41515">
        <ele>386.6</ele>
        <time>2023-08-29T07:04:34Z</time>
      </trkpt>
      <trkpt lat="45.53552" lon="5.41519">
        <ele>387</ele>
        <time>2023-08-29T07:04:35Z</time>
      </trkpt>
      <trkpt lat="45.53549" lon="5.41522">
        <ele>387</ele>
        <time>2023-08-29T07:04:36Z</time>
      </trkpt>
      <trkpt lat="45.53545" lon="5.41527">
        <ele>387.2</ele>
        <time>2023-08-29T07:04:37Z</time>
      </trkpt>
      <trkpt lat="45.53542" lon="5.41531">
        <ele>387.2</ele>
        <time>2023-08-29T07:04:38Z</time>
      </trkpt>
      <trkpt lat="45.53538" lon="5.41535">
        <ele>387.2</ele>
        <time>2023-08-29T07:04:39Z</time>
      </trkpt>
      <trkpt lat="45.53535" lon="5.41539">
        <ele>387.4</ele>
        <time>2023-08-29T07:04:40Z</time>
      </trkpt>
      <trkpt lat="45.53531" lon="5.41543">
        <ele>387.6</ele>
        <time>2023-08-29T07:04:41Z</time>
      </trkpt>
      <trkpt lat="45.53527" lon="5.41547">
        <ele>387.6</ele>
        <time>2023-08-29T07:04:42Z</time>
      </trkpt>
      <trkpt lat="45.53523" lon="5.41551">
        <ele>387.6</ele>
        <time>2023-08-29T07:04:43Z</time>
      </trkpt>
      <trkpt lat="45.53519" lon="5.41555">
        <ele>387.6</ele>
        <time>2023-08-29T07:04:44Z</time>
      </trkpt>
      <trkpt lat="45.53515" lon="5.41559">
        <ele>387.6</ele>
        <time>2023-08-29T07:04:45Z</time>
      </trkpt>
      <trkpt lat="45.53511" lon="5.41563">
        <ele>387.6</ele>
        <time>2023-08-29T07:04:46Z</time>
      </trkpt>
      <trkpt lat="45.53507" lon="5.41567">
        <ele>387.6</ele>
        <time>2023-08-29T07:04:47Z</time>
      </trkpt>
      <trkpt lat="45.53502" lon="5.41571">
        <ele>387.6</ele>
        <time>2023-08-29T07:04:48Z</time>
      </trkpt>
      <trkpt lat="45.53498" lon="5.41574">
        <ele>387.6</ele>
        <time>2023-08-29T07:04:49Z</time>
      </trkpt>
      <trkpt lat="45.53494" lon="5.41578">
        <ele>387.6</ele>
        <time>2023-08-29T07:04:50Z</time>
      </trkpt>
      <trkpt lat="45.53489" lon="5.41581">
        <ele>387.6</ele>
        <time>2023-08-29T07:04:51Z</time>
      </trkpt>
      <trkpt lat="45.53485" lon="5.41585">
        <ele>387.6</ele>
        <time>2023-08-29T07:04:52Z</time>
      </trkpt>
      <trkpt lat="45.53481" lon="5.41588">
        <ele>387.6</ele>
        <time>2023-08-29T07:04:53Z</time>
      </trkpt>
      <trkpt lat="45.53477" lon="5.41592">
        <ele>387.6</ele>
        <time>2023-08-29T07:04:54Z</time>
      </trkpt>
      <trkpt lat="45.53472" lon="5.41596">
        <ele>387.8</ele>
        <time>2023-08-29T07:04:55Z</time>
      </trkpt>
      <trkpt lat="45.53468" lon="5.416">
        <ele>387.8</ele>
        <time>2023-08-29T07:04:56Z</time>
      </trkpt>
      <trkpt lat="45.53463" lon="5.41604">
        <ele>388</ele>
        <time>2023-08-29T07:04:57Z</time>
      </trkpt>
      <trkpt lat="45.53459" lon="5.41608">
        <ele>388</ele>
        <time>2023-08-29T07:04:58Z</time>
      </trkpt>
      <trkpt lat="45.53454" lon="5.41612">
        <ele>388.2</ele>
        <time>2023-08-29T07:04:59Z</time>
      </trkpt>
      <trkpt lat="45.5345" lon="5.41615">
        <ele>388.2</ele>
        <time>2023-08-29T07:05:00Z</time>
      </trkpt>
      <trkpt lat="45.53446" lon="5.41618">
        <ele>388.2</ele>
        <time>2023-08-29T07:05:01Z</time>
      </trkpt>
      <trkpt lat="45.53441" lon="5.41622">
        <ele>388.2</ele>
        <time>2023-08-29T07:05:02Z</time>
      </trkpt>
      <trkpt lat="45.53437" lon="5.41626">
        <ele>388.2</ele>
        <time>2023-08-29T07:05:03Z</time>
      </trkpt>
      <trkpt lat="45.53433" lon="5.41629">
        <ele>388.2</ele>
        <time>2023-08-29T07:05:04Z</time>
      </trkpt>
      <trkpt lat="45.53429" lon="5.41633">
        <ele>388.2</ele>
        <time>2023-08-29T07:05:05Z</time>
      </trkpt>
      <trkpt lat="45.53425" lon="5.41636">
        <ele>388.2</ele>
        <time>2023-08-29T07:05:06Z</time>
      </trkpt>
      <trkpt lat="45.53421" lon="5.4164">
        <ele>388.2</ele>
        <time>2023-08-29T07:05:07Z</time>
      </trkpt>
      <trkpt lat="45.53416" lon="5.41643">
        <ele>388.4</ele>
        <time>2023-08-29T07:05:08Z</time>
      </trkpt>
      <trkpt lat="45.53412" lon="5.41647">
        <ele>388.6</ele>
        <time>2023-08-29T07:05:09Z</time>
      </trkpt>
      <trkpt lat="45.53408" lon="5.4165">
        <ele>388.6</ele>
        <time>2023-08-29T07:05:10Z</time>
      </trkpt>
      <trkpt lat="45.53404" lon="5.41653">
        <ele>388.8</ele>
        <time>2023-08-29T07:05:11Z</time>
      </trkpt>
      <trkpt lat="45.53399" lon="5.41657">
        <ele>388.8</ele>
        <time>2023-08-29T07:05:12Z</time>
      </trkpt>
      <trkpt lat="45.53395" lon="5.41661">
        <ele>388.8</ele>
        <time>2023-08-29T07:05:13Z</time>
      </trkpt>
      <trkpt lat="45.53391" lon="5.41665">
        <ele>388.8</ele>
        <time>2023-08-29T07:05:14Z</time>
      </trkpt>
      <trkpt lat="45.53386" lon="5.41669">
        <ele>388.8</ele>
        <time>2023-08-29T07:05:15Z</time>
      </trkpt>
      <trkpt lat="45.53381" lon="5.41673">
        <ele>388.8</ele>
        <time>2023-08-29T07:05:16Z</time>
      </trkpt>
      <trkpt lat="45.53377" lon="5.41677">
        <ele>388.8</ele>
        <time>2023-08-29T07:05:17Z</time>
      </trkpt>
      <trkpt lat="45.53373" lon="5.41681">
        <ele>388.8</ele>
        <time>2023-08-29T07:05:18Z</time>
      </trkpt>
      <trkpt lat="45.53368" lon="5.41685">
        <ele>388.8</ele>
        <time>2023-08-29T07:05:19Z</time>
      </trkpt>
      <trkpt lat="45.53364" lon="5.41689">
        <ele>388.6</ele>
        <time>2023-08-29T07:05:20Z</time>
      </trkpt>
      <trkpt lat="45.5336" lon="5.41693">
        <ele>388.6</ele>
        <time>2023-08-29T07:05:21Z</time>
      </trkpt>
      <trkpt lat="45.53355" lon="5.41697">
        <ele>388.6</ele>
        <time>2023-08-29T07:05:22Z</time>
      </trkpt>
      <trkpt lat="45.53351" lon="5.41701">
        <ele>388.6</ele>
        <time>2023-08-29T07:05:23Z</time>
      </trkpt>
      <trkpt lat="45.53347" lon="5.41704">
        <ele>388.6</ele>
        <time>2023-08-29T07:05:24Z</time>
      </trkpt>
      <trkpt lat="45.53343" lon="5.41707">
        <ele>388.6</ele>
        <time>2023-08-29T07:05:25Z</time>
      </trkpt>
      <trkpt lat="45.53339" lon="5.4171">
        <ele>388.6</ele>
        <time>2023-08-29T07:05:26Z</time>
      </trkpt>
      <trkpt lat="45.53335" lon="5.41714">
        <ele>388.4</ele>
        <time>2023-08-29T07:05:27Z</time>
      </trkpt>
      <trkpt lat="45.53331" lon="5.41717">
        <ele>388.4</ele>
        <time>2023-08-29T07:05:28Z</time>
      </trkpt>
      <trkpt lat="45.53326" lon="5.41721">
        <ele>388.4</ele>
        <time>2023-08-29T07:05:29Z</time>
      </trkpt>
      <trkpt lat="45.53321" lon="5.41726">
        <ele>388.4</ele>
        <time>2023-08-29T07:05:30Z</time>
      </trkpt>
      <trkpt lat="45.53317" lon="5.41729">
        <ele>388.4</ele>
        <time>2023-08-29T07:05:31Z</time>
      </trkpt>
      <trkpt lat="45.53312" lon="5.41734">
        <ele>388.4</ele>
        <time>2023-08-29T07:05:32Z</time>
      </trkpt>
      <trkpt lat="45.53308" lon="5.41737">
        <ele>388.4</ele>
        <time>2023-08-29T07:05:33Z</time>
      </trkpt>
      <trkpt lat="45.53303" lon="5.41741">
        <ele>388.6</ele>
        <time>2023-08-29T07:05:34Z</time>
      </trkpt>
      <trkpt lat="45.53299" lon="5.41744">
        <ele>388.8</ele>
        <time>2023-08-29T07:05:35Z</time>
      </trkpt>
      <trkpt lat="45.53295" lon="5.41748">
        <ele>388.8</ele>
        <time>2023-08-29T07:05:36Z</time>
      </trkpt>
      <trkpt lat="45.53291" lon="5.41751">
        <ele>388.8</ele>
        <time>2023-08-29T07:05:37Z</time>
      </trkpt>
      <trkpt lat="45.53287" lon="5.41754">
        <ele>389</ele>
        <time>2023-08-29T07:05:38Z</time>
      </trkpt>
      <trkpt lat="45.53282" lon="5.41759">
        <ele>389.2</ele>
        <time>2023-08-29T07:05:39Z</time>
      </trkpt>
      <trkpt lat="45.53278" lon="5.41762">
        <ele>389.4</ele>
        <time>2023-08-29T07:05:40Z</time>
      </trkpt>
      <trkpt lat="45.53273" lon="5.41766">
        <ele>389.4</ele>
        <time>2023-08-29T07:05:41Z</time>
      </trkpt>
      <trkpt lat="45.53269" lon="5.4177">
        <ele>389.6</ele>
        <time>2023-08-29T07:05:42Z</time>
      </trkpt>
      <trkpt lat="45.53265" lon="5.41773">
        <ele>389.6</ele>
        <time>2023-08-29T07:05:43Z</time>
      </trkpt>
      <trkpt lat="45.53261" lon="5.41777">
        <ele>389.6</ele>
        <time>2023-08-29T07:05:44Z</time>
      </trkpt>
      <trkpt lat="45.53256" lon="5.4178">
        <ele>389.6</ele>
        <time>2023-08-29T07:05:45Z</time>
      </trkpt>
      <trkpt lat="45.53252" lon="5.41784">
        <ele>389.6</ele>
        <time>2023-08-29T07:05:46Z</time>
      </trkpt>
      <trkpt lat="45.53247" lon="5.41788">
        <ele>389.8</ele>
        <time>2023-08-29T07:05:47Z</time>
      </trkpt>
      <trkpt lat="45.53243" lon="5.41791">
        <ele>389.8</ele>
        <time>2023-08-29T07:05:48Z</time>
      </trkpt>
      <trkpt lat="45.53239" lon="5.41795">
        <ele>389.8</ele>
        <time>2023-08-29T07:05:49Z</time>
      </trkpt>
      <trkpt lat="45.53235" lon="5.41798">
        <ele>389.8</ele>
        <time>2023-08-29T07:05:50Z</time>
      </trkpt>
      <trkpt lat="45.53231" lon="5.41801">
        <ele>390</ele>
        <time>2023-08-29T07:05:51Z</time>
      </trkpt>
      <trkpt lat="45.53227" lon="5.41805">
        <ele>390</ele>
        <time>2023-08-29T07:05:52Z</time>
      </trkpt>
      <trkpt lat="45.53223" lon="5.41809">
        <ele>390.2</ele>
        <time>2023-08-29T07:05:53Z</time>
      </trkpt>
      <trkpt lat="45.53219" lon="5.41812">
        <ele>390.2</ele>
        <time>2023-08-29T07:05:54Z</time>
      </trkpt>
      <trkpt lat="45.53215" lon="5.41816">
        <ele>390.2</ele>
        <time>2023-08-29T07:05:55Z</time>
      </trkpt>
      <trkpt lat="45.5321" lon="5.4182">
        <ele>390.4</ele>
        <time>2023-08-29T07:05:56Z</time>
      </trkpt>
      <trkpt lat="45.53206" lon="5.41823">
        <ele>390.4</ele>
        <time>2023-08-29T07:05:57Z</time>
      </trkpt>
      <trkpt lat="45.53202" lon="5.41827">
        <ele>390.4</ele>
        <time>2023-08-29T07:05:58Z</time>
      </trkpt>
      <trkpt lat="45.53197" lon="5.4183">
        <ele>390.4</ele>
        <time>2023-08-29T07:05:59Z</time>
      </trkpt>
      <trkpt lat="45.53193" lon="5.41834">
        <ele>390.4</ele>
        <time>2023-08-29T07:06:00Z</time>
      </trkpt>
      <trkpt lat="45.53188" lon="5.41839">
        <ele>390.4</ele>
        <time>2023-08-29T07:06:01Z</time>
      </trkpt>
      <trkpt lat="45.53183" lon="5.41843">
        <ele>390.6</ele>
        <time>2023-08-29T07:06:02Z</time>
      </trkpt>
      <trkpt lat="45.53178" lon="5.41847">
        <ele>390.6</ele>
        <time>2023-08-29T07:06:03Z</time>
      </trkpt>
      <trkpt lat="45.53173" lon="5.41851">
        <ele>390.8</ele>
        <time>2023-08-29T07:06:04Z</time>
      </trkpt>
      <trkpt lat="45.53169" lon="5.41856">
        <ele>391</ele>
        <time>2023-08-29T07:06:05Z</time>
      </trkpt>
      <trkpt lat="45.53164" lon="5.4186">
        <ele>391</ele>
        <time>2023-08-29T07:06:06Z</time>
      </trkpt>
      <trkpt lat="45.5316" lon="5.41864">
        <ele>391.2</ele>
        <time>2023-08-29T07:06:07Z</time>
      </trkpt>
      <trkpt lat="45.53155" lon="5.41868">
        <ele>391.2</ele>
        <time>2023-08-29T07:06:08Z</time>
      </trkpt>
      <trkpt lat="45.53151" lon="5.41872">
        <ele>391.2</ele>
        <time>2023-08-29T07:06:09Z</time>
      </trkpt>
      <trkpt lat="45.53147" lon="5.41876">
        <ele>391.4</ele>
        <time>2023-08-29T07:06:10Z</time>
      </trkpt>
      <trkpt lat="45.53142" lon="5.4188">
        <ele>391.4</ele>
        <time>2023-08-29T07:06:11Z</time>
      </trkpt>
      <trkpt lat="45.53138" lon="5.41883">
        <ele>391.6</ele>
        <time>2023-08-29T07:06:12Z</time>
      </trkpt>
      <trkpt lat="45.53133" lon="5.41887">
        <ele>391.8</ele>
        <time>2023-08-29T07:06:13Z</time>
      </trkpt>
      <trkpt lat="45.53128" lon="5.41891">
        <ele>391.8</ele>
        <time>2023-08-29T07:06:14Z</time>
      </trkpt>
      <trkpt lat="45.53124" lon="5.41895">
        <ele>392</ele>
        <time>2023-08-29T07:06:15Z</time>
      </trkpt>
      <trkpt lat="45.5312" lon="5.41899">
        <ele>392</ele>
        <time>2023-08-29T07:06:16Z</time>
      </trkpt>
      <trkpt lat="45.53115" lon="5.41902">
        <ele>392.2</ele>
        <time>2023-08-29T07:06:17Z</time>
      </trkpt>
      <trkpt lat="45.53111" lon="5.41907">
        <ele>392.2</ele>
        <time>2023-08-29T07:06:18Z</time>
      </trkpt>
      <trkpt lat="45.53105" lon="5.4191">
        <ele>392.2</ele>
        <time>2023-08-29T07:06:19Z</time>
      </trkpt>
      <trkpt lat="45.53101" lon="5.41914">
        <ele>392.4</ele>
        <time>2023-08-29T07:06:20Z</time>
      </trkpt>
      <trkpt lat="45.53097" lon="5.41918">
        <ele>392.4</ele>
        <time>2023-08-29T07:06:21Z</time>
      </trkpt>
      <trkpt lat="45.53092" lon="5.41923">
        <ele>392.6</ele>
        <time>2023-08-29T07:06:22Z</time>
      </trkpt>
      <trkpt lat="45.53088" lon="5.41926">
        <ele>392.8</ele>
        <time>2023-08-29T07:06:23Z</time>
      </trkpt>
      <trkpt lat="45.53084" lon="5.4193">
        <ele>392.8</ele>
        <time>2023-08-29T07:06:24Z</time>
      </trkpt>
      <trkpt lat="45.53079" lon="5.41933">
        <ele>392.8</ele>
        <time>2023-08-29T07:06:25Z</time>
      </trkpt>
      <trkpt lat="45.53075" lon="5.41937">
        <ele>392.8</ele>
        <time>2023-08-29T07:06:26Z</time>
      </trkpt>
      <trkpt lat="45.5307" lon="5.41941">
        <ele>393</ele>
        <time>2023-08-29T07:06:27Z</time>
      </trkpt>
      <trkpt lat="45.53066" lon="5.41945">
        <ele>393.2</ele>
        <time>2023-08-29T07:06:28Z</time>
      </trkpt>
      <trkpt lat="45.53062" lon="5.41949">
        <ele>393.2</ele>
        <time>2023-08-29T07:06:29Z</time>
      </trkpt>
      <trkpt lat="45.53057" lon="5.41953">
        <ele>393.2</ele>
        <time>2023-08-29T07:06:30Z</time>
      </trkpt>
      <trkpt lat="45.53053" lon="5.41956">
        <ele>393.4</ele>
        <time>2023-08-29T07:06:31Z</time>
      </trkpt>
      <trkpt lat="45.53049" lon="5.4196">
        <ele>393.4</ele>
        <time>2023-08-29T07:06:32Z</time>
      </trkpt>
      <trkpt lat="45.53045" lon="5.41964">
        <ele>393.6</ele>
        <time>2023-08-29T07:06:33Z</time>
      </trkpt>
      <trkpt lat="45.5304" lon="5.41967">
        <ele>393.8</ele>
        <time>2023-08-29T07:06:34Z</time>
      </trkpt>
      <trkpt lat="45.53036" lon="5.4197">
        <ele>393.8</ele>
        <time>2023-08-29T07:06:35Z</time>
      </trkpt>
      <trkpt lat="45.53031" lon="5.41973">
        <ele>394</ele>
        <time>2023-08-29T07:06:36Z</time>
      </trkpt>
      <trkpt lat="45.53026" lon="5.41976">
        <ele>394</ele>
        <time>2023-08-29T07:06:37Z</time>
      </trkpt>
      <trkpt lat="45.53021" lon="5.41979">
        <ele>394</ele>
        <time>2023-08-29T07:06:38Z</time>
      </trkpt>
      <trkpt lat="45.53016" lon="5.41982">
        <ele>394.2</ele>
        <time>2023-08-29T07:06:39Z</time>
      </trkpt>
      <trkpt lat="45.53011" lon="5.41984">
        <ele>394.2</ele>
        <time>2023-08-29T07:06:40Z</time>
      </trkpt>
      <trkpt lat="45.53006" lon="5.41987">
        <ele>394.4</ele>
        <time>2023-08-29T07:06:41Z</time>
      </trkpt>
      <trkpt lat="45.53001" lon="5.41988">
        <ele>394.6</ele>
        <time>2023-08-29T07:06:42Z</time>
      </trkpt>
      <trkpt lat="45.52996" lon="5.4199">
        <ele>394.6</ele>
        <time>2023-08-29T07:06:43Z</time>
      </trkpt>
      <trkpt lat="45.52991" lon="5.41992">
        <ele>394.6</ele>
        <time>2023-08-29T07:06:44Z</time>
      </trkpt>
      <trkpt lat="45.52986" lon="5.41994">
        <ele>394.8</ele>
        <time>2023-08-29T07:06:45Z</time>
      </trkpt>
      <trkpt lat="45.52981" lon="5.41995">
        <ele>395</ele>
        <time>2023-08-29T07:06:46Z</time>
      </trkpt>
      <trkpt lat="45.52976" lon="5.41996">
        <ele>395</ele>
        <time>2023-08-29T07:06:47Z</time>
      </trkpt>
      <trkpt lat="45.52971" lon="5.41997">
        <ele>395</ele>
        <time>2023-08-29T07:06:48Z</time>
      </trkpt>
      <trkpt lat="45.52965" lon="5.41998">
        <ele>395</ele>
        <time>2023-08-29T07:06:49Z</time>
      </trkpt>
      <trkpt lat="45.5296" lon="5.41999">
        <ele>395.2</ele>
        <time>2023-08-29T07:06:50Z</time>
      </trkpt>
      <trkpt lat="45.52955" lon="5.41999">
        <ele>395.4</ele>
        <time>2023-08-29T07:06:51Z</time>
      </trkpt>
      <trkpt lat="45.5295" lon="5.41999">
        <ele>395.4</ele>
        <time>2023-08-29T07:06:52Z</time>
      </trkpt>
      <trkpt lat="45.52945" lon="5.41999">
        <ele>395.4</ele>
        <time>2023-08-29T07:06:53Z</time>
      </trkpt>
      <trkpt lat="45.5294" lon="5.41999">
        <ele>395.6</ele>
        <time>2023-08-29T07:06:54Z</time>
      </trkpt>
      <trkpt lat="45.52936" lon="5.42">
        <ele>395.6</ele>
        <time>2023-08-29T07:06:55Z</time>
      </trkpt>
      <trkpt lat="45.52931" lon="5.41999">
        <ele>395.6</ele>
        <time>2023-08-29T07:06:56Z</time>
      </trkpt>
      <trkpt lat="45.52926" lon="5.41999">
        <ele>395.8</ele>
        <time>2023-08-29T07:06:57Z</time>
      </trkpt>
      <trkpt lat="45.52921" lon="5.41998">
        <ele>395.8</ele>
        <time>2023-08-29T07:06:58Z</time>
      </trkpt>
      <trkpt lat="45.52916" lon="5.41998">
        <ele>396</ele>
        <time>2023-08-29T07:06:59Z</time>
      </trkpt>
      <trkpt lat="45.52912" lon="5.41997">
        <ele>396.2</ele>
        <time>2023-08-29T07:07:00Z</time>
      </trkpt>
      <trkpt lat="45.52907" lon="5.41997">
        <ele>396.2</ele>
        <time>2023-08-29T07:07:01Z</time>
      </trkpt>
      <trkpt lat="45.52902" lon="5.41996">
        <ele>396.6</ele>
        <time>2023-08-29T07:07:02Z</time>
      </trkpt>
      <trkpt lat="45.52897" lon="5.41996">
        <ele>397</ele>
        <time>2023-08-29T07:07:03Z</time>
      </trkpt>
      <trkpt lat="45.52893" lon="5.41996">
        <ele>397.2</ele>
        <time>2023-08-29T07:07:04Z</time>
      </trkpt>
      <trkpt lat="45.52888" lon="5.41995">
        <ele>397.4</ele>
        <time>2023-08-29T07:07:05Z</time>
      </trkpt>
      <trkpt lat="45.52884" lon="5.41994">
        <ele>397.4</ele>
        <time>2023-08-29T07:07:06Z</time>
      </trkpt>
      <trkpt lat="45.52879" lon="5.41993">
        <ele>397.8</ele>
        <time>2023-08-29T07:07:07Z</time>
      </trkpt>
      <trkpt lat="45.52874" lon="5.41993">
        <ele>398</ele>
        <time>2023-08-29T07:07:08Z</time>
      </trkpt>
      <trkpt lat="45.52869" lon="5.41992">
        <ele>398.2</ele>
        <time>2023-08-29T07:07:09Z</time>
      </trkpt>
      <trkpt lat="45.52865" lon="5.41991">
        <ele>398.4</ele>
        <time>2023-08-29T07:07:10Z</time>
      </trkpt>
      <trkpt lat="45.5286" lon="5.41991">
        <ele>398.8</ele>
        <time>2023-08-29T07:07:11Z</time>
      </trkpt>
      <trkpt lat="45.52856" lon="5.4199">
        <ele>399</ele>
        <time>2023-08-29T07:07:12Z</time>
      </trkpt>
      <trkpt lat="45.5285" lon="5.41989">
        <ele>399.2</ele>
        <time>2023-08-29T07:07:13Z</time>
      </trkpt>
      <trkpt lat="45.52845" lon="5.41988">
        <ele>399.4</ele>
        <time>2023-08-29T07:07:14Z</time>
      </trkpt>
      <trkpt lat="45.5284" lon="5.41988">
        <ele>399.4</ele>
        <time>2023-08-29T07:07:15Z</time>
      </trkpt>
      <trkpt lat="45.52836" lon="5.41988">
        <ele>399.6</ele>
        <time>2023-08-29T07:07:16Z</time>
      </trkpt>
      <trkpt lat="45.52831" lon="5.41988">
        <ele>400</ele>
        <time>2023-08-29T07:07:17Z</time>
      </trkpt>
      <trkpt lat="45.52827" lon="5.41988">
        <ele>400</ele>
        <time>2023-08-29T07:07:18Z</time>
      </trkpt>
      <trkpt lat="45.52822" lon="5.41988">
        <ele>400</ele>
        <time>2023-08-29T07:07:19Z</time>
      </trkpt>
      <trkpt lat="45.52817" lon="5.41988">
        <ele>400.2</ele>
        <time>2023-08-29T07:07:20Z</time>
      </trkpt>
      <trkpt lat="45.52812" lon="5.41989">
        <ele>400.4</ele>
        <time>2023-08-29T07:07:21Z</time>
      </trkpt>
      <trkpt lat="45.52808" lon="5.4199">
        <ele>400.6</ele>
        <time>2023-08-29T07:07:22Z</time>
      </trkpt>
      <trkpt lat="45.52803" lon="5.41991">
        <ele>400.6</ele>
        <time>2023-08-29T07:07:23Z</time>
      </trkpt>
      <trkpt lat="45.52797" lon="5.41991">
        <ele>400.8</ele>
        <time>2023-08-29T07:07:24Z</time>
      </trkpt>
      <trkpt lat="45.52793" lon="5.41992">
        <ele>401</ele>
        <time>2023-08-29T07:07:25Z</time>
      </trkpt>
      <trkpt lat="45.52788" lon="5.41993">
        <ele>401.2</ele>
        <time>2023-08-29T07:07:26Z</time>
      </trkpt>
      <trkpt lat="45.52783" lon="5.41994">
        <ele>401.2</ele>
        <time>2023-08-29T07:07:27Z</time>
      </trkpt>
      <trkpt lat="45.52778" lon="5.41995">
        <ele>401.2</ele>
        <time>2023-08-29T07:07:28Z</time>
      </trkpt>
      <trkpt lat="45.52773" lon="5.41997">
        <ele>401.4</ele>
        <time>2023-08-29T07:07:29Z</time>
      </trkpt>
      <trkpt lat="45.52767" lon="5.41999">
        <ele>401.4</ele>
        <time>2023-08-29T07:07:30Z</time>
      </trkpt>
      <trkpt lat="45.52763" lon="5.42001">
        <ele>401.4</ele>
        <time>2023-08-29T07:07:31Z</time>
      </trkpt>
      <trkpt lat="45.52758" lon="5.42004">
        <ele>401.4</ele>
        <time>2023-08-29T07:07:32Z</time>
      </trkpt>
      <trkpt lat="45.52753" lon="5.42008">
        <ele>401.4</ele>
        <time>2023-08-29T07:07:33Z</time>
      </trkpt>
      <trkpt lat="45.52748" lon="5.42012">
        <ele>401.4</ele>
        <time>2023-08-29T07:07:34Z</time>
      </trkpt>
      <trkpt lat="45.52743" lon="5.42016">
        <ele>401.6</ele>
        <time>2023-08-29T07:07:35Z</time>
      </trkpt>
      <trkpt lat="45.52739" lon="5.42022">
        <ele>401.8</ele>
        <time>2023-08-29T07:07:36Z</time>
      </trkpt>
      <trkpt lat="45.52735" lon="5.42027">
        <ele>401.8</ele>
        <time>2023-08-29T07:07:37Z</time>
      </trkpt>
      <trkpt lat="45.52732" lon="5.42033">
        <ele>402</ele>
        <time>2023-08-29T07:07:38Z</time>
      </trkpt>
      <trkpt lat="45.52729" lon="5.42039">
        <ele>402</ele>
        <time>2023-08-29T07:07:39Z</time>
      </trkpt>
      <trkpt lat="45.52726" lon="5.42045">
        <ele>402</ele>
        <time>2023-08-29T07:07:40Z</time>
      </trkpt>
      <trkpt lat="45.52724" lon="5.42052">
        <ele>402</ele>
        <time>2023-08-29T07:07:41Z</time>
      </trkpt>
      <trkpt lat="45.52722" lon="5.42058">
        <ele>402</ele>
        <time>2023-08-29T07:07:42Z</time>
      </trkpt>
      <trkpt lat="45.52721" lon="5.42065">
        <ele>402</ele>
        <time>2023-08-29T07:07:43Z</time>
      </trkpt>
      <trkpt lat="45.5272" lon="5.42072">
        <ele>402</ele>
        <time>2023-08-29T07:07:44Z</time>
      </trkpt>
      <trkpt lat="45.52719" lon="5.4208">
        <ele>402.2</ele>
        <time>2023-08-29T07:07:45Z</time>
      </trkpt>
      <trkpt lat="45.52718" lon="5.42088">
        <ele>402.4</ele>
        <time>2023-08-29T07:07:46Z</time>
      </trkpt>
      <trkpt lat="45.52718" lon="5.42095">
        <ele>402.6</ele>
        <time>2023-08-29T07:07:47Z</time>
      </trkpt>
      <trkpt lat="45.52716" lon="5.42102">
        <ele>402.6</ele>
        <time>2023-08-29T07:07:48Z</time>
      </trkpt>
      <trkpt lat="45.52715" lon="5.42109">
        <ele>402.6</ele>
        <time>2023-08-29T07:07:49Z</time>
      </trkpt>
      <trkpt lat="45.52713" lon="5.42116">
        <ele>402.6</ele>
        <time>2023-08-29T07:07:50Z</time>
      </trkpt>
      <trkpt lat="45.52711" lon="5.42123">
        <ele>402.6</ele>
        <time>2023-08-29T07:07:51Z</time>
      </trkpt>
      <trkpt lat="45.52709" lon="5.42129">
        <ele>402.6</ele>
        <time>2023-08-29T07:07:52Z</time>
      </trkpt>
      <trkpt lat="45.52706" lon="5.42135">
        <ele>402.6</ele>
        <time>2023-08-29T07:07:53Z</time>
      </trkpt>
      <trkpt lat="45.52704" lon="5.42142">
        <ele>402.6</ele>
        <time>2023-08-29T07:07:54Z</time>
      </trkpt>
      <trkpt lat="45.52701" lon="5.42148">
        <ele>402.6</ele>
        <time>2023-08-29T07:07:55Z</time>
      </trkpt>
      <trkpt lat="45.52697" lon="5.42154">
        <ele>402.6</ele>
        <time>2023-08-29T07:07:56Z</time>
      </trkpt>
      <trkpt lat="45.52694" lon="5.42159">
        <ele>402.6</ele>
        <time>2023-08-29T07:07:57Z</time>
      </trkpt>
      <trkpt lat="45.5269" lon="5.42165">
        <ele>402.6</ele>
        <time>2023-08-29T07:07:58Z</time>
      </trkpt>
      <trkpt lat="45.52686" lon="5.4217">
        <ele>402.6</ele>
        <time>2023-08-29T07:07:59Z</time>
      </trkpt>
      <trkpt lat="45.52683" lon="5.42174">
        <ele>403</ele>
        <time>2023-08-29T07:08:00Z</time>
      </trkpt>
      <trkpt lat="45.52679" lon="5.42178">
        <ele>403</ele>
        <time>2023-08-29T07:08:01Z</time>
      </trkpt>
      <trkpt lat="45.52675" lon="5.42182">
        <ele>403</ele>
        <time>2023-08-29T07:08:02Z</time>
      </trkpt>
      <trkpt lat="45.5267" lon="5.42186">
        <ele>403.2</ele>
        <time>2023-08-29T07:08:03Z</time>
      </trkpt>
      <trkpt lat="45.52666" lon="5.4219">
        <ele>403.2</ele>
        <time>2023-08-29T07:08:04Z</time>
      </trkpt>
      <trkpt lat="45.52661" lon="5.42193">
        <ele>403.4</ele>
        <time>2023-08-29T07:08:05Z</time>
      </trkpt>
      <trkpt lat="45.52656" lon="5.42195">
        <ele>403.6</ele>
        <time>2023-08-29T07:08:06Z</time>
      </trkpt>
      <trkpt lat="45.52651" lon="5.42198">
        <ele>403.6</ele>
        <time>2023-08-29T07:08:07Z</time>
      </trkpt>
      <trkpt lat="45.52645" lon="5.422">
        <ele>403.8</ele>
        <time>2023-08-29T07:08:08Z</time>
      </trkpt>
      <trkpt lat="45.5264" lon="5.42201">
        <ele>403.8</ele>
        <time>2023-08-29T07:08:09Z</time>
      </trkpt>
      <trkpt lat="45.52635" lon="5.42202">
        <ele>404</ele>
        <time>2023-08-29T07:08:10Z</time>
      </trkpt>
      <trkpt lat="45.52631" lon="5.42203">
        <ele>404</ele>
        <time>2023-08-29T07:08:11Z</time>
      </trkpt>
      <trkpt lat="45.52626" lon="5.42203">
        <ele>404.4</ele>
        <time>2023-08-29T07:08:12Z</time>
      </trkpt>
      <trkpt lat="45.52622" lon="5.42205">
        <ele>404.8</ele>
        <time>2023-08-29T07:08:13Z</time>
      </trkpt>
      <trkpt lat="45.52618" lon="5.42205">
        <ele>405.2</ele>
        <time>2023-08-29T07:08:14Z</time>
      </trkpt>
      <trkpt lat="45.52613" lon="5.42206">
        <ele>405.4</ele>
        <time>2023-08-29T07:08:15Z</time>
      </trkpt>
      <trkpt lat="45.52608" lon="5.42207">
        <ele>405.6</ele>
        <time>2023-08-29T07:08:16Z</time>
      </trkpt>
      <trkpt lat="45.52604" lon="5.42208">
        <ele>406</ele>
        <time>2023-08-29T07:08:17Z</time>
      </trkpt>
      <trkpt lat="45.526" lon="5.4221">
        <ele>406</ele>
        <time>2023-08-29T07:08:18Z</time>
      </trkpt>
      <trkpt lat="45.52595" lon="5.42212">
        <ele>406.2</ele>
        <time>2023-08-29T07:08:19Z</time>
      </trkpt>
      <trkpt lat="45.5259" lon="5.42214">
        <ele>406.4</ele>
        <time>2023-08-29T07:08:20Z</time>
      </trkpt>
      <trkpt lat="45.52586" lon="5.42216">
        <ele>406.4</ele>
        <time>2023-08-29T07:08:21Z</time>
      </trkpt>
      <trkpt lat="45.52581" lon="5.42218">
        <ele>406.4</ele>
        <time>2023-08-29T07:08:22Z</time>
      </trkpt>
      <trkpt lat="45.52576" lon="5.4222">
        <ele>406.4</ele>
        <time>2023-08-29T07:08:23Z</time>
      </trkpt>
      <trkpt lat="45.52571" lon="5.42222">
        <ele>406.4</ele>
        <time>2023-08-29T07:08:24Z</time>
      </trkpt>
      <trkpt lat="45.52566" lon="5.42224">
        <ele>406.4</ele>
        <time>2023-08-29T07:08:25Z</time>
      </trkpt>
      <trkpt lat="45.52561" lon="5.42226">
        <ele>406.4</ele>
        <time>2023-08-29T07:08:26Z</time>
      </trkpt>
      <trkpt lat="45.52555" lon="5.42228">
        <ele>406.4</ele>
        <time>2023-08-29T07:08:27Z</time>
      </trkpt>
      <trkpt lat="45.5255" lon="5.4223">
        <ele>406.4</ele>
        <time>2023-08-29T07:08:28Z</time>
      </trkpt>
      <trkpt lat="45.52545" lon="5.42232">
        <ele>406.2</ele>
        <time>2023-08-29T07:08:29Z</time>
      </trkpt>
      <trkpt lat="45.5254" lon="5.42234">
        <ele>406.2</ele>
        <time>2023-08-29T07:08:30Z</time>
      </trkpt>
      <trkpt lat="45.52535" lon="5.42236">
        <ele>406.2</ele>
        <time>2023-08-29T07:08:31Z</time>
      </trkpt>
      <trkpt lat="45.52529" lon="5.42238">
        <ele>406</ele>
        <time>2023-08-29T07:08:32Z</time>
      </trkpt>
      <trkpt lat="45.52524" lon="5.4224">
        <ele>406</ele>
        <time>2023-08-29T07:08:33Z</time>
      </trkpt>
      <trkpt lat="45.52519" lon="5.42241">
        <ele>405.8</ele>
        <time>2023-08-29T07:08:34Z</time>
      </trkpt>
      <trkpt lat="45.52514" lon="5.42243">
        <ele>405.8</ele>
        <time>2023-08-29T07:08:35Z</time>
      </trkpt>
      <trkpt lat="45.52508" lon="5.42245">
        <ele>405.8</ele>
        <time>2023-08-29T07:08:36Z</time>
      </trkpt>
      <trkpt lat="45.52503" lon="5.42248">
        <ele>405.8</ele>
        <time>2023-08-29T07:08:37Z</time>
      </trkpt>
      <trkpt lat="45.52498" lon="5.4225">
        <ele>405.8</ele>
        <time>2023-08-29T07:08:38Z</time>
      </trkpt>
      <trkpt lat="45.52493" lon="5.42252">
        <ele>405.6</ele>
        <time>2023-08-29T07:08:39Z</time>
      </trkpt>
      <trkpt lat="45.52487" lon="5.42253">
        <ele>405.6</ele>
        <time>2023-08-29T07:08:40Z</time>
      </trkpt>
      <trkpt lat="45.52482" lon="5.42256">
        <ele>405.6</ele>
        <time>2023-08-29T07:08:41Z</time>
      </trkpt>
      <trkpt lat="45.52477" lon="5.42257">
        <ele>405.6</ele>
        <time>2023-08-29T07:08:42Z</time>
      </trkpt>
      <trkpt lat="45.52472" lon="5.42259">
        <ele>405.6</ele>
        <time>2023-08-29T07:08:43Z</time>
      </trkpt>
      <trkpt lat="45.52466" lon="5.42262">
        <ele>405.6</ele>
        <time>2023-08-29T07:08:44Z</time>
      </trkpt>
      <trkpt lat="45.52461" lon="5.42264">
        <ele>405.6</ele>
        <time>2023-08-29T07:08:45Z</time>
      </trkpt>
      <trkpt lat="45.52456" lon="5.42265">
        <ele>405.8</ele>
        <time>2023-08-29T07:08:46Z</time>
      </trkpt>
      <trkpt lat="45.5245" lon="5.42267">
        <ele>405.8</ele>
        <time>2023-08-29T07:08:47Z</time>
      </trkpt>
      <trkpt lat="45.52445" lon="5.4227">
        <ele>406</ele>
        <time>2023-08-29T07:08:48Z</time>
      </trkpt>
      <trkpt lat="45.5244" lon="5.42271">
        <ele>406</ele>
        <time>2023-08-29T07:08:49Z</time>
      </trkpt>
      <trkpt lat="45.52435" lon="5.42273">
        <ele>406.2</ele>
        <time>2023-08-29T07:08:50Z</time>
      </trkpt>
      <trkpt lat="45.5243" lon="5.42275">
        <ele>406.2</ele>
        <time>2023-08-29T07:08:51Z</time>
      </trkpt>
      <trkpt lat="45.52425" lon="5.42277">
        <ele>406.6</ele>
        <time>2023-08-29T07:08:52Z</time>
      </trkpt>
      <trkpt lat="45.5242" lon="5.42278">
        <ele>406.6</ele>
        <time>2023-08-29T07:08:53Z</time>
      </trkpt>
      <trkpt lat="45.52416" lon="5.4228">
        <ele>406.6</ele>
        <time>2023-08-29T07:08:54Z</time>
      </trkpt>
      <trkpt lat="45.5241" lon="5.42282">
        <ele>406.8</ele>
        <time>2023-08-29T07:08:55Z</time>
      </trkpt>
      <trkpt lat="45.52406" lon="5.42284">
        <ele>406.8</ele>
        <time>2023-08-29T07:08:56Z</time>
      </trkpt>
      <trkpt lat="45.52401" lon="5.42286">
        <ele>407</ele>
        <time>2023-08-29T07:08:57Z</time>
      </trkpt>
      <trkpt lat="45.52396" lon="5.42288">
        <ele>407</ele>
        <time>2023-08-29T07:08:58Z</time>
      </trkpt>
      <trkpt lat="45.52391" lon="5.4229">
        <ele>407</ele>
        <time>2023-08-29T07:08:59Z</time>
      </trkpt>
      <trkpt lat="45.52386" lon="5.42292">
        <ele>407</ele>
        <time>2023-08-29T07:09:00Z</time>
      </trkpt>
      <trkpt lat="45.52381" lon="5.42293">
        <ele>407.2</ele>
        <time>2023-08-29T07:09:01Z</time>
      </trkpt>
      <trkpt lat="45.52376" lon="5.42295">
        <ele>407.4</ele>
        <time>2023-08-29T07:09:02Z</time>
      </trkpt>
      <trkpt lat="45.52372" lon="5.42297">
        <ele>407.4</ele>
        <time>2023-08-29T07:09:03Z</time>
      </trkpt>
      <trkpt lat="45.52367" lon="5.42299">
        <ele>407.6</ele>
        <time>2023-08-29T07:09:04Z</time>
      </trkpt>
      <trkpt lat="45.52363" lon="5.423">
        <ele>407.6</ele>
        <time>2023-08-29T07:09:05Z</time>
      </trkpt>
      <trkpt lat="45.52358" lon="5.42302">
        <ele>407.8</ele>
        <time>2023-08-29T07:09:06Z</time>
      </trkpt>
      <trkpt lat="45.52353" lon="5.42304">
        <ele>408</ele>
        <time>2023-08-29T07:09:07Z</time>
      </trkpt>
      <trkpt lat="45.52348" lon="5.42306">
        <ele>408.2</ele>
        <time>2023-08-29T07:09:08Z</time>
      </trkpt>
      <trkpt lat="45.52343" lon="5.42308">
        <ele>408.4</ele>
        <time>2023-08-29T07:09:09Z</time>
      </trkpt>
      <trkpt lat="45.52338" lon="5.4231">
        <ele>408.4</ele>
        <time>2023-08-29T07:09:10Z</time>
      </trkpt>
      <trkpt lat="45.52334" lon="5.42311">
        <ele>408.4</ele>
        <time>2023-08-29T07:09:11Z</time>
      </trkpt>
      <trkpt lat="45.5233" lon="5.42313">
        <ele>408.6</ele>
        <time>2023-08-29T07:09:12Z</time>
      </trkpt>
      <trkpt lat="45.52326" lon="5.42315">
        <ele>408.6</ele>
        <time>2023-08-29T07:09:13Z</time>
      </trkpt>
      <trkpt lat="45.52322" lon="5.42316">
        <ele>408.8</ele>
        <time>2023-08-29T07:09:14Z</time>
      </trkpt>
      <trkpt lat="45.52317" lon="5.42318">
        <ele>409</ele>
        <time>2023-08-29T07:09:15Z</time>
      </trkpt>
      <trkpt lat="45.52313" lon="5.42319">
        <ele>409.2</ele>
        <time>2023-08-29T07:09:16Z</time>
      </trkpt>
      <trkpt lat="45.52308" lon="5.42321">
        <ele>409.4</ele>
        <time>2023-08-29T07:09:17Z</time>
      </trkpt>
      <trkpt lat="45.52303" lon="5.42323">
        <ele>409.4</ele>
        <time>2023-08-29T07:09:18Z</time>
      </trkpt>
      <trkpt lat="45.52298" lon="5.42325">
        <ele>409.8</ele>
        <time>2023-08-29T07:09:19Z</time>
      </trkpt>
      <trkpt lat="45.52294" lon="5.42327">
        <ele>409.8</ele>
        <time>2023-08-29T07:09:20Z</time>
      </trkpt>
      <trkpt lat="45.5229" lon="5.42329">
        <ele>410</ele>
        <time>2023-08-29T07:09:21Z</time>
      </trkpt>
      <trkpt lat="45.52285" lon="5.4233">
        <ele>410.2</ele>
        <time>2023-08-29T07:09:22Z</time>
      </trkpt>
      <trkpt lat="45.52281" lon="5.42332">
        <ele>410.4</ele>
        <time>2023-08-29T07:09:23Z</time>
      </trkpt>
      <trkpt lat="45.52276" lon="5.42334">
        <ele>410.4</ele>
        <time>2023-08-29T07:09:24Z</time>
      </trkpt>
      <trkpt lat="45.52272" lon="5.42335">
        <ele>410.6</ele>
        <time>2023-08-29T07:09:25Z</time>
      </trkpt>
      <trkpt lat="45.52267" lon="5.42337">
        <ele>410.8</ele>
        <time>2023-08-29T07:09:26Z</time>
      </trkpt>
      <trkpt lat="45.52263" lon="5.42339">
        <ele>411</ele>
        <time>2023-08-29T07:09:27Z</time>
      </trkpt>
      <trkpt lat="45.52259" lon="5.4234">
        <ele>411.2</ele>
        <time>2023-08-29T07:09:28Z</time>
      </trkpt>
      <trkpt lat="45.52255" lon="5.42342">
        <ele>411.4</ele>
        <time>2023-08-29T07:09:29Z</time>
      </trkpt>
      <trkpt lat="45.52251" lon="5.42344">
        <ele>411.4</ele>
        <time>2023-08-29T07:09:30Z</time>
      </trkpt>
      <trkpt lat="45.52247" lon="5.42347">
        <ele>411.6</ele>
        <time>2023-08-29T07:09:31Z</time>
      </trkpt>
      <trkpt lat="45.52243" lon="5.42349">
        <ele>411.8</ele>
        <time>2023-08-29T07:09:32Z</time>
      </trkpt>
      <trkpt lat="45.52239" lon="5.42351">
        <ele>412</ele>
        <time>2023-08-29T07:09:33Z</time>
      </trkpt>
      <trkpt lat="45.52235" lon="5.42354">
        <ele>412.2</ele>
        <time>2023-08-29T07:09:34Z</time>
      </trkpt>
      <trkpt lat="45.52231" lon="5.42357">
        <ele>412.6</ele>
        <time>2023-08-29T07:09:35Z</time>
      </trkpt>
      <trkpt lat="45.52227" lon="5.42361">
        <ele>412.8</ele>
        <time>2023-08-29T07:09:36Z</time>
      </trkpt>
      <trkpt lat="45.52224" lon="5.42365">
        <ele>413</ele>
        <time>2023-08-29T07:09:37Z</time>
      </trkpt>
      <trkpt lat="45.5222" lon="5.4237">
        <ele>413.2</ele>
        <time>2023-08-29T07:09:38Z</time>
      </trkpt>
      <trkpt lat="45.52217" lon="5.42374">
        <ele>413.6</ele>
        <time>2023-08-29T07:09:39Z</time>
      </trkpt>
      <trkpt lat="45.52214" lon="5.42379">
        <ele>413.8</ele>
        <time>2023-08-29T07:09:40Z</time>
      </trkpt>
      <trkpt lat="45.5221" lon="5.42383">
        <ele>414</ele>
        <time>2023-08-29T07:09:41Z</time>
      </trkpt>
      <trkpt lat="45.52207" lon="5.42387">
        <ele>414.4</ele>
        <time>2023-08-29T07:09:42Z</time>
      </trkpt>
      <trkpt lat="45.52203" lon="5.42391">
        <ele>414.4</ele>
        <time>2023-08-29T07:09:43Z</time>
      </trkpt>
      <trkpt lat="45.522" lon="5.42394">
        <ele>414.8</ele>
        <time>2023-08-29T07:09:44Z</time>
      </trkpt>
      <trkpt lat="45.52197" lon="5.42398">
        <ele>414.8</ele>
        <time>2023-08-29T07:09:45Z</time>
      </trkpt>
      <trkpt lat="45.52193" lon="5.42401">
        <ele>415</ele>
        <time>2023-08-29T07:09:46Z</time>
      </trkpt>
      <trkpt lat="45.5219" lon="5.42404">
        <ele>415.2</ele>
        <time>2023-08-29T07:09:47Z</time>
      </trkpt>
      <trkpt lat="45.52187" lon="5.42407">
        <ele>415.2</ele>
        <time>2023-08-29T07:09:48Z</time>
      </trkpt>
      <trkpt lat="45.52184" lon="5.42411">
        <ele>415.2</ele>
        <time>2023-08-29T07:09:49Z</time>
      </trkpt>
      <trkpt lat="45.5218" lon="5.42414">
        <ele>415.4</ele>
        <time>2023-08-29T07:09:50Z</time>
      </trkpt>
      <trkpt lat="45.52176" lon="5.42418">
        <ele>415.4</ele>
        <time>2023-08-29T07:09:51Z</time>
      </trkpt>
      <trkpt lat="45.52172" lon="5.42422">
        <ele>415.4</ele>
        <time>2023-08-29T07:09:52Z</time>
      </trkpt>
      <trkpt lat="45.52168" lon="5.42426">
        <ele>415.6</ele>
        <time>2023-08-29T07:09:53Z</time>
      </trkpt>
      <trkpt lat="45.52165" lon="5.4243">
        <ele>415.6</ele>
        <time>2023-08-29T07:09:54Z</time>
      </trkpt>
      <trkpt lat="45.52161" lon="5.42434">
        <ele>415.6</ele>
        <time>2023-08-29T07:09:55Z</time>
      </trkpt>
      <trkpt lat="45.52157" lon="5.42438">
        <ele>415.6</ele>
        <time>2023-08-29T07:09:56Z</time>
      </trkpt>
      <trkpt lat="45.52154" lon="5.42442">
        <ele>415.6</ele>
        <time>2023-08-29T07:09:57Z</time>
      </trkpt>
      <trkpt lat="45.5215" lon="5.42446">
        <ele>415.6</ele>
        <time>2023-08-29T07:09:58Z</time>
      </trkpt>
      <trkpt lat="45.52147" lon="5.4245">
        <ele>415.6</ele>
        <time>2023-08-29T07:09:59Z</time>
      </trkpt>
      <trkpt lat="45.52143" lon="5.42454">
        <ele>415.6</ele>
        <time>2023-08-29T07:10:00Z</time>
      </trkpt>
      <trkpt lat="45.5214" lon="5.42458">
        <ele>415.8</ele>
        <time>2023-08-29T07:10:01Z</time>
      </trkpt>
      <trkpt lat="45.52137" lon="5.42462">
        <ele>415.8</ele>
        <time>2023-08-29T07:10:02Z</time>
      </trkpt>
      <trkpt lat="45.52133" lon="5.42466">
        <ele>415.8</ele>
        <time>2023-08-29T07:10:03Z</time>
      </trkpt>
      <trkpt lat="45.5213" lon="5.4247">
        <ele>416</ele>
        <time>2023-08-29T07:10:04Z</time>
      </trkpt>
      <trkpt lat="45.52126" lon="5.42474">
        <ele>416</ele>
        <time>2023-08-29T07:10:05Z</time>
      </trkpt>
      <trkpt lat="45.52123" lon="5.42479">
        <ele>416</ele>
        <time>2023-08-29T07:10:06Z</time>
      </trkpt>
      <trkpt lat="45.5212" lon="5.42484">
        <ele>416</ele>
        <time>2023-08-29T07:10:07Z</time>
      </trkpt>
      <trkpt lat="45.52116" lon="5.42489">
        <ele>416</ele>
        <time>2023-08-29T07:10:08Z</time>
      </trkpt>
      <trkpt lat="45.52112" lon="5.42493">
        <ele>416</ele>
        <time>2023-08-29T07:10:09Z</time>
      </trkpt>
      <trkpt lat="45.52109" lon="5.42497">
        <ele>416</ele>
        <time>2023-08-29T07:10:10Z</time>
      </trkpt>
      <trkpt lat="45.52105" lon="5.42502">
        <ele>416</ele>
        <time>2023-08-29T07:10:11Z</time>
      </trkpt>
      <trkpt lat="45.52101" lon="5.42507">
        <ele>416</ele>
        <time>2023-08-29T07:10:12Z</time>
      </trkpt>
      <trkpt lat="45.52097" lon="5.42511">
        <ele>416</ele>
        <time>2023-08-29T07:10:13Z</time>
      </trkpt>
      <trkpt lat="45.52094" lon="5.42516">
        <ele>416</ele>
        <time>2023-08-29T07:10:14Z</time>
      </trkpt>
      <trkpt lat="45.5209" lon="5.42521">
        <ele>416</ele>
        <time>2023-08-29T07:10:15Z</time>
      </trkpt>
      <trkpt lat="45.52086" lon="5.42525">
        <ele>416</ele>
        <time>2023-08-29T07:10:16Z</time>
      </trkpt>
      <trkpt lat="45.52081" lon="5.4253">
        <ele>416</ele>
        <time>2023-08-29T07:10:17Z</time>
      </trkpt>
      <trkpt lat="45.52077" lon="5.42534">
        <ele>415.8</ele>
        <time>2023-08-29T07:10:18Z</time>
      </trkpt>
      <trkpt lat="45.52072" lon="5.42538">
        <ele>415.8</ele>
        <time>2023-08-29T07:10:19Z</time>
      </trkpt>
      <trkpt lat="45.52068" lon="5.42542">
        <ele>415.8</ele>
        <time>2023-08-29T07:10:20Z</time>
      </trkpt>
      <trkpt lat="45.52064" lon="5.42546">
        <ele>415.4</ele>
        <time>2023-08-29T07:10:21Z</time>
      </trkpt>
      <trkpt lat="45.5206" lon="5.42549">
        <ele>415</ele>
        <time>2023-08-29T07:10:22Z</time>
      </trkpt>
      <trkpt lat="45.52055" lon="5.42552">
        <ele>415</ele>
        <time>2023-08-29T07:10:23Z</time>
      </trkpt>
      <trkpt lat="45.5205" lon="5.42554">
        <ele>415</ele>
        <time>2023-08-29T07:10:24Z</time>
      </trkpt>
      <trkpt lat="45.52045" lon="5.42557">
        <ele>415</ele>
        <time>2023-08-29T07:10:25Z</time>
      </trkpt>
      <trkpt lat="45.52041" lon="5.42559">
        <ele>415</ele>
        <time>2023-08-29T07:10:26Z</time>
      </trkpt>
      <trkpt lat="45.52036" lon="5.42561">
        <ele>415</ele>
        <time>2023-08-29T07:10:27Z</time>
      </trkpt>
      <trkpt lat="45.52031" lon="5.42561">
        <ele>415</ele>
        <time>2023-08-29T07:10:28Z</time>
      </trkpt>
      <trkpt lat="45.52025" lon="5.42562">
        <ele>415</ele>
        <time>2023-08-29T07:10:29Z</time>
      </trkpt>
      <trkpt lat="45.52019" lon="5.42562">
        <ele>415</ele>
        <time>2023-08-29T07:10:30Z</time>
      </trkpt>
      <trkpt lat="45.52013" lon="5.42562">
        <ele>415</ele>
        <time>2023-08-29T07:10:31Z</time>
      </trkpt>
      <trkpt lat="45.52007" lon="5.42561">
        <ele>415</ele>
        <time>2023-08-29T07:10:32Z</time>
      </trkpt>
      <trkpt lat="45.52001" lon="5.42561">
        <ele>415</ele>
        <time>2023-08-29T07:10:33Z</time>
      </trkpt>
      <trkpt lat="45.51996" lon="5.42561">
        <ele>415</ele>
        <time>2023-08-29T07:10:34Z</time>
      </trkpt>
      <trkpt lat="45.5199" lon="5.42562">
        <ele>414.8</ele>
        <time>2023-08-29T07:10:35Z</time>
      </trkpt>
      <trkpt lat="45.51985" lon="5.42566">
        <ele>414.8</ele>
        <time>2023-08-29T07:10:36Z</time>
      </trkpt>
      <trkpt lat="45.51981" lon="5.42572">
        <ele>414.8</ele>
        <time>2023-08-29T07:10:37Z</time>
      </trkpt>
      <trkpt lat="45.51979" lon="5.42578">
        <ele>414.8</ele>
        <time>2023-08-29T07:10:38Z</time>
      </trkpt>
      <trkpt lat="45.51978" lon="5.42584">
        <ele>415</ele>
        <time>2023-08-29T07:10:39Z</time>
      </trkpt>
      <trkpt lat="45.51977" lon="5.42589">
        <ele>415.4</ele>
        <time>2023-08-29T07:10:40Z</time>
      </trkpt>
      <trkpt lat="45.51977" lon="5.42593">
        <ele>415.4</ele>
        <time>2023-08-29T07:10:41Z</time>
      </trkpt>
      <trkpt lat="45.51976" lon="5.42597">
        <ele>415.8</ele>
        <time>2023-08-29T07:10:42Z</time>
      </trkpt>
      <trkpt lat="45.51975" lon="5.42601">
        <ele>416.4</ele>
        <time>2023-08-29T07:10:43Z</time>
      </trkpt>
      <trkpt lat="45.51974" lon="5.42605">
        <ele>416.6</ele>
        <time>2023-08-29T07:10:44Z</time>
      </trkpt>
      <trkpt lat="45.51974" lon="5.42609">
        <ele>417.2</ele>
        <time>2023-08-29T07:10:45Z</time>
      </trkpt>
      <trkpt lat="45.51974" lon="5.42613">
        <ele>417.8</ele>
        <time>2023-08-29T07:10:46Z</time>
      </trkpt>
      <trkpt lat="45.51974" lon="5.42616">
        <ele>418.2</ele>
        <time>2023-08-29T07:10:47Z</time>
      </trkpt>
      <trkpt lat="45.51974" lon="5.4262">
        <ele>418.6</ele>
        <time>2023-08-29T07:10:48Z</time>
      </trkpt>
      <trkpt lat="45.51973" lon="5.42624">
        <ele>418.8</ele>
        <time>2023-08-29T07:10:49Z</time>
      </trkpt>
      <trkpt lat="45.51973" lon="5.42627">
        <ele>419.2</ele>
        <time>2023-08-29T07:10:50Z</time>
      </trkpt>
      <trkpt lat="45.51973" lon="5.42631">
        <ele>419.6</ele>
        <time>2023-08-29T07:10:51Z</time>
      </trkpt>
      <trkpt lat="45.51972" lon="5.42635">
        <ele>420</ele>
        <time>2023-08-29T07:10:52Z</time>
      </trkpt>
      <trkpt lat="45.51972" lon="5.42639">
        <ele>420.2</ele>
        <time>2023-08-29T07:10:53Z</time>
      </trkpt>
      <trkpt lat="45.51972" lon="5.42642">
        <ele>420.4</ele>
        <time>2023-08-29T07:10:54Z</time>
      </trkpt>
      <trkpt lat="45.51971" lon="5.42646">
        <ele>420.6</ele>
        <time>2023-08-29T07:10:55Z</time>
      </trkpt>
      <trkpt lat="45.5197" lon="5.42649">
        <ele>421</ele>
        <time>2023-08-29T07:10:56Z</time>
      </trkpt>
      <trkpt lat="45.5197" lon="5.42653">
        <ele>421.2</ele>
        <time>2023-08-29T07:10:57Z</time>
      </trkpt>
      <trkpt lat="45.51969" lon="5.42657">
        <ele>421.4</ele>
        <time>2023-08-29T07:10:58Z</time>
      </trkpt>
      <trkpt lat="45.51969" lon="5.4266">
        <ele>421.6</ele>
        <time>2023-08-29T07:10:59Z</time>
      </trkpt>
      <trkpt lat="45.51968" lon="5.42664">
        <ele>421.8</ele>
        <time>2023-08-29T07:11:00Z</time>
      </trkpt>
      <trkpt lat="45.51968" lon="5.42667">
        <ele>422</ele>
        <time>2023-08-29T07:11:01Z</time>
      </trkpt>
      <trkpt lat="45.51968" lon="5.42671">
        <ele>422.2</ele>
        <time>2023-08-29T07:11:02Z</time>
      </trkpt>
      <trkpt lat="45.51967" lon="5.42675">
        <ele>422.4</ele>
        <time>2023-08-29T07:11:03Z</time>
      </trkpt>
      <trkpt lat="45.51967" lon="5.42678">
        <ele>422.6</ele>
        <time>2023-08-29T07:11:04Z</time>
      </trkpt>
      <trkpt lat="45.51967" lon="5.42681">
        <ele>423</ele>
        <time>2023-08-29T07:11:05Z</time>
      </trkpt>
      <trkpt lat="45.51967" lon="5.42685">
        <ele>423</ele>
        <time>2023-08-29T07:11:06Z</time>
      </trkpt>
      <trkpt lat="45.51967" lon="5.42689">
        <ele>423.2</ele>
        <time>2023-08-29T07:11:07Z</time>
      </trkpt>
      <trkpt lat="45.51967" lon="5.42692">
        <ele>423.6</ele>
        <time>2023-08-29T07:11:08Z</time>
      </trkpt>
      <trkpt lat="45.51967" lon="5.42696">
        <ele>423.8</ele>
        <time>2023-08-29T07:11:09Z</time>
      </trkpt>
      <trkpt lat="45.51967" lon="5.427">
        <ele>423.8</ele>
        <time>2023-08-29T07:11:10Z</time>
      </trkpt>
      <trkpt lat="45.51967" lon="5.42704">
        <ele>424</ele>
        <time>2023-08-29T07:11:11Z</time>
      </trkpt>
      <trkpt lat="45.51967" lon="5.42708">
        <ele>424.2</ele>
        <time>2023-08-29T07:11:12Z</time>
      </trkpt>
      <trkpt lat="45.51968" lon="5.42711">
        <ele>424.2</ele>
        <time>2023-08-29T07:11:13Z</time>
      </trkpt>
      <trkpt lat="45.51968" lon="5.42715">
        <ele>424.4</ele>
        <time>2023-08-29T07:11:14Z</time>
      </trkpt>
      <trkpt lat="45.51968" lon="5.42718">
        <ele>424.8</ele>
        <time>2023-08-29T07:11:15Z</time>
      </trkpt>
      <trkpt lat="45.51968" lon="5.42722">
        <ele>424.8</ele>
        <time>2023-08-29T07:11:16Z</time>
      </trkpt>
      <trkpt lat="45.51969" lon="5.42725">
        <ele>424.8</ele>
        <time>2023-08-29T07:11:17Z</time>
      </trkpt>
      <trkpt lat="45.51969" lon="5.42729">
        <ele>425</ele>
        <time>2023-08-29T07:11:18Z</time>
      </trkpt>
      <trkpt lat="45.51969" lon="5.42732">
        <ele>425.2</ele>
        <time>2023-08-29T07:11:19Z</time>
      </trkpt>
      <trkpt lat="45.5197" lon="5.42736">
        <ele>425.4</ele>
        <time>2023-08-29T07:11:20Z</time>
      </trkpt>
      <trkpt lat="45.5197" lon="5.42739">
        <ele>425.6</ele>
        <time>2023-08-29T07:11:21Z</time>
      </trkpt>
      <trkpt lat="45.51971" lon="5.42743">
        <ele>425.6</ele>
        <time>2023-08-29T07:11:22Z</time>
      </trkpt>
      <trkpt lat="45.51971" lon="5.42746">
        <ele>425.8</ele>
        <time>2023-08-29T07:11:23Z</time>
      </trkpt>
      <trkpt lat="45.51972" lon="5.42749">
        <ele>426</ele>
        <time>2023-08-29T07:11:24Z</time>
      </trkpt>
      <trkpt lat="45.51973" lon="5.42753">
        <ele>426.2</ele>
        <time>2023-08-29T07:11:25Z</time>
      </trkpt>
      <trkpt lat="45.51973" lon="5.42756">
        <ele>426.2</ele>
        <time>2023-08-29T07:11:26Z</time>
      </trkpt>
      <trkpt lat="45.51974" lon="5.42759">
        <ele>426.4</ele>
        <time>2023-08-29T07:11:27Z</time>
      </trkpt>
      <trkpt lat="45.51975" lon="5.42762">
        <ele>426.8</ele>
        <time>2023-08-29T07:11:28Z</time>
      </trkpt>
      <trkpt lat="45.51976" lon="5.42765">
        <ele>426.8</ele>
        <time>2023-08-29T07:11:29Z</time>
      </trkpt>
      <trkpt lat="45.51977" lon="5.42768">
        <ele>427</ele>
        <time>2023-08-29T07:11:30Z</time>
      </trkpt>
      <trkpt lat="45.51978" lon="5.42771">
        <ele>427.2</ele>
        <time>2023-08-29T07:11:31Z</time>
      </trkpt>
      <trkpt lat="45.51979" lon="5.42774">
        <ele>427.4</ele>
        <time>2023-08-29T07:11:32Z</time>
      </trkpt>
      <trkpt lat="45.51979" lon="5.42777">
        <ele>427.6</ele>
        <time>2023-08-29T07:11:33Z</time>
      </trkpt>
      <trkpt lat="45.5198" lon="5.4278">
        <ele>427.8</ele>
        <time>2023-08-29T07:11:34Z</time>
      </trkpt>
      <trkpt lat="45.51981" lon="5.42784">
        <ele>428</ele>
        <time>2023-08-29T07:11:35Z</time>
      </trkpt>
      <trkpt lat="45.51982" lon="5.42787">
        <ele>428.2</ele>
        <time>2023-08-29T07:11:36Z</time>
      </trkpt>
      <trkpt lat="45.51983" lon="5.4279">
        <ele>428.4</ele>
        <time>2023-08-29T07:11:37Z</time>
      </trkpt>
      <trkpt lat="45.51984" lon="5.42793">
        <ele>428.6</ele>
        <time>2023-08-29T07:11:38Z</time>
      </trkpt>
      <trkpt lat="45.51985" lon="5.42796">
        <ele>429</ele>
        <time>2023-08-29T07:11:39Z</time>
      </trkpt>
      <trkpt lat="45.51986" lon="5.42799">
        <ele>429</ele>
        <time>2023-08-29T07:11:40Z</time>
      </trkpt>
      <trkpt lat="45.51987" lon="5.42802">
        <ele>429.2</ele>
        <time>2023-08-29T07:11:41Z</time>
      </trkpt>
      <trkpt lat="45.51988" lon="5.42805">
        <ele>429.6</ele>
        <time>2023-08-29T07:11:42Z</time>
      </trkpt>
      <trkpt lat="45.51989" lon="5.42808">
        <ele>429.8</ele>
        <time>2023-08-29T07:11:43Z</time>
      </trkpt>
      <trkpt lat="45.51991" lon="5.42811">
        <ele>430</ele>
        <time>2023-08-29T07:11:44Z</time>
      </trkpt>
      <trkpt lat="45.51992" lon="5.42814">
        <ele>430.2</ele>
        <time>2023-08-29T07:11:45Z</time>
      </trkpt>
      <trkpt lat="45.51993" lon="5.42817">
        <ele>430.4</ele>
        <time>2023-08-29T07:11:46Z</time>
      </trkpt>
      <trkpt lat="45.51994" lon="5.42821">
        <ele>430.6</ele>
        <time>2023-08-29T07:11:47Z</time>
      </trkpt>
      <trkpt lat="45.51995" lon="5.42824">
        <ele>430.8</ele>
        <time>2023-08-29T07:11:48Z</time>
      </trkpt>
      <trkpt lat="45.51996" lon="5.42827">
        <ele>430.8</ele>
        <time>2023-08-29T07:11:49Z</time>
      </trkpt>
      <trkpt lat="45.51997" lon="5.4283">
        <ele>431</ele>
        <time>2023-08-29T07:11:50Z</time>
      </trkpt>
      <trkpt lat="45.51998" lon="5.42834">
        <ele>431.2</ele>
        <time>2023-08-29T07:11:51Z</time>
      </trkpt>
      <trkpt lat="45.51999" lon="5.42837">
        <ele>431.4</ele>
        <time>2023-08-29T07:11:52Z</time>
      </trkpt>
      <trkpt lat="45.52" lon="5.4284">
        <ele>431.4</ele>
        <time>2023-08-29T07:11:53Z</time>
      </trkpt>
      <trkpt lat="45.52001" lon="5.42843">
        <ele>431.6</ele>
        <time>2023-08-29T07:11:54Z</time>
      </trkpt>
      <trkpt lat="45.52002" lon="5.42846">
        <ele>431.8</ele>
        <time>2023-08-29T07:11:55Z</time>
      </trkpt>
      <trkpt lat="45.52004" lon="5.42849">
        <ele>432</ele>
        <time>2023-08-29T07:11:56Z</time>
      </trkpt>
      <trkpt lat="45.52005" lon="5.42852">
        <ele>432.2</ele>
        <time>2023-08-29T07:11:57Z</time>
      </trkpt>
      <trkpt lat="45.52006" lon="5.42856">
        <ele>432.4</ele>
        <time>2023-08-29T07:11:58Z</time>
      </trkpt>
      <trkpt lat="45.52007" lon="5.42859">
        <ele>432.6</ele>
        <time>2023-08-29T07:11:59Z</time>
      </trkpt>
      <trkpt lat="45.52008" lon="5.42863">
        <ele>432.8</ele>
        <time>2023-08-29T07:12:00Z</time>
      </trkpt>
      <trkpt lat="45.52009" lon="5.42866">
        <ele>433</ele>
        <time>2023-08-29T07:12:01Z</time>
      </trkpt>
      <trkpt lat="45.52011" lon="5.42869">
        <ele>433.2</ele>
        <time>2023-08-29T07:12:02Z</time>
      </trkpt>
      <trkpt lat="45.52012" lon="5.42873">
        <ele>433.4</ele>
        <time>2023-08-29T07:12:03Z</time>
      </trkpt>
      <trkpt lat="45.52013" lon="5.42876">
        <ele>433.6</ele>
        <time>2023-08-29T07:12:04Z</time>
      </trkpt>
      <trkpt lat="45.52014" lon="5.4288">
        <ele>433.6</ele>
        <time>2023-08-29T07:12:05Z</time>
      </trkpt>
      <trkpt lat="45.52015" lon="5.42883">
        <ele>433.8</ele>
        <time>2023-08-29T07:12:06Z</time>
      </trkpt>
      <trkpt lat="45.52016" lon="5.42887">
        <ele>434</ele>
        <time>2023-08-29T07:12:07Z</time>
      </trkpt>
      <trkpt lat="45.52017" lon="5.4289">
        <ele>434.2</ele>
        <time>2023-08-29T07:12:08Z</time>
      </trkpt>
      <trkpt lat="45.52019" lon="5.42894">
        <ele>434.4</ele>
        <time>2023-08-29T07:12:09Z</time>
      </trkpt>
      <trkpt lat="45.5202" lon="5.42897">
        <ele>434.6</ele>
        <time>2023-08-29T07:12:10Z</time>
      </trkpt>
      <trkpt lat="45.52021" lon="5.42901">
        <ele>434.8</ele>
        <time>2023-08-29T07:12:11Z</time>
      </trkpt>
      <trkpt lat="45.52022" lon="5.42904">
        <ele>434.8</ele>
        <time>2023-08-29T07:12:12Z</time>
      </trkpt>
      <trkpt lat="45.52024" lon="5.42908">
        <ele>435</ele>
        <time>2023-08-29T07:12:13Z</time>
      </trkpt>
      <trkpt lat="45.52025" lon="5.42911">
        <ele>435.2</ele>
        <time>2023-08-29T07:12:14Z</time>
      </trkpt>
      <trkpt lat="45.52026" lon="5.42914">
        <ele>435.6</ele>
        <time>2023-08-29T07:12:15Z</time>
      </trkpt>
      <trkpt lat="45.52027" lon="5.42918">
        <ele>435.6</ele>
        <time>2023-08-29T07:12:16Z</time>
      </trkpt>
      <trkpt lat="45.52028" lon="5.42922">
        <ele>435.8</ele>
        <time>2023-08-29T07:12:17Z</time>
      </trkpt>
      <trkpt lat="45.5203" lon="5.42926">
        <ele>436</ele>
        <time>2023-08-29T07:12:18Z</time>
      </trkpt>
      <trkpt lat="45.52031" lon="5.42929">
        <ele>436</ele>
        <time>2023-08-29T07:12:19Z</time>
      </trkpt>
      <trkpt lat="45.52032" lon="5.42933">
        <ele>436.2</ele>
        <time>2023-08-29T07:12:20Z</time>
      </trkpt>
      <trkpt lat="45.52033" lon="5.42936">
        <ele>436.4</ele>
        <time>2023-08-29T07:12:21Z</time>
      </trkpt>
      <trkpt lat="45.52035" lon="5.4294">
        <ele>436.4</ele>
        <time>2023-08-29T07:12:22Z</time>
      </trkpt>
      <trkpt lat="45.52036" lon="5.42944">
        <ele>436.6</ele>
        <time>2023-08-29T07:12:23Z</time>
      </trkpt>
      <trkpt lat="45.52038" lon="5.42948">
        <ele>436.6</ele>
        <time>2023-08-29T07:12:24Z</time>
      </trkpt>
      <trkpt lat="45.52039" lon="5.42951">
        <ele>436.8</ele>
        <time>2023-08-29T07:12:25Z</time>
      </trkpt>
      <trkpt lat="45.5204" lon="5.42955">
        <ele>436.8</ele>
        <time>2023-08-29T07:12:26Z</time>
      </trkpt>
      <trkpt lat="45.52042" lon="5.4296">
        <ele>437</ele>
        <time>2023-08-29T07:12:27Z</time>
      </trkpt>
      <trkpt lat="45.52043" lon="5.42963">
        <ele>437</ele>
        <time>2023-08-29T07:12:28Z</time>
      </trkpt>
      <trkpt lat="45.52044" lon="5.42966">
        <ele>437</ele>
        <time>2023-08-29T07:12:29Z</time>
      </trkpt>
      <trkpt lat="45.52045" lon="5.4297">
        <ele>437</ele>
        <time>2023-08-29T07:12:30Z</time>
      </trkpt>
      <trkpt lat="45.52046" lon="5.42974">
        <ele>437.4</ele>
        <time>2023-08-29T07:12:31Z</time>
      </trkpt>
      <trkpt lat="45.52048" lon="5.42978">
        <ele>437.4</ele>
        <time>2023-08-29T07:12:32Z</time>
      </trkpt>
      <trkpt lat="45.52049" lon="5.42981">
        <ele>437.4</ele>
        <time>2023-08-29T07:12:33Z</time>
      </trkpt>
      <trkpt lat="45.5205" lon="5.42984">
        <ele>437.4</ele>
        <time>2023-08-29T07:12:34Z</time>
      </trkpt>
      <trkpt lat="45.52051" lon="5.42988">
        <ele>437.6</ele>
        <time>2023-08-29T07:12:35Z</time>
      </trkpt>
      <trkpt lat="45.52052" lon="5.42991">
        <ele>437.6</ele>
        <time>2023-08-29T07:12:36Z</time>
      </trkpt>
      <trkpt lat="45.52054" lon="5.42995">
        <ele>437.8</ele>
        <time>2023-08-29T07:12:37Z</time>
      </trkpt>
      <trkpt lat="45.52055" lon="5.42998">
        <ele>438</ele>
        <time>2023-08-29T07:12:38Z</time>
      </trkpt>
      <trkpt lat="45.52056" lon="5.43001">
        <ele>438</ele>
        <time>2023-08-29T07:12:39Z</time>
      </trkpt>
      <trkpt lat="45.52058" lon="5.43005">
        <ele>438.4</ele>
        <time>2023-08-29T07:12:40Z</time>
      </trkpt>
      <trkpt lat="45.52059" lon="5.43008">
        <ele>438.4</ele>
        <time>2023-08-29T07:12:41Z</time>
      </trkpt>
      <trkpt lat="45.5206" lon="5.43012">
        <ele>438.6</ele>
        <time>2023-08-29T07:12:42Z</time>
      </trkpt>
      <trkpt lat="45.52062" lon="5.43015">
        <ele>438.6</ele>
        <time>2023-08-29T07:12:43Z</time>
      </trkpt>
      <trkpt lat="45.52063" lon="5.43019">
        <ele>438.8</ele>
        <time>2023-08-29T07:12:44Z</time>
      </trkpt>
      <trkpt lat="45.52064" lon="5.43022">
        <ele>438.8</ele>
        <time>2023-08-29T07:12:45Z</time>
      </trkpt>
      <trkpt lat="45.52065" lon="5.43025">
        <ele>439</ele>
        <time>2023-08-29T07:12:46Z</time>
      </trkpt>
      <trkpt lat="45.52066" lon="5.43029">
        <ele>439.2</ele>
        <time>2023-08-29T07:12:47Z</time>
      </trkpt>
      <trkpt lat="45.52067" lon="5.43032">
        <ele>439.4</ele>
        <time>2023-08-29T07:12:48Z</time>
      </trkpt>
      <trkpt lat="45.52068" lon="5.43036">
        <ele>439.4</ele>
        <time>2023-08-29T07:12:49Z</time>
      </trkpt>
      <trkpt lat="45.52069" lon="5.43039">
        <ele>439.6</ele>
        <time>2023-08-29T07:12:50Z</time>
      </trkpt>
      <trkpt lat="45.52071" lon="5.43042">
        <ele>439.8</ele>
        <time>2023-08-29T07:12:51Z</time>
      </trkpt>
      <trkpt lat="45.52072" lon="5.43046">
        <ele>439.8</ele>
        <time>2023-08-29T07:12:52Z</time>
      </trkpt>
      <trkpt lat="45.52074" lon="5.4305">
        <ele>440</ele>
        <time>2023-08-29T07:12:53Z</time>
      </trkpt>
      <trkpt lat="45.52075" lon="5.43054">
        <ele>440.2</ele>
        <time>2023-08-29T07:12:54Z</time>
      </trkpt>
      <trkpt lat="45.52076" lon="5.43057">
        <ele>440.2</ele>
        <time>2023-08-29T07:12:55Z</time>
      </trkpt>
      <trkpt lat="45.52078" lon="5.4306">
        <ele>440.4</ele>
        <time>2023-08-29T07:12:56Z</time>
      </trkpt>
      <trkpt lat="45.52079" lon="5.43063">
        <ele>440.6</ele>
        <time>2023-08-29T07:12:57Z</time>
      </trkpt>
      <trkpt lat="45.5208" lon="5.43067">
        <ele>440.6</ele>
        <time>2023-08-29T07:12:58Z</time>
      </trkpt>
      <trkpt lat="45.52081" lon="5.43071">
        <ele>440.8</ele>
        <time>2023-08-29T07:12:59Z</time>
      </trkpt>
      <trkpt lat="45.52082" lon="5.43074">
        <ele>441</ele>
        <time>2023-08-29T07:13:00Z</time>
      </trkpt>
      <trkpt lat="45.52083" lon="5.43077">
        <ele>441.2</ele>
        <time>2023-08-29T07:13:01Z</time>
      </trkpt>
      <trkpt lat="45.52084" lon="5.43081">
        <ele>441.2</ele>
        <time>2023-08-29T07:13:02Z</time>
      </trkpt>
      <trkpt lat="45.52086" lon="5.43085">
        <ele>441.4</ele>
        <time>2023-08-29T07:13:03Z</time>
      </trkpt>
      <trkpt lat="45.52087" lon="5.43088">
        <ele>441.6</ele>
        <time>2023-08-29T07:13:04Z</time>
      </trkpt>
      <trkpt lat="45.52088" lon="5.43092">
        <ele>441.6</ele>
        <time>2023-08-29T07:13:05Z</time>
      </trkpt>
      <trkpt lat="45.52089" lon="5.43095">
        <ele>441.8</ele>
        <time>2023-08-29T07:13:06Z</time>
      </trkpt>
      <trkpt lat="45.52091" lon="5.43099">
        <ele>442</ele>
        <time>2023-08-29T07:13:07Z</time>
      </trkpt>
      <trkpt lat="45.52092" lon="5.43102">
        <ele>442</ele>
        <time>2023-08-29T07:13:08Z</time>
      </trkpt>
      <trkpt lat="45.52093" lon="5.43106">
        <ele>442.2</ele>
        <time>2023-08-29T07:13:09Z</time>
      </trkpt>
      <trkpt lat="45.52094" lon="5.43109">
        <ele>442.6</ele>
        <time>2023-08-29T07:13:10Z</time>
      </trkpt>
      <trkpt lat="45.52095" lon="5.43112">
        <ele>442.6</ele>
        <time>2023-08-29T07:13:11Z</time>
      </trkpt>
      <trkpt lat="45.52097" lon="5.43116">
        <ele>442.6</ele>
        <time>2023-08-29T07:13:12Z</time>
      </trkpt>
      <trkpt lat="45.52098" lon="5.4312">
        <ele>443</ele>
        <time>2023-08-29T07:13:13Z</time>
      </trkpt>
      <trkpt lat="45.521" lon="5.43123">
        <ele>443</ele>
        <time>2023-08-29T07:13:14Z</time>
      </trkpt>
      <trkpt lat="45.52101" lon="5.43127">
        <ele>443.2</ele>
        <time>2023-08-29T07:13:15Z</time>
      </trkpt>
      <trkpt lat="45.52102" lon="5.4313">
        <ele>443.4</ele>
        <time>2023-08-29T07:13:16Z</time>
      </trkpt>
      <trkpt lat="45.52104" lon="5.43134">
        <ele>443.6</ele>
        <time>2023-08-29T07:13:17Z</time>
      </trkpt>
      <trkpt lat="45.52105" lon="5.43137">
        <ele>443.8</ele>
        <time>2023-08-29T07:13:18Z</time>
      </trkpt>
      <trkpt lat="45.52106" lon="5.4314">
        <ele>443.8</ele>
        <time>2023-08-29T07:13:19Z</time>
      </trkpt>
      <trkpt lat="45.52107" lon="5.43144">
        <ele>444</ele>
        <time>2023-08-29T07:13:20Z</time>
      </trkpt>
      <trkpt lat="45.52108" lon="5.43147">
        <ele>444</ele>
        <time>2023-08-29T07:13:21Z</time>
      </trkpt>
      <trkpt lat="45.52109" lon="5.4315">
        <ele>444.2</ele>
        <time>2023-08-29T07:13:22Z</time>
      </trkpt>
      <trkpt lat="45.52111" lon="5.43154">
        <ele>444.4</ele>
        <time>2023-08-29T07:13:23Z</time>
      </trkpt>
      <trkpt lat="45.52112" lon="5.43157">
        <ele>444.6</ele>
        <time>2023-08-29T07:13:24Z</time>
      </trkpt>
      <trkpt lat="45.52113" lon="5.43161">
        <ele>444.6</ele>
        <time>2023-08-29T07:13:25Z</time>
      </trkpt>
      <trkpt lat="45.52114" lon="5.43164">
        <ele>444.8</ele>
        <time>2023-08-29T07:13:26Z</time>
      </trkpt>
      <trkpt lat="45.52116" lon="5.43167">
        <ele>445</ele>
        <time>2023-08-29T07:13:27Z</time>
      </trkpt>
      <trkpt lat="45.52117" lon="5.4317">
        <ele>445.2</ele>
        <time>2023-08-29T07:13:28Z</time>
      </trkpt>
      <trkpt lat="45.52118" lon="5.43174">
        <ele>445.4</ele>
        <time>2023-08-29T07:13:29Z</time>
      </trkpt>
      <trkpt lat="45.52119" lon="5.43178">
        <ele>445.8</ele>
        <time>2023-08-29T07:13:30Z</time>
      </trkpt>
      <trkpt lat="45.5212" lon="5.43182">
        <ele>445.8</ele>
        <time>2023-08-29T07:13:31Z</time>
      </trkpt>
      <trkpt lat="45.52121" lon="5.43185">
        <ele>446</ele>
        <time>2023-08-29T07:13:32Z</time>
      </trkpt>
      <trkpt lat="45.52122" lon="5.43188">
        <ele>446.2</ele>
        <time>2023-08-29T07:13:33Z</time>
      </trkpt>
      <trkpt lat="45.52123" lon="5.43191">
        <ele>446.4</ele>
        <time>2023-08-29T07:13:34Z</time>
      </trkpt>
      <trkpt lat="45.52125" lon="5.43194">
        <ele>446.8</ele>
        <time>2023-08-29T07:13:35Z</time>
      </trkpt>
      <trkpt lat="45.52126" lon="5.43197">
        <ele>446.8</ele>
        <time>2023-08-29T07:13:36Z</time>
      </trkpt>
      <trkpt lat="45.52127" lon="5.432">
        <ele>447</ele>
        <time>2023-08-29T07:13:37Z</time>
      </trkpt>
      <trkpt lat="45.52127" lon="5.43203">
        <ele>447.4</ele>
        <time>2023-08-29T07:13:38Z</time>
      </trkpt>
      <trkpt lat="45.52128" lon="5.43206">
        <ele>447.6</ele>
        <time>2023-08-29T07:13:39Z</time>
      </trkpt>
      <trkpt lat="45.5213" lon="5.43209">
        <ele>447.8</ele>
        <time>2023-08-29T07:13:40Z</time>
      </trkpt>
      <trkpt lat="45.52131" lon="5.43212">
        <ele>447.8</ele>
        <time>2023-08-29T07:13:41Z</time>
      </trkpt>
      <trkpt lat="45.52132" lon="5.43215">
        <ele>447.8</ele>
        <time>2023-08-29T07:13:42Z</time>
      </trkpt>
      <trkpt lat="45.52133" lon="5.43218">
        <ele>448.2</ele>
        <time>2023-08-29T07:13:43Z</time>
      </trkpt>
      <trkpt lat="45.52134" lon="5.43222">
        <ele>448.4</ele>
        <time>2023-08-29T07:13:44Z</time>
      </trkpt>
      <trkpt lat="45.52136" lon="5.43224">
        <ele>448.8</ele>
        <time>2023-08-29T07:13:45Z</time>
      </trkpt>
      <trkpt lat="45.52137" lon="5.43228">
        <ele>449</ele>
        <time>2023-08-29T07:13:46Z</time>
      </trkpt>
      <trkpt lat="45.52139" lon="5.43231">
        <ele>449.2</ele>
        <time>2023-08-29T07:13:47Z</time>
      </trkpt>
      <trkpt lat="45.5214" lon="5.43234">
        <ele>449.2</ele>
        <time>2023-08-29T07:13:48Z</time>
      </trkpt>
      <trkpt lat="45.52143" lon="5.43237">
        <ele>449.2</ele>
        <time>2023-08-29T07:13:49Z</time>
      </trkpt>
      <trkpt lat="45.52144" lon="5.4324">
        <ele>449.4</ele>
        <time>2023-08-29T07:13:50Z</time>
      </trkpt>
      <trkpt lat="45.52146" lon="5.43243">
        <ele>449.6</ele>
        <time>2023-08-29T07:13:51Z</time>
      </trkpt>
      <trkpt lat="45.52148" lon="5.43246">
        <ele>450</ele>
        <time>2023-08-29T07:13:52Z</time>
      </trkpt>
      <trkpt lat="45.5215" lon="5.43249">
        <ele>450.2</ele>
        <time>2023-08-29T07:13:53Z</time>
      </trkpt>
      <trkpt lat="45.52152" lon="5.43252">
        <ele>450.4</ele>
        <time>2023-08-29T07:13:54Z</time>
      </trkpt>
      <trkpt lat="45.52155" lon="5.43255">
        <ele>450.4</ele>
        <time>2023-08-29T07:13:55Z</time>
      </trkpt>
      <trkpt lat="45.52156" lon="5.43257">
        <ele>450.6</ele>
        <time>2023-08-29T07:13:56Z</time>
      </trkpt>
      <trkpt lat="45.52158" lon="5.4326">
        <ele>450.8</ele>
        <time>2023-08-29T07:13:57Z</time>
      </trkpt>
      <trkpt lat="45.52159" lon="5.43263">
        <ele>451</ele>
        <time>2023-08-29T07:13:58Z</time>
      </trkpt>
      <trkpt lat="45.52161" lon="5.43266">
        <ele>451.2</ele>
        <time>2023-08-29T07:13:59Z</time>
      </trkpt>
      <trkpt lat="45.52163" lon="5.43269">
        <ele>451.2</ele>
        <time>2023-08-29T07:14:00Z</time>
      </trkpt>
      <trkpt lat="45.52164" lon="5.43272">
        <ele>451.4</ele>
        <time>2023-08-29T07:14:01Z</time>
      </trkpt>
      <trkpt lat="45.52166" lon="5.43274">
        <ele>451.6</ele>
        <time>2023-08-29T07:14:02Z</time>
      </trkpt>
      <trkpt lat="45.52168" lon="5.43277">
        <ele>451.8</ele>
        <time>2023-08-29T07:14:03Z</time>
      </trkpt>
      <trkpt lat="45.5217" lon="5.43278">
        <ele>452.2</ele>
        <time>2023-08-29T07:14:04Z</time>
      </trkpt>
      <trkpt lat="45.52173" lon="5.43281">
        <ele>452.6</ele>
        <time>2023-08-29T07:14:05Z</time>
      </trkpt>
      <trkpt lat="45.52175" lon="5.43283">
        <ele>452.8</ele>
        <time>2023-08-29T07:14:06Z</time>
      </trkpt>
      <trkpt lat="45.52176" lon="5.43285">
        <ele>452.8</ele>
        <time>2023-08-29T07:14:07Z</time>
      </trkpt>
      <trkpt lat="45.52179" lon="5.43287">
        <ele>453.2</ele>
        <time>2023-08-29T07:14:08Z</time>
      </trkpt>
      <trkpt lat="45.52182" lon="5.43289">
        <ele>453.4</ele>
        <time>2023-08-29T07:14:09Z</time>
      </trkpt>
      <trkpt lat="45.52184" lon="5.4329">
        <ele>453.6</ele>
        <time>2023-08-29T07:14:10Z</time>
      </trkpt>
      <trkpt lat="45.52186" lon="5.43291">
        <ele>454</ele>
        <time>2023-08-29T07:14:11Z</time>
      </trkpt>
      <trkpt lat="45.52188" lon="5.43292">
        <ele>454.2</ele>
        <time>2023-08-29T07:14:12Z</time>
      </trkpt>
      <trkpt lat="45.5219" lon="5.43293">
        <ele>454.4</ele>
        <time>2023-08-29T07:14:13Z</time>
      </trkpt>
      <trkpt lat="45.52193" lon="5.43294">
        <ele>454.4</ele>
        <time>2023-08-29T07:14:14Z</time>
      </trkpt>
      <trkpt lat="45.52196" lon="5.43294">
        <ele>454.6</ele>
        <time>2023-08-29T07:14:15Z</time>
      </trkpt>
      <trkpt lat="45.522" lon="5.43295">
        <ele>454.6</ele>
        <time>2023-08-29T07:14:16Z</time>
      </trkpt>
      <trkpt lat="45.52202" lon="5.43296">
        <ele>454.8</ele>
        <time>2023-08-29T07:14:17Z</time>
      </trkpt>
      <trkpt lat="45.52205" lon="5.43296">
        <ele>454.8</ele>
        <time>2023-08-29T07:14:18Z</time>
      </trkpt>
      <trkpt lat="45.52208" lon="5.43297">
        <ele>455</ele>
        <time>2023-08-29T07:14:19Z</time>
      </trkpt>
      <trkpt lat="45.52211" lon="5.43297">
        <ele>455.2</ele>
        <time>2023-08-29T07:14:20Z</time>
      </trkpt>
      <trkpt lat="45.52214" lon="5.43297">
        <ele>455.2</ele>
        <time>2023-08-29T07:14:21Z</time>
      </trkpt>
      <trkpt lat="45.52217" lon="5.43298">
        <ele>455.4</ele>
        <time>2023-08-29T07:14:22Z</time>
      </trkpt>
      <trkpt lat="45.5222" lon="5.43298">
        <ele>455.4</ele>
        <time>2023-08-29T07:14:23Z</time>
      </trkpt>
      <trkpt lat="45.52223" lon="5.43298">
        <ele>455.6</ele>
        <time>2023-08-29T07:14:24Z</time>
      </trkpt>
      <trkpt lat="45.52227" lon="5.43298">
        <ele>455.8</ele>
        <time>2023-08-29T07:14:25Z</time>
      </trkpt>
      <trkpt lat="45.5223" lon="5.43299">
        <ele>455.8</ele>
        <time>2023-08-29T07:14:26Z</time>
      </trkpt>
      <trkpt lat="45.52233" lon="5.43301">
        <ele>456</ele>
        <time>2023-08-29T07:14:27Z</time>
      </trkpt>
      <trkpt lat="45.52236" lon="5.43302">
        <ele>456</ele>
        <time>2023-08-29T07:14:28Z</time>
      </trkpt>
      <trkpt lat="45.52238" lon="5.43303">
        <ele>456.4</ele>
        <time>2023-08-29T07:14:29Z</time>
      </trkpt>
      <trkpt lat="45.52241" lon="5.43305">
        <ele>456.4</ele>
        <time>2023-08-29T07:14:30Z</time>
      </trkpt>
      <trkpt lat="45.52244" lon="5.43306">
        <ele>456.6</ele>
        <time>2023-08-29T07:14:31Z</time>
      </trkpt>
      <trkpt lat="45.52246" lon="5.43307">
        <ele>456.8</ele>
        <time>2023-08-29T07:14:32Z</time>
      </trkpt>
      <trkpt lat="45.52249" lon="5.43308">
        <ele>457</ele>
        <time>2023-08-29T07:14:33Z</time>
      </trkpt>
      <trkpt lat="45.52252" lon="5.43309">
        <ele>457.2</ele>
        <time>2023-08-29T07:14:34Z</time>
      </trkpt>
      <trkpt lat="45.52255" lon="5.43311">
        <ele>457.4</ele>
        <time>2023-08-29T07:14:35Z</time>
      </trkpt>
      <trkpt lat="45.52258" lon="5.43312">
        <ele>457.6</ele>
        <time>2023-08-29T07:14:36Z</time>
      </trkpt>
      <trkpt lat="45.52261" lon="5.43313">
        <ele>457.6</ele>
        <time>2023-08-29T07:14:37Z</time>
      </trkpt>
      <trkpt lat="45.52264" lon="5.43315">
        <ele>457.8</ele>
        <time>2023-08-29T07:14:38Z</time>
      </trkpt>
      <trkpt lat="45.52266" lon="5.43317">
        <ele>458</ele>
        <time>2023-08-29T07:14:39Z</time>
      </trkpt>
      <trkpt lat="45.52269" lon="5.43318">
        <ele>458.2</ele>
        <time>2023-08-29T07:14:40Z</time>
      </trkpt>
      <trkpt lat="45.52272" lon="5.4332">
        <ele>458.4</ele>
        <time>2023-08-29T07:14:41Z</time>
      </trkpt>
      <trkpt lat="45.52274" lon="5.43322">
        <ele>458.6</ele>
        <time>2023-08-29T07:14:42Z</time>
      </trkpt>
      <trkpt lat="45.52277" lon="5.43324">
        <ele>458.8</ele>
        <time>2023-08-29T07:14:43Z</time>
      </trkpt>
      <trkpt lat="45.52279" lon="5.43326">
        <ele>459</ele>
        <time>2023-08-29T07:14:44Z</time>
      </trkpt>
      <trkpt lat="45.52282" lon="5.43328">
        <ele>459.2</ele>
        <time>2023-08-29T07:14:45Z</time>
      </trkpt>
      <trkpt lat="45.52284" lon="5.4333">
        <ele>459.2</ele>
        <time>2023-08-29T07:14:46Z</time>
      </trkpt>
      <trkpt lat="45.52287" lon="5.43332">
        <ele>459.4</ele>
        <time>2023-08-29T07:14:47Z</time>
      </trkpt>
      <trkpt lat="45.5229" lon="5.43333">
        <ele>459.6</ele>
        <time>2023-08-29T07:14:48Z</time>
      </trkpt>
      <trkpt lat="45.52292" lon="5.43335">
        <ele>460</ele>
        <time>2023-08-29T07:14:49Z</time>
      </trkpt>
      <trkpt lat="45.52295" lon="5.43337">
        <ele>460.2</ele>
        <time>2023-08-29T07:14:50Z</time>
      </trkpt>
      <trkpt lat="45.52298" lon="5.43339">
        <ele>460.2</ele>
        <time>2023-08-29T07:14:51Z</time>
      </trkpt>
      <trkpt lat="45.52301" lon="5.4334">
        <ele>460.2</ele>
        <time>2023-08-29T07:14:52Z</time>
      </trkpt>
      <trkpt lat="45.52303" lon="5.43343">
        <ele>460.2</ele>
        <time>2023-08-29T07:14:53Z</time>
      </trkpt>
      <trkpt lat="45.52306" lon="5.43345">
        <ele>460.4</ele>
        <time>2023-08-29T07:14:54Z</time>
      </trkpt>
      <trkpt lat="45.52309" lon="5.43347">
        <ele>460.4</ele>
        <time>2023-08-29T07:14:55Z</time>
      </trkpt>
      <trkpt lat="45.52311" lon="5.4335">
        <ele>460.6</ele>
        <time>2023-08-29T07:14:56Z</time>
      </trkpt>
      <trkpt lat="45.52313" lon="5.43351">
        <ele>460.6</ele>
        <time>2023-08-29T07:14:57Z</time>
      </trkpt>
      <trkpt lat="45.52316" lon="5.43353">
        <ele>460.8</ele>
        <time>2023-08-29T07:14:58Z</time>
      </trkpt>
      <trkpt lat="45.52319" lon="5.43355">
        <ele>460.8</ele>
        <time>2023-08-29T07:14:59Z</time>
      </trkpt>
      <trkpt lat="45.52322" lon="5.43357">
        <ele>460.8</ele>
        <time>2023-08-29T07:15:00Z</time>
      </trkpt>
      <trkpt lat="45.52324" lon="5.4336">
        <ele>461.2</ele>
        <time>2023-08-29T07:15:01Z</time>
      </trkpt>
      <trkpt lat="45.52327" lon="5.43362">
        <ele>461.2</ele>
        <time>2023-08-29T07:15:02Z</time>
      </trkpt>
      <trkpt lat="45.5233" lon="5.43364">
        <ele>461.6</ele>
        <time>2023-08-29T07:15:03Z</time>
      </trkpt>
      <trkpt lat="45.52332" lon="5.43366">
        <ele>461.8</ele>
        <time>2023-08-29T07:15:04Z</time>
      </trkpt>
      <trkpt lat="45.52335" lon="5.43368">
        <ele>462</ele>
        <time>2023-08-29T07:15:05Z</time>
      </trkpt>
      <trkpt lat="45.52337" lon="5.43369">
        <ele>462.2</ele>
        <time>2023-08-29T07:15:06Z</time>
      </trkpt>
      <trkpt lat="45.5234" lon="5.43371">
        <ele>462.4</ele>
        <time>2023-08-29T07:15:07Z</time>
      </trkpt>
      <trkpt lat="45.52343" lon="5.43374">
        <ele>462.4</ele>
        <time>2023-08-29T07:15:08Z</time>
      </trkpt>
      <trkpt lat="45.52345" lon="5.43376">
        <ele>462.6</ele>
        <time>2023-08-29T07:15:09Z</time>
      </trkpt>
      <trkpt lat="45.52348" lon="5.43379">
        <ele>462.8</ele>
        <time>2023-08-29T07:15:10Z</time>
      </trkpt>
      <trkpt lat="45.5235" lon="5.43381">
        <ele>463</ele>
        <time>2023-08-29T07:15:11Z</time>
      </trkpt>
      <trkpt lat="45.52353" lon="5.43384">
        <ele>463.2</ele>
        <time>2023-08-29T07:15:12Z</time>
      </trkpt>
      <trkpt lat="45.52356" lon="5.43386">
        <ele>463.2</ele>
        <time>2023-08-29T07:15:13Z</time>
      </trkpt>
      <trkpt lat="45.52358" lon="5.43388">
        <ele>463.4</ele>
        <time>2023-08-29T07:15:14Z</time>
      </trkpt>
      <trkpt lat="45.52361" lon="5.4339">
        <ele>463.4</ele>
        <time>2023-08-29T07:15:15Z</time>
      </trkpt>
      <trkpt lat="45.52364" lon="5.43392">
        <ele>463.8</ele>
        <time>2023-08-29T07:15:16Z</time>
      </trkpt>
      <trkpt lat="45.52366" lon="5.43394">
        <ele>464.2</ele>
        <time>2023-08-29T07:15:17Z</time>
      </trkpt>
      <trkpt lat="45.52368" lon="5.43396">
        <ele>464.2</ele>
        <time>2023-08-29T07:15:18Z</time>
      </trkpt>
      <trkpt lat="45.52371" lon="5.43398">
        <ele>464.6</ele>
        <time>2023-08-29T07:15:19Z</time>
      </trkpt>
      <trkpt lat="45.52373" lon="5.434">
        <ele>464.8</ele>
        <time>2023-08-29T07:15:20Z</time>
      </trkpt>
      <trkpt lat="45.52376" lon="5.43403">
        <ele>465.2</ele>
        <time>2023-08-29T07:15:21Z</time>
      </trkpt>
      <trkpt lat="45.52378" lon="5.43404">
        <ele>465.4</ele>
        <time>2023-08-29T07:15:22Z</time>
      </trkpt>
      <trkpt lat="45.5238" lon="5.43406">
        <ele>465.6</ele>
        <time>2023-08-29T07:15:23Z</time>
      </trkpt>
      <trkpt lat="45.52383" lon="5.43408">
        <ele>465.8</ele>
        <time>2023-08-29T07:15:24Z</time>
      </trkpt>
      <trkpt lat="45.52385" lon="5.43411">
        <ele>466</ele>
        <time>2023-08-29T07:15:25Z</time>
      </trkpt>
      <trkpt lat="45.52387" lon="5.43412">
        <ele>466</ele>
        <time>2023-08-29T07:15:26Z</time>
      </trkpt>
      <trkpt lat="45.5239" lon="5.43414">
        <ele>466.2</ele>
        <time>2023-08-29T07:15:27Z</time>
      </trkpt>
      <trkpt lat="45.52392" lon="5.43416">
        <ele>466.2</ele>
        <time>2023-08-29T07:15:28Z</time>
      </trkpt>
      <trkpt lat="45.52395" lon="5.43418">
        <ele>466.4</ele>
        <time>2023-08-29T07:15:29Z</time>
      </trkpt>
      <trkpt lat="45.52397" lon="5.4342">
        <ele>466.6</ele>
        <time>2023-08-29T07:15:30Z</time>
      </trkpt>
      <trkpt lat="45.52399" lon="5.43421">
        <ele>466.8</ele>
        <time>2023-08-29T07:15:31Z</time>
      </trkpt>
      <trkpt lat="45.52402" lon="5.43422">
        <ele>466.8</ele>
        <time>2023-08-29T07:15:32Z</time>
      </trkpt>
      <trkpt lat="45.52405" lon="5.43424">
        <ele>467.2</ele>
        <time>2023-08-29T07:15:33Z</time>
      </trkpt>
      <trkpt lat="45.52407" lon="5.43426">
        <ele>467.2</ele>
        <time>2023-08-29T07:15:34Z</time>
      </trkpt>
      <trkpt lat="45.5241" lon="5.43427">
        <ele>467.4</ele>
        <time>2023-08-29T07:15:35Z</time>
      </trkpt>
      <trkpt lat="45.52412" lon="5.43429">
        <ele>467.6</ele>
        <time>2023-08-29T07:15:36Z</time>
      </trkpt>
      <trkpt lat="45.52415" lon="5.4343">
        <ele>467.6</ele>
        <time>2023-08-29T07:15:37Z</time>
      </trkpt>
      <trkpt lat="45.52418" lon="5.43432">
        <ele>467.6</ele>
        <time>2023-08-29T07:15:38Z</time>
      </trkpt>
      <trkpt lat="45.5242" lon="5.43434">
        <ele>467.8</ele>
        <time>2023-08-29T07:15:39Z</time>
      </trkpt>
      <trkpt lat="45.52423" lon="5.43436">
        <ele>467.8</ele>
        <time>2023-08-29T07:15:40Z</time>
      </trkpt>
      <trkpt lat="45.52425" lon="5.43438">
        <ele>468</ele>
        <time>2023-08-29T07:15:41Z</time>
      </trkpt>
      <trkpt lat="45.52428" lon="5.43439">
        <ele>468.2</ele>
        <time>2023-08-29T07:15:42Z</time>
      </trkpt>
      <trkpt lat="45.52431" lon="5.43441">
        <ele>468.4</ele>
        <time>2023-08-29T07:15:43Z</time>
      </trkpt>
      <trkpt lat="45.52434" lon="5.43442">
        <ele>468.4</ele>
        <time>2023-08-29T07:15:44Z</time>
      </trkpt>
      <trkpt lat="45.52436" lon="5.43444">
        <ele>468.6</ele>
        <time>2023-08-29T07:15:45Z</time>
      </trkpt>
      <trkpt lat="45.52439" lon="5.43446">
        <ele>468.8</ele>
        <time>2023-08-29T07:15:46Z</time>
      </trkpt>
      <trkpt lat="45.52441" lon="5.43447">
        <ele>469.2</ele>
        <time>2023-08-29T07:15:47Z</time>
      </trkpt>
      <trkpt lat="45.52444" lon="5.43448">
        <ele>469.2</ele>
        <time>2023-08-29T07:15:48Z</time>
      </trkpt>
      <trkpt lat="45.52447" lon="5.43449">
        <ele>469.4</ele>
        <time>2023-08-29T07:15:49Z</time>
      </trkpt>
      <trkpt lat="45.52449" lon="5.4345">
        <ele>469.4</ele>
        <time>2023-08-29T07:15:50Z</time>
      </trkpt>
      <trkpt lat="45.52452" lon="5.43452">
        <ele>469.6</ele>
        <time>2023-08-29T07:15:51Z</time>
      </trkpt>
      <trkpt lat="45.52455" lon="5.43453">
        <ele>469.8</ele>
        <time>2023-08-29T07:15:52Z</time>
      </trkpt>
      <trkpt lat="45.52457" lon="5.43455">
        <ele>470</ele>
        <time>2023-08-29T07:15:53Z</time>
      </trkpt>
      <trkpt lat="45.5246" lon="5.43456">
        <ele>470</ele>
        <time>2023-08-29T07:15:54Z</time>
      </trkpt>
      <trkpt lat="45.52462" lon="5.43458">
        <ele>470</ele>
        <time>2023-08-29T07:15:55Z</time>
      </trkpt>
      <trkpt lat="45.52465" lon="5.43459">
        <ele>470.2</ele>
        <time>2023-08-29T07:15:56Z</time>
      </trkpt>
      <trkpt lat="45.52468" lon="5.43461">
        <ele>470.4</ele>
        <time>2023-08-29T07:15:57Z</time>
      </trkpt>
      <trkpt lat="45.5247" lon="5.43463">
        <ele>470.4</ele>
        <time>2023-08-29T07:15:58Z</time>
      </trkpt>
      <trkpt lat="45.52473" lon="5.43465">
        <ele>470.4</ele>
        <time>2023-08-29T07:15:59Z</time>
      </trkpt>
      <trkpt lat="45.52476" lon="5.43466">
        <ele>470.6</ele>
        <time>2023-08-29T07:16:00Z</time>
      </trkpt>
      <trkpt lat="45.52478" lon="5.43468">
        <ele>470.8</ele>
        <time>2023-08-29T07:16:01Z</time>
      </trkpt>
      <trkpt lat="45.52481" lon="5.43469">
        <ele>470.8</ele>
        <time>2023-08-29T07:16:02Z</time>
      </trkpt>
      <trkpt lat="45.52484" lon="5.43471">
        <ele>470.8</ele>
        <time>2023-08-29T07:16:03Z</time>
      </trkpt>
      <trkpt lat="45.52486" lon="5.43473">
        <ele>471</ele>
        <time>2023-08-29T07:16:04Z</time>
      </trkpt>
      <trkpt lat="45.52489" lon="5.43475">
        <ele>471.2</ele>
        <time>2023-08-29T07:16:05Z</time>
      </trkpt>
      <trkpt lat="45.52492" lon="5.43476">
        <ele>471.2</ele>
        <time>2023-08-29T07:16:06Z</time>
      </trkpt>
      <trkpt lat="45.52495" lon="5.43477">
        <ele>471.6</ele>
        <time>2023-08-29T07:16:07Z</time>
      </trkpt>
      <trkpt lat="45.52497" lon="5.43479">
        <ele>471.6</ele>
        <time>2023-08-29T07:16:08Z</time>
      </trkpt>
      <trkpt lat="45.525" lon="5.4348">
        <ele>471.8</ele>
        <time>2023-08-29T07:16:09Z</time>
      </trkpt>
      <trkpt lat="45.52502" lon="5.43481">
        <ele>472</ele>
        <time>2023-08-29T07:16:10Z</time>
      </trkpt>
      <trkpt lat="45.52505" lon="5.43483">
        <ele>472</ele>
        <time>2023-08-29T07:16:11Z</time>
      </trkpt>
      <trkpt lat="45.52508" lon="5.43484">
        <ele>472</ele>
        <time>2023-08-29T07:16:12Z</time>
      </trkpt>
      <trkpt lat="45.5251" lon="5.43486">
        <ele>472.4</ele>
        <time>2023-08-29T07:16:13Z</time>
      </trkpt>
      <trkpt lat="45.52512" lon="5.43487">
        <ele>472.4</ele>
        <time>2023-08-29T07:16:14Z</time>
      </trkpt>
      <trkpt lat="45.52515" lon="5.43489">
        <ele>472.6</ele>
        <time>2023-08-29T07:16:15Z</time>
      </trkpt>
      <trkpt lat="45.52517" lon="5.4349">
        <ele>472.8</ele>
        <time>2023-08-29T07:16:16Z</time>
      </trkpt>
      <trkpt lat="45.5252" lon="5.43492">
        <ele>472.8</ele>
        <time>2023-08-29T07:16:17Z</time>
      </trkpt>
      <trkpt lat="45.52523" lon="5.43494">
        <ele>473</ele>
        <time>2023-08-29T07:16:18Z</time>
      </trkpt>
      <trkpt lat="45.52526" lon="5.43496">
        <ele>473</ele>
        <time>2023-08-29T07:16:19Z</time>
      </trkpt>
      <trkpt lat="45.52528" lon="5.43497">
        <ele>473.2</ele>
        <time>2023-08-29T07:16:20Z</time>
      </trkpt>
      <trkpt lat="45.5253" lon="5.43499">
        <ele>473.4</ele>
        <time>2023-08-29T07:16:21Z</time>
      </trkpt>
      <trkpt lat="45.52533" lon="5.435">
        <ele>473.6</ele>
        <time>2023-08-29T07:16:22Z</time>
      </trkpt>
      <trkpt lat="45.52535" lon="5.43501">
        <ele>473.8</ele>
        <time>2023-08-29T07:16:23Z</time>
      </trkpt>
      <trkpt lat="45.52538" lon="5.43503">
        <ele>474</ele>
        <time>2023-08-29T07:16:24Z</time>
      </trkpt>
      <trkpt lat="45.5254" lon="5.43504">
        <ele>474.2</ele>
        <time>2023-08-29T07:16:25Z</time>
      </trkpt>
      <trkpt lat="45.52543" lon="5.43506">
        <ele>474.4</ele>
        <time>2023-08-29T07:16:26Z</time>
      </trkpt>
      <trkpt lat="45.52546" lon="5.43507">
        <ele>474.6</ele>
        <time>2023-08-29T07:16:27Z</time>
      </trkpt>
      <trkpt lat="45.52548" lon="5.43509">
        <ele>475</ele>
        <time>2023-08-29T07:16:28Z</time>
      </trkpt>
      <trkpt lat="45.52551" lon="5.4351">
        <ele>475.2</ele>
        <time>2023-08-29T07:16:29Z</time>
      </trkpt>
      <trkpt lat="45.52553" lon="5.43511">
        <ele>475.4</ele>
        <time>2023-08-29T07:16:30Z</time>
      </trkpt>
      <trkpt lat="45.52555" lon="5.43512">
        <ele>475.6</ele>
        <time>2023-08-29T07:16:31Z</time>
      </trkpt>
      <trkpt lat="45.52557" lon="5.43514">
        <ele>475.8</ele>
        <time>2023-08-29T07:16:32Z</time>
      </trkpt>
      <trkpt lat="45.5256" lon="5.43516">
        <ele>476</ele>
        <time>2023-08-29T07:16:33Z</time>
      </trkpt>
      <trkpt lat="45.52562" lon="5.43518">
        <ele>476.2</ele>
        <time>2023-08-29T07:16:34Z</time>
      </trkpt>
      <trkpt lat="45.52565" lon="5.4352">
        <ele>476.4</ele>
        <time>2023-08-29T07:16:35Z</time>
      </trkpt>
      <trkpt lat="45.52567" lon="5.43521">
        <ele>476.6</ele>
        <time>2023-08-29T07:16:36Z</time>
      </trkpt>
      <trkpt lat="45.5257" lon="5.43522">
        <ele>476.8</ele>
        <time>2023-08-29T07:16:37Z</time>
      </trkpt>
      <trkpt lat="45.52572" lon="5.43524">
        <ele>477</ele>
        <time>2023-08-29T07:16:38Z</time>
      </trkpt>
      <trkpt lat="45.52575" lon="5.43526">
        <ele>477</ele>
        <time>2023-08-29T07:16:39Z</time>
      </trkpt>
      <trkpt lat="45.52577" lon="5.43527">
        <ele>477.2</ele>
        <time>2023-08-29T07:16:40Z</time>
      </trkpt>
      <trkpt lat="45.52579" lon="5.43529">
        <ele>477.4</ele>
        <time>2023-08-29T07:16:41Z</time>
      </trkpt>
      <trkpt lat="45.52582" lon="5.43531">
        <ele>477.4</ele>
        <time>2023-08-29T07:16:42Z</time>
      </trkpt>
      <trkpt lat="45.52584" lon="5.43532">
        <ele>477.6</ele>
        <time>2023-08-29T07:16:43Z</time>
      </trkpt>
      <trkpt lat="45.52586" lon="5.43533">
        <ele>477.8</ele>
        <time>2023-08-29T07:16:44Z</time>
      </trkpt>
      <trkpt lat="45.52588" lon="5.43534">
        <ele>478.2</ele>
        <time>2023-08-29T07:16:45Z</time>
      </trkpt>
      <trkpt lat="45.5259" lon="5.43535">
        <ele>478.2</ele>
        <time>2023-08-29T07:16:46Z</time>
      </trkpt>
      <trkpt lat="45.52593" lon="5.43536">
        <ele>478.4</ele>
        <time>2023-08-29T07:16:47Z</time>
      </trkpt>
      <trkpt lat="45.52595" lon="5.43538">
        <ele>478.6</ele>
        <time>2023-08-29T07:16:48Z</time>
      </trkpt>
      <trkpt lat="45.52597" lon="5.43539">
        <ele>478.8</ele>
        <time>2023-08-29T07:16:49Z</time>
      </trkpt>
      <trkpt lat="45.52599" lon="5.4354">
        <ele>479</ele>
        <time>2023-08-29T07:16:50Z</time>
      </trkpt>
      <trkpt lat="45.52602" lon="5.43542">
        <ele>479.2</ele>
        <time>2023-08-29T07:16:51Z</time>
      </trkpt>
      <trkpt lat="45.52605" lon="5.43544">
        <ele>479.6</ele>
        <time>2023-08-29T07:16:52Z</time>
      </trkpt>
      <trkpt lat="45.52607" lon="5.43544">
        <ele>479.6</ele>
        <time>2023-08-29T07:16:53Z</time>
      </trkpt>
      <trkpt lat="45.52608" lon="5.43545">
        <ele>479.8</ele>
        <time>2023-08-29T07:16:54Z</time>
      </trkpt>
      <trkpt lat="45.52611" lon="5.43547">
        <ele>480</ele>
        <time>2023-08-29T07:16:55Z</time>
      </trkpt>
      <trkpt lat="45.52613" lon="5.43548">
        <ele>480.4</ele>
        <time>2023-08-29T07:16:56Z</time>
      </trkpt>
      <trkpt lat="45.52615" lon="5.4355">
        <ele>480.4</ele>
        <time>2023-08-29T07:16:57Z</time>
      </trkpt>
      <trkpt lat="45.52617" lon="5.43552">
        <ele>480.8</ele>
        <time>2023-08-29T07:16:58Z</time>
      </trkpt>
      <trkpt lat="45.52619" lon="5.43553">
        <ele>481</ele>
        <time>2023-08-29T07:16:59Z</time>
      </trkpt>
      <trkpt lat="45.52622" lon="5.43554">
        <ele>481.2</ele>
        <time>2023-08-29T07:17:00Z</time>
      </trkpt>
      <trkpt lat="45.52624" lon="5.43555">
        <ele>481.4</ele>
        <time>2023-08-29T07:17:01Z</time>
      </trkpt>
      <trkpt lat="45.52627" lon="5.43556">
        <ele>481.8</ele>
        <time>2023-08-29T07:17:02Z</time>
      </trkpt>
      <trkpt lat="45.52629" lon="5.43557">
        <ele>482</ele>
        <time>2023-08-29T07:17:03Z</time>
      </trkpt>
      <trkpt lat="45.52631" lon="5.43558">
        <ele>482.2</ele>
        <time>2023-08-29T07:17:04Z</time>
      </trkpt>
      <trkpt lat="45.52633" lon="5.43559">
        <ele>482.6</ele>
        <time>2023-08-29T07:17:05Z</time>
      </trkpt>
      <trkpt lat="45.52635" lon="5.4356">
        <ele>482.8</ele>
        <time>2023-08-29T07:17:06Z</time>
      </trkpt>
      <trkpt lat="45.52637" lon="5.43561">
        <ele>483</ele>
        <time>2023-08-29T07:17:07Z</time>
      </trkpt>
      <trkpt lat="45.52639" lon="5.43563">
        <ele>483.2</ele>
        <time>2023-08-29T07:17:08Z</time>
      </trkpt>
      <trkpt lat="45.52641" lon="5.43564">
        <ele>483.2</ele>
        <time>2023-08-29T07:17:09Z</time>
      </trkpt>
      <trkpt lat="45.52643" lon="5.43566">
        <ele>483.4</ele>
        <time>2023-08-29T07:17:10Z</time>
      </trkpt>
      <trkpt lat="45.52646" lon="5.43567">
        <ele>483.8</ele>
        <time>2023-08-29T07:17:11Z</time>
      </trkpt>
      <trkpt lat="45.52648" lon="5.43569">
        <ele>483.8</ele>
        <time>2023-08-29T07:17:12Z</time>
      </trkpt>
      <trkpt lat="45.5265" lon="5.4357">
        <ele>484</ele>
        <time>2023-08-29T07:17:13Z</time>
      </trkpt>
      <trkpt lat="45.52653" lon="5.43572">
        <ele>484</ele>
        <time>2023-08-29T07:17:14Z</time>
      </trkpt>
      <trkpt lat="45.52655" lon="5.43574">
        <ele>484</ele>
        <time>2023-08-29T07:17:15Z</time>
      </trkpt>
      <trkpt lat="45.52657" lon="5.43578">
        <ele>484.2</ele>
        <time>2023-08-29T07:17:16Z</time>
      </trkpt>
      <trkpt lat="45.52659" lon="5.4358">
        <ele>484.2</ele>
        <time>2023-08-29T07:17:17Z</time>
      </trkpt>
      <trkpt lat="45.52661" lon="5.43583">
        <ele>484.6</ele>
        <time>2023-08-29T07:17:18Z</time>
      </trkpt>
      <trkpt lat="45.52663" lon="5.43587">
        <ele>484.6</ele>
        <time>2023-08-29T07:17:19Z</time>
      </trkpt>
      <trkpt lat="45.52664" lon="5.4359">
        <ele>485</ele>
        <time>2023-08-29T07:17:20Z</time>
      </trkpt>
      <trkpt lat="45.52665" lon="5.43593">
        <ele>485.2</ele>
        <time>2023-08-29T07:17:21Z</time>
      </trkpt>
      <trkpt lat="45.52666" lon="5.43597">
        <ele>485.4</ele>
        <time>2023-08-29T07:17:22Z</time>
      </trkpt>
      <trkpt lat="45.52668" lon="5.436">
        <ele>485.8</ele>
        <time>2023-08-29T07:17:23Z</time>
      </trkpt>
      <trkpt lat="45.52669" lon="5.43604">
        <ele>485.8</ele>
        <time>2023-08-29T07:17:24Z</time>
      </trkpt>
      <trkpt lat="45.5267" lon="5.43608">
        <ele>486</ele>
        <time>2023-08-29T07:17:25Z</time>
      </trkpt>
      <trkpt lat="45.52672" lon="5.43612">
        <ele>486</ele>
        <time>2023-08-29T07:17:26Z</time>
      </trkpt>
      <trkpt lat="45.52673" lon="5.43617">
        <ele>486</ele>
        <time>2023-08-29T07:17:27Z</time>
      </trkpt>
      <trkpt lat="45.52674" lon="5.43622">
        <ele>486</ele>
        <time>2023-08-29T07:17:28Z</time>
      </trkpt>
      <trkpt lat="45.52675" lon="5.43626">
        <ele>486</ele>
        <time>2023-08-29T07:17:29Z</time>
      </trkpt>
      <trkpt lat="45.52677" lon="5.43631">
        <ele>486</ele>
        <time>2023-08-29T07:17:30Z</time>
      </trkpt>
      <trkpt lat="45.52678" lon="5.43636">
        <ele>486</ele>
        <time>2023-08-29T07:17:31Z</time>
      </trkpt>
      <trkpt lat="45.52679" lon="5.43641">
        <ele>486</ele>
        <time>2023-08-29T07:17:32Z</time>
      </trkpt>
      <trkpt lat="45.5268" lon="5.43647">
        <ele>486</ele>
        <time>2023-08-29T07:17:33Z</time>
      </trkpt>
      <trkpt lat="45.52681" lon="5.43652">
        <ele>486</ele>
        <time>2023-08-29T07:17:34Z</time>
      </trkpt>
      <trkpt lat="45.52682" lon="5.43656">
        <ele>486</ele>
        <time>2023-08-29T07:17:35Z</time>
      </trkpt>
      <trkpt lat="45.52683" lon="5.43661">
        <ele>486</ele>
        <time>2023-08-29T07:17:36Z</time>
      </trkpt>
      <trkpt lat="45.52684" lon="5.43665">
        <ele>486</ele>
        <time>2023-08-29T07:17:37Z</time>
      </trkpt>
      <trkpt lat="45.52686" lon="5.4367">
        <ele>486</ele>
        <time>2023-08-29T07:17:38Z</time>
      </trkpt>
      <trkpt lat="45.52686" lon="5.43675">
        <ele>486</ele>
        <time>2023-08-29T07:17:39Z</time>
      </trkpt>
      <trkpt lat="45.52687" lon="5.43679">
        <ele>486</ele>
        <time>2023-08-29T07:17:40Z</time>
      </trkpt>
      <trkpt lat="45.52687" lon="5.43684">
        <ele>486.2</ele>
        <time>2023-08-29T07:17:41Z</time>
      </trkpt>
      <trkpt lat="45.52688" lon="5.43689">
        <ele>486.2</ele>
        <time>2023-08-29T07:17:42Z</time>
      </trkpt>
      <trkpt lat="45.52688" lon="5.43693">
        <ele>486.2</ele>
        <time>2023-08-29T07:17:43Z</time>
      </trkpt>
      <trkpt lat="45.52689" lon="5.43698">
        <ele>486.2</ele>
        <time>2023-08-29T07:17:44Z</time>
      </trkpt>
      <trkpt lat="45.5269" lon="5.43703">
        <ele>486.2</ele>
        <time>2023-08-29T07:17:45Z</time>
      </trkpt>
      <trkpt lat="45.52691" lon="5.43708">
        <ele>486.2</ele>
        <time>2023-08-29T07:17:46Z</time>
      </trkpt>
      <trkpt lat="45.52692" lon="5.43713">
        <ele>486.2</ele>
        <time>2023-08-29T07:17:47Z</time>
      </trkpt>
      <trkpt lat="45.52692" lon="5.43718">
        <ele>486.4</ele>
        <time>2023-08-29T07:17:48Z</time>
      </trkpt>
      <trkpt lat="45.52693" lon="5.43723">
        <ele>486.4</ele>
        <time>2023-08-29T07:17:49Z</time>
      </trkpt>
      <trkpt lat="45.52694" lon="5.43729">
        <ele>486.2</ele>
        <time>2023-08-29T07:17:50Z</time>
      </trkpt>
      <trkpt lat="45.52694" lon="5.43734">
        <ele>486.2</ele>
        <time>2023-08-29T07:17:51Z</time>
      </trkpt>
      <trkpt lat="45.52695" lon="5.43739">
        <ele>486.4</ele>
        <time>2023-08-29T07:17:52Z</time>
      </trkpt>
      <trkpt lat="45.52697" lon="5.43745">
        <ele>486.4</ele>
        <time>2023-08-29T07:17:53Z</time>
      </trkpt>
      <trkpt lat="45.52698" lon="5.4375">
        <ele>486.4</ele>
        <time>2023-08-29T07:17:54Z</time>
      </trkpt>
      <trkpt lat="45.52698" lon="5.43756">
        <ele>486.4</ele>
        <time>2023-08-29T07:17:55Z</time>
      </trkpt>
      <trkpt lat="45.52699" lon="5.43762">
        <ele>486.4</ele>
        <time>2023-08-29T07:17:56Z</time>
      </trkpt>
      <trkpt lat="45.527" lon="5.43767">
        <ele>486.4</ele>
        <time>2023-08-29T07:17:57Z</time>
      </trkpt>
      <trkpt lat="45.52701" lon="5.43773">
        <ele>486.4</ele>
        <time>2023-08-29T07:17:58Z</time>
      </trkpt>
      <trkpt lat="45.52702" lon="5.43779">
        <ele>486.6</ele>
        <time>2023-08-29T07:17:59Z</time>
      </trkpt>
      <trkpt lat="45.52703" lon="5.43784">
        <ele>486.6</ele>
        <time>2023-08-29T07:18:00Z</time>
      </trkpt>
      <trkpt lat="45.52704" lon="5.4379">
        <ele>486.6</ele>
        <time>2023-08-29T07:18:01Z</time>
      </trkpt>
      <trkpt lat="45.52705" lon="5.43795">
        <ele>486.6</ele>
        <time>2023-08-29T07:18:02Z</time>
      </trkpt>
      <trkpt lat="45.52706" lon="5.438">
        <ele>486.6</ele>
        <time>2023-08-29T07:18:03Z</time>
      </trkpt>
      <trkpt lat="45.52707" lon="5.43805">
        <ele>486.6</ele>
        <time>2023-08-29T07:18:04Z</time>
      </trkpt>
      <trkpt lat="45.52708" lon="5.43811">
        <ele>486.6</ele>
        <time>2023-08-29T07:18:05Z</time>
      </trkpt>
      <trkpt lat="45.52709" lon="5.43815">
        <ele>486.6</ele>
        <time>2023-08-29T07:18:06Z</time>
      </trkpt>
      <trkpt lat="45.5271" lon="5.43821">
        <ele>486.6</ele>
        <time>2023-08-29T07:18:07Z</time>
      </trkpt>
      <trkpt lat="45.52711" lon="5.43826">
        <ele>486.6</ele>
        <time>2023-08-29T07:18:08Z</time>
      </trkpt>
      <trkpt lat="45.52712" lon="5.43832">
        <ele>486.8</ele>
        <time>2023-08-29T07:18:09Z</time>
      </trkpt>
      <trkpt lat="45.52712" lon="5.43837">
        <ele>486.8</ele>
        <time>2023-08-29T07:18:10Z</time>
      </trkpt>
      <trkpt lat="45.52713" lon="5.43843">
        <ele>487</ele>
        <time>2023-08-29T07:18:11Z</time>
      </trkpt>
      <trkpt lat="45.52713" lon="5.43849">
        <ele>487</ele>
        <time>2023-08-29T07:18:12Z</time>
      </trkpt>
      <trkpt lat="45.52713" lon="5.43855">
        <ele>487.2</ele>
        <time>2023-08-29T07:18:13Z</time>
      </trkpt>
      <trkpt lat="45.52713" lon="5.4386">
        <ele>487.4</ele>
        <time>2023-08-29T07:18:14Z</time>
      </trkpt>
      <trkpt lat="45.52711" lon="5.43866">
        <ele>487.4</ele>
        <time>2023-08-29T07:18:15Z</time>
      </trkpt>
      <trkpt lat="45.52709" lon="5.43871">
        <ele>487.4</ele>
        <time>2023-08-29T07:18:16Z</time>
      </trkpt>
      <trkpt lat="45.52707" lon="5.43877">
        <ele>487.4</ele>
        <time>2023-08-29T07:18:17Z</time>
      </trkpt>
      <trkpt lat="45.52704" lon="5.43882">
        <ele>487.6</ele>
        <time>2023-08-29T07:18:18Z</time>
      </trkpt>
      <trkpt lat="45.52701" lon="5.43888">
        <ele>487.6</ele>
        <time>2023-08-29T07:18:19Z</time>
      </trkpt>
      <trkpt lat="45.52698" lon="5.43894">
        <ele>487.6</ele>
        <time>2023-08-29T07:18:20Z</time>
      </trkpt>
      <trkpt lat="45.52695" lon="5.439">
        <ele>487.4</ele>
        <time>2023-08-29T07:18:21Z</time>
      </trkpt>
      <trkpt lat="45.52691" lon="5.43905">
        <ele>487.4</ele>
        <time>2023-08-29T07:18:22Z</time>
      </trkpt>
      <trkpt lat="45.52687" lon="5.4391">
        <ele>487.2</ele>
        <time>2023-08-29T07:18:23Z</time>
      </trkpt>
      <trkpt lat="45.52683" lon="5.43916">
        <ele>487</ele>
        <time>2023-08-29T07:18:24Z</time>
      </trkpt>
      <trkpt lat="45.5268" lon="5.4392">
        <ele>487</ele>
        <time>2023-08-29T07:18:25Z</time>
      </trkpt>
      <trkpt lat="45.52677" lon="5.43925">
        <ele>487</ele>
        <time>2023-08-29T07:18:26Z</time>
      </trkpt>
      <trkpt lat="45.52674" lon="5.43929">
        <ele>487</ele>
        <time>2023-08-29T07:18:27Z</time>
      </trkpt>
      <trkpt lat="45.52671" lon="5.43933">
        <ele>487</ele>
        <time>2023-08-29T07:18:28Z</time>
      </trkpt>
      <trkpt lat="45.52668" lon="5.43938">
        <ele>487</ele>
        <time>2023-08-29T07:18:29Z</time>
      </trkpt>
      <trkpt lat="45.52665" lon="5.43942">
        <ele>487.2</ele>
        <time>2023-08-29T07:18:30Z</time>
      </trkpt>
      <trkpt lat="45.52662" lon="5.43947">
        <ele>487.2</ele>
        <time>2023-08-29T07:18:31Z</time>
      </trkpt>
      <trkpt lat="45.52659" lon="5.43951">
        <ele>487.2</ele>
        <time>2023-08-29T07:18:32Z</time>
      </trkpt>
      <trkpt lat="45.52656" lon="5.43955">
        <ele>487.2</ele>
        <time>2023-08-29T07:18:33Z</time>
      </trkpt>
      <trkpt lat="45.52653" lon="5.4396">
        <ele>487.2</ele>
        <time>2023-08-29T07:18:34Z</time>
      </trkpt>
      <trkpt lat="45.5265" lon="5.43965">
        <ele>487.2</ele>
        <time>2023-08-29T07:18:35Z</time>
      </trkpt>
      <trkpt lat="45.52648" lon="5.4397">
        <ele>487.4</ele>
        <time>2023-08-29T07:18:36Z</time>
      </trkpt>
      <trkpt lat="45.52645" lon="5.43975">
        <ele>487.4</ele>
        <time>2023-08-29T07:18:37Z</time>
      </trkpt>
      <trkpt lat="45.52642" lon="5.4398">
        <ele>487.4</ele>
        <time>2023-08-29T07:18:38Z</time>
      </trkpt>
      <trkpt lat="45.52639" lon="5.43984">
        <ele>487.6</ele>
        <time>2023-08-29T07:18:39Z</time>
      </trkpt>
      <trkpt lat="45.52637" lon="5.43989">
        <ele>487.6</ele>
        <time>2023-08-29T07:18:40Z</time>
      </trkpt>
      <trkpt lat="45.52635" lon="5.43994">
        <ele>487.8</ele>
        <time>2023-08-29T07:18:41Z</time>
      </trkpt>
      <trkpt lat="45.52632" lon="5.44">
        <ele>488</ele>
        <time>2023-08-29T07:18:42Z</time>
      </trkpt>
      <trkpt lat="45.5263" lon="5.44005">
        <ele>488</ele>
        <time>2023-08-29T07:18:43Z</time>
      </trkpt>
      <trkpt lat="45.52628" lon="5.44009">
        <ele>488.2</ele>
        <time>2023-08-29T07:18:44Z</time>
      </trkpt>
      <trkpt lat="45.52625" lon="5.44014">
        <ele>488.2</ele>
        <time>2023-08-29T07:18:45Z</time>
      </trkpt>
      <trkpt lat="45.52623" lon="5.44019">
        <ele>488.2</ele>
        <time>2023-08-29T07:18:46Z</time>
      </trkpt>
      <trkpt lat="45.52621" lon="5.44024">
        <ele>488.2</ele>
        <time>2023-08-29T07:18:47Z</time>
      </trkpt>
      <trkpt lat="45.52619" lon="5.4403">
        <ele>488.4</ele>
        <time>2023-08-29T07:18:48Z</time>
      </trkpt>
      <trkpt lat="45.52616" lon="5.44035">
        <ele>488.4</ele>
        <time>2023-08-29T07:18:49Z</time>
      </trkpt>
      <trkpt lat="45.52615" lon="5.4404">
        <ele>488.6</ele>
        <time>2023-08-29T07:18:50Z</time>
      </trkpt>
      <trkpt lat="45.52613" lon="5.44045">
        <ele>488.8</ele>
        <time>2023-08-29T07:18:51Z</time>
      </trkpt>
      <trkpt lat="45.52611" lon="5.4405">
        <ele>489</ele>
        <time>2023-08-29T07:18:52Z</time>
      </trkpt>
      <trkpt lat="45.52609" lon="5.44056">
        <ele>489</ele>
        <time>2023-08-29T07:18:53Z</time>
      </trkpt>
      <trkpt lat="45.52608" lon="5.44061">
        <ele>489.2</ele>
        <time>2023-08-29T07:18:54Z</time>
      </trkpt>
      <trkpt lat="45.52606" lon="5.44067">
        <ele>489.4</ele>
        <time>2023-08-29T07:18:55Z</time>
      </trkpt>
      <trkpt lat="45.52604" lon="5.44073">
        <ele>489.4</ele>
        <time>2023-08-29T07:18:56Z</time>
      </trkpt>
      <trkpt lat="45.52603" lon="5.44078">
        <ele>489.4</ele>
        <time>2023-08-29T07:18:57Z</time>
      </trkpt>
      <trkpt lat="45.52601" lon="5.44084">
        <ele>489.6</ele>
        <time>2023-08-29T07:18:58Z</time>
      </trkpt>
      <trkpt lat="45.52599" lon="5.4409">
        <ele>489.6</ele>
        <time>2023-08-29T07:18:59Z</time>
      </trkpt>
      <trkpt lat="45.52597" lon="5.44096">
        <ele>489.8</ele>
        <time>2023-08-29T07:19:00Z</time>
      </trkpt>
      <trkpt lat="45.52595" lon="5.441">
        <ele>489.8</ele>
        <time>2023-08-29T07:19:01Z</time>
      </trkpt>
      <trkpt lat="45.52594" lon="5.44105">
        <ele>489.8</ele>
        <time>2023-08-29T07:19:02Z</time>
      </trkpt>
      <trkpt lat="45.52592" lon="5.44111">
        <ele>490</ele>
        <time>2023-08-29T07:19:03Z</time>
      </trkpt>
      <trkpt lat="45.5259" lon="5.44117">
        <ele>490</ele>
        <time>2023-08-29T07:19:04Z</time>
      </trkpt>
      <trkpt lat="45.52588" lon="5.44122">
        <ele>490</ele>
        <time>2023-08-29T07:19:05Z</time>
      </trkpt>
      <trkpt lat="45.52586" lon="5.44127">
        <ele>490.2</ele>
        <time>2023-08-29T07:19:06Z</time>
      </trkpt>
      <trkpt lat="45.52585" lon="5.44133">
        <ele>490.6</ele>
        <time>2023-08-29T07:19:07Z</time>
      </trkpt>
      <trkpt lat="45.52583" lon="5.44138">
        <ele>490.6</ele>
        <time>2023-08-29T07:19:08Z</time>
      </trkpt>
      <trkpt lat="45.52581" lon="5.44143">
        <ele>490.6</ele>
        <time>2023-08-29T07:19:09Z</time>
      </trkpt>
      <trkpt lat="45.52579" lon="5.44147">
        <ele>490.8</ele>
        <time>2023-08-29T07:19:10Z</time>
      </trkpt>
      <trkpt lat="45.52577" lon="5.44152">
        <ele>490.8</ele>
        <time>2023-08-29T07:19:11Z</time>
      </trkpt>
      <trkpt lat="45.52574" lon="5.44157">
        <ele>491.2</ele>
        <time>2023-08-29T07:19:12Z</time>
      </trkpt>
      <trkpt lat="45.52572" lon="5.44161">
        <ele>491.2</ele>
        <time>2023-08-29T07:19:13Z</time>
      </trkpt>
      <trkpt lat="45.52569" lon="5.44166">
        <ele>491.2</ele>
        <time>2023-08-29T07:19:14Z</time>
      </trkpt>
      <trkpt lat="45.52566" lon="5.4417">
        <ele>491.2</ele>
        <time>2023-08-29T07:19:15Z</time>
      </trkpt>
      <trkpt lat="45.52564" lon="5.44174">
        <ele>491.4</ele>
        <time>2023-08-29T07:19:16Z</time>
      </trkpt>
      <trkpt lat="45.52562" lon="5.44178">
        <ele>491.6</ele>
        <time>2023-08-29T07:19:17Z</time>
      </trkpt>
      <trkpt lat="45.5256" lon="5.44183">
        <ele>492</ele>
        <time>2023-08-29T07:19:18Z</time>
      </trkpt>
      <trkpt lat="45.52558" lon="5.44188">
        <ele>492.2</ele>
        <time>2023-08-29T07:19:19Z</time>
      </trkpt>
      <trkpt lat="45.52556" lon="5.44192">
        <ele>492.2</ele>
        <time>2023-08-29T07:19:20Z</time>
      </trkpt>
      <trkpt lat="45.52553" lon="5.44197">
        <ele>492.6</ele>
        <time>2023-08-29T07:19:21Z</time>
      </trkpt>
      <trkpt lat="45.52552" lon="5.44202">
        <ele>492.8</ele>
        <time>2023-08-29T07:19:22Z</time>
      </trkpt>
      <trkpt lat="45.52551" lon="5.44207">
        <ele>493</ele>
        <time>2023-08-29T07:19:23Z</time>
      </trkpt>
      <trkpt lat="45.52549" lon="5.44213">
        <ele>493.4</ele>
        <time>2023-08-29T07:19:24Z</time>
      </trkpt>
      <trkpt lat="45.52548" lon="5.44219">
        <ele>493.4</ele>
        <time>2023-08-29T07:19:25Z</time>
      </trkpt>
      <trkpt lat="45.52547" lon="5.44223">
        <ele>493.6</ele>
        <time>2023-08-29T07:19:26Z</time>
      </trkpt>
      <trkpt lat="45.52546" lon="5.44229">
        <ele>493.6</ele>
        <time>2023-08-29T07:19:27Z</time>
      </trkpt>
      <trkpt lat="45.52546" lon="5.44234">
        <ele>493.8</ele>
        <time>2023-08-29T07:19:28Z</time>
      </trkpt>
      <trkpt lat="45.52545" lon="5.44239">
        <ele>494.2</ele>
        <time>2023-08-29T07:19:29Z</time>
      </trkpt>
      <trkpt lat="45.52544" lon="5.44245">
        <ele>494.4</ele>
        <time>2023-08-29T07:19:30Z</time>
      </trkpt>
      <trkpt lat="45.52543" lon="5.4425">
        <ele>494.4</ele>
        <time>2023-08-29T07:19:31Z</time>
      </trkpt>
      <trkpt lat="45.52543" lon="5.44256">
        <ele>494.8</ele>
        <time>2023-08-29T07:19:32Z</time>
      </trkpt>
      <trkpt lat="45.52543" lon="5.44261">
        <ele>495</ele>
        <time>2023-08-29T07:19:33Z</time>
      </trkpt>
      <trkpt lat="45.52542" lon="5.44266">
        <ele>495.2</ele>
        <time>2023-08-29T07:19:34Z</time>
      </trkpt>
      <trkpt lat="45.52542" lon="5.44271">
        <ele>495.4</ele>
        <time>2023-08-29T07:19:35Z</time>
      </trkpt>
      <trkpt lat="45.52541" lon="5.44276">
        <ele>495.6</ele>
        <time>2023-08-29T07:19:36Z</time>
      </trkpt>
      <trkpt lat="45.5254" lon="5.44281">
        <ele>495.6</ele>
        <time>2023-08-29T07:19:37Z</time>
      </trkpt>
      <trkpt lat="45.5254" lon="5.44287">
        <ele>495.6</ele>
        <time>2023-08-29T07:19:38Z</time>
      </trkpt>
      <trkpt lat="45.52539" lon="5.44291">
        <ele>496</ele>
        <time>2023-08-29T07:19:39Z</time>
      </trkpt>
      <trkpt lat="45.52539" lon="5.44296">
        <ele>496.2</ele>
        <time>2023-08-29T07:19:40Z</time>
      </trkpt>
      <trkpt lat="45.52538" lon="5.44301">
        <ele>496.4</ele>
        <time>2023-08-29T07:19:41Z</time>
      </trkpt>
      <trkpt lat="45.52538" lon="5.44305">
        <ele>496.8</ele>
        <time>2023-08-29T07:19:42Z</time>
      </trkpt>
      <trkpt lat="45.52537" lon="5.44309">
        <ele>497</ele>
        <time>2023-08-29T07:19:43Z</time>
      </trkpt>
      <trkpt lat="45.52537" lon="5.44314">
        <ele>497.2</ele>
        <time>2023-08-29T07:19:44Z</time>
      </trkpt>
      <trkpt lat="45.52536" lon="5.44319">
        <ele>497.4</ele>
        <time>2023-08-29T07:19:45Z</time>
      </trkpt>
      <trkpt lat="45.52535" lon="5.44322">
        <ele>497.6</ele>
        <time>2023-08-29T07:19:46Z</time>
      </trkpt>
      <trkpt lat="45.52535" lon="5.44327">
        <ele>497.8</ele>
        <time>2023-08-29T07:19:47Z</time>
      </trkpt>
      <trkpt lat="45.52534" lon="5.44331">
        <ele>498</ele>
        <time>2023-08-29T07:19:48Z</time>
      </trkpt>
      <trkpt lat="45.52534" lon="5.44336">
        <ele>498.4</ele>
        <time>2023-08-29T07:19:49Z</time>
      </trkpt>
      <trkpt lat="45.52534" lon="5.44341">
        <ele>498.6</ele>
        <time>2023-08-29T07:19:50Z</time>
      </trkpt>
      <trkpt lat="45.52534" lon="5.44345">
        <ele>498.8</ele>
        <time>2023-08-29T07:19:51Z</time>
      </trkpt>
      <trkpt lat="45.52534" lon="5.44349">
        <ele>499</ele>
        <time>2023-08-29T07:19:52Z</time>
      </trkpt>
      <trkpt lat="45.52534" lon="5.44354">
        <ele>499.2</ele>
        <time>2023-08-29T07:19:53Z</time>
      </trkpt>
      <trkpt lat="45.52535" lon="5.44359">
        <ele>499.2</ele>
        <time>2023-08-29T07:19:54Z</time>
      </trkpt>
      <trkpt lat="45.52535" lon="5.44363">
        <ele>499.4</ele>
        <time>2023-08-29T07:19:55Z</time>
      </trkpt>
      <trkpt lat="45.52536" lon="5.44367">
        <ele>499.8</ele>
        <time>2023-08-29T07:19:56Z</time>
      </trkpt>
      <trkpt lat="45.52536" lon="5.44372">
        <ele>499.8</ele>
        <time>2023-08-29T07:19:57Z</time>
      </trkpt>
      <trkpt lat="45.52536" lon="5.44376">
        <ele>500</ele>
        <time>2023-08-29T07:19:58Z</time>
      </trkpt>
      <trkpt lat="45.52537" lon="5.4438">
        <ele>500.2</ele>
        <time>2023-08-29T07:19:59Z</time>
      </trkpt>
      <trkpt lat="45.52537" lon="5.44384">
        <ele>500.4</ele>
        <time>2023-08-29T07:20:00Z</time>
      </trkpt>
      <trkpt lat="45.52537" lon="5.44389">
        <ele>500.8</ele>
        <time>2023-08-29T07:20:01Z</time>
      </trkpt>
      <trkpt lat="45.52537" lon="5.44393">
        <ele>500.8</ele>
        <time>2023-08-29T07:20:02Z</time>
      </trkpt>
      <trkpt lat="45.52537" lon="5.44396">
        <ele>501</ele>
        <time>2023-08-29T07:20:03Z</time>
      </trkpt>
      <trkpt lat="45.52538" lon="5.44401">
        <ele>501.2</ele>
        <time>2023-08-29T07:20:04Z</time>
      </trkpt>
      <trkpt lat="45.52539" lon="5.44406">
        <ele>501.4</ele>
        <time>2023-08-29T07:20:05Z</time>
      </trkpt>
      <trkpt lat="45.52539" lon="5.4441">
        <ele>501.4</ele>
        <time>2023-08-29T07:20:06Z</time>
      </trkpt>
      <trkpt lat="45.5254" lon="5.44413">
        <ele>501.6</ele>
        <time>2023-08-29T07:20:07Z</time>
      </trkpt>
      <trkpt lat="45.5254" lon="5.44418">
        <ele>501.8</ele>
        <time>2023-08-29T07:20:08Z</time>
      </trkpt>
      <trkpt lat="45.52541" lon="5.44422">
        <ele>502.2</ele>
        <time>2023-08-29T07:20:09Z</time>
      </trkpt>
      <trkpt lat="45.52541" lon="5.44426">
        <ele>502.4</ele>
        <time>2023-08-29T07:20:10Z</time>
      </trkpt>
      <trkpt lat="45.52542" lon="5.4443">
        <ele>502.6</ele>
        <time>2023-08-29T07:20:11Z</time>
      </trkpt>
      <trkpt lat="45.52542" lon="5.44435">
        <ele>502.8</ele>
        <time>2023-08-29T07:20:12Z</time>
      </trkpt>
      <trkpt lat="45.52542" lon="5.44439">
        <ele>502.8</ele>
        <time>2023-08-29T07:20:13Z</time>
      </trkpt>
      <trkpt lat="45.52542" lon="5.44443">
        <ele>503</ele>
        <time>2023-08-29T07:20:14Z</time>
      </trkpt>
      <trkpt lat="45.52543" lon="5.44447">
        <ele>503.2</ele>
        <time>2023-08-29T07:20:15Z</time>
      </trkpt>
      <trkpt lat="45.52543" lon="5.44451">
        <ele>503.6</ele>
        <time>2023-08-29T07:20:16Z</time>
      </trkpt>
      <trkpt lat="45.52543" lon="5.44455">
        <ele>503.6</ele>
        <time>2023-08-29T07:20:17Z</time>
      </trkpt>
      <trkpt lat="45.52543" lon="5.4446">
        <ele>504</ele>
        <time>2023-08-29T07:20:18Z</time>
      </trkpt>
      <trkpt lat="45.52544" lon="5.44464">
        <ele>504</ele>
        <time>2023-08-29T07:20:19Z</time>
      </trkpt>
      <trkpt lat="45.52544" lon="5.44469">
        <ele>504.2</ele>
        <time>2023-08-29T07:20:20Z</time>
      </trkpt>
      <trkpt lat="45.52544" lon="5.44472">
        <ele>504.2</ele>
        <time>2023-08-29T07:20:21Z</time>
      </trkpt>
      <trkpt lat="45.52544" lon="5.44476">
        <ele>504.6</ele>
        <time>2023-08-29T07:20:22Z</time>
      </trkpt>
      <trkpt lat="45.52544" lon="5.44481">
        <ele>504.8</ele>
        <time>2023-08-29T07:20:23Z</time>
      </trkpt>
      <trkpt lat="45.52544" lon="5.44485">
        <ele>504.8</ele>
        <time>2023-08-29T07:20:24Z</time>
      </trkpt>
      <trkpt lat="45.52544" lon="5.44489">
        <ele>505.2</ele>
        <time>2023-08-29T07:20:25Z</time>
      </trkpt>
      <trkpt lat="45.52545" lon="5.44493">
        <ele>505.4</ele>
        <time>2023-08-29T07:20:26Z</time>
      </trkpt>
      <trkpt lat="45.52545" lon="5.44497">
        <ele>505.6</ele>
        <time>2023-08-29T07:20:27Z</time>
      </trkpt>
      <trkpt lat="45.52545" lon="5.44501">
        <ele>505.8</ele>
        <time>2023-08-29T07:20:28Z</time>
      </trkpt>
      <trkpt lat="45.52544" lon="5.44506">
        <ele>506</ele>
        <time>2023-08-29T07:20:29Z</time>
      </trkpt>
      <trkpt lat="45.52544" lon="5.4451">
        <ele>506.2</ele>
        <time>2023-08-29T07:20:30Z</time>
      </trkpt>
      <trkpt lat="45.52543" lon="5.44515">
        <ele>506.4</ele>
        <time>2023-08-29T07:20:31Z</time>
      </trkpt>
      <trkpt lat="45.52542" lon="5.44519">
        <ele>506.6</ele>
        <time>2023-08-29T07:20:32Z</time>
      </trkpt>
      <trkpt lat="45.52541" lon="5.44523">
        <ele>506.6</ele>
        <time>2023-08-29T07:20:33Z</time>
      </trkpt>
      <trkpt lat="45.5254" lon="5.44527">
        <ele>506.8</ele>
        <time>2023-08-29T07:20:34Z</time>
      </trkpt>
      <trkpt lat="45.52539" lon="5.44531">
        <ele>507</ele>
        <time>2023-08-29T07:20:35Z</time>
      </trkpt>
      <trkpt lat="45.52537" lon="5.44534">
        <ele>507.2</ele>
        <time>2023-08-29T07:20:36Z</time>
      </trkpt>
      <trkpt lat="45.52535" lon="5.44538">
        <ele>507.4</ele>
        <time>2023-08-29T07:20:37Z</time>
      </trkpt>
      <trkpt lat="45.52534" lon="5.44541">
        <ele>507.6</ele>
        <time>2023-08-29T07:20:38Z</time>
      </trkpt>
      <trkpt lat="45.52533" lon="5.44544">
        <ele>508</ele>
        <time>2023-08-29T07:20:39Z</time>
      </trkpt>
      <trkpt lat="45.52531" lon="5.44548">
        <ele>508</ele>
        <time>2023-08-29T07:20:40Z</time>
      </trkpt>
      <trkpt lat="45.52529" lon="5.44552">
        <ele>508.2</ele>
        <time>2023-08-29T07:20:41Z</time>
      </trkpt>
      <trkpt lat="45.52528" lon="5.44554">
        <ele>508.4</ele>
        <time>2023-08-29T07:20:42Z</time>
      </trkpt>
      <trkpt lat="45.52526" lon="5.44557">
        <ele>508.6</ele>
        <time>2023-08-29T07:20:43Z</time>
      </trkpt>
      <trkpt lat="45.52524" lon="5.44561">
        <ele>508.8</ele>
        <time>2023-08-29T07:20:44Z</time>
      </trkpt>
      <trkpt lat="45.52521" lon="5.44565">
        <ele>509.2</ele>
        <time>2023-08-29T07:20:45Z</time>
      </trkpt>
      <trkpt lat="45.5252" lon="5.44569">
        <ele>509.4</ele>
        <time>2023-08-29T07:20:46Z</time>
      </trkpt>
      <trkpt lat="45.52518" lon="5.44572">
        <ele>509.6</ele>
        <time>2023-08-29T07:20:47Z</time>
      </trkpt>
      <trkpt lat="45.52516" lon="5.44576">
        <ele>509.6</ele>
        <time>2023-08-29T07:20:48Z</time>
      </trkpt>
      <trkpt lat="45.52514" lon="5.4458">
        <ele>509.6</ele>
        <time>2023-08-29T07:20:49Z</time>
      </trkpt>
      <trkpt lat="45.52513" lon="5.44583">
        <ele>509.8</ele>
        <time>2023-08-29T07:20:50Z</time>
      </trkpt>
      <trkpt lat="45.52511" lon="5.44586">
        <ele>510</ele>
        <time>2023-08-29T07:20:51Z</time>
      </trkpt>
      <trkpt lat="45.5251" lon="5.44589">
        <ele>510.2</ele>
        <time>2023-08-29T07:20:52Z</time>
      </trkpt>
      <trkpt lat="45.52509" lon="5.44593">
        <ele>510.4</ele>
        <time>2023-08-29T07:20:53Z</time>
      </trkpt>
      <trkpt lat="45.52508" lon="5.44596">
        <ele>510.6</ele>
        <time>2023-08-29T07:20:54Z</time>
      </trkpt>
      <trkpt lat="45.52506" lon="5.446">
        <ele>510.8</ele>
        <time>2023-08-29T07:20:55Z</time>
      </trkpt>
      <trkpt lat="45.52505" lon="5.44603">
        <ele>511</ele>
        <time>2023-08-29T07:20:56Z</time>
      </trkpt>
      <trkpt lat="45.52503" lon="5.44607">
        <ele>511.2</ele>
        <time>2023-08-29T07:20:57Z</time>
      </trkpt>
      <trkpt lat="45.52502" lon="5.4461">
        <ele>511.2</ele>
        <time>2023-08-29T07:20:58Z</time>
      </trkpt>
      <trkpt lat="45.52501" lon="5.44614">
        <ele>511.4</ele>
        <time>2023-08-29T07:20:59Z</time>
      </trkpt>
      <trkpt lat="45.52499" lon="5.44618">
        <ele>511.6</ele>
        <time>2023-08-29T07:21:00Z</time>
      </trkpt>
      <trkpt lat="45.52498" lon="5.44622">
        <ele>511.6</ele>
        <time>2023-08-29T07:21:01Z</time>
      </trkpt>
      <trkpt lat="45.52497" lon="5.44625">
        <ele>512</ele>
        <time>2023-08-29T07:21:02Z</time>
      </trkpt>
      <trkpt lat="45.52496" lon="5.4463">
        <ele>512.2</ele>
        <time>2023-08-29T07:21:03Z</time>
      </trkpt>
      <trkpt lat="45.52495" lon="5.44633">
        <ele>512.4</ele>
        <time>2023-08-29T07:21:04Z</time>
      </trkpt>
      <trkpt lat="45.52493" lon="5.44637">
        <ele>512.6</ele>
        <time>2023-08-29T07:21:05Z</time>
      </trkpt>
      <trkpt lat="45.52492" lon="5.44641">
        <ele>512.8</ele>
        <time>2023-08-29T07:21:06Z</time>
      </trkpt>
      <trkpt lat="45.52491" lon="5.44645">
        <ele>513</ele>
        <time>2023-08-29T07:21:07Z</time>
      </trkpt>
      <trkpt lat="45.5249" lon="5.44649">
        <ele>513.2</ele>
        <time>2023-08-29T07:21:08Z</time>
      </trkpt>
      <trkpt lat="45.52488" lon="5.44652">
        <ele>513.2</ele>
        <time>2023-08-29T07:21:09Z</time>
      </trkpt>
      <trkpt lat="45.52487" lon="5.44656">
        <ele>513.6</ele>
        <time>2023-08-29T07:21:10Z</time>
      </trkpt>
      <trkpt lat="45.52486" lon="5.4466">
        <ele>513.6</ele>
        <time>2023-08-29T07:21:11Z</time>
      </trkpt>
      <trkpt lat="45.52485" lon="5.44664">
        <ele>513.6</ele>
        <time>2023-08-29T07:21:12Z</time>
      </trkpt>
      <trkpt lat="45.52483" lon="5.44668">
        <ele>514</ele>
        <time>2023-08-29T07:21:13Z</time>
      </trkpt>
      <trkpt lat="45.52482" lon="5.44672">
        <ele>514</ele>
        <time>2023-08-29T07:21:14Z</time>
      </trkpt>
      <trkpt lat="45.52481" lon="5.44676">
        <ele>514.2</ele>
        <time>2023-08-29T07:21:15Z</time>
      </trkpt>
      <trkpt lat="45.5248" lon="5.4468">
        <ele>514.4</ele>
        <time>2023-08-29T07:21:16Z</time>
      </trkpt>
      <trkpt lat="45.52478" lon="5.44684">
        <ele>514.6</ele>
        <time>2023-08-29T07:21:17Z</time>
      </trkpt>
      <trkpt lat="45.52477" lon="5.44688">
        <ele>514.8</ele>
        <time>2023-08-29T07:21:18Z</time>
      </trkpt>
      <trkpt lat="45.52476" lon="5.44692">
        <ele>515</ele>
        <time>2023-08-29T07:21:19Z</time>
      </trkpt>
      <trkpt lat="45.52474" lon="5.44697">
        <ele>515.2</ele>
        <time>2023-08-29T07:21:20Z</time>
      </trkpt>
      <trkpt lat="45.52473" lon="5.44701">
        <ele>515.2</ele>
        <time>2023-08-29T07:21:21Z</time>
      </trkpt>
      <trkpt lat="45.52472" lon="5.44705">
        <ele>515.4</ele>
        <time>2023-08-29T07:21:22Z</time>
      </trkpt>
      <trkpt lat="45.52471" lon="5.44709">
        <ele>515.6</ele>
        <time>2023-08-29T07:21:23Z</time>
      </trkpt>
      <trkpt lat="45.52469" lon="5.44714">
        <ele>515.6</ele>
        <time>2023-08-29T07:21:24Z</time>
      </trkpt>
      <trkpt lat="45.52468" lon="5.44717">
        <ele>515.6</ele>
        <time>2023-08-29T07:21:25Z</time>
      </trkpt>
      <trkpt lat="45.52468" lon="5.44721">
        <ele>516</ele>
        <time>2023-08-29T07:21:26Z</time>
      </trkpt>
      <trkpt lat="45.52467" lon="5.44726">
        <ele>516</ele>
        <time>2023-08-29T07:21:27Z</time>
      </trkpt>
      <trkpt lat="45.52465" lon="5.4473">
        <ele>516.2</ele>
        <time>2023-08-29T07:21:28Z</time>
      </trkpt>
      <trkpt lat="45.52463" lon="5.44735">
        <ele>516.4</ele>
        <time>2023-08-29T07:21:29Z</time>
      </trkpt>
      <trkpt lat="45.52462" lon="5.44739">
        <ele>516.4</ele>
        <time>2023-08-29T07:21:30Z</time>
      </trkpt>
      <trkpt lat="45.52461" lon="5.44743">
        <ele>516.6</ele>
        <time>2023-08-29T07:21:31Z</time>
      </trkpt>
      <trkpt lat="45.52459" lon="5.44748">
        <ele>517</ele>
        <time>2023-08-29T07:21:32Z</time>
      </trkpt>
      <trkpt lat="45.52458" lon="5.44751">
        <ele>517</ele>
        <time>2023-08-29T07:21:33Z</time>
      </trkpt>
      <trkpt lat="45.52457" lon="5.44755">
        <ele>517.2</ele>
        <time>2023-08-29T07:21:34Z</time>
      </trkpt>
      <trkpt lat="45.52456" lon="5.4476">
        <ele>517.2</ele>
        <time>2023-08-29T07:21:35Z</time>
      </trkpt>
      <trkpt lat="45.52454" lon="5.44764">
        <ele>517.6</ele>
        <time>2023-08-29T07:21:36Z</time>
      </trkpt>
      <trkpt lat="45.52453" lon="5.44768">
        <ele>517.6</ele>
        <time>2023-08-29T07:21:37Z</time>
      </trkpt>
      <trkpt lat="45.52452" lon="5.44772">
        <ele>517.8</ele>
        <time>2023-08-29T07:21:38Z</time>
      </trkpt>
      <trkpt lat="45.52451" lon="5.44776">
        <ele>518</ele>
        <time>2023-08-29T07:21:39Z</time>
      </trkpt>
      <trkpt lat="45.52449" lon="5.4478">
        <ele>518</ele>
        <time>2023-08-29T07:21:40Z</time>
      </trkpt>
      <trkpt lat="45.52448" lon="5.44784">
        <ele>518.2</ele>
        <time>2023-08-29T07:21:41Z</time>
      </trkpt>
      <trkpt lat="45.52446" lon="5.44788">
        <ele>518.2</ele>
        <time>2023-08-29T07:21:42Z</time>
      </trkpt>
      <trkpt lat="45.52445" lon="5.44792">
        <ele>518.4</ele>
        <time>2023-08-29T07:21:43Z</time>
      </trkpt>
      <trkpt lat="45.52443" lon="5.44796">
        <ele>518.4</ele>
        <time>2023-08-29T07:21:44Z</time>
      </trkpt>
      <trkpt lat="45.52442" lon="5.44801">
        <ele>518.6</ele>
        <time>2023-08-29T07:21:45Z</time>
      </trkpt>
      <trkpt lat="45.52441" lon="5.44805">
        <ele>518.8</ele>
        <time>2023-08-29T07:21:46Z</time>
      </trkpt>
      <trkpt lat="45.5244" lon="5.4481">
        <ele>518.8</ele>
        <time>2023-08-29T07:21:47Z</time>
      </trkpt>
      <trkpt lat="45.52438" lon="5.44814">
        <ele>519</ele>
        <time>2023-08-29T07:21:48Z</time>
      </trkpt>
      <trkpt lat="45.52437" lon="5.44818">
        <ele>519</ele>
        <time>2023-08-29T07:21:49Z</time>
      </trkpt>
      <trkpt lat="45.52436" lon="5.44823">
        <ele>519.2</ele>
        <time>2023-08-29T07:21:50Z</time>
      </trkpt>
      <trkpt lat="45.52434" lon="5.44827">
        <ele>519.4</ele>
        <time>2023-08-29T07:21:51Z</time>
      </trkpt>
      <trkpt lat="45.52432" lon="5.44832">
        <ele>519.4</ele>
        <time>2023-08-29T07:21:52Z</time>
      </trkpt>
      <trkpt lat="45.52431" lon="5.44836">
        <ele>519.6</ele>
        <time>2023-08-29T07:21:53Z</time>
      </trkpt>
      <trkpt lat="45.52429" lon="5.4484">
        <ele>519.8</ele>
        <time>2023-08-29T07:21:54Z</time>
      </trkpt>
      <trkpt lat="45.52428" lon="5.44844">
        <ele>520</ele>
        <time>2023-08-29T07:21:55Z</time>
      </trkpt>
      <trkpt lat="45.52427" lon="5.44848">
        <ele>520.4</ele>
        <time>2023-08-29T07:21:56Z</time>
      </trkpt>
      <trkpt lat="45.52425" lon="5.44852">
        <ele>520.6</ele>
        <time>2023-08-29T07:21:57Z</time>
      </trkpt>
      <trkpt lat="45.52424" lon="5.44855">
        <ele>520.6</ele>
        <time>2023-08-29T07:21:58Z</time>
      </trkpt>
      <trkpt lat="45.52422" lon="5.4486">
        <ele>520.8</ele>
        <time>2023-08-29T07:21:59Z</time>
      </trkpt>
      <trkpt lat="45.5242" lon="5.44864">
        <ele>520.8</ele>
        <time>2023-08-29T07:22:00Z</time>
      </trkpt>
      <trkpt lat="45.52419" lon="5.44868">
        <ele>521</ele>
        <time>2023-08-29T07:22:01Z</time>
      </trkpt>
      <trkpt lat="45.52418" lon="5.44872">
        <ele>521.2</ele>
        <time>2023-08-29T07:22:02Z</time>
      </trkpt>
      <trkpt lat="45.52416" lon="5.44876">
        <ele>521.2</ele>
        <time>2023-08-29T07:22:03Z</time>
      </trkpt>
      <trkpt lat="45.52415" lon="5.44881">
        <ele>521.4</ele>
        <time>2023-08-29T07:22:04Z</time>
      </trkpt>
      <trkpt lat="45.52413" lon="5.44885">
        <ele>521.6</ele>
        <time>2023-08-29T07:22:05Z</time>
      </trkpt>
      <trkpt lat="45.52411" lon="5.4489">
        <ele>521.6</ele>
        <time>2023-08-29T07:22:06Z</time>
      </trkpt>
      <trkpt lat="45.52409" lon="5.44893">
        <ele>521.6</ele>
        <time>2023-08-29T07:22:07Z</time>
      </trkpt>
      <trkpt lat="45.52408" lon="5.44897">
        <ele>521.8</ele>
        <time>2023-08-29T07:22:08Z</time>
      </trkpt>
      <trkpt lat="45.52406" lon="5.449">
        <ele>522</ele>
        <time>2023-08-29T07:22:09Z</time>
      </trkpt>
      <trkpt lat="45.52403" lon="5.44905">
        <ele>522</ele>
        <time>2023-08-29T07:22:10Z</time>
      </trkpt>
      <trkpt lat="45.52401" lon="5.44909">
        <ele>522.2</ele>
        <time>2023-08-29T07:22:11Z</time>
      </trkpt>
      <trkpt lat="45.52399" lon="5.44912">
        <ele>522.4</ele>
        <time>2023-08-29T07:22:12Z</time>
      </trkpt>
      <trkpt lat="45.52397" lon="5.44916">
        <ele>522.4</ele>
        <time>2023-08-29T07:22:13Z</time>
      </trkpt>
      <trkpt lat="45.52395" lon="5.44919">
        <ele>522.6</ele>
        <time>2023-08-29T07:22:14Z</time>
      </trkpt>
      <trkpt lat="45.52393" lon="5.44922">
        <ele>522.8</ele>
        <time>2023-08-29T07:22:15Z</time>
      </trkpt>
      <trkpt lat="45.52391" lon="5.44925">
        <ele>523</ele>
        <time>2023-08-29T07:22:16Z</time>
      </trkpt>
      <trkpt lat="45.52389" lon="5.44928">
        <ele>523.2</ele>
        <time>2023-08-29T07:22:17Z</time>
      </trkpt>
      <trkpt lat="45.52388" lon="5.44932">
        <ele>523.4</ele>
        <time>2023-08-29T07:22:18Z</time>
      </trkpt>
      <trkpt lat="45.52387" lon="5.44936">
        <ele>523.4</ele>
        <time>2023-08-29T07:22:19Z</time>
      </trkpt>
      <trkpt lat="45.52386" lon="5.4494">
        <ele>523.8</ele>
        <time>2023-08-29T07:22:20Z</time>
      </trkpt>
      <trkpt lat="45.52385" lon="5.44944">
        <ele>524</ele>
        <time>2023-08-29T07:22:21Z</time>
      </trkpt>
      <trkpt lat="45.52384" lon="5.44948">
        <ele>524</ele>
        <time>2023-08-29T07:22:22Z</time>
      </trkpt>
      <trkpt lat="45.52384" lon="5.44953">
        <ele>524.4</ele>
        <time>2023-08-29T07:22:23Z</time>
      </trkpt>
      <trkpt lat="45.52384" lon="5.44958">
        <ele>524.4</ele>
        <time>2023-08-29T07:22:24Z</time>
      </trkpt>
      <trkpt lat="45.52385" lon="5.44962">
        <ele>524.6</ele>
        <time>2023-08-29T07:22:25Z</time>
      </trkpt>
      <trkpt lat="45.52386" lon="5.44967">
        <ele>524.8</ele>
        <time>2023-08-29T07:22:26Z</time>
      </trkpt>
      <trkpt lat="45.52386" lon="5.44971">
        <ele>524.8</ele>
        <time>2023-08-29T07:22:27Z</time>
      </trkpt>
      <trkpt lat="45.52386" lon="5.44975">
        <ele>524.8</ele>
        <time>2023-08-29T07:22:28Z</time>
      </trkpt>
      <trkpt lat="45.52386" lon="5.44979">
        <ele>525</ele>
        <time>2023-08-29T07:22:29Z</time>
      </trkpt>
      <trkpt lat="45.52387" lon="5.44983">
        <ele>525</ele>
        <time>2023-08-29T07:22:30Z</time>
      </trkpt>
      <trkpt lat="45.52387" lon="5.44987">
        <ele>525.2</ele>
        <time>2023-08-29T07:22:31Z</time>
      </trkpt>
      <trkpt lat="45.52387" lon="5.44991">
        <ele>525.2</ele>
        <time>2023-08-29T07:22:32Z</time>
      </trkpt>
      <trkpt lat="45.52388" lon="5.44994">
        <ele>525.2</ele>
        <time>2023-08-29T07:22:33Z</time>
      </trkpt>
      <trkpt lat="45.52389" lon="5.44999">
        <ele>525.4</ele>
        <time>2023-08-29T07:22:34Z</time>
      </trkpt>
      <trkpt lat="45.52389" lon="5.45003">
        <ele>525.4</ele>
        <time>2023-08-29T07:22:35Z</time>
      </trkpt>
      <trkpt lat="45.52389" lon="5.45006">
        <ele>525.4</ele>
        <time>2023-08-29T07:22:36Z</time>
      </trkpt>
      <trkpt lat="45.52389" lon="5.45011">
        <ele>525.4</ele>
        <time>2023-08-29T07:22:37Z</time>
      </trkpt>
      <trkpt lat="45.5239" lon="5.45016">
        <ele>525.6</ele>
        <time>2023-08-29T07:22:38Z</time>
      </trkpt>
      <trkpt lat="45.5239" lon="5.4502">
        <ele>525.8</ele>
        <time>2023-08-29T07:22:39Z</time>
      </trkpt>
      <trkpt lat="45.52391" lon="5.45025">
        <ele>525.8</ele>
        <time>2023-08-29T07:22:40Z</time>
      </trkpt>
      <trkpt lat="45.52392" lon="5.45031">
        <ele>525.8</ele>
        <time>2023-08-29T07:22:41Z</time>
      </trkpt>
      <trkpt lat="45.52393" lon="5.45036">
        <ele>525.8</ele>
        <time>2023-08-29T07:22:42Z</time>
      </trkpt>
      <trkpt lat="45.52394" lon="5.45041">
        <ele>526</ele>
        <time>2023-08-29T07:22:43Z</time>
      </trkpt>
      <trkpt lat="45.52394" lon="5.45045">
        <ele>526.2</ele>
        <time>2023-08-29T07:22:44Z</time>
      </trkpt>
      <trkpt lat="45.52395" lon="5.45051">
        <ele>526.4</ele>
        <time>2023-08-29T07:22:45Z</time>
      </trkpt>
      <trkpt lat="45.52395" lon="5.45056">
        <ele>526.6</ele>
        <time>2023-08-29T07:22:46Z</time>
      </trkpt>
      <trkpt lat="45.52395" lon="5.4506">
        <ele>526.8</ele>
        <time>2023-08-29T07:22:47Z</time>
      </trkpt>
      <trkpt lat="45.52396" lon="5.45064">
        <ele>527</ele>
        <time>2023-08-29T07:22:48Z</time>
      </trkpt>
      <trkpt lat="45.52396" lon="5.45068">
        <ele>527</ele>
        <time>2023-08-29T07:22:49Z</time>
      </trkpt>
      <trkpt lat="45.52397" lon="5.45073">
        <ele>527</ele>
        <time>2023-08-29T07:22:50Z</time>
      </trkpt>
      <trkpt lat="45.52397" lon="5.45077">
        <ele>527.2</ele>
        <time>2023-08-29T07:22:51Z</time>
      </trkpt>
      <trkpt lat="45.52398" lon="5.45081">
        <ele>527.4</ele>
        <time>2023-08-29T07:22:52Z</time>
      </trkpt>
      <trkpt lat="45.52398" lon="5.45087">
        <ele>527.4</ele>
        <time>2023-08-29T07:22:53Z</time>
      </trkpt>
      <trkpt lat="45.52399" lon="5.45092">
        <ele>527.6</ele>
        <time>2023-08-29T07:22:54Z</time>
      </trkpt>
      <trkpt lat="45.52399" lon="5.45097">
        <ele>527.6</ele>
        <time>2023-08-29T07:22:55Z</time>
      </trkpt>
      <trkpt lat="45.524" lon="5.45102">
        <ele>527.8</ele>
        <time>2023-08-29T07:22:56Z</time>
      </trkpt>
      <trkpt lat="45.52401" lon="5.45107">
        <ele>527.8</ele>
        <time>2023-08-29T07:22:57Z</time>
      </trkpt>
      <trkpt lat="45.52401" lon="5.45112">
        <ele>528</ele>
        <time>2023-08-29T07:22:58Z</time>
      </trkpt>
      <trkpt lat="45.52401" lon="5.45117">
        <ele>528.2</ele>
        <time>2023-08-29T07:22:59Z</time>
      </trkpt>
      <trkpt lat="45.52402" lon="5.45123">
        <ele>528.2</ele>
        <time>2023-08-29T07:23:00Z</time>
      </trkpt>
      <trkpt lat="45.52402" lon="5.45128">
        <ele>528.2</ele>
        <time>2023-08-29T07:23:01Z</time>
      </trkpt>
      <trkpt lat="45.52403" lon="5.45133">
        <ele>528.4</ele>
        <time>2023-08-29T07:23:02Z</time>
      </trkpt>
      <trkpt lat="45.52403" lon="5.45138">
        <ele>528.6</ele>
        <time>2023-08-29T07:23:03Z</time>
      </trkpt>
      <trkpt lat="45.52404" lon="5.45143">
        <ele>528.6</ele>
        <time>2023-08-29T07:23:04Z</time>
      </trkpt>
      <trkpt lat="45.52404" lon="5.45148">
        <ele>528.6</ele>
        <time>2023-08-29T07:23:05Z</time>
      </trkpt>
      <trkpt lat="45.52405" lon="5.45152">
        <ele>528.8</ele>
        <time>2023-08-29T07:23:06Z</time>
      </trkpt>
      <trkpt lat="45.52405" lon="5.45157">
        <ele>528.8</ele>
        <time>2023-08-29T07:23:07Z</time>
      </trkpt>
      <trkpt lat="45.52406" lon="5.45162">
        <ele>529</ele>
        <time>2023-08-29T07:23:08Z</time>
      </trkpt>
      <trkpt lat="45.52407" lon="5.45167">
        <ele>529</ele>
        <time>2023-08-29T07:23:09Z</time>
      </trkpt>
      <trkpt lat="45.52407" lon="5.45172">
        <ele>529</ele>
        <time>2023-08-29T07:23:10Z</time>
      </trkpt>
      <trkpt lat="45.52408" lon="5.45177">
        <ele>529.2</ele>
        <time>2023-08-29T07:23:11Z</time>
      </trkpt>
      <trkpt lat="45.52409" lon="5.45181">
        <ele>529.2</ele>
        <time>2023-08-29T07:23:12Z</time>
      </trkpt>
      <trkpt lat="45.5241" lon="5.45186">
        <ele>529.2</ele>
        <time>2023-08-29T07:23:13Z</time>
      </trkpt>
      <trkpt lat="45.52411" lon="5.45191">
        <ele>529.4</ele>
        <time>2023-08-29T07:23:14Z</time>
      </trkpt>
      <trkpt lat="45.52412" lon="5.45197">
        <ele>529.6</ele>
        <time>2023-08-29T07:23:15Z</time>
      </trkpt>
      <trkpt lat="45.52412" lon="5.45202">
        <ele>529.8</ele>
        <time>2023-08-29T07:23:16Z</time>
      </trkpt>
      <trkpt lat="45.52413" lon="5.45207">
        <ele>529.8</ele>
        <time>2023-08-29T07:23:17Z</time>
      </trkpt>
      <trkpt lat="45.52413" lon="5.45212">
        <ele>530</ele>
        <time>2023-08-29T07:23:18Z</time>
      </trkpt>
      <trkpt lat="45.52414" lon="5.45217">
        <ele>530</ele>
        <time>2023-08-29T07:23:19Z</time>
      </trkpt>
      <trkpt lat="45.52415" lon="5.45223">
        <ele>530.2</ele>
        <time>2023-08-29T07:23:20Z</time>
      </trkpt>
      <trkpt lat="45.52415" lon="5.45228">
        <ele>530.4</ele>
        <time>2023-08-29T07:23:21Z</time>
      </trkpt>
      <trkpt lat="45.52415" lon="5.45234">
        <ele>530.4</ele>
        <time>2023-08-29T07:23:22Z</time>
      </trkpt>
      <trkpt lat="45.52416" lon="5.4524">
        <ele>530.8</ele>
        <time>2023-08-29T07:23:23Z</time>
      </trkpt>
      <trkpt lat="45.52416" lon="5.45246">
        <ele>530.8</ele>
        <time>2023-08-29T07:23:24Z</time>
      </trkpt>
      <trkpt lat="45.52417" lon="5.45251">
        <ele>530.8</ele>
        <time>2023-08-29T07:23:25Z</time>
      </trkpt>
      <trkpt lat="45.52417" lon="5.45257">
        <ele>531</ele>
        <time>2023-08-29T07:23:26Z</time>
      </trkpt>
      <trkpt lat="45.52418" lon="5.45262">
        <ele>531.2</ele>
        <time>2023-08-29T07:23:27Z</time>
      </trkpt>
      <trkpt lat="45.52419" lon="5.45268">
        <ele>531.4</ele>
        <time>2023-08-29T07:23:28Z</time>
      </trkpt>
      <trkpt lat="45.52419" lon="5.45273">
        <ele>531.4</ele>
        <time>2023-08-29T07:23:29Z</time>
      </trkpt>
      <trkpt lat="45.5242" lon="5.45277">
        <ele>531.8</ele>
        <time>2023-08-29T07:23:30Z</time>
      </trkpt>
      <trkpt lat="45.52421" lon="5.45281">
        <ele>531.8</ele>
        <time>2023-08-29T07:23:31Z</time>
      </trkpt>
      <trkpt lat="45.52422" lon="5.45287">
        <ele>532</ele>
        <time>2023-08-29T07:23:32Z</time>
      </trkpt>
      <trkpt lat="45.52423" lon="5.45292">
        <ele>532</ele>
        <time>2023-08-29T07:23:33Z</time>
      </trkpt>
      <trkpt lat="45.52423" lon="5.45298">
        <ele>532.2</ele>
        <time>2023-08-29T07:23:34Z</time>
      </trkpt>
      <trkpt lat="45.52424" lon="5.45302">
        <ele>532.2</ele>
        <time>2023-08-29T07:23:35Z</time>
      </trkpt>
      <trkpt lat="45.52424" lon="5.45308">
        <ele>532.4</ele>
        <time>2023-08-29T07:23:36Z</time>
      </trkpt>
      <trkpt lat="45.52424" lon="5.45313">
        <ele>532.4</ele>
        <time>2023-08-29T07:23:37Z</time>
      </trkpt>
      <trkpt lat="45.52425" lon="5.45318">
        <ele>532.4</ele>
        <time>2023-08-29T07:23:38Z</time>
      </trkpt>
      <trkpt lat="45.52425" lon="5.45323">
        <ele>532.6</ele>
        <time>2023-08-29T07:23:39Z</time>
      </trkpt>
      <trkpt lat="45.52426" lon="5.45329">
        <ele>532.6</ele>
        <time>2023-08-29T07:23:40Z</time>
      </trkpt>
      <trkpt lat="45.52426" lon="5.45334">
        <ele>532.6</ele>
        <time>2023-08-29T07:23:41Z</time>
      </trkpt>
      <trkpt lat="45.52427" lon="5.45339">
        <ele>532.6</ele>
        <time>2023-08-29T07:23:42Z</time>
      </trkpt>
      <trkpt lat="45.52427" lon="5.45344">
        <ele>532.8</ele>
        <time>2023-08-29T07:23:43Z</time>
      </trkpt>
      <trkpt lat="45.52428" lon="5.45349">
        <ele>532.8</ele>
        <time>2023-08-29T07:23:44Z</time>
      </trkpt>
      <trkpt lat="45.52429" lon="5.45355">
        <ele>532.8</ele>
        <time>2023-08-29T07:23:45Z</time>
      </trkpt>
      <trkpt lat="45.52429" lon="5.45359">
        <ele>532.8</ele>
        <time>2023-08-29T07:23:46Z</time>
      </trkpt>
      <trkpt lat="45.5243" lon="5.45365">
        <ele>532.8</ele>
        <time>2023-08-29T07:23:47Z</time>
      </trkpt>
      <trkpt lat="45.52431" lon="5.4537">
        <ele>532.8</ele>
        <time>2023-08-29T07:23:48Z</time>
      </trkpt>
      <trkpt lat="45.52431" lon="5.45375">
        <ele>532.8</ele>
        <time>2023-08-29T07:23:49Z</time>
      </trkpt>
      <trkpt lat="45.52433" lon="5.4538">
        <ele>532.8</ele>
        <time>2023-08-29T07:23:50Z</time>
      </trkpt>
      <trkpt lat="45.52433" lon="5.45385">
        <ele>532.6</ele>
        <time>2023-08-29T07:23:51Z</time>
      </trkpt>
      <trkpt lat="45.52433" lon="5.45391">
        <ele>532.6</ele>
        <time>2023-08-29T07:23:52Z</time>
      </trkpt>
      <trkpt lat="45.52434" lon="5.45397">
        <ele>532.6</ele>
        <time>2023-08-29T07:23:53Z</time>
      </trkpt>
      <trkpt lat="45.52434" lon="5.45403">
        <ele>532.6</ele>
        <time>2023-08-29T07:23:54Z</time>
      </trkpt>
      <trkpt lat="45.52435" lon="5.45408">
        <ele>532.6</ele>
        <time>2023-08-29T07:23:55Z</time>
      </trkpt>
      <trkpt lat="45.52436" lon="5.45414">
        <ele>532.6</ele>
        <time>2023-08-29T07:23:56Z</time>
      </trkpt>
      <trkpt lat="45.52437" lon="5.4542">
        <ele>532.4</ele>
        <time>2023-08-29T07:23:57Z</time>
      </trkpt>
      <trkpt lat="45.52438" lon="5.45425">
        <ele>532.4</ele>
        <time>2023-08-29T07:23:58Z</time>
      </trkpt>
      <trkpt lat="45.52439" lon="5.45431">
        <ele>532.4</ele>
        <time>2023-08-29T07:23:59Z</time>
      </trkpt>
      <trkpt lat="45.52439" lon="5.45437">
        <ele>532.2</ele>
        <time>2023-08-29T07:24:00Z</time>
      </trkpt>
      <trkpt lat="45.52439" lon="5.45444">
        <ele>532.2</ele>
        <time>2023-08-29T07:24:01Z</time>
      </trkpt>
      <trkpt lat="45.52439" lon="5.4545">
        <ele>532.2</ele>
        <time>2023-08-29T07:24:02Z</time>
      </trkpt>
      <trkpt lat="45.5244" lon="5.45457">
        <ele>532.2</ele>
        <time>2023-08-29T07:24:03Z</time>
      </trkpt>
      <trkpt lat="45.5244" lon="5.45463">
        <ele>532.2</ele>
        <time>2023-08-29T07:24:04Z</time>
      </trkpt>
      <trkpt lat="45.52441" lon="5.45469">
        <ele>531.8</ele>
        <time>2023-08-29T07:24:05Z</time>
      </trkpt>
      <trkpt lat="45.52442" lon="5.45475">
        <ele>531.6</ele>
        <time>2023-08-29T07:24:06Z</time>
      </trkpt>
      <trkpt lat="45.52443" lon="5.45481">
        <ele>531.6</ele>
        <time>2023-08-29T07:24:07Z</time>
      </trkpt>
      <trkpt lat="45.52444" lon="5.45486">
        <ele>531.6</ele>
        <time>2023-08-29T07:24:08Z</time>
      </trkpt>
      <trkpt lat="45.52444" lon="5.4549">
        <ele>531.6</ele>
        <time>2023-08-29T07:24:09Z</time>
      </trkpt>
      <trkpt lat="45.52443" lon="5.45494">
        <ele>531.6</ele>
        <time>2023-08-29T07:24:10Z</time>
      </trkpt>
      <trkpt lat="45.52441" lon="5.45498">
        <ele>531.6</ele>
        <time>2023-08-29T07:24:11Z</time>
      </trkpt>
      <trkpt lat="45.52438" lon="5.45501">
        <ele>531.6</ele>
        <time>2023-08-29T07:24:12Z</time>
      </trkpt>
      <trkpt lat="45.52436" lon="5.45505">
        <ele>531.8</ele>
        <time>2023-08-29T07:24:13Z</time>
      </trkpt>
      <trkpt lat="45.52434" lon="5.45508">
        <ele>531.8</ele>
        <time>2023-08-29T07:24:14Z</time>
      </trkpt>
      <trkpt lat="45.52432" lon="5.45511">
        <ele>531.8</ele>
        <time>2023-08-29T07:24:15Z</time>
      </trkpt>
      <trkpt lat="45.5243" lon="5.45514">
        <ele>532</ele>
        <time>2023-08-29T07:24:16Z</time>
      </trkpt>
      <trkpt lat="45.52428" lon="5.45517">
        <ele>532</ele>
        <time>2023-08-29T07:24:17Z</time>
      </trkpt>
      <trkpt lat="45.52426" lon="5.45521">
        <ele>532</ele>
        <time>2023-08-29T07:24:18Z</time>
      </trkpt>
      <trkpt lat="45.52424" lon="5.45525">
        <ele>532.2</ele>
        <time>2023-08-29T07:24:19Z</time>
      </trkpt>
      <trkpt lat="45.52422" lon="5.45528">
        <ele>532.2</ele>
        <time>2023-08-29T07:24:20Z</time>
      </trkpt>
      <trkpt lat="45.5242" lon="5.45531">
        <ele>532.4</ele>
        <time>2023-08-29T07:24:21Z</time>
      </trkpt>
      <trkpt lat="45.52418" lon="5.45534">
        <ele>532.6</ele>
        <time>2023-08-29T07:24:22Z</time>
      </trkpt>
      <trkpt lat="45.52416" lon="5.45537">
        <ele>532.6</ele>
        <time>2023-08-29T07:24:23Z</time>
      </trkpt>
      <trkpt lat="45.52414" lon="5.45541">
        <ele>532.6</ele>
        <time>2023-08-29T07:24:24Z</time>
      </trkpt>
      <trkpt lat="45.52412" lon="5.45544">
        <ele>532.6</ele>
        <time>2023-08-29T07:24:25Z</time>
      </trkpt>
      <trkpt lat="45.5241" lon="5.45548">
        <ele>532.8</ele>
        <time>2023-08-29T07:24:26Z</time>
      </trkpt>
      <trkpt lat="45.52409" lon="5.45551">
        <ele>533</ele>
        <time>2023-08-29T07:24:27Z</time>
      </trkpt>
      <trkpt lat="45.52406" lon="5.45554">
        <ele>533</ele>
        <time>2023-08-29T07:24:28Z</time>
      </trkpt>
      <trkpt lat="45.52404" lon="5.45558">
        <ele>533.2</ele>
        <time>2023-08-29T07:24:29Z</time>
      </trkpt>
      <trkpt lat="45.52401" lon="5.45562">
        <ele>533.4</ele>
        <time>2023-08-29T07:24:30Z</time>
      </trkpt>
      <trkpt lat="45.52399" lon="5.45564">
        <ele>533.6</ele>
        <time>2023-08-29T07:24:31Z</time>
      </trkpt>
      <trkpt lat="45.52397" lon="5.45568">
        <ele>533.8</ele>
        <time>2023-08-29T07:24:32Z</time>
      </trkpt>
      <trkpt lat="45.52395" lon="5.45571">
        <ele>534</ele>
        <time>2023-08-29T07:24:33Z</time>
      </trkpt>
      <trkpt lat="45.52393" lon="5.45575">
        <ele>534</ele>
        <time>2023-08-29T07:24:34Z</time>
      </trkpt>
      <trkpt lat="45.52391" lon="5.45578">
        <ele>534.2</ele>
        <time>2023-08-29T07:24:35Z</time>
      </trkpt>
      <trkpt lat="45.52388" lon="5.45581">
        <ele>534.4</ele>
        <time>2023-08-29T07:24:36Z</time>
      </trkpt>
      <trkpt lat="45.52386" lon="5.45585">
        <ele>534.4</ele>
        <time>2023-08-29T07:24:37Z</time>
      </trkpt>
      <trkpt lat="45.52384" lon="5.45589">
        <ele>534.8</ele>
        <time>2023-08-29T07:24:38Z</time>
      </trkpt>
      <trkpt lat="45.52382" lon="5.45593">
        <ele>535</ele>
        <time>2023-08-29T07:24:39Z</time>
      </trkpt>
      <trkpt lat="45.52379" lon="5.45596">
        <ele>535</ele>
        <time>2023-08-29T07:24:40Z</time>
      </trkpt>
      <trkpt lat="45.52377" lon="5.45599">
        <ele>535.2</ele>
        <time>2023-08-29T07:24:41Z</time>
      </trkpt>
      <trkpt lat="45.52375" lon="5.45603">
        <ele>535.4</ele>
        <time>2023-08-29T07:24:42Z</time>
      </trkpt>
      <trkpt lat="45.52373" lon="5.45607">
        <ele>535.4</ele>
        <time>2023-08-29T07:24:43Z</time>
      </trkpt>
      <trkpt lat="45.5237" lon="5.45611">
        <ele>535.6</ele>
        <time>2023-08-29T07:24:44Z</time>
      </trkpt>
      <trkpt lat="45.52368" lon="5.45614">
        <ele>536</ele>
        <time>2023-08-29T07:24:45Z</time>
      </trkpt>
      <trkpt lat="45.52366" lon="5.45617">
        <ele>536.2</ele>
        <time>2023-08-29T07:24:46Z</time>
      </trkpt>
      <trkpt lat="45.52363" lon="5.45621">
        <ele>536.4</ele>
        <time>2023-08-29T07:24:47Z</time>
      </trkpt>
      <trkpt lat="45.52362" lon="5.45624">
        <ele>536.6</ele>
        <time>2023-08-29T07:24:48Z</time>
      </trkpt>
      <trkpt lat="45.52359" lon="5.45628">
        <ele>536.8</ele>
        <time>2023-08-29T07:24:49Z</time>
      </trkpt>
      <trkpt lat="45.52357" lon="5.45631">
        <ele>537</ele>
        <time>2023-08-29T07:24:50Z</time>
      </trkpt>
      <trkpt lat="45.52355" lon="5.45634">
        <ele>537</ele>
        <time>2023-08-29T07:24:51Z</time>
      </trkpt>
      <trkpt lat="45.52353" lon="5.45637">
        <ele>537.2</ele>
        <time>2023-08-29T07:24:52Z</time>
      </trkpt>
      <trkpt lat="45.52351" lon="5.4564">
        <ele>537.4</ele>
        <time>2023-08-29T07:24:53Z</time>
      </trkpt>
      <trkpt lat="45.52348" lon="5.45644">
        <ele>537.6</ele>
        <time>2023-08-29T07:24:54Z</time>
      </trkpt>
      <trkpt lat="45.52346" lon="5.45648">
        <ele>537.8</ele>
        <time>2023-08-29T07:24:55Z</time>
      </trkpt>
      <trkpt lat="45.52344" lon="5.45651">
        <ele>538</ele>
        <time>2023-08-29T07:24:56Z</time>
      </trkpt>
      <trkpt lat="45.52341" lon="5.45655">
        <ele>538.2</ele>
        <time>2023-08-29T07:24:57Z</time>
      </trkpt>
      <trkpt lat="45.52339" lon="5.45659">
        <ele>538.4</ele>
        <time>2023-08-29T07:24:58Z</time>
      </trkpt>
      <trkpt lat="45.52337" lon="5.45663">
        <ele>538.8</ele>
        <time>2023-08-29T07:24:59Z</time>
      </trkpt>
      <trkpt lat="45.52335" lon="5.45666">
        <ele>538.8</ele>
        <time>2023-08-29T07:25:00Z</time>
      </trkpt>
      <trkpt lat="45.52332" lon="5.4567">
        <ele>539</ele>
        <time>2023-08-29T07:25:01Z</time>
      </trkpt>
      <trkpt lat="45.52329" lon="5.45674">
        <ele>539</ele>
        <time>2023-08-29T07:25:02Z</time>
      </trkpt>
      <trkpt lat="45.52327" lon="5.45677">
        <ele>539.4</ele>
        <time>2023-08-29T07:25:03Z</time>
      </trkpt>
      <trkpt lat="45.52325" lon="5.4568">
        <ele>539.6</ele>
        <time>2023-08-29T07:25:04Z</time>
      </trkpt>
      <trkpt lat="45.52323" lon="5.45684">
        <ele>539.6</ele>
        <time>2023-08-29T07:25:05Z</time>
      </trkpt>
      <trkpt lat="45.52321" lon="5.45688">
        <ele>539.8</ele>
        <time>2023-08-29T07:25:06Z</time>
      </trkpt>
      <trkpt lat="45.52319" lon="5.45692">
        <ele>540</ele>
        <time>2023-08-29T07:25:07Z</time>
      </trkpt>
      <trkpt lat="45.52316" lon="5.45696">
        <ele>540.4</ele>
        <time>2023-08-29T07:25:08Z</time>
      </trkpt>
      <trkpt lat="45.52314" lon="5.457">
        <ele>540.4</ele>
        <time>2023-08-29T07:25:09Z</time>
      </trkpt>
      <trkpt lat="45.52311" lon="5.45704">
        <ele>540.6</ele>
        <time>2023-08-29T07:25:10Z</time>
      </trkpt>
      <trkpt lat="45.52309" lon="5.45706">
        <ele>540.8</ele>
        <time>2023-08-29T07:25:11Z</time>
      </trkpt>
      <trkpt lat="45.52307" lon="5.4571">
        <ele>541</ele>
        <time>2023-08-29T07:25:12Z</time>
      </trkpt>
      <trkpt lat="45.52304" lon="5.45713">
        <ele>541.2</ele>
        <time>2023-08-29T07:25:13Z</time>
      </trkpt>
      <trkpt lat="45.52303" lon="5.45716">
        <ele>541.2</ele>
        <time>2023-08-29T07:25:14Z</time>
      </trkpt>
      <trkpt lat="45.52301" lon="5.45719">
        <ele>541.4</ele>
        <time>2023-08-29T07:25:15Z</time>
      </trkpt>
      <trkpt lat="45.52299" lon="5.45722">
        <ele>541.8</ele>
        <time>2023-08-29T07:25:16Z</time>
      </trkpt>
      <trkpt lat="45.52297" lon="5.45725">
        <ele>541.8</ele>
        <time>2023-08-29T07:25:17Z</time>
      </trkpt>
      <trkpt lat="45.52295" lon="5.45728">
        <ele>542.2</ele>
        <time>2023-08-29T07:25:18Z</time>
      </trkpt>
      <trkpt lat="45.52292" lon="5.45732">
        <ele>542.2</ele>
        <time>2023-08-29T07:25:19Z</time>
      </trkpt>
      <trkpt lat="45.5229" lon="5.45735">
        <ele>542.2</ele>
        <time>2023-08-29T07:25:20Z</time>
      </trkpt>
      <trkpt lat="45.52288" lon="5.45738">
        <ele>542.4</ele>
        <time>2023-08-29T07:25:21Z</time>
      </trkpt>
      <trkpt lat="45.52286" lon="5.45742">
        <ele>542.8</ele>
        <time>2023-08-29T07:25:22Z</time>
      </trkpt>
      <trkpt lat="45.52284" lon="5.45745">
        <ele>542.8</ele>
        <time>2023-08-29T07:25:23Z</time>
      </trkpt>
      <trkpt lat="45.52281" lon="5.45749">
        <ele>543</ele>
        <time>2023-08-29T07:25:24Z</time>
      </trkpt>
      <trkpt lat="45.52279" lon="5.45752">
        <ele>543.2</ele>
        <time>2023-08-29T07:25:25Z</time>
      </trkpt>
      <trkpt lat="45.52276" lon="5.45756">
        <ele>543.4</ele>
        <time>2023-08-29T07:25:26Z</time>
      </trkpt>
      <trkpt lat="45.52274" lon="5.4576">
        <ele>543.4</ele>
        <time>2023-08-29T07:25:27Z</time>
      </trkpt>
      <trkpt lat="45.52272" lon="5.45764">
        <ele>543.6</ele>
        <time>2023-08-29T07:25:28Z</time>
      </trkpt>
      <trkpt lat="45.52269" lon="5.45768">
        <ele>543.8</ele>
        <time>2023-08-29T07:25:29Z</time>
      </trkpt>
      <trkpt lat="45.52266" lon="5.45773">
        <ele>544</ele>
        <time>2023-08-29T07:25:30Z</time>
      </trkpt>
      <trkpt lat="45.52264" lon="5.45777">
        <ele>544</ele>
        <time>2023-08-29T07:25:31Z</time>
      </trkpt>
      <trkpt lat="45.52261" lon="5.4578">
        <ele>544</ele>
        <time>2023-08-29T07:25:32Z</time>
      </trkpt>
      <trkpt lat="45.52259" lon="5.45784">
        <ele>544</ele>
        <time>2023-08-29T07:25:33Z</time>
      </trkpt>
      <trkpt lat="45.52256" lon="5.45788">
        <ele>544.2</ele>
        <time>2023-08-29T07:25:34Z</time>
      </trkpt>
      <trkpt lat="45.52254" lon="5.45792">
        <ele>544.4</ele>
        <time>2023-08-29T07:25:35Z</time>
      </trkpt>
      <trkpt lat="45.52251" lon="5.45796">
        <ele>544.4</ele>
        <time>2023-08-29T07:25:36Z</time>
      </trkpt>
      <trkpt lat="45.52249" lon="5.458">
        <ele>544.4</ele>
        <time>2023-08-29T07:25:37Z</time>
      </trkpt>
      <trkpt lat="45.52246" lon="5.45805">
        <ele>544.4</ele>
        <time>2023-08-29T07:25:38Z</time>
      </trkpt>
      <trkpt lat="45.52243" lon="5.45809">
        <ele>544.4</ele>
        <time>2023-08-29T07:25:39Z</time>
      </trkpt>
      <trkpt lat="45.52241" lon="5.45814">
        <ele>544.4</ele>
        <time>2023-08-29T07:25:40Z</time>
      </trkpt>
      <trkpt lat="45.52238" lon="5.45817">
        <ele>544.4</ele>
        <time>2023-08-29T07:25:41Z</time>
      </trkpt>
      <trkpt lat="45.52236" lon="5.45821">
        <ele>544.4</ele>
        <time>2023-08-29T07:25:42Z</time>
      </trkpt>
      <trkpt lat="45.52233" lon="5.45826">
        <ele>544.4</ele>
        <time>2023-08-29T07:25:43Z</time>
      </trkpt>
      <trkpt lat="45.52231" lon="5.4583">
        <ele>544.4</ele>
        <time>2023-08-29T07:25:44Z</time>
      </trkpt>
      <trkpt lat="45.52228" lon="5.45834">
        <ele>544.6</ele>
        <time>2023-08-29T07:25:45Z</time>
      </trkpt>
      <trkpt lat="45.52225" lon="5.45839">
        <ele>544.6</ele>
        <time>2023-08-29T07:25:46Z</time>
      </trkpt>
      <trkpt lat="45.52222" lon="5.45844">
        <ele>544.6</ele>
        <time>2023-08-29T07:25:47Z</time>
      </trkpt>
      <trkpt lat="45.52219" lon="5.45848">
        <ele>544.6</ele>
        <time>2023-08-29T07:25:48Z</time>
      </trkpt>
      <trkpt lat="45.52216" lon="5.45853">
        <ele>544.6</ele>
        <time>2023-08-29T07:25:49Z</time>
      </trkpt>
      <trkpt lat="45.52214" lon="5.45857">
        <ele>544.6</ele>
        <time>2023-08-29T07:25:50Z</time>
      </trkpt>
      <trkpt lat="45.52211" lon="5.45861">
        <ele>544.6</ele>
        <time>2023-08-29T07:25:51Z</time>
      </trkpt>
      <trkpt lat="45.52208" lon="5.45866">
        <ele>544.6</ele>
        <time>2023-08-29T07:25:52Z</time>
      </trkpt>
      <trkpt lat="45.52205" lon="5.45871">
        <ele>544.6</ele>
        <time>2023-08-29T07:25:53Z</time>
      </trkpt>
      <trkpt lat="45.52203" lon="5.45875">
        <ele>544.8</ele>
        <time>2023-08-29T07:25:54Z</time>
      </trkpt>
      <trkpt lat="45.522" lon="5.45879">
        <ele>544.8</ele>
        <time>2023-08-29T07:25:55Z</time>
      </trkpt>
      <trkpt lat="45.52198" lon="5.45884">
        <ele>544.8</ele>
        <time>2023-08-29T07:25:56Z</time>
      </trkpt>
      <trkpt lat="45.52195" lon="5.45888">
        <ele>544.8</ele>
        <time>2023-08-29T07:25:57Z</time>
      </trkpt>
      <trkpt lat="45.52193" lon="5.45892">
        <ele>544.8</ele>
        <time>2023-08-29T07:25:58Z</time>
      </trkpt>
      <trkpt lat="45.5219" lon="5.45896">
        <ele>545</ele>
        <time>2023-08-29T07:25:59Z</time>
      </trkpt>
      <trkpt lat="45.52188" lon="5.45901">
        <ele>545.2</ele>
        <time>2023-08-29T07:26:00Z</time>
      </trkpt>
      <trkpt lat="45.52185" lon="5.45904">
        <ele>545.2</ele>
        <time>2023-08-29T07:26:01Z</time>
      </trkpt>
      <trkpt lat="45.52183" lon="5.45908">
        <ele>545.2</ele>
        <time>2023-08-29T07:26:02Z</time>
      </trkpt>
      <trkpt lat="45.52181" lon="5.45912">
        <ele>545.2</ele>
        <time>2023-08-29T07:26:03Z</time>
      </trkpt>
      <trkpt lat="45.52178" lon="5.45916">
        <ele>545.4</ele>
        <time>2023-08-29T07:26:04Z</time>
      </trkpt>
      <trkpt lat="45.52175" lon="5.45921">
        <ele>545.4</ele>
        <time>2023-08-29T07:26:05Z</time>
      </trkpt>
      <trkpt lat="45.52172" lon="5.45925">
        <ele>545.4</ele>
        <time>2023-08-29T07:26:06Z</time>
      </trkpt>
      <trkpt lat="45.52169" lon="5.45929">
        <ele>545.4</ele>
        <time>2023-08-29T07:26:07Z</time>
      </trkpt>
      <trkpt lat="45.52167" lon="5.45934">
        <ele>545.4</ele>
        <time>2023-08-29T07:26:08Z</time>
      </trkpt>
      <trkpt lat="45.52164" lon="5.45939">
        <ele>545.4</ele>
        <time>2023-08-29T07:26:09Z</time>
      </trkpt>
      <trkpt lat="45.52161" lon="5.45943">
        <ele>545.4</ele>
        <time>2023-08-29T07:26:10Z</time>
      </trkpt>
      <trkpt lat="45.52158" lon="5.45947">
        <ele>545.4</ele>
        <time>2023-08-29T07:26:11Z</time>
      </trkpt>
      <trkpt lat="45.52156" lon="5.45952">
        <ele>545.6</ele>
        <time>2023-08-29T07:26:12Z</time>
      </trkpt>
      <trkpt lat="45.52153" lon="5.45956">
        <ele>545.8</ele>
        <time>2023-08-29T07:26:13Z</time>
      </trkpt>
      <trkpt lat="45.5215" lon="5.4596">
        <ele>545.8</ele>
        <time>2023-08-29T07:26:14Z</time>
      </trkpt>
      <trkpt lat="45.52147" lon="5.45966">
        <ele>545.8</ele>
        <time>2023-08-29T07:26:15Z</time>
      </trkpt>
      <trkpt lat="45.52144" lon="5.4597">
        <ele>546.2</ele>
        <time>2023-08-29T07:26:16Z</time>
      </trkpt>
      <trkpt lat="45.52141" lon="5.45975">
        <ele>546.2</ele>
        <time>2023-08-29T07:26:17Z</time>
      </trkpt>
      <trkpt lat="45.52139" lon="5.45979">
        <ele>546.2</ele>
        <time>2023-08-29T07:26:18Z</time>
      </trkpt>
      <trkpt lat="45.52136" lon="5.45983">
        <ele>546.4</ele>
        <time>2023-08-29T07:26:19Z</time>
      </trkpt>
      <trkpt lat="45.52134" lon="5.45987">
        <ele>546.4</ele>
        <time>2023-08-29T07:26:20Z</time>
      </trkpt>
      <trkpt lat="45.52131" lon="5.45992">
        <ele>546.4</ele>
        <time>2023-08-29T07:26:21Z</time>
      </trkpt>
      <trkpt lat="45.52128" lon="5.45996">
        <ele>546.6</ele>
        <time>2023-08-29T07:26:22Z</time>
      </trkpt>
      <trkpt lat="45.52126" lon="5.46">
        <ele>546.6</ele>
        <time>2023-08-29T07:26:23Z</time>
      </trkpt>
      <trkpt lat="45.52123" lon="5.46004">
        <ele>546.6</ele>
        <time>2023-08-29T07:26:24Z</time>
      </trkpt>
      <trkpt lat="45.52121" lon="5.46008">
        <ele>546.8</ele>
        <time>2023-08-29T07:26:25Z</time>
      </trkpt>
      <trkpt lat="45.52118" lon="5.46012">
        <ele>547</ele>
        <time>2023-08-29T07:26:26Z</time>
      </trkpt>
      <trkpt lat="45.52116" lon="5.46017">
        <ele>547.2</ele>
        <time>2023-08-29T07:26:27Z</time>
      </trkpt>
      <trkpt lat="45.52113" lon="5.46022">
        <ele>547.4</ele>
        <time>2023-08-29T07:26:28Z</time>
      </trkpt>
      <trkpt lat="45.5211" lon="5.46026">
        <ele>547.4</ele>
        <time>2023-08-29T07:26:29Z</time>
      </trkpt>
      <trkpt lat="45.52108" lon="5.46031">
        <ele>547.4</ele>
        <time>2023-08-29T07:26:30Z</time>
      </trkpt>
      <trkpt lat="45.52105" lon="5.46035">
        <ele>547.6</ele>
        <time>2023-08-29T07:26:31Z</time>
      </trkpt>
      <trkpt lat="45.52103" lon="5.46039">
        <ele>547.8</ele>
        <time>2023-08-29T07:26:32Z</time>
      </trkpt>
      <trkpt lat="45.521" lon="5.46043">
        <ele>547.8</ele>
        <time>2023-08-29T07:26:33Z</time>
      </trkpt>
      <trkpt lat="45.52097" lon="5.46047">
        <ele>548</ele>
        <time>2023-08-29T07:26:34Z</time>
      </trkpt>
      <trkpt lat="45.52094" lon="5.46052">
        <ele>548</ele>
        <time>2023-08-29T07:26:35Z</time>
      </trkpt>
      <trkpt lat="45.52091" lon="5.46055">
        <ele>548.2</ele>
        <time>2023-08-29T07:26:36Z</time>
      </trkpt>
      <trkpt lat="45.52089" lon="5.4606">
        <ele>548.4</ele>
        <time>2023-08-29T07:26:37Z</time>
      </trkpt>
      <trkpt lat="45.52086" lon="5.46064">
        <ele>548.6</ele>
        <time>2023-08-29T07:26:38Z</time>
      </trkpt>
      <trkpt lat="45.52084" lon="5.46069">
        <ele>548.6</ele>
        <time>2023-08-29T07:26:39Z</time>
      </trkpt>
      <trkpt lat="45.52081" lon="5.46074">
        <ele>548.8</ele>
        <time>2023-08-29T07:26:40Z</time>
      </trkpt>
      <trkpt lat="45.52079" lon="5.46078">
        <ele>548.8</ele>
        <time>2023-08-29T07:26:41Z</time>
      </trkpt>
      <trkpt lat="45.52076" lon="5.46082">
        <ele>548.8</ele>
        <time>2023-08-29T07:26:42Z</time>
      </trkpt>
      <trkpt lat="45.52073" lon="5.46086">
        <ele>548.8</ele>
        <time>2023-08-29T07:26:43Z</time>
      </trkpt>
      <trkpt lat="45.5207" lon="5.46091">
        <ele>549.2</ele>
        <time>2023-08-29T07:26:44Z</time>
      </trkpt>
      <trkpt lat="45.52067" lon="5.46096">
        <ele>549.2</ele>
        <time>2023-08-29T07:26:45Z</time>
      </trkpt>
      <trkpt lat="45.52065" lon="5.461">
        <ele>549.4</ele>
        <time>2023-08-29T07:26:46Z</time>
      </trkpt>
      <trkpt lat="45.52062" lon="5.46104">
        <ele>549.4</ele>
        <time>2023-08-29T07:26:47Z</time>
      </trkpt>
      <trkpt lat="45.52059" lon="5.46109">
        <ele>549.4</ele>
        <time>2023-08-29T07:26:48Z</time>
      </trkpt>
      <trkpt lat="45.52056" lon="5.46113">
        <ele>549.4</ele>
        <time>2023-08-29T07:26:49Z</time>
      </trkpt>
      <trkpt lat="45.52054" lon="5.46117">
        <ele>549.6</ele>
        <time>2023-08-29T07:26:50Z</time>
      </trkpt>
      <trkpt lat="45.52051" lon="5.46122">
        <ele>549.6</ele>
        <time>2023-08-29T07:26:51Z</time>
      </trkpt>
      <trkpt lat="45.52048" lon="5.46126">
        <ele>549.8</ele>
        <time>2023-08-29T07:26:52Z</time>
      </trkpt>
      <trkpt lat="45.52045" lon="5.4613">
        <ele>549.8</ele>
        <time>2023-08-29T07:26:53Z</time>
      </trkpt>
      <trkpt lat="45.52042" lon="5.46135">
        <ele>550</ele>
        <time>2023-08-29T07:26:54Z</time>
      </trkpt>
      <trkpt lat="45.52039" lon="5.46139">
        <ele>550</ele>
        <time>2023-08-29T07:26:55Z</time>
      </trkpt>
      <trkpt lat="45.52036" lon="5.46143">
        <ele>550</ele>
        <time>2023-08-29T07:26:56Z</time>
      </trkpt>
      <trkpt lat="45.52034" lon="5.46147">
        <ele>550.2</ele>
        <time>2023-08-29T07:26:57Z</time>
      </trkpt>
      <trkpt lat="45.5203" lon="5.4615">
        <ele>550.2</ele>
        <time>2023-08-29T07:26:58Z</time>
      </trkpt>
      <trkpt lat="45.52028" lon="5.46153">
        <ele>550.2</ele>
        <time>2023-08-29T07:26:59Z</time>
      </trkpt>
      <trkpt lat="45.52025" lon="5.46156">
        <ele>550.6</ele>
        <time>2023-08-29T07:27:00Z</time>
      </trkpt>
      <trkpt lat="45.52022" lon="5.46159">
        <ele>550.6</ele>
        <time>2023-08-29T07:27:01Z</time>
      </trkpt>
      <trkpt lat="45.52018" lon="5.46162">
        <ele>550.6</ele>
        <time>2023-08-29T07:27:02Z</time>
      </trkpt>
      <trkpt lat="45.52014" lon="5.46164">
        <ele>550.8</ele>
        <time>2023-08-29T07:27:03Z</time>
      </trkpt>
      <trkpt lat="45.52011" lon="5.46166">
        <ele>551</ele>
        <time>2023-08-29T07:27:04Z</time>
      </trkpt>
      <trkpt lat="45.52007" lon="5.46168">
        <ele>551</ele>
        <time>2023-08-29T07:27:05Z</time>
      </trkpt>
      <trkpt lat="45.52003" lon="5.46169">
        <ele>551.2</ele>
        <time>2023-08-29T07:27:06Z</time>
      </trkpt>
      <trkpt lat="45.51998" lon="5.4617">
        <ele>551.4</ele>
        <time>2023-08-29T07:27:07Z</time>
      </trkpt>
      <trkpt lat="45.51994" lon="5.4617">
        <ele>551.6</ele>
        <time>2023-08-29T07:27:08Z</time>
      </trkpt>
      <trkpt lat="45.51991" lon="5.4617">
        <ele>551.8</ele>
        <time>2023-08-29T07:27:09Z</time>
      </trkpt>
      <trkpt lat="45.51987" lon="5.4617">
        <ele>552</ele>
        <time>2023-08-29T07:27:10Z</time>
      </trkpt>
      <trkpt lat="45.51983" lon="5.4617">
        <ele>552.2</ele>
        <time>2023-08-29T07:27:11Z</time>
      </trkpt>
      <trkpt lat="45.51979" lon="5.4617">
        <ele>552.4</ele>
        <time>2023-08-29T07:27:12Z</time>
      </trkpt>
      <trkpt lat="45.51975" lon="5.46168">
        <ele>552.6</ele>
        <time>2023-08-29T07:27:13Z</time>
      </trkpt>
      <trkpt lat="45.51972" lon="5.46167">
        <ele>552.6</ele>
        <time>2023-08-29T07:27:14Z</time>
      </trkpt>
      <trkpt lat="45.51968" lon="5.46165">
        <ele>553</ele>
        <time>2023-08-29T07:27:15Z</time>
      </trkpt>
      <trkpt lat="45.51965" lon="5.46164">
        <ele>553.4</ele>
        <time>2023-08-29T07:27:16Z</time>
      </trkpt>
      <trkpt lat="45.51962" lon="5.46161">
        <ele>553.6</ele>
        <time>2023-08-29T07:27:17Z</time>
      </trkpt>
      <trkpt lat="45.51959" lon="5.46159">
        <ele>553.8</ele>
        <time>2023-08-29T07:27:18Z</time>
      </trkpt>
      <trkpt lat="45.51955" lon="5.46156">
        <ele>554</ele>
        <time>2023-08-29T07:27:19Z</time>
      </trkpt>
      <trkpt lat="45.51953" lon="5.46153">
        <ele>554.2</ele>
        <time>2023-08-29T07:27:20Z</time>
      </trkpt>
      <trkpt lat="45.51949" lon="5.4615">
        <ele>554.6</ele>
        <time>2023-08-29T07:27:21Z</time>
      </trkpt>
      <trkpt lat="45.51947" lon="5.46146">
        <ele>554.8</ele>
        <time>2023-08-29T07:27:22Z</time>
      </trkpt>
      <trkpt lat="45.51944" lon="5.46143">
        <ele>554.8</ele>
        <time>2023-08-29T07:27:23Z</time>
      </trkpt>
      <trkpt lat="45.51942" lon="5.4614">
        <ele>555</ele>
        <time>2023-08-29T07:27:24Z</time>
      </trkpt>
      <trkpt lat="45.5194" lon="5.46138">
        <ele>555.2</ele>
        <time>2023-08-29T07:27:25Z</time>
      </trkpt>
      <trkpt lat="45.51938" lon="5.46134">
        <ele>555.6</ele>
        <time>2023-08-29T07:27:26Z</time>
      </trkpt>
      <trkpt lat="45.51936" lon="5.4613">
        <ele>555.8</ele>
        <time>2023-08-29T07:27:27Z</time>
      </trkpt>
      <trkpt lat="45.51934" lon="5.46126">
        <ele>556</ele>
        <time>2023-08-29T07:27:28Z</time>
      </trkpt>
      <trkpt lat="45.51932" lon="5.46123">
        <ele>556.2</ele>
        <time>2023-08-29T07:27:29Z</time>
      </trkpt>
      <trkpt lat="45.51931" lon="5.46119">
        <ele>556.4</ele>
        <time>2023-08-29T07:27:30Z</time>
      </trkpt>
      <trkpt lat="45.51929" lon="5.46114">
        <ele>556.8</ele>
        <time>2023-08-29T07:27:31Z</time>
      </trkpt>
      <trkpt lat="45.51928" lon="5.46111">
        <ele>557</ele>
        <time>2023-08-29T07:27:32Z</time>
      </trkpt>
      <trkpt lat="45.51926" lon="5.46106">
        <ele>557.2</ele>
        <time>2023-08-29T07:27:33Z</time>
      </trkpt>
      <trkpt lat="45.51925" lon="5.46102">
        <ele>557.4</ele>
        <time>2023-08-29T07:27:34Z</time>
      </trkpt>
      <trkpt lat="45.51924" lon="5.46097">
        <ele>557.8</ele>
        <time>2023-08-29T07:27:35Z</time>
      </trkpt>
      <trkpt lat="45.51923" lon="5.46093">
        <ele>558</ele>
        <time>2023-08-29T07:27:36Z</time>
      </trkpt>
      <trkpt lat="45.51922" lon="5.46089">
        <ele>558.2</ele>
        <time>2023-08-29T07:27:37Z</time>
      </trkpt>
      <trkpt lat="45.51921" lon="5.46085">
        <ele>558.4</ele>
        <time>2023-08-29T07:27:38Z</time>
      </trkpt>
      <trkpt lat="45.5192" lon="5.4608">
        <ele>558.8</ele>
        <time>2023-08-29T07:27:39Z</time>
      </trkpt>
      <trkpt lat="45.51919" lon="5.46076">
        <ele>558.8</ele>
        <time>2023-08-29T07:27:40Z</time>
      </trkpt>
      <trkpt lat="45.51918" lon="5.46071">
        <ele>559</ele>
        <time>2023-08-29T07:27:41Z</time>
      </trkpt>
      <trkpt lat="45.51918" lon="5.46067">
        <ele>559.2</ele>
        <time>2023-08-29T07:27:42Z</time>
      </trkpt>
      <trkpt lat="45.51917" lon="5.46063">
        <ele>559.4</ele>
        <time>2023-08-29T07:27:43Z</time>
      </trkpt>
      <trkpt lat="45.51915" lon="5.46059">
        <ele>559.6</ele>
        <time>2023-08-29T07:27:44Z</time>
      </trkpt>
      <trkpt lat="45.51915" lon="5.46055">
        <ele>559.8</ele>
        <time>2023-08-29T07:27:45Z</time>
      </trkpt>
      <trkpt lat="45.51914" lon="5.46051">
        <ele>560</ele>
        <time>2023-08-29T07:27:46Z</time>
      </trkpt>
      <trkpt lat="45.51913" lon="5.46047">
        <ele>560.2</ele>
        <time>2023-08-29T07:27:47Z</time>
      </trkpt>
      <trkpt lat="45.51912" lon="5.46043">
        <ele>560.4</ele>
        <time>2023-08-29T07:27:48Z</time>
      </trkpt>
      <trkpt lat="45.51911" lon="5.46038">
        <ele>560.6</ele>
        <time>2023-08-29T07:27:49Z</time>
      </trkpt>
      <trkpt lat="45.5191" lon="5.46034">
        <ele>560.8</ele>
        <time>2023-08-29T07:27:50Z</time>
      </trkpt>
      <trkpt lat="45.51909" lon="5.46031">
        <ele>560.8</ele>
        <time>2023-08-29T07:27:51Z</time>
      </trkpt>
      <trkpt lat="45.51907" lon="5.46027">
        <ele>561</ele>
        <time>2023-08-29T07:27:52Z</time>
      </trkpt>
      <trkpt lat="45.51906" lon="5.46023">
        <ele>561.2</ele>
        <time>2023-08-29T07:27:53Z</time>
      </trkpt>
      <trkpt lat="45.51905" lon="5.4602">
        <ele>561.4</ele>
        <time>2023-08-29T07:27:54Z</time>
      </trkpt>
      <trkpt lat="45.51903" lon="5.46016">
        <ele>561.4</ele>
        <time>2023-08-29T07:27:55Z</time>
      </trkpt>
      <trkpt lat="45.51901" lon="5.46013">
        <ele>561.6</ele>
        <time>2023-08-29T07:27:56Z</time>
      </trkpt>
      <trkpt lat="45.51898" lon="5.4601">
        <ele>562</ele>
        <time>2023-08-29T07:27:57Z</time>
      </trkpt>
      <trkpt lat="45.51896" lon="5.46008">
        <ele>562.2</ele>
        <time>2023-08-29T07:27:58Z</time>
      </trkpt>
      <trkpt lat="45.51893" lon="5.46005">
        <ele>562.2</ele>
        <time>2023-08-29T07:27:59Z</time>
      </trkpt>
      <trkpt lat="45.5189" lon="5.46003">
        <ele>562.4</ele>
        <time>2023-08-29T07:28:00Z</time>
      </trkpt>
      <trkpt lat="45.51887" lon="5.46001">
        <ele>562.6</ele>
        <time>2023-08-29T07:28:01Z</time>
      </trkpt>
      <trkpt lat="45.51884" lon="5.46">
        <ele>562.8</ele>
        <time>2023-08-29T07:28:02Z</time>
      </trkpt>
      <trkpt lat="45.51881" lon="5.45998">
        <ele>563</ele>
        <time>2023-08-29T07:28:03Z</time>
      </trkpt>
      <trkpt lat="45.51878" lon="5.45996">
        <ele>563.2</ele>
        <time>2023-08-29T07:28:04Z</time>
      </trkpt>
      <trkpt lat="45.51875" lon="5.45996">
        <ele>563.4</ele>
        <time>2023-08-29T07:28:05Z</time>
      </trkpt>
      <trkpt lat="45.51871" lon="5.45996">
        <ele>563.6</ele>
        <time>2023-08-29T07:28:06Z</time>
      </trkpt>
      <trkpt lat="45.51868" lon="5.45996">
        <ele>564</ele>
        <time>2023-08-29T07:28:07Z</time>
      </trkpt>
      <trkpt lat="45.51865" lon="5.45996">
        <ele>564.2</ele>
        <time>2023-08-29T07:28:08Z</time>
      </trkpt>
      <trkpt lat="45.51861" lon="5.45997">
        <ele>564.6</ele>
        <time>2023-08-29T07:28:09Z</time>
      </trkpt>
      <trkpt lat="45.51858" lon="5.45997">
        <ele>564.8</ele>
        <time>2023-08-29T07:28:10Z</time>
      </trkpt>
      <trkpt lat="45.51855" lon="5.45998">
        <ele>565</ele>
        <time>2023-08-29T07:28:11Z</time>
      </trkpt>
      <trkpt lat="45.51852" lon="5.45999">
        <ele>565.2</ele>
        <time>2023-08-29T07:28:12Z</time>
      </trkpt>
      <trkpt lat="45.51849" lon="5.46001">
        <ele>565.4</ele>
        <time>2023-08-29T07:28:13Z</time>
      </trkpt>
      <trkpt lat="45.51846" lon="5.46003">
        <ele>565.8</ele>
        <time>2023-08-29T07:28:14Z</time>
      </trkpt>
      <trkpt lat="45.51843" lon="5.46006">
        <ele>566</ele>
        <time>2023-08-29T07:28:15Z</time>
      </trkpt>
      <trkpt lat="45.5184" lon="5.46008">
        <ele>566.2</ele>
        <time>2023-08-29T07:28:16Z</time>
      </trkpt>
      <trkpt lat="45.51837" lon="5.4601">
        <ele>566.4</ele>
        <time>2023-08-29T07:28:17Z</time>
      </trkpt>
      <trkpt lat="45.51834" lon="5.46012">
        <ele>566.6</ele>
        <time>2023-08-29T07:28:18Z</time>
      </trkpt>
      <trkpt lat="45.51831" lon="5.46014">
        <ele>566.8</ele>
        <time>2023-08-29T07:28:19Z</time>
      </trkpt>
      <trkpt lat="45.51828" lon="5.46017">
        <ele>567</ele>
        <time>2023-08-29T07:28:20Z</time>
      </trkpt>
      <trkpt lat="45.51825" lon="5.4602">
        <ele>567.2</ele>
        <time>2023-08-29T07:28:21Z</time>
      </trkpt>
      <trkpt lat="45.51822" lon="5.46023">
        <ele>567.4</ele>
        <time>2023-08-29T07:28:22Z</time>
      </trkpt>
      <trkpt lat="45.51819" lon="5.46026">
        <ele>567.4</ele>
        <time>2023-08-29T07:28:23Z</time>
      </trkpt>
      <trkpt lat="45.51817" lon="5.46029">
        <ele>567.6</ele>
        <time>2023-08-29T07:28:24Z</time>
      </trkpt>
      <trkpt lat="45.51813" lon="5.46031">
        <ele>567.8</ele>
        <time>2023-08-29T07:28:25Z</time>
      </trkpt>
      <trkpt lat="45.5181" lon="5.46034">
        <ele>568</ele>
        <time>2023-08-29T07:28:26Z</time>
      </trkpt>
      <trkpt lat="45.51807" lon="5.46036">
        <ele>568.2</ele>
        <time>2023-08-29T07:28:27Z</time>
      </trkpt>
      <trkpt lat="45.51804" lon="5.46039">
        <ele>568.4</ele>
        <time>2023-08-29T07:28:28Z</time>
      </trkpt>
      <trkpt lat="45.51801" lon="5.46042">
        <ele>568.6</ele>
        <time>2023-08-29T07:28:29Z</time>
      </trkpt>
      <trkpt lat="45.51798" lon="5.46045">
        <ele>568.8</ele>
        <time>2023-08-29T07:28:30Z</time>
      </trkpt>
      <trkpt lat="45.51795" lon="5.46047">
        <ele>569</ele>
        <time>2023-08-29T07:28:31Z</time>
      </trkpt>
      <trkpt lat="45.51793" lon="5.4605">
        <ele>569.2</ele>
        <time>2023-08-29T07:28:32Z</time>
      </trkpt>
      <trkpt lat="45.5179" lon="5.46052">
        <ele>569.2</ele>
        <time>2023-08-29T07:28:33Z</time>
      </trkpt>
      <trkpt lat="45.51786" lon="5.46055">
        <ele>569.4</ele>
        <time>2023-08-29T07:28:34Z</time>
      </trkpt>
      <trkpt lat="45.51783" lon="5.46058">
        <ele>569.4</ele>
        <time>2023-08-29T07:28:35Z</time>
      </trkpt>
      <trkpt lat="45.5178" lon="5.4606">
        <ele>569.6</ele>
        <time>2023-08-29T07:28:36Z</time>
      </trkpt>
      <trkpt lat="45.51777" lon="5.46063">
        <ele>569.8</ele>
        <time>2023-08-29T07:28:37Z</time>
      </trkpt>
      <trkpt lat="45.51774" lon="5.46066">
        <ele>570</ele>
        <time>2023-08-29T07:28:38Z</time>
      </trkpt>
      <trkpt lat="45.5177" lon="5.46068">
        <ele>570</ele>
        <time>2023-08-29T07:28:39Z</time>
      </trkpt>
      <trkpt lat="45.51767" lon="5.46071">
        <ele>570.2</ele>
        <time>2023-08-29T07:28:40Z</time>
      </trkpt>
      <trkpt lat="45.51763" lon="5.46074">
        <ele>570.4</ele>
        <time>2023-08-29T07:28:41Z</time>
      </trkpt>
      <trkpt lat="45.5176" lon="5.46077">
        <ele>570.6</ele>
        <time>2023-08-29T07:28:42Z</time>
      </trkpt>
      <trkpt lat="45.51756" lon="5.4608">
        <ele>570.6</ele>
        <time>2023-08-29T07:28:43Z</time>
      </trkpt>
      <trkpt lat="45.51753" lon="5.46082">
        <ele>570.8</ele>
        <time>2023-08-29T07:28:44Z</time>
      </trkpt>
      <trkpt lat="45.5175" lon="5.46085">
        <ele>570.8</ele>
        <time>2023-08-29T07:28:45Z</time>
      </trkpt>
      <trkpt lat="45.51746" lon="5.46087">
        <ele>571</ele>
        <time>2023-08-29T07:28:46Z</time>
      </trkpt>
      <trkpt lat="45.51743" lon="5.4609">
        <ele>571</ele>
        <time>2023-08-29T07:28:47Z</time>
      </trkpt>
      <trkpt lat="45.5174" lon="5.46092">
        <ele>571.2</ele>
        <time>2023-08-29T07:28:48Z</time>
      </trkpt>
      <trkpt lat="45.51738" lon="5.46096">
        <ele>571.4</ele>
        <time>2023-08-29T07:28:49Z</time>
      </trkpt>
      <trkpt lat="45.51735" lon="5.46099">
        <ele>571.4</ele>
        <time>2023-08-29T07:28:50Z</time>
      </trkpt>
      <trkpt lat="45.51732" lon="5.46102">
        <ele>571.6</ele>
        <time>2023-08-29T07:28:51Z</time>
      </trkpt>
      <trkpt lat="45.51729" lon="5.46105">
        <ele>571.6</ele>
        <time>2023-08-29T07:28:52Z</time>
      </trkpt>
      <trkpt lat="45.51725" lon="5.46109">
        <ele>571.6</ele>
        <time>2023-08-29T07:28:53Z</time>
      </trkpt>
      <trkpt lat="45.51722" lon="5.46113">
        <ele>571.8</ele>
        <time>2023-08-29T07:28:54Z</time>
      </trkpt>
      <trkpt lat="45.51719" lon="5.46116">
        <ele>571.8</ele>
        <time>2023-08-29T07:28:55Z</time>
      </trkpt>
      <trkpt lat="45.51715" lon="5.4612">
        <ele>571.8</ele>
        <time>2023-08-29T07:28:56Z</time>
      </trkpt>
      <trkpt lat="45.51712" lon="5.46124">
        <ele>571.8</ele>
        <time>2023-08-29T07:28:57Z</time>
      </trkpt>
      <trkpt lat="45.51708" lon="5.46129">
        <ele>571.8</ele>
        <time>2023-08-29T07:28:58Z</time>
      </trkpt>
      <trkpt lat="45.51705" lon="5.46133">
        <ele>571.8</ele>
        <time>2023-08-29T07:28:59Z</time>
      </trkpt>
      <trkpt lat="45.51701" lon="5.46138">
        <ele>571.6</ele>
        <time>2023-08-29T07:29:00Z</time>
      </trkpt>
      <trkpt lat="45.51698" lon="5.46142">
        <ele>571.6</ele>
        <time>2023-08-29T07:29:01Z</time>
      </trkpt>
      <trkpt lat="45.51694" lon="5.46147">
        <ele>571.6</ele>
        <time>2023-08-29T07:29:02Z</time>
      </trkpt>
      <trkpt lat="45.5169" lon="5.46152">
        <ele>571.4</ele>
        <time>2023-08-29T07:29:03Z</time>
      </trkpt>
      <trkpt lat="45.51686" lon="5.46158">
        <ele>571.2</ele>
        <time>2023-08-29T07:29:04Z</time>
      </trkpt>
      <trkpt lat="45.51682" lon="5.46163">
        <ele>571</ele>
        <time>2023-08-29T07:29:05Z</time>
      </trkpt>
      <trkpt lat="45.51678" lon="5.46169">
        <ele>571</ele>
        <time>2023-08-29T07:29:06Z</time>
      </trkpt>
      <trkpt lat="45.51673" lon="5.46174">
        <ele>570.8</ele>
        <time>2023-08-29T07:29:07Z</time>
      </trkpt>
      <trkpt lat="45.51669" lon="5.4618">
        <ele>570.6</ele>
        <time>2023-08-29T07:29:08Z</time>
      </trkpt>
      <trkpt lat="45.51664" lon="5.46186">
        <ele>570.4</ele>
        <time>2023-08-29T07:29:09Z</time>
      </trkpt>
      <trkpt lat="45.5166" lon="5.46192">
        <ele>570.4</ele>
        <time>2023-08-29T07:29:10Z</time>
      </trkpt>
      <trkpt lat="45.51656" lon="5.46198">
        <ele>570</ele>
        <time>2023-08-29T07:29:11Z</time>
      </trkpt>
      <trkpt lat="45.51651" lon="5.46203">
        <ele>569.8</ele>
        <time>2023-08-29T07:29:12Z</time>
      </trkpt>
      <trkpt lat="45.51647" lon="5.46209">
        <ele>569.8</ele>
        <time>2023-08-29T07:29:13Z</time>
      </trkpt>
      <trkpt lat="45.51642" lon="5.46215">
        <ele>569.6</ele>
        <time>2023-08-29T07:29:14Z</time>
      </trkpt>
      <trkpt lat="45.51637" lon="5.46221">
        <ele>569.4</ele>
        <time>2023-08-29T07:29:15Z</time>
      </trkpt>
      <trkpt lat="45.51633" lon="5.46227">
        <ele>569.4</ele>
        <time>2023-08-29T07:29:16Z</time>
      </trkpt>
      <trkpt lat="45.51628" lon="5.46233">
        <ele>569.2</ele>
        <time>2023-08-29T07:29:17Z</time>
      </trkpt>
      <trkpt lat="45.51624" lon="5.46239">
        <ele>569.2</ele>
        <time>2023-08-29T07:29:18Z</time>
      </trkpt>
      <trkpt lat="45.5162" lon="5.46245">
        <ele>569.2</ele>
        <time>2023-08-29T07:29:19Z</time>
      </trkpt>
      <trkpt lat="45.51615" lon="5.46251">
        <ele>569</ele>
        <time>2023-08-29T07:29:20Z</time>
      </trkpt>
      <trkpt lat="45.5161" lon="5.46257">
        <ele>568.8</ele>
        <time>2023-08-29T07:29:21Z</time>
      </trkpt>
      <trkpt lat="45.51605" lon="5.46263">
        <ele>568.8</ele>
        <time>2023-08-29T07:29:22Z</time>
      </trkpt>
      <trkpt lat="45.51601" lon="5.4627">
        <ele>568.8</ele>
        <time>2023-08-29T07:29:23Z</time>
      </trkpt>
      <trkpt lat="45.51596" lon="5.46276">
        <ele>568.4</ele>
        <time>2023-08-29T07:29:24Z</time>
      </trkpt>
      <trkpt lat="45.51591" lon="5.46282">
        <ele>568.2</ele>
        <time>2023-08-29T07:29:25Z</time>
      </trkpt>
      <trkpt lat="45.51586" lon="5.46288">
        <ele>568.2</ele>
        <time>2023-08-29T07:29:26Z</time>
      </trkpt>
      <trkpt lat="45.51581" lon="5.46294">
        <ele>568</ele>
        <time>2023-08-29T07:29:27Z</time>
      </trkpt>
      <trkpt lat="45.51576" lon="5.46299">
        <ele>567.8</ele>
        <time>2023-08-29T07:29:28Z</time>
      </trkpt>
      <trkpt lat="45.51571" lon="5.46304">
        <ele>567.8</ele>
        <time>2023-08-29T07:29:29Z</time>
      </trkpt>
      <trkpt lat="45.51566" lon="5.46309">
        <ele>567.6</ele>
        <time>2023-08-29T07:29:30Z</time>
      </trkpt>
      <trkpt lat="45.5156" lon="5.46314">
        <ele>567.6</ele>
        <time>2023-08-29T07:29:31Z</time>
      </trkpt>
      <trkpt lat="45.51554" lon="5.46318">
        <ele>567.4</ele>
        <time>2023-08-29T07:29:32Z</time>
      </trkpt>
      <trkpt lat="45.51548" lon="5.46321">
        <ele>567</ele>
        <time>2023-08-29T07:29:33Z</time>
      </trkpt>
      <trkpt lat="45.51543" lon="5.46324">
        <ele>567</ele>
        <time>2023-08-29T07:29:34Z</time>
      </trkpt>
      <trkpt lat="45.51537" lon="5.46326">
        <ele>567</ele>
        <time>2023-08-29T07:29:35Z</time>
      </trkpt>
      <trkpt lat="45.51531" lon="5.46328">
        <ele>567</ele>
        <time>2023-08-29T07:29:36Z</time>
      </trkpt>
      <trkpt lat="45.51525" lon="5.4633">
        <ele>567</ele>
        <time>2023-08-29T07:29:37Z</time>
      </trkpt>
      <trkpt lat="45.51518" lon="5.46331">
        <ele>567</ele>
        <time>2023-08-29T07:29:38Z</time>
      </trkpt>
      <trkpt lat="45.51513" lon="5.46333">
        <ele>567.2</ele>
        <time>2023-08-29T07:29:39Z</time>
      </trkpt>
      <trkpt lat="45.51507" lon="5.46334">
        <ele>567.4</ele>
        <time>2023-08-29T07:29:40Z</time>
      </trkpt>
      <trkpt lat="45.51502" lon="5.46335">
        <ele>567.4</ele>
        <time>2023-08-29T07:29:41Z</time>
      </trkpt>
      <trkpt lat="45.51496" lon="5.46337">
        <ele>567.4</ele>
        <time>2023-08-29T07:29:42Z</time>
      </trkpt>
      <trkpt lat="45.5149" lon="5.46338">
        <ele>567.4</ele>
        <time>2023-08-29T07:29:43Z</time>
      </trkpt>
      <trkpt lat="45.51485" lon="5.46339">
        <ele>567.4</ele>
        <time>2023-08-29T07:29:44Z</time>
      </trkpt>
      <trkpt lat="45.51479" lon="5.4634">
        <ele>567.6</ele>
        <time>2023-08-29T07:29:45Z</time>
      </trkpt>
      <trkpt lat="45.51473" lon="5.46341">
        <ele>567.6</ele>
        <time>2023-08-29T07:29:46Z</time>
      </trkpt>
      <trkpt lat="45.51468" lon="5.46342">
        <ele>567.6</ele>
        <time>2023-08-29T07:29:47Z</time>
      </trkpt>
      <trkpt lat="45.51462" lon="5.46343">
        <ele>567.6</ele>
        <time>2023-08-29T07:29:48Z</time>
      </trkpt>
      <trkpt lat="45.51457" lon="5.46344">
        <ele>567.6</ele>
        <time>2023-08-29T07:29:49Z</time>
      </trkpt>
      <trkpt lat="45.51451" lon="5.46345">
        <ele>567.4</ele>
        <time>2023-08-29T07:29:50Z</time>
      </trkpt>
      <trkpt lat="45.51446" lon="5.46346">
        <ele>567.4</ele>
        <time>2023-08-29T07:29:51Z</time>
      </trkpt>
      <trkpt lat="45.51441" lon="5.46347">
        <ele>567.4</ele>
        <time>2023-08-29T07:29:52Z</time>
      </trkpt>
      <trkpt lat="45.51435" lon="5.46348">
        <ele>567.4</ele>
        <time>2023-08-29T07:29:53Z</time>
      </trkpt>
      <trkpt lat="45.5143" lon="5.46349">
        <ele>567.4</ele>
        <time>2023-08-29T07:29:54Z</time>
      </trkpt>
      <trkpt lat="45.51425" lon="5.4635">
        <ele>567.4</ele>
        <time>2023-08-29T07:29:55Z</time>
      </trkpt>
      <trkpt lat="45.5142" lon="5.46351">
        <ele>567.4</ele>
        <time>2023-08-29T07:29:56Z</time>
      </trkpt>
      <trkpt lat="45.51415" lon="5.46351">
        <ele>567.4</ele>
        <time>2023-08-29T07:29:57Z</time>
      </trkpt>
      <trkpt lat="45.5141" lon="5.46353">
        <ele>567.4</ele>
        <time>2023-08-29T07:29:58Z</time>
      </trkpt>
      <trkpt lat="45.51405" lon="5.46353">
        <ele>567.6</ele>
        <time>2023-08-29T07:29:59Z</time>
      </trkpt>
      <trkpt lat="45.514" lon="5.46354">
        <ele>567.6</ele>
        <time>2023-08-29T07:30:00Z</time>
      </trkpt>
      <trkpt lat="45.51396" lon="5.46355">
        <ele>567.6</ele>
        <time>2023-08-29T07:30:01Z</time>
      </trkpt>
      <trkpt lat="45.51391" lon="5.46356">
        <ele>567.8</ele>
        <time>2023-08-29T07:30:02Z</time>
      </trkpt>
      <trkpt lat="45.51386" lon="5.46357">
        <ele>568</ele>
        <time>2023-08-29T07:30:03Z</time>
      </trkpt>
      <trkpt lat="45.51382" lon="5.46358">
        <ele>568</ele>
        <time>2023-08-29T07:30:04Z</time>
      </trkpt>
      <trkpt lat="45.51377" lon="5.46358">
        <ele>568.2</ele>
        <time>2023-08-29T07:30:05Z</time>
      </trkpt>
      <trkpt lat="45.51373" lon="5.46359">
        <ele>568.2</ele>
        <time>2023-08-29T07:30:06Z</time>
      </trkpt>
      <trkpt lat="45.51368" lon="5.4636">
        <ele>568.4</ele>
        <time>2023-08-29T07:30:07Z</time>
      </trkpt>
      <trkpt lat="45.51364" lon="5.46361">
        <ele>568.4</ele>
        <time>2023-08-29T07:30:08Z</time>
      </trkpt>
      <trkpt lat="45.5136" lon="5.46362">
        <ele>568.6</ele>
        <time>2023-08-29T07:30:09Z</time>
      </trkpt>
      <trkpt lat="45.51355" lon="5.46363">
        <ele>568.6</ele>
        <time>2023-08-29T07:30:10Z</time>
      </trkpt>
      <trkpt lat="45.51351" lon="5.46364">
        <ele>568.8</ele>
        <time>2023-08-29T07:30:11Z</time>
      </trkpt>
      <trkpt lat="45.51347" lon="5.46365">
        <ele>568.8</ele>
        <time>2023-08-29T07:30:12Z</time>
      </trkpt>
      <trkpt lat="45.51342" lon="5.46365">
        <ele>569</ele>
        <time>2023-08-29T07:30:13Z</time>
      </trkpt>
      <trkpt lat="45.51338" lon="5.46367">
        <ele>569</ele>
        <time>2023-08-29T07:30:14Z</time>
      </trkpt>
      <trkpt lat="45.51333" lon="5.46367">
        <ele>569</ele>
        <time>2023-08-29T07:30:15Z</time>
      </trkpt>
      <trkpt lat="45.51328" lon="5.46368">
        <ele>569</ele>
        <time>2023-08-29T07:30:16Z</time>
      </trkpt>
      <trkpt lat="45.51324" lon="5.46369">
        <ele>569.2</ele>
        <time>2023-08-29T07:30:17Z</time>
      </trkpt>
      <trkpt lat="45.5132" lon="5.46369">
        <ele>569.2</ele>
        <time>2023-08-29T07:30:18Z</time>
      </trkpt>
      <trkpt lat="45.51316" lon="5.4637">
        <ele>569.2</ele>
        <time>2023-08-29T07:30:19Z</time>
      </trkpt>
      <trkpt lat="45.51311" lon="5.46371">
        <ele>569.2</ele>
        <time>2023-08-29T07:30:20Z</time>
      </trkpt>
      <trkpt lat="45.51307" lon="5.46372">
        <ele>569.2</ele>
        <time>2023-08-29T07:30:21Z</time>
      </trkpt>
      <trkpt lat="45.51302" lon="5.46373">
        <ele>569.2</ele>
        <time>2023-08-29T07:30:22Z</time>
      </trkpt>
      <trkpt lat="45.51298" lon="5.46374">
        <ele>569.4</ele>
        <time>2023-08-29T07:30:23Z</time>
      </trkpt>
      <trkpt lat="45.51293" lon="5.46375">
        <ele>569.4</ele>
        <time>2023-08-29T07:30:24Z</time>
      </trkpt>
      <trkpt lat="45.51289" lon="5.46375">
        <ele>569.6</ele>
        <time>2023-08-29T07:30:25Z</time>
      </trkpt>
      <trkpt lat="45.51284" lon="5.46376">
        <ele>569.6</ele>
        <time>2023-08-29T07:30:26Z</time>
      </trkpt>
      <trkpt lat="45.5128" lon="5.46377">
        <ele>569.6</ele>
        <time>2023-08-29T07:30:27Z</time>
      </trkpt>
      <trkpt lat="45.51275" lon="5.46377">
        <ele>569.8</ele>
        <time>2023-08-29T07:30:28Z</time>
      </trkpt>
      <trkpt lat="45.51271" lon="5.46378">
        <ele>569.8</ele>
        <time>2023-08-29T07:30:29Z</time>
      </trkpt>
      <trkpt lat="45.51267" lon="5.46378">
        <ele>570</ele>
        <time>2023-08-29T07:30:30Z</time>
      </trkpt>
      <trkpt lat="45.51262" lon="5.4638">
        <ele>570</ele>
        <time>2023-08-29T07:30:31Z</time>
      </trkpt>
      <trkpt lat="45.51257" lon="5.4638">
        <ele>570</ele>
        <time>2023-08-29T07:30:32Z</time>
      </trkpt>
      <trkpt lat="45.51252" lon="5.46381">
        <ele>570</ele>
        <time>2023-08-29T07:30:33Z</time>
      </trkpt>
      <trkpt lat="45.51248" lon="5.46382">
        <ele>570</ele>
        <time>2023-08-29T07:30:34Z</time>
      </trkpt>
      <trkpt lat="45.51243" lon="5.46384">
        <ele>570</ele>
        <time>2023-08-29T07:30:35Z</time>
      </trkpt>
      <trkpt lat="45.51239" lon="5.46384">
        <ele>570</ele>
        <time>2023-08-29T07:30:36Z</time>
      </trkpt>
      <trkpt lat="45.51234" lon="5.46385">
        <ele>570</ele>
        <time>2023-08-29T07:30:37Z</time>
      </trkpt>
      <trkpt lat="45.51229" lon="5.46386">
        <ele>570</ele>
        <time>2023-08-29T07:30:38Z</time>
      </trkpt>
      <trkpt lat="45.51223" lon="5.46387">
        <ele>569.8</ele>
        <time>2023-08-29T07:30:39Z</time>
      </trkpt>
      <trkpt lat="45.51218" lon="5.46388">
        <ele>569.8</ele>
        <time>2023-08-29T07:30:40Z</time>
      </trkpt>
      <trkpt lat="45.51212" lon="5.46389">
        <ele>569.6</ele>
        <time>2023-08-29T07:30:41Z</time>
      </trkpt>
      <trkpt lat="45.51206" lon="5.4639">
        <ele>569.6</ele>
        <time>2023-08-29T07:30:42Z</time>
      </trkpt>
      <trkpt lat="45.51201" lon="5.46391">
        <ele>569.4</ele>
        <time>2023-08-29T07:30:43Z</time>
      </trkpt>
      <trkpt lat="45.51195" lon="5.46392">
        <ele>569.2</ele>
        <time>2023-08-29T07:30:44Z</time>
      </trkpt>
      <trkpt lat="45.51189" lon="5.46393">
        <ele>569</ele>
        <time>2023-08-29T07:30:45Z</time>
      </trkpt>
      <trkpt lat="45.51183" lon="5.46393">
        <ele>568.8</ele>
        <time>2023-08-29T07:30:46Z</time>
      </trkpt>
      <trkpt lat="45.51177" lon="5.46395">
        <ele>568.6</ele>
        <time>2023-08-29T07:30:47Z</time>
      </trkpt>
      <trkpt lat="45.51172" lon="5.46395">
        <ele>568.6</ele>
        <time>2023-08-29T07:30:48Z</time>
      </trkpt>
      <trkpt lat="45.51166" lon="5.46396">
        <ele>568.2</ele>
        <time>2023-08-29T07:30:49Z</time>
      </trkpt>
      <trkpt lat="45.51161" lon="5.46397">
        <ele>568</ele>
        <time>2023-08-29T07:30:50Z</time>
      </trkpt>
      <trkpt lat="45.51156" lon="5.46398">
        <ele>568</ele>
        <time>2023-08-29T07:30:51Z</time>
      </trkpt>
      <trkpt lat="45.5115" lon="5.46399">
        <ele>568</ele>
        <time>2023-08-29T07:30:52Z</time>
      </trkpt>
      <trkpt lat="45.51145" lon="5.464">
        <ele>568</ele>
        <time>2023-08-29T07:30:53Z</time>
      </trkpt>
      <trkpt lat="45.51139" lon="5.46401">
        <ele>568</ele>
        <time>2023-08-29T07:30:54Z</time>
      </trkpt>
      <trkpt lat="45.51133" lon="5.46402">
        <ele>567.8</ele>
        <time>2023-08-29T07:30:55Z</time>
      </trkpt>
      <trkpt lat="45.51127" lon="5.46403">
        <ele>567.8</ele>
        <time>2023-08-29T07:30:56Z</time>
      </trkpt>
      <trkpt lat="45.51121" lon="5.46404">
        <ele>567.6</ele>
        <time>2023-08-29T07:30:57Z</time>
      </trkpt>
      <trkpt lat="45.51115" lon="5.46406">
        <ele>567.6</ele>
        <time>2023-08-29T07:30:58Z</time>
      </trkpt>
      <trkpt lat="45.51108" lon="5.46408">
        <ele>567.6</ele>
        <time>2023-08-29T07:30:59Z</time>
      </trkpt>
      <trkpt lat="45.51102" lon="5.46409">
        <ele>567.4</ele>
        <time>2023-08-29T07:31:00Z</time>
      </trkpt>
      <trkpt lat="45.51095" lon="5.4641">
        <ele>567.4</ele>
        <time>2023-08-29T07:31:01Z</time>
      </trkpt>
      <trkpt lat="45.51088" lon="5.4641">
        <ele>567.2</ele>
        <time>2023-08-29T07:31:02Z</time>
      </trkpt>
      <trkpt lat="45.51082" lon="5.46411">
        <ele>567</ele>
        <time>2023-08-29T07:31:03Z</time>
      </trkpt>
      <trkpt lat="45.51075" lon="5.46412">
        <ele>566.6</ele>
        <time>2023-08-29T07:31:04Z</time>
      </trkpt>
      <trkpt lat="45.51068" lon="5.46414">
        <ele>566.4</ele>
        <time>2023-08-29T07:31:05Z</time>
      </trkpt>
      <trkpt lat="45.5106" lon="5.46415">
        <ele>566.2</ele>
        <time>2023-08-29T07:31:06Z</time>
      </trkpt>
      <trkpt lat="45.51053" lon="5.46416">
        <ele>566</ele>
        <time>2023-08-29T07:31:07Z</time>
      </trkpt>
      <trkpt lat="45.51046" lon="5.46417">
        <ele>565.8</ele>
        <time>2023-08-29T07:31:08Z</time>
      </trkpt>
      <trkpt lat="45.51039" lon="5.46418">
        <ele>565.6</ele>
        <time>2023-08-29T07:31:09Z</time>
      </trkpt>
      <trkpt lat="45.51032" lon="5.46419">
        <ele>565.4</ele>
        <time>2023-08-29T07:31:10Z</time>
      </trkpt>
      <trkpt lat="45.51024" lon="5.46419">
        <ele>565.2</ele>
        <time>2023-08-29T07:31:11Z</time>
      </trkpt>
      <trkpt lat="45.51017" lon="5.4642">
        <ele>565</ele>
        <time>2023-08-29T07:31:12Z</time>
      </trkpt>
      <trkpt lat="45.51011" lon="5.4642">
        <ele>564.8</ele>
        <time>2023-08-29T07:31:13Z</time>
      </trkpt>
      <trkpt lat="45.51003" lon="5.4642">
        <ele>564.6</ele>
        <time>2023-08-29T07:31:14Z</time>
      </trkpt>
      <trkpt lat="45.50995" lon="5.4642">
        <ele>564.6</ele>
        <time>2023-08-29T07:31:15Z</time>
      </trkpt>
      <trkpt lat="45.50988" lon="5.46419">
        <ele>564.4</ele>
        <time>2023-08-29T07:31:16Z</time>
      </trkpt>
      <trkpt lat="45.50979" lon="5.46419">
        <ele>564.2</ele>
        <time>2023-08-29T07:31:17Z</time>
      </trkpt>
      <trkpt lat="45.50971" lon="5.46419">
        <ele>563.6</ele>
        <time>2023-08-29T07:31:18Z</time>
      </trkpt>
      <trkpt lat="45.50963" lon="5.46419">
        <ele>563.4</ele>
        <time>2023-08-29T07:31:19Z</time>
      </trkpt>
      <trkpt lat="45.50954" lon="5.4642">
        <ele>562.8</ele>
        <time>2023-08-29T07:31:20Z</time>
      </trkpt>
      <trkpt lat="45.50944" lon="5.4642">
        <ele>562.4</ele>
        <time>2023-08-29T07:31:21Z</time>
      </trkpt>
      <trkpt lat="45.50935" lon="5.46421">
        <ele>561.8</ele>
        <time>2023-08-29T07:31:22Z</time>
      </trkpt>
      <trkpt lat="45.50926" lon="5.46422">
        <ele>561.2</ele>
        <time>2023-08-29T07:31:23Z</time>
      </trkpt>
      <trkpt lat="45.50917" lon="5.46424">
        <ele>560.8</ele>
        <time>2023-08-29T07:31:24Z</time>
      </trkpt>
      <trkpt lat="45.50908" lon="5.46428">
        <ele>559.8</ele>
        <time>2023-08-29T07:31:25Z</time>
      </trkpt>
      <trkpt lat="45.50899" lon="5.46434">
        <ele>559.4</ele>
        <time>2023-08-29T07:31:26Z</time>
      </trkpt>
      <trkpt lat="45.50891" lon="5.46441">
        <ele>558.6</ele>
        <time>2023-08-29T07:31:27Z</time>
      </trkpt>
      <trkpt lat="45.50883" lon="5.46449">
        <ele>558.4</ele>
        <time>2023-08-29T07:31:28Z</time>
      </trkpt>
      <trkpt lat="45.50875" lon="5.46458">
        <ele>558</ele>
        <time>2023-08-29T07:31:29Z</time>
      </trkpt>
      <trkpt lat="45.50868" lon="5.46467">
        <ele>557.6</ele>
        <time>2023-08-29T07:31:30Z</time>
      </trkpt>
      <trkpt lat="45.50861" lon="5.46477">
        <ele>557.4</ele>
        <time>2023-08-29T07:31:31Z</time>
      </trkpt>
      <trkpt lat="45.50853" lon="5.46487">
        <ele>557.4</ele>
        <time>2023-08-29T07:31:32Z</time>
      </trkpt>
      <trkpt lat="45.50846" lon="5.46496">
        <ele>557.4</ele>
        <time>2023-08-29T07:31:33Z</time>
      </trkpt>
      <trkpt lat="45.50838" lon="5.46505">
        <ele>557.4</ele>
        <time>2023-08-29T07:31:34Z</time>
      </trkpt>
      <trkpt lat="45.5083" lon="5.46513">
        <ele>557.4</ele>
        <time>2023-08-29T07:31:35Z</time>
      </trkpt>
      <trkpt lat="45.50821" lon="5.46523">
        <ele>557.2</ele>
        <time>2023-08-29T07:31:36Z</time>
      </trkpt>
      <trkpt lat="45.50813" lon="5.46531">
        <ele>556.8</ele>
        <time>2023-08-29T07:31:37Z</time>
      </trkpt>
      <trkpt lat="45.50804" lon="5.46537">
        <ele>556</ele>
        <time>2023-08-29T07:31:38Z</time>
      </trkpt>
      <trkpt lat="45.50795" lon="5.46542">
        <ele>555</ele>
        <time>2023-08-29T07:31:39Z</time>
      </trkpt>
      <trkpt lat="45.50784" lon="5.46546">
        <ele>554.4</ele>
        <time>2023-08-29T07:31:40Z</time>
      </trkpt>
      <trkpt lat="45.50774" lon="5.46548">
        <ele>553.8</ele>
        <time>2023-08-29T07:31:41Z</time>
      </trkpt>
      <trkpt lat="45.50763" lon="5.46549">
        <ele>553.2</ele>
        <time>2023-08-29T07:31:42Z</time>
      </trkpt>
      <trkpt lat="45.50753" lon="5.46548">
        <ele>552.8</ele>
        <time>2023-08-29T07:31:43Z</time>
      </trkpt>
      <trkpt lat="45.50743" lon="5.46546">
        <ele>552.4</ele>
        <time>2023-08-29T07:31:44Z</time>
      </trkpt>
      <trkpt lat="45.50733" lon="5.46543">
        <ele>551.8</ele>
        <time>2023-08-29T07:31:45Z</time>
      </trkpt>
      <trkpt lat="45.50723" lon="5.46539">
        <ele>551.2</ele>
        <time>2023-08-29T07:31:46Z</time>
      </trkpt>
      <trkpt lat="45.50713" lon="5.46534">
        <ele>550.2</ele>
        <time>2023-08-29T07:31:47Z</time>
      </trkpt>
      <trkpt lat="45.50704" lon="5.46529">
        <ele>549.6</ele>
        <time>2023-08-29T07:31:48Z</time>
      </trkpt>
      <trkpt lat="45.50694" lon="5.46524">
        <ele>548.8</ele>
        <time>2023-08-29T07:31:49Z</time>
      </trkpt>
      <trkpt lat="45.50684" lon="5.46519">
        <ele>548.6</ele>
        <time>2023-08-29T07:31:50Z</time>
      </trkpt>
      <trkpt lat="45.50675" lon="5.46516">
        <ele>547.8</ele>
        <time>2023-08-29T07:31:51Z</time>
      </trkpt>
      <trkpt lat="45.50666" lon="5.46514">
        <ele>547.6</ele>
        <time>2023-08-29T07:31:52Z</time>
      </trkpt>
      <trkpt lat="45.50657" lon="5.46513">
        <ele>547.4</ele>
        <time>2023-08-29T07:31:53Z</time>
      </trkpt>
      <trkpt lat="45.50648" lon="5.46515">
        <ele>547.4</ele>
        <time>2023-08-29T07:31:54Z</time>
      </trkpt>
      <trkpt lat="45.50638" lon="5.46518">
        <ele>547.2</ele>
        <time>2023-08-29T07:31:55Z</time>
      </trkpt>
      <trkpt lat="45.50629" lon="5.46522">
        <ele>547.2</ele>
        <time>2023-08-29T07:31:56Z</time>
      </trkpt>
      <trkpt lat="45.50621" lon="5.46526">
        <ele>547.2</ele>
        <time>2023-08-29T07:31:57Z</time>
      </trkpt>
      <trkpt lat="45.50612" lon="5.46529">
        <ele>546.4</ele>
        <time>2023-08-29T07:31:58Z</time>
      </trkpt>
      <trkpt lat="45.50602" lon="5.4653">
        <ele>546</ele>
        <time>2023-08-29T07:31:59Z</time>
      </trkpt>
      <trkpt lat="45.50593" lon="5.46529">
        <ele>546</ele>
        <time>2023-08-29T07:32:00Z</time>
      </trkpt>
      <trkpt lat="45.50584" lon="5.46527">
        <ele>545.6</ele>
        <time>2023-08-29T07:32:01Z</time>
      </trkpt>
      <trkpt lat="45.50575" lon="5.46524">
        <ele>544.8</ele>
        <time>2023-08-29T07:32:02Z</time>
      </trkpt>
      <trkpt lat="45.50565" lon="5.46519">
        <ele>544.2</ele>
        <time>2023-08-29T07:32:03Z</time>
      </trkpt>
      <trkpt lat="45.50555" lon="5.46516">
        <ele>543.8</ele>
        <time>2023-08-29T07:32:04Z</time>
      </trkpt>
      <trkpt lat="45.50545" lon="5.46514">
        <ele>543.2</ele>
        <time>2023-08-29T07:32:05Z</time>
      </trkpt>
      <trkpt lat="45.50536" lon="5.46513">
        <ele>543</ele>
        <time>2023-08-29T07:32:06Z</time>
      </trkpt>
      <trkpt lat="45.50526" lon="5.46513">
        <ele>542.4</ele>
        <time>2023-08-29T07:32:07Z</time>
      </trkpt>
      <trkpt lat="45.50516" lon="5.46514">
        <ele>541.4</ele>
        <time>2023-08-29T07:32:08Z</time>
      </trkpt>
      <trkpt lat="45.50506" lon="5.46516">
        <ele>541.4</ele>
        <time>2023-08-29T07:32:09Z</time>
      </trkpt>
      <trkpt lat="45.50496" lon="5.46518">
        <ele>540.4</ele>
        <time>2023-08-29T07:32:10Z</time>
      </trkpt>
      <trkpt lat="45.50486" lon="5.46519">
        <ele>539.4</ele>
        <time>2023-08-29T07:32:11Z</time>
      </trkpt>
      <trkpt lat="45.50476" lon="5.4652">
        <ele>539</ele>
        <time>2023-08-29T07:32:12Z</time>
      </trkpt>
      <trkpt lat="45.50466" lon="5.46519">
        <ele>538.2</ele>
        <time>2023-08-29T07:32:13Z</time>
      </trkpt>
      <trkpt lat="45.50456" lon="5.46516">
        <ele>537.8</ele>
        <time>2023-08-29T07:32:14Z</time>
      </trkpt>
      <trkpt lat="45.50447" lon="5.46514">
        <ele>537.4</ele>
        <time>2023-08-29T07:32:15Z</time>
      </trkpt>
      <trkpt lat="45.50437" lon="5.46511">
        <ele>537.2</ele>
        <time>2023-08-29T07:32:16Z</time>
      </trkpt>
      <trkpt lat="45.50428" lon="5.4651">
        <ele>536.8</ele>
        <time>2023-08-29T07:32:17Z</time>
      </trkpt>
      <trkpt lat="45.50418" lon="5.46511">
        <ele>536.6</ele>
        <time>2023-08-29T07:32:18Z</time>
      </trkpt>
      <trkpt lat="45.50409" lon="5.46514">
        <ele>536.6</ele>
        <time>2023-08-29T07:32:19Z</time>
      </trkpt>
      <trkpt lat="45.50399" lon="5.46518">
        <ele>536.4</ele>
        <time>2023-08-29T07:32:20Z</time>
      </trkpt>
      <trkpt lat="45.5039" lon="5.46524">
        <ele>536.4</ele>
        <time>2023-08-29T07:32:21Z</time>
      </trkpt>
      <trkpt lat="45.50382" lon="5.4653">
        <ele>536.4</ele>
        <time>2023-08-29T07:32:22Z</time>
      </trkpt>
      <trkpt lat="45.50373" lon="5.46538">
        <ele>536</ele>
        <time>2023-08-29T07:32:23Z</time>
      </trkpt>
      <trkpt lat="45.50366" lon="5.46545">
        <ele>536</ele>
        <time>2023-08-29T07:32:24Z</time>
      </trkpt>
      <trkpt lat="45.50358" lon="5.46552">
        <ele>536</ele>
        <time>2023-08-29T07:32:25Z</time>
      </trkpt>
      <trkpt lat="45.5035" lon="5.46556">
        <ele>535.8</ele>
        <time>2023-08-29T07:32:26Z</time>
      </trkpt>
      <trkpt lat="45.50341" lon="5.46558">
        <ele>535.6</ele>
        <time>2023-08-29T07:32:27Z</time>
      </trkpt>
      <trkpt lat="45.50332" lon="5.46558">
        <ele>535.6</ele>
        <time>2023-08-29T07:32:28Z</time>
      </trkpt>
      <trkpt lat="45.50323" lon="5.46557">
        <ele>535.4</ele>
        <time>2023-08-29T07:32:29Z</time>
      </trkpt>
      <trkpt lat="45.50314" lon="5.46556">
        <ele>535.2</ele>
        <time>2023-08-29T07:32:30Z</time>
      </trkpt>
      <trkpt lat="45.50304" lon="5.46556">
        <ele>535</ele>
        <time>2023-08-29T07:32:31Z</time>
      </trkpt>
      <trkpt lat="45.50295" lon="5.46558">
        <ele>534.6</ele>
        <time>2023-08-29T07:32:32Z</time>
      </trkpt>
      <trkpt lat="45.50286" lon="5.46563">
        <ele>534.4</ele>
        <time>2023-08-29T07:32:33Z</time>
      </trkpt>
      <trkpt lat="45.50278" lon="5.46568">
        <ele>534.2</ele>
        <time>2023-08-29T07:32:34Z</time>
      </trkpt>
      <trkpt lat="45.50269" lon="5.46573">
        <ele>533.6</ele>
        <time>2023-08-29T07:32:35Z</time>
      </trkpt>
      <trkpt lat="45.5026" lon="5.46578">
        <ele>533.4</ele>
        <time>2023-08-29T07:32:36Z</time>
      </trkpt>
      <trkpt lat="45.50251" lon="5.46581">
        <ele>533.2</ele>
        <time>2023-08-29T07:32:37Z</time>
      </trkpt>
      <trkpt lat="45.50241" lon="5.46585">
        <ele>532.8</ele>
        <time>2023-08-29T07:32:38Z</time>
      </trkpt>
      <trkpt lat="45.50231" lon="5.46588">
        <ele>532.6</ele>
        <time>2023-08-29T07:32:39Z</time>
      </trkpt>
      <trkpt lat="45.50221" lon="5.46589">
        <ele>532.4</ele>
        <time>2023-08-29T07:32:40Z</time>
      </trkpt>
      <trkpt lat="45.50211" lon="5.46589">
        <ele>531.8</ele>
        <time>2023-08-29T07:32:41Z</time>
      </trkpt>
      <trkpt lat="45.50201" lon="5.46587">
        <ele>531.2</ele>
        <time>2023-08-29T07:32:42Z</time>
      </trkpt>
      <trkpt lat="45.50191" lon="5.46585">
        <ele>530.8</ele>
        <time>2023-08-29T07:32:43Z</time>
      </trkpt>
      <trkpt lat="45.5018" lon="5.46581">
        <ele>530.8</ele>
        <time>2023-08-29T07:32:44Z</time>
      </trkpt>
      <trkpt lat="45.50171" lon="5.46576">
        <ele>529.8</ele>
        <time>2023-08-29T07:32:45Z</time>
      </trkpt>
      <trkpt lat="45.50162" lon="5.46571">
        <ele>529.2</ele>
        <time>2023-08-29T07:32:46Z</time>
      </trkpt>
      <trkpt lat="45.50152" lon="5.46567">
        <ele>528.8</ele>
        <time>2023-08-29T07:32:47Z</time>
      </trkpt>
      <trkpt lat="45.50141" lon="5.46565">
        <ele>528.2</ele>
        <time>2023-08-29T07:32:48Z</time>
      </trkpt>
      <trkpt lat="45.50129" lon="5.46564">
        <ele>527.8</ele>
        <time>2023-08-29T07:32:49Z</time>
      </trkpt>
      <trkpt lat="45.50117" lon="5.46565">
        <ele>527.4</ele>
        <time>2023-08-29T07:32:50Z</time>
      </trkpt>
      <trkpt lat="45.50107" lon="5.46568">
        <ele>526.8</ele>
        <time>2023-08-29T07:32:51Z</time>
      </trkpt>
      <trkpt lat="45.50096" lon="5.46572">
        <ele>526.2</ele>
        <time>2023-08-29T07:32:52Z</time>
      </trkpt>
      <trkpt lat="45.50085" lon="5.46579">
        <ele>525.6</ele>
        <time>2023-08-29T07:32:53Z</time>
      </trkpt>
      <trkpt lat="45.50075" lon="5.46585">
        <ele>524.8</ele>
        <time>2023-08-29T07:32:54Z</time>
      </trkpt>
      <trkpt lat="45.50065" lon="5.46591">
        <ele>524.4</ele>
        <time>2023-08-29T07:32:55Z</time>
      </trkpt>
      <trkpt lat="45.50056" lon="5.46596">
        <ele>523.6</ele>
        <time>2023-08-29T07:32:56Z</time>
      </trkpt>
      <trkpt lat="45.50045" lon="5.46599">
        <ele>523</ele>
        <time>2023-08-29T07:32:57Z</time>
      </trkpt>
      <trkpt lat="45.50034" lon="5.466">
        <ele>522.4</ele>
        <time>2023-08-29T07:32:58Z</time>
      </trkpt>
      <trkpt lat="45.50024" lon="5.46598">
        <ele>522</ele>
        <time>2023-08-29T07:32:59Z</time>
      </trkpt>
      <trkpt lat="45.50013" lon="5.46595">
        <ele>521.6</ele>
        <time>2023-08-29T07:33:00Z</time>
      </trkpt>
      <trkpt lat="45.50003" lon="5.46591">
        <ele>521</ele>
        <time>2023-08-29T07:33:01Z</time>
      </trkpt>
      <trkpt lat="45.49992" lon="5.46586">
        <ele>520.4</ele>
        <time>2023-08-29T07:33:02Z</time>
      </trkpt>
      <trkpt lat="45.49981" lon="5.46582">
        <ele>519.2</ele>
        <time>2023-08-29T07:33:03Z</time>
      </trkpt>
      <trkpt lat="45.4997" lon="5.46578">
        <ele>518.4</ele>
        <time>2023-08-29T07:33:04Z</time>
      </trkpt>
      <trkpt lat="45.4996" lon="5.46574">
        <ele>518</ele>
        <time>2023-08-29T07:33:05Z</time>
      </trkpt>
      <trkpt lat="45.49949" lon="5.46569">
        <ele>517.4</ele>
        <time>2023-08-29T07:33:06Z</time>
      </trkpt>
      <trkpt lat="45.49939" lon="5.46564">
        <ele>516.8</ele>
        <time>2023-08-29T07:33:07Z</time>
      </trkpt>
      <trkpt lat="45.49928" lon="5.46558">
        <ele>516.2</ele>
        <time>2023-08-29T07:33:08Z</time>
      </trkpt>
      <trkpt lat="45.49917" lon="5.46551">
        <ele>515.4</ele>
        <time>2023-08-29T07:33:09Z</time>
      </trkpt>
      <trkpt lat="45.49907" lon="5.46544">
        <ele>514.2</ele>
        <time>2023-08-29T07:33:10Z</time>
      </trkpt>
      <trkpt lat="45.49896" lon="5.46537">
        <ele>513.4</ele>
        <time>2023-08-29T07:33:11Z</time>
      </trkpt>
      <trkpt lat="45.49886" lon="5.46531">
        <ele>512.8</ele>
        <time>2023-08-29T07:33:12Z</time>
      </trkpt>
      <trkpt lat="45.49877" lon="5.46524">
        <ele>511.4</ele>
        <time>2023-08-29T07:33:13Z</time>
      </trkpt>
      <trkpt lat="45.49868" lon="5.46518">
        <ele>510.2</ele>
        <time>2023-08-29T07:33:14Z</time>
      </trkpt>
      <trkpt lat="45.4986" lon="5.4651">
        <ele>509.6</ele>
        <time>2023-08-29T07:33:15Z</time>
      </trkpt>
      <trkpt lat="45.49854" lon="5.46501">
        <ele>509.4</ele>
        <time>2023-08-29T07:33:16Z</time>
      </trkpt>
      <trkpt lat="45.49849" lon="5.4649">
        <ele>509.2</ele>
        <time>2023-08-29T07:33:17Z</time>
      </trkpt>
      <trkpt lat="45.49846" lon="5.46479">
        <ele>509.2</ele>
        <time>2023-08-29T07:33:18Z</time>
      </trkpt>
      <trkpt lat="45.49843" lon="5.46468">
        <ele>509.2</ele>
        <time>2023-08-29T07:33:19Z</time>
      </trkpt>
      <trkpt lat="45.49842" lon="5.46456">
        <ele>509.2</ele>
        <time>2023-08-29T07:33:20Z</time>
      </trkpt>
      <trkpt lat="45.49843" lon="5.46443">
        <ele>509.2</ele>
        <time>2023-08-29T07:33:21Z</time>
      </trkpt>
      <trkpt lat="45.49845" lon="5.4643">
        <ele>509.2</ele>
        <time>2023-08-29T07:33:22Z</time>
      </trkpt>
      <trkpt lat="45.49848" lon="5.46418">
        <ele>509.2</ele>
        <time>2023-08-29T07:33:23Z</time>
      </trkpt>
      <trkpt lat="45.49851" lon="5.46405">
        <ele>508.4</ele>
        <time>2023-08-29T07:33:24Z</time>
      </trkpt>
      <trkpt lat="45.49854" lon="5.46392">
        <ele>508.2</ele>
        <time>2023-08-29T07:33:25Z</time>
      </trkpt>
      <trkpt lat="45.49856" lon="5.46379">
        <ele>507.6</ele>
        <time>2023-08-29T07:33:26Z</time>
      </trkpt>
      <trkpt lat="45.49859" lon="5.46366">
        <ele>507.4</ele>
        <time>2023-08-29T07:33:27Z</time>
      </trkpt>
      <trkpt lat="45.49861" lon="5.46354">
        <ele>507.2</ele>
        <time>2023-08-29T07:33:28Z</time>
      </trkpt>
      <trkpt lat="45.49862" lon="5.46341">
        <ele>506.2</ele>
        <time>2023-08-29T07:33:29Z</time>
      </trkpt>
      <trkpt lat="45.49863" lon="5.46328">
        <ele>505.4</ele>
        <time>2023-08-29T07:33:30Z</time>
      </trkpt>
      <trkpt lat="45.49864" lon="5.46314">
        <ele>505.4</ele>
        <time>2023-08-29T07:33:31Z</time>
      </trkpt>
      <trkpt lat="45.49863" lon="5.463">
        <ele>505.2</ele>
        <time>2023-08-29T07:33:32Z</time>
      </trkpt>
      <trkpt lat="45.49862" lon="5.46287">
        <ele>504.8</ele>
        <time>2023-08-29T07:33:33Z</time>
      </trkpt>
      <trkpt lat="45.49861" lon="5.46275">
        <ele>504.4</ele>
        <time>2023-08-29T07:33:34Z</time>
      </trkpt>
      <trkpt lat="45.49859" lon="5.46262">
        <ele>504.2</ele>
        <time>2023-08-29T07:33:35Z</time>
      </trkpt>
      <trkpt lat="45.49857" lon="5.4625">
        <ele>504</ele>
        <time>2023-08-29T07:33:36Z</time>
      </trkpt>
      <trkpt lat="45.49855" lon="5.46239">
        <ele>503.6</ele>
        <time>2023-08-29T07:33:37Z</time>
      </trkpt>
      <trkpt lat="45.49854" lon="5.46227">
        <ele>503</ele>
        <time>2023-08-29T07:33:38Z</time>
      </trkpt>
      <trkpt lat="45.49853" lon="5.46215">
        <ele>502.4</ele>
        <time>2023-08-29T07:33:39Z</time>
      </trkpt>
      <trkpt lat="45.49854" lon="5.46204">
        <ele>502.2</ele>
        <time>2023-08-29T07:33:40Z</time>
      </trkpt>
      <trkpt lat="45.49855" lon="5.46192">
        <ele>502.2</ele>
        <time>2023-08-29T07:33:41Z</time>
      </trkpt>
      <trkpt lat="45.49857" lon="5.4618">
        <ele>502.2</ele>
        <time>2023-08-29T07:33:42Z</time>
      </trkpt>
      <trkpt lat="45.4986" lon="5.46169">
        <ele>502.2</ele>
        <time>2023-08-29T07:33:43Z</time>
      </trkpt>
      <trkpt lat="45.49864" lon="5.46158">
        <ele>502.4</ele>
        <time>2023-08-29T07:33:44Z</time>
      </trkpt>
      <trkpt lat="45.49868" lon="5.46147">
        <ele>502.4</ele>
        <time>2023-08-29T07:33:45Z</time>
      </trkpt>
      <trkpt lat="45.49873" lon="5.46137">
        <ele>502.4</ele>
        <time>2023-08-29T07:33:46Z</time>
      </trkpt>
      <trkpt lat="45.49879" lon="5.46127">
        <ele>502.4</ele>
        <time>2023-08-29T07:33:47Z</time>
      </trkpt>
      <trkpt lat="45.49885" lon="5.46118">
        <ele>502.2</ele>
        <time>2023-08-29T07:33:48Z</time>
      </trkpt>
      <trkpt lat="45.49891" lon="5.46109">
        <ele>501.6</ele>
        <time>2023-08-29T07:33:49Z</time>
      </trkpt>
      <trkpt lat="45.49898" lon="5.46101">
        <ele>501</ele>
        <time>2023-08-29T07:33:50Z</time>
      </trkpt>
      <trkpt lat="45.49906" lon="5.46093">
        <ele>500.6</ele>
        <time>2023-08-29T07:33:51Z</time>
      </trkpt>
      <trkpt lat="45.49913" lon="5.46086">
        <ele>500</ele>
        <time>2023-08-29T07:33:52Z</time>
      </trkpt>
      <trkpt lat="45.49921" lon="5.4608">
        <ele>499.6</ele>
        <time>2023-08-29T07:33:53Z</time>
      </trkpt>
      <trkpt lat="45.49929" lon="5.46074">
        <ele>499.2</ele>
        <time>2023-08-29T07:33:54Z</time>
      </trkpt>
      <trkpt lat="45.49937" lon="5.46068">
        <ele>498.6</ele>
        <time>2023-08-29T07:33:55Z</time>
      </trkpt>
      <trkpt lat="45.49945" lon="5.46062">
        <ele>498.6</ele>
        <time>2023-08-29T07:33:56Z</time>
      </trkpt>
      <trkpt lat="45.49951" lon="5.46055">
        <ele>497.8</ele>
        <time>2023-08-29T07:33:57Z</time>
      </trkpt>
      <trkpt lat="45.49954" lon="5.46047">
        <ele>497.2</ele>
        <time>2023-08-29T07:33:58Z</time>
      </trkpt>
      <trkpt lat="45.49956" lon="5.46039">
        <ele>497.2</ele>
        <time>2023-08-29T07:33:59Z</time>
      </trkpt>
      <trkpt lat="45.49954" lon="5.46032">
        <ele>497.2</ele>
        <time>2023-08-29T07:34:00Z</time>
      </trkpt>
      <trkpt lat="45.49949" lon="5.46029">
        <ele>497.2</ele>
        <time>2023-08-29T07:34:01Z</time>
      </trkpt>
      <trkpt lat="45.49944" lon="5.46029">
        <ele>497.4</ele>
        <time>2023-08-29T07:34:02Z</time>
      </trkpt>
      <trkpt lat="45.49938" lon="5.46031">
        <ele>497.8</ele>
        <time>2023-08-29T07:34:03Z</time>
      </trkpt>
      <trkpt lat="45.49933" lon="5.46036">
        <ele>497.8</ele>
        <time>2023-08-29T07:34:04Z</time>
      </trkpt>
      <trkpt lat="45.49926" lon="5.46042">
        <ele>497.8</ele>
        <time>2023-08-29T07:34:05Z</time>
      </trkpt>
      <trkpt lat="45.4992" lon="5.46048">
        <ele>497.8</ele>
        <time>2023-08-29T07:34:06Z</time>
      </trkpt>
      <trkpt lat="45.49913" lon="5.46054">
        <ele>497.6</ele>
        <time>2023-08-29T07:34:07Z</time>
      </trkpt>
      <trkpt lat="45.49906" lon="5.4606">
        <ele>497.4</ele>
        <time>2023-08-29T07:34:08Z</time>
      </trkpt>
      <trkpt lat="45.49899" lon="5.46067">
        <ele>496.6</ele>
        <time>2023-08-29T07:34:09Z</time>
      </trkpt>
      <trkpt lat="45.49891" lon="5.46074">
        <ele>496.2</ele>
        <time>2023-08-29T07:34:10Z</time>
      </trkpt>
      <trkpt lat="45.49883" lon="5.46082">
        <ele>495.4</ele>
        <time>2023-08-29T07:34:11Z</time>
      </trkpt>
      <trkpt lat="45.49875" lon="5.46089">
        <ele>495.2</ele>
        <time>2023-08-29T07:34:12Z</time>
      </trkpt>
      <trkpt lat="45.49867" lon="5.46098">
        <ele>494.6</ele>
        <time>2023-08-29T07:34:13Z</time>
      </trkpt>
      <trkpt lat="45.49859" lon="5.46105">
        <ele>493.6</ele>
        <time>2023-08-29T07:34:14Z</time>
      </trkpt>
      <trkpt lat="45.4985" lon="5.46114">
        <ele>493</ele>
        <time>2023-08-29T07:34:15Z</time>
      </trkpt>
      <trkpt lat="45.49842" lon="5.46123">
        <ele>491.8</ele>
        <time>2023-08-29T07:34:16Z</time>
      </trkpt>
      <trkpt lat="45.49833" lon="5.46133">
        <ele>490.8</ele>
        <time>2023-08-29T07:34:17Z</time>
      </trkpt>
      <trkpt lat="45.49825" lon="5.46145">
        <ele>490</ele>
        <time>2023-08-29T07:34:18Z</time>
      </trkpt>
      <trkpt lat="45.49818" lon="5.46157">
        <ele>489.4</ele>
        <time>2023-08-29T07:34:19Z</time>
      </trkpt>
      <trkpt lat="45.49813" lon="5.46169">
        <ele>489</ele>
        <time>2023-08-29T07:34:20Z</time>
      </trkpt>
      <trkpt lat="45.49808" lon="5.46182">
        <ele>488.2</ele>
        <time>2023-08-29T07:34:21Z</time>
      </trkpt>
      <trkpt lat="45.49805" lon="5.46196">
        <ele>487.2</ele>
        <time>2023-08-29T07:34:22Z</time>
      </trkpt>
      <trkpt lat="45.49803" lon="5.4621">
        <ele>486.6</ele>
        <time>2023-08-29T07:34:23Z</time>
      </trkpt>
      <trkpt lat="45.49802" lon="5.46225">
        <ele>485.6</ele>
        <time>2023-08-29T07:34:24Z</time>
      </trkpt>
      <trkpt lat="45.49801" lon="5.46241">
        <ele>485</ele>
        <time>2023-08-29T07:34:25Z</time>
      </trkpt>
      <trkpt lat="45.498" lon="5.46256">
        <ele>484.4</ele>
        <time>2023-08-29T07:34:26Z</time>
      </trkpt>
      <trkpt lat="45.49799" lon="5.46272">
        <ele>483.4</ele>
        <time>2023-08-29T07:34:27Z</time>
      </trkpt>
      <trkpt lat="45.49799" lon="5.46289">
        <ele>482.4</ele>
        <time>2023-08-29T07:34:28Z</time>
      </trkpt>
      <trkpt lat="45.49798" lon="5.46305">
        <ele>481.8</ele>
        <time>2023-08-29T07:34:29Z</time>
      </trkpt>
      <trkpt lat="45.49796" lon="5.4632">
        <ele>481.4</ele>
        <time>2023-08-29T07:34:30Z</time>
      </trkpt>
      <trkpt lat="45.49794" lon="5.46335">
        <ele>481.4</ele>
        <time>2023-08-29T07:34:31Z</time>
      </trkpt>
      <trkpt lat="45.4979" lon="5.46349">
        <ele>480.2</ele>
        <time>2023-08-29T07:34:32Z</time>
      </trkpt>
      <trkpt lat="45.49785" lon="5.46363">
        <ele>479.6</ele>
        <time>2023-08-29T07:34:33Z</time>
      </trkpt>
      <trkpt lat="45.4978" lon="5.46375">
        <ele>478.6</ele>
        <time>2023-08-29T07:34:34Z</time>
      </trkpt>
      <trkpt lat="45.49773" lon="5.46386">
        <ele>477.8</ele>
        <time>2023-08-29T07:34:35Z</time>
      </trkpt>
      <trkpt lat="45.49765" lon="5.46395">
        <ele>476.8</ele>
        <time>2023-08-29T07:34:36Z</time>
      </trkpt>
      <trkpt lat="45.49757" lon="5.46401">
        <ele>475.8</ele>
        <time>2023-08-29T07:34:37Z</time>
      </trkpt>
      <trkpt lat="45.49747" lon="5.46407">
        <ele>474.6</ele>
        <time>2023-08-29T07:34:38Z</time>
      </trkpt>
      <trkpt lat="45.49738" lon="5.46412">
        <ele>474</ele>
        <time>2023-08-29T07:34:39Z</time>
      </trkpt>
      <trkpt lat="45.49727" lon="5.46417">
        <ele>473.4</ele>
        <time>2023-08-29T07:34:40Z</time>
      </trkpt>
      <trkpt lat="45.49717" lon="5.46421">
        <ele>473</ele>
        <time>2023-08-29T07:34:41Z</time>
      </trkpt>
      <trkpt lat="45.49706" lon="5.46424">
        <ele>473</ele>
        <time>2023-08-29T07:34:42Z</time>
      </trkpt>
      <trkpt lat="45.49695" lon="5.46426">
        <ele>472.6</ele>
        <time>2023-08-29T07:34:43Z</time>
      </trkpt>
      <trkpt lat="45.49684" lon="5.46428">
        <ele>472.2</ele>
        <time>2023-08-29T07:34:44Z</time>
      </trkpt>
      <trkpt lat="45.49673" lon="5.46431">
        <ele>471.6</ele>
        <time>2023-08-29T07:34:45Z</time>
      </trkpt>
      <trkpt lat="45.49663" lon="5.46435">
        <ele>470.8</ele>
        <time>2023-08-29T07:34:46Z</time>
      </trkpt>
      <trkpt lat="45.49653" lon="5.4644">
        <ele>470.4</ele>
        <time>2023-08-29T07:34:47Z</time>
      </trkpt>
      <trkpt lat="45.49644" lon="5.46447">
        <ele>469.6</ele>
        <time>2023-08-29T07:34:48Z</time>
      </trkpt>
      <trkpt lat="45.49637" lon="5.46456">
        <ele>468.8</ele>
        <time>2023-08-29T07:34:49Z</time>
      </trkpt>
      <trkpt lat="45.49631" lon="5.46468">
        <ele>468.2</ele>
        <time>2023-08-29T07:34:50Z</time>
      </trkpt>
      <trkpt lat="45.49626" lon="5.46481">
        <ele>467.6</ele>
        <time>2023-08-29T07:34:51Z</time>
      </trkpt>
      <trkpt lat="45.49625" lon="5.46496">
        <ele>467.4</ele>
        <time>2023-08-29T07:34:52Z</time>
      </trkpt>
      <trkpt lat="45.49625" lon="5.46511">
        <ele>466.6</ele>
        <time>2023-08-29T07:34:53Z</time>
      </trkpt>
      <trkpt lat="45.49626" lon="5.46527">
        <ele>465.2</ele>
        <time>2023-08-29T07:34:54Z</time>
      </trkpt>
      <trkpt lat="45.49626" lon="5.46543">
        <ele>463.8</ele>
        <time>2023-08-29T07:34:55Z</time>
      </trkpt>
      <trkpt lat="45.49627" lon="5.4656">
        <ele>463.2</ele>
        <time>2023-08-29T07:34:56Z</time>
      </trkpt>
      <trkpt lat="45.49627" lon="5.46577">
        <ele>461.8</ele>
        <time>2023-08-29T07:34:57Z</time>
      </trkpt>
      <trkpt lat="45.49626" lon="5.46593">
        <ele>461</ele>
        <time>2023-08-29T07:34:58Z</time>
      </trkpt>
      <trkpt lat="45.49625" lon="5.4661">
        <ele>460.6</ele>
        <time>2023-08-29T07:34:59Z</time>
      </trkpt>
      <trkpt lat="45.49622" lon="5.46627">
        <ele>459.6</ele>
        <time>2023-08-29T07:35:00Z</time>
      </trkpt>
      <trkpt lat="45.4962" lon="5.46643">
        <ele>458</ele>
        <time>2023-08-29T07:35:01Z</time>
      </trkpt>
      <trkpt lat="45.49617" lon="5.46658">
        <ele>456.2</ele>
        <time>2023-08-29T07:35:02Z</time>
      </trkpt>
      <trkpt lat="45.49612" lon="5.46673">
        <ele>455</ele>
        <time>2023-08-29T07:35:03Z</time>
      </trkpt>
      <trkpt lat="45.49607" lon="5.46688">
        <ele>454.2</ele>
        <time>2023-08-29T07:35:04Z</time>
      </trkpt>
      <trkpt lat="45.49601" lon="5.46703">
        <ele>453.4</ele>
        <time>2023-08-29T07:35:05Z</time>
      </trkpt>
      <trkpt lat="45.49594" lon="5.46717">
        <ele>452.6</ele>
        <time>2023-08-29T07:35:06Z</time>
      </trkpt>
      <trkpt lat="45.49587" lon="5.46731">
        <ele>452.6</ele>
        <time>2023-08-29T07:35:07Z</time>
      </trkpt>
      <trkpt lat="45.49581" lon="5.46746">
        <ele>451.6</ele>
        <time>2023-08-29T07:35:08Z</time>
      </trkpt>
      <trkpt lat="45.49574" lon="5.46761">
        <ele>450.8</ele>
        <time>2023-08-29T07:35:09Z</time>
      </trkpt>
      <trkpt lat="45.49568" lon="5.46776">
        <ele>449.6</ele>
        <time>2023-08-29T07:35:10Z</time>
      </trkpt>
      <trkpt lat="45.49561" lon="5.46791">
        <ele>448.4</ele>
        <time>2023-08-29T07:35:11Z</time>
      </trkpt>
      <trkpt lat="45.49554" lon="5.46806">
        <ele>447.2</ele>
        <time>2023-08-29T07:35:12Z</time>
      </trkpt>
      <trkpt lat="45.49547" lon="5.46822">
        <ele>446.4</ele>
        <time>2023-08-29T07:35:13Z</time>
      </trkpt>
      <trkpt lat="45.4954" lon="5.46837">
        <ele>445.6</ele>
        <time>2023-08-29T07:35:14Z</time>
      </trkpt>
      <trkpt lat="45.49533" lon="5.46853">
        <ele>444.4</ele>
        <time>2023-08-29T07:35:15Z</time>
      </trkpt>
      <trkpt lat="45.49526" lon="5.4687">
        <ele>443.8</ele>
        <time>2023-08-29T07:35:16Z</time>
      </trkpt>
      <trkpt lat="45.49519" lon="5.46886">
        <ele>443.6</ele>
        <time>2023-08-29T07:35:17Z</time>
      </trkpt>
      <trkpt lat="45.49512" lon="5.46902">
        <ele>443.4</ele>
        <time>2023-08-29T07:35:18Z</time>
      </trkpt>
      <trkpt lat="45.49504" lon="5.46918">
        <ele>442.4</ele>
        <time>2023-08-29T07:35:19Z</time>
      </trkpt>
      <trkpt lat="45.49497" lon="5.46934">
        <ele>440.8</ele>
        <time>2023-08-29T07:35:20Z</time>
      </trkpt>
      <trkpt lat="45.4949" lon="5.4695">
        <ele>440</ele>
        <time>2023-08-29T07:35:21Z</time>
      </trkpt>
      <trkpt lat="45.49483" lon="5.46966">
        <ele>439.4</ele>
        <time>2023-08-29T07:35:22Z</time>
      </trkpt>
      <trkpt lat="45.49476" lon="5.46981">
        <ele>438.8</ele>
        <time>2023-08-29T07:35:23Z</time>
      </trkpt>
      <trkpt lat="45.4947" lon="5.46995">
        <ele>438.2</ele>
        <time>2023-08-29T07:35:24Z</time>
      </trkpt>
      <trkpt lat="45.49463" lon="5.47007">
        <ele>437.4</ele>
        <time>2023-08-29T07:35:25Z</time>
      </trkpt>
      <trkpt lat="45.49456" lon="5.47017">
        <ele>436.8</ele>
        <time>2023-08-29T07:35:26Z</time>
      </trkpt>
      <trkpt lat="45.49449" lon="5.47025">
        <ele>435.6</ele>
        <time>2023-08-29T07:35:27Z</time>
      </trkpt>
      <trkpt lat="45.4944" lon="5.4703">
        <ele>434.6</ele>
        <time>2023-08-29T07:35:28Z</time>
      </trkpt>
      <trkpt lat="45.49431" lon="5.47033">
        <ele>433.8</ele>
        <time>2023-08-29T07:35:29Z</time>
      </trkpt>
      <trkpt lat="45.49421" lon="5.47033">
        <ele>433.4</ele>
        <time>2023-08-29T07:35:30Z</time>
      </trkpt>
      <trkpt lat="45.49411" lon="5.47031">
        <ele>433.2</ele>
        <time>2023-08-29T07:35:31Z</time>
      </trkpt>
      <trkpt lat="45.49401" lon="5.47027">
        <ele>433.2</ele>
        <time>2023-08-29T07:35:32Z</time>
      </trkpt>
      <trkpt lat="45.4939" lon="5.47022">
        <ele>433</ele>
        <time>2023-08-29T07:35:33Z</time>
      </trkpt>
      <trkpt lat="45.4938" lon="5.47017">
        <ele>433</ele>
        <time>2023-08-29T07:35:34Z</time>
      </trkpt>
      <trkpt lat="45.4937" lon="5.4701">
        <ele>432.4</ele>
        <time>2023-08-29T07:35:35Z</time>
      </trkpt>
      <trkpt lat="45.49361" lon="5.47003">
        <ele>431.8</ele>
        <time>2023-08-29T07:35:36Z</time>
      </trkpt>
      <trkpt lat="45.49352" lon="5.46994">
        <ele>431.4</ele>
        <time>2023-08-29T07:35:37Z</time>
      </trkpt>
      <trkpt lat="45.49343" lon="5.46985">
        <ele>430.8</ele>
        <time>2023-08-29T07:35:38Z</time>
      </trkpt>
      <trkpt lat="45.49333" lon="5.46977">
        <ele>430</ele>
        <time>2023-08-29T07:35:39Z</time>
      </trkpt>
      <trkpt lat="45.49323" lon="5.46969">
        <ele>429.6</ele>
        <time>2023-08-29T07:35:40Z</time>
      </trkpt>
      <trkpt lat="45.49313" lon="5.46963">
        <ele>429</ele>
        <time>2023-08-29T07:35:41Z</time>
      </trkpt>
      <trkpt lat="45.49302" lon="5.46957">
        <ele>429</ele>
        <time>2023-08-29T07:35:42Z</time>
      </trkpt>
      <trkpt lat="45.49291" lon="5.46952">
        <ele>428.2</ele>
        <time>2023-08-29T07:35:43Z</time>
      </trkpt>
      <trkpt lat="45.49281" lon="5.46948">
        <ele>427.2</ele>
        <time>2023-08-29T07:35:44Z</time>
      </trkpt>
      <trkpt lat="45.4927" lon="5.46947">
        <ele>426.8</ele>
        <time>2023-08-29T07:35:45Z</time>
      </trkpt>
      <trkpt lat="45.49258" lon="5.46947">
        <ele>425.6</ele>
        <time>2023-08-29T07:35:46Z</time>
      </trkpt>
      <trkpt lat="45.49247" lon="5.46948">
        <ele>425</ele>
        <time>2023-08-29T07:35:47Z</time>
      </trkpt>
      <trkpt lat="45.49236" lon="5.4695">
        <ele>424.6</ele>
        <time>2023-08-29T07:35:48Z</time>
      </trkpt>
      <trkpt lat="45.49226" lon="5.46954">
        <ele>423.8</ele>
        <time>2023-08-29T07:35:49Z</time>
      </trkpt>
      <trkpt lat="45.49215" lon="5.46958">
        <ele>423.2</ele>
        <time>2023-08-29T07:35:50Z</time>
      </trkpt>
      <trkpt lat="45.49204" lon="5.46962">
        <ele>422.8</ele>
        <time>2023-08-29T07:35:51Z</time>
      </trkpt>
      <trkpt lat="45.49193" lon="5.46967">
        <ele>422.2</ele>
        <time>2023-08-29T07:35:52Z</time>
      </trkpt>
      <trkpt lat="45.49182" lon="5.46971">
        <ele>421.6</ele>
        <time>2023-08-29T07:35:53Z</time>
      </trkpt>
      <trkpt lat="45.49171" lon="5.46975">
        <ele>421</ele>
        <time>2023-08-29T07:35:54Z</time>
      </trkpt>
      <trkpt lat="45.49159" lon="5.46979">
        <ele>420.4</ele>
        <time>2023-08-29T07:35:55Z</time>
      </trkpt>
      <trkpt lat="45.49148" lon="5.46984">
        <ele>419.6</ele>
        <time>2023-08-29T07:35:56Z</time>
      </trkpt>
      <trkpt lat="45.49136" lon="5.46989">
        <ele>419</ele>
        <time>2023-08-29T07:35:57Z</time>
      </trkpt>
      <trkpt lat="45.49124" lon="5.46994">
        <ele>418.2</ele>
        <time>2023-08-29T07:35:58Z</time>
      </trkpt>
      <trkpt lat="45.49114" lon="5.46999">
        <ele>416.8</ele>
        <time>2023-08-29T07:35:59Z</time>
      </trkpt>
      <trkpt lat="45.49104" lon="5.47005">
        <ele>416</ele>
        <time>2023-08-29T07:36:00Z</time>
      </trkpt>
      <trkpt lat="45.49095" lon="5.47011">
        <ele>414.8</ele>
        <time>2023-08-29T07:36:01Z</time>
      </trkpt>
      <trkpt lat="45.49086" lon="5.47018">
        <ele>414.2</ele>
        <time>2023-08-29T07:36:02Z</time>
      </trkpt>
      <trkpt lat="45.49079" lon="5.47024">
        <ele>413</ele>
        <time>2023-08-29T07:36:03Z</time>
      </trkpt>
      <trkpt lat="45.49073" lon="5.47032">
        <ele>412.6</ele>
        <time>2023-08-29T07:36:04Z</time>
      </trkpt>
      <trkpt lat="45.49067" lon="5.47038">
        <ele>412</ele>
        <time>2023-08-29T07:36:05Z</time>
      </trkpt>
      <trkpt lat="45.49063" lon="5.47044">
        <ele>411.4</ele>
        <time>2023-08-29T07:36:06Z</time>
      </trkpt>
      <trkpt lat="45.49059" lon="5.47049">
        <ele>410.6</ele>
        <time>2023-08-29T07:36:07Z</time>
      </trkpt>
      <trkpt lat="45.49055" lon="5.47054">
        <ele>410.2</ele>
        <time>2023-08-29T07:36:08Z</time>
      </trkpt>
      <trkpt lat="45.49052" lon="5.47059">
        <ele>410</ele>
        <time>2023-08-29T07:36:09Z</time>
      </trkpt>
      <trkpt lat="45.49049" lon="5.47063">
        <ele>409.8</ele>
        <time>2023-08-29T07:36:10Z</time>
      </trkpt>
      <trkpt lat="45.49045" lon="5.47067">
        <ele>409.8</ele>
        <time>2023-08-29T07:36:11Z</time>
      </trkpt>
      <trkpt lat="45.49041" lon="5.47072">
        <ele>409.8</ele>
        <time>2023-08-29T07:36:12Z</time>
      </trkpt>
      <trkpt lat="45.49038" lon="5.47078">
        <ele>409.6</ele>
        <time>2023-08-29T07:36:13Z</time>
      </trkpt>
      <trkpt lat="45.49033" lon="5.47086">
        <ele>409.6</ele>
        <time>2023-08-29T07:36:14Z</time>
      </trkpt>
      <trkpt lat="45.49027" lon="5.47094">
        <ele>409.4</ele>
        <time>2023-08-29T07:36:15Z</time>
      </trkpt>
      <trkpt lat="45.49021" lon="5.47103">
        <ele>409</ele>
        <time>2023-08-29T07:36:16Z</time>
      </trkpt>
      <trkpt lat="45.49015" lon="5.47112">
        <ele>408</ele>
        <time>2023-08-29T07:36:17Z</time>
      </trkpt>
      <trkpt lat="45.49008" lon="5.47122">
        <ele>408</ele>
        <time>2023-08-29T07:36:18Z</time>
      </trkpt>
      <trkpt lat="45.49001" lon="5.47131">
        <ele>407.6</ele>
        <time>2023-08-29T07:36:19Z</time>
      </trkpt>
      <trkpt lat="45.48994" lon="5.47141">
        <ele>407.4</ele>
        <time>2023-08-29T07:36:20Z</time>
      </trkpt>
      <trkpt lat="45.48986" lon="5.47151">
        <ele>406.2</ele>
        <time>2023-08-29T07:36:21Z</time>
      </trkpt>
      <trkpt lat="45.48979" lon="5.47162">
        <ele>405.6</ele>
        <time>2023-08-29T07:36:22Z</time>
      </trkpt>
      <trkpt lat="45.48971" lon="5.47172">
        <ele>404.8</ele>
        <time>2023-08-29T07:36:23Z</time>
      </trkpt>
      <trkpt lat="45.48964" lon="5.47182">
        <ele>404</ele>
        <time>2023-08-29T07:36:24Z</time>
      </trkpt>
      <trkpt lat="45.48956" lon="5.47193">
        <ele>403.4</ele>
        <time>2023-08-29T07:36:25Z</time>
      </trkpt>
      <trkpt lat="45.48948" lon="5.47203">
        <ele>402.4</ele>
        <time>2023-08-29T07:36:26Z</time>
      </trkpt>
      <trkpt lat="45.48941" lon="5.47215">
        <ele>401.6</ele>
        <time>2023-08-29T07:36:27Z</time>
      </trkpt>
      <trkpt lat="45.48934" lon="5.47226">
        <ele>400.4</ele>
        <time>2023-08-29T07:36:28Z</time>
      </trkpt>
      <trkpt lat="45.48927" lon="5.47236">
        <ele>399.4</ele>
        <time>2023-08-29T07:36:29Z</time>
      </trkpt>
      <trkpt lat="45.4892" lon="5.47247">
        <ele>398.2</ele>
        <time>2023-08-29T07:36:30Z</time>
      </trkpt>
      <trkpt lat="45.48913" lon="5.47256">
        <ele>397.4</ele>
        <time>2023-08-29T07:36:31Z</time>
      </trkpt>
      <trkpt lat="45.48908" lon="5.47265">
        <ele>396</ele>
        <time>2023-08-29T07:36:32Z</time>
      </trkpt>
      <trkpt lat="45.48902" lon="5.47273">
        <ele>395.8</ele>
        <time>2023-08-29T07:36:33Z</time>
      </trkpt>
      <trkpt lat="45.48896" lon="5.47281">
        <ele>395.2</ele>
        <time>2023-08-29T07:36:34Z</time>
      </trkpt>
      <trkpt lat="45.48891" lon="5.47289">
        <ele>395.2</ele>
        <time>2023-08-29T07:36:35Z</time>
      </trkpt>
      <trkpt lat="45.48886" lon="5.47298">
        <ele>395.2</ele>
        <time>2023-08-29T07:36:36Z</time>
      </trkpt>
      <trkpt lat="45.48881" lon="5.47308">
        <ele>395</ele>
        <time>2023-08-29T07:36:37Z</time>
      </trkpt>
      <trkpt lat="45.48879" lon="5.47316">
        <ele>394.8</ele>
        <time>2023-08-29T07:36:38Z</time>
      </trkpt>
      <trkpt lat="45.48877" lon="5.47325">
        <ele>394.6</ele>
        <time>2023-08-29T07:36:39Z</time>
      </trkpt>
      <trkpt lat="45.48875" lon="5.47336">
        <ele>393.6</ele>
        <time>2023-08-29T07:36:40Z</time>
      </trkpt>
      <trkpt lat="45.48873" lon="5.47345">
        <ele>393.2</ele>
        <time>2023-08-29T07:36:41Z</time>
      </trkpt>
      <trkpt lat="45.4887" lon="5.47355">
        <ele>393.2</ele>
        <time>2023-08-29T07:36:42Z</time>
      </trkpt>
      <trkpt lat="45.48868" lon="5.47363">
        <ele>393.2</ele>
        <time>2023-08-29T07:36:43Z</time>
      </trkpt>
      <trkpt lat="45.48865" lon="5.4737">
        <ele>393.2</ele>
        <time>2023-08-29T07:36:44Z</time>
      </trkpt>
      <trkpt lat="45.48863" lon="5.47375">
        <ele>393.2</ele>
        <time>2023-08-29T07:36:45Z</time>
      </trkpt>
      <trkpt lat="45.48861" lon="5.47379">
        <ele>393.2</ele>
        <time>2023-08-29T07:36:46Z</time>
      </trkpt>
      <trkpt lat="45.48858" lon="5.47382">
        <ele>393.2</ele>
        <time>2023-08-29T07:36:47Z</time>
      </trkpt>
      <trkpt lat="45.48857" lon="5.47384">
        <ele>393.2</ele>
        <time>2023-08-29T07:36:48Z</time>
      </trkpt>
      <trkpt lat="45.48857" lon="5.47385">
        <ele>393.4</ele>
        <time>2023-08-29T07:36:49Z</time>
      </trkpt>
      <trkpt lat="45.48857" lon="5.47385">
        <ele>393.6</ele>
        <time>2023-08-29T07:36:50Z</time>
      </trkpt>
      <trkpt lat="45.48857" lon="5.47385">
        <ele>393.8</ele>
        <time>2023-08-29T07:36:51Z</time>
      </trkpt>
      <trkpt lat="45.48861" lon="5.47389">
        <ele>393.4</ele>
        <time>2023-08-29T07:37:43Z</time>
      </trkpt>
      <trkpt lat="45.48863" lon="5.47387">
        <ele>393.4</ele>
        <time>2023-08-29T07:37:44Z</time>
      </trkpt>
      <trkpt lat="45.48864" lon="5.47384">
        <ele>393.4</ele>
        <time>2023-08-29T07:37:45Z</time>
      </trkpt>
      <trkpt lat="45.48866" lon="5.47381">
        <ele>393.4</ele>
        <time>2023-08-29T07:37:46Z</time>
      </trkpt>
      <trkpt lat="45.48867" lon="5.47377">
        <ele>393.4</ele>
        <time>2023-08-29T07:37:47Z</time>
      </trkpt>
      <trkpt lat="45.48868" lon="5.47373">
        <ele>393.4</ele>
        <time>2023-08-29T07:37:48Z</time>
      </trkpt>
      <trkpt lat="45.48869" lon="5.47369">
        <ele>393.4</ele>
        <time>2023-08-29T07:37:49Z</time>
      </trkpt>
      <trkpt lat="45.48871" lon="5.47366">
        <ele>393.4</ele>
        <time>2023-08-29T07:37:50Z</time>
      </trkpt>
      <trkpt lat="45.48872" lon="5.47362">
        <ele>393.2</ele>
        <time>2023-08-29T07:37:51Z</time>
      </trkpt>
      <trkpt lat="45.48874" lon="5.47358">
        <ele>393.2</ele>
        <time>2023-08-29T07:37:52Z</time>
      </trkpt>
      <trkpt lat="45.48877" lon="5.47355">
        <ele>393.2</ele>
        <time>2023-08-29T07:37:53Z</time>
      </trkpt>
      <trkpt lat="45.4888" lon="5.47353">
        <ele>393.2</ele>
        <time>2023-08-29T07:37:54Z</time>
      </trkpt>
      <trkpt lat="45.48883" lon="5.4735">
        <ele>393.2</ele>
        <time>2023-08-29T07:37:55Z</time>
      </trkpt>
      <trkpt lat="45.48885" lon="5.47344">
        <ele>393.2</ele>
        <time>2023-08-29T07:37:56Z</time>
      </trkpt>
      <trkpt lat="45.48885" lon="5.47338">
        <ele>393.2</ele>
        <time>2023-08-29T07:37:57Z</time>
      </trkpt>
      <trkpt lat="45.48883" lon="5.47332">
        <ele>393.2</ele>
        <time>2023-08-29T07:37:58Z</time>
      </trkpt>
      <trkpt lat="45.48883" lon="5.47327">
        <ele>393.2</ele>
        <time>2023-08-29T07:37:59Z</time>
      </trkpt>
      <trkpt lat="45.48882" lon="5.47321">
        <ele>393.2</ele>
        <time>2023-08-29T07:38:00Z</time>
      </trkpt>
      <trkpt lat="45.48882" lon="5.47317">
        <ele>393.2</ele>
        <time>2023-08-29T07:38:01Z</time>
      </trkpt>
      <trkpt lat="45.48882" lon="5.47312">
        <ele>393.2</ele>
        <time>2023-08-29T07:38:02Z</time>
      </trkpt>
      <trkpt lat="45.48881" lon="5.47306">
        <ele>393.4</ele>
        <time>2023-08-29T07:38:03Z</time>
      </trkpt>
      <trkpt lat="45.48881" lon="5.473">
        <ele>393.4</ele>
        <time>2023-08-29T07:38:04Z</time>
      </trkpt>
      <trkpt lat="45.4888" lon="5.47295">
        <ele>393.8</ele>
        <time>2023-08-29T07:38:05Z</time>
      </trkpt>
      <trkpt lat="45.48879" lon="5.47289">
        <ele>393.8</ele>
        <time>2023-08-29T07:38:06Z</time>
      </trkpt>
      <trkpt lat="45.48877" lon="5.47281">
        <ele>393.8</ele>
        <time>2023-08-29T07:38:07Z</time>
      </trkpt>
      <trkpt lat="45.48876" lon="5.47274">
        <ele>393.8</ele>
        <time>2023-08-29T07:38:08Z</time>
      </trkpt>
      <trkpt lat="45.48875" lon="5.47267">
        <ele>393.8</ele>
        <time>2023-08-29T07:38:09Z</time>
      </trkpt>
      <trkpt lat="45.48873" lon="5.47261">
        <ele>393.8</ele>
        <time>2023-08-29T07:38:10Z</time>
      </trkpt>
      <trkpt lat="45.48871" lon="5.47255">
        <ele>393.4</ele>
        <time>2023-08-29T07:38:11Z</time>
      </trkpt>
      <trkpt lat="45.4887" lon="5.47248">
        <ele>393.4</ele>
        <time>2023-08-29T07:38:12Z</time>
      </trkpt>
      <trkpt lat="45.48868" lon="5.47243">
        <ele>393.2</ele>
        <time>2023-08-29T07:38:13Z</time>
      </trkpt>
      <trkpt lat="45.48867" lon="5.47237">
        <ele>393</ele>
        <time>2023-08-29T07:38:14Z</time>
      </trkpt>
      <trkpt lat="45.48865" lon="5.4723">
        <ele>393</ele>
        <time>2023-08-29T07:38:15Z</time>
      </trkpt>
      <trkpt lat="45.48864" lon="5.47224">
        <ele>393</ele>
        <time>2023-08-29T07:38:16Z</time>
      </trkpt>
      <trkpt lat="45.48862" lon="5.47217">
        <ele>393</ele>
        <time>2023-08-29T07:38:17Z</time>
      </trkpt>
      <trkpt lat="45.48861" lon="5.4721">
        <ele>393.2</ele>
        <time>2023-08-29T07:38:18Z</time>
      </trkpt>
      <trkpt lat="45.4886" lon="5.47203">
        <ele>393.2</ele>
        <time>2023-08-29T07:38:19Z</time>
      </trkpt>
      <trkpt lat="45.48858" lon="5.47197">
        <ele>393.2</ele>
        <time>2023-08-29T07:38:20Z</time>
      </trkpt>
      <trkpt lat="45.48857" lon="5.4719">
        <ele>393.4</ele>
        <time>2023-08-29T07:38:21Z</time>
      </trkpt>
      <trkpt lat="45.48855" lon="5.47183">
        <ele>393.4</ele>
        <time>2023-08-29T07:38:22Z</time>
      </trkpt>
      <trkpt lat="45.48853" lon="5.47176">
        <ele>393.4</ele>
        <time>2023-08-29T07:38:23Z</time>
      </trkpt>
      <trkpt lat="45.48851" lon="5.47169">
        <ele>393.4</ele>
        <time>2023-08-29T07:38:24Z</time>
      </trkpt>
      <trkpt lat="45.48849" lon="5.47162">
        <ele>393.4</ele>
        <time>2023-08-29T07:38:25Z</time>
      </trkpt>
      <trkpt lat="45.48847" lon="5.47156">
        <ele>393.2</ele>
        <time>2023-08-29T07:38:26Z</time>
      </trkpt>
      <trkpt lat="45.48845" lon="5.47149">
        <ele>393.2</ele>
        <time>2023-08-29T07:38:27Z</time>
      </trkpt>
      <trkpt lat="45.48844" lon="5.47142">
        <ele>393.2</ele>
        <time>2023-08-29T07:38:28Z</time>
      </trkpt>
      <trkpt lat="45.48842" lon="5.47135">
        <ele>393.2</ele>
        <time>2023-08-29T07:38:29Z</time>
      </trkpt>
      <trkpt lat="45.4884" lon="5.47129">
        <ele>393</ele>
        <time>2023-08-29T07:38:30Z</time>
      </trkpt>
      <trkpt lat="45.48838" lon="5.47122">
        <ele>393</ele>
        <time>2023-08-29T07:38:31Z</time>
      </trkpt>
      <trkpt lat="45.48836" lon="5.47114">
        <ele>393</ele>
        <time>2023-08-29T07:38:32Z</time>
      </trkpt>
      <trkpt lat="45.48835" lon="5.47108">
        <ele>393</ele>
        <time>2023-08-29T07:38:33Z</time>
      </trkpt>
      <trkpt lat="45.48833" lon="5.47102">
        <ele>393.2</ele>
        <time>2023-08-29T07:38:34Z</time>
      </trkpt>
      <trkpt lat="45.48831" lon="5.47096">
        <ele>393.2</ele>
        <time>2023-08-29T07:38:35Z</time>
      </trkpt>
      <trkpt lat="45.48829" lon="5.4709">
        <ele>393.6</ele>
        <time>2023-08-29T07:38:36Z</time>
      </trkpt>
      <trkpt lat="45.48827" lon="5.47084">
        <ele>393.6</ele>
        <time>2023-08-29T07:38:37Z</time>
      </trkpt>
      <trkpt lat="45.48825" lon="5.47077">
        <ele>393.6</ele>
        <time>2023-08-29T07:38:38Z</time>
      </trkpt>
      <trkpt lat="45.48823" lon="5.47069">
        <ele>393.6</ele>
        <time>2023-08-29T07:38:39Z</time>
      </trkpt>
      <trkpt lat="45.48821" lon="5.4706">
        <ele>393.6</ele>
        <time>2023-08-29T07:38:40Z</time>
      </trkpt>
      <trkpt lat="45.48819" lon="5.47052">
        <ele>393.6</ele>
        <time>2023-08-29T07:38:41Z</time>
      </trkpt>
      <trkpt lat="45.48817" lon="5.47044">
        <ele>393.4</ele>
        <time>2023-08-29T07:38:42Z</time>
      </trkpt>
      <trkpt lat="45.48815" lon="5.47036">
        <ele>393.4</ele>
        <time>2023-08-29T07:38:43Z</time>
      </trkpt>
      <trkpt lat="45.48812" lon="5.47029">
        <ele>393</ele>
        <time>2023-08-29T07:38:44Z</time>
      </trkpt>
      <trkpt lat="45.4881" lon="5.47021">
        <ele>393</ele>
        <time>2023-08-29T07:38:45Z</time>
      </trkpt>
      <trkpt lat="45.48808" lon="5.47014">
        <ele>393</ele>
        <time>2023-08-29T07:38:46Z</time>
      </trkpt>
      <trkpt lat="45.48805" lon="5.47005">
        <ele>393</ele>
        <time>2023-08-29T07:38:47Z</time>
      </trkpt>
      <trkpt lat="45.48803" lon="5.46997">
        <ele>393</ele>
        <time>2023-08-29T07:38:48Z</time>
      </trkpt>
      <trkpt lat="45.488" lon="5.46989">
        <ele>393</ele>
        <time>2023-08-29T07:38:49Z</time>
      </trkpt>
      <trkpt lat="45.48798" lon="5.46981">
        <ele>393</ele>
        <time>2023-08-29T07:38:50Z</time>
      </trkpt>
      <trkpt lat="45.48797" lon="5.46973">
        <ele>393</ele>
        <time>2023-08-29T07:38:51Z</time>
      </trkpt>
      <trkpt lat="45.48795" lon="5.46966">
        <ele>393</ele>
        <time>2023-08-29T07:38:52Z</time>
      </trkpt>
      <trkpt lat="45.48793" lon="5.46959">
        <ele>393</ele>
        <time>2023-08-29T07:38:53Z</time>
      </trkpt>
      <trkpt lat="45.48791" lon="5.46951">
        <ele>392.8</ele>
        <time>2023-08-29T07:38:54Z</time>
      </trkpt>
      <trkpt lat="45.48788" lon="5.46944">
        <ele>392.8</ele>
        <time>2023-08-29T07:38:55Z</time>
      </trkpt>
      <trkpt lat="45.48786" lon="5.46936">
        <ele>392.6</ele>
        <time>2023-08-29T07:38:56Z</time>
      </trkpt>
      <trkpt lat="45.48784" lon="5.46929">
        <ele>392.6</ele>
        <time>2023-08-29T07:38:57Z</time>
      </trkpt>
      <trkpt lat="45.48782" lon="5.46922">
        <ele>392.8</ele>
        <time>2023-08-29T07:38:58Z</time>
      </trkpt>
      <trkpt lat="45.4878" lon="5.46916">
        <ele>392.8</ele>
        <time>2023-08-29T07:38:59Z</time>
      </trkpt>
      <trkpt lat="45.48778" lon="5.46909">
        <ele>392.8</ele>
        <time>2023-08-29T07:39:00Z</time>
      </trkpt>
      <trkpt lat="45.48777" lon="5.46902">
        <ele>392.8</ele>
        <time>2023-08-29T07:39:01Z</time>
      </trkpt>
      <trkpt lat="45.48775" lon="5.46896">
        <ele>393.2</ele>
        <time>2023-08-29T07:39:02Z</time>
      </trkpt>
      <trkpt lat="45.48773" lon="5.4689">
        <ele>393.2</ele>
        <time>2023-08-29T07:39:03Z</time>
      </trkpt>
      <trkpt lat="45.48772" lon="5.46884">
        <ele>393.4</ele>
        <time>2023-08-29T07:39:04Z</time>
      </trkpt>
      <trkpt lat="45.4877" lon="5.46877">
        <ele>393.6</ele>
        <time>2023-08-29T07:39:05Z</time>
      </trkpt>
      <trkpt lat="45.48769" lon="5.46871">
        <ele>393.8</ele>
        <time>2023-08-29T07:39:06Z</time>
      </trkpt>
      <trkpt lat="45.48767" lon="5.46866">
        <ele>394.2</ele>
        <time>2023-08-29T07:39:07Z</time>
      </trkpt>
      <trkpt lat="45.48765" lon="5.4686">
        <ele>394.6</ele>
        <time>2023-08-29T07:39:08Z</time>
      </trkpt>
      <trkpt lat="45.48763" lon="5.46855">
        <ele>394.8</ele>
        <time>2023-08-29T07:39:09Z</time>
      </trkpt>
      <trkpt lat="45.48761" lon="5.4685">
        <ele>395.2</ele>
        <time>2023-08-29T07:39:10Z</time>
      </trkpt>
      <trkpt lat="45.4876" lon="5.46845">
        <ele>395.6</ele>
        <time>2023-08-29T07:39:11Z</time>
      </trkpt>
      <trkpt lat="45.48758" lon="5.4684">
        <ele>396.2</ele>
        <time>2023-08-29T07:39:12Z</time>
      </trkpt>
      <trkpt lat="45.48757" lon="5.46835">
        <ele>396.4</ele>
        <time>2023-08-29T07:39:13Z</time>
      </trkpt>
      <trkpt lat="45.48755" lon="5.46828">
        <ele>396.8</ele>
        <time>2023-08-29T07:39:14Z</time>
      </trkpt>
      <trkpt lat="45.48754" lon="5.46823">
        <ele>397.2</ele>
        <time>2023-08-29T07:39:15Z</time>
      </trkpt>
      <trkpt lat="45.48752" lon="5.46817">
        <ele>397.6</ele>
        <time>2023-08-29T07:39:16Z</time>
      </trkpt>
      <trkpt lat="45.4875" lon="5.46812">
        <ele>397.6</ele>
        <time>2023-08-29T07:39:17Z</time>
      </trkpt>
      <trkpt lat="45.48749" lon="5.46806">
        <ele>397.8</ele>
        <time>2023-08-29T07:39:18Z</time>
      </trkpt>
      <trkpt lat="45.48747" lon="5.46801">
        <ele>398</ele>
        <time>2023-08-29T07:39:19Z</time>
      </trkpt>
      <trkpt lat="45.48746" lon="5.46797">
        <ele>398.2</ele>
        <time>2023-08-29T07:39:20Z</time>
      </trkpt>
      <trkpt lat="45.48745" lon="5.46791">
        <ele>398.2</ele>
        <time>2023-08-29T07:39:21Z</time>
      </trkpt>
      <trkpt lat="45.48743" lon="5.46786">
        <ele>398.4</ele>
        <time>2023-08-29T07:39:22Z</time>
      </trkpt>
      <trkpt lat="45.48742" lon="5.46781">
        <ele>398.6</ele>
        <time>2023-08-29T07:39:23Z</time>
      </trkpt>
      <trkpt lat="45.4874" lon="5.46777">
        <ele>399</ele>
        <time>2023-08-29T07:39:24Z</time>
      </trkpt>
      <trkpt lat="45.48739" lon="5.46771">
        <ele>399</ele>
        <time>2023-08-29T07:39:25Z</time>
      </trkpt>
      <trkpt lat="45.48738" lon="5.46765">
        <ele>399.2</ele>
        <time>2023-08-29T07:39:26Z</time>
      </trkpt>
      <trkpt lat="45.48736" lon="5.4676">
        <ele>399.6</ele>
        <time>2023-08-29T07:39:27Z</time>
      </trkpt>
      <trkpt lat="45.48736" lon="5.46756">
        <ele>399.8</ele>
        <time>2023-08-29T07:39:28Z</time>
      </trkpt>
      <trkpt lat="45.48735" lon="5.46752">
        <ele>399.8</ele>
        <time>2023-08-29T07:39:29Z</time>
      </trkpt>
      <trkpt lat="45.48734" lon="5.46749">
        <ele>400</ele>
        <time>2023-08-29T07:39:30Z</time>
      </trkpt>
      <trkpt lat="45.48733" lon="5.46745">
        <ele>400.4</ele>
        <time>2023-08-29T07:39:31Z</time>
      </trkpt>
      <trkpt lat="45.48731" lon="5.4674">
        <ele>400.8</ele>
        <time>2023-08-29T07:39:32Z</time>
      </trkpt>
      <trkpt lat="45.48729" lon="5.46735">
        <ele>401</ele>
        <time>2023-08-29T07:39:33Z</time>
      </trkpt>
      <trkpt lat="45.48728" lon="5.4673">
        <ele>401.2</ele>
        <time>2023-08-29T07:39:34Z</time>
      </trkpt>
      <trkpt lat="45.48727" lon="5.46726">
        <ele>401.6</ele>
        <time>2023-08-29T07:39:35Z</time>
      </trkpt>
      <trkpt lat="45.48726" lon="5.46722">
        <ele>401.6</ele>
        <time>2023-08-29T07:39:36Z</time>
      </trkpt>
      <trkpt lat="45.48725" lon="5.46718">
        <ele>401.6</ele>
        <time>2023-08-29T07:39:37Z</time>
      </trkpt>
      <trkpt lat="45.48724" lon="5.46714">
        <ele>402</ele>
        <time>2023-08-29T07:39:38Z</time>
      </trkpt>
      <trkpt lat="45.48723" lon="5.46709">
        <ele>402.2</ele>
        <time>2023-08-29T07:39:39Z</time>
      </trkpt>
      <trkpt lat="45.48721" lon="5.46705">
        <ele>402.2</ele>
        <time>2023-08-29T07:39:40Z</time>
      </trkpt>
      <trkpt lat="45.4872" lon="5.467">
        <ele>402.4</ele>
        <time>2023-08-29T07:39:41Z</time>
      </trkpt>
      <trkpt lat="45.48719" lon="5.46697">
        <ele>402.8</ele>
        <time>2023-08-29T07:39:42Z</time>
      </trkpt>
      <trkpt lat="45.48717" lon="5.46693">
        <ele>403</ele>
        <time>2023-08-29T07:39:43Z</time>
      </trkpt>
      <trkpt lat="45.48716" lon="5.46689">
        <ele>403.2</ele>
        <time>2023-08-29T07:39:44Z</time>
      </trkpt>
      <trkpt lat="45.48716" lon="5.46685">
        <ele>403.4</ele>
        <time>2023-08-29T07:39:45Z</time>
      </trkpt>
      <trkpt lat="45.48715" lon="5.46681">
        <ele>403.6</ele>
        <time>2023-08-29T07:39:46Z</time>
      </trkpt>
      <trkpt lat="45.48713" lon="5.46677">
        <ele>403.8</ele>
        <time>2023-08-29T07:39:47Z</time>
      </trkpt>
      <trkpt lat="45.48711" lon="5.46672">
        <ele>404</ele>
        <time>2023-08-29T07:39:48Z</time>
      </trkpt>
      <trkpt lat="45.48709" lon="5.46668">
        <ele>404.2</ele>
        <time>2023-08-29T07:39:49Z</time>
      </trkpt>
      <trkpt lat="45.48707" lon="5.46664">
        <ele>404.2</ele>
        <time>2023-08-29T07:39:50Z</time>
      </trkpt>
      <trkpt lat="45.48705" lon="5.4666">
        <ele>404.2</ele>
        <time>2023-08-29T07:39:51Z</time>
      </trkpt>
      <trkpt lat="45.48703" lon="5.46658">
        <ele>404.8</ele>
        <time>2023-08-29T07:39:52Z</time>
      </trkpt>
      <trkpt lat="45.487" lon="5.46655">
        <ele>404.8</ele>
        <time>2023-08-29T07:39:53Z</time>
      </trkpt>
      <trkpt lat="45.48698" lon="5.46651">
        <ele>405</ele>
        <time>2023-08-29T07:39:54Z</time>
      </trkpt>
      <trkpt lat="45.48696" lon="5.46648">
        <ele>405.2</ele>
        <time>2023-08-29T07:39:55Z</time>
      </trkpt>
      <trkpt lat="45.48693" lon="5.46644">
        <ele>405.4</ele>
        <time>2023-08-29T07:39:56Z</time>
      </trkpt>
      <trkpt lat="45.4869" lon="5.46641">
        <ele>405.4</ele>
        <time>2023-08-29T07:39:57Z</time>
      </trkpt>
      <trkpt lat="45.48687" lon="5.46637">
        <ele>405.4</ele>
        <time>2023-08-29T07:39:58Z</time>
      </trkpt>
      <trkpt lat="45.48684" lon="5.46633">
        <ele>405.4</ele>
        <time>2023-08-29T07:39:59Z</time>
      </trkpt>
      <trkpt lat="45.48681" lon="5.46628">
        <ele>405.4</ele>
        <time>2023-08-29T07:40:00Z</time>
      </trkpt>
      <trkpt lat="45.48678" lon="5.46624">
        <ele>405.4</ele>
        <time>2023-08-29T07:40:01Z</time>
      </trkpt>
      <trkpt lat="45.48675" lon="5.4662">
        <ele>405.2</ele>
        <time>2023-08-29T07:40:02Z</time>
      </trkpt>
      <trkpt lat="45.48672" lon="5.46616">
        <ele>405.2</ele>
        <time>2023-08-29T07:40:03Z</time>
      </trkpt>
      <trkpt lat="45.48668" lon="5.46611">
        <ele>405.2</ele>
        <time>2023-08-29T07:40:04Z</time>
      </trkpt>
      <trkpt lat="45.48665" lon="5.46607">
        <ele>405.2</ele>
        <time>2023-08-29T07:40:05Z</time>
      </trkpt>
      <trkpt lat="45.48661" lon="5.46602">
        <ele>405</ele>
        <time>2023-08-29T07:40:06Z</time>
      </trkpt>
      <trkpt lat="45.48658" lon="5.46598">
        <ele>405</ele>
        <time>2023-08-29T07:40:07Z</time>
      </trkpt>
      <trkpt lat="45.48655" lon="5.46594">
        <ele>405</ele>
        <time>2023-08-29T07:40:08Z</time>
      </trkpt>
      <trkpt lat="45.48652" lon="5.4659">
        <ele>404.8</ele>
        <time>2023-08-29T07:40:09Z</time>
      </trkpt>
      <trkpt lat="45.48649" lon="5.46586">
        <ele>404.8</ele>
        <time>2023-08-29T07:40:10Z</time>
      </trkpt>
      <trkpt lat="45.48646" lon="5.46582">
        <ele>404.8</ele>
        <time>2023-08-29T07:40:11Z</time>
      </trkpt>
      <trkpt lat="45.48643" lon="5.46578">
        <ele>404.8</ele>
        <time>2023-08-29T07:40:12Z</time>
      </trkpt>
      <trkpt lat="45.48642" lon="5.46574">
        <ele>404.8</ele>
        <time>2023-08-29T07:40:13Z</time>
      </trkpt>
      <trkpt lat="45.48639" lon="5.46569">
        <ele>404.6</ele>
        <time>2023-08-29T07:40:14Z</time>
      </trkpt>
      <trkpt lat="45.48635" lon="5.46565">
        <ele>404.8</ele>
        <time>2023-08-29T07:40:15Z</time>
      </trkpt>
      <trkpt lat="45.48632" lon="5.46562">
        <ele>404.8</ele>
        <time>2023-08-29T07:40:16Z</time>
      </trkpt>
      <trkpt lat="45.48629" lon="5.46558">
        <ele>405</ele>
        <time>2023-08-29T07:40:17Z</time>
      </trkpt>
      <trkpt lat="45.48626" lon="5.46553">
        <ele>405</ele>
        <time>2023-08-29T07:40:18Z</time>
      </trkpt>
      <trkpt lat="45.48623" lon="5.46548">
        <ele>405</ele>
        <time>2023-08-29T07:40:19Z</time>
      </trkpt>
      <trkpt lat="45.4862" lon="5.46543">
        <ele>404.8</ele>
        <time>2023-08-29T07:40:20Z</time>
      </trkpt>
      <trkpt lat="45.48617" lon="5.46538">
        <ele>404.8</ele>
        <time>2023-08-29T07:40:21Z</time>
      </trkpt>
      <trkpt lat="45.48614" lon="5.46534">
        <ele>404.8</ele>
        <time>2023-08-29T07:40:22Z</time>
      </trkpt>
      <trkpt lat="45.4861" lon="5.4653">
        <ele>404.4</ele>
        <time>2023-08-29T07:40:23Z</time>
      </trkpt>
      <trkpt lat="45.48607" lon="5.46525">
        <ele>404.2</ele>
        <time>2023-08-29T07:40:24Z</time>
      </trkpt>
      <trkpt lat="45.48604" lon="5.4652">
        <ele>404.2</ele>
        <time>2023-08-29T07:40:25Z</time>
      </trkpt>
      <trkpt lat="45.486" lon="5.46515">
        <ele>403.8</ele>
        <time>2023-08-29T07:40:26Z</time>
      </trkpt>
      <trkpt lat="45.48598" lon="5.4651">
        <ele>403.6</ele>
        <time>2023-08-29T07:40:27Z</time>
      </trkpt>
      <trkpt lat="45.48595" lon="5.46504">
        <ele>403.6</ele>
        <time>2023-08-29T07:40:28Z</time>
      </trkpt>
      <trkpt lat="45.48591" lon="5.46499">
        <ele>403.4</ele>
        <time>2023-08-29T07:40:29Z</time>
      </trkpt>
      <trkpt lat="45.48588" lon="5.46493">
        <ele>403.2</ele>
        <time>2023-08-29T07:40:30Z</time>
      </trkpt>
      <trkpt lat="45.48585" lon="5.46488">
        <ele>403.2</ele>
        <time>2023-08-29T07:40:31Z</time>
      </trkpt>
      <trkpt lat="45.48581" lon="5.46482">
        <ele>403</ele>
        <time>2023-08-29T07:40:32Z</time>
      </trkpt>
      <trkpt lat="45.48578" lon="5.46478">
        <ele>403</ele>
        <time>2023-08-29T07:40:33Z</time>
      </trkpt>
      <trkpt lat="45.48575" lon="5.46473">
        <ele>402.8</ele>
        <time>2023-08-29T07:40:34Z</time>
      </trkpt>
      <trkpt lat="45.48571" lon="5.46467">
        <ele>402.6</ele>
        <time>2023-08-29T07:40:35Z</time>
      </trkpt>
      <trkpt lat="45.48568" lon="5.46462">
        <ele>402.6</ele>
        <time>2023-08-29T07:40:36Z</time>
      </trkpt>
      <trkpt lat="45.48564" lon="5.46457">
        <ele>402.6</ele>
        <time>2023-08-29T07:40:37Z</time>
      </trkpt>
      <trkpt lat="45.48561" lon="5.46452">
        <ele>402.6</ele>
        <time>2023-08-29T07:40:38Z</time>
      </trkpt>
      <trkpt lat="45.48558" lon="5.46447">
        <ele>402.6</ele>
        <time>2023-08-29T07:40:39Z</time>
      </trkpt>
      <trkpt lat="45.48555" lon="5.46443">
        <ele>402.6</ele>
        <time>2023-08-29T07:40:40Z</time>
      </trkpt>
      <trkpt lat="45.48551" lon="5.46438">
        <ele>402.6</ele>
        <time>2023-08-29T07:40:41Z</time>
      </trkpt>
      <trkpt lat="45.48548" lon="5.46433">
        <ele>402.6</ele>
        <time>2023-08-29T07:40:42Z</time>
      </trkpt>
      <trkpt lat="45.48545" lon="5.46428">
        <ele>402.6</ele>
        <time>2023-08-29T07:40:43Z</time>
      </trkpt>
      <trkpt lat="45.48542" lon="5.46424">
        <ele>402.6</ele>
        <time>2023-08-29T07:40:44Z</time>
      </trkpt>
      <trkpt lat="45.48539" lon="5.4642">
        <ele>402.6</ele>
        <time>2023-08-29T07:40:45Z</time>
      </trkpt>
      <trkpt lat="45.48536" lon="5.46416">
        <ele>402.6</ele>
        <time>2023-08-29T07:40:46Z</time>
      </trkpt>
      <trkpt lat="45.48533" lon="5.46412">
        <ele>402.6</ele>
        <time>2023-08-29T07:40:47Z</time>
      </trkpt>
      <trkpt lat="45.4853" lon="5.46406">
        <ele>402.6</ele>
        <time>2023-08-29T07:40:48Z</time>
      </trkpt>
      <trkpt lat="45.48527" lon="5.46401">
        <ele>402.6</ele>
        <time>2023-08-29T07:40:49Z</time>
      </trkpt>
      <trkpt lat="45.48523" lon="5.46396">
        <ele>402.4</ele>
        <time>2023-08-29T07:40:50Z</time>
      </trkpt>
      <trkpt lat="45.4852" lon="5.46391">
        <ele>402.4</ele>
        <time>2023-08-29T07:40:51Z</time>
      </trkpt>
      <trkpt lat="45.48516" lon="5.46386">
        <ele>402.2</ele>
        <time>2023-08-29T07:40:52Z</time>
      </trkpt>
      <trkpt lat="45.48513" lon="5.46381">
        <ele>402</ele>
        <time>2023-08-29T07:40:53Z</time>
      </trkpt>
      <trkpt lat="45.4851" lon="5.46375">
        <ele>402</ele>
        <time>2023-08-29T07:40:54Z</time>
      </trkpt>
      <trkpt lat="45.48506" lon="5.4637">
        <ele>402</ele>
        <time>2023-08-29T07:40:55Z</time>
      </trkpt>
      <trkpt lat="45.48502" lon="5.46364">
        <ele>402</ele>
        <time>2023-08-29T07:40:56Z</time>
      </trkpt>
      <trkpt lat="45.48499" lon="5.46358">
        <ele>402.2</ele>
        <time>2023-08-29T07:40:57Z</time>
      </trkpt>
      <trkpt lat="45.48495" lon="5.46351">
        <ele>402.2</ele>
        <time>2023-08-29T07:40:58Z</time>
      </trkpt>
      <trkpt lat="45.48491" lon="5.46346">
        <ele>402.2</ele>
        <time>2023-08-29T07:40:59Z</time>
      </trkpt>
      <trkpt lat="45.48487" lon="5.4634">
        <ele>402</ele>
        <time>2023-08-29T07:41:00Z</time>
      </trkpt>
      <trkpt lat="45.48483" lon="5.46334">
        <ele>402</ele>
        <time>2023-08-29T07:41:01Z</time>
      </trkpt>
      <trkpt lat="45.48479" lon="5.46327">
        <ele>402</ele>
        <time>2023-08-29T07:41:02Z</time>
      </trkpt>
      <trkpt lat="45.48475" lon="5.46321">
        <ele>401.6</ele>
        <time>2023-08-29T07:41:03Z</time>
      </trkpt>
      <trkpt lat="45.48472" lon="5.46315">
        <ele>401.6</ele>
        <time>2023-08-29T07:41:04Z</time>
      </trkpt>
      <trkpt lat="45.48468" lon="5.46308">
        <ele>401.2</ele>
        <time>2023-08-29T07:41:05Z</time>
      </trkpt>
      <trkpt lat="45.48464" lon="5.46301">
        <ele>400.8</ele>
        <time>2023-08-29T07:41:06Z</time>
      </trkpt>
      <trkpt lat="45.4846" lon="5.46295">
        <ele>400.4</ele>
        <time>2023-08-29T07:41:07Z</time>
      </trkpt>
      <trkpt lat="45.48456" lon="5.46288">
        <ele>400</ele>
        <time>2023-08-29T07:41:08Z</time>
      </trkpt>
      <trkpt lat="45.48452" lon="5.46281">
        <ele>399.8</ele>
        <time>2023-08-29T07:41:09Z</time>
      </trkpt>
      <trkpt lat="45.48448" lon="5.46276">
        <ele>399.6</ele>
        <time>2023-08-29T07:41:10Z</time>
      </trkpt>
      <trkpt lat="45.48443" lon="5.4627">
        <ele>399.4</ele>
        <time>2023-08-29T07:41:11Z</time>
      </trkpt>
      <trkpt lat="45.48439" lon="5.46264">
        <ele>399.4</ele>
        <time>2023-08-29T07:41:12Z</time>
      </trkpt>
      <trkpt lat="45.48435" lon="5.46258">
        <ele>399.4</ele>
        <time>2023-08-29T07:41:13Z</time>
      </trkpt>
      <trkpt lat="45.48431" lon="5.46253">
        <ele>399.4</ele>
        <time>2023-08-29T07:41:14Z</time>
      </trkpt>
      <trkpt lat="45.48427" lon="5.46247">
        <ele>399.6</ele>
        <time>2023-08-29T07:41:15Z</time>
      </trkpt>
      <trkpt lat="45.48423" lon="5.46242">
        <ele>399.6</ele>
        <time>2023-08-29T07:41:16Z</time>
      </trkpt>
      <trkpt lat="45.4842" lon="5.46236">
        <ele>400</ele>
        <time>2023-08-29T07:41:17Z</time>
      </trkpt>
      <trkpt lat="45.48416" lon="5.46231">
        <ele>400</ele>
        <time>2023-08-29T07:41:18Z</time>
      </trkpt>
      <trkpt lat="45.48412" lon="5.46226">
        <ele>400</ele>
        <time>2023-08-29T07:41:19Z</time>
      </trkpt>
      <trkpt lat="45.48408" lon="5.46222">
        <ele>400</ele>
        <time>2023-08-29T07:41:20Z</time>
      </trkpt>
      <trkpt lat="45.48405" lon="5.46217">
        <ele>400.2</ele>
        <time>2023-08-29T07:41:21Z</time>
      </trkpt>
      <trkpt lat="45.48402" lon="5.46213">
        <ele>400.6</ele>
        <time>2023-08-29T07:41:22Z</time>
      </trkpt>
      <trkpt lat="45.48399" lon="5.46209">
        <ele>400.6</ele>
        <time>2023-08-29T07:41:23Z</time>
      </trkpt>
      <trkpt lat="45.48396" lon="5.46205">
        <ele>401</ele>
        <time>2023-08-29T07:41:24Z</time>
      </trkpt>
      <trkpt lat="45.48392" lon="5.462">
        <ele>401.2</ele>
        <time>2023-08-29T07:41:25Z</time>
      </trkpt>
      <trkpt lat="45.48389" lon="5.46195">
        <ele>401.4</ele>
        <time>2023-08-29T07:41:26Z</time>
      </trkpt>
      <trkpt lat="45.48386" lon="5.46191">
        <ele>401.8</ele>
        <time>2023-08-29T07:41:27Z</time>
      </trkpt>
      <trkpt lat="45.48383" lon="5.46186">
        <ele>402</ele>
        <time>2023-08-29T07:41:28Z</time>
      </trkpt>
      <trkpt lat="45.48379" lon="5.46181">
        <ele>402</ele>
        <time>2023-08-29T07:41:29Z</time>
      </trkpt>
      <trkpt lat="45.48376" lon="5.46176">
        <ele>402</ele>
        <time>2023-08-29T07:41:30Z</time>
      </trkpt>
      <trkpt lat="45.48373" lon="5.46172">
        <ele>402.2</ele>
        <time>2023-08-29T07:41:31Z</time>
      </trkpt>
      <trkpt lat="45.48371" lon="5.46167">
        <ele>402.4</ele>
        <time>2023-08-29T07:41:32Z</time>
      </trkpt>
      <trkpt lat="45.48368" lon="5.46162">
        <ele>402.6</ele>
        <time>2023-08-29T07:41:33Z</time>
      </trkpt>
      <trkpt lat="45.48365" lon="5.46158">
        <ele>402.6</ele>
        <time>2023-08-29T07:41:34Z</time>
      </trkpt>
      <trkpt lat="45.48362" lon="5.46154">
        <ele>402.8</ele>
        <time>2023-08-29T07:41:35Z</time>
      </trkpt>
      <trkpt lat="45.48359" lon="5.4615">
        <ele>403</ele>
        <time>2023-08-29T07:41:36Z</time>
      </trkpt>
      <trkpt lat="45.48356" lon="5.46146">
        <ele>403.2</ele>
        <time>2023-08-29T07:41:37Z</time>
      </trkpt>
      <trkpt lat="45.48354" lon="5.46141">
        <ele>403.6</ele>
        <time>2023-08-29T07:41:38Z</time>
      </trkpt>
      <trkpt lat="45.48351" lon="5.46136">
        <ele>403.8</ele>
        <time>2023-08-29T07:41:39Z</time>
      </trkpt>
      <trkpt lat="45.48348" lon="5.46131">
        <ele>403.8</ele>
        <time>2023-08-29T07:41:40Z</time>
      </trkpt>
      <trkpt lat="45.48344" lon="5.46126">
        <ele>403.8</ele>
        <time>2023-08-29T07:41:41Z</time>
      </trkpt>
      <trkpt lat="45.48339" lon="5.4612">
        <ele>403.8</ele>
        <time>2023-08-29T07:41:42Z</time>
      </trkpt>
      <trkpt lat="45.48334" lon="5.46115">
        <ele>403.8</ele>
        <time>2023-08-29T07:41:43Z</time>
      </trkpt>
      <trkpt lat="45.48329" lon="5.4611">
        <ele>403.6</ele>
        <time>2023-08-29T07:41:44Z</time>
      </trkpt>
      <trkpt lat="45.48324" lon="5.46105">
        <ele>403</ele>
        <time>2023-08-29T07:41:45Z</time>
      </trkpt>
      <trkpt lat="45.48318" lon="5.46099">
        <ele>402.6</ele>
        <time>2023-08-29T07:41:46Z</time>
      </trkpt>
      <trkpt lat="45.48312" lon="5.46093">
        <ele>402</ele>
        <time>2023-08-29T07:41:47Z</time>
      </trkpt>
      <trkpt lat="45.48306" lon="5.46087">
        <ele>401.6</ele>
        <time>2023-08-29T07:41:48Z</time>
      </trkpt>
      <trkpt lat="45.483" lon="5.46081">
        <ele>401.2</ele>
        <time>2023-08-29T07:41:49Z</time>
      </trkpt>
      <trkpt lat="45.48294" lon="5.46073">
        <ele>400.6</ele>
        <time>2023-08-29T07:41:50Z</time>
      </trkpt>
      <trkpt lat="45.48289" lon="5.46065">
        <ele>400.4</ele>
        <time>2023-08-29T07:41:51Z</time>
      </trkpt>
      <trkpt lat="45.48285" lon="5.46055">
        <ele>400.2</ele>
        <time>2023-08-29T07:41:52Z</time>
      </trkpt>
      <trkpt lat="45.4828" lon="5.46046">
        <ele>400</ele>
        <time>2023-08-29T07:41:53Z</time>
      </trkpt>
      <trkpt lat="45.48276" lon="5.46036">
        <ele>399.6</ele>
        <time>2023-08-29T07:41:54Z</time>
      </trkpt>
      <trkpt lat="45.48272" lon="5.46025">
        <ele>398.8</ele>
        <time>2023-08-29T07:41:55Z</time>
      </trkpt>
      <trkpt lat="45.48268" lon="5.46014">
        <ele>398.4</ele>
        <time>2023-08-29T07:41:56Z</time>
      </trkpt>
      <trkpt lat="45.48263" lon="5.46005">
        <ele>398</ele>
        <time>2023-08-29T07:41:57Z</time>
      </trkpt>
      <trkpt lat="45.48258" lon="5.45994">
        <ele>398</ele>
        <time>2023-08-29T07:41:58Z</time>
      </trkpt>
      <trkpt lat="45.48254" lon="5.45984">
        <ele>397.6</ele>
        <time>2023-08-29T07:41:59Z</time>
      </trkpt>
      <trkpt lat="45.48249" lon="5.45973">
        <ele>397</ele>
        <time>2023-08-29T07:42:00Z</time>
      </trkpt>
      <trkpt lat="45.48245" lon="5.45962">
        <ele>396.4</ele>
        <time>2023-08-29T07:42:01Z</time>
      </trkpt>
      <trkpt lat="45.4824" lon="5.45952">
        <ele>396.2</ele>
        <time>2023-08-29T07:42:02Z</time>
      </trkpt>
      <trkpt lat="45.48235" lon="5.45942">
        <ele>396</ele>
        <time>2023-08-29T07:42:03Z</time>
      </trkpt>
      <trkpt lat="45.48231" lon="5.45932">
        <ele>396</ele>
        <time>2023-08-29T07:42:04Z</time>
      </trkpt>
      <trkpt lat="45.48226" lon="5.45922">
        <ele>396</ele>
        <time>2023-08-29T07:42:05Z</time>
      </trkpt>
      <trkpt lat="45.48222" lon="5.45913">
        <ele>395.8</ele>
        <time>2023-08-29T07:42:06Z</time>
      </trkpt>
      <trkpt lat="45.48218" lon="5.45903">
        <ele>395.8</ele>
        <time>2023-08-29T07:42:07Z</time>
      </trkpt>
      <trkpt lat="45.48214" lon="5.45894">
        <ele>395.8</ele>
        <time>2023-08-29T07:42:08Z</time>
      </trkpt>
      <trkpt lat="45.4821" lon="5.45886">
        <ele>395.8</ele>
        <time>2023-08-29T07:42:09Z</time>
      </trkpt>
      <trkpt lat="45.48206" lon="5.45877">
        <ele>395.6</ele>
        <time>2023-08-29T07:42:10Z</time>
      </trkpt>
      <trkpt lat="45.48203" lon="5.4587">
        <ele>395.6</ele>
        <time>2023-08-29T07:42:11Z</time>
      </trkpt>
      <trkpt lat="45.48199" lon="5.45863">
        <ele>395.6</ele>
        <time>2023-08-29T07:42:12Z</time>
      </trkpt>
      <trkpt lat="45.48197" lon="5.45857">
        <ele>395.8</ele>
        <time>2023-08-29T07:42:13Z</time>
      </trkpt>
      <trkpt lat="45.48194" lon="5.45851">
        <ele>395.8</ele>
        <time>2023-08-29T07:42:14Z</time>
      </trkpt>
      <trkpt lat="45.48192" lon="5.45845">
        <ele>396.4</ele>
        <time>2023-08-29T07:42:15Z</time>
      </trkpt>
      <trkpt lat="45.4819" lon="5.45838">
        <ele>396.4</ele>
        <time>2023-08-29T07:42:16Z</time>
      </trkpt>
      <trkpt lat="45.48188" lon="5.45832">
        <ele>396.6</ele>
        <time>2023-08-29T07:42:17Z</time>
      </trkpt>
      <trkpt lat="45.48186" lon="5.45826">
        <ele>397</ele>
        <time>2023-08-29T07:42:18Z</time>
      </trkpt>
      <trkpt lat="45.48183" lon="5.4582">
        <ele>397.2</ele>
        <time>2023-08-29T07:42:19Z</time>
      </trkpt>
      <trkpt lat="45.48181" lon="5.45814">
        <ele>397.4</ele>
        <time>2023-08-29T07:42:20Z</time>
      </trkpt>
      <trkpt lat="45.48178" lon="5.45807">
        <ele>397.6</ele>
        <time>2023-08-29T07:42:21Z</time>
      </trkpt>
      <trkpt lat="45.48175" lon="5.45802">
        <ele>397.8</ele>
        <time>2023-08-29T07:42:22Z</time>
      </trkpt>
      <trkpt lat="45.48173" lon="5.45797">
        <ele>398.2</ele>
        <time>2023-08-29T07:42:23Z</time>
      </trkpt>
      <trkpt lat="45.4817" lon="5.45792">
        <ele>398.4</ele>
        <time>2023-08-29T07:42:24Z</time>
      </trkpt>
      <trkpt lat="45.48167" lon="5.45787">
        <ele>398.4</ele>
        <time>2023-08-29T07:42:25Z</time>
      </trkpt>
      <trkpt lat="45.48164" lon="5.45781">
        <ele>398.6</ele>
        <time>2023-08-29T07:42:26Z</time>
      </trkpt>
      <trkpt lat="45.48161" lon="5.45776">
        <ele>399</ele>
        <time>2023-08-29T07:42:27Z</time>
      </trkpt>
      <trkpt lat="45.48158" lon="5.45772">
        <ele>399.4</ele>
        <time>2023-08-29T07:42:28Z</time>
      </trkpt>
      <trkpt lat="45.48154" lon="5.45768">
        <ele>399.6</ele>
        <time>2023-08-29T07:42:29Z</time>
      </trkpt>
      <trkpt lat="45.4815" lon="5.45764">
        <ele>399.6</ele>
        <time>2023-08-29T07:42:30Z</time>
      </trkpt>
      <trkpt lat="45.48146" lon="5.45761">
        <ele>400</ele>
        <time>2023-08-29T07:42:31Z</time>
      </trkpt>
      <trkpt lat="45.48143" lon="5.45758">
        <ele>400</ele>
        <time>2023-08-29T07:42:32Z</time>
      </trkpt>
      <trkpt lat="45.48139" lon="5.45754">
        <ele>400.2</ele>
        <time>2023-08-29T07:42:33Z</time>
      </trkpt>
      <trkpt lat="45.48136" lon="5.45751">
        <ele>400.6</ele>
        <time>2023-08-29T07:42:34Z</time>
      </trkpt>
      <trkpt lat="45.48132" lon="5.45747">
        <ele>400.8</ele>
        <time>2023-08-29T07:42:35Z</time>
      </trkpt>
      <trkpt lat="45.48129" lon="5.45744">
        <ele>401</ele>
        <time>2023-08-29T07:42:36Z</time>
      </trkpt>
      <trkpt lat="45.48126" lon="5.4574">
        <ele>401.2</ele>
        <time>2023-08-29T07:42:37Z</time>
      </trkpt>
      <trkpt lat="45.48122" lon="5.45736">
        <ele>401.6</ele>
        <time>2023-08-29T07:42:38Z</time>
      </trkpt>
      <trkpt lat="45.48119" lon="5.45733">
        <ele>401.8</ele>
        <time>2023-08-29T07:42:39Z</time>
      </trkpt>
      <trkpt lat="45.48115" lon="5.4573">
        <ele>402.2</ele>
        <time>2023-08-29T07:42:40Z</time>
      </trkpt>
      <trkpt lat="45.48112" lon="5.45727">
        <ele>402.4</ele>
        <time>2023-08-29T07:42:41Z</time>
      </trkpt>
      <trkpt lat="45.48109" lon="5.45724">
        <ele>402.4</ele>
        <time>2023-08-29T07:42:42Z</time>
      </trkpt>
      <trkpt lat="45.48106" lon="5.45721">
        <ele>402.6</ele>
        <time>2023-08-29T07:42:43Z</time>
      </trkpt>
      <trkpt lat="45.48103" lon="5.45718">
        <ele>403</ele>
        <time>2023-08-29T07:42:44Z</time>
      </trkpt>
      <trkpt lat="45.481" lon="5.45714">
        <ele>403.4</ele>
        <time>2023-08-29T07:42:45Z</time>
      </trkpt>
      <trkpt lat="45.48097" lon="5.45711">
        <ele>403.4</ele>
        <time>2023-08-29T07:42:46Z</time>
      </trkpt>
      <trkpt lat="45.48094" lon="5.45707">
        <ele>403.6</ele>
        <time>2023-08-29T07:42:47Z</time>
      </trkpt>
      <trkpt lat="45.48091" lon="5.45703">
        <ele>403.6</ele>
        <time>2023-08-29T07:42:48Z</time>
      </trkpt>
      <trkpt lat="45.48088" lon="5.457">
        <ele>403.8</ele>
        <time>2023-08-29T07:42:49Z</time>
      </trkpt>
      <trkpt lat="45.48085" lon="5.45696">
        <ele>404</ele>
        <time>2023-08-29T07:42:50Z</time>
      </trkpt>
      <trkpt lat="45.48082" lon="5.45692">
        <ele>404.2</ele>
        <time>2023-08-29T07:42:51Z</time>
      </trkpt>
      <trkpt lat="45.48079" lon="5.45688">
        <ele>404.2</ele>
        <time>2023-08-29T07:42:52Z</time>
      </trkpt>
      <trkpt lat="45.48076" lon="5.45684">
        <ele>404.6</ele>
        <time>2023-08-29T07:42:53Z</time>
      </trkpt>
      <trkpt lat="45.48073" lon="5.4568">
        <ele>404.6</ele>
        <time>2023-08-29T07:42:54Z</time>
      </trkpt>
      <trkpt lat="45.48071" lon="5.45677">
        <ele>404.8</ele>
        <time>2023-08-29T07:42:55Z</time>
      </trkpt>
      <trkpt lat="45.48068" lon="5.45673">
        <ele>405.2</ele>
        <time>2023-08-29T07:42:56Z</time>
      </trkpt>
      <trkpt lat="45.48065" lon="5.45669">
        <ele>405.2</ele>
        <time>2023-08-29T07:42:57Z</time>
      </trkpt>
      <trkpt lat="45.48062" lon="5.45666">
        <ele>405.4</ele>
        <time>2023-08-29T07:42:58Z</time>
      </trkpt>
      <trkpt lat="45.48058" lon="5.45663">
        <ele>405.8</ele>
        <time>2023-08-29T07:42:59Z</time>
      </trkpt>
      <trkpt lat="45.48056" lon="5.45659">
        <ele>405.8</ele>
        <time>2023-08-29T07:43:00Z</time>
      </trkpt>
      <trkpt lat="45.48053" lon="5.45655">
        <ele>406</ele>
        <time>2023-08-29T07:43:01Z</time>
      </trkpt>
      <trkpt lat="45.48051" lon="5.45652">
        <ele>406.4</ele>
        <time>2023-08-29T07:43:02Z</time>
      </trkpt>
      <trkpt lat="45.48048" lon="5.45648">
        <ele>406.6</ele>
        <time>2023-08-29T07:43:03Z</time>
      </trkpt>
      <trkpt lat="45.48045" lon="5.45644">
        <ele>406.6</ele>
        <time>2023-08-29T07:43:04Z</time>
      </trkpt>
      <trkpt lat="45.48042" lon="5.4564">
        <ele>406.8</ele>
        <time>2023-08-29T07:43:05Z</time>
      </trkpt>
      <trkpt lat="45.48039" lon="5.45637">
        <ele>407.2</ele>
        <time>2023-08-29T07:43:06Z</time>
      </trkpt>
      <trkpt lat="45.48036" lon="5.45633">
        <ele>407.4</ele>
        <time>2023-08-29T07:43:07Z</time>
      </trkpt>
      <trkpt lat="45.48033" lon="5.4563">
        <ele>407.8</ele>
        <time>2023-08-29T07:43:08Z</time>
      </trkpt>
      <trkpt lat="45.4803" lon="5.45627">
        <ele>408</ele>
        <time>2023-08-29T07:43:09Z</time>
      </trkpt>
      <trkpt lat="45.48027" lon="5.45624">
        <ele>408.2</ele>
        <time>2023-08-29T07:43:10Z</time>
      </trkpt>
      <trkpt lat="45.48025" lon="5.45621">
        <ele>408.4</ele>
        <time>2023-08-29T07:43:11Z</time>
      </trkpt>
      <trkpt lat="45.48023" lon="5.45617">
        <ele>408.8</ele>
        <time>2023-08-29T07:43:12Z</time>
      </trkpt>
      <trkpt lat="45.4802" lon="5.45615">
        <ele>409.2</ele>
        <time>2023-08-29T07:43:13Z</time>
      </trkpt>
      <trkpt lat="45.48018" lon="5.45612">
        <ele>409.4</ele>
        <time>2023-08-29T07:43:14Z</time>
      </trkpt>
      <trkpt lat="45.48015" lon="5.4561">
        <ele>409.8</ele>
        <time>2023-08-29T07:43:15Z</time>
      </trkpt>
      <trkpt lat="45.48013" lon="5.45608">
        <ele>410</ele>
        <time>2023-08-29T07:43:16Z</time>
      </trkpt>
      <trkpt lat="45.4801" lon="5.45605">
        <ele>410.4</ele>
        <time>2023-08-29T07:43:17Z</time>
      </trkpt>
      <trkpt lat="45.48006" lon="5.45603">
        <ele>410.6</ele>
        <time>2023-08-29T07:43:18Z</time>
      </trkpt>
      <trkpt lat="45.48004" lon="5.456">
        <ele>410.8</ele>
        <time>2023-08-29T07:43:19Z</time>
      </trkpt>
      <trkpt lat="45.48001" lon="5.45597">
        <ele>411</ele>
        <time>2023-08-29T07:43:20Z</time>
      </trkpt>
      <trkpt lat="45.47999" lon="5.45595">
        <ele>411.2</ele>
        <time>2023-08-29T07:43:21Z</time>
      </trkpt>
      <trkpt lat="45.47996" lon="5.45592">
        <ele>411.4</ele>
        <time>2023-08-29T07:43:22Z</time>
      </trkpt>
      <trkpt lat="45.47994" lon="5.4559">
        <ele>411.8</ele>
        <time>2023-08-29T07:43:23Z</time>
      </trkpt>
      <trkpt lat="45.47991" lon="5.45588">
        <ele>412</ele>
        <time>2023-08-29T07:43:24Z</time>
      </trkpt>
      <trkpt lat="45.47988" lon="5.45585">
        <ele>412.4</ele>
        <time>2023-08-29T07:43:25Z</time>
      </trkpt>
      <trkpt lat="45.47986" lon="5.45582">
        <ele>412.8</ele>
        <time>2023-08-29T07:43:26Z</time>
      </trkpt>
      <trkpt lat="45.47984" lon="5.4558">
        <ele>413</ele>
        <time>2023-08-29T07:43:27Z</time>
      </trkpt>
      <trkpt lat="45.47982" lon="5.45577">
        <ele>413</ele>
        <time>2023-08-29T07:43:28Z</time>
      </trkpt>
      <trkpt lat="45.47979" lon="5.45574">
        <ele>413.4</ele>
        <time>2023-08-29T07:43:29Z</time>
      </trkpt>
      <trkpt lat="45.47976" lon="5.45571">
        <ele>413.6</ele>
        <time>2023-08-29T07:43:30Z</time>
      </trkpt>
      <trkpt lat="45.47974" lon="5.45568">
        <ele>414</ele>
        <time>2023-08-29T07:43:31Z</time>
      </trkpt>
      <trkpt lat="45.47972" lon="5.45565">
        <ele>414.2</ele>
        <time>2023-08-29T07:43:32Z</time>
      </trkpt>
      <trkpt lat="45.47969" lon="5.45562">
        <ele>414.4</ele>
        <time>2023-08-29T07:43:33Z</time>
      </trkpt>
      <trkpt lat="45.47967" lon="5.45559">
        <ele>414.8</ele>
        <time>2023-08-29T07:43:34Z</time>
      </trkpt>
      <trkpt lat="45.47964" lon="5.45556">
        <ele>415</ele>
        <time>2023-08-29T07:43:35Z</time>
      </trkpt>
      <trkpt lat="45.47961" lon="5.45552">
        <ele>415.2</ele>
        <time>2023-08-29T07:43:36Z</time>
      </trkpt>
      <trkpt lat="45.47959" lon="5.45549">
        <ele>415.4</ele>
        <time>2023-08-29T07:43:37Z</time>
      </trkpt>
      <trkpt lat="45.47957" lon="5.45545">
        <ele>415.4</ele>
        <time>2023-08-29T07:43:38Z</time>
      </trkpt>
      <trkpt lat="45.47955" lon="5.45542">
        <ele>415.8</ele>
        <time>2023-08-29T07:43:39Z</time>
      </trkpt>
      <trkpt lat="45.47952" lon="5.45539">
        <ele>415.8</ele>
        <time>2023-08-29T07:43:40Z</time>
      </trkpt>
      <trkpt lat="45.47949" lon="5.45536">
        <ele>416.2</ele>
        <time>2023-08-29T07:43:41Z</time>
      </trkpt>
      <trkpt lat="45.47947" lon="5.45534">
        <ele>416.2</ele>
        <time>2023-08-29T07:43:42Z</time>
      </trkpt>
      <trkpt lat="45.47945" lon="5.4553">
        <ele>416.4</ele>
        <time>2023-08-29T07:43:43Z</time>
      </trkpt>
      <trkpt lat="45.47943" lon="5.45527">
        <ele>416.4</ele>
        <time>2023-08-29T07:43:44Z</time>
      </trkpt>
      <trkpt lat="45.4794" lon="5.45524">
        <ele>416.6</ele>
        <time>2023-08-29T07:43:45Z</time>
      </trkpt>
      <trkpt lat="45.47938" lon="5.45521">
        <ele>416.8</ele>
        <time>2023-08-29T07:43:46Z</time>
      </trkpt>
      <trkpt lat="45.47935" lon="5.45517">
        <ele>417</ele>
        <time>2023-08-29T07:43:47Z</time>
      </trkpt>
      <trkpt lat="45.47933" lon="5.45514">
        <ele>417.4</ele>
        <time>2023-08-29T07:43:48Z</time>
      </trkpt>
      <trkpt lat="45.4793" lon="5.45512">
        <ele>417.6</ele>
        <time>2023-08-29T07:43:49Z</time>
      </trkpt>
      <trkpt lat="45.47926" lon="5.4551">
        <ele>417.6</ele>
        <time>2023-08-29T07:43:50Z</time>
      </trkpt>
      <trkpt lat="45.47923" lon="5.45508">
        <ele>417.8</ele>
        <time>2023-08-29T07:43:51Z</time>
      </trkpt>
      <trkpt lat="45.4792" lon="5.45506">
        <ele>418</ele>
        <time>2023-08-29T07:43:52Z</time>
      </trkpt>
      <trkpt lat="45.47917" lon="5.45505">
        <ele>418.2</ele>
        <time>2023-08-29T07:43:53Z</time>
      </trkpt>
      <trkpt lat="45.47914" lon="5.45504">
        <ele>418.4</ele>
        <time>2023-08-29T07:43:54Z</time>
      </trkpt>
      <trkpt lat="45.47911" lon="5.45503">
        <ele>418.6</ele>
        <time>2023-08-29T07:43:55Z</time>
      </trkpt>
      <trkpt lat="45.47907" lon="5.45502">
        <ele>418.8</ele>
        <time>2023-08-29T07:43:56Z</time>
      </trkpt>
      <trkpt lat="45.47903" lon="5.45501">
        <ele>419</ele>
        <time>2023-08-29T07:43:57Z</time>
      </trkpt>
      <trkpt lat="45.47898" lon="5.45499">
        <ele>419</ele>
        <time>2023-08-29T07:43:58Z</time>
      </trkpt>
      <trkpt lat="45.47894" lon="5.45497">
        <ele>419</ele>
        <time>2023-08-29T07:43:59Z</time>
      </trkpt>
      <trkpt lat="45.4789" lon="5.45495">
        <ele>419</ele>
        <time>2023-08-29T07:44:00Z</time>
      </trkpt>
      <trkpt lat="45.47887" lon="5.45494">
        <ele>418.8</ele>
        <time>2023-08-29T07:44:01Z</time>
      </trkpt>
      <trkpt lat="45.47883" lon="5.45492">
        <ele>418.8</ele>
        <time>2023-08-29T07:44:02Z</time>
      </trkpt>
      <trkpt lat="45.47879" lon="5.4549">
        <ele>418.6</ele>
        <time>2023-08-29T07:44:03Z</time>
      </trkpt>
      <trkpt lat="45.47875" lon="5.45487">
        <ele>418.6</ele>
        <time>2023-08-29T07:44:04Z</time>
      </trkpt>
      <trkpt lat="45.47872" lon="5.45484">
        <ele>418.4</ele>
        <time>2023-08-29T07:44:05Z</time>
      </trkpt>
      <trkpt lat="45.47868" lon="5.45481">
        <ele>418.2</ele>
        <time>2023-08-29T07:44:06Z</time>
      </trkpt>
      <trkpt lat="45.47863" lon="5.45479">
        <ele>418.2</ele>
        <time>2023-08-29T07:44:07Z</time>
      </trkpt>
      <trkpt lat="45.47858" lon="5.45477">
        <ele>418.2</ele>
        <time>2023-08-29T07:44:08Z</time>
      </trkpt>
      <trkpt lat="45.47854" lon="5.45475">
        <ele>418.2</ele>
        <time>2023-08-29T07:44:09Z</time>
      </trkpt>
      <trkpt lat="45.47849" lon="5.45474">
        <ele>418</ele>
        <time>2023-08-29T07:44:10Z</time>
      </trkpt>
      <trkpt lat="45.47843" lon="5.45473">
        <ele>417.6</ele>
        <time>2023-08-29T07:44:11Z</time>
      </trkpt>
      <trkpt lat="45.47837" lon="5.45471">
        <ele>417.4</ele>
        <time>2023-08-29T07:44:12Z</time>
      </trkpt>
      <trkpt lat="45.47831" lon="5.45469">
        <ele>417.2</ele>
        <time>2023-08-29T07:44:13Z</time>
      </trkpt>
      <trkpt lat="45.47825" lon="5.45468">
        <ele>416.8</ele>
        <time>2023-08-29T07:44:14Z</time>
      </trkpt>
      <trkpt lat="45.47818" lon="5.45466">
        <ele>416.6</ele>
        <time>2023-08-29T07:44:15Z</time>
      </trkpt>
      <trkpt lat="45.47812" lon="5.45464">
        <ele>416.2</ele>
        <time>2023-08-29T07:44:16Z</time>
      </trkpt>
      <trkpt lat="45.47805" lon="5.45461">
        <ele>416</ele>
        <time>2023-08-29T07:44:17Z</time>
      </trkpt>
      <trkpt lat="45.478" lon="5.45458">
        <ele>415.6</ele>
        <time>2023-08-29T07:44:18Z</time>
      </trkpt>
      <trkpt lat="45.47794" lon="5.45454">
        <ele>415.4</ele>
        <time>2023-08-29T07:44:19Z</time>
      </trkpt>
      <trkpt lat="45.4779" lon="5.45449">
        <ele>415</ele>
        <time>2023-08-29T07:44:20Z</time>
      </trkpt>
      <trkpt lat="45.47784" lon="5.45443">
        <ele>413.8</ele>
        <time>2023-08-29T07:44:21Z</time>
      </trkpt>
      <trkpt lat="45.47778" lon="5.45436">
        <ele>413.6</ele>
        <time>2023-08-29T07:44:22Z</time>
      </trkpt>
      <trkpt lat="45.47771" lon="5.45428">
        <ele>413.2</ele>
        <time>2023-08-29T07:44:23Z</time>
      </trkpt>
      <trkpt lat="45.47765" lon="5.45422">
        <ele>412.6</ele>
        <time>2023-08-29T07:44:24Z</time>
      </trkpt>
      <trkpt lat="45.47757" lon="5.45414">
        <ele>412</ele>
        <time>2023-08-29T07:44:25Z</time>
      </trkpt>
      <trkpt lat="45.47749" lon="5.45407">
        <ele>411.4</ele>
        <time>2023-08-29T07:44:26Z</time>
      </trkpt>
      <trkpt lat="45.47741" lon="5.454">
        <ele>410.8</ele>
        <time>2023-08-29T07:44:27Z</time>
      </trkpt>
      <trkpt lat="45.47732" lon="5.45394">
        <ele>409.4</ele>
        <time>2023-08-29T07:44:28Z</time>
      </trkpt>
      <trkpt lat="45.47723" lon="5.45387">
        <ele>408.8</ele>
        <time>2023-08-29T07:44:29Z</time>
      </trkpt>
      <trkpt lat="45.47714" lon="5.45382">
        <ele>408.2</ele>
        <time>2023-08-29T07:44:30Z</time>
      </trkpt>
      <trkpt lat="45.47706" lon="5.45375">
        <ele>407.8</ele>
        <time>2023-08-29T07:44:31Z</time>
      </trkpt>
      <trkpt lat="45.47697" lon="5.45369">
        <ele>406.8</ele>
        <time>2023-08-29T07:44:32Z</time>
      </trkpt>
      <trkpt lat="45.47689" lon="5.45362">
        <ele>406.4</ele>
        <time>2023-08-29T07:44:33Z</time>
      </trkpt>
      <trkpt lat="45.47681" lon="5.45355">
        <ele>406</ele>
        <time>2023-08-29T07:44:34Z</time>
      </trkpt>
      <trkpt lat="45.47673" lon="5.45348">
        <ele>405.8</ele>
        <time>2023-08-29T07:44:35Z</time>
      </trkpt>
      <trkpt lat="45.47666" lon="5.45341">
        <ele>405.6</ele>
        <time>2023-08-29T07:44:36Z</time>
      </trkpt>
      <trkpt lat="45.47659" lon="5.45334">
        <ele>405.6</ele>
        <time>2023-08-29T07:44:37Z</time>
      </trkpt>
      <trkpt lat="45.47652" lon="5.45327">
        <ele>405.4</ele>
        <time>2023-08-29T07:44:38Z</time>
      </trkpt>
      <trkpt lat="45.47646" lon="5.45321">
        <ele>405</ele>
        <time>2023-08-29T07:44:39Z</time>
      </trkpt>
      <trkpt lat="45.47639" lon="5.45315">
        <ele>405</ele>
        <time>2023-08-29T07:44:40Z</time>
      </trkpt>
      <trkpt lat="45.47633" lon="5.45308">
        <ele>405</ele>
        <time>2023-08-29T07:44:41Z</time>
      </trkpt>
      <trkpt lat="45.47626" lon="5.453">
        <ele>405</ele>
        <time>2023-08-29T07:44:42Z</time>
      </trkpt>
      <trkpt lat="45.47621" lon="5.45291">
        <ele>405</ele>
        <time>2023-08-29T07:44:43Z</time>
      </trkpt>
      <trkpt lat="45.47615" lon="5.45281">
        <ele>404.8</ele>
        <time>2023-08-29T07:44:44Z</time>
      </trkpt>
      <trkpt lat="45.4761" lon="5.4527">
        <ele>404.8</ele>
        <time>2023-08-29T07:44:45Z</time>
      </trkpt>
      <trkpt lat="45.47607" lon="5.45259">
        <ele>403.8</ele>
        <time>2023-08-29T07:44:46Z</time>
      </trkpt>
      <trkpt lat="45.47604" lon="5.45249">
        <ele>402.2</ele>
        <time>2023-08-29T07:44:47Z</time>
      </trkpt>
      <trkpt lat="45.476" lon="5.45238">
        <ele>401.2</ele>
        <time>2023-08-29T07:44:48Z</time>
      </trkpt>
      <trkpt lat="45.47597" lon="5.45227">
        <ele>400.4</ele>
        <time>2023-08-29T07:44:49Z</time>
      </trkpt>
      <trkpt lat="45.47593" lon="5.45217">
        <ele>399.6</ele>
        <time>2023-08-29T07:44:50Z</time>
      </trkpt>
      <trkpt lat="45.47589" lon="5.45209">
        <ele>398.6</ele>
        <time>2023-08-29T07:44:51Z</time>
      </trkpt>
      <trkpt lat="45.47584" lon="5.45204">
        <ele>397.4</ele>
        <time>2023-08-29T07:44:52Z</time>
      </trkpt>
      <trkpt lat="45.47579" lon="5.45201">
        <ele>396.4</ele>
        <time>2023-08-29T07:44:53Z</time>
      </trkpt>
      <trkpt lat="45.47575" lon="5.45201">
        <ele>396</ele>
        <time>2023-08-29T07:44:54Z</time>
      </trkpt>
      <trkpt lat="45.47571" lon="5.45201">
        <ele>395.8</ele>
        <time>2023-08-29T07:44:55Z</time>
      </trkpt>
      <trkpt lat="45.47567" lon="5.45201">
        <ele>395.4</ele>
        <time>2023-08-29T07:44:56Z</time>
      </trkpt>
      <trkpt lat="45.47563" lon="5.45202">
        <ele>395.2</ele>
        <time>2023-08-29T07:44:57Z</time>
      </trkpt>
      <trkpt lat="45.4756" lon="5.45204">
        <ele>395</ele>
        <time>2023-08-29T07:44:58Z</time>
      </trkpt>
      <trkpt lat="45.47557" lon="5.45206">
        <ele>394.6</ele>
        <time>2023-08-29T07:44:59Z</time>
      </trkpt>
      <trkpt lat="45.47555" lon="5.45208">
        <ele>394.2</ele>
        <time>2023-08-29T07:45:00Z</time>
      </trkpt>
      <trkpt lat="45.47554" lon="5.45208">
        <ele>393.8</ele>
        <time>2023-08-29T07:45:01Z</time>
      </trkpt>
      <trkpt lat="45.47555" lon="5.45208">
        <ele>393.6</ele>
        <time>2023-08-29T07:45:02Z</time>
      </trkpt>
      <trkpt lat="45.47555" lon="5.45208">
        <ele>393.4</ele>
        <time>2023-08-29T07:45:03Z</time>
      </trkpt>
      <trkpt lat="45.47542" lon="5.45208">
        <ele>393</ele>
        <time>2023-08-29T07:46:25Z</time>
      </trkpt>
      <trkpt lat="45.47541" lon="5.45208">
        <ele>393</ele>
        <time>2023-08-29T07:46:26Z</time>
      </trkpt>
      <trkpt lat="45.47539" lon="5.45209">
        <ele>393</ele>
        <time>2023-08-29T07:46:27Z</time>
      </trkpt>
      <trkpt lat="45.47537" lon="5.4521">
        <ele>393</ele>
        <time>2023-08-29T07:46:28Z</time>
      </trkpt>
      <trkpt lat="45.47536" lon="5.45211">
        <ele>393</ele>
        <time>2023-08-29T07:46:29Z</time>
      </trkpt>
      <trkpt lat="45.47534" lon="5.45211">
        <ele>393</ele>
        <time>2023-08-29T07:46:30Z</time>
      </trkpt>
      <trkpt lat="45.47532" lon="5.45212">
        <ele>393</ele>
        <time>2023-08-29T07:46:31Z</time>
      </trkpt>
      <trkpt lat="45.4753" lon="5.45212">
        <ele>393</ele>
        <time>2023-08-29T07:46:32Z</time>
      </trkpt>
      <trkpt lat="45.47528" lon="5.45213">
        <ele>393</ele>
        <time>2023-08-29T07:46:33Z</time>
      </trkpt>
      <trkpt lat="45.47525" lon="5.45213">
        <ele>393</ele>
        <time>2023-08-29T07:46:34Z</time>
      </trkpt>
      <trkpt lat="45.47522" lon="5.45214">
        <ele>392.8</ele>
        <time>2023-08-29T07:46:35Z</time>
      </trkpt>
      <trkpt lat="45.47519" lon="5.45215">
        <ele>392.8</ele>
        <time>2023-08-29T07:46:36Z</time>
      </trkpt>
      <trkpt lat="45.47516" lon="5.45216">
        <ele>392.8</ele>
        <time>2023-08-29T07:46:37Z</time>
      </trkpt>
      <trkpt lat="45.47514" lon="5.45218">
        <ele>392.8</ele>
        <time>2023-08-29T07:46:38Z</time>
      </trkpt>
      <trkpt lat="45.47511" lon="5.45218">
        <ele>392.6</ele>
        <time>2023-08-29T07:46:39Z</time>
      </trkpt>
      <trkpt lat="45.47507" lon="5.45219">
        <ele>392.6</ele>
        <time>2023-08-29T07:46:40Z</time>
      </trkpt>
      <trkpt lat="45.47505" lon="5.4522">
        <ele>392.6</ele>
        <time>2023-08-29T07:46:41Z</time>
      </trkpt>
      <trkpt lat="45.47502" lon="5.4522">
        <ele>392.6</ele>
        <time>2023-08-29T07:46:42Z</time>
      </trkpt>
      <trkpt lat="45.47499" lon="5.45221">
        <ele>392.6</ele>
        <time>2023-08-29T07:46:43Z</time>
      </trkpt>
      <trkpt lat="45.47496" lon="5.45222">
        <ele>392.6</ele>
        <time>2023-08-29T07:46:44Z</time>
      </trkpt>
      <trkpt lat="45.47492" lon="5.45222">
        <ele>392.4</ele>
        <time>2023-08-29T07:46:45Z</time>
      </trkpt>
      <trkpt lat="45.4749" lon="5.45222">
        <ele>392.4</ele>
        <time>2023-08-29T07:46:46Z</time>
      </trkpt>
      <trkpt lat="45.47488" lon="5.45223">
        <ele>392.4</ele>
        <time>2023-08-29T07:46:47Z</time>
      </trkpt>
      <trkpt lat="45.47485" lon="5.45223">
        <ele>392.4</ele>
        <time>2023-08-29T07:46:48Z</time>
      </trkpt>
      <trkpt lat="45.47482" lon="5.45223">
        <ele>392.4</ele>
        <time>2023-08-29T07:46:49Z</time>
      </trkpt>
      <trkpt lat="45.47478" lon="5.45225">
        <ele>392.4</ele>
        <time>2023-08-29T07:46:50Z</time>
      </trkpt>
      <trkpt lat="45.47475" lon="5.45226">
        <ele>392.4</ele>
        <time>2023-08-29T07:46:51Z</time>
      </trkpt>
      <trkpt lat="45.47473" lon="5.45227">
        <ele>392.4</ele>
        <time>2023-08-29T07:46:52Z</time>
      </trkpt>
      <trkpt lat="45.4747" lon="5.45228">
        <ele>392.4</ele>
        <time>2023-08-29T07:46:53Z</time>
      </trkpt>
      <trkpt lat="45.47468" lon="5.45228">
        <ele>392.4</ele>
        <time>2023-08-29T07:46:54Z</time>
      </trkpt>
      <trkpt lat="45.47465" lon="5.45228">
        <ele>392.4</ele>
        <time>2023-08-29T07:46:55Z</time>
      </trkpt>
      <trkpt lat="45.47462" lon="5.45229">
        <ele>392.4</ele>
        <time>2023-08-29T07:46:56Z</time>
      </trkpt>
      <trkpt lat="45.47459" lon="5.4523">
        <ele>392.4</ele>
        <time>2023-08-29T07:46:57Z</time>
      </trkpt>
      <trkpt lat="45.47456" lon="5.4523">
        <ele>392.4</ele>
        <time>2023-08-29T07:46:58Z</time>
      </trkpt>
      <trkpt lat="45.47453" lon="5.4523">
        <ele>392.4</ele>
        <time>2023-08-29T07:46:59Z</time>
      </trkpt>
      <trkpt lat="45.47451" lon="5.45231">
        <ele>392.4</ele>
        <time>2023-08-29T07:47:00Z</time>
      </trkpt>
      <trkpt lat="45.47448" lon="5.45232">
        <ele>392.4</ele>
        <time>2023-08-29T07:47:01Z</time>
      </trkpt>
      <trkpt lat="45.47445" lon="5.45233">
        <ele>392.4</ele>
        <time>2023-08-29T07:47:02Z</time>
      </trkpt>
      <trkpt lat="45.47442" lon="5.45233">
        <ele>392.4</ele>
        <time>2023-08-29T07:47:03Z</time>
      </trkpt>
      <trkpt lat="45.47439" lon="5.45234">
        <ele>392.4</ele>
        <time>2023-08-29T07:47:04Z</time>
      </trkpt>
      <trkpt lat="45.47436" lon="5.45234">
        <ele>392.2</ele>
        <time>2023-08-29T07:47:05Z</time>
      </trkpt>
      <trkpt lat="45.47433" lon="5.45234">
        <ele>392.2</ele>
        <time>2023-08-29T07:47:06Z</time>
      </trkpt>
      <trkpt lat="45.4743" lon="5.45234">
        <ele>392.2</ele>
        <time>2023-08-29T07:47:07Z</time>
      </trkpt>
      <trkpt lat="45.47426" lon="5.45234">
        <ele>392.2</ele>
        <time>2023-08-29T07:47:08Z</time>
      </trkpt>
      <trkpt lat="45.47423" lon="5.45234">
        <ele>392.2</ele>
        <time>2023-08-29T07:47:09Z</time>
      </trkpt>
      <trkpt lat="45.47419" lon="5.45235">
        <ele>392.2</ele>
        <time>2023-08-29T07:47:10Z</time>
      </trkpt>
      <trkpt lat="45.47415" lon="5.45235">
        <ele>392.2</ele>
        <time>2023-08-29T07:47:11Z</time>
      </trkpt>
      <trkpt lat="45.47412" lon="5.45235">
        <ele>392</ele>
        <time>2023-08-29T07:47:12Z</time>
      </trkpt>
      <trkpt lat="45.47408" lon="5.45235">
        <ele>392</ele>
        <time>2023-08-29T07:47:13Z</time>
      </trkpt>
      <trkpt lat="45.47405" lon="5.45236">
        <ele>392</ele>
        <time>2023-08-29T07:47:14Z</time>
      </trkpt>
      <trkpt lat="45.47401" lon="5.45236">
        <ele>392</ele>
        <time>2023-08-29T07:47:15Z</time>
      </trkpt>
      <trkpt lat="45.47397" lon="5.45235">
        <ele>392</ele>
        <time>2023-08-29T07:47:16Z</time>
      </trkpt>
      <trkpt lat="45.47393" lon="5.45235">
        <ele>392</ele>
        <time>2023-08-29T07:47:17Z</time>
      </trkpt>
      <trkpt lat="45.47389" lon="5.45235">
        <ele>392</ele>
        <time>2023-08-29T07:47:18Z</time>
      </trkpt>
      <trkpt lat="45.47385" lon="5.45235">
        <ele>392</ele>
        <time>2023-08-29T07:47:19Z</time>
      </trkpt>
      <trkpt lat="45.47381" lon="5.45234">
        <ele>392</ele>
        <time>2023-08-29T07:47:20Z</time>
      </trkpt>
      <trkpt lat="45.47377" lon="5.45233">
        <ele>392</ele>
        <time>2023-08-29T07:47:21Z</time>
      </trkpt>
      <trkpt lat="45.47373" lon="5.45232">
        <ele>391.8</ele>
        <time>2023-08-29T07:47:22Z</time>
      </trkpt>
      <trkpt lat="45.47369" lon="5.45232">
        <ele>391.8</ele>
        <time>2023-08-29T07:47:23Z</time>
      </trkpt>
      <trkpt lat="45.47364" lon="5.45231">
        <ele>391.8</ele>
        <time>2023-08-29T07:47:24Z</time>
      </trkpt>
      <trkpt lat="45.47361" lon="5.45229">
        <ele>391.8</ele>
        <time>2023-08-29T07:47:25Z</time>
      </trkpt>
      <trkpt lat="45.47357" lon="5.45228">
        <ele>391.8</ele>
        <time>2023-08-29T07:47:26Z</time>
      </trkpt>
      <trkpt lat="45.47353" lon="5.45226">
        <ele>391.8</ele>
        <time>2023-08-29T07:47:27Z</time>
      </trkpt>
      <trkpt lat="45.47348" lon="5.45225">
        <ele>391.8</ele>
        <time>2023-08-29T07:47:28Z</time>
      </trkpt>
      <trkpt lat="45.47344" lon="5.45223">
        <ele>391.8</ele>
        <time>2023-08-29T07:47:29Z</time>
      </trkpt>
      <trkpt lat="45.47339" lon="5.45221">
        <ele>392</ele>
        <time>2023-08-29T07:47:30Z</time>
      </trkpt>
      <trkpt lat="45.47335" lon="5.45219">
        <ele>392</ele>
        <time>2023-08-29T07:47:31Z</time>
      </trkpt>
      <trkpt lat="45.47331" lon="5.45217">
        <ele>392</ele>
        <time>2023-08-29T07:47:32Z</time>
      </trkpt>
      <trkpt lat="45.47326" lon="5.45215">
        <ele>392</ele>
        <time>2023-08-29T07:47:33Z</time>
      </trkpt>
      <trkpt lat="45.47323" lon="5.45213">
        <ele>392</ele>
        <time>2023-08-29T07:47:34Z</time>
      </trkpt>
      <trkpt lat="45.47318" lon="5.45211">
        <ele>392</ele>
        <time>2023-08-29T07:47:35Z</time>
      </trkpt>
      <trkpt lat="45.47314" lon="5.4521">
        <ele>392</ele>
        <time>2023-08-29T07:47:36Z</time>
      </trkpt>
      <trkpt lat="45.47309" lon="5.45208">
        <ele>391.8</ele>
        <time>2023-08-29T07:47:37Z</time>
      </trkpt>
      <trkpt lat="45.47305" lon="5.45206">
        <ele>391.6</ele>
        <time>2023-08-29T07:47:38Z</time>
      </trkpt>
      <trkpt lat="45.473" lon="5.45205">
        <ele>391.6</ele>
        <time>2023-08-29T07:47:39Z</time>
      </trkpt>
      <trkpt lat="45.47296" lon="5.45203">
        <ele>391.6</ele>
        <time>2023-08-29T07:47:40Z</time>
      </trkpt>
      <trkpt lat="45.47292" lon="5.45201">
        <ele>391.6</ele>
        <time>2023-08-29T07:47:41Z</time>
      </trkpt>
      <trkpt lat="45.47288" lon="5.45199">
        <ele>391.4</ele>
        <time>2023-08-29T07:47:42Z</time>
      </trkpt>
      <trkpt lat="45.47283" lon="5.45197">
        <ele>391.6</ele>
        <time>2023-08-29T07:47:43Z</time>
      </trkpt>
      <trkpt lat="45.47278" lon="5.45195">
        <ele>391.6</ele>
        <time>2023-08-29T07:47:44Z</time>
      </trkpt>
      <trkpt lat="45.47274" lon="5.45193">
        <ele>391.6</ele>
        <time>2023-08-29T07:47:45Z</time>
      </trkpt>
      <trkpt lat="45.47269" lon="5.4519">
        <ele>391.4</ele>
        <time>2023-08-29T07:47:46Z</time>
      </trkpt>
      <trkpt lat="45.47265" lon="5.45188">
        <ele>391.4</ele>
        <time>2023-08-29T07:47:47Z</time>
      </trkpt>
      <trkpt lat="45.47261" lon="5.45184">
        <ele>391.4</ele>
        <time>2023-08-29T07:47:48Z</time>
      </trkpt>
      <trkpt lat="45.47257" lon="5.45181">
        <ele>391.4</ele>
        <time>2023-08-29T07:47:49Z</time>
      </trkpt>
      <trkpt lat="45.47253" lon="5.45178">
        <ele>391.4</ele>
        <time>2023-08-29T07:47:50Z</time>
      </trkpt>
      <trkpt lat="45.4725" lon="5.45176">
        <ele>391.4</ele>
        <time>2023-08-29T07:47:51Z</time>
      </trkpt>
      <trkpt lat="45.47246" lon="5.45172">
        <ele>391.4</ele>
        <time>2023-08-29T07:47:52Z</time>
      </trkpt>
      <trkpt lat="45.47243" lon="5.45168">
        <ele>391.4</ele>
        <time>2023-08-29T07:47:53Z</time>
      </trkpt>
      <trkpt lat="45.47239" lon="5.45165">
        <ele>391.4</ele>
        <time>2023-08-29T07:47:54Z</time>
      </trkpt>
      <trkpt lat="45.47236" lon="5.45161">
        <ele>391.4</ele>
        <time>2023-08-29T07:47:55Z</time>
      </trkpt>
      <trkpt lat="45.47232" lon="5.45157">
        <ele>391.6</ele>
        <time>2023-08-29T07:47:56Z</time>
      </trkpt>
      <trkpt lat="45.47229" lon="5.45153">
        <ele>391.6</ele>
        <time>2023-08-29T07:47:57Z</time>
      </trkpt>
      <trkpt lat="45.47225" lon="5.45149">
        <ele>391.6</ele>
        <time>2023-08-29T07:47:58Z</time>
      </trkpt>
      <trkpt lat="45.47221" lon="5.45145">
        <ele>391.6</ele>
        <time>2023-08-29T07:47:59Z</time>
      </trkpt>
      <trkpt lat="45.47218" lon="5.4514">
        <ele>391.8</ele>
        <time>2023-08-29T07:48:00Z</time>
      </trkpt>
      <trkpt lat="45.47214" lon="5.45136">
        <ele>391.6</ele>
        <time>2023-08-29T07:48:01Z</time>
      </trkpt>
      <trkpt lat="45.4721" lon="5.45131">
        <ele>391.6</ele>
        <time>2023-08-29T07:48:02Z</time>
      </trkpt>
      <trkpt lat="45.47207" lon="5.45127">
        <ele>391.6</ele>
        <time>2023-08-29T07:48:03Z</time>
      </trkpt>
      <trkpt lat="45.47203" lon="5.45122">
        <ele>391.6</ele>
        <time>2023-08-29T07:48:04Z</time>
      </trkpt>
      <trkpt lat="45.47199" lon="5.45118">
        <ele>391.4</ele>
        <time>2023-08-29T07:48:05Z</time>
      </trkpt>
      <trkpt lat="45.47196" lon="5.45114">
        <ele>391.4</ele>
        <time>2023-08-29T07:48:06Z</time>
      </trkpt>
      <trkpt lat="45.47192" lon="5.45109">
        <ele>391.4</ele>
        <time>2023-08-29T07:48:07Z</time>
      </trkpt>
      <trkpt lat="45.47188" lon="5.45105">
        <ele>391.4</ele>
        <time>2023-08-29T07:48:08Z</time>
      </trkpt>
      <trkpt lat="45.47185" lon="5.45101">
        <ele>391.4</ele>
        <time>2023-08-29T07:48:09Z</time>
      </trkpt>
      <trkpt lat="45.47181" lon="5.45097">
        <ele>391.4</ele>
        <time>2023-08-29T07:48:10Z</time>
      </trkpt>
      <trkpt lat="45.47177" lon="5.45093">
        <ele>391.4</ele>
        <time>2023-08-29T07:48:11Z</time>
      </trkpt>
      <trkpt lat="45.47173" lon="5.45089">
        <ele>391.6</ele>
        <time>2023-08-29T07:48:12Z</time>
      </trkpt>
      <trkpt lat="45.47168" lon="5.45086">
        <ele>391.6</ele>
        <time>2023-08-29T07:48:13Z</time>
      </trkpt>
      <trkpt lat="45.47163" lon="5.45083">
        <ele>391.8</ele>
        <time>2023-08-29T07:48:14Z</time>
      </trkpt>
      <trkpt lat="45.47159" lon="5.45081">
        <ele>392</ele>
        <time>2023-08-29T07:48:15Z</time>
      </trkpt>
      <trkpt lat="45.47154" lon="5.4508">
        <ele>392</ele>
        <time>2023-08-29T07:48:16Z</time>
      </trkpt>
      <trkpt lat="45.47149" lon="5.45079">
        <ele>392</ele>
        <time>2023-08-29T07:48:17Z</time>
      </trkpt>
      <trkpt lat="45.47144" lon="5.45078">
        <ele>392.2</ele>
        <time>2023-08-29T07:48:18Z</time>
      </trkpt>
      <trkpt lat="45.4714" lon="5.45078">
        <ele>392.2</ele>
        <time>2023-08-29T07:48:19Z</time>
      </trkpt>
      <trkpt lat="45.47134" lon="5.45078">
        <ele>392.2</ele>
        <time>2023-08-29T07:48:20Z</time>
      </trkpt>
      <trkpt lat="45.47129" lon="5.45077">
        <ele>392.2</ele>
        <time>2023-08-29T07:48:21Z</time>
      </trkpt>
      <trkpt lat="45.47123" lon="5.45076">
        <ele>392.2</ele>
        <time>2023-08-29T07:48:22Z</time>
      </trkpt>
      <trkpt lat="45.47119" lon="5.45077">
        <ele>392.2</ele>
        <time>2023-08-29T07:48:23Z</time>
      </trkpt>
      <trkpt lat="45.47114" lon="5.45077">
        <ele>392.2</ele>
        <time>2023-08-29T07:48:24Z</time>
      </trkpt>
      <trkpt lat="45.47108" lon="5.45076">
        <ele>392</ele>
        <time>2023-08-29T07:48:25Z</time>
      </trkpt>
      <trkpt lat="45.47103" lon="5.45075">
        <ele>392</ele>
        <time>2023-08-29T07:48:26Z</time>
      </trkpt>
      <trkpt lat="45.47098" lon="5.45074">
        <ele>392</ele>
        <time>2023-08-29T07:48:27Z</time>
      </trkpt>
      <trkpt lat="45.47092" lon="5.45073">
        <ele>392</ele>
        <time>2023-08-29T07:48:28Z</time>
      </trkpt>
      <trkpt lat="45.47087" lon="5.45071">
        <ele>392</ele>
        <time>2023-08-29T07:48:29Z</time>
      </trkpt>
      <trkpt lat="45.47082" lon="5.4507">
        <ele>392</ele>
        <time>2023-08-29T07:48:30Z</time>
      </trkpt>
      <trkpt lat="45.47076" lon="5.45069">
        <ele>392</ele>
        <time>2023-08-29T07:48:31Z</time>
      </trkpt>
      <trkpt lat="45.47071" lon="5.45067">
        <ele>392</ele>
        <time>2023-08-29T07:48:32Z</time>
      </trkpt>
      <trkpt lat="45.47066" lon="5.45066">
        <ele>392</ele>
        <time>2023-08-29T07:48:33Z</time>
      </trkpt>
      <trkpt lat="45.47061" lon="5.45064">
        <ele>392</ele>
        <time>2023-08-29T07:48:34Z</time>
      </trkpt>
      <trkpt lat="45.47055" lon="5.45062">
        <ele>392</ele>
        <time>2023-08-29T07:48:35Z</time>
      </trkpt>
      <trkpt lat="45.4705" lon="5.4506">
        <ele>391.8</ele>
        <time>2023-08-29T07:48:36Z</time>
      </trkpt>
      <trkpt lat="45.47045" lon="5.45058">
        <ele>391.8</ele>
        <time>2023-08-29T07:48:37Z</time>
      </trkpt>
      <trkpt lat="45.4704" lon="5.45056">
        <ele>391.8</ele>
        <time>2023-08-29T07:48:38Z</time>
      </trkpt>
      <trkpt lat="45.47034" lon="5.45054">
        <ele>391.6</ele>
        <time>2023-08-29T07:48:39Z</time>
      </trkpt>
      <trkpt lat="45.47029" lon="5.45051">
        <ele>391.6</ele>
        <time>2023-08-29T07:48:40Z</time>
      </trkpt>
      <trkpt lat="45.47024" lon="5.45049">
        <ele>391.6</ele>
        <time>2023-08-29T07:48:41Z</time>
      </trkpt>
      <trkpt lat="45.47018" lon="5.45048">
        <ele>391.6</ele>
        <time>2023-08-29T07:48:42Z</time>
      </trkpt>
      <trkpt lat="45.47013" lon="5.45046">
        <ele>391.6</ele>
        <time>2023-08-29T07:48:43Z</time>
      </trkpt>
      <trkpt lat="45.47008" lon="5.45044">
        <ele>391.6</ele>
        <time>2023-08-29T07:48:44Z</time>
      </trkpt>
      <trkpt lat="45.47003" lon="5.45041">
        <ele>392</ele>
        <time>2023-08-29T07:48:45Z</time>
      </trkpt>
      <trkpt lat="45.46998" lon="5.45039">
        <ele>392</ele>
        <time>2023-08-29T07:48:46Z</time>
      </trkpt>
      <trkpt lat="45.46992" lon="5.45036">
        <ele>392</ele>
        <time>2023-08-29T07:48:47Z</time>
      </trkpt>
      <trkpt lat="45.46987" lon="5.45033">
        <ele>392.2</ele>
        <time>2023-08-29T07:48:48Z</time>
      </trkpt>
      <trkpt lat="45.46982" lon="5.45031">
        <ele>392.2</ele>
        <time>2023-08-29T07:48:49Z</time>
      </trkpt>
      <trkpt lat="45.46977" lon="5.45029">
        <ele>392.4</ele>
        <time>2023-08-29T07:48:50Z</time>
      </trkpt>
      <trkpt lat="45.46972" lon="5.45027">
        <ele>392.4</ele>
        <time>2023-08-29T07:48:51Z</time>
      </trkpt>
      <trkpt lat="45.46967" lon="5.45025">
        <ele>392.4</ele>
        <time>2023-08-29T07:48:52Z</time>
      </trkpt>
      <trkpt lat="45.46962" lon="5.45022">
        <ele>392.4</ele>
        <time>2023-08-29T07:48:53Z</time>
      </trkpt>
      <trkpt lat="45.46957" lon="5.4502">
        <ele>392.6</ele>
        <time>2023-08-29T07:48:54Z</time>
      </trkpt>
      <trkpt lat="45.46952" lon="5.45018">
        <ele>392.6</ele>
        <time>2023-08-29T07:48:55Z</time>
      </trkpt>
      <trkpt lat="45.46947" lon="5.45016">
        <ele>392.6</ele>
        <time>2023-08-29T07:48:56Z</time>
      </trkpt>
      <trkpt lat="45.46942" lon="5.45013">
        <ele>392.6</ele>
        <time>2023-08-29T07:48:57Z</time>
      </trkpt>
      <trkpt lat="45.46937" lon="5.45011">
        <ele>392.8</ele>
        <time>2023-08-29T07:48:58Z</time>
      </trkpt>
      <trkpt lat="45.46932" lon="5.45009">
        <ele>392.8</ele>
        <time>2023-08-29T07:48:59Z</time>
      </trkpt>
      <trkpt lat="45.46927" lon="5.45008">
        <ele>393</ele>
        <time>2023-08-29T07:49:00Z</time>
      </trkpt>
      <trkpt lat="45.46923" lon="5.45006">
        <ele>393</ele>
        <time>2023-08-29T07:49:01Z</time>
      </trkpt>
      <trkpt lat="45.46918" lon="5.45004">
        <ele>393</ele>
        <time>2023-08-29T07:49:02Z</time>
      </trkpt>
      <trkpt lat="45.46914" lon="5.45002">
        <ele>393</ele>
        <time>2023-08-29T07:49:03Z</time>
      </trkpt>
      <trkpt lat="45.4691" lon="5.45001">
        <ele>393.2</ele>
        <time>2023-08-29T07:49:04Z</time>
      </trkpt>
      <trkpt lat="45.46906" lon="5.44999">
        <ele>393.2</ele>
        <time>2023-08-29T07:49:05Z</time>
      </trkpt>
      <trkpt lat="45.46902" lon="5.44997">
        <ele>393.2</ele>
        <time>2023-08-29T07:49:06Z</time>
      </trkpt>
      <trkpt lat="45.46899" lon="5.44994">
        <ele>393.2</ele>
        <time>2023-08-29T07:49:07Z</time>
      </trkpt>
      <trkpt lat="45.46896" lon="5.44992">
        <ele>393.4</ele>
        <time>2023-08-29T07:49:08Z</time>
      </trkpt>
      <trkpt lat="45.46895" lon="5.4499">
        <ele>393.4</ele>
        <time>2023-08-29T07:49:09Z</time>
      </trkpt>
      <trkpt lat="45.46894" lon="5.44988">
        <ele>394</ele>
        <time>2023-08-29T07:49:10Z</time>
      </trkpt>
      <trkpt lat="45.46892" lon="5.44986">
        <ele>394.2</ele>
        <time>2023-08-29T07:49:11Z</time>
      </trkpt>
      <trkpt lat="45.4689" lon="5.44985">
        <ele>394.6</ele>
        <time>2023-08-29T07:49:12Z</time>
      </trkpt>
      <trkpt lat="45.46887" lon="5.44984">
        <ele>394.8</ele>
        <time>2023-08-29T07:49:13Z</time>
      </trkpt>
      <trkpt lat="45.46885" lon="5.44982">
        <ele>395</ele>
        <time>2023-08-29T07:49:14Z</time>
      </trkpt>
      <trkpt lat="45.46882" lon="5.44978">
        <ele>395</ele>
        <time>2023-08-29T07:49:15Z</time>
      </trkpt>
      <trkpt lat="45.46879" lon="5.44974">
        <ele>395</ele>
        <time>2023-08-29T07:49:16Z</time>
      </trkpt>
      <trkpt lat="45.46876" lon="5.44969">
        <ele>395</ele>
        <time>2023-08-29T07:49:17Z</time>
      </trkpt>
      <trkpt lat="45.46873" lon="5.44964">
        <ele>395</ele>
        <time>2023-08-29T07:49:18Z</time>
      </trkpt>
      <trkpt lat="45.4687" lon="5.44958">
        <ele>394.6</ele>
        <time>2023-08-29T07:49:19Z</time>
      </trkpt>
      <trkpt lat="45.46867" lon="5.44951">
        <ele>394.2</ele>
        <time>2023-08-29T07:49:20Z</time>
      </trkpt>
      <trkpt lat="45.46862" lon="5.44945">
        <ele>393.8</ele>
        <time>2023-08-29T07:49:21Z</time>
      </trkpt>
      <trkpt lat="45.46857" lon="5.44938">
        <ele>393.4</ele>
        <time>2023-08-29T07:49:22Z</time>
      </trkpt>
      <trkpt lat="45.46852" lon="5.44931">
        <ele>393</ele>
        <time>2023-08-29T07:49:23Z</time>
      </trkpt>
      <trkpt lat="45.46848" lon="5.44925">
        <ele>392.8</ele>
        <time>2023-08-29T07:49:24Z</time>
      </trkpt>
      <trkpt lat="45.46843" lon="5.44918">
        <ele>392.8</ele>
        <time>2023-08-29T07:49:25Z</time>
      </trkpt>
      <trkpt lat="45.46838" lon="5.44912">
        <ele>392.6</ele>
        <time>2023-08-29T07:49:26Z</time>
      </trkpt>
      <trkpt lat="45.46833" lon="5.44906">
        <ele>392.6</ele>
        <time>2023-08-29T07:49:27Z</time>
      </trkpt>
      <trkpt lat="45.46829" lon="5.449">
        <ele>392.6</ele>
        <time>2023-08-29T07:49:28Z</time>
      </trkpt>
      <trkpt lat="45.46825" lon="5.44895">
        <ele>392.4</ele>
        <time>2023-08-29T07:49:29Z</time>
      </trkpt>
      <trkpt lat="45.4682" lon="5.44888">
        <ele>392.4</ele>
        <time>2023-08-29T07:49:30Z</time>
      </trkpt>
      <trkpt lat="45.46816" lon="5.44881">
        <ele>392.4</ele>
        <time>2023-08-29T07:49:31Z</time>
      </trkpt>
      <trkpt lat="45.46811" lon="5.44874">
        <ele>392.4</ele>
        <time>2023-08-29T07:49:32Z</time>
      </trkpt>
      <trkpt lat="45.46807" lon="5.44867">
        <ele>392.4</ele>
        <time>2023-08-29T07:49:33Z</time>
      </trkpt>
      <trkpt lat="45.46802" lon="5.4486">
        <ele>392.2</ele>
        <time>2023-08-29T07:49:34Z</time>
      </trkpt>
      <trkpt lat="45.46798" lon="5.44853">
        <ele>391.8</ele>
        <time>2023-08-29T07:49:35Z</time>
      </trkpt>
      <trkpt lat="45.46794" lon="5.44846">
        <ele>391.6</ele>
        <time>2023-08-29T07:49:36Z</time>
      </trkpt>
      <trkpt lat="45.46788" lon="5.44839">
        <ele>391.4</ele>
        <time>2023-08-29T07:49:37Z</time>
      </trkpt>
      <trkpt lat="45.46783" lon="5.44833">
        <ele>391.2</ele>
        <time>2023-08-29T07:49:38Z</time>
      </trkpt>
      <trkpt lat="45.46778" lon="5.44827">
        <ele>391.2</ele>
        <time>2023-08-29T07:49:39Z</time>
      </trkpt>
      <trkpt lat="45.46772" lon="5.44823">
        <ele>391.2</ele>
        <time>2023-08-29T07:49:40Z</time>
      </trkpt>
      <trkpt lat="45.46766" lon="5.44819">
        <ele>391.2</ele>
        <time>2023-08-29T07:49:41Z</time>
      </trkpt>
      <trkpt lat="45.4676" lon="5.44816">
        <ele>391.2</ele>
        <time>2023-08-29T07:49:42Z</time>
      </trkpt>
      <trkpt lat="45.46753" lon="5.44813">
        <ele>391.2</ele>
        <time>2023-08-29T07:49:43Z</time>
      </trkpt>
      <trkpt lat="45.46747" lon="5.4481">
        <ele>391.4</ele>
        <time>2023-08-29T07:49:44Z</time>
      </trkpt>
      <trkpt lat="45.46741" lon="5.44807">
        <ele>391.4</ele>
        <time>2023-08-29T07:49:45Z</time>
      </trkpt>
      <trkpt lat="45.46735" lon="5.44804">
        <ele>391.6</ele>
        <time>2023-08-29T07:49:46Z</time>
      </trkpt>
      <trkpt lat="45.46728" lon="5.44801">
        <ele>391.8</ele>
        <time>2023-08-29T07:49:47Z</time>
      </trkpt>
      <trkpt lat="45.46722" lon="5.44798">
        <ele>391.8</ele>
        <time>2023-08-29T07:49:48Z</time>
      </trkpt>
      <trkpt lat="45.46715" lon="5.44795">
        <ele>391.8</ele>
        <time>2023-08-29T07:49:49Z</time>
      </trkpt>
      <trkpt lat="45.4671" lon="5.44792">
        <ele>391.8</ele>
        <time>2023-08-29T07:49:50Z</time>
      </trkpt>
      <trkpt lat="45.46704" lon="5.44788">
        <ele>391.2</ele>
        <time>2023-08-29T07:49:51Z</time>
      </trkpt>
      <trkpt lat="45.46698" lon="5.44785">
        <ele>391.2</ele>
        <time>2023-08-29T07:49:52Z</time>
      </trkpt>
      <trkpt lat="45.46692" lon="5.44781">
        <ele>391.2</ele>
        <time>2023-08-29T07:49:53Z</time>
      </trkpt>
      <trkpt lat="45.46687" lon="5.44777">
        <ele>391.2</ele>
        <time>2023-08-29T07:49:54Z</time>
      </trkpt>
      <trkpt lat="45.46681" lon="5.44773">
        <ele>391.2</ele>
        <time>2023-08-29T07:49:55Z</time>
      </trkpt>
      <trkpt lat="45.46675" lon="5.44768">
        <ele>391.2</ele>
        <time>2023-08-29T07:49:56Z</time>
      </trkpt>
      <trkpt lat="45.46669" lon="5.44764">
        <ele>391</ele>
        <time>2023-08-29T07:49:57Z</time>
      </trkpt>
      <trkpt lat="45.46664" lon="5.44761">
        <ele>391.2</ele>
        <time>2023-08-29T07:49:58Z</time>
      </trkpt>
      <trkpt lat="45.46659" lon="5.44756">
        <ele>391.2</ele>
        <time>2023-08-29T07:49:59Z</time>
      </trkpt>
      <trkpt lat="45.46653" lon="5.44752">
        <ele>391.2</ele>
        <time>2023-08-29T07:50:00Z</time>
      </trkpt>
      <trkpt lat="45.46648" lon="5.44748">
        <ele>391.2</ele>
        <time>2023-08-29T07:50:01Z</time>
      </trkpt>
      <trkpt lat="45.46642" lon="5.44744">
        <ele>391.2</ele>
        <time>2023-08-29T07:50:02Z</time>
      </trkpt>
      <trkpt lat="45.46637" lon="5.4474">
        <ele>391.4</ele>
        <time>2023-08-29T07:50:03Z</time>
      </trkpt>
      <trkpt lat="45.46632" lon="5.44735">
        <ele>391.4</ele>
        <time>2023-08-29T07:50:04Z</time>
      </trkpt>
      <trkpt lat="45.46626" lon="5.44732">
        <ele>391.4</ele>
        <time>2023-08-29T07:50:05Z</time>
      </trkpt>
      <trkpt lat="45.46621" lon="5.44728">
        <ele>391.4</ele>
        <time>2023-08-29T07:50:06Z</time>
      </trkpt>
      <trkpt lat="45.46616" lon="5.44724">
        <ele>391.4</ele>
        <time>2023-08-29T07:50:07Z</time>
      </trkpt>
      <trkpt lat="45.46611" lon="5.4472">
        <ele>391.6</ele>
        <time>2023-08-29T07:50:08Z</time>
      </trkpt>
      <trkpt lat="45.46606" lon="5.44716">
        <ele>391.6</ele>
        <time>2023-08-29T07:50:09Z</time>
      </trkpt>
      <trkpt lat="45.466" lon="5.44712">
        <ele>391.8</ele>
        <time>2023-08-29T07:50:10Z</time>
      </trkpt>
      <trkpt lat="45.46595" lon="5.44708">
        <ele>392</ele>
        <time>2023-08-29T07:50:11Z</time>
      </trkpt>
      <trkpt lat="45.4659" lon="5.44704">
        <ele>392</ele>
        <time>2023-08-29T07:50:12Z</time>
      </trkpt>
      <trkpt lat="45.46585" lon="5.447">
        <ele>392</ele>
        <time>2023-08-29T07:50:13Z</time>
      </trkpt>
      <trkpt lat="45.4658" lon="5.44696">
        <ele>392</ele>
        <time>2023-08-29T07:50:14Z</time>
      </trkpt>
      <trkpt lat="45.46575" lon="5.44693">
        <ele>392</ele>
        <time>2023-08-29T07:50:15Z</time>
      </trkpt>
      <trkpt lat="45.4657" lon="5.44689">
        <ele>392</ele>
        <time>2023-08-29T07:50:16Z</time>
      </trkpt>
      <trkpt lat="45.46565" lon="5.44686">
        <ele>392</ele>
        <time>2023-08-29T07:50:17Z</time>
      </trkpt>
      <trkpt lat="45.46559" lon="5.44682">
        <ele>392</ele>
        <time>2023-08-29T07:50:18Z</time>
      </trkpt>
      <trkpt lat="45.46554" lon="5.44678">
        <ele>392</ele>
        <time>2023-08-29T07:50:19Z</time>
      </trkpt>
      <trkpt lat="45.46549" lon="5.44674">
        <ele>392.2</ele>
        <time>2023-08-29T07:50:20Z</time>
      </trkpt>
      <trkpt lat="45.46544" lon="5.4467">
        <ele>392.4</ele>
        <time>2023-08-29T07:50:21Z</time>
      </trkpt>
      <trkpt lat="45.46539" lon="5.44667">
        <ele>392.6</ele>
        <time>2023-08-29T07:50:22Z</time>
      </trkpt>
      <trkpt lat="45.46534" lon="5.44664">
        <ele>392.6</ele>
        <time>2023-08-29T07:50:23Z</time>
      </trkpt>
      <trkpt lat="45.46528" lon="5.44662">
        <ele>392.6</ele>
        <time>2023-08-29T07:50:24Z</time>
      </trkpt>
      <trkpt lat="45.46523" lon="5.4466">
        <ele>392.6</ele>
        <time>2023-08-29T07:50:25Z</time>
      </trkpt>
      <trkpt lat="45.46518" lon="5.44658">
        <ele>392.6</ele>
        <time>2023-08-29T07:50:26Z</time>
      </trkpt>
      <trkpt lat="45.46512" lon="5.44656">
        <ele>392.6</ele>
        <time>2023-08-29T07:50:27Z</time>
      </trkpt>
      <trkpt lat="45.46505" lon="5.44655">
        <ele>392.4</ele>
        <time>2023-08-29T07:50:28Z</time>
      </trkpt>
      <trkpt lat="45.46499" lon="5.44655">
        <ele>392.4</ele>
        <time>2023-08-29T07:50:29Z</time>
      </trkpt>
      <trkpt lat="45.46493" lon="5.44656">
        <ele>392.4</ele>
        <time>2023-08-29T07:50:30Z</time>
      </trkpt>
      <trkpt lat="45.46487" lon="5.44658">
        <ele>392.4</ele>
        <time>2023-08-29T07:50:31Z</time>
      </trkpt>
      <trkpt lat="45.46481" lon="5.44659">
        <ele>392.4</ele>
        <time>2023-08-29T07:50:32Z</time>
      </trkpt>
      <trkpt lat="45.46476" lon="5.4466">
        <ele>392.4</ele>
        <time>2023-08-29T07:50:33Z</time>
      </trkpt>
      <trkpt lat="45.46471" lon="5.44662">
        <ele>392.6</ele>
        <time>2023-08-29T07:50:34Z</time>
      </trkpt>
      <trkpt lat="45.46466" lon="5.44664">
        <ele>392.6</ele>
        <time>2023-08-29T07:50:35Z</time>
      </trkpt>
      <trkpt lat="45.4646" lon="5.44666">
        <ele>392.8</ele>
        <time>2023-08-29T07:50:36Z</time>
      </trkpt>
      <trkpt lat="45.46455" lon="5.44669">
        <ele>392.8</ele>
        <time>2023-08-29T07:50:37Z</time>
      </trkpt>
      <trkpt lat="45.46449" lon="5.44671">
        <ele>392.8</ele>
        <time>2023-08-29T07:50:38Z</time>
      </trkpt>
      <trkpt lat="45.46443" lon="5.44674">
        <ele>392.8</ele>
        <time>2023-08-29T07:50:39Z</time>
      </trkpt>
      <trkpt lat="45.46438" lon="5.44677">
        <ele>392.8</ele>
        <time>2023-08-29T07:50:40Z</time>
      </trkpt>
      <trkpt lat="45.46432" lon="5.4468">
        <ele>392.8</ele>
        <time>2023-08-29T07:50:41Z</time>
      </trkpt>
      <trkpt lat="45.46427" lon="5.44683">
        <ele>392.8</ele>
        <time>2023-08-29T07:50:42Z</time>
      </trkpt>
      <trkpt lat="45.46421" lon="5.44686">
        <ele>392.8</ele>
        <time>2023-08-29T07:50:43Z</time>
      </trkpt>
      <trkpt lat="45.46415" lon="5.4469">
        <ele>392.6</ele>
        <time>2023-08-29T07:50:44Z</time>
      </trkpt>
      <trkpt lat="45.46409" lon="5.44693">
        <ele>392.6</ele>
        <time>2023-08-29T07:50:45Z</time>
      </trkpt>
      <trkpt lat="45.46404" lon="5.44697">
        <ele>392.6</ele>
        <time>2023-08-29T07:50:46Z</time>
      </trkpt>
      <trkpt lat="45.46398" lon="5.447">
        <ele>392.6</ele>
        <time>2023-08-29T07:50:47Z</time>
      </trkpt>
      <trkpt lat="45.46392" lon="5.44704">
        <ele>392.6</ele>
        <time>2023-08-29T07:50:48Z</time>
      </trkpt>
      <trkpt lat="45.46387" lon="5.44707">
        <ele>392.8</ele>
        <time>2023-08-29T07:50:49Z</time>
      </trkpt>
      <trkpt lat="45.46381" lon="5.44709">
        <ele>392.8</ele>
        <time>2023-08-29T07:50:50Z</time>
      </trkpt>
      <trkpt lat="45.46376" lon="5.44712">
        <ele>392.8</ele>
        <time>2023-08-29T07:50:51Z</time>
      </trkpt>
      <trkpt lat="45.4637" lon="5.44714">
        <ele>392.8</ele>
        <time>2023-08-29T07:50:52Z</time>
      </trkpt>
      <trkpt lat="45.46364" lon="5.44717">
        <ele>392.8</ele>
        <time>2023-08-29T07:50:53Z</time>
      </trkpt>
      <trkpt lat="45.46359" lon="5.44719">
        <ele>392.8</ele>
        <time>2023-08-29T07:50:54Z</time>
      </trkpt>
      <trkpt lat="45.46353" lon="5.44722">
        <ele>393</ele>
        <time>2023-08-29T07:50:55Z</time>
      </trkpt>
      <trkpt lat="45.46347" lon="5.44723">
        <ele>393</ele>
        <time>2023-08-29T07:50:56Z</time>
      </trkpt>
      <trkpt lat="45.46341" lon="5.44725">
        <ele>393</ele>
        <time>2023-08-29T07:50:57Z</time>
      </trkpt>
      <trkpt lat="45.46335" lon="5.44727">
        <ele>393</ele>
        <time>2023-08-29T07:50:58Z</time>
      </trkpt>
      <trkpt lat="45.4633" lon="5.44728">
        <ele>393.2</ele>
        <time>2023-08-29T07:50:59Z</time>
      </trkpt>
      <trkpt lat="45.46325" lon="5.4473">
        <ele>393.2</ele>
        <time>2023-08-29T07:51:00Z</time>
      </trkpt>
      <trkpt lat="45.46319" lon="5.44731">
        <ele>393.2</ele>
        <time>2023-08-29T07:51:01Z</time>
      </trkpt>
      <trkpt lat="45.46314" lon="5.44733">
        <ele>393.2</ele>
        <time>2023-08-29T07:51:02Z</time>
      </trkpt>
      <trkpt lat="45.46308" lon="5.44733">
        <ele>393.2</ele>
        <time>2023-08-29T07:51:03Z</time>
      </trkpt>
      <trkpt lat="45.46302" lon="5.44734">
        <ele>393.2</ele>
        <time>2023-08-29T07:51:04Z</time>
      </trkpt>
      <trkpt lat="45.46297" lon="5.44736">
        <ele>393.2</ele>
        <time>2023-08-29T07:51:05Z</time>
      </trkpt>
      <trkpt lat="45.46291" lon="5.44737">
        <ele>393.2</ele>
        <time>2023-08-29T07:51:06Z</time>
      </trkpt>
      <trkpt lat="45.46286" lon="5.44739">
        <ele>393.2</ele>
        <time>2023-08-29T07:51:07Z</time>
      </trkpt>
      <trkpt lat="45.4628" lon="5.44741">
        <ele>393.2</ele>
        <time>2023-08-29T07:51:08Z</time>
      </trkpt>
      <trkpt lat="45.46275" lon="5.44743">
        <ele>393.4</ele>
        <time>2023-08-29T07:51:09Z</time>
      </trkpt>
      <trkpt lat="45.46269" lon="5.44746">
        <ele>393.2</ele>
        <time>2023-08-29T07:51:10Z</time>
      </trkpt>
      <trkpt lat="45.46264" lon="5.44749">
        <ele>393.2</ele>
        <time>2023-08-29T07:51:11Z</time>
      </trkpt>
      <trkpt lat="45.4626" lon="5.44753">
        <ele>393.2</ele>
        <time>2023-08-29T07:51:12Z</time>
      </trkpt>
      <trkpt lat="45.46256" lon="5.44757">
        <ele>393.4</ele>
        <time>2023-08-29T07:51:13Z</time>
      </trkpt>
      <trkpt lat="45.46252" lon="5.44761">
        <ele>393.4</ele>
        <time>2023-08-29T07:51:14Z</time>
      </trkpt>
      <trkpt lat="45.46247" lon="5.44765">
        <ele>393.4</ele>
        <time>2023-08-29T07:51:15Z</time>
      </trkpt>
      <trkpt lat="45.46243" lon="5.44769">
        <ele>393.6</ele>
        <time>2023-08-29T07:51:16Z</time>
      </trkpt>
      <trkpt lat="45.46238" lon="5.44773">
        <ele>393.6</ele>
        <time>2023-08-29T07:51:17Z</time>
      </trkpt>
      <trkpt lat="45.46234" lon="5.44776">
        <ele>393.8</ele>
        <time>2023-08-29T07:51:18Z</time>
      </trkpt>
      <trkpt lat="45.46228" lon="5.44779">
        <ele>394.2</ele>
        <time>2023-08-29T07:51:19Z</time>
      </trkpt>
      <trkpt lat="45.46223" lon="5.44781">
        <ele>394.2</ele>
        <time>2023-08-29T07:51:20Z</time>
      </trkpt>
      <trkpt lat="45.46218" lon="5.44783">
        <ele>394.4</ele>
        <time>2023-08-29T07:51:21Z</time>
      </trkpt>
      <trkpt lat="45.46212" lon="5.44786">
        <ele>394.6</ele>
        <time>2023-08-29T07:51:22Z</time>
      </trkpt>
      <trkpt lat="45.46207" lon="5.44788">
        <ele>394.6</ele>
        <time>2023-08-29T07:51:23Z</time>
      </trkpt>
      <trkpt lat="45.46202" lon="5.44789">
        <ele>394.6</ele>
        <time>2023-08-29T07:51:24Z</time>
      </trkpt>
      <trkpt lat="45.46198" lon="5.4479">
        <ele>395</ele>
        <time>2023-08-29T07:51:25Z</time>
      </trkpt>
      <trkpt lat="45.46193" lon="5.44791">
        <ele>395.2</ele>
        <time>2023-08-29T07:51:26Z</time>
      </trkpt>
      <trkpt lat="45.46189" lon="5.44792">
        <ele>395.4</ele>
        <time>2023-08-29T07:51:27Z</time>
      </trkpt>
      <trkpt lat="45.46184" lon="5.44793">
        <ele>395.4</ele>
        <time>2023-08-29T07:51:28Z</time>
      </trkpt>
      <trkpt lat="45.4618" lon="5.44792">
        <ele>395.6</ele>
        <time>2023-08-29T07:51:29Z</time>
      </trkpt>
      <trkpt lat="45.46175" lon="5.44792">
        <ele>395.8</ele>
        <time>2023-08-29T07:51:30Z</time>
      </trkpt>
      <trkpt lat="45.4617" lon="5.44792">
        <ele>396.2</ele>
        <time>2023-08-29T07:51:31Z</time>
      </trkpt>
      <trkpt lat="45.46166" lon="5.44792">
        <ele>396.4</ele>
        <time>2023-08-29T07:51:32Z</time>
      </trkpt>
      <trkpt lat="45.46161" lon="5.44793">
        <ele>396.4</ele>
        <time>2023-08-29T07:51:33Z</time>
      </trkpt>
      <trkpt lat="45.46156" lon="5.44792">
        <ele>396.4</ele>
        <time>2023-08-29T07:51:34Z</time>
      </trkpt>
      <trkpt lat="45.46151" lon="5.44792">
        <ele>396.4</ele>
        <time>2023-08-29T07:51:35Z</time>
      </trkpt>
      <trkpt lat="45.46147" lon="5.44791">
        <ele>396.6</ele>
        <time>2023-08-29T07:51:36Z</time>
      </trkpt>
      <trkpt lat="45.46142" lon="5.44791">
        <ele>396.6</ele>
        <time>2023-08-29T07:51:37Z</time>
      </trkpt>
      <trkpt lat="45.46138" lon="5.4479">
        <ele>396.8</ele>
        <time>2023-08-29T07:51:38Z</time>
      </trkpt>
      <trkpt lat="45.46133" lon="5.44789">
        <ele>396.8</ele>
        <time>2023-08-29T07:51:39Z</time>
      </trkpt>
      <trkpt lat="45.46128" lon="5.44787">
        <ele>396.8</ele>
        <time>2023-08-29T07:51:40Z</time>
      </trkpt>
      <trkpt lat="45.46124" lon="5.44785">
        <ele>396.8</ele>
        <time>2023-08-29T07:51:41Z</time>
      </trkpt>
      <trkpt lat="45.46119" lon="5.44783">
        <ele>397</ele>
        <time>2023-08-29T07:51:42Z</time>
      </trkpt>
      <trkpt lat="45.46115" lon="5.44782">
        <ele>397</ele>
        <time>2023-08-29T07:51:43Z</time>
      </trkpt>
      <trkpt lat="45.4611" lon="5.4478">
        <ele>397</ele>
        <time>2023-08-29T07:51:44Z</time>
      </trkpt>
      <trkpt lat="45.46106" lon="5.44779">
        <ele>397</ele>
        <time>2023-08-29T07:51:45Z</time>
      </trkpt>
      <trkpt lat="45.46102" lon="5.44777">
        <ele>397</ele>
        <time>2023-08-29T07:51:46Z</time>
      </trkpt>
      <trkpt lat="45.46098" lon="5.44775">
        <ele>397.2</ele>
        <time>2023-08-29T07:51:47Z</time>
      </trkpt>
      <trkpt lat="45.46093" lon="5.44772">
        <ele>397.2</ele>
        <time>2023-08-29T07:51:48Z</time>
      </trkpt>
      <trkpt lat="45.4609" lon="5.4477">
        <ele>397.6</ele>
        <time>2023-08-29T07:51:49Z</time>
      </trkpt>
      <trkpt lat="45.46086" lon="5.44768">
        <ele>397.8</ele>
        <time>2023-08-29T07:51:50Z</time>
      </trkpt>
      <trkpt lat="45.46082" lon="5.44764">
        <ele>398</ele>
        <time>2023-08-29T07:51:51Z</time>
      </trkpt>
      <trkpt lat="45.46079" lon="5.44761">
        <ele>398.4</ele>
        <time>2023-08-29T07:51:52Z</time>
      </trkpt>
      <trkpt lat="45.46076" lon="5.44758">
        <ele>398.4</ele>
        <time>2023-08-29T07:51:53Z</time>
      </trkpt>
      <trkpt lat="45.46073" lon="5.44755">
        <ele>398.6</ele>
        <time>2023-08-29T07:51:54Z</time>
      </trkpt>
      <trkpt lat="45.4607" lon="5.44753">
        <ele>398.8</ele>
        <time>2023-08-29T07:51:55Z</time>
      </trkpt>
      <trkpt lat="45.46066" lon="5.44749">
        <ele>399.2</ele>
        <time>2023-08-29T07:51:56Z</time>
      </trkpt>
      <trkpt lat="45.46063" lon="5.44746">
        <ele>399.2</ele>
        <time>2023-08-29T07:51:57Z</time>
      </trkpt>
      <trkpt lat="45.4606" lon="5.44742">
        <ele>399.4</ele>
        <time>2023-08-29T07:51:58Z</time>
      </trkpt>
      <trkpt lat="45.46057" lon="5.44739">
        <ele>399.6</ele>
        <time>2023-08-29T07:51:59Z</time>
      </trkpt>
      <trkpt lat="45.46054" lon="5.44736">
        <ele>399.6</ele>
        <time>2023-08-29T07:52:00Z</time>
      </trkpt>
      <trkpt lat="45.4605" lon="5.44733">
        <ele>400</ele>
        <time>2023-08-29T07:52:01Z</time>
      </trkpt>
      <trkpt lat="45.46046" lon="5.44729">
        <ele>400.2</ele>
        <time>2023-08-29T07:52:02Z</time>
      </trkpt>
      <trkpt lat="45.46043" lon="5.44726">
        <ele>400.4</ele>
        <time>2023-08-29T07:52:03Z</time>
      </trkpt>
      <trkpt lat="45.46039" lon="5.44723">
        <ele>400.4</ele>
        <time>2023-08-29T07:52:04Z</time>
      </trkpt>
      <trkpt lat="45.46036" lon="5.44719">
        <ele>400.6</ele>
        <time>2023-08-29T07:52:05Z</time>
      </trkpt>
      <trkpt lat="45.46033" lon="5.44716">
        <ele>400.6</ele>
        <time>2023-08-29T07:52:06Z</time>
      </trkpt>
      <trkpt lat="45.4603" lon="5.44713">
        <ele>400.8</ele>
        <time>2023-08-29T07:52:07Z</time>
      </trkpt>
      <trkpt lat="45.46027" lon="5.4471">
        <ele>400.8</ele>
        <time>2023-08-29T07:52:08Z</time>
      </trkpt>
      <trkpt lat="45.46024" lon="5.44706">
        <ele>401</ele>
        <time>2023-08-29T07:52:09Z</time>
      </trkpt>
      <trkpt lat="45.4602" lon="5.44703">
        <ele>401</ele>
        <time>2023-08-29T07:52:10Z</time>
      </trkpt>
      <trkpt lat="45.46017" lon="5.44699">
        <ele>401.6</ele>
        <time>2023-08-29T07:52:11Z</time>
      </trkpt>
      <trkpt lat="45.46014" lon="5.44696">
        <ele>401.8</ele>
        <time>2023-08-29T07:52:12Z</time>
      </trkpt>
      <trkpt lat="45.46011" lon="5.44692">
        <ele>402</ele>
        <time>2023-08-29T07:52:13Z</time>
      </trkpt>
      <trkpt lat="45.46007" lon="5.44688">
        <ele>402.2</ele>
        <time>2023-08-29T07:52:14Z</time>
      </trkpt>
      <trkpt lat="45.46004" lon="5.44685">
        <ele>402.4</ele>
        <time>2023-08-29T07:52:15Z</time>
      </trkpt>
      <trkpt lat="45.46" lon="5.44681">
        <ele>402.8</ele>
        <time>2023-08-29T07:52:16Z</time>
      </trkpt>
      <trkpt lat="45.45997" lon="5.44677">
        <ele>403</ele>
        <time>2023-08-29T07:52:17Z</time>
      </trkpt>
      <trkpt lat="45.45993" lon="5.44673">
        <ele>403.4</ele>
        <time>2023-08-29T07:52:18Z</time>
      </trkpt>
      <trkpt lat="45.4599" lon="5.4467">
        <ele>403.6</ele>
        <time>2023-08-29T07:52:19Z</time>
      </trkpt>
      <trkpt lat="45.45987" lon="5.44666">
        <ele>403.8</ele>
        <time>2023-08-29T07:52:20Z</time>
      </trkpt>
      <trkpt lat="45.45984" lon="5.44662">
        <ele>404</ele>
        <time>2023-08-29T07:52:21Z</time>
      </trkpt>
      <trkpt lat="45.45981" lon="5.44658">
        <ele>404.2</ele>
        <time>2023-08-29T07:52:22Z</time>
      </trkpt>
      <trkpt lat="45.45978" lon="5.44655">
        <ele>404.4</ele>
        <time>2023-08-29T07:52:23Z</time>
      </trkpt>
      <trkpt lat="45.45975" lon="5.44651">
        <ele>404.4</ele>
        <time>2023-08-29T07:52:24Z</time>
      </trkpt>
      <trkpt lat="45.45972" lon="5.44648">
        <ele>404.6</ele>
        <time>2023-08-29T07:52:25Z</time>
      </trkpt>
      <trkpt lat="45.45969" lon="5.44644">
        <ele>404.8</ele>
        <time>2023-08-29T07:52:26Z</time>
      </trkpt>
      <trkpt lat="45.45966" lon="5.44641">
        <ele>405</ele>
        <time>2023-08-29T07:52:27Z</time>
      </trkpt>
      <trkpt lat="45.45963" lon="5.44637">
        <ele>405.2</ele>
        <time>2023-08-29T07:52:28Z</time>
      </trkpt>
      <trkpt lat="45.4596" lon="5.44635">
        <ele>405.2</ele>
        <time>2023-08-29T07:52:29Z</time>
      </trkpt>
      <trkpt lat="45.45956" lon="5.44632">
        <ele>405.6</ele>
        <time>2023-08-29T07:52:30Z</time>
      </trkpt>
      <trkpt lat="45.45953" lon="5.44629">
        <ele>405.8</ele>
        <time>2023-08-29T07:52:31Z</time>
      </trkpt>
      <trkpt lat="45.45949" lon="5.44625">
        <ele>405.8</ele>
        <time>2023-08-29T07:52:32Z</time>
      </trkpt>
      <trkpt lat="45.45945" lon="5.4462">
        <ele>405.8</ele>
        <time>2023-08-29T07:52:33Z</time>
      </trkpt>
      <trkpt lat="45.45941" lon="5.44614">
        <ele>405.8</ele>
        <time>2023-08-29T07:52:34Z</time>
      </trkpt>
      <trkpt lat="45.45938" lon="5.44609">
        <ele>405.8</ele>
        <time>2023-08-29T07:52:35Z</time>
      </trkpt>
      <trkpt lat="45.45935" lon="5.44602">
        <ele>405.6</ele>
        <time>2023-08-29T07:52:36Z</time>
      </trkpt>
      <trkpt lat="45.45933" lon="5.44596">
        <ele>405.4</ele>
        <time>2023-08-29T07:52:37Z</time>
      </trkpt>
      <trkpt lat="45.4593" lon="5.44588">
        <ele>405.2</ele>
        <time>2023-08-29T07:52:38Z</time>
      </trkpt>
      <trkpt lat="45.45927" lon="5.44582">
        <ele>404.8</ele>
        <time>2023-08-29T07:52:39Z</time>
      </trkpt>
      <trkpt lat="45.45925" lon="5.44576">
        <ele>404.4</ele>
        <time>2023-08-29T07:52:40Z</time>
      </trkpt>
      <trkpt lat="45.45923" lon="5.44569">
        <ele>404.4</ele>
        <time>2023-08-29T07:52:41Z</time>
      </trkpt>
      <trkpt lat="45.45921" lon="5.44562">
        <ele>404.4</ele>
        <time>2023-08-29T07:52:42Z</time>
      </trkpt>
      <trkpt lat="45.45919" lon="5.44555">
        <ele>404.2</ele>
        <time>2023-08-29T07:52:43Z</time>
      </trkpt>
      <trkpt lat="45.45917" lon="5.44547">
        <ele>404</ele>
        <time>2023-08-29T07:52:44Z</time>
      </trkpt>
      <trkpt lat="45.45916" lon="5.4454">
        <ele>404</ele>
        <time>2023-08-29T07:52:45Z</time>
      </trkpt>
      <trkpt lat="45.45914" lon="5.44533">
        <ele>403.8</ele>
        <time>2023-08-29T07:52:46Z</time>
      </trkpt>
      <trkpt lat="45.45911" lon="5.44525">
        <ele>403.4</ele>
        <time>2023-08-29T07:52:47Z</time>
      </trkpt>
      <trkpt lat="45.45909" lon="5.44518">
        <ele>403.4</ele>
        <time>2023-08-29T07:52:48Z</time>
      </trkpt>
      <trkpt lat="45.45907" lon="5.4451">
        <ele>403.2</ele>
        <time>2023-08-29T07:52:49Z</time>
      </trkpt>
      <trkpt lat="45.45904" lon="5.44503">
        <ele>403.2</ele>
        <time>2023-08-29T07:52:50Z</time>
      </trkpt>
      <trkpt lat="45.45902" lon="5.44495">
        <ele>403</ele>
        <time>2023-08-29T07:52:51Z</time>
      </trkpt>
      <trkpt lat="45.459" lon="5.44489">
        <ele>403</ele>
        <time>2023-08-29T07:52:52Z</time>
      </trkpt>
      <trkpt lat="45.45897" lon="5.44482">
        <ele>402.8</ele>
        <time>2023-08-29T07:52:53Z</time>
      </trkpt>
      <trkpt lat="45.45895" lon="5.44474">
        <ele>402.8</ele>
        <time>2023-08-29T07:52:54Z</time>
      </trkpt>
      <trkpt lat="45.45892" lon="5.44466">
        <ele>402.8</ele>
        <time>2023-08-29T07:52:55Z</time>
      </trkpt>
      <trkpt lat="45.4589" lon="5.44459">
        <ele>402.6</ele>
        <time>2023-08-29T07:52:56Z</time>
      </trkpt>
      <trkpt lat="45.45887" lon="5.44453">
        <ele>402.6</ele>
        <time>2023-08-29T07:52:57Z</time>
      </trkpt>
      <trkpt lat="45.45885" lon="5.44446">
        <ele>402.6</ele>
        <time>2023-08-29T07:52:58Z</time>
      </trkpt>
      <trkpt lat="45.45882" lon="5.44439">
        <ele>402.6</ele>
        <time>2023-08-29T07:52:59Z</time>
      </trkpt>
      <trkpt lat="45.4588" lon="5.44431">
        <ele>402.6</ele>
        <time>2023-08-29T07:53:00Z</time>
      </trkpt>
      <trkpt lat="45.45878" lon="5.44424">
        <ele>402.6</ele>
        <time>2023-08-29T07:53:01Z</time>
      </trkpt>
      <trkpt lat="45.45876" lon="5.44417">
        <ele>402.6</ele>
        <time>2023-08-29T07:53:02Z</time>
      </trkpt>
      <trkpt lat="45.45874" lon="5.44411">
        <ele>402.6</ele>
        <time>2023-08-29T07:53:03Z</time>
      </trkpt>
      <trkpt lat="45.45871" lon="5.44405">
        <ele>402.6</ele>
        <time>2023-08-29T07:53:04Z</time>
      </trkpt>
      <trkpt lat="45.45868" lon="5.44399">
        <ele>402.6</ele>
        <time>2023-08-29T07:53:05Z</time>
      </trkpt>
      <trkpt lat="45.45865" lon="5.44392">
        <ele>402.6</ele>
        <time>2023-08-29T07:53:06Z</time>
      </trkpt>
      <trkpt lat="45.45862" lon="5.44386">
        <ele>402.6</ele>
        <time>2023-08-29T07:53:07Z</time>
      </trkpt>
      <trkpt lat="45.45859" lon="5.4438">
        <ele>402.6</ele>
        <time>2023-08-29T07:53:08Z</time>
      </trkpt>
      <trkpt lat="45.45855" lon="5.44375">
        <ele>402.8</ele>
        <time>2023-08-29T07:53:09Z</time>
      </trkpt>
      <trkpt lat="45.45851" lon="5.44371">
        <ele>402.8</ele>
        <time>2023-08-29T07:53:10Z</time>
      </trkpt>
      <trkpt lat="45.45847" lon="5.44365">
        <ele>402.8</ele>
        <time>2023-08-29T07:53:11Z</time>
      </trkpt>
      <trkpt lat="45.45844" lon="5.44361">
        <ele>402.8</ele>
        <time>2023-08-29T07:53:12Z</time>
      </trkpt>
      <trkpt lat="45.4584" lon="5.44357">
        <ele>402.8</ele>
        <time>2023-08-29T07:53:13Z</time>
      </trkpt>
      <trkpt lat="45.45835" lon="5.44352">
        <ele>402.8</ele>
        <time>2023-08-29T07:53:14Z</time>
      </trkpt>
      <trkpt lat="45.45831" lon="5.44348">
        <ele>403</ele>
        <time>2023-08-29T07:53:15Z</time>
      </trkpt>
      <trkpt lat="45.45826" lon="5.44344">
        <ele>403</ele>
        <time>2023-08-29T07:53:16Z</time>
      </trkpt>
      <trkpt lat="45.45822" lon="5.4434">
        <ele>403</ele>
        <time>2023-08-29T07:53:17Z</time>
      </trkpt>
      <trkpt lat="45.45817" lon="5.44335">
        <ele>402.8</ele>
        <time>2023-08-29T07:53:18Z</time>
      </trkpt>
      <trkpt lat="45.45813" lon="5.44329">
        <ele>402.8</ele>
        <time>2023-08-29T07:53:19Z</time>
      </trkpt>
      <trkpt lat="45.45808" lon="5.44324">
        <ele>402.8</ele>
        <time>2023-08-29T07:53:20Z</time>
      </trkpt>
      <trkpt lat="45.45804" lon="5.4432">
        <ele>402.8</ele>
        <time>2023-08-29T07:53:21Z</time>
      </trkpt>
      <trkpt lat="45.458" lon="5.44316">
        <ele>402.8</ele>
        <time>2023-08-29T07:53:22Z</time>
      </trkpt>
      <trkpt lat="45.45796" lon="5.44312">
        <ele>402.8</ele>
        <time>2023-08-29T07:53:23Z</time>
      </trkpt>
      <trkpt lat="45.45793" lon="5.44308">
        <ele>402.8</ele>
        <time>2023-08-29T07:53:24Z</time>
      </trkpt>
      <trkpt lat="45.45789" lon="5.44303">
        <ele>402.8</ele>
        <time>2023-08-29T07:53:25Z</time>
      </trkpt>
      <trkpt lat="45.45786" lon="5.44299">
        <ele>403</ele>
        <time>2023-08-29T07:53:26Z</time>
      </trkpt>
      <trkpt lat="45.45782" lon="5.44294">
        <ele>403</ele>
        <time>2023-08-29T07:53:27Z</time>
      </trkpt>
      <trkpt lat="45.45779" lon="5.44289">
        <ele>403</ele>
        <time>2023-08-29T07:53:28Z</time>
      </trkpt>
      <trkpt lat="45.45776" lon="5.44284">
        <ele>403</ele>
        <time>2023-08-29T07:53:29Z</time>
      </trkpt>
      <trkpt lat="45.45773" lon="5.44279">
        <ele>403.4</ele>
        <time>2023-08-29T07:53:30Z</time>
      </trkpt>
      <trkpt lat="45.45769" lon="5.44274">
        <ele>403.4</ele>
        <time>2023-08-29T07:53:31Z</time>
      </trkpt>
      <trkpt lat="45.45766" lon="5.44269">
        <ele>403.4</ele>
        <time>2023-08-29T07:53:32Z</time>
      </trkpt>
      <trkpt lat="45.45763" lon="5.44265">
        <ele>403.8</ele>
        <time>2023-08-29T07:53:33Z</time>
      </trkpt>
      <trkpt lat="45.45759" lon="5.44261">
        <ele>403.8</ele>
        <time>2023-08-29T07:53:34Z</time>
      </trkpt>
      <trkpt lat="45.45756" lon="5.44256">
        <ele>404</ele>
        <time>2023-08-29T07:53:35Z</time>
      </trkpt>
      <trkpt lat="45.45752" lon="5.44251">
        <ele>404.2</ele>
        <time>2023-08-29T07:53:36Z</time>
      </trkpt>
      <trkpt lat="45.45749" lon="5.44247">
        <ele>404.2</ele>
        <time>2023-08-29T07:53:37Z</time>
      </trkpt>
      <trkpt lat="45.45746" lon="5.44241">
        <ele>404.4</ele>
        <time>2023-08-29T07:53:38Z</time>
      </trkpt>
      <trkpt lat="45.45743" lon="5.44236">
        <ele>404.6</ele>
        <time>2023-08-29T07:53:39Z</time>
      </trkpt>
      <trkpt lat="45.4574" lon="5.44231">
        <ele>404.8</ele>
        <time>2023-08-29T07:53:40Z</time>
      </trkpt>
      <trkpt lat="45.45738" lon="5.44226">
        <ele>404.8</ele>
        <time>2023-08-29T07:53:41Z</time>
      </trkpt>
      <trkpt lat="45.45736" lon="5.44222">
        <ele>405</ele>
        <time>2023-08-29T07:53:42Z</time>
      </trkpt>
      <trkpt lat="45.45734" lon="5.44216">
        <ele>405.2</ele>
        <time>2023-08-29T07:53:43Z</time>
      </trkpt>
      <trkpt lat="45.45731" lon="5.4421">
        <ele>405.4</ele>
        <time>2023-08-29T07:53:44Z</time>
      </trkpt>
      <trkpt lat="45.45729" lon="5.44204">
        <ele>405.6</ele>
        <time>2023-08-29T07:53:45Z</time>
      </trkpt>
      <trkpt lat="45.45726" lon="5.44199">
        <ele>406</ele>
        <time>2023-08-29T07:53:46Z</time>
      </trkpt>
      <trkpt lat="45.45723" lon="5.44194">
        <ele>406.2</ele>
        <time>2023-08-29T07:53:47Z</time>
      </trkpt>
      <trkpt lat="45.45721" lon="5.44188">
        <ele>406.4</ele>
        <time>2023-08-29T07:53:48Z</time>
      </trkpt>
      <trkpt lat="45.45719" lon="5.44182">
        <ele>406.4</ele>
        <time>2023-08-29T07:53:49Z</time>
      </trkpt>
      <trkpt lat="45.45717" lon="5.44177">
        <ele>406.6</ele>
        <time>2023-08-29T07:53:50Z</time>
      </trkpt>
      <trkpt lat="45.45714" lon="5.4417">
        <ele>406.8</ele>
        <time>2023-08-29T07:53:51Z</time>
      </trkpt>
      <trkpt lat="45.45712" lon="5.44165">
        <ele>407</ele>
        <time>2023-08-29T07:53:52Z</time>
      </trkpt>
      <trkpt lat="45.45709" lon="5.4416">
        <ele>407.2</ele>
        <time>2023-08-29T07:53:53Z</time>
      </trkpt>
      <trkpt lat="45.45707" lon="5.44155">
        <ele>407.2</ele>
        <time>2023-08-29T07:53:54Z</time>
      </trkpt>
      <trkpt lat="45.45705" lon="5.4415">
        <ele>407.4</ele>
        <time>2023-08-29T07:53:55Z</time>
      </trkpt>
      <trkpt lat="45.45702" lon="5.44145">
        <ele>407.6</ele>
        <time>2023-08-29T07:53:56Z</time>
      </trkpt>
      <trkpt lat="45.457" lon="5.44139">
        <ele>407.6</ele>
        <time>2023-08-29T07:53:57Z</time>
      </trkpt>
      <trkpt lat="45.45697" lon="5.44134">
        <ele>408</ele>
        <time>2023-08-29T07:53:58Z</time>
      </trkpt>
      <trkpt lat="45.45695" lon="5.44129">
        <ele>408.2</ele>
        <time>2023-08-29T07:53:59Z</time>
      </trkpt>
      <trkpt lat="45.45692" lon="5.44124">
        <ele>408.4</ele>
        <time>2023-08-29T07:54:00Z</time>
      </trkpt>
      <trkpt lat="45.45689" lon="5.44119">
        <ele>408.6</ele>
        <time>2023-08-29T07:54:01Z</time>
      </trkpt>
      <trkpt lat="45.45686" lon="5.44114">
        <ele>408.8</ele>
        <time>2023-08-29T07:54:02Z</time>
      </trkpt>
      <trkpt lat="45.45683" lon="5.44108">
        <ele>409</ele>
        <time>2023-08-29T07:54:03Z</time>
      </trkpt>
      <trkpt lat="45.45679" lon="5.44103">
        <ele>409</ele>
        <time>2023-08-29T07:54:04Z</time>
      </trkpt>
      <trkpt lat="45.45676" lon="5.44098">
        <ele>409.2</ele>
        <time>2023-08-29T07:54:05Z</time>
      </trkpt>
      <trkpt lat="45.45673" lon="5.44094">
        <ele>409.4</ele>
        <time>2023-08-29T07:54:06Z</time>
      </trkpt>
      <trkpt lat="45.45669" lon="5.44089">
        <ele>409.4</ele>
        <time>2023-08-29T07:54:07Z</time>
      </trkpt>
      <trkpt lat="45.45666" lon="5.44085">
        <ele>409.6</ele>
        <time>2023-08-29T07:54:08Z</time>
      </trkpt>
      <trkpt lat="45.45662" lon="5.44081">
        <ele>409.8</ele>
        <time>2023-08-29T07:54:09Z</time>
      </trkpt>
      <trkpt lat="45.45659" lon="5.44077">
        <ele>409.8</ele>
        <time>2023-08-29T07:54:10Z</time>
      </trkpt>
      <trkpt lat="45.45655" lon="5.44073">
        <ele>410</ele>
        <time>2023-08-29T07:54:11Z</time>
      </trkpt>
      <trkpt lat="45.45651" lon="5.44068">
        <ele>410</ele>
        <time>2023-08-29T07:54:12Z</time>
      </trkpt>
      <trkpt lat="45.45647" lon="5.44064">
        <ele>410</ele>
        <time>2023-08-29T07:54:13Z</time>
      </trkpt>
      <trkpt lat="45.45643" lon="5.4406">
        <ele>410.2</ele>
        <time>2023-08-29T07:54:14Z</time>
      </trkpt>
      <trkpt lat="45.45639" lon="5.44056">
        <ele>410.2</ele>
        <time>2023-08-29T07:54:15Z</time>
      </trkpt>
      <trkpt lat="45.45635" lon="5.44052">
        <ele>410.2</ele>
        <time>2023-08-29T07:54:16Z</time>
      </trkpt>
      <trkpt lat="45.45632" lon="5.44048">
        <ele>410.2</ele>
        <time>2023-08-29T07:54:17Z</time>
      </trkpt>
      <trkpt lat="45.45628" lon="5.44043">
        <ele>410.2</ele>
        <time>2023-08-29T07:54:18Z</time>
      </trkpt>
      <trkpt lat="45.45624" lon="5.44038">
        <ele>410.4</ele>
        <time>2023-08-29T07:54:19Z</time>
      </trkpt>
      <trkpt lat="45.45621" lon="5.44033">
        <ele>410.6</ele>
        <time>2023-08-29T07:54:20Z</time>
      </trkpt>
      <trkpt lat="45.45618" lon="5.44028">
        <ele>410.6</ele>
        <time>2023-08-29T07:54:21Z</time>
      </trkpt>
      <trkpt lat="45.45615" lon="5.44023">
        <ele>411</ele>
        <time>2023-08-29T07:54:22Z</time>
      </trkpt>
      <trkpt lat="45.45612" lon="5.44018">
        <ele>411</ele>
        <time>2023-08-29T07:54:23Z</time>
      </trkpt>
      <trkpt lat="45.45609" lon="5.44013">
        <ele>411</ele>
        <time>2023-08-29T07:54:24Z</time>
      </trkpt>
      <trkpt lat="45.45606" lon="5.44007">
        <ele>411.2</ele>
        <time>2023-08-29T07:54:25Z</time>
      </trkpt>
      <trkpt lat="45.45603" lon="5.44002">
        <ele>411.6</ele>
        <time>2023-08-29T07:54:26Z</time>
      </trkpt>
      <trkpt lat="45.45601" lon="5.43997">
        <ele>411.6</ele>
        <time>2023-08-29T07:54:27Z</time>
      </trkpt>
      <trkpt lat="45.45598" lon="5.43992">
        <ele>411.8</ele>
        <time>2023-08-29T07:54:28Z</time>
      </trkpt>
      <trkpt lat="45.45596" lon="5.43987">
        <ele>412</ele>
        <time>2023-08-29T07:54:29Z</time>
      </trkpt>
      <trkpt lat="45.45595" lon="5.43981">
        <ele>412.2</ele>
        <time>2023-08-29T07:54:30Z</time>
      </trkpt>
      <trkpt lat="45.45593" lon="5.43975">
        <ele>412.2</ele>
        <time>2023-08-29T07:54:31Z</time>
      </trkpt>
      <trkpt lat="45.45591" lon="5.43969">
        <ele>412.4</ele>
        <time>2023-08-29T07:54:32Z</time>
      </trkpt>
      <trkpt lat="45.45589" lon="5.43964">
        <ele>412.8</ele>
        <time>2023-08-29T07:54:33Z</time>
      </trkpt>
      <trkpt lat="45.45588" lon="5.43958">
        <ele>413</ele>
        <time>2023-08-29T07:54:34Z</time>
      </trkpt>
      <trkpt lat="45.45587" lon="5.43952">
        <ele>413.2</ele>
        <time>2023-08-29T07:54:35Z</time>
      </trkpt>
      <trkpt lat="45.45585" lon="5.43947">
        <ele>413.4</ele>
        <time>2023-08-29T07:54:36Z</time>
      </trkpt>
      <trkpt lat="45.45583" lon="5.43941">
        <ele>413.8</ele>
        <time>2023-08-29T07:54:37Z</time>
      </trkpt>
      <trkpt lat="45.45582" lon="5.43936">
        <ele>414</ele>
        <time>2023-08-29T07:54:38Z</time>
      </trkpt>
      <trkpt lat="45.4558" lon="5.43931">
        <ele>414.2</ele>
        <time>2023-08-29T07:54:39Z</time>
      </trkpt>
      <trkpt lat="45.45579" lon="5.43927">
        <ele>414.4</ele>
        <time>2023-08-29T07:54:40Z</time>
      </trkpt>
      <trkpt lat="45.45577" lon="5.43922">
        <ele>414.8</ele>
        <time>2023-08-29T07:54:41Z</time>
      </trkpt>
      <trkpt lat="45.45576" lon="5.43917">
        <ele>415.2</ele>
        <time>2023-08-29T07:54:42Z</time>
      </trkpt>
      <trkpt lat="45.45575" lon="5.43913">
        <ele>415.2</ele>
        <time>2023-08-29T07:54:43Z</time>
      </trkpt>
      <trkpt lat="45.45573" lon="5.43907">
        <ele>415.4</ele>
        <time>2023-08-29T07:54:44Z</time>
      </trkpt>
      <trkpt lat="45.45571" lon="5.43901">
        <ele>415.8</ele>
        <time>2023-08-29T07:54:45Z</time>
      </trkpt>
      <trkpt lat="45.4557" lon="5.43896">
        <ele>416.2</ele>
        <time>2023-08-29T07:54:46Z</time>
      </trkpt>
      <trkpt lat="45.45568" lon="5.43892">
        <ele>416.2</ele>
        <time>2023-08-29T07:54:47Z</time>
      </trkpt>
      <trkpt lat="45.45567" lon="5.43887">
        <ele>416.4</ele>
        <time>2023-08-29T07:54:48Z</time>
      </trkpt>
      <trkpt lat="45.45565" lon="5.43882">
        <ele>416.6</ele>
        <time>2023-08-29T07:54:49Z</time>
      </trkpt>
      <trkpt lat="45.45564" lon="5.43877">
        <ele>416.8</ele>
        <time>2023-08-29T07:54:50Z</time>
      </trkpt>
      <trkpt lat="45.45563" lon="5.43872">
        <ele>416.8</ele>
        <time>2023-08-29T07:54:51Z</time>
      </trkpt>
      <trkpt lat="45.45562" lon="5.43867">
        <ele>416.8</ele>
        <time>2023-08-29T07:54:52Z</time>
      </trkpt>
      <trkpt lat="45.4556" lon="5.43863">
        <ele>416.8</ele>
        <time>2023-08-29T07:54:53Z</time>
      </trkpt>
      <trkpt lat="45.45559" lon="5.43858">
        <ele>417</ele>
        <time>2023-08-29T07:54:54Z</time>
      </trkpt>
      <trkpt lat="45.45558" lon="5.43853">
        <ele>417.2</ele>
        <time>2023-08-29T07:54:55Z</time>
      </trkpt>
      <trkpt lat="45.45557" lon="5.43848">
        <ele>417.2</ele>
        <time>2023-08-29T07:54:56Z</time>
      </trkpt>
      <trkpt lat="45.45556" lon="5.43843">
        <ele>417.4</ele>
        <time>2023-08-29T07:54:57Z</time>
      </trkpt>
      <trkpt lat="45.45554" lon="5.43838">
        <ele>417.8</ele>
        <time>2023-08-29T07:54:58Z</time>
      </trkpt>
      <trkpt lat="45.45554" lon="5.43833">
        <ele>417.8</ele>
        <time>2023-08-29T07:54:59Z</time>
      </trkpt>
      <trkpt lat="45.45553" lon="5.43829">
        <ele>418.2</ele>
        <time>2023-08-29T07:55:00Z</time>
      </trkpt>
      <trkpt lat="45.45552" lon="5.43824">
        <ele>418.4</ele>
        <time>2023-08-29T07:55:01Z</time>
      </trkpt>
      <trkpt lat="45.45551" lon="5.43819">
        <ele>418.6</ele>
        <time>2023-08-29T07:55:02Z</time>
      </trkpt>
      <trkpt lat="45.4555" lon="5.43815">
        <ele>418.8</ele>
        <time>2023-08-29T07:55:03Z</time>
      </trkpt>
      <trkpt lat="45.45549" lon="5.4381">
        <ele>419.2</ele>
        <time>2023-08-29T07:55:04Z</time>
      </trkpt>
      <trkpt lat="45.45549" lon="5.43805">
        <ele>419.4</ele>
        <time>2023-08-29T07:55:05Z</time>
      </trkpt>
      <trkpt lat="45.45548" lon="5.43801">
        <ele>419.4</ele>
        <time>2023-08-29T07:55:06Z</time>
      </trkpt>
      <trkpt lat="45.45548" lon="5.43796">
        <ele>419.6</ele>
        <time>2023-08-29T07:55:07Z</time>
      </trkpt>
      <trkpt lat="45.45547" lon="5.43791">
        <ele>419.8</ele>
        <time>2023-08-29T07:55:08Z</time>
      </trkpt>
      <trkpt lat="45.45546" lon="5.43787">
        <ele>420</ele>
        <time>2023-08-29T07:55:09Z</time>
      </trkpt>
      <trkpt lat="45.45544" lon="5.43783">
        <ele>420.4</ele>
        <time>2023-08-29T07:55:10Z</time>
      </trkpt>
      <trkpt lat="45.45543" lon="5.43778">
        <ele>420.4</ele>
        <time>2023-08-29T07:55:11Z</time>
      </trkpt>
      <trkpt lat="45.45542" lon="5.43774">
        <ele>420.6</ele>
        <time>2023-08-29T07:55:12Z</time>
      </trkpt>
      <trkpt lat="45.45541" lon="5.43768">
        <ele>420.8</ele>
        <time>2023-08-29T07:55:13Z</time>
      </trkpt>
      <trkpt lat="45.45539" lon="5.43763">
        <ele>420.8</ele>
        <time>2023-08-29T07:55:14Z</time>
      </trkpt>
      <trkpt lat="45.45538" lon="5.43758">
        <ele>421</ele>
        <time>2023-08-29T07:55:15Z</time>
      </trkpt>
      <trkpt lat="45.45537" lon="5.43753">
        <ele>421.2</ele>
        <time>2023-08-29T07:55:16Z</time>
      </trkpt>
      <trkpt lat="45.45535" lon="5.43747">
        <ele>421.4</ele>
        <time>2023-08-29T07:55:17Z</time>
      </trkpt>
      <trkpt lat="45.45534" lon="5.43743">
        <ele>421.4</ele>
        <time>2023-08-29T07:55:18Z</time>
      </trkpt>
      <trkpt lat="45.45533" lon="5.43738">
        <ele>421.6</ele>
        <time>2023-08-29T07:55:19Z</time>
      </trkpt>
      <trkpt lat="45.45532" lon="5.43732">
        <ele>421.8</ele>
        <time>2023-08-29T07:55:20Z</time>
      </trkpt>
      <trkpt lat="45.45531" lon="5.43728">
        <ele>422.2</ele>
        <time>2023-08-29T07:55:21Z</time>
      </trkpt>
      <trkpt lat="45.4553" lon="5.43723">
        <ele>422.4</ele>
        <time>2023-08-29T07:55:22Z</time>
      </trkpt>
      <trkpt lat="45.45529" lon="5.43718">
        <ele>422.4</ele>
        <time>2023-08-29T07:55:23Z</time>
      </trkpt>
      <trkpt lat="45.45527" lon="5.43713">
        <ele>422.6</ele>
        <time>2023-08-29T07:55:24Z</time>
      </trkpt>
      <trkpt lat="45.45526" lon="5.43708">
        <ele>422.8</ele>
        <time>2023-08-29T07:55:25Z</time>
      </trkpt>
      <trkpt lat="45.45524" lon="5.43702">
        <ele>423</ele>
        <time>2023-08-29T07:55:26Z</time>
      </trkpt>
      <trkpt lat="45.45523" lon="5.43697">
        <ele>423.2</ele>
        <time>2023-08-29T07:55:27Z</time>
      </trkpt>
      <trkpt lat="45.45522" lon="5.43692">
        <ele>423.4</ele>
        <time>2023-08-29T07:55:28Z</time>
      </trkpt>
      <trkpt lat="45.45521" lon="5.43688">
        <ele>423.4</ele>
        <time>2023-08-29T07:55:29Z</time>
      </trkpt>
      <trkpt lat="45.4552" lon="5.43683">
        <ele>423.6</ele>
        <time>2023-08-29T07:55:30Z</time>
      </trkpt>
      <trkpt lat="45.45519" lon="5.43678">
        <ele>423.8</ele>
        <time>2023-08-29T07:55:31Z</time>
      </trkpt>
      <trkpt lat="45.45518" lon="5.43673">
        <ele>424</ele>
        <time>2023-08-29T07:55:32Z</time>
      </trkpt>
      <trkpt lat="45.45517" lon="5.43669">
        <ele>424.2</ele>
        <time>2023-08-29T07:55:33Z</time>
      </trkpt>
      <trkpt lat="45.45516" lon="5.43664">
        <ele>424.4</ele>
        <time>2023-08-29T07:55:34Z</time>
      </trkpt>
      <trkpt lat="45.45515" lon="5.43659">
        <ele>424.6</ele>
        <time>2023-08-29T07:55:35Z</time>
      </trkpt>
      <trkpt lat="45.45514" lon="5.43654">
        <ele>425</ele>
        <time>2023-08-29T07:55:36Z</time>
      </trkpt>
      <trkpt lat="45.45513" lon="5.43648">
        <ele>425</ele>
        <time>2023-08-29T07:55:37Z</time>
      </trkpt>
      <trkpt lat="45.45512" lon="5.43644">
        <ele>425.4</ele>
        <time>2023-08-29T07:55:38Z</time>
      </trkpt>
      <trkpt lat="45.4551" lon="5.43639">
        <ele>425.6</ele>
        <time>2023-08-29T07:55:39Z</time>
      </trkpt>
      <trkpt lat="45.45509" lon="5.43634">
        <ele>425.8</ele>
        <time>2023-08-29T07:55:40Z</time>
      </trkpt>
      <trkpt lat="45.45509" lon="5.4363">
        <ele>426</ele>
        <time>2023-08-29T07:55:41Z</time>
      </trkpt>
      <trkpt lat="45.45507" lon="5.43624">
        <ele>426.2</ele>
        <time>2023-08-29T07:55:42Z</time>
      </trkpt>
      <trkpt lat="45.45506" lon="5.4362">
        <ele>426.4</ele>
        <time>2023-08-29T07:55:43Z</time>
      </trkpt>
      <trkpt lat="45.45505" lon="5.43614">
        <ele>426.6</ele>
        <time>2023-08-29T07:55:44Z</time>
      </trkpt>
      <trkpt lat="45.45504" lon="5.43609">
        <ele>426.8</ele>
        <time>2023-08-29T07:55:45Z</time>
      </trkpt>
      <trkpt lat="45.45503" lon="5.43604">
        <ele>426.8</ele>
        <time>2023-08-29T07:55:46Z</time>
      </trkpt>
      <trkpt lat="45.45502" lon="5.43599">
        <ele>427</ele>
        <time>2023-08-29T07:55:47Z</time>
      </trkpt>
      <trkpt lat="45.45501" lon="5.43594">
        <ele>427</ele>
        <time>2023-08-29T07:55:48Z</time>
      </trkpt>
      <trkpt lat="45.45499" lon="5.43588">
        <ele>427.2</ele>
        <time>2023-08-29T07:55:49Z</time>
      </trkpt>
      <trkpt lat="45.45498" lon="5.43583">
        <ele>427.4</ele>
        <time>2023-08-29T07:55:50Z</time>
      </trkpt>
      <trkpt lat="45.45497" lon="5.43578">
        <ele>427.4</ele>
        <time>2023-08-29T07:55:51Z</time>
      </trkpt>
      <trkpt lat="45.45495" lon="5.43573">
        <ele>427.6</ele>
        <time>2023-08-29T07:55:52Z</time>
      </trkpt>
      <trkpt lat="45.45493" lon="5.43567">
        <ele>427.8</ele>
        <time>2023-08-29T07:55:53Z</time>
      </trkpt>
      <trkpt lat="45.4549" lon="5.43562">
        <ele>427.8</ele>
        <time>2023-08-29T07:55:54Z</time>
      </trkpt>
      <trkpt lat="45.45488" lon="5.43557">
        <ele>427.8</ele>
        <time>2023-08-29T07:55:55Z</time>
      </trkpt>
      <trkpt lat="45.45486" lon="5.43553">
        <ele>428</ele>
        <time>2023-08-29T07:55:56Z</time>
      </trkpt>
      <trkpt lat="45.45483" lon="5.43549">
        <ele>428</ele>
        <time>2023-08-29T07:55:57Z</time>
      </trkpt>
      <trkpt lat="45.4548" lon="5.43545">
        <ele>428.2</ele>
        <time>2023-08-29T07:55:58Z</time>
      </trkpt>
      <trkpt lat="45.45477" lon="5.43541">
        <ele>428.2</ele>
        <time>2023-08-29T07:55:59Z</time>
      </trkpt>
      <trkpt lat="45.45473" lon="5.43537">
        <ele>428.4</ele>
        <time>2023-08-29T07:56:00Z</time>
      </trkpt>
      <trkpt lat="45.45468" lon="5.43533">
        <ele>428.4</ele>
        <time>2023-08-29T07:56:01Z</time>
      </trkpt>
      <trkpt lat="45.45465" lon="5.43532">
        <ele>428.4</ele>
        <time>2023-08-29T07:56:02Z</time>
      </trkpt>
      <trkpt lat="45.4546" lon="5.43529">
        <ele>428.4</ele>
        <time>2023-08-29T07:56:03Z</time>
      </trkpt>
      <trkpt lat="45.45456" lon="5.43527">
        <ele>428.4</ele>
        <time>2023-08-29T07:56:04Z</time>
      </trkpt>
      <trkpt lat="45.45452" lon="5.43525">
        <ele>428.4</ele>
        <time>2023-08-29T07:56:05Z</time>
      </trkpt>
      <trkpt lat="45.45448" lon="5.43523">
        <ele>428.4</ele>
        <time>2023-08-29T07:56:06Z</time>
      </trkpt>
      <trkpt lat="45.45444" lon="5.43521">
        <ele>428.4</ele>
        <time>2023-08-29T07:56:07Z</time>
      </trkpt>
      <trkpt lat="45.4544" lon="5.43519">
        <ele>428.2</ele>
        <time>2023-08-29T07:56:08Z</time>
      </trkpt>
      <trkpt lat="45.45436" lon="5.43517">
        <ele>428.2</ele>
        <time>2023-08-29T07:56:09Z</time>
      </trkpt>
      <trkpt lat="45.45432" lon="5.43515">
        <ele>428.2</ele>
        <time>2023-08-29T07:56:10Z</time>
      </trkpt>
      <trkpt lat="45.45428" lon="5.43512">
        <ele>428.2</ele>
        <time>2023-08-29T07:56:11Z</time>
      </trkpt>
      <trkpt lat="45.45424" lon="5.4351">
        <ele>428.2</ele>
        <time>2023-08-29T07:56:12Z</time>
      </trkpt>
      <trkpt lat="45.4542" lon="5.43508">
        <ele>428.2</ele>
        <time>2023-08-29T07:56:13Z</time>
      </trkpt>
      <trkpt lat="45.45416" lon="5.43505">
        <ele>428.2</ele>
        <time>2023-08-29T07:56:14Z</time>
      </trkpt>
      <trkpt lat="45.45412" lon="5.43503">
        <ele>428.2</ele>
        <time>2023-08-29T07:56:15Z</time>
      </trkpt>
      <trkpt lat="45.45409" lon="5.435">
        <ele>428.2</ele>
        <time>2023-08-29T07:56:16Z</time>
      </trkpt>
      <trkpt lat="45.45405" lon="5.43497">
        <ele>428.2</ele>
        <time>2023-08-29T07:56:17Z</time>
      </trkpt>
      <trkpt lat="45.45401" lon="5.43495">
        <ele>428.2</ele>
        <time>2023-08-29T07:56:18Z</time>
      </trkpt>
      <trkpt lat="45.45397" lon="5.43493">
        <ele>428.4</ele>
        <time>2023-08-29T07:56:19Z</time>
      </trkpt>
      <trkpt lat="45.45394" lon="5.43491">
        <ele>428.4</ele>
        <time>2023-08-29T07:56:20Z</time>
      </trkpt>
      <trkpt lat="45.4539" lon="5.43489">
        <ele>428.4</ele>
        <time>2023-08-29T07:56:21Z</time>
      </trkpt>
      <trkpt lat="45.45387" lon="5.43487">
        <ele>428.8</ele>
        <time>2023-08-29T07:56:22Z</time>
      </trkpt>
      <trkpt lat="45.45383" lon="5.43484">
        <ele>428.8</ele>
        <time>2023-08-29T07:56:23Z</time>
      </trkpt>
      <trkpt lat="45.4538" lon="5.43482">
        <ele>428.8</ele>
        <time>2023-08-29T07:56:24Z</time>
      </trkpt>
      <trkpt lat="45.45376" lon="5.4348">
        <ele>429</ele>
        <time>2023-08-29T07:56:25Z</time>
      </trkpt>
      <trkpt lat="45.45372" lon="5.43479">
        <ele>429.2</ele>
        <time>2023-08-29T07:56:26Z</time>
      </trkpt>
      <trkpt lat="45.45369" lon="5.43478">
        <ele>429.2</ele>
        <time>2023-08-29T07:56:27Z</time>
      </trkpt>
      <trkpt lat="45.45366" lon="5.43476">
        <ele>429.2</ele>
        <time>2023-08-29T07:56:28Z</time>
      </trkpt>
      <trkpt lat="45.45363" lon="5.43474">
        <ele>429.4</ele>
        <time>2023-08-29T07:56:29Z</time>
      </trkpt>
      <trkpt lat="45.4536" lon="5.43471">
        <ele>429.6</ele>
        <time>2023-08-29T07:56:30Z</time>
      </trkpt>
      <trkpt lat="45.45356" lon="5.43468">
        <ele>429.8</ele>
        <time>2023-08-29T07:56:31Z</time>
      </trkpt>
      <trkpt lat="45.45354" lon="5.43466">
        <ele>430</ele>
        <time>2023-08-29T07:56:32Z</time>
      </trkpt>
      <trkpt lat="45.45351" lon="5.43462">
        <ele>430.2</ele>
        <time>2023-08-29T07:56:33Z</time>
      </trkpt>
      <trkpt lat="45.45348" lon="5.4346">
        <ele>430.4</ele>
        <time>2023-08-29T07:56:34Z</time>
      </trkpt>
      <trkpt lat="45.45345" lon="5.43458">
        <ele>430.4</ele>
        <time>2023-08-29T07:56:35Z</time>
      </trkpt>
      <trkpt lat="45.45341" lon="5.43454">
        <ele>430.8</ele>
        <time>2023-08-29T07:56:36Z</time>
      </trkpt>
      <trkpt lat="45.45338" lon="5.43451">
        <ele>430.8</ele>
        <time>2023-08-29T07:56:37Z</time>
      </trkpt>
      <trkpt lat="45.45333" lon="5.43447">
        <ele>430.8</ele>
        <time>2023-08-29T07:56:38Z</time>
      </trkpt>
      <trkpt lat="45.4533" lon="5.43445">
        <ele>431</ele>
        <time>2023-08-29T07:56:39Z</time>
      </trkpt>
      <trkpt lat="45.45326" lon="5.43442">
        <ele>431</ele>
        <time>2023-08-29T07:56:40Z</time>
      </trkpt>
      <trkpt lat="45.45322" lon="5.4344">
        <ele>431.2</ele>
        <time>2023-08-29T07:56:41Z</time>
      </trkpt>
      <trkpt lat="45.45319" lon="5.43439">
        <ele>431.2</ele>
        <time>2023-08-29T07:56:42Z</time>
      </trkpt>
      <trkpt lat="45.45316" lon="5.43437">
        <ele>431.2</ele>
        <time>2023-08-29T07:56:43Z</time>
      </trkpt>
      <trkpt lat="45.45313" lon="5.43435">
        <ele>431.4</ele>
        <time>2023-08-29T07:56:44Z</time>
      </trkpt>
      <trkpt lat="45.45309" lon="5.43434">
        <ele>431.6</ele>
        <time>2023-08-29T07:56:45Z</time>
      </trkpt>
      <trkpt lat="45.45306" lon="5.43432">
        <ele>431.6</ele>
        <time>2023-08-29T07:56:46Z</time>
      </trkpt>
      <trkpt lat="45.45302" lon="5.4343">
        <ele>431.8</ele>
        <time>2023-08-29T07:56:47Z</time>
      </trkpt>
      <trkpt lat="45.45299" lon="5.43428">
        <ele>432</ele>
        <time>2023-08-29T07:56:48Z</time>
      </trkpt>
      <trkpt lat="45.45297" lon="5.43427">
        <ele>432.2</ele>
        <time>2023-08-29T07:56:49Z</time>
      </trkpt>
      <trkpt lat="45.45293" lon="5.43425">
        <ele>432.4</ele>
        <time>2023-08-29T07:56:50Z</time>
      </trkpt>
      <trkpt lat="45.4529" lon="5.43422">
        <ele>432.4</ele>
        <time>2023-08-29T07:56:51Z</time>
      </trkpt>
      <trkpt lat="45.45286" lon="5.4342">
        <ele>432.4</ele>
        <time>2023-08-29T07:56:52Z</time>
      </trkpt>
      <trkpt lat="45.45283" lon="5.43418">
        <ele>432.6</ele>
        <time>2023-08-29T07:56:53Z</time>
      </trkpt>
      <trkpt lat="45.4528" lon="5.43416">
        <ele>432.6</ele>
        <time>2023-08-29T07:56:54Z</time>
      </trkpt>
      <trkpt lat="45.45276" lon="5.43413">
        <ele>432.6</ele>
        <time>2023-08-29T07:56:55Z</time>
      </trkpt>
      <trkpt lat="45.45272" lon="5.43411">
        <ele>433</ele>
        <time>2023-08-29T07:56:56Z</time>
      </trkpt>
      <trkpt lat="45.45269" lon="5.43408">
        <ele>433.2</ele>
        <time>2023-08-29T07:56:57Z</time>
      </trkpt>
      <trkpt lat="45.45266" lon="5.43406">
        <ele>433.2</ele>
        <time>2023-08-29T07:56:58Z</time>
      </trkpt>
      <trkpt lat="45.45263" lon="5.43404">
        <ele>433.4</ele>
        <time>2023-08-29T07:56:59Z</time>
      </trkpt>
      <trkpt lat="45.4526" lon="5.43401">
        <ele>433.4</ele>
        <time>2023-08-29T07:57:00Z</time>
      </trkpt>
      <trkpt lat="45.45256" lon="5.43397">
        <ele>433.4</ele>
        <time>2023-08-29T07:57:01Z</time>
      </trkpt>
      <trkpt lat="45.45254" lon="5.43393">
        <ele>433.8</ele>
        <time>2023-08-29T07:57:02Z</time>
      </trkpt>
      <trkpt lat="45.45251" lon="5.43389">
        <ele>433.8</ele>
        <time>2023-08-29T07:57:03Z</time>
      </trkpt>
      <trkpt lat="45.45248" lon="5.43386">
        <ele>434.2</ele>
        <time>2023-08-29T07:57:04Z</time>
      </trkpt>
      <trkpt lat="45.45244" lon="5.43383">
        <ele>434.2</ele>
        <time>2023-08-29T07:57:05Z</time>
      </trkpt>
      <trkpt lat="45.45242" lon="5.43379">
        <ele>434.2</ele>
        <time>2023-08-29T07:57:06Z</time>
      </trkpt>
      <trkpt lat="45.45239" lon="5.43376">
        <ele>434.4</ele>
        <time>2023-08-29T07:57:07Z</time>
      </trkpt>
      <trkpt lat="45.45237" lon="5.43372">
        <ele>434.6</ele>
        <time>2023-08-29T07:57:08Z</time>
      </trkpt>
      <trkpt lat="45.45234" lon="5.43368">
        <ele>434.6</ele>
        <time>2023-08-29T07:57:09Z</time>
      </trkpt>
      <trkpt lat="45.45231" lon="5.43364">
        <ele>434.6</ele>
        <time>2023-08-29T07:57:10Z</time>
      </trkpt>
      <trkpt lat="45.45229" lon="5.43361">
        <ele>434.8</ele>
        <time>2023-08-29T07:57:11Z</time>
      </trkpt>
      <trkpt lat="45.45226" lon="5.43357">
        <ele>434.8</ele>
        <time>2023-08-29T07:57:12Z</time>
      </trkpt>
      <trkpt lat="45.45224" lon="5.43353">
        <ele>435</ele>
        <time>2023-08-29T07:57:13Z</time>
      </trkpt>
      <trkpt lat="45.45222" lon="5.4335">
        <ele>435</ele>
        <time>2023-08-29T07:57:14Z</time>
      </trkpt>
      <trkpt lat="45.45219" lon="5.43346">
        <ele>435</ele>
        <time>2023-08-29T07:57:15Z</time>
      </trkpt>
      <trkpt lat="45.45216" lon="5.43342">
        <ele>435.2</ele>
        <time>2023-08-29T07:57:16Z</time>
      </trkpt>
      <trkpt lat="45.45214" lon="5.43338">
        <ele>435.4</ele>
        <time>2023-08-29T07:57:17Z</time>
      </trkpt>
      <trkpt lat="45.45211" lon="5.43335">
        <ele>435.4</ele>
        <time>2023-08-29T07:57:18Z</time>
      </trkpt>
      <trkpt lat="45.45208" lon="5.43333">
        <ele>435.6</ele>
        <time>2023-08-29T07:57:19Z</time>
      </trkpt>
      <trkpt lat="45.45205" lon="5.43329">
        <ele>435.6</ele>
        <time>2023-08-29T07:57:20Z</time>
      </trkpt>
      <trkpt lat="45.45202" lon="5.43327">
        <ele>435.6</ele>
        <time>2023-08-29T07:57:21Z</time>
      </trkpt>
      <trkpt lat="45.452" lon="5.43323">
        <ele>435.8</ele>
        <time>2023-08-29T07:57:22Z</time>
      </trkpt>
      <trkpt lat="45.45198" lon="5.4332">
        <ele>436</ele>
        <time>2023-08-29T07:57:23Z</time>
      </trkpt>
      <trkpt lat="45.45195" lon="5.43316">
        <ele>436</ele>
        <time>2023-08-29T07:57:24Z</time>
      </trkpt>
      <trkpt lat="45.45192" lon="5.43312">
        <ele>436.2</ele>
        <time>2023-08-29T07:57:25Z</time>
      </trkpt>
      <trkpt lat="45.4519" lon="5.43308">
        <ele>436.2</ele>
        <time>2023-08-29T07:57:26Z</time>
      </trkpt>
      <trkpt lat="45.45188" lon="5.43305">
        <ele>436.2</ele>
        <time>2023-08-29T07:57:27Z</time>
      </trkpt>
      <trkpt lat="45.45185" lon="5.43302">
        <ele>436.2</ele>
        <time>2023-08-29T07:57:28Z</time>
      </trkpt>
      <trkpt lat="45.45182" lon="5.43299">
        <ele>436.4</ele>
        <time>2023-08-29T07:57:29Z</time>
      </trkpt>
      <trkpt lat="45.4518" lon="5.43296">
        <ele>436.6</ele>
        <time>2023-08-29T07:57:30Z</time>
      </trkpt>
      <trkpt lat="45.45177" lon="5.43293">
        <ele>436.6</ele>
        <time>2023-08-29T07:57:31Z</time>
      </trkpt>
      <trkpt lat="45.45174" lon="5.43289">
        <ele>436.6</ele>
        <time>2023-08-29T07:57:32Z</time>
      </trkpt>
      <trkpt lat="45.45172" lon="5.43287">
        <ele>436.6</ele>
        <time>2023-08-29T07:57:33Z</time>
      </trkpt>
      <trkpt lat="45.45169" lon="5.43284">
        <ele>437</ele>
        <time>2023-08-29T07:57:34Z</time>
      </trkpt>
      <trkpt lat="45.45167" lon="5.43281">
        <ele>437</ele>
        <time>2023-08-29T07:57:35Z</time>
      </trkpt>
      <trkpt lat="45.45164" lon="5.43277">
        <ele>437.2</ele>
        <time>2023-08-29T07:57:36Z</time>
      </trkpt>
      <trkpt lat="45.45161" lon="5.43274">
        <ele>437.2</ele>
        <time>2023-08-29T07:57:37Z</time>
      </trkpt>
      <trkpt lat="45.45159" lon="5.4327">
        <ele>437.4</ele>
        <time>2023-08-29T07:57:38Z</time>
      </trkpt>
      <trkpt lat="45.45156" lon="5.43266">
        <ele>437.4</ele>
        <time>2023-08-29T07:57:39Z</time>
      </trkpt>
      <trkpt lat="45.45153" lon="5.43263">
        <ele>437.6</ele>
        <time>2023-08-29T07:57:40Z</time>
      </trkpt>
      <trkpt lat="45.45151" lon="5.4326">
        <ele>437.6</ele>
        <time>2023-08-29T07:57:41Z</time>
      </trkpt>
      <trkpt lat="45.45149" lon="5.43257">
        <ele>437.6</ele>
        <time>2023-08-29T07:57:42Z</time>
      </trkpt>
      <trkpt lat="45.45146" lon="5.43254">
        <ele>437.8</ele>
        <time>2023-08-29T07:57:43Z</time>
      </trkpt>
      <trkpt lat="45.45144" lon="5.4325">
        <ele>438</ele>
        <time>2023-08-29T07:57:44Z</time>
      </trkpt>
      <trkpt lat="45.45141" lon="5.43246">
        <ele>438.2</ele>
        <time>2023-08-29T07:57:45Z</time>
      </trkpt>
      <trkpt lat="45.45138" lon="5.43243">
        <ele>438.2</ele>
        <time>2023-08-29T07:57:46Z</time>
      </trkpt>
      <trkpt lat="45.45135" lon="5.4324">
        <ele>438.4</ele>
        <time>2023-08-29T07:57:47Z</time>
      </trkpt>
      <trkpt lat="45.45132" lon="5.43237">
        <ele>438.6</ele>
        <time>2023-08-29T07:57:48Z</time>
      </trkpt>
      <trkpt lat="45.45129" lon="5.43234">
        <ele>438.8</ele>
        <time>2023-08-29T07:57:49Z</time>
      </trkpt>
      <trkpt lat="45.45127" lon="5.4323">
        <ele>439</ele>
        <time>2023-08-29T07:57:50Z</time>
      </trkpt>
      <trkpt lat="45.45124" lon="5.43226">
        <ele>439</ele>
        <time>2023-08-29T07:57:51Z</time>
      </trkpt>
      <trkpt lat="45.45122" lon="5.43222">
        <ele>439.2</ele>
        <time>2023-08-29T07:57:52Z</time>
      </trkpt>
      <trkpt lat="45.45119" lon="5.43217">
        <ele>439.6</ele>
        <time>2023-08-29T07:57:53Z</time>
      </trkpt>
      <trkpt lat="45.45118" lon="5.43213">
        <ele>439.6</ele>
        <time>2023-08-29T07:57:54Z</time>
      </trkpt>
      <trkpt lat="45.45116" lon="5.43208">
        <ele>439.6</ele>
        <time>2023-08-29T07:57:55Z</time>
      </trkpt>
      <trkpt lat="45.45114" lon="5.43204">
        <ele>439.6</ele>
        <time>2023-08-29T07:57:56Z</time>
      </trkpt>
      <trkpt lat="45.45113" lon="5.43199">
        <ele>440</ele>
        <time>2023-08-29T07:57:57Z</time>
      </trkpt>
      <trkpt lat="45.45112" lon="5.43193">
        <ele>440</ele>
        <time>2023-08-29T07:57:58Z</time>
      </trkpt>
      <trkpt lat="45.45112" lon="5.43188">
        <ele>440.2</ele>
        <time>2023-08-29T07:57:59Z</time>
      </trkpt>
      <trkpt lat="45.45112" lon="5.43183">
        <ele>440.2</ele>
        <time>2023-08-29T07:58:00Z</time>
      </trkpt>
      <trkpt lat="45.45113" lon="5.43178">
        <ele>440.4</ele>
        <time>2023-08-29T07:58:01Z</time>
      </trkpt>
      <trkpt lat="45.45112" lon="5.43172">
        <ele>440.4</ele>
        <time>2023-08-29T07:58:02Z</time>
      </trkpt>
      <trkpt lat="45.45112" lon="5.43168">
        <ele>440.4</ele>
        <time>2023-08-29T07:58:03Z</time>
      </trkpt>
      <trkpt lat="45.45113" lon="5.43163">
        <ele>440.4</ele>
        <time>2023-08-29T07:58:04Z</time>
      </trkpt>
      <trkpt lat="45.45114" lon="5.43158">
        <ele>440.4</ele>
        <time>2023-08-29T07:58:05Z</time>
      </trkpt>
      <trkpt lat="45.45114" lon="5.43153">
        <ele>440.8</ele>
        <time>2023-08-29T07:58:06Z</time>
      </trkpt>
      <trkpt lat="45.45115" lon="5.43147">
        <ele>440.8</ele>
        <time>2023-08-29T07:58:07Z</time>
      </trkpt>
      <trkpt lat="45.45115" lon="5.43143">
        <ele>441</ele>
        <time>2023-08-29T07:58:08Z</time>
      </trkpt>
      <trkpt lat="45.45116" lon="5.43138">
        <ele>441</ele>
        <time>2023-08-29T07:58:09Z</time>
      </trkpt>
      <trkpt lat="45.45116" lon="5.43133">
        <ele>441.2</ele>
        <time>2023-08-29T07:58:10Z</time>
      </trkpt>
      <trkpt lat="45.45117" lon="5.43128">
        <ele>441.2</ele>
        <time>2023-08-29T07:58:11Z</time>
      </trkpt>
      <trkpt lat="45.45117" lon="5.43123">
        <ele>441.6</ele>
        <time>2023-08-29T07:58:12Z</time>
      </trkpt>
      <trkpt lat="45.45118" lon="5.4312">
        <ele>441.8</ele>
        <time>2023-08-29T07:58:13Z</time>
      </trkpt>
      <trkpt lat="45.45118" lon="5.43115">
        <ele>442</ele>
        <time>2023-08-29T07:58:14Z</time>
      </trkpt>
      <trkpt lat="45.45118" lon="5.43111">
        <ele>442.4</ele>
        <time>2023-08-29T07:58:15Z</time>
      </trkpt>
      <trkpt lat="45.45119" lon="5.43106">
        <ele>442.6</ele>
        <time>2023-08-29T07:58:16Z</time>
      </trkpt>
      <trkpt lat="45.45119" lon="5.43102">
        <ele>443</ele>
        <time>2023-08-29T07:58:17Z</time>
      </trkpt>
      <trkpt lat="45.45119" lon="5.43098">
        <ele>443</ele>
        <time>2023-08-29T07:58:18Z</time>
      </trkpt>
      <trkpt lat="45.45119" lon="5.43093">
        <ele>443.4</ele>
        <time>2023-08-29T07:58:19Z</time>
      </trkpt>
      <trkpt lat="45.45119" lon="5.43089">
        <ele>443.6</ele>
        <time>2023-08-29T07:58:20Z</time>
      </trkpt>
      <trkpt lat="45.45118" lon="5.43084">
        <ele>443.8</ele>
        <time>2023-08-29T07:58:21Z</time>
      </trkpt>
      <trkpt lat="45.45118" lon="5.4308">
        <ele>444</ele>
        <time>2023-08-29T07:58:22Z</time>
      </trkpt>
      <trkpt lat="45.45116" lon="5.43075">
        <ele>444.2</ele>
        <time>2023-08-29T07:58:23Z</time>
      </trkpt>
      <trkpt lat="45.45115" lon="5.43071">
        <ele>444.6</ele>
        <time>2023-08-29T07:58:24Z</time>
      </trkpt>
      <trkpt lat="45.45113" lon="5.43067">
        <ele>444.6</ele>
        <time>2023-08-29T07:58:25Z</time>
      </trkpt>
      <trkpt lat="45.45112" lon="5.43063">
        <ele>444.8</ele>
        <time>2023-08-29T07:58:26Z</time>
      </trkpt>
      <trkpt lat="45.4511" lon="5.43059">
        <ele>445</ele>
        <time>2023-08-29T07:58:27Z</time>
      </trkpt>
      <trkpt lat="45.45108" lon="5.43054">
        <ele>445.2</ele>
        <time>2023-08-29T07:58:28Z</time>
      </trkpt>
      <trkpt lat="45.45107" lon="5.43051">
        <ele>445.2</ele>
        <time>2023-08-29T07:58:29Z</time>
      </trkpt>
      <trkpt lat="45.45105" lon="5.43048">
        <ele>445.6</ele>
        <time>2023-08-29T07:58:30Z</time>
      </trkpt>
      <trkpt lat="45.45103" lon="5.43044">
        <ele>445.6</ele>
        <time>2023-08-29T07:58:31Z</time>
      </trkpt>
      <trkpt lat="45.45101" lon="5.43039">
        <ele>445.6</ele>
        <time>2023-08-29T07:58:32Z</time>
      </trkpt>
      <trkpt lat="45.45099" lon="5.43034">
        <ele>445.8</ele>
        <time>2023-08-29T07:58:33Z</time>
      </trkpt>
      <trkpt lat="45.45097" lon="5.43029">
        <ele>445.8</ele>
        <time>2023-08-29T07:58:34Z</time>
      </trkpt>
      <trkpt lat="45.45095" lon="5.43025">
        <ele>445.8</ele>
        <time>2023-08-29T07:58:35Z</time>
      </trkpt>
      <trkpt lat="45.45093" lon="5.43021">
        <ele>445.8</ele>
        <time>2023-08-29T07:58:36Z</time>
      </trkpt>
      <trkpt lat="45.4509" lon="5.43017">
        <ele>446</ele>
        <time>2023-08-29T07:58:37Z</time>
      </trkpt>
      <trkpt lat="45.45088" lon="5.43013">
        <ele>446</ele>
        <time>2023-08-29T07:58:38Z</time>
      </trkpt>
      <trkpt lat="45.45086" lon="5.43009">
        <ele>446</ele>
        <time>2023-08-29T07:58:39Z</time>
      </trkpt>
      <trkpt lat="45.45084" lon="5.43006">
        <ele>446.2</ele>
        <time>2023-08-29T07:58:40Z</time>
      </trkpt>
      <trkpt lat="45.45081" lon="5.43002">
        <ele>446.4</ele>
        <time>2023-08-29T07:58:41Z</time>
      </trkpt>
      <trkpt lat="45.45079" lon="5.42998">
        <ele>446.6</ele>
        <time>2023-08-29T07:58:42Z</time>
      </trkpt>
      <trkpt lat="45.45077" lon="5.42995">
        <ele>446.8</ele>
        <time>2023-08-29T07:58:43Z</time>
      </trkpt>
      <trkpt lat="45.45074" lon="5.42992">
        <ele>446.8</ele>
        <time>2023-08-29T07:58:44Z</time>
      </trkpt>
      <trkpt lat="45.45072" lon="5.42988">
        <ele>447.2</ele>
        <time>2023-08-29T07:58:45Z</time>
      </trkpt>
      <trkpt lat="45.4507" lon="5.42986">
        <ele>447.4</ele>
        <time>2023-08-29T07:58:46Z</time>
      </trkpt>
      <trkpt lat="45.45068" lon="5.42983">
        <ele>447.6</ele>
        <time>2023-08-29T07:58:47Z</time>
      </trkpt>
      <trkpt lat="45.45066" lon="5.42979">
        <ele>447.8</ele>
        <time>2023-08-29T07:58:48Z</time>
      </trkpt>
      <trkpt lat="45.45063" lon="5.42976">
        <ele>448</ele>
        <time>2023-08-29T07:58:49Z</time>
      </trkpt>
      <trkpt lat="45.45061" lon="5.42973">
        <ele>448.4</ele>
        <time>2023-08-29T07:58:50Z</time>
      </trkpt>
      <trkpt lat="45.45058" lon="5.4297">
        <ele>448.6</ele>
        <time>2023-08-29T07:58:51Z</time>
      </trkpt>
      <trkpt lat="45.45056" lon="5.42967">
        <ele>448.8</ele>
        <time>2023-08-29T07:58:52Z</time>
      </trkpt>
      <trkpt lat="45.45053" lon="5.42964">
        <ele>449</ele>
        <time>2023-08-29T07:58:53Z</time>
      </trkpt>
      <trkpt lat="45.45051" lon="5.4296">
        <ele>449.2</ele>
        <time>2023-08-29T07:58:54Z</time>
      </trkpt>
      <trkpt lat="45.45048" lon="5.42958">
        <ele>449.6</ele>
        <time>2023-08-29T07:58:55Z</time>
      </trkpt>
      <trkpt lat="45.45046" lon="5.42955">
        <ele>449.6</ele>
        <time>2023-08-29T07:58:56Z</time>
      </trkpt>
      <trkpt lat="45.45043" lon="5.42952">
        <ele>450</ele>
        <time>2023-08-29T07:58:57Z</time>
      </trkpt>
      <trkpt lat="45.45041" lon="5.42948">
        <ele>450</ele>
        <time>2023-08-29T07:58:58Z</time>
      </trkpt>
      <trkpt lat="45.45039" lon="5.42944">
        <ele>450.2</ele>
        <time>2023-08-29T07:58:59Z</time>
      </trkpt>
      <trkpt lat="45.45037" lon="5.42941">
        <ele>450.6</ele>
        <time>2023-08-29T07:59:00Z</time>
      </trkpt>
      <trkpt lat="45.45034" lon="5.42938">
        <ele>450.6</ele>
        <time>2023-08-29T07:59:01Z</time>
      </trkpt>
      <trkpt lat="45.45032" lon="5.42935">
        <ele>450.8</ele>
        <time>2023-08-29T07:59:02Z</time>
      </trkpt>
      <trkpt lat="45.4503" lon="5.42932">
        <ele>451</ele>
        <time>2023-08-29T07:59:03Z</time>
      </trkpt>
      <trkpt lat="45.45028" lon="5.42929">
        <ele>451.4</ele>
        <time>2023-08-29T07:59:04Z</time>
      </trkpt>
      <trkpt lat="45.45026" lon="5.42926">
        <ele>451.6</ele>
        <time>2023-08-29T07:59:05Z</time>
      </trkpt>
      <trkpt lat="45.45024" lon="5.42923">
        <ele>451.6</ele>
        <time>2023-08-29T07:59:06Z</time>
      </trkpt>
      <trkpt lat="45.45021" lon="5.42919">
        <ele>451.6</ele>
        <time>2023-08-29T07:59:07Z</time>
      </trkpt>
      <trkpt lat="45.45019" lon="5.42917">
        <ele>451.8</ele>
        <time>2023-08-29T07:59:08Z</time>
      </trkpt>
      <trkpt lat="45.45017" lon="5.42913">
        <ele>452</ele>
        <time>2023-08-29T07:59:09Z</time>
      </trkpt>
      <trkpt lat="45.45015" lon="5.4291">
        <ele>452.2</ele>
        <time>2023-08-29T07:59:10Z</time>
      </trkpt>
      <trkpt lat="45.45012" lon="5.42907">
        <ele>452.2</ele>
        <time>2023-08-29T07:59:11Z</time>
      </trkpt>
      <trkpt lat="45.4501" lon="5.42905">
        <ele>452.4</ele>
        <time>2023-08-29T07:59:12Z</time>
      </trkpt>
      <trkpt lat="45.45008" lon="5.42901">
        <ele>452.6</ele>
        <time>2023-08-29T07:59:13Z</time>
      </trkpt>
      <trkpt lat="45.45006" lon="5.42897">
        <ele>452.8</ele>
        <time>2023-08-29T07:59:14Z</time>
      </trkpt>
      <trkpt lat="45.45004" lon="5.42894">
        <ele>452.8</ele>
        <time>2023-08-29T07:59:15Z</time>
      </trkpt>
      <trkpt lat="45.45001" lon="5.42891">
        <ele>453</ele>
        <time>2023-08-29T07:59:16Z</time>
      </trkpt>
      <trkpt lat="45.44999" lon="5.42887">
        <ele>453.2</ele>
        <time>2023-08-29T07:59:17Z</time>
      </trkpt>
      <trkpt lat="45.44997" lon="5.42884">
        <ele>453.6</ele>
        <time>2023-08-29T07:59:18Z</time>
      </trkpt>
      <trkpt lat="45.44995" lon="5.42881">
        <ele>453.6</ele>
        <time>2023-08-29T07:59:19Z</time>
      </trkpt>
      <trkpt lat="45.44993" lon="5.42878">
        <ele>453.8</ele>
        <time>2023-08-29T07:59:20Z</time>
      </trkpt>
      <trkpt lat="45.44991" lon="5.42874">
        <ele>453.8</ele>
        <time>2023-08-29T07:59:21Z</time>
      </trkpt>
      <trkpt lat="45.44988" lon="5.42869">
        <ele>453.8</ele>
        <time>2023-08-29T07:59:22Z</time>
      </trkpt>
      <trkpt lat="45.44987" lon="5.42865">
        <ele>454</ele>
        <time>2023-08-29T07:59:23Z</time>
      </trkpt>
      <trkpt lat="45.44985" lon="5.42859">
        <ele>454.2</ele>
        <time>2023-08-29T07:59:24Z</time>
      </trkpt>
      <trkpt lat="45.44983" lon="5.42855">
        <ele>454.4</ele>
        <time>2023-08-29T07:59:25Z</time>
      </trkpt>
      <trkpt lat="45.44982" lon="5.4285">
        <ele>454.4</ele>
        <time>2023-08-29T07:59:26Z</time>
      </trkpt>
      <trkpt lat="45.44981" lon="5.42845">
        <ele>454.6</ele>
        <time>2023-08-29T07:59:27Z</time>
      </trkpt>
      <trkpt lat="45.44979" lon="5.4284">
        <ele>454.8</ele>
        <time>2023-08-29T07:59:28Z</time>
      </trkpt>
      <trkpt lat="45.44978" lon="5.42835">
        <ele>454.8</ele>
        <time>2023-08-29T07:59:29Z</time>
      </trkpt>
      <trkpt lat="45.44976" lon="5.4283">
        <ele>455</ele>
        <time>2023-08-29T07:59:30Z</time>
      </trkpt>
      <trkpt lat="45.44975" lon="5.42826">
        <ele>455.2</ele>
        <time>2023-08-29T07:59:31Z</time>
      </trkpt>
      <trkpt lat="45.44973" lon="5.42821">
        <ele>455.4</ele>
        <time>2023-08-29T07:59:32Z</time>
      </trkpt>
      <trkpt lat="45.44972" lon="5.42816">
        <ele>455.4</ele>
        <time>2023-08-29T07:59:33Z</time>
      </trkpt>
      <trkpt lat="45.44971" lon="5.42812">
        <ele>455.4</ele>
        <time>2023-08-29T07:59:34Z</time>
      </trkpt>
      <trkpt lat="45.4497" lon="5.42807">
        <ele>455.6</ele>
        <time>2023-08-29T07:59:35Z</time>
      </trkpt>
      <trkpt lat="45.44968" lon="5.42803">
        <ele>455.8</ele>
        <time>2023-08-29T07:59:36Z</time>
      </trkpt>
      <trkpt lat="45.44966" lon="5.42799">
        <ele>456</ele>
        <time>2023-08-29T07:59:37Z</time>
      </trkpt>
      <trkpt lat="45.44965" lon="5.42794">
        <ele>456</ele>
        <time>2023-08-29T07:59:38Z</time>
      </trkpt>
      <trkpt lat="45.44964" lon="5.4279">
        <ele>456.2</ele>
        <time>2023-08-29T07:59:39Z</time>
      </trkpt>
      <trkpt lat="45.44962" lon="5.42786">
        <ele>456.4</ele>
        <time>2023-08-29T07:59:40Z</time>
      </trkpt>
      <trkpt lat="45.44961" lon="5.42782">
        <ele>456.8</ele>
        <time>2023-08-29T07:59:41Z</time>
      </trkpt>
      <trkpt lat="45.44959" lon="5.42778">
        <ele>456.8</ele>
        <time>2023-08-29T07:59:42Z</time>
      </trkpt>
      <trkpt lat="45.44958" lon="5.42774">
        <ele>457</ele>
        <time>2023-08-29T07:59:43Z</time>
      </trkpt>
      <trkpt lat="45.44957" lon="5.4277">
        <ele>457.2</ele>
        <time>2023-08-29T07:59:44Z</time>
      </trkpt>
      <trkpt lat="45.44956" lon="5.42766">
        <ele>457.2</ele>
        <time>2023-08-29T07:59:45Z</time>
      </trkpt>
      <trkpt lat="45.44955" lon="5.42762">
        <ele>457.2</ele>
        <time>2023-08-29T07:59:46Z</time>
      </trkpt>
      <trkpt lat="45.44953" lon="5.42757">
        <ele>457.4</ele>
        <time>2023-08-29T07:59:47Z</time>
      </trkpt>
      <trkpt lat="45.44952" lon="5.42752">
        <ele>457.6</ele>
        <time>2023-08-29T07:59:48Z</time>
      </trkpt>
      <trkpt lat="45.44951" lon="5.42748">
        <ele>457.8</ele>
        <time>2023-08-29T07:59:49Z</time>
      </trkpt>
      <trkpt lat="45.44949" lon="5.42743">
        <ele>458</ele>
        <time>2023-08-29T07:59:50Z</time>
      </trkpt>
      <trkpt lat="45.44948" lon="5.42739">
        <ele>458.2</ele>
        <time>2023-08-29T07:59:51Z</time>
      </trkpt>
      <trkpt lat="45.44947" lon="5.42734">
        <ele>458.2</ele>
        <time>2023-08-29T07:59:52Z</time>
      </trkpt>
      <trkpt lat="45.44946" lon="5.4273">
        <ele>458.2</ele>
        <time>2023-08-29T07:59:53Z</time>
      </trkpt>
      <trkpt lat="45.44945" lon="5.42725">
        <ele>458.4</ele>
        <time>2023-08-29T07:59:54Z</time>
      </trkpt>
      <trkpt lat="45.44944" lon="5.4272">
        <ele>458.6</ele>
        <time>2023-08-29T07:59:55Z</time>
      </trkpt>
      <trkpt lat="45.44943" lon="5.42716">
        <ele>458.8</ele>
        <time>2023-08-29T07:59:56Z</time>
      </trkpt>
      <trkpt lat="45.44942" lon="5.42711">
        <ele>459</ele>
        <time>2023-08-29T07:59:57Z</time>
      </trkpt>
      <trkpt lat="45.4494" lon="5.42707">
        <ele>459.4</ele>
        <time>2023-08-29T07:59:58Z</time>
      </trkpt>
      <trkpt lat="45.44939" lon="5.42702">
        <ele>459.4</ele>
        <time>2023-08-29T07:59:59Z</time>
      </trkpt>
      <trkpt lat="45.44938" lon="5.42698">
        <ele>459.6</ele>
        <time>2023-08-29T08:00:00Z</time>
      </trkpt>
      <trkpt lat="45.44937" lon="5.42693">
        <ele>459.8</ele>
        <time>2023-08-29T08:00:01Z</time>
      </trkpt>
      <trkpt lat="45.44936" lon="5.42689">
        <ele>460</ele>
        <time>2023-08-29T08:00:02Z</time>
      </trkpt>
      <trkpt lat="45.44935" lon="5.42684">
        <ele>460.4</ele>
        <time>2023-08-29T08:00:03Z</time>
      </trkpt>
      <trkpt lat="45.44934" lon="5.42679">
        <ele>460.4</ele>
        <time>2023-08-29T08:00:04Z</time>
      </trkpt>
      <trkpt lat="45.44933" lon="5.42675">
        <ele>460.6</ele>
        <time>2023-08-29T08:00:05Z</time>
      </trkpt>
      <trkpt lat="45.44932" lon="5.42671">
        <ele>460.8</ele>
        <time>2023-08-29T08:00:06Z</time>
      </trkpt>
      <trkpt lat="45.4493" lon="5.42666">
        <ele>461</ele>
        <time>2023-08-29T08:00:07Z</time>
      </trkpt>
      <trkpt lat="45.44929" lon="5.42661">
        <ele>461</ele>
        <time>2023-08-29T08:00:08Z</time>
      </trkpt>
      <trkpt lat="45.44928" lon="5.42657">
        <ele>461.2</ele>
        <time>2023-08-29T08:00:09Z</time>
      </trkpt>
      <trkpt lat="45.44926" lon="5.42652">
        <ele>461.4</ele>
        <time>2023-08-29T08:00:10Z</time>
      </trkpt>
      <trkpt lat="45.44925" lon="5.42647">
        <ele>461.4</ele>
        <time>2023-08-29T08:00:11Z</time>
      </trkpt>
      <trkpt lat="45.44923" lon="5.42642">
        <ele>461.4</ele>
        <time>2023-08-29T08:00:12Z</time>
      </trkpt>
      <trkpt lat="45.44921" lon="5.42638">
        <ele>461.6</ele>
        <time>2023-08-29T08:00:13Z</time>
      </trkpt>
      <trkpt lat="45.4492" lon="5.42634">
        <ele>461.8</ele>
        <time>2023-08-29T08:00:14Z</time>
      </trkpt>
      <trkpt lat="45.44919" lon="5.4263">
        <ele>461.8</ele>
        <time>2023-08-29T08:00:15Z</time>
      </trkpt>
      <trkpt lat="45.44918" lon="5.42624">
        <ele>461.8</ele>
        <time>2023-08-29T08:00:16Z</time>
      </trkpt>
      <trkpt lat="45.44916" lon="5.42619">
        <ele>462</ele>
        <time>2023-08-29T08:00:17Z</time>
      </trkpt>
      <trkpt lat="45.44915" lon="5.42615">
        <ele>462</ele>
        <time>2023-08-29T08:00:18Z</time>
      </trkpt>
      <trkpt lat="45.44913" lon="5.4261">
        <ele>462</ele>
        <time>2023-08-29T08:00:19Z</time>
      </trkpt>
      <trkpt lat="45.44912" lon="5.42606">
        <ele>462</ele>
        <time>2023-08-29T08:00:20Z</time>
      </trkpt>
      <trkpt lat="45.4491" lon="5.42601">
        <ele>462.2</ele>
        <time>2023-08-29T08:00:21Z</time>
      </trkpt>
      <trkpt lat="45.44909" lon="5.42596">
        <ele>462.2</ele>
        <time>2023-08-29T08:00:22Z</time>
      </trkpt>
      <trkpt lat="45.44907" lon="5.42591">
        <ele>462.2</ele>
        <time>2023-08-29T08:00:23Z</time>
      </trkpt>
      <trkpt lat="45.44905" lon="5.42586">
        <ele>462.4</ele>
        <time>2023-08-29T08:00:24Z</time>
      </trkpt>
      <trkpt lat="45.44904" lon="5.42582">
        <ele>462.4</ele>
        <time>2023-08-29T08:00:25Z</time>
      </trkpt>
      <trkpt lat="45.44902" lon="5.42577">
        <ele>462.6</ele>
        <time>2023-08-29T08:00:26Z</time>
      </trkpt>
      <trkpt lat="45.449" lon="5.42573">
        <ele>462.6</ele>
        <time>2023-08-29T08:00:27Z</time>
      </trkpt>
      <trkpt lat="45.44899" lon="5.42568">
        <ele>462.6</ele>
        <time>2023-08-29T08:00:28Z</time>
      </trkpt>
      <trkpt lat="45.44897" lon="5.42564">
        <ele>462.6</ele>
        <time>2023-08-29T08:00:29Z</time>
      </trkpt>
      <trkpt lat="45.44896" lon="5.42559">
        <ele>462.6</ele>
        <time>2023-08-29T08:00:30Z</time>
      </trkpt>
      <trkpt lat="45.44895" lon="5.42554">
        <ele>462.6</ele>
        <time>2023-08-29T08:00:31Z</time>
      </trkpt>
      <trkpt lat="45.44894" lon="5.42549">
        <ele>462.8</ele>
        <time>2023-08-29T08:00:32Z</time>
      </trkpt>
      <trkpt lat="45.44892" lon="5.42544">
        <ele>462.8</ele>
        <time>2023-08-29T08:00:33Z</time>
      </trkpt>
      <trkpt lat="45.44891" lon="5.42539">
        <ele>462.8</ele>
        <time>2023-08-29T08:00:34Z</time>
      </trkpt>
      <trkpt lat="45.4489" lon="5.42535">
        <ele>462.8</ele>
        <time>2023-08-29T08:00:35Z</time>
      </trkpt>
      <trkpt lat="45.44888" lon="5.42529">
        <ele>463</ele>
        <time>2023-08-29T08:00:36Z</time>
      </trkpt>
      <trkpt lat="45.44887" lon="5.42524">
        <ele>463</ele>
        <time>2023-08-29T08:00:37Z</time>
      </trkpt>
      <trkpt lat="45.44885" lon="5.4252">
        <ele>463</ele>
        <time>2023-08-29T08:00:38Z</time>
      </trkpt>
      <trkpt lat="45.44884" lon="5.42515">
        <ele>463.2</ele>
        <time>2023-08-29T08:00:39Z</time>
      </trkpt>
      <trkpt lat="45.44883" lon="5.4251">
        <ele>463.2</ele>
        <time>2023-08-29T08:00:40Z</time>
      </trkpt>
      <trkpt lat="45.44882" lon="5.42505">
        <ele>463.2</ele>
        <time>2023-08-29T08:00:41Z</time>
      </trkpt>
      <trkpt lat="45.44881" lon="5.42499">
        <ele>463.2</ele>
        <time>2023-08-29T08:00:42Z</time>
      </trkpt>
      <trkpt lat="45.44879" lon="5.42494">
        <ele>463.4</ele>
        <time>2023-08-29T08:00:43Z</time>
      </trkpt>
      <trkpt lat="45.44878" lon="5.4249">
        <ele>463.4</ele>
        <time>2023-08-29T08:00:44Z</time>
      </trkpt>
      <trkpt lat="45.44877" lon="5.42485">
        <ele>463.6</ele>
        <time>2023-08-29T08:00:45Z</time>
      </trkpt>
      <trkpt lat="45.44875" lon="5.4248">
        <ele>463.6</ele>
        <time>2023-08-29T08:00:46Z</time>
      </trkpt>
      <trkpt lat="45.44874" lon="5.42475">
        <ele>463.6</ele>
        <time>2023-08-29T08:00:47Z</time>
      </trkpt>
      <trkpt lat="45.44872" lon="5.42471">
        <ele>463.8</ele>
        <time>2023-08-29T08:00:48Z</time>
      </trkpt>
      <trkpt lat="45.44871" lon="5.42466">
        <ele>463.8</ele>
        <time>2023-08-29T08:00:49Z</time>
      </trkpt>
      <trkpt lat="45.44869" lon="5.42461">
        <ele>463.8</ele>
        <time>2023-08-29T08:00:50Z</time>
      </trkpt>
      <trkpt lat="45.44867" lon="5.42458">
        <ele>464</ele>
        <time>2023-08-29T08:00:51Z</time>
      </trkpt>
      <trkpt lat="45.44866" lon="5.42454">
        <ele>464.2</ele>
        <time>2023-08-29T08:00:52Z</time>
      </trkpt>
      <trkpt lat="45.44863" lon="5.42449">
        <ele>464.2</ele>
        <time>2023-08-29T08:00:53Z</time>
      </trkpt>
      <trkpt lat="45.4486" lon="5.42445">
        <ele>464.2</ele>
        <time>2023-08-29T08:00:54Z</time>
      </trkpt>
      <trkpt lat="45.44858" lon="5.42442">
        <ele>464.4</ele>
        <time>2023-08-29T08:00:55Z</time>
      </trkpt>
      <trkpt lat="45.44855" lon="5.42439">
        <ele>464.4</ele>
        <time>2023-08-29T08:00:56Z</time>
      </trkpt>
      <trkpt lat="45.44852" lon="5.42437">
        <ele>464.4</ele>
        <time>2023-08-29T08:00:57Z</time>
      </trkpt>
      <trkpt lat="45.44848" lon="5.42435">
        <ele>464.8</ele>
        <time>2023-08-29T08:00:58Z</time>
      </trkpt>
      <trkpt lat="45.44845" lon="5.42435">
        <ele>464.8</ele>
        <time>2023-08-29T08:00:59Z</time>
      </trkpt>
      <trkpt lat="45.44843" lon="5.42434">
        <ele>465</ele>
        <time>2023-08-29T08:01:00Z</time>
      </trkpt>
      <trkpt lat="45.4484" lon="5.42434">
        <ele>465.2</ele>
        <time>2023-08-29T08:01:01Z</time>
      </trkpt>
      <trkpt lat="45.44838" lon="5.42435">
        <ele>465.2</ele>
        <time>2023-08-29T08:01:02Z</time>
      </trkpt>
      <trkpt lat="45.44835" lon="5.42436">
        <ele>465.6</ele>
        <time>2023-08-29T08:01:03Z</time>
      </trkpt>
      <trkpt lat="45.44832" lon="5.42437">
        <ele>465.6</ele>
        <time>2023-08-29T08:01:04Z</time>
      </trkpt>
      <trkpt lat="45.44829" lon="5.42437">
        <ele>465.8</ele>
        <time>2023-08-29T08:01:05Z</time>
      </trkpt>
      <trkpt lat="45.44826" lon="5.42438">
        <ele>466</ele>
        <time>2023-08-29T08:01:06Z</time>
      </trkpt>
      <trkpt lat="45.44824" lon="5.42438">
        <ele>466.2</ele>
        <time>2023-08-29T08:01:07Z</time>
      </trkpt>
      <trkpt lat="45.44821" lon="5.42438">
        <ele>466.2</ele>
        <time>2023-08-29T08:01:08Z</time>
      </trkpt>
      <trkpt lat="45.44818" lon="5.42439">
        <ele>466.2</ele>
        <time>2023-08-29T08:01:09Z</time>
      </trkpt>
      <trkpt lat="45.44815" lon="5.4244">
        <ele>466.4</ele>
        <time>2023-08-29T08:01:10Z</time>
      </trkpt>
      <trkpt lat="45.44812" lon="5.42441">
        <ele>466.4</ele>
        <time>2023-08-29T08:01:11Z</time>
      </trkpt>
      <trkpt lat="45.44809" lon="5.42442">
        <ele>466.6</ele>
        <time>2023-08-29T08:01:12Z</time>
      </trkpt>
      <trkpt lat="45.44806" lon="5.42443">
        <ele>466.8</ele>
        <time>2023-08-29T08:01:13Z</time>
      </trkpt>
      <trkpt lat="45.44803" lon="5.42444">
        <ele>467</ele>
        <time>2023-08-29T08:01:14Z</time>
      </trkpt>
      <trkpt lat="45.448" lon="5.42445">
        <ele>467.2</ele>
        <time>2023-08-29T08:01:15Z</time>
      </trkpt>
      <trkpt lat="45.44797" lon="5.42447">
        <ele>467.4</ele>
        <time>2023-08-29T08:01:16Z</time>
      </trkpt>
      <trkpt lat="45.44794" lon="5.42448">
        <ele>467.4</ele>
        <time>2023-08-29T08:01:17Z</time>
      </trkpt>
      <trkpt lat="45.4479" lon="5.4245">
        <ele>467.4</ele>
        <time>2023-08-29T08:01:18Z</time>
      </trkpt>
      <trkpt lat="45.44787" lon="5.42452">
        <ele>467.8</ele>
        <time>2023-08-29T08:01:19Z</time>
      </trkpt>
      <trkpt lat="45.44784" lon="5.42453">
        <ele>467.8</ele>
        <time>2023-08-29T08:01:20Z</time>
      </trkpt>
      <trkpt lat="45.44781" lon="5.42454">
        <ele>467.8</ele>
        <time>2023-08-29T08:01:21Z</time>
      </trkpt>
      <trkpt lat="45.44778" lon="5.42455">
        <ele>468.2</ele>
        <time>2023-08-29T08:01:22Z</time>
      </trkpt>
      <trkpt lat="45.44775" lon="5.42456">
        <ele>468.4</ele>
        <time>2023-08-29T08:01:23Z</time>
      </trkpt>
      <trkpt lat="45.44772" lon="5.42457">
        <ele>468.4</ele>
        <time>2023-08-29T08:01:24Z</time>
      </trkpt>
      <trkpt lat="45.44769" lon="5.42459">
        <ele>468.4</ele>
        <time>2023-08-29T08:01:25Z</time>
      </trkpt>
      <trkpt lat="45.44766" lon="5.4246">
        <ele>468.6</ele>
        <time>2023-08-29T08:01:26Z</time>
      </trkpt>
      <trkpt lat="45.44763" lon="5.42461">
        <ele>468.8</ele>
        <time>2023-08-29T08:01:27Z</time>
      </trkpt>
      <trkpt lat="45.44761" lon="5.42463">
        <ele>469</ele>
        <time>2023-08-29T08:01:28Z</time>
      </trkpt>
      <trkpt lat="45.44758" lon="5.42463">
        <ele>469</ele>
        <time>2023-08-29T08:01:29Z</time>
      </trkpt>
      <trkpt lat="45.44755" lon="5.42465">
        <ele>469</ele>
        <time>2023-08-29T08:01:30Z</time>
      </trkpt>
      <trkpt lat="45.44753" lon="5.42465">
        <ele>469</ele>
        <time>2023-08-29T08:01:31Z</time>
      </trkpt>
      <trkpt lat="45.4475" lon="5.42465">
        <ele>469.4</ele>
        <time>2023-08-29T08:01:32Z</time>
      </trkpt>
      <trkpt lat="45.44747" lon="5.42464">
        <ele>469.4</ele>
        <time>2023-08-29T08:01:33Z</time>
      </trkpt>
      <trkpt lat="45.44744" lon="5.42464">
        <ele>469.6</ele>
        <time>2023-08-29T08:01:34Z</time>
      </trkpt>
      <trkpt lat="45.44742" lon="5.42463">
        <ele>469.8</ele>
        <time>2023-08-29T08:01:35Z</time>
      </trkpt>
      <trkpt lat="45.44739" lon="5.42462">
        <ele>469.8</ele>
        <time>2023-08-29T08:01:36Z</time>
      </trkpt>
      <trkpt lat="45.44737" lon="5.4246">
        <ele>470.2</ele>
        <time>2023-08-29T08:01:37Z</time>
      </trkpt>
      <trkpt lat="45.44734" lon="5.42457">
        <ele>470.4</ele>
        <time>2023-08-29T08:01:38Z</time>
      </trkpt>
      <trkpt lat="45.44732" lon="5.42456">
        <ele>470.6</ele>
        <time>2023-08-29T08:01:39Z</time>
      </trkpt>
      <trkpt lat="45.4473" lon="5.42454">
        <ele>470.8</ele>
        <time>2023-08-29T08:01:40Z</time>
      </trkpt>
      <trkpt lat="45.44729" lon="5.42452">
        <ele>471</ele>
        <time>2023-08-29T08:01:41Z</time>
      </trkpt>
      <trkpt lat="45.44727" lon="5.4245">
        <ele>471</ele>
        <time>2023-08-29T08:01:42Z</time>
      </trkpt>
      <trkpt lat="45.44725" lon="5.42447">
        <ele>471.2</ele>
        <time>2023-08-29T08:01:43Z</time>
      </trkpt>
      <trkpt lat="45.44723" lon="5.42445">
        <ele>471.6</ele>
        <time>2023-08-29T08:01:44Z</time>
      </trkpt>
      <trkpt lat="45.44721" lon="5.42442">
        <ele>472</ele>
        <time>2023-08-29T08:01:45Z</time>
      </trkpt>
      <trkpt lat="45.44719" lon="5.42439">
        <ele>472</ele>
        <time>2023-08-29T08:01:46Z</time>
      </trkpt>
      <trkpt lat="45.44717" lon="5.42437">
        <ele>472.2</ele>
        <time>2023-08-29T08:01:47Z</time>
      </trkpt>
      <trkpt lat="45.44716" lon="5.42435">
        <ele>472.6</ele>
        <time>2023-08-29T08:01:48Z</time>
      </trkpt>
      <trkpt lat="45.44714" lon="5.42432">
        <ele>472.8</ele>
        <time>2023-08-29T08:01:49Z</time>
      </trkpt>
      <trkpt lat="45.44712" lon="5.4243">
        <ele>473</ele>
        <time>2023-08-29T08:01:50Z</time>
      </trkpt>
      <trkpt lat="45.44711" lon="5.42427">
        <ele>473.2</ele>
        <time>2023-08-29T08:01:51Z</time>
      </trkpt>
      <trkpt lat="45.44709" lon="5.42425">
        <ele>473.4</ele>
        <time>2023-08-29T08:01:52Z</time>
      </trkpt>
      <trkpt lat="45.44709" lon="5.42423">
        <ele>473.8</ele>
        <time>2023-08-29T08:01:53Z</time>
      </trkpt>
      <trkpt lat="45.44708" lon="5.4242">
        <ele>474</ele>
        <time>2023-08-29T08:01:54Z</time>
      </trkpt>
      <trkpt lat="45.44706" lon="5.42418">
        <ele>474.2</ele>
        <time>2023-08-29T08:01:55Z</time>
      </trkpt>
      <trkpt lat="45.44705" lon="5.42416">
        <ele>474.4</ele>
        <time>2023-08-29T08:01:56Z</time>
      </trkpt>
      <trkpt lat="45.44704" lon="5.42414">
        <ele>474.8</ele>
        <time>2023-08-29T08:01:57Z</time>
      </trkpt>
      <trkpt lat="45.44703" lon="5.42411">
        <ele>475</ele>
        <time>2023-08-29T08:01:58Z</time>
      </trkpt>
      <trkpt lat="45.44701" lon="5.42409">
        <ele>475.4</ele>
        <time>2023-08-29T08:01:59Z</time>
      </trkpt>
      <trkpt lat="45.447" lon="5.42405">
        <ele>475.6</ele>
        <time>2023-08-29T08:02:00Z</time>
      </trkpt>
      <trkpt lat="45.44698" lon="5.42403">
        <ele>475.8</ele>
        <time>2023-08-29T08:02:01Z</time>
      </trkpt>
      <trkpt lat="45.44697" lon="5.424">
        <ele>476</ele>
        <time>2023-08-29T08:02:02Z</time>
      </trkpt>
      <trkpt lat="45.44696" lon="5.42397">
        <ele>476.4</ele>
        <time>2023-08-29T08:02:03Z</time>
      </trkpt>
      <trkpt lat="45.44695" lon="5.42394">
        <ele>476.6</ele>
        <time>2023-08-29T08:02:04Z</time>
      </trkpt>
      <trkpt lat="45.44694" lon="5.42391">
        <ele>477</ele>
        <time>2023-08-29T08:02:05Z</time>
      </trkpt>
      <trkpt lat="45.44692" lon="5.42388">
        <ele>477.2</ele>
        <time>2023-08-29T08:02:06Z</time>
      </trkpt>
      <trkpt lat="45.44691" lon="5.42385">
        <ele>477.2</ele>
        <time>2023-08-29T08:02:07Z</time>
      </trkpt>
      <trkpt lat="45.4469" lon="5.42382">
        <ele>477.6</ele>
        <time>2023-08-29T08:02:08Z</time>
      </trkpt>
      <trkpt lat="45.44689" lon="5.42379">
        <ele>477.8</ele>
        <time>2023-08-29T08:02:09Z</time>
      </trkpt>
      <trkpt lat="45.44687" lon="5.42375">
        <ele>478</ele>
        <time>2023-08-29T08:02:10Z</time>
      </trkpt>
      <trkpt lat="45.44685" lon="5.42371">
        <ele>478.2</ele>
        <time>2023-08-29T08:02:11Z</time>
      </trkpt>
      <trkpt lat="45.44684" lon="5.42369">
        <ele>478.4</ele>
        <time>2023-08-29T08:02:12Z</time>
      </trkpt>
      <trkpt lat="45.44683" lon="5.42365">
        <ele>478.6</ele>
        <time>2023-08-29T08:02:13Z</time>
      </trkpt>
      <trkpt lat="45.44682" lon="5.42361">
        <ele>479.2</ele>
        <time>2023-08-29T08:02:14Z</time>
      </trkpt>
      <trkpt lat="45.4468" lon="5.42358">
        <ele>479.4</ele>
        <time>2023-08-29T08:02:15Z</time>
      </trkpt>
      <trkpt lat="45.44679" lon="5.42355">
        <ele>479.6</ele>
        <time>2023-08-29T08:02:16Z</time>
      </trkpt>
      <trkpt lat="45.44679" lon="5.42352">
        <ele>479.8</ele>
        <time>2023-08-29T08:02:17Z</time>
      </trkpt>
      <trkpt lat="45.44678" lon="5.42348">
        <ele>480.2</ele>
        <time>2023-08-29T08:02:18Z</time>
      </trkpt>
      <trkpt lat="45.44677" lon="5.42344">
        <ele>480.2</ele>
        <time>2023-08-29T08:02:19Z</time>
      </trkpt>
      <trkpt lat="45.44677" lon="5.42339">
        <ele>480.6</ele>
        <time>2023-08-29T08:02:20Z</time>
      </trkpt>
      <trkpt lat="45.44676" lon="5.42335">
        <ele>480.8</ele>
        <time>2023-08-29T08:02:21Z</time>
      </trkpt>
      <trkpt lat="45.44676" lon="5.4233">
        <ele>481</ele>
        <time>2023-08-29T08:02:22Z</time>
      </trkpt>
      <trkpt lat="45.44676" lon="5.42326">
        <ele>481</ele>
        <time>2023-08-29T08:02:23Z</time>
      </trkpt>
      <trkpt lat="45.44676" lon="5.42322">
        <ele>481.4</ele>
        <time>2023-08-29T08:02:24Z</time>
      </trkpt>
      <trkpt lat="45.44675" lon="5.42318">
        <ele>481.6</ele>
        <time>2023-08-29T08:02:25Z</time>
      </trkpt>
      <trkpt lat="45.44675" lon="5.42314">
        <ele>481.8</ele>
        <time>2023-08-29T08:02:26Z</time>
      </trkpt>
      <trkpt lat="45.44674" lon="5.42309">
        <ele>482</ele>
        <time>2023-08-29T08:02:27Z</time>
      </trkpt>
      <trkpt lat="45.44674" lon="5.42305">
        <ele>482</ele>
        <time>2023-08-29T08:02:28Z</time>
      </trkpt>
      <trkpt lat="45.44673" lon="5.42301">
        <ele>482</ele>
        <time>2023-08-29T08:02:29Z</time>
      </trkpt>
      <trkpt lat="45.44673" lon="5.42296">
        <ele>482</ele>
        <time>2023-08-29T08:02:30Z</time>
      </trkpt>
      <trkpt lat="45.44672" lon="5.42292">
        <ele>482</ele>
        <time>2023-08-29T08:02:31Z</time>
      </trkpt>
      <trkpt lat="45.44672" lon="5.42287">
        <ele>482</ele>
        <time>2023-08-29T08:02:32Z</time>
      </trkpt>
      <trkpt lat="45.4467" lon="5.42283">
        <ele>482</ele>
        <time>2023-08-29T08:02:33Z</time>
      </trkpt>
      <trkpt lat="45.44669" lon="5.42279">
        <ele>482</ele>
        <time>2023-08-29T08:02:34Z</time>
      </trkpt>
      <trkpt lat="45.44667" lon="5.42274">
        <ele>482.2</ele>
        <time>2023-08-29T08:02:35Z</time>
      </trkpt>
      <trkpt lat="45.44665" lon="5.4227">
        <ele>482.2</ele>
        <time>2023-08-29T08:02:36Z</time>
      </trkpt>
      <trkpt lat="45.44663" lon="5.42267">
        <ele>482.4</ele>
        <time>2023-08-29T08:02:37Z</time>
      </trkpt>
      <trkpt lat="45.44661" lon="5.42264">
        <ele>482.4</ele>
        <time>2023-08-29T08:02:38Z</time>
      </trkpt>
      <trkpt lat="45.44659" lon="5.4226">
        <ele>482.6</ele>
        <time>2023-08-29T08:02:39Z</time>
      </trkpt>
      <trkpt lat="45.44656" lon="5.42256">
        <ele>482.6</ele>
        <time>2023-08-29T08:02:40Z</time>
      </trkpt>
      <trkpt lat="45.44654" lon="5.42253">
        <ele>482.8</ele>
        <time>2023-08-29T08:02:41Z</time>
      </trkpt>
      <trkpt lat="45.44651" lon="5.4225">
        <ele>482.8</ele>
        <time>2023-08-29T08:02:42Z</time>
      </trkpt>
      <trkpt lat="45.44648" lon="5.42248">
        <ele>482.8</ele>
        <time>2023-08-29T08:02:43Z</time>
      </trkpt>
      <trkpt lat="45.44645" lon="5.42245">
        <ele>482.8</ele>
        <time>2023-08-29T08:02:44Z</time>
      </trkpt>
      <trkpt lat="45.44642" lon="5.42243">
        <ele>482.8</ele>
        <time>2023-08-29T08:02:45Z</time>
      </trkpt>
      <trkpt lat="45.44639" lon="5.4224">
        <ele>483</ele>
        <time>2023-08-29T08:02:46Z</time>
      </trkpt>
      <trkpt lat="45.44636" lon="5.42238">
        <ele>483</ele>
        <time>2023-08-29T08:02:47Z</time>
      </trkpt>
      <trkpt lat="45.44634" lon="5.42236">
        <ele>483</ele>
        <time>2023-08-29T08:02:48Z</time>
      </trkpt>
      <trkpt lat="45.44631" lon="5.42234">
        <ele>483</ele>
        <time>2023-08-29T08:02:49Z</time>
      </trkpt>
      <trkpt lat="45.44628" lon="5.42232">
        <ele>483</ele>
        <time>2023-08-29T08:02:50Z</time>
      </trkpt>
      <trkpt lat="45.44625" lon="5.42231">
        <ele>483.2</ele>
        <time>2023-08-29T08:02:51Z</time>
      </trkpt>
      <trkpt lat="45.44622" lon="5.42229">
        <ele>483.4</ele>
        <time>2023-08-29T08:02:52Z</time>
      </trkpt>
      <trkpt lat="45.44619" lon="5.42228">
        <ele>483.4</ele>
        <time>2023-08-29T08:02:53Z</time>
      </trkpt>
      <trkpt lat="45.44617" lon="5.42226">
        <ele>483.8</ele>
        <time>2023-08-29T08:02:54Z</time>
      </trkpt>
      <trkpt lat="45.44614" lon="5.42224">
        <ele>484</ele>
        <time>2023-08-29T08:02:55Z</time>
      </trkpt>
      <trkpt lat="45.44611" lon="5.42223">
        <ele>484.2</ele>
        <time>2023-08-29T08:02:56Z</time>
      </trkpt>
      <trkpt lat="45.44608" lon="5.42221">
        <ele>484.4</ele>
        <time>2023-08-29T08:02:57Z</time>
      </trkpt>
      <trkpt lat="45.44605" lon="5.4222">
        <ele>484.6</ele>
        <time>2023-08-29T08:02:58Z</time>
      </trkpt>
      <trkpt lat="45.44603" lon="5.42219">
        <ele>485</ele>
        <time>2023-08-29T08:02:59Z</time>
      </trkpt>
      <trkpt lat="45.446" lon="5.42217">
        <ele>485</ele>
        <time>2023-08-29T08:03:00Z</time>
      </trkpt>
      <trkpt lat="45.44597" lon="5.42216">
        <ele>485.4</ele>
        <time>2023-08-29T08:03:01Z</time>
      </trkpt>
      <trkpt lat="45.44595" lon="5.42214">
        <ele>485.6</ele>
        <time>2023-08-29T08:03:02Z</time>
      </trkpt>
      <trkpt lat="45.44593" lon="5.42213">
        <ele>485.8</ele>
        <time>2023-08-29T08:03:03Z</time>
      </trkpt>
      <trkpt lat="45.4459" lon="5.42211">
        <ele>486.2</ele>
        <time>2023-08-29T08:03:04Z</time>
      </trkpt>
      <trkpt lat="45.44588" lon="5.4221">
        <ele>486.4</ele>
        <time>2023-08-29T08:03:05Z</time>
      </trkpt>
      <trkpt lat="45.44586" lon="5.42209">
        <ele>486.6</ele>
        <time>2023-08-29T08:03:06Z</time>
      </trkpt>
      <trkpt lat="45.44583" lon="5.42208">
        <ele>486.8</ele>
        <time>2023-08-29T08:03:07Z</time>
      </trkpt>
      <trkpt lat="45.4458" lon="5.42207">
        <ele>487</ele>
        <time>2023-08-29T08:03:08Z</time>
      </trkpt>
      <trkpt lat="45.44577" lon="5.42205">
        <ele>487.2</ele>
        <time>2023-08-29T08:03:09Z</time>
      </trkpt>
      <trkpt lat="45.44575" lon="5.42204">
        <ele>487.4</ele>
        <time>2023-08-29T08:03:10Z</time>
      </trkpt>
      <trkpt lat="45.44572" lon="5.42203">
        <ele>487.6</ele>
        <time>2023-08-29T08:03:11Z</time>
      </trkpt>
      <trkpt lat="45.4457" lon="5.42201">
        <ele>487.8</ele>
        <time>2023-08-29T08:03:12Z</time>
      </trkpt>
      <trkpt lat="45.44568" lon="5.422">
        <ele>488</ele>
        <time>2023-08-29T08:03:13Z</time>
      </trkpt>
      <trkpt lat="45.44565" lon="5.42199">
        <ele>488.4</ele>
        <time>2023-08-29T08:03:14Z</time>
      </trkpt>
      <trkpt lat="45.44563" lon="5.42198">
        <ele>488.6</ele>
        <time>2023-08-29T08:03:15Z</time>
      </trkpt>
      <trkpt lat="45.44561" lon="5.42197">
        <ele>488.8</ele>
        <time>2023-08-29T08:03:16Z</time>
      </trkpt>
      <trkpt lat="45.44559" lon="5.42196">
        <ele>489.2</ele>
        <time>2023-08-29T08:03:17Z</time>
      </trkpt>
      <trkpt lat="45.44557" lon="5.42195">
        <ele>489.4</ele>
        <time>2023-08-29T08:03:18Z</time>
      </trkpt>
      <trkpt lat="45.44554" lon="5.42194">
        <ele>489.4</ele>
        <time>2023-08-29T08:03:19Z</time>
      </trkpt>
      <trkpt lat="45.44551" lon="5.42193">
        <ele>489.8</ele>
        <time>2023-08-29T08:03:20Z</time>
      </trkpt>
      <trkpt lat="45.44549" lon="5.42192">
        <ele>489.8</ele>
        <time>2023-08-29T08:03:21Z</time>
      </trkpt>
      <trkpt lat="45.44546" lon="5.42191">
        <ele>490.2</ele>
        <time>2023-08-29T08:03:22Z</time>
      </trkpt>
      <trkpt lat="45.44544" lon="5.42191">
        <ele>490.4</ele>
        <time>2023-08-29T08:03:23Z</time>
      </trkpt>
      <trkpt lat="45.44541" lon="5.4219">
        <ele>490.4</ele>
        <time>2023-08-29T08:03:24Z</time>
      </trkpt>
      <trkpt lat="45.44539" lon="5.4219">
        <ele>490.6</ele>
        <time>2023-08-29T08:03:25Z</time>
      </trkpt>
      <trkpt lat="45.44536" lon="5.4219">
        <ele>490.6</ele>
        <time>2023-08-29T08:03:26Z</time>
      </trkpt>
      <trkpt lat="45.44533" lon="5.42189">
        <ele>491</ele>
        <time>2023-08-29T08:03:27Z</time>
      </trkpt>
      <trkpt lat="45.4453" lon="5.42189">
        <ele>491.2</ele>
        <time>2023-08-29T08:03:28Z</time>
      </trkpt>
      <trkpt lat="45.44527" lon="5.42189">
        <ele>491.2</ele>
        <time>2023-08-29T08:03:29Z</time>
      </trkpt>
      <trkpt lat="45.44525" lon="5.42189">
        <ele>491.6</ele>
        <time>2023-08-29T08:03:30Z</time>
      </trkpt>
      <trkpt lat="45.44522" lon="5.42188">
        <ele>491.8</ele>
        <time>2023-08-29T08:03:31Z</time>
      </trkpt>
      <trkpt lat="45.44519" lon="5.42188">
        <ele>492.2</ele>
        <time>2023-08-29T08:03:32Z</time>
      </trkpt>
      <trkpt lat="45.44516" lon="5.42188">
        <ele>492.8</ele>
        <time>2023-08-29T08:03:33Z</time>
      </trkpt>
      <trkpt lat="45.44514" lon="5.42188">
        <ele>492.8</ele>
        <time>2023-08-29T08:03:34Z</time>
      </trkpt>
      <trkpt lat="45.44511" lon="5.42189">
        <ele>493</ele>
        <time>2023-08-29T08:03:35Z</time>
      </trkpt>
      <trkpt lat="45.44509" lon="5.42191">
        <ele>493.4</ele>
        <time>2023-08-29T08:03:36Z</time>
      </trkpt>
      <trkpt lat="45.44507" lon="5.42193">
        <ele>493.4</ele>
        <time>2023-08-29T08:03:37Z</time>
      </trkpt>
      <trkpt lat="45.44505" lon="5.42195">
        <ele>493.8</ele>
        <time>2023-08-29T08:03:38Z</time>
      </trkpt>
      <trkpt lat="45.44503" lon="5.42198">
        <ele>493.8</ele>
        <time>2023-08-29T08:03:39Z</time>
      </trkpt>
      <trkpt lat="45.44501" lon="5.42201">
        <ele>494.2</ele>
        <time>2023-08-29T08:03:40Z</time>
      </trkpt>
      <trkpt lat="45.44499" lon="5.42203">
        <ele>494.4</ele>
        <time>2023-08-29T08:03:41Z</time>
      </trkpt>
      <trkpt lat="45.44497" lon="5.42205">
        <ele>494.8</ele>
        <time>2023-08-29T08:03:42Z</time>
      </trkpt>
      <trkpt lat="45.44495" lon="5.42208">
        <ele>495.2</ele>
        <time>2023-08-29T08:03:43Z</time>
      </trkpt>
      <trkpt lat="45.44493" lon="5.4221">
        <ele>495.4</ele>
        <time>2023-08-29T08:03:44Z</time>
      </trkpt>
      <trkpt lat="45.44491" lon="5.42213">
        <ele>495.8</ele>
        <time>2023-08-29T08:03:45Z</time>
      </trkpt>
      <trkpt lat="45.4449" lon="5.42215">
        <ele>496</ele>
        <time>2023-08-29T08:03:46Z</time>
      </trkpt>
      <trkpt lat="45.44488" lon="5.42218">
        <ele>496.2</ele>
        <time>2023-08-29T08:03:47Z</time>
      </trkpt>
      <trkpt lat="45.44486" lon="5.4222">
        <ele>496.6</ele>
        <time>2023-08-29T08:03:48Z</time>
      </trkpt>
      <trkpt lat="45.44484" lon="5.42221">
        <ele>496.8</ele>
        <time>2023-08-29T08:03:49Z</time>
      </trkpt>
      <trkpt lat="45.44482" lon="5.42223">
        <ele>497.2</ele>
        <time>2023-08-29T08:03:50Z</time>
      </trkpt>
      <trkpt lat="45.4448" lon="5.42224">
        <ele>497.6</ele>
        <time>2023-08-29T08:03:51Z</time>
      </trkpt>
      <trkpt lat="45.44478" lon="5.42226">
        <ele>498</ele>
        <time>2023-08-29T08:03:52Z</time>
      </trkpt>
      <trkpt lat="45.44476" lon="5.42228">
        <ele>498.2</ele>
        <time>2023-08-29T08:03:53Z</time>
      </trkpt>
      <trkpt lat="45.44473" lon="5.42231">
        <ele>498.2</ele>
        <time>2023-08-29T08:03:54Z</time>
      </trkpt>
      <trkpt lat="45.44471" lon="5.42233">
        <ele>498.2</ele>
        <time>2023-08-29T08:03:55Z</time>
      </trkpt>
      <trkpt lat="45.44469" lon="5.42234">
        <ele>498.4</ele>
        <time>2023-08-29T08:03:56Z</time>
      </trkpt>
      <trkpt lat="45.44467" lon="5.42236">
        <ele>498.8</ele>
        <time>2023-08-29T08:03:57Z</time>
      </trkpt>
      <trkpt lat="45.44465" lon="5.42238">
        <ele>499</ele>
        <time>2023-08-29T08:03:58Z</time>
      </trkpt>
      <trkpt lat="45.44463" lon="5.4224">
        <ele>499.2</ele>
        <time>2023-08-29T08:03:59Z</time>
      </trkpt>
      <trkpt lat="45.44461" lon="5.42242">
        <ele>499.4</ele>
        <time>2023-08-29T08:04:00Z</time>
      </trkpt>
      <trkpt lat="45.44459" lon="5.42245">
        <ele>499.6</ele>
        <time>2023-08-29T08:04:01Z</time>
      </trkpt>
      <trkpt lat="45.44457" lon="5.42247">
        <ele>500</ele>
        <time>2023-08-29T08:04:02Z</time>
      </trkpt>
      <trkpt lat="45.44455" lon="5.42248">
        <ele>500.2</ele>
        <time>2023-08-29T08:04:03Z</time>
      </trkpt>
      <trkpt lat="45.44453" lon="5.4225">
        <ele>500.6</ele>
        <time>2023-08-29T08:04:04Z</time>
      </trkpt>
      <trkpt lat="45.4445" lon="5.42253">
        <ele>500.8</ele>
        <time>2023-08-29T08:04:05Z</time>
      </trkpt>
      <trkpt lat="45.44448" lon="5.42255">
        <ele>500.8</ele>
        <time>2023-08-29T08:04:06Z</time>
      </trkpt>
      <trkpt lat="45.44446" lon="5.42258">
        <ele>501.2</ele>
        <time>2023-08-29T08:04:07Z</time>
      </trkpt>
      <trkpt lat="45.44444" lon="5.4226">
        <ele>501.2</ele>
        <time>2023-08-29T08:04:08Z</time>
      </trkpt>
      <trkpt lat="45.44442" lon="5.42262">
        <ele>501.6</ele>
        <time>2023-08-29T08:04:09Z</time>
      </trkpt>
      <trkpt lat="45.4444" lon="5.42264">
        <ele>501.6</ele>
        <time>2023-08-29T08:04:10Z</time>
      </trkpt>
      <trkpt lat="45.44439" lon="5.42266">
        <ele>502</ele>
        <time>2023-08-29T08:04:11Z</time>
      </trkpt>
      <trkpt lat="45.44438" lon="5.42268">
        <ele>502.2</ele>
        <time>2023-08-29T08:04:12Z</time>
      </trkpt>
      <trkpt lat="45.44436" lon="5.42271">
        <ele>502.4</ele>
        <time>2023-08-29T08:04:13Z</time>
      </trkpt>
      <trkpt lat="45.44434" lon="5.42274">
        <ele>502.6</ele>
        <time>2023-08-29T08:04:14Z</time>
      </trkpt>
      <trkpt lat="45.44432" lon="5.42276">
        <ele>502.8</ele>
        <time>2023-08-29T08:04:15Z</time>
      </trkpt>
      <trkpt lat="45.4443" lon="5.42279">
        <ele>503</ele>
        <time>2023-08-29T08:04:16Z</time>
      </trkpt>
      <trkpt lat="45.44428" lon="5.42281">
        <ele>503.4</ele>
        <time>2023-08-29T08:04:17Z</time>
      </trkpt>
      <trkpt lat="45.44426" lon="5.42283">
        <ele>503.6</ele>
        <time>2023-08-29T08:04:18Z</time>
      </trkpt>
      <trkpt lat="45.44425" lon="5.42285">
        <ele>503.8</ele>
        <time>2023-08-29T08:04:19Z</time>
      </trkpt>
      <trkpt lat="45.44423" lon="5.42288">
        <ele>504</ele>
        <time>2023-08-29T08:04:20Z</time>
      </trkpt>
      <trkpt lat="45.44422" lon="5.42291">
        <ele>504.2</ele>
        <time>2023-08-29T08:04:21Z</time>
      </trkpt>
      <trkpt lat="45.44421" lon="5.42294">
        <ele>504.4</ele>
        <time>2023-08-29T08:04:22Z</time>
      </trkpt>
      <trkpt lat="45.4442" lon="5.42298">
        <ele>504.8</ele>
        <time>2023-08-29T08:04:23Z</time>
      </trkpt>
      <trkpt lat="45.44419" lon="5.42301">
        <ele>505.2</ele>
        <time>2023-08-29T08:04:24Z</time>
      </trkpt>
      <trkpt lat="45.44418" lon="5.42304">
        <ele>505.4</ele>
        <time>2023-08-29T08:04:25Z</time>
      </trkpt>
      <trkpt lat="45.44417" lon="5.42307">
        <ele>505.8</ele>
        <time>2023-08-29T08:04:26Z</time>
      </trkpt>
      <trkpt lat="45.44417" lon="5.4231">
        <ele>506</ele>
        <time>2023-08-29T08:04:27Z</time>
      </trkpt>
      <trkpt lat="45.44416" lon="5.42313">
        <ele>506.2</ele>
        <time>2023-08-29T08:04:28Z</time>
      </trkpt>
      <trkpt lat="45.44416" lon="5.42316">
        <ele>506.6</ele>
        <time>2023-08-29T08:04:29Z</time>
      </trkpt>
      <trkpt lat="45.44415" lon="5.4232">
        <ele>506.8</ele>
        <time>2023-08-29T08:04:30Z</time>
      </trkpt>
      <trkpt lat="45.44415" lon="5.42324">
        <ele>507</ele>
        <time>2023-08-29T08:04:31Z</time>
      </trkpt>
      <trkpt lat="45.44414" lon="5.42328">
        <ele>507</ele>
        <time>2023-08-29T08:04:32Z</time>
      </trkpt>
      <trkpt lat="45.44413" lon="5.42333">
        <ele>507.2</ele>
        <time>2023-08-29T08:04:33Z</time>
      </trkpt>
      <trkpt lat="45.44413" lon="5.42337">
        <ele>507.6</ele>
        <time>2023-08-29T08:04:34Z</time>
      </trkpt>
      <trkpt lat="45.44412" lon="5.42341">
        <ele>507.8</ele>
        <time>2023-08-29T08:04:35Z</time>
      </trkpt>
      <trkpt lat="45.44411" lon="5.42345">
        <ele>507.8</ele>
        <time>2023-08-29T08:04:36Z</time>
      </trkpt>
      <trkpt lat="45.44409" lon="5.42349">
        <ele>508</ele>
        <time>2023-08-29T08:04:37Z</time>
      </trkpt>
      <trkpt lat="45.44407" lon="5.42352">
        <ele>508.2</ele>
        <time>2023-08-29T08:04:38Z</time>
      </trkpt>
      <trkpt lat="45.44404" lon="5.42355">
        <ele>508.2</ele>
        <time>2023-08-29T08:04:39Z</time>
      </trkpt>
      <trkpt lat="45.44402" lon="5.42358">
        <ele>508.2</ele>
        <time>2023-08-29T08:04:40Z</time>
      </trkpt>
      <trkpt lat="45.44401" lon="5.4236">
        <ele>508.4</ele>
        <time>2023-08-29T08:04:41Z</time>
      </trkpt>
      <trkpt lat="45.44399" lon="5.42362">
        <ele>508.8</ele>
        <time>2023-08-29T08:04:42Z</time>
      </trkpt>
      <trkpt lat="45.44399" lon="5.42365">
        <ele>509</ele>
        <time>2023-08-29T08:04:43Z</time>
      </trkpt>
      <trkpt lat="45.44398" lon="5.42369">
        <ele>509</ele>
        <time>2023-08-29T08:04:44Z</time>
      </trkpt>
      <trkpt lat="45.44398" lon="5.42373">
        <ele>509.2</ele>
        <time>2023-08-29T08:04:45Z</time>
      </trkpt>
      <trkpt lat="45.44399" lon="5.42377">
        <ele>509.2</ele>
        <time>2023-08-29T08:04:46Z</time>
      </trkpt>
      <trkpt lat="45.444" lon="5.42381">
        <ele>509.2</ele>
        <time>2023-08-29T08:04:47Z</time>
      </trkpt>
      <trkpt lat="45.44401" lon="5.42385">
        <ele>509.2</ele>
        <time>2023-08-29T08:04:48Z</time>
      </trkpt>
      <trkpt lat="45.44402" lon="5.42389">
        <ele>509.2</ele>
        <time>2023-08-29T08:04:49Z</time>
      </trkpt>
      <trkpt lat="45.44402" lon="5.42393">
        <ele>509.2</ele>
        <time>2023-08-29T08:04:50Z</time>
      </trkpt>
      <trkpt lat="45.44403" lon="5.42397">
        <ele>509.2</ele>
        <time>2023-08-29T08:04:51Z</time>
      </trkpt>
      <trkpt lat="45.44402" lon="5.424">
        <ele>509.4</ele>
        <time>2023-08-29T08:04:52Z</time>
      </trkpt>
      <trkpt lat="45.44402" lon="5.42404">
        <ele>509.4</ele>
        <time>2023-08-29T08:04:53Z</time>
      </trkpt>
      <trkpt lat="45.44402" lon="5.42409">
        <ele>509.4</ele>
        <time>2023-08-29T08:04:54Z</time>
      </trkpt>
      <trkpt lat="45.44401" lon="5.42413">
        <ele>509.6</ele>
        <time>2023-08-29T08:04:55Z</time>
      </trkpt>
      <trkpt lat="45.444" lon="5.42418">
        <ele>509.6</ele>
        <time>2023-08-29T08:04:56Z</time>
      </trkpt>
      <trkpt lat="45.44399" lon="5.42422">
        <ele>509.6</ele>
        <time>2023-08-29T08:04:57Z</time>
      </trkpt>
      <trkpt lat="45.44397" lon="5.42426">
        <ele>509.6</ele>
        <time>2023-08-29T08:04:58Z</time>
      </trkpt>
      <trkpt lat="45.44393" lon="5.42428">
        <ele>509.6</ele>
        <time>2023-08-29T08:04:59Z</time>
      </trkpt>
      <trkpt lat="45.4439" lon="5.42427">
        <ele>509.6</ele>
        <time>2023-08-29T08:05:00Z</time>
      </trkpt>
      <trkpt lat="45.44386" lon="5.42427">
        <ele>509.6</ele>
        <time>2023-08-29T08:05:01Z</time>
      </trkpt>
      <trkpt lat="45.44383" lon="5.42426">
        <ele>509.6</ele>
        <time>2023-08-29T08:05:02Z</time>
      </trkpt>
      <trkpt lat="45.44379" lon="5.42425">
        <ele>509.6</ele>
        <time>2023-08-29T08:05:03Z</time>
      </trkpt>
      <trkpt lat="45.44375" lon="5.42424">
        <ele>509.6</ele>
        <time>2023-08-29T08:05:04Z</time>
      </trkpt>
      <trkpt lat="45.44371" lon="5.42422">
        <ele>509.4</ele>
        <time>2023-08-29T08:05:05Z</time>
      </trkpt>
      <trkpt lat="45.44367" lon="5.42421">
        <ele>509.4</ele>
        <time>2023-08-29T08:05:06Z</time>
      </trkpt>
      <trkpt lat="45.44363" lon="5.42419">
        <ele>509.4</ele>
        <time>2023-08-29T08:05:07Z</time>
      </trkpt>
      <trkpt lat="45.44359" lon="5.42417">
        <ele>509.4</ele>
        <time>2023-08-29T08:05:08Z</time>
      </trkpt>
      <trkpt lat="45.44355" lon="5.42415">
        <ele>509.4</ele>
        <time>2023-08-29T08:05:09Z</time>
      </trkpt>
      <trkpt lat="45.44351" lon="5.42413">
        <ele>509.2</ele>
        <time>2023-08-29T08:05:10Z</time>
      </trkpt>
      <trkpt lat="45.44347" lon="5.42412">
        <ele>509.2</ele>
        <time>2023-08-29T08:05:11Z</time>
      </trkpt>
      <trkpt lat="45.44344" lon="5.42411">
        <ele>509.2</ele>
        <time>2023-08-29T08:05:12Z</time>
      </trkpt>
      <trkpt lat="45.44341" lon="5.4241">
        <ele>509.2</ele>
        <time>2023-08-29T08:05:13Z</time>
      </trkpt>
      <trkpt lat="45.44338" lon="5.42409">
        <ele>509.2</ele>
        <time>2023-08-29T08:05:14Z</time>
      </trkpt>
      <trkpt lat="45.44334" lon="5.42407">
        <ele>509.2</ele>
        <time>2023-08-29T08:05:15Z</time>
      </trkpt>
      <trkpt lat="45.44332" lon="5.42406">
        <ele>509.2</ele>
        <time>2023-08-29T08:05:16Z</time>
      </trkpt>
      <trkpt lat="45.4433" lon="5.42406">
        <ele>509.4</ele>
        <time>2023-08-29T08:05:17Z</time>
      </trkpt>
      <trkpt lat="45.44329" lon="5.42405">
        <ele>509.4</ele>
        <time>2023-08-29T08:05:18Z</time>
      </trkpt>
      <trkpt lat="45.44328" lon="5.42404">
        <ele>509.4</ele>
        <time>2023-08-29T08:05:19Z</time>
      </trkpt>
      <trkpt lat="45.44327" lon="5.42404">
        <ele>509.4</ele>
        <time>2023-08-29T08:05:20Z</time>
      </trkpt>
      <trkpt lat="45.44325" lon="5.42403">
        <ele>509.6</ele>
        <time>2023-08-29T08:05:21Z</time>
      </trkpt>
      <trkpt lat="45.44325" lon="5.42403">
        <ele>509.6</ele>
        <time>2023-08-29T08:05:22Z</time>
      </trkpt>
      <trkpt lat="45.44324" lon="5.42403">
        <ele>509.6</ele>
        <time>2023-08-29T08:05:23Z</time>
      </trkpt>
      <trkpt lat="45.44324" lon="5.42403">
        <ele>509.8</ele>
        <time>2023-08-29T08:05:24Z</time>
      </trkpt>
      <trkpt lat="45.44318" lon="5.42401">
        <ele>509.2</ele>
        <time>2023-08-29T08:06:22Z</time>
      </trkpt>
      <trkpt lat="45.44315" lon="5.42401">
        <ele>509.2</ele>
        <time>2023-08-29T08:06:23Z</time>
      </trkpt>
      <trkpt lat="45.44313" lon="5.42402">
        <ele>509.2</ele>
        <time>2023-08-29T08:06:24Z</time>
      </trkpt>
      <trkpt lat="45.4431" lon="5.42404">
        <ele>509.2</ele>
        <time>2023-08-29T08:06:25Z</time>
      </trkpt>
      <trkpt lat="45.44307" lon="5.42407">
        <ele>509.2</ele>
        <time>2023-08-29T08:06:26Z</time>
      </trkpt>
      <trkpt lat="45.44306" lon="5.42412">
        <ele>509.2</ele>
        <time>2023-08-29T08:06:27Z</time>
      </trkpt>
      <trkpt lat="45.44304" lon="5.42417">
        <ele>509.2</ele>
        <time>2023-08-29T08:06:28Z</time>
      </trkpt>
      <trkpt lat="45.44303" lon="5.42422">
        <ele>509.2</ele>
        <time>2023-08-29T08:06:29Z</time>
      </trkpt>
      <trkpt lat="45.44302" lon="5.42426">
        <ele>509.2</ele>
        <time>2023-08-29T08:06:30Z</time>
      </trkpt>
      <trkpt lat="45.44302" lon="5.42431">
        <ele>509.2</ele>
        <time>2023-08-29T08:06:31Z</time>
      </trkpt>
      <trkpt lat="45.44301" lon="5.42435">
        <ele>509.2</ele>
        <time>2023-08-29T08:06:32Z</time>
      </trkpt>
      <trkpt lat="45.44301" lon="5.4244">
        <ele>509.2</ele>
        <time>2023-08-29T08:06:33Z</time>
      </trkpt>
      <trkpt lat="45.44301" lon="5.42445">
        <ele>509.4</ele>
        <time>2023-08-29T08:06:34Z</time>
      </trkpt>
      <trkpt lat="45.443" lon="5.4245">
        <ele>509.4</ele>
        <time>2023-08-29T08:06:35Z</time>
      </trkpt>
      <trkpt lat="45.44299" lon="5.42456">
        <ele>509.4</ele>
        <time>2023-08-29T08:06:36Z</time>
      </trkpt>
      <trkpt lat="45.44297" lon="5.42462">
        <ele>509.4</ele>
        <time>2023-08-29T08:06:37Z</time>
      </trkpt>
      <trkpt lat="45.44296" lon="5.42468">
        <ele>509.4</ele>
        <time>2023-08-29T08:06:38Z</time>
      </trkpt>
      <trkpt lat="45.44294" lon="5.42476">
        <ele>509.2</ele>
        <time>2023-08-29T08:06:39Z</time>
      </trkpt>
      <trkpt lat="45.44293" lon="5.42483">
        <ele>509.2</ele>
        <time>2023-08-29T08:06:40Z</time>
      </trkpt>
      <trkpt lat="45.44291" lon="5.4249">
        <ele>509.2</ele>
        <time>2023-08-29T08:06:41Z</time>
      </trkpt>
      <trkpt lat="45.4429" lon="5.42498">
        <ele>509.2</ele>
        <time>2023-08-29T08:06:42Z</time>
      </trkpt>
      <trkpt lat="45.44288" lon="5.42505">
        <ele>509.2</ele>
        <time>2023-08-29T08:06:43Z</time>
      </trkpt>
      <trkpt lat="45.44287" lon="5.42511">
        <ele>509.4</ele>
        <time>2023-08-29T08:06:44Z</time>
      </trkpt>
      <trkpt lat="45.44286" lon="5.42516">
        <ele>509.4</ele>
        <time>2023-08-29T08:06:45Z</time>
      </trkpt>
      <trkpt lat="45.44284" lon="5.42522">
        <ele>509.8</ele>
        <time>2023-08-29T08:06:46Z</time>
      </trkpt>
      <trkpt lat="45.44283" lon="5.42526">
        <ele>510.2</ele>
        <time>2023-08-29T08:06:47Z</time>
      </trkpt>
      <trkpt lat="45.44281" lon="5.42531">
        <ele>510.6</ele>
        <time>2023-08-29T08:06:48Z</time>
      </trkpt>
      <trkpt lat="45.44279" lon="5.42537">
        <ele>510.8</ele>
        <time>2023-08-29T08:06:49Z</time>
      </trkpt>
      <trkpt lat="45.44277" lon="5.42542">
        <ele>511</ele>
        <time>2023-08-29T08:06:50Z</time>
      </trkpt>
      <trkpt lat="45.44275" lon="5.42547">
        <ele>511.2</ele>
        <time>2023-08-29T08:06:51Z</time>
      </trkpt>
      <trkpt lat="45.44273" lon="5.42552">
        <ele>511.4</ele>
        <time>2023-08-29T08:06:52Z</time>
      </trkpt>
      <trkpt lat="45.44271" lon="5.42558">
        <ele>511.6</ele>
        <time>2023-08-29T08:06:53Z</time>
      </trkpt>
      <trkpt lat="45.44269" lon="5.42563">
        <ele>511.6</ele>
        <time>2023-08-29T08:06:54Z</time>
      </trkpt>
      <trkpt lat="45.44266" lon="5.42569">
        <ele>511.8</ele>
        <time>2023-08-29T08:06:55Z</time>
      </trkpt>
      <trkpt lat="45.44264" lon="5.42574">
        <ele>511.8</ele>
        <time>2023-08-29T08:06:56Z</time>
      </trkpt>
      <trkpt lat="45.44261" lon="5.42578">
        <ele>512</ele>
        <time>2023-08-29T08:06:57Z</time>
      </trkpt>
      <trkpt lat="45.44259" lon="5.42583">
        <ele>512</ele>
        <time>2023-08-29T08:06:58Z</time>
      </trkpt>
      <trkpt lat="45.44257" lon="5.42586">
        <ele>512.2</ele>
        <time>2023-08-29T08:06:59Z</time>
      </trkpt>
      <trkpt lat="45.44255" lon="5.4259">
        <ele>512.4</ele>
        <time>2023-08-29T08:07:00Z</time>
      </trkpt>
      <trkpt lat="45.44253" lon="5.42595">
        <ele>512.4</ele>
        <time>2023-08-29T08:07:01Z</time>
      </trkpt>
      <trkpt lat="45.4425" lon="5.42598">
        <ele>512.6</ele>
        <time>2023-08-29T08:07:02Z</time>
      </trkpt>
      <trkpt lat="45.44247" lon="5.42601">
        <ele>512.8</ele>
        <time>2023-08-29T08:07:03Z</time>
      </trkpt>
      <trkpt lat="45.44242" lon="5.426">
        <ele>512.8</ele>
        <time>2023-08-29T08:07:04Z</time>
      </trkpt>
      <trkpt lat="45.44238" lon="5.42597">
        <ele>513</ele>
        <time>2023-08-29T08:07:05Z</time>
      </trkpt>
      <trkpt lat="45.44233" lon="5.42593">
        <ele>513</ele>
        <time>2023-08-29T08:07:06Z</time>
      </trkpt>
      <trkpt lat="45.44229" lon="5.42589">
        <ele>513</ele>
        <time>2023-08-29T08:07:07Z</time>
      </trkpt>
      <trkpt lat="45.44225" lon="5.42585">
        <ele>513</ele>
        <time>2023-08-29T08:07:08Z</time>
      </trkpt>
      <trkpt lat="45.44221" lon="5.42583">
        <ele>513</ele>
        <time>2023-08-29T08:07:09Z</time>
      </trkpt>
      <trkpt lat="45.44218" lon="5.42579">
        <ele>513</ele>
        <time>2023-08-29T08:07:10Z</time>
      </trkpt>
      <trkpt lat="45.44215" lon="5.42574">
        <ele>513</ele>
        <time>2023-08-29T08:07:11Z</time>
      </trkpt>
      <trkpt lat="45.44212" lon="5.4257">
        <ele>513</ele>
        <time>2023-08-29T08:07:12Z</time>
      </trkpt>
      <trkpt lat="45.44208" lon="5.42566">
        <ele>513</ele>
        <time>2023-08-29T08:07:13Z</time>
      </trkpt>
      <trkpt lat="45.44205" lon="5.42562">
        <ele>513</ele>
        <time>2023-08-29T08:07:14Z</time>
      </trkpt>
      <trkpt lat="45.44201" lon="5.42559">
        <ele>513</ele>
        <time>2023-08-29T08:07:15Z</time>
      </trkpt>
      <trkpt lat="45.44198" lon="5.42556">
        <ele>513</ele>
        <time>2023-08-29T08:07:16Z</time>
      </trkpt>
      <trkpt lat="45.44195" lon="5.42552">
        <ele>513</ele>
        <time>2023-08-29T08:07:17Z</time>
      </trkpt>
      <trkpt lat="45.44192" lon="5.42548">
        <ele>513</ele>
        <time>2023-08-29T08:07:18Z</time>
      </trkpt>
      <trkpt lat="45.44189" lon="5.42542">
        <ele>513</ele>
        <time>2023-08-29T08:07:19Z</time>
      </trkpt>
      <trkpt lat="45.44186" lon="5.42537">
        <ele>513</ele>
        <time>2023-08-29T08:07:20Z</time>
      </trkpt>
      <trkpt lat="45.44184" lon="5.42531">
        <ele>513</ele>
        <time>2023-08-29T08:07:21Z</time>
      </trkpt>
      <trkpt lat="45.44181" lon="5.42526">
        <ele>513</ele>
        <time>2023-08-29T08:07:22Z</time>
      </trkpt>
      <trkpt lat="45.44178" lon="5.42522">
        <ele>512.8</ele>
        <time>2023-08-29T08:07:23Z</time>
      </trkpt>
      <trkpt lat="45.44174" lon="5.42517">
        <ele>512.8</ele>
        <time>2023-08-29T08:07:24Z</time>
      </trkpt>
      <trkpt lat="45.4417" lon="5.42513">
        <ele>512.8</ele>
        <time>2023-08-29T08:07:25Z</time>
      </trkpt>
      <trkpt lat="45.44166" lon="5.42508">
        <ele>512.6</ele>
        <time>2023-08-29T08:07:26Z</time>
      </trkpt>
      <trkpt lat="45.44163" lon="5.42504">
        <ele>512.8</ele>
        <time>2023-08-29T08:07:27Z</time>
      </trkpt>
      <trkpt lat="45.4416" lon="5.42499">
        <ele>512.8</ele>
        <time>2023-08-29T08:07:28Z</time>
      </trkpt>
      <trkpt lat="45.44156" lon="5.42495">
        <ele>512.8</ele>
        <time>2023-08-29T08:07:29Z</time>
      </trkpt>
      <trkpt lat="45.44153" lon="5.42491">
        <ele>512.8</ele>
        <time>2023-08-29T08:07:30Z</time>
      </trkpt>
      <trkpt lat="45.4415" lon="5.42487">
        <ele>512.8</ele>
        <time>2023-08-29T08:07:31Z</time>
      </trkpt>
      <trkpt lat="45.44147" lon="5.42482">
        <ele>512.8</ele>
        <time>2023-08-29T08:07:32Z</time>
      </trkpt>
      <trkpt lat="45.44143" lon="5.42479">
        <ele>513.2</ele>
        <time>2023-08-29T08:07:33Z</time>
      </trkpt>
      <trkpt lat="45.4414" lon="5.42474">
        <ele>513.4</ele>
        <time>2023-08-29T08:07:34Z</time>
      </trkpt>
      <trkpt lat="45.44136" lon="5.42469">
        <ele>513.6</ele>
        <time>2023-08-29T08:07:35Z</time>
      </trkpt>
      <trkpt lat="45.44131" lon="5.42465">
        <ele>513.6</ele>
        <time>2023-08-29T08:07:36Z</time>
      </trkpt>
      <trkpt lat="45.44127" lon="5.4246">
        <ele>513.8</ele>
        <time>2023-08-29T08:07:37Z</time>
      </trkpt>
      <trkpt lat="45.44124" lon="5.42456">
        <ele>513.8</ele>
        <time>2023-08-29T08:07:38Z</time>
      </trkpt>
      <trkpt lat="45.44121" lon="5.42451">
        <ele>514</ele>
        <time>2023-08-29T08:07:39Z</time>
      </trkpt>
      <trkpt lat="45.44117" lon="5.42447">
        <ele>514</ele>
        <time>2023-08-29T08:07:40Z</time>
      </trkpt>
      <trkpt lat="45.44113" lon="5.42443">
        <ele>514</ele>
        <time>2023-08-29T08:07:41Z</time>
      </trkpt>
      <trkpt lat="45.44109" lon="5.42438">
        <ele>514</ele>
        <time>2023-08-29T08:07:42Z</time>
      </trkpt>
      <trkpt lat="45.44106" lon="5.42433">
        <ele>514</ele>
        <time>2023-08-29T08:07:43Z</time>
      </trkpt>
      <trkpt lat="45.44103" lon="5.42428">
        <ele>514.2</ele>
        <time>2023-08-29T08:07:44Z</time>
      </trkpt>
      <trkpt lat="45.44099" lon="5.42423">
        <ele>514.2</ele>
        <time>2023-08-29T08:07:45Z</time>
      </trkpt>
      <trkpt lat="45.44095" lon="5.42418">
        <ele>514.2</ele>
        <time>2023-08-29T08:07:46Z</time>
      </trkpt>
      <trkpt lat="45.44092" lon="5.42412">
        <ele>514.2</ele>
        <time>2023-08-29T08:07:47Z</time>
      </trkpt>
      <trkpt lat="45.44088" lon="5.42407">
        <ele>514.2</ele>
        <time>2023-08-29T08:07:48Z</time>
      </trkpt>
      <trkpt lat="45.44085" lon="5.42402">
        <ele>514.4</ele>
        <time>2023-08-29T08:07:49Z</time>
      </trkpt>
      <trkpt lat="45.44081" lon="5.42397">
        <ele>514.4</ele>
        <time>2023-08-29T08:07:50Z</time>
      </trkpt>
      <trkpt lat="45.44077" lon="5.42393">
        <ele>514.4</ele>
        <time>2023-08-29T08:07:51Z</time>
      </trkpt>
      <trkpt lat="45.44073" lon="5.42388">
        <ele>514.4</ele>
        <time>2023-08-29T08:07:52Z</time>
      </trkpt>
      <trkpt lat="45.44068" lon="5.42383">
        <ele>514.4</ele>
        <time>2023-08-29T08:07:53Z</time>
      </trkpt>
      <trkpt lat="45.44065" lon="5.42377">
        <ele>514.4</ele>
        <time>2023-08-29T08:07:54Z</time>
      </trkpt>
      <trkpt lat="45.44061" lon="5.42372">
        <ele>514.2</ele>
        <time>2023-08-29T08:07:55Z</time>
      </trkpt>
      <trkpt lat="45.44058" lon="5.42367">
        <ele>514.2</ele>
        <time>2023-08-29T08:07:56Z</time>
      </trkpt>
      <trkpt lat="45.44053" lon="5.42362">
        <ele>514.2</ele>
        <time>2023-08-29T08:07:57Z</time>
      </trkpt>
      <trkpt lat="45.44049" lon="5.42356">
        <ele>514</ele>
        <time>2023-08-29T08:07:58Z</time>
      </trkpt>
      <trkpt lat="45.44045" lon="5.42351">
        <ele>514</ele>
        <time>2023-08-29T08:07:59Z</time>
      </trkpt>
      <trkpt lat="45.44041" lon="5.42345">
        <ele>514</ele>
        <time>2023-08-29T08:08:00Z</time>
      </trkpt>
      <trkpt lat="45.44038" lon="5.42339">
        <ele>514</ele>
        <time>2023-08-29T08:08:01Z</time>
      </trkpt>
      <trkpt lat="45.44034" lon="5.42334">
        <ele>513.8</ele>
        <time>2023-08-29T08:08:02Z</time>
      </trkpt>
      <trkpt lat="45.44031" lon="5.42328">
        <ele>513.8</ele>
        <time>2023-08-29T08:08:03Z</time>
      </trkpt>
      <trkpt lat="45.44028" lon="5.42322">
        <ele>513.8</ele>
        <time>2023-08-29T08:08:04Z</time>
      </trkpt>
      <trkpt lat="45.44026" lon="5.42314">
        <ele>513.8</ele>
        <time>2023-08-29T08:08:05Z</time>
      </trkpt>
      <trkpt lat="45.44024" lon="5.42307">
        <ele>513.8</ele>
        <time>2023-08-29T08:08:06Z</time>
      </trkpt>
      <trkpt lat="45.44022" lon="5.423">
        <ele>513.8</ele>
        <time>2023-08-29T08:08:07Z</time>
      </trkpt>
      <trkpt lat="45.4402" lon="5.42292">
        <ele>513.8</ele>
        <time>2023-08-29T08:08:08Z</time>
      </trkpt>
      <trkpt lat="45.44018" lon="5.42284">
        <ele>513.8</ele>
        <time>2023-08-29T08:08:09Z</time>
      </trkpt>
      <trkpt lat="45.44016" lon="5.42276">
        <ele>513.6</ele>
        <time>2023-08-29T08:08:10Z</time>
      </trkpt>
      <trkpt lat="45.44014" lon="5.42267">
        <ele>513.6</ele>
        <time>2023-08-29T08:08:11Z</time>
      </trkpt>
      <trkpt lat="45.44013" lon="5.42259">
        <ele>513.2</ele>
        <time>2023-08-29T08:08:12Z</time>
      </trkpt>
      <trkpt lat="45.44011" lon="5.42251">
        <ele>513.2</ele>
        <time>2023-08-29T08:08:13Z</time>
      </trkpt>
      <trkpt lat="45.4401" lon="5.42243">
        <ele>513</ele>
        <time>2023-08-29T08:08:14Z</time>
      </trkpt>
      <trkpt lat="45.44009" lon="5.42236">
        <ele>513</ele>
        <time>2023-08-29T08:08:15Z</time>
      </trkpt>
      <trkpt lat="45.44007" lon="5.42229">
        <ele>512.8</ele>
        <time>2023-08-29T08:08:16Z</time>
      </trkpt>
      <trkpt lat="45.44005" lon="5.42222">
        <ele>512.8</ele>
        <time>2023-08-29T08:08:17Z</time>
      </trkpt>
      <trkpt lat="45.44004" lon="5.42214">
        <ele>512.8</ele>
        <time>2023-08-29T08:08:18Z</time>
      </trkpt>
      <trkpt lat="45.44002" lon="5.42206">
        <ele>512.8</ele>
        <time>2023-08-29T08:08:19Z</time>
      </trkpt>
      <trkpt lat="45.43999" lon="5.422">
        <ele>512.8</ele>
        <time>2023-08-29T08:08:20Z</time>
      </trkpt>
      <trkpt lat="45.43997" lon="5.42193">
        <ele>513</ele>
        <time>2023-08-29T08:08:21Z</time>
      </trkpt>
      <trkpt lat="45.43994" lon="5.42185">
        <ele>513.2</ele>
        <time>2023-08-29T08:08:22Z</time>
      </trkpt>
      <trkpt lat="45.43992" lon="5.42179">
        <ele>513.4</ele>
        <time>2023-08-29T08:08:23Z</time>
      </trkpt>
      <trkpt lat="45.4399" lon="5.42171">
        <ele>513.4</ele>
        <time>2023-08-29T08:08:24Z</time>
      </trkpt>
      <trkpt lat="45.43987" lon="5.42163">
        <ele>513.6</ele>
        <time>2023-08-29T08:08:25Z</time>
      </trkpt>
      <trkpt lat="45.43985" lon="5.42155">
        <ele>513.8</ele>
        <time>2023-08-29T08:08:26Z</time>
      </trkpt>
      <trkpt lat="45.43983" lon="5.42148">
        <ele>514</ele>
        <time>2023-08-29T08:08:27Z</time>
      </trkpt>
      <trkpt lat="45.43981" lon="5.42141">
        <ele>514</ele>
        <time>2023-08-29T08:08:28Z</time>
      </trkpt>
      <trkpt lat="45.43979" lon="5.42134">
        <ele>514</ele>
        <time>2023-08-29T08:08:29Z</time>
      </trkpt>
      <trkpt lat="45.43978" lon="5.42127">
        <ele>514.2</ele>
        <time>2023-08-29T08:08:30Z</time>
      </trkpt>
      <trkpt lat="45.43975" lon="5.4212">
        <ele>514.2</ele>
        <time>2023-08-29T08:08:31Z</time>
      </trkpt>
      <trkpt lat="45.43973" lon="5.42113">
        <ele>514.2</ele>
        <time>2023-08-29T08:08:32Z</time>
      </trkpt>
      <trkpt lat="45.43971" lon="5.42105">
        <ele>514.2</ele>
        <time>2023-08-29T08:08:33Z</time>
      </trkpt>
      <trkpt lat="45.43969" lon="5.42097">
        <ele>514.2</ele>
        <time>2023-08-29T08:08:34Z</time>
      </trkpt>
      <trkpt lat="45.43967" lon="5.42091">
        <ele>514.2</ele>
        <time>2023-08-29T08:08:35Z</time>
      </trkpt>
      <trkpt lat="45.43966" lon="5.42084">
        <ele>514.2</ele>
        <time>2023-08-29T08:08:36Z</time>
      </trkpt>
      <trkpt lat="45.43964" lon="5.42078">
        <ele>514.2</ele>
        <time>2023-08-29T08:08:37Z</time>
      </trkpt>
      <trkpt lat="45.43962" lon="5.42071">
        <ele>514.2</ele>
        <time>2023-08-29T08:08:38Z</time>
      </trkpt>
      <trkpt lat="45.43961" lon="5.42064">
        <ele>514.4</ele>
        <time>2023-08-29T08:08:39Z</time>
      </trkpt>
      <trkpt lat="45.4396" lon="5.42057">
        <ele>514.4</ele>
        <time>2023-08-29T08:08:40Z</time>
      </trkpt>
      <trkpt lat="45.43958" lon="5.4205">
        <ele>514.4</ele>
        <time>2023-08-29T08:08:41Z</time>
      </trkpt>
      <trkpt lat="45.43956" lon="5.42043">
        <ele>514.4</ele>
        <time>2023-08-29T08:08:42Z</time>
      </trkpt>
      <trkpt lat="45.43954" lon="5.42037">
        <ele>514.4</ele>
        <time>2023-08-29T08:08:43Z</time>
      </trkpt>
      <trkpt lat="45.43953" lon="5.4203">
        <ele>514.4</ele>
        <time>2023-08-29T08:08:44Z</time>
      </trkpt>
      <trkpt lat="45.43952" lon="5.42022">
        <ele>514.4</ele>
        <time>2023-08-29T08:08:45Z</time>
      </trkpt>
      <trkpt lat="45.43951" lon="5.42014">
        <ele>514.4</ele>
        <time>2023-08-29T08:08:46Z</time>
      </trkpt>
      <trkpt lat="45.4395" lon="5.42007">
        <ele>514.4</ele>
        <time>2023-08-29T08:08:47Z</time>
      </trkpt>
      <trkpt lat="45.4395" lon="5.41999">
        <ele>515</ele>
        <time>2023-08-29T08:08:48Z</time>
      </trkpt>
      <trkpt lat="45.43951" lon="5.41992">
        <ele>515.2</ele>
        <time>2023-08-29T08:08:49Z</time>
      </trkpt>
      <trkpt lat="45.4395" lon="5.41984">
        <ele>515.8</ele>
        <time>2023-08-29T08:08:50Z</time>
      </trkpt>
      <trkpt lat="45.4395" lon="5.41977">
        <ele>516</ele>
        <time>2023-08-29T08:08:51Z</time>
      </trkpt>
      <trkpt lat="45.4395" lon="5.4197">
        <ele>516.2</ele>
        <time>2023-08-29T08:08:52Z</time>
      </trkpt>
      <trkpt lat="45.4395" lon="5.41962">
        <ele>516.2</ele>
        <time>2023-08-29T08:08:53Z</time>
      </trkpt>
      <trkpt lat="45.43951" lon="5.41954">
        <ele>516.2</ele>
        <time>2023-08-29T08:08:54Z</time>
      </trkpt>
      <trkpt lat="45.43951" lon="5.41945">
        <ele>516.2</ele>
        <time>2023-08-29T08:08:55Z</time>
      </trkpt>
      <trkpt lat="45.43953" lon="5.41937">
        <ele>516</ele>
        <time>2023-08-29T08:08:56Z</time>
      </trkpt>
      <trkpt lat="45.43955" lon="5.41928">
        <ele>515.6</ele>
        <time>2023-08-29T08:08:57Z</time>
      </trkpt>
      <trkpt lat="45.43956" lon="5.4192">
        <ele>515.4</ele>
        <time>2023-08-29T08:08:58Z</time>
      </trkpt>
      <trkpt lat="45.43958" lon="5.41912">
        <ele>515.4</ele>
        <time>2023-08-29T08:08:59Z</time>
      </trkpt>
      <trkpt lat="45.43959" lon="5.41905">
        <ele>515.4</ele>
        <time>2023-08-29T08:09:00Z</time>
      </trkpt>
      <trkpt lat="45.43961" lon="5.41897">
        <ele>515.4</ele>
        <time>2023-08-29T08:09:01Z</time>
      </trkpt>
      <trkpt lat="45.43962" lon="5.41888">
        <ele>515.4</ele>
        <time>2023-08-29T08:09:02Z</time>
      </trkpt>
      <trkpt lat="45.43964" lon="5.4188">
        <ele>515.4</ele>
        <time>2023-08-29T08:09:03Z</time>
      </trkpt>
      <trkpt lat="45.43965" lon="5.41872">
        <ele>515.4</ele>
        <time>2023-08-29T08:09:04Z</time>
      </trkpt>
      <trkpt lat="45.43967" lon="5.41865">
        <ele>515.4</ele>
        <time>2023-08-29T08:09:05Z</time>
      </trkpt>
      <trkpt lat="45.43968" lon="5.41857">
        <ele>515.4</ele>
        <time>2023-08-29T08:09:06Z</time>
      </trkpt>
      <trkpt lat="45.43969" lon="5.41849">
        <ele>515.4</ele>
        <time>2023-08-29T08:09:07Z</time>
      </trkpt>
      <trkpt lat="45.4397" lon="5.41842">
        <ele>515.2</ele>
        <time>2023-08-29T08:09:08Z</time>
      </trkpt>
      <trkpt lat="45.4397" lon="5.41834">
        <ele>515.2</ele>
        <time>2023-08-29T08:09:09Z</time>
      </trkpt>
      <trkpt lat="45.4397" lon="5.41826">
        <ele>515.2</ele>
        <time>2023-08-29T08:09:10Z</time>
      </trkpt>
      <trkpt lat="45.4397" lon="5.41818">
        <ele>515.2</ele>
        <time>2023-08-29T08:09:11Z</time>
      </trkpt>
      <trkpt lat="45.43968" lon="5.41811">
        <ele>515.2</ele>
        <time>2023-08-29T08:09:12Z</time>
      </trkpt>
      <trkpt lat="45.43967" lon="5.41803">
        <ele>515.2</ele>
        <time>2023-08-29T08:09:13Z</time>
      </trkpt>
      <trkpt lat="45.43965" lon="5.41795">
        <ele>515.2</ele>
        <time>2023-08-29T08:09:14Z</time>
      </trkpt>
      <trkpt lat="45.43963" lon="5.41788">
        <ele>515.2</ele>
        <time>2023-08-29T08:09:15Z</time>
      </trkpt>
      <trkpt lat="45.43961" lon="5.41781">
        <ele>515.2</ele>
        <time>2023-08-29T08:09:16Z</time>
      </trkpt>
      <trkpt lat="45.4396" lon="5.41774">
        <ele>515.2</ele>
        <time>2023-08-29T08:09:17Z</time>
      </trkpt>
      <trkpt lat="45.43958" lon="5.41768">
        <ele>515.2</ele>
        <time>2023-08-29T08:09:18Z</time>
      </trkpt>
      <trkpt lat="45.43957" lon="5.41761">
        <ele>515.4</ele>
        <time>2023-08-29T08:09:19Z</time>
      </trkpt>
      <trkpt lat="45.43955" lon="5.41754">
        <ele>515.6</ele>
        <time>2023-08-29T08:09:20Z</time>
      </trkpt>
      <trkpt lat="45.43953" lon="5.41747">
        <ele>515.6</ele>
        <time>2023-08-29T08:09:21Z</time>
      </trkpt>
      <trkpt lat="45.4395" lon="5.4174">
        <ele>515.6</ele>
        <time>2023-08-29T08:09:22Z</time>
      </trkpt>
      <trkpt lat="45.43948" lon="5.41733">
        <ele>515.8</ele>
        <time>2023-08-29T08:09:23Z</time>
      </trkpt>
      <trkpt lat="45.43945" lon="5.41727">
        <ele>516</ele>
        <time>2023-08-29T08:09:24Z</time>
      </trkpt>
      <trkpt lat="45.43943" lon="5.41721">
        <ele>516</ele>
        <time>2023-08-29T08:09:25Z</time>
      </trkpt>
      <trkpt lat="45.4394" lon="5.41715">
        <ele>516.4</ele>
        <time>2023-08-29T08:09:26Z</time>
      </trkpt>
      <trkpt lat="45.43938" lon="5.4171">
        <ele>516.6</ele>
        <time>2023-08-29T08:09:27Z</time>
      </trkpt>
      <trkpt lat="45.43935" lon="5.41704">
        <ele>517</ele>
        <time>2023-08-29T08:09:28Z</time>
      </trkpt>
      <trkpt lat="45.43933" lon="5.41698">
        <ele>517</ele>
        <time>2023-08-29T08:09:29Z</time>
      </trkpt>
      <trkpt lat="45.43929" lon="5.41693">
        <ele>517.4</ele>
        <time>2023-08-29T08:09:30Z</time>
      </trkpt>
      <trkpt lat="45.43926" lon="5.41687">
        <ele>517.8</ele>
        <time>2023-08-29T08:09:31Z</time>
      </trkpt>
      <trkpt lat="45.43923" lon="5.41681">
        <ele>518</ele>
        <time>2023-08-29T08:09:32Z</time>
      </trkpt>
      <trkpt lat="45.4392" lon="5.41676">
        <ele>518</ele>
        <time>2023-08-29T08:09:33Z</time>
      </trkpt>
      <trkpt lat="45.43916" lon="5.4167">
        <ele>518</ele>
        <time>2023-08-29T08:09:34Z</time>
      </trkpt>
      <trkpt lat="45.43911" lon="5.41666">
        <ele>518</ele>
        <time>2023-08-29T08:09:35Z</time>
      </trkpt>
      <trkpt lat="45.43907" lon="5.41662">
        <ele>518</ele>
        <time>2023-08-29T08:09:36Z</time>
      </trkpt>
      <trkpt lat="45.43902" lon="5.41659">
        <ele>518</ele>
        <time>2023-08-29T08:09:37Z</time>
      </trkpt>
      <trkpt lat="45.43897" lon="5.41656">
        <ele>518</ele>
        <time>2023-08-29T08:09:38Z</time>
      </trkpt>
      <trkpt lat="45.43891" lon="5.41654">
        <ele>518</ele>
        <time>2023-08-29T08:09:39Z</time>
      </trkpt>
      <trkpt lat="45.43885" lon="5.41652">
        <ele>518</ele>
        <time>2023-08-29T08:09:40Z</time>
      </trkpt>
      <trkpt lat="45.43879" lon="5.41651">
        <ele>517.8</ele>
        <time>2023-08-29T08:09:41Z</time>
      </trkpt>
      <trkpt lat="45.43873" lon="5.41651">
        <ele>517.6</ele>
        <time>2023-08-29T08:09:42Z</time>
      </trkpt>
      <trkpt lat="45.43866" lon="5.4165">
        <ele>517.6</ele>
        <time>2023-08-29T08:09:43Z</time>
      </trkpt>
      <trkpt lat="45.4386" lon="5.4165">
        <ele>517.4</ele>
        <time>2023-08-29T08:09:44Z</time>
      </trkpt>
      <trkpt lat="45.43852" lon="5.41649">
        <ele>516.8</ele>
        <time>2023-08-29T08:09:45Z</time>
      </trkpt>
      <trkpt lat="45.43845" lon="5.4165">
        <ele>516.6</ele>
        <time>2023-08-29T08:09:46Z</time>
      </trkpt>
      <trkpt lat="45.43837" lon="5.4165">
        <ele>515.6</ele>
        <time>2023-08-29T08:09:47Z</time>
      </trkpt>
      <trkpt lat="45.43829" lon="5.41651">
        <ele>515.4</ele>
        <time>2023-08-29T08:09:48Z</time>
      </trkpt>
      <trkpt lat="45.4382" lon="5.4165">
        <ele>514.4</ele>
        <time>2023-08-29T08:09:49Z</time>
      </trkpt>
      <trkpt lat="45.43812" lon="5.41648">
        <ele>513.6</ele>
        <time>2023-08-29T08:09:50Z</time>
      </trkpt>
      <trkpt lat="45.43803" lon="5.41646">
        <ele>513.6</ele>
        <time>2023-08-29T08:09:51Z</time>
      </trkpt>
      <trkpt lat="45.43795" lon="5.41642">
        <ele>513</ele>
        <time>2023-08-29T08:09:52Z</time>
      </trkpt>
      <trkpt lat="45.43787" lon="5.41637">
        <ele>512.4</ele>
        <time>2023-08-29T08:09:53Z</time>
      </trkpt>
      <trkpt lat="45.43779" lon="5.41631">
        <ele>511.8</ele>
        <time>2023-08-29T08:09:54Z</time>
      </trkpt>
      <trkpt lat="45.43772" lon="5.41624">
        <ele>510.6</ele>
        <time>2023-08-29T08:09:55Z</time>
      </trkpt>
      <trkpt lat="45.43764" lon="5.41617">
        <ele>510.2</ele>
        <time>2023-08-29T08:09:56Z</time>
      </trkpt>
      <trkpt lat="45.43756" lon="5.41611">
        <ele>510.2</ele>
        <time>2023-08-29T08:09:57Z</time>
      </trkpt>
      <trkpt lat="45.43747" lon="5.41604">
        <ele>510</ele>
        <time>2023-08-29T08:09:58Z</time>
      </trkpt>
      <trkpt lat="45.43737" lon="5.41596">
        <ele>510</ele>
        <time>2023-08-29T08:09:59Z</time>
      </trkpt>
      <trkpt lat="45.43728" lon="5.41587">
        <ele>509.8</ele>
        <time>2023-08-29T08:10:00Z</time>
      </trkpt>
      <trkpt lat="45.43718" lon="5.4158">
        <ele>508.8</ele>
        <time>2023-08-29T08:10:01Z</time>
      </trkpt>
      <trkpt lat="45.43708" lon="5.41574">
        <ele>508.2</ele>
        <time>2023-08-29T08:10:02Z</time>
      </trkpt>
      <trkpt lat="45.43698" lon="5.4157">
        <ele>507.8</ele>
        <time>2023-08-29T08:10:03Z</time>
      </trkpt>
      <trkpt lat="45.43688" lon="5.41567">
        <ele>506.2</ele>
        <time>2023-08-29T08:10:04Z</time>
      </trkpt>
      <trkpt lat="45.43677" lon="5.41564">
        <ele>505.2</ele>
        <time>2023-08-29T08:10:05Z</time>
      </trkpt>
      <trkpt lat="45.43667" lon="5.4156">
        <ele>504</ele>
        <time>2023-08-29T08:10:06Z</time>
      </trkpt>
      <trkpt lat="45.43657" lon="5.41555">
        <ele>503.4</ele>
        <time>2023-08-29T08:10:07Z</time>
      </trkpt>
      <trkpt lat="45.43647" lon="5.4155">
        <ele>502.6</ele>
        <time>2023-08-29T08:10:08Z</time>
      </trkpt>
      <trkpt lat="45.43638" lon="5.41543">
        <ele>502</ele>
        <time>2023-08-29T08:10:09Z</time>
      </trkpt>
      <trkpt lat="45.4363" lon="5.41535">
        <ele>500.8</ele>
        <time>2023-08-29T08:10:10Z</time>
      </trkpt>
      <trkpt lat="45.43622" lon="5.41527">
        <ele>500.8</ele>
        <time>2023-08-29T08:10:11Z</time>
      </trkpt>
      <trkpt lat="45.43615" lon="5.41519">
        <ele>500.4</ele>
        <time>2023-08-29T08:10:12Z</time>
      </trkpt>
      <trkpt lat="45.43608" lon="5.4151">
        <ele>500.4</ele>
        <time>2023-08-29T08:10:13Z</time>
      </trkpt>
      <trkpt lat="45.436" lon="5.41503">
        <ele>500.4</ele>
        <time>2023-08-29T08:10:14Z</time>
      </trkpt>
      <trkpt lat="45.43593" lon="5.41495">
        <ele>500.4</ele>
        <time>2023-08-29T08:10:15Z</time>
      </trkpt>
      <trkpt lat="45.43587" lon="5.41488">
        <ele>500.6</ele>
        <time>2023-08-29T08:10:16Z</time>
      </trkpt>
      <trkpt lat="45.4358" lon="5.4148">
        <ele>501.2</ele>
        <time>2023-08-29T08:10:17Z</time>
      </trkpt>
      <trkpt lat="45.43574" lon="5.41471">
        <ele>501.8</ele>
        <time>2023-08-29T08:10:18Z</time>
      </trkpt>
      <trkpt lat="45.43569" lon="5.41461">
        <ele>502</ele>
        <time>2023-08-29T08:10:19Z</time>
      </trkpt>
      <trkpt lat="45.43565" lon="5.41452">
        <ele>502.2</ele>
        <time>2023-08-29T08:10:20Z</time>
      </trkpt>
      <trkpt lat="45.43562" lon="5.41442">
        <ele>502.2</ele>
        <time>2023-08-29T08:10:21Z</time>
      </trkpt>
      <trkpt lat="45.43558" lon="5.41431">
        <ele>502.4</ele>
        <time>2023-08-29T08:10:22Z</time>
      </trkpt>
      <trkpt lat="45.43555" lon="5.41422">
        <ele>502.4</ele>
        <time>2023-08-29T08:10:23Z</time>
      </trkpt>
      <trkpt lat="45.43553" lon="5.41412">
        <ele>502.4</ele>
        <time>2023-08-29T08:10:24Z</time>
      </trkpt>
      <trkpt lat="45.4355" lon="5.41402">
        <ele>502.4</ele>
        <time>2023-08-29T08:10:25Z</time>
      </trkpt>
      <trkpt lat="45.43547" lon="5.41393">
        <ele>502.4</ele>
        <time>2023-08-29T08:10:26Z</time>
      </trkpt>
      <trkpt lat="45.43544" lon="5.41384">
        <ele>502.2</ele>
        <time>2023-08-29T08:10:27Z</time>
      </trkpt>
      <trkpt lat="45.43541" lon="5.41375">
        <ele>502.2</ele>
        <time>2023-08-29T08:10:28Z</time>
      </trkpt>
      <trkpt lat="45.43538" lon="5.41367">
        <ele>502</ele>
        <time>2023-08-29T08:10:29Z</time>
      </trkpt>
      <trkpt lat="45.43535" lon="5.41359">
        <ele>502</ele>
        <time>2023-08-29T08:10:30Z</time>
      </trkpt>
      <trkpt lat="45.43532" lon="5.41351">
        <ele>502</ele>
        <time>2023-08-29T08:10:31Z</time>
      </trkpt>
      <trkpt lat="45.4353" lon="5.41343">
        <ele>502</ele>
        <time>2023-08-29T08:10:32Z</time>
      </trkpt>
      <trkpt lat="45.43526" lon="5.41336">
        <ele>502</ele>
        <time>2023-08-29T08:10:33Z</time>
      </trkpt>
      <trkpt lat="45.43523" lon="5.41328">
        <ele>502</ele>
        <time>2023-08-29T08:10:34Z</time>
      </trkpt>
      <trkpt lat="45.4352" lon="5.4132">
        <ele>502.2</ele>
        <time>2023-08-29T08:10:35Z</time>
      </trkpt>
      <trkpt lat="45.43518" lon="5.41312">
        <ele>502.4</ele>
        <time>2023-08-29T08:10:36Z</time>
      </trkpt>
      <trkpt lat="45.43515" lon="5.41304">
        <ele>502.6</ele>
        <time>2023-08-29T08:10:37Z</time>
      </trkpt>
      <trkpt lat="45.43512" lon="5.41297">
        <ele>502.8</ele>
        <time>2023-08-29T08:10:38Z</time>
      </trkpt>
      <trkpt lat="45.4351" lon="5.4129">
        <ele>503</ele>
        <time>2023-08-29T08:10:39Z</time>
      </trkpt>
      <trkpt lat="45.43509" lon="5.41282">
        <ele>503.2</ele>
        <time>2023-08-29T08:10:40Z</time>
      </trkpt>
      <trkpt lat="45.43507" lon="5.41274">
        <ele>503.2</ele>
        <time>2023-08-29T08:10:41Z</time>
      </trkpt>
      <trkpt lat="45.43506" lon="5.41266">
        <ele>503.2</ele>
        <time>2023-08-29T08:10:42Z</time>
      </trkpt>
      <trkpt lat="45.43505" lon="5.41258">
        <ele>503.2</ele>
        <time>2023-08-29T08:10:43Z</time>
      </trkpt>
      <trkpt lat="45.43505" lon="5.4125">
        <ele>503.2</ele>
        <time>2023-08-29T08:10:44Z</time>
      </trkpt>
      <trkpt lat="45.43505" lon="5.41242">
        <ele>503.2</ele>
        <time>2023-08-29T08:10:45Z</time>
      </trkpt>
      <trkpt lat="45.43505" lon="5.41234">
        <ele>503.2</ele>
        <time>2023-08-29T08:10:46Z</time>
      </trkpt>
      <trkpt lat="45.43506" lon="5.41226">
        <ele>503.2</ele>
        <time>2023-08-29T08:10:47Z</time>
      </trkpt>
      <trkpt lat="45.43506" lon="5.41217">
        <ele>503.4</ele>
        <time>2023-08-29T08:10:48Z</time>
      </trkpt>
      <trkpt lat="45.43506" lon="5.41208">
        <ele>503.4</ele>
        <time>2023-08-29T08:10:49Z</time>
      </trkpt>
      <trkpt lat="45.43507" lon="5.41198">
        <ele>503.4</ele>
        <time>2023-08-29T08:10:50Z</time>
      </trkpt>
      <trkpt lat="45.43507" lon="5.41188">
        <ele>503.4</ele>
        <time>2023-08-29T08:10:51Z</time>
      </trkpt>
      <trkpt lat="45.43508" lon="5.41179">
        <ele>503.4</ele>
        <time>2023-08-29T08:10:52Z</time>
      </trkpt>
      <trkpt lat="45.43509" lon="5.41169">
        <ele>503.2</ele>
        <time>2023-08-29T08:10:53Z</time>
      </trkpt>
      <trkpt lat="45.43508" lon="5.41159">
        <ele>503</ele>
        <time>2023-08-29T08:10:54Z</time>
      </trkpt>
      <trkpt lat="45.43507" lon="5.41149">
        <ele>503</ele>
        <time>2023-08-29T08:10:55Z</time>
      </trkpt>
      <trkpt lat="45.43505" lon="5.4114">
        <ele>502.8</ele>
        <time>2023-08-29T08:10:56Z</time>
      </trkpt>
      <trkpt lat="45.43502" lon="5.41131">
        <ele>502.6</ele>
        <time>2023-08-29T08:10:57Z</time>
      </trkpt>
      <trkpt lat="45.43498" lon="5.41123">
        <ele>502.6</ele>
        <time>2023-08-29T08:10:58Z</time>
      </trkpt>
      <trkpt lat="45.43494" lon="5.41115">
        <ele>502.4</ele>
        <time>2023-08-29T08:10:59Z</time>
      </trkpt>
      <trkpt lat="45.4349" lon="5.41108">
        <ele>502.4</ele>
        <time>2023-08-29T08:11:00Z</time>
      </trkpt>
      <trkpt lat="45.43486" lon="5.411">
        <ele>502</ele>
        <time>2023-08-29T08:11:01Z</time>
      </trkpt>
      <trkpt lat="45.43481" lon="5.41092">
        <ele>501.8</ele>
        <time>2023-08-29T08:11:02Z</time>
      </trkpt>
      <trkpt lat="45.43477" lon="5.41084">
        <ele>501.8</ele>
        <time>2023-08-29T08:11:03Z</time>
      </trkpt>
      <trkpt lat="45.43473" lon="5.41076">
        <ele>501.8</ele>
        <time>2023-08-29T08:11:04Z</time>
      </trkpt>
      <trkpt lat="45.43469" lon="5.4107">
        <ele>501.8</ele>
        <time>2023-08-29T08:11:05Z</time>
      </trkpt>
      <trkpt lat="45.43465" lon="5.41063">
        <ele>502</ele>
        <time>2023-08-29T08:11:06Z</time>
      </trkpt>
      <trkpt lat="45.43461" lon="5.41055">
        <ele>502</ele>
        <time>2023-08-29T08:11:07Z</time>
      </trkpt>
      <trkpt lat="45.43457" lon="5.41048">
        <ele>502</ele>
        <time>2023-08-29T08:11:08Z</time>
      </trkpt>
      <trkpt lat="45.43453" lon="5.4104">
        <ele>502</ele>
        <time>2023-08-29T08:11:09Z</time>
      </trkpt>
      <trkpt lat="45.43448" lon="5.41034">
        <ele>502</ele>
        <time>2023-08-29T08:11:10Z</time>
      </trkpt>
      <trkpt lat="45.43443" lon="5.41029">
        <ele>502</ele>
        <time>2023-08-29T08:11:11Z</time>
      </trkpt>
      <trkpt lat="45.43438" lon="5.41023">
        <ele>502</ele>
        <time>2023-08-29T08:11:12Z</time>
      </trkpt>
      <trkpt lat="45.43433" lon="5.41018">
        <ele>502</ele>
        <time>2023-08-29T08:11:13Z</time>
      </trkpt>
      <trkpt lat="45.43428" lon="5.41012">
        <ele>502</ele>
        <time>2023-08-29T08:11:14Z</time>
      </trkpt>
      <trkpt lat="45.43423" lon="5.41007">
        <ele>502</ele>
        <time>2023-08-29T08:11:15Z</time>
      </trkpt>
      <trkpt lat="45.43417" lon="5.41003">
        <ele>502</ele>
        <time>2023-08-29T08:11:16Z</time>
      </trkpt>
      <trkpt lat="45.43411" lon="5.40999">
        <ele>502.2</ele>
        <time>2023-08-29T08:11:17Z</time>
      </trkpt>
      <trkpt lat="45.43405" lon="5.40995">
        <ele>502.2</ele>
        <time>2023-08-29T08:11:18Z</time>
      </trkpt>
      <trkpt lat="45.43399" lon="5.40992">
        <ele>502.2</ele>
        <time>2023-08-29T08:11:19Z</time>
      </trkpt>
      <trkpt lat="45.43392" lon="5.4099">
        <ele>502.2</ele>
        <time>2023-08-29T08:11:20Z</time>
      </trkpt>
      <trkpt lat="45.43386" lon="5.4099">
        <ele>502.2</ele>
        <time>2023-08-29T08:11:21Z</time>
      </trkpt>
      <trkpt lat="45.43378" lon="5.4099">
        <ele>502.2</ele>
        <time>2023-08-29T08:11:22Z</time>
      </trkpt>
      <trkpt lat="45.43372" lon="5.4099">
        <ele>502.2</ele>
        <time>2023-08-29T08:11:23Z</time>
      </trkpt>
      <trkpt lat="45.43365" lon="5.40991">
        <ele>502.4</ele>
        <time>2023-08-29T08:11:24Z</time>
      </trkpt>
      <trkpt lat="45.43359" lon="5.40994">
        <ele>502.6</ele>
        <time>2023-08-29T08:11:25Z</time>
      </trkpt>
      <trkpt lat="45.43353" lon="5.40996">
        <ele>502.6</ele>
        <time>2023-08-29T08:11:26Z</time>
      </trkpt>
      <trkpt lat="45.43346" lon="5.40999">
        <ele>502.8</ele>
        <time>2023-08-29T08:11:27Z</time>
      </trkpt>
      <trkpt lat="45.4334" lon="5.41002">
        <ele>502.8</ele>
        <time>2023-08-29T08:11:28Z</time>
      </trkpt>
      <trkpt lat="45.43335" lon="5.41004">
        <ele>502.8</ele>
        <time>2023-08-29T08:11:29Z</time>
      </trkpt>
      <trkpt lat="45.43331" lon="5.41006">
        <ele>502.8</ele>
        <time>2023-08-29T08:11:30Z</time>
      </trkpt>
      <trkpt lat="45.43326" lon="5.41008">
        <ele>503</ele>
        <time>2023-08-29T08:11:31Z</time>
      </trkpt>
      <trkpt lat="45.43321" lon="5.4101">
        <ele>503.4</ele>
        <time>2023-08-29T08:11:32Z</time>
      </trkpt>
      <trkpt lat="45.43317" lon="5.41012">
        <ele>503.6</ele>
        <time>2023-08-29T08:11:33Z</time>
      </trkpt>
      <trkpt lat="45.43312" lon="5.41013">
        <ele>504</ele>
        <time>2023-08-29T08:11:34Z</time>
      </trkpt>
      <trkpt lat="45.43308" lon="5.41013">
        <ele>504.4</ele>
        <time>2023-08-29T08:11:35Z</time>
      </trkpt>
      <trkpt lat="45.43303" lon="5.41015">
        <ele>504.8</ele>
        <time>2023-08-29T08:11:36Z</time>
      </trkpt>
      <trkpt lat="45.43299" lon="5.41017">
        <ele>505</ele>
        <time>2023-08-29T08:11:37Z</time>
      </trkpt>
      <trkpt lat="45.43296" lon="5.41018">
        <ele>505.4</ele>
        <time>2023-08-29T08:11:38Z</time>
      </trkpt>
      <trkpt lat="45.43293" lon="5.41019">
        <ele>505.8</ele>
        <time>2023-08-29T08:11:39Z</time>
      </trkpt>
      <trkpt lat="45.4329" lon="5.41019">
        <ele>506.2</ele>
        <time>2023-08-29T08:11:40Z</time>
      </trkpt>
      <trkpt lat="45.43287" lon="5.4102">
        <ele>506.6</ele>
        <time>2023-08-29T08:11:41Z</time>
      </trkpt>
      <trkpt lat="45.43284" lon="5.41021">
        <ele>506.8</ele>
        <time>2023-08-29T08:11:42Z</time>
      </trkpt>
      <trkpt lat="45.43281" lon="5.41022">
        <ele>507</ele>
        <time>2023-08-29T08:11:43Z</time>
      </trkpt>
      <trkpt lat="45.43278" lon="5.41022">
        <ele>507.4</ele>
        <time>2023-08-29T08:11:44Z</time>
      </trkpt>
      <trkpt lat="45.43275" lon="5.41023">
        <ele>507.4</ele>
        <time>2023-08-29T08:11:45Z</time>
      </trkpt>
      <trkpt lat="45.43272" lon="5.41024">
        <ele>507.8</ele>
        <time>2023-08-29T08:11:46Z</time>
      </trkpt>
      <trkpt lat="45.43269" lon="5.41024">
        <ele>508</ele>
        <time>2023-08-29T08:11:47Z</time>
      </trkpt>
      <trkpt lat="45.43266" lon="5.41025">
        <ele>508.2</ele>
        <time>2023-08-29T08:11:48Z</time>
      </trkpt>
      <trkpt lat="45.43262" lon="5.41025">
        <ele>508.6</ele>
        <time>2023-08-29T08:11:49Z</time>
      </trkpt>
      <trkpt lat="45.43258" lon="5.41025">
        <ele>508.8</ele>
        <time>2023-08-29T08:11:50Z</time>
      </trkpt>
      <trkpt lat="45.43255" lon="5.41024">
        <ele>509.2</ele>
        <time>2023-08-29T08:11:51Z</time>
      </trkpt>
      <trkpt lat="45.43252" lon="5.41023">
        <ele>509.6</ele>
        <time>2023-08-29T08:11:52Z</time>
      </trkpt>
      <trkpt lat="45.43249" lon="5.41022">
        <ele>510</ele>
        <time>2023-08-29T08:11:53Z</time>
      </trkpt>
      <trkpt lat="45.43247" lon="5.4102">
        <ele>510.2</ele>
        <time>2023-08-29T08:11:54Z</time>
      </trkpt>
      <trkpt lat="45.43244" lon="5.41019">
        <ele>510.4</ele>
        <time>2023-08-29T08:11:55Z</time>
      </trkpt>
      <trkpt lat="45.43241" lon="5.41016">
        <ele>510.6</ele>
        <time>2023-08-29T08:11:56Z</time>
      </trkpt>
      <trkpt lat="45.43238" lon="5.41014">
        <ele>510.8</ele>
        <time>2023-08-29T08:11:57Z</time>
      </trkpt>
      <trkpt lat="45.43235" lon="5.41012">
        <ele>511.2</ele>
        <time>2023-08-29T08:11:58Z</time>
      </trkpt>
      <trkpt lat="45.43232" lon="5.41011">
        <ele>511.4</ele>
        <time>2023-08-29T08:11:59Z</time>
      </trkpt>
      <trkpt lat="45.43229" lon="5.41009">
        <ele>511.6</ele>
        <time>2023-08-29T08:12:00Z</time>
      </trkpt>
      <trkpt lat="45.43227" lon="5.41006">
        <ele>512</ele>
        <time>2023-08-29T08:12:01Z</time>
      </trkpt>
      <trkpt lat="45.43224" lon="5.41004">
        <ele>512</ele>
        <time>2023-08-29T08:12:02Z</time>
      </trkpt>
      <trkpt lat="45.43221" lon="5.41002">
        <ele>512.2</ele>
        <time>2023-08-29T08:12:03Z</time>
      </trkpt>
      <trkpt lat="45.43219" lon="5.40999">
        <ele>512.4</ele>
        <time>2023-08-29T08:12:04Z</time>
      </trkpt>
      <trkpt lat="45.43216" lon="5.40996">
        <ele>512.6</ele>
        <time>2023-08-29T08:12:05Z</time>
      </trkpt>
      <trkpt lat="45.43214" lon="5.40993">
        <ele>512.6</ele>
        <time>2023-08-29T08:12:06Z</time>
      </trkpt>
      <trkpt lat="45.43211" lon="5.40989">
        <ele>512.8</ele>
        <time>2023-08-29T08:12:07Z</time>
      </trkpt>
      <trkpt lat="45.43209" lon="5.40986">
        <ele>512.8</ele>
        <time>2023-08-29T08:12:08Z</time>
      </trkpt>
      <trkpt lat="45.43207" lon="5.40983">
        <ele>512.8</ele>
        <time>2023-08-29T08:12:09Z</time>
      </trkpt>
      <trkpt lat="45.43205" lon="5.4098">
        <ele>513</ele>
        <time>2023-08-29T08:12:10Z</time>
      </trkpt>
      <trkpt lat="45.43203" lon="5.40976">
        <ele>513.2</ele>
        <time>2023-08-29T08:12:11Z</time>
      </trkpt>
      <trkpt lat="45.43201" lon="5.40971">
        <ele>513.2</ele>
        <time>2023-08-29T08:12:12Z</time>
      </trkpt>
      <trkpt lat="45.43199" lon="5.40967">
        <ele>513.4</ele>
        <time>2023-08-29T08:12:13Z</time>
      </trkpt>
      <trkpt lat="45.43197" lon="5.40963">
        <ele>513.6</ele>
        <time>2023-08-29T08:12:14Z</time>
      </trkpt>
      <trkpt lat="45.43195" lon="5.40959">
        <ele>513.6</ele>
        <time>2023-08-29T08:12:15Z</time>
      </trkpt>
      <trkpt lat="45.43193" lon="5.40955">
        <ele>513.6</ele>
        <time>2023-08-29T08:12:16Z</time>
      </trkpt>
      <trkpt lat="45.43191" lon="5.4095">
        <ele>513.8</ele>
        <time>2023-08-29T08:12:17Z</time>
      </trkpt>
      <trkpt lat="45.43188" lon="5.40947">
        <ele>514</ele>
        <time>2023-08-29T08:12:18Z</time>
      </trkpt>
      <trkpt lat="45.43186" lon="5.40944">
        <ele>514.2</ele>
        <time>2023-08-29T08:12:19Z</time>
      </trkpt>
      <trkpt lat="45.43184" lon="5.4094">
        <ele>514.4</ele>
        <time>2023-08-29T08:12:20Z</time>
      </trkpt>
      <trkpt lat="45.43181" lon="5.40935">
        <ele>514.4</ele>
        <time>2023-08-29T08:12:21Z</time>
      </trkpt>
      <trkpt lat="45.43179" lon="5.40931">
        <ele>514.6</ele>
        <time>2023-08-29T08:12:22Z</time>
      </trkpt>
      <trkpt lat="45.43176" lon="5.40927">
        <ele>514.6</ele>
        <time>2023-08-29T08:12:23Z</time>
      </trkpt>
      <trkpt lat="45.43173" lon="5.40923">
        <ele>514.8</ele>
        <time>2023-08-29T08:12:24Z</time>
      </trkpt>
      <trkpt lat="45.43171" lon="5.40919">
        <ele>514.8</ele>
        <time>2023-08-29T08:12:25Z</time>
      </trkpt>
      <trkpt lat="45.43168" lon="5.40916">
        <ele>514.8</ele>
        <time>2023-08-29T08:12:26Z</time>
      </trkpt>
      <trkpt lat="45.43165" lon="5.40912">
        <ele>514.8</ele>
        <time>2023-08-29T08:12:27Z</time>
      </trkpt>
      <trkpt lat="45.43161" lon="5.40909">
        <ele>515</ele>
        <time>2023-08-29T08:12:28Z</time>
      </trkpt>
      <trkpt lat="45.43158" lon="5.40906">
        <ele>515</ele>
        <time>2023-08-29T08:12:29Z</time>
      </trkpt>
      <trkpt lat="45.43155" lon="5.40902">
        <ele>515.2</ele>
        <time>2023-08-29T08:12:30Z</time>
      </trkpt>
      <trkpt lat="45.43153" lon="5.40899">
        <ele>515.4</ele>
        <time>2023-08-29T08:12:31Z</time>
      </trkpt>
      <trkpt lat="45.4315" lon="5.40895">
        <ele>515.4</ele>
        <time>2023-08-29T08:12:32Z</time>
      </trkpt>
      <trkpt lat="45.43146" lon="5.40892">
        <ele>515.4</ele>
        <time>2023-08-29T08:12:33Z</time>
      </trkpt>
      <trkpt lat="45.43143" lon="5.40889">
        <ele>515.6</ele>
        <time>2023-08-29T08:12:34Z</time>
      </trkpt>
      <trkpt lat="45.43141" lon="5.40886">
        <ele>515.6</ele>
        <time>2023-08-29T08:12:35Z</time>
      </trkpt>
      <trkpt lat="45.43138" lon="5.40883">
        <ele>515.6</ele>
        <time>2023-08-29T08:12:36Z</time>
      </trkpt>
      <trkpt lat="45.43136" lon="5.4088">
        <ele>515.6</ele>
        <time>2023-08-29T08:12:37Z</time>
      </trkpt>
      <trkpt lat="45.43133" lon="5.40876">
        <ele>515.8</ele>
        <time>2023-08-29T08:12:38Z</time>
      </trkpt>
      <trkpt lat="45.4313" lon="5.40874">
        <ele>515.8</ele>
        <time>2023-08-29T08:12:39Z</time>
      </trkpt>
      <trkpt lat="45.43127" lon="5.40871">
        <ele>516</ele>
        <time>2023-08-29T08:12:40Z</time>
      </trkpt>
      <trkpt lat="45.43124" lon="5.40867">
        <ele>516.2</ele>
        <time>2023-08-29T08:12:41Z</time>
      </trkpt>
      <trkpt lat="45.43121" lon="5.40865">
        <ele>516.4</ele>
        <time>2023-08-29T08:12:42Z</time>
      </trkpt>
      <trkpt lat="45.43119" lon="5.40862">
        <ele>516.6</ele>
        <time>2023-08-29T08:12:43Z</time>
      </trkpt>
      <trkpt lat="45.43116" lon="5.40859">
        <ele>516.8</ele>
        <time>2023-08-29T08:12:44Z</time>
      </trkpt>
      <trkpt lat="45.43113" lon="5.40857">
        <ele>517</ele>
        <time>2023-08-29T08:12:45Z</time>
      </trkpt>
      <trkpt lat="45.43109" lon="5.40855">
        <ele>517.2</ele>
        <time>2023-08-29T08:12:46Z</time>
      </trkpt>
      <trkpt lat="45.43106" lon="5.40853">
        <ele>517.4</ele>
        <time>2023-08-29T08:12:47Z</time>
      </trkpt>
      <trkpt lat="45.43102" lon="5.40851">
        <ele>517.6</ele>
        <time>2023-08-29T08:12:48Z</time>
      </trkpt>
      <trkpt lat="45.43099" lon="5.40849">
        <ele>517.8</ele>
        <time>2023-08-29T08:12:49Z</time>
      </trkpt>
      <trkpt lat="45.43095" lon="5.40847">
        <ele>517.8</ele>
        <time>2023-08-29T08:12:50Z</time>
      </trkpt>
      <trkpt lat="45.43092" lon="5.40847">
        <ele>518</ele>
        <time>2023-08-29T08:12:51Z</time>
      </trkpt>
      <trkpt lat="45.43089" lon="5.40847">
        <ele>518</ele>
        <time>2023-08-29T08:12:52Z</time>
      </trkpt>
      <trkpt lat="45.43087" lon="5.40848">
        <ele>518.4</ele>
        <time>2023-08-29T08:12:53Z</time>
      </trkpt>
      <trkpt lat="45.43084" lon="5.40849">
        <ele>518.8</ele>
        <time>2023-08-29T08:12:54Z</time>
      </trkpt>
      <trkpt lat="45.43081" lon="5.4085">
        <ele>519</ele>
        <time>2023-08-29T08:12:55Z</time>
      </trkpt>
      <trkpt lat="45.43078" lon="5.40851">
        <ele>519.2</ele>
        <time>2023-08-29T08:12:56Z</time>
      </trkpt>
      <trkpt lat="45.43076" lon="5.40853">
        <ele>519.2</ele>
        <time>2023-08-29T08:12:57Z</time>
      </trkpt>
      <trkpt lat="45.43073" lon="5.40854">
        <ele>519.6</ele>
        <time>2023-08-29T08:12:58Z</time>
      </trkpt>
      <trkpt lat="45.4307" lon="5.40855">
        <ele>519.8</ele>
        <time>2023-08-29T08:12:59Z</time>
      </trkpt>
      <trkpt lat="45.43068" lon="5.40856">
        <ele>520.2</ele>
        <time>2023-08-29T08:13:00Z</time>
      </trkpt>
      <trkpt lat="45.43065" lon="5.40857">
        <ele>520.2</ele>
        <time>2023-08-29T08:13:01Z</time>
      </trkpt>
      <trkpt lat="45.43063" lon="5.40858">
        <ele>520.4</ele>
        <time>2023-08-29T08:13:02Z</time>
      </trkpt>
      <trkpt lat="45.4306" lon="5.40859">
        <ele>520.6</ele>
        <time>2023-08-29T08:13:03Z</time>
      </trkpt>
      <trkpt lat="45.43057" lon="5.4086">
        <ele>520.8</ele>
        <time>2023-08-29T08:13:04Z</time>
      </trkpt>
      <trkpt lat="45.43055" lon="5.40862">
        <ele>521.2</ele>
        <time>2023-08-29T08:13:05Z</time>
      </trkpt>
      <trkpt lat="45.43052" lon="5.40862">
        <ele>521.4</ele>
        <time>2023-08-29T08:13:06Z</time>
      </trkpt>
      <trkpt lat="45.43049" lon="5.40863">
        <ele>521.6</ele>
        <time>2023-08-29T08:13:07Z</time>
      </trkpt>
      <trkpt lat="45.43046" lon="5.40863">
        <ele>522</ele>
        <time>2023-08-29T08:13:08Z</time>
      </trkpt>
      <trkpt lat="45.43043" lon="5.40863">
        <ele>522.2</ele>
        <time>2023-08-29T08:13:09Z</time>
      </trkpt>
      <trkpt lat="45.4304" lon="5.40863">
        <ele>522.4</ele>
        <time>2023-08-29T08:13:10Z</time>
      </trkpt>
      <trkpt lat="45.43037" lon="5.40862">
        <ele>522.8</ele>
        <time>2023-08-29T08:13:11Z</time>
      </trkpt>
      <trkpt lat="45.43034" lon="5.40863">
        <ele>523</ele>
        <time>2023-08-29T08:13:12Z</time>
      </trkpt>
      <trkpt lat="45.43031" lon="5.40863">
        <ele>523.2</ele>
        <time>2023-08-29T08:13:13Z</time>
      </trkpt>
      <trkpt lat="45.43029" lon="5.40863">
        <ele>523.4</ele>
        <time>2023-08-29T08:13:14Z</time>
      </trkpt>
      <trkpt lat="45.43025" lon="5.40863">
        <ele>523.6</ele>
        <time>2023-08-29T08:13:15Z</time>
      </trkpt>
      <trkpt lat="45.43022" lon="5.40863">
        <ele>523.8</ele>
        <time>2023-08-29T08:13:16Z</time>
      </trkpt>
      <trkpt lat="45.4302" lon="5.40863">
        <ele>524.2</ele>
        <time>2023-08-29T08:13:17Z</time>
      </trkpt>
      <trkpt lat="45.43017" lon="5.40862">
        <ele>524.2</ele>
        <time>2023-08-29T08:13:18Z</time>
      </trkpt>
      <trkpt lat="45.43014" lon="5.40862">
        <ele>524.6</ele>
        <time>2023-08-29T08:13:19Z</time>
      </trkpt>
      <trkpt lat="45.43012" lon="5.40861">
        <ele>524.8</ele>
        <time>2023-08-29T08:13:20Z</time>
      </trkpt>
      <trkpt lat="45.43009" lon="5.40861">
        <ele>525</ele>
        <time>2023-08-29T08:13:21Z</time>
      </trkpt>
      <trkpt lat="45.43006" lon="5.4086">
        <ele>525.2</ele>
        <time>2023-08-29T08:13:22Z</time>
      </trkpt>
      <trkpt lat="45.43003" lon="5.4086">
        <ele>525.4</ele>
        <time>2023-08-29T08:13:23Z</time>
      </trkpt>
      <trkpt lat="45.43" lon="5.40859">
        <ele>525.6</ele>
        <time>2023-08-29T08:13:24Z</time>
      </trkpt>
      <trkpt lat="45.42997" lon="5.40859">
        <ele>526</ele>
        <time>2023-08-29T08:13:25Z</time>
      </trkpt>
      <trkpt lat="45.42995" lon="5.40858">
        <ele>526.2</ele>
        <time>2023-08-29T08:13:26Z</time>
      </trkpt>
      <trkpt lat="45.42993" lon="5.40857">
        <ele>526.4</ele>
        <time>2023-08-29T08:13:27Z</time>
      </trkpt>
      <trkpt lat="45.4299" lon="5.40856">
        <ele>526.6</ele>
        <time>2023-08-29T08:13:28Z</time>
      </trkpt>
      <trkpt lat="45.42987" lon="5.40855">
        <ele>526.8</ele>
        <time>2023-08-29T08:13:29Z</time>
      </trkpt>
      <trkpt lat="45.42984" lon="5.40854">
        <ele>527</ele>
        <time>2023-08-29T08:13:30Z</time>
      </trkpt>
      <trkpt lat="45.42982" lon="5.40853">
        <ele>527.2</ele>
        <time>2023-08-29T08:13:31Z</time>
      </trkpt>
      <trkpt lat="45.42979" lon="5.40852">
        <ele>527.4</ele>
        <time>2023-08-29T08:13:32Z</time>
      </trkpt>
      <trkpt lat="45.42976" lon="5.4085">
        <ele>527.4</ele>
        <time>2023-08-29T08:13:33Z</time>
      </trkpt>
      <trkpt lat="45.42974" lon="5.40848">
        <ele>527.6</ele>
        <time>2023-08-29T08:13:34Z</time>
      </trkpt>
      <trkpt lat="45.42971" lon="5.40846">
        <ele>527.8</ele>
        <time>2023-08-29T08:13:35Z</time>
      </trkpt>
      <trkpt lat="45.42968" lon="5.40844">
        <ele>528</ele>
        <time>2023-08-29T08:13:36Z</time>
      </trkpt>
      <trkpt lat="45.42966" lon="5.40841">
        <ele>528.2</ele>
        <time>2023-08-29T08:13:37Z</time>
      </trkpt>
      <trkpt lat="45.42964" lon="5.40838">
        <ele>528.4</ele>
        <time>2023-08-29T08:13:38Z</time>
      </trkpt>
      <trkpt lat="45.42961" lon="5.40835">
        <ele>528.4</ele>
        <time>2023-08-29T08:13:39Z</time>
      </trkpt>
      <trkpt lat="45.42959" lon="5.40832">
        <ele>528.8</ele>
        <time>2023-08-29T08:13:40Z</time>
      </trkpt>
      <trkpt lat="45.42957" lon="5.40829">
        <ele>528.8</ele>
        <time>2023-08-29T08:13:41Z</time>
      </trkpt>
      <trkpt lat="45.42956" lon="5.40826">
        <ele>529</ele>
        <time>2023-08-29T08:13:42Z</time>
      </trkpt>
      <trkpt lat="45.42955" lon="5.40822">
        <ele>529.2</ele>
        <time>2023-08-29T08:13:43Z</time>
      </trkpt>
      <trkpt lat="45.42954" lon="5.40818">
        <ele>529.4</ele>
        <time>2023-08-29T08:13:44Z</time>
      </trkpt>
      <trkpt lat="45.42954" lon="5.40814">
        <ele>529.6</ele>
        <time>2023-08-29T08:13:45Z</time>
      </trkpt>
      <trkpt lat="45.42953" lon="5.40808">
        <ele>530</ele>
        <time>2023-08-29T08:13:46Z</time>
      </trkpt>
      <trkpt lat="45.42954" lon="5.40803">
        <ele>530.2</ele>
        <time>2023-08-29T08:13:47Z</time>
      </trkpt>
      <trkpt lat="45.42954" lon="5.40798">
        <ele>530.4</ele>
        <time>2023-08-29T08:13:48Z</time>
      </trkpt>
      <trkpt lat="45.42955" lon="5.40794">
        <ele>530.6</ele>
        <time>2023-08-29T08:13:49Z</time>
      </trkpt>
      <trkpt lat="45.42956" lon="5.40789">
        <ele>531</ele>
        <time>2023-08-29T08:13:50Z</time>
      </trkpt>
      <trkpt lat="45.42957" lon="5.40785">
        <ele>531.2</ele>
        <time>2023-08-29T08:13:51Z</time>
      </trkpt>
      <trkpt lat="45.42958" lon="5.40781">
        <ele>531.4</ele>
        <time>2023-08-29T08:13:52Z</time>
      </trkpt>
      <trkpt lat="45.42959" lon="5.40777">
        <ele>531.6</ele>
        <time>2023-08-29T08:13:53Z</time>
      </trkpt>
      <trkpt lat="45.4296" lon="5.40772">
        <ele>531.8</ele>
        <time>2023-08-29T08:13:54Z</time>
      </trkpt>
      <trkpt lat="45.42962" lon="5.40768">
        <ele>532.2</ele>
        <time>2023-08-29T08:13:55Z</time>
      </trkpt>
      <trkpt lat="45.42963" lon="5.40764">
        <ele>532.4</ele>
        <time>2023-08-29T08:13:56Z</time>
      </trkpt>
      <trkpt lat="45.42964" lon="5.40761">
        <ele>532.6</ele>
        <time>2023-08-29T08:13:57Z</time>
      </trkpt>
      <trkpt lat="45.42966" lon="5.40758">
        <ele>532.8</ele>
        <time>2023-08-29T08:13:58Z</time>
      </trkpt>
      <trkpt lat="45.42968" lon="5.40754">
        <ele>533</ele>
        <time>2023-08-29T08:13:59Z</time>
      </trkpt>
      <trkpt lat="45.42969" lon="5.4075">
        <ele>533.2</ele>
        <time>2023-08-29T08:14:00Z</time>
      </trkpt>
      <trkpt lat="45.42971" lon="5.40746">
        <ele>533.4</ele>
        <time>2023-08-29T08:14:01Z</time>
      </trkpt>
      <trkpt lat="45.42972" lon="5.40743">
        <ele>533.8</ele>
        <time>2023-08-29T08:14:02Z</time>
      </trkpt>
      <trkpt lat="45.42974" lon="5.40739">
        <ele>534</ele>
        <time>2023-08-29T08:14:03Z</time>
      </trkpt>
      <trkpt lat="45.42976" lon="5.40736">
        <ele>534</ele>
        <time>2023-08-29T08:14:04Z</time>
      </trkpt>
      <trkpt lat="45.42978" lon="5.40732">
        <ele>534.2</ele>
        <time>2023-08-29T08:14:05Z</time>
      </trkpt>
      <trkpt lat="45.4298" lon="5.40729">
        <ele>534.4</ele>
        <time>2023-08-29T08:14:06Z</time>
      </trkpt>
      <trkpt lat="45.42983" lon="5.40726">
        <ele>534.8</ele>
        <time>2023-08-29T08:14:07Z</time>
      </trkpt>
      <trkpt lat="45.42984" lon="5.40724">
        <ele>535</ele>
        <time>2023-08-29T08:14:08Z</time>
      </trkpt>
      <trkpt lat="45.42987" lon="5.40721">
        <ele>535</ele>
        <time>2023-08-29T08:14:09Z</time>
      </trkpt>
      <trkpt lat="45.42989" lon="5.40718">
        <ele>535.2</ele>
        <time>2023-08-29T08:14:10Z</time>
      </trkpt>
      <trkpt lat="45.42992" lon="5.40715">
        <ele>535.4</ele>
        <time>2023-08-29T08:14:11Z</time>
      </trkpt>
      <trkpt lat="45.42994" lon="5.40712">
        <ele>535.8</ele>
        <time>2023-08-29T08:14:12Z</time>
      </trkpt>
      <trkpt lat="45.42997" lon="5.40709">
        <ele>536</ele>
        <time>2023-08-29T08:14:13Z</time>
      </trkpt>
      <trkpt lat="45.42998" lon="5.40705">
        <ele>536</ele>
        <time>2023-08-29T08:14:14Z</time>
      </trkpt>
      <trkpt lat="45.43" lon="5.40701">
        <ele>536.2</ele>
        <time>2023-08-29T08:14:15Z</time>
      </trkpt>
      <trkpt lat="45.43001" lon="5.40696">
        <ele>536.4</ele>
        <time>2023-08-29T08:14:16Z</time>
      </trkpt>
      <trkpt lat="45.43002" lon="5.40691">
        <ele>536.8</ele>
        <time>2023-08-29T08:14:17Z</time>
      </trkpt>
      <trkpt lat="45.43002" lon="5.40686">
        <ele>536.8</ele>
        <time>2023-08-29T08:14:18Z</time>
      </trkpt>
      <trkpt lat="45.43002" lon="5.40682">
        <ele>537.2</ele>
        <time>2023-08-29T08:14:19Z</time>
      </trkpt>
      <trkpt lat="45.43002" lon="5.40678">
        <ele>537.2</ele>
        <time>2023-08-29T08:14:20Z</time>
      </trkpt>
      <trkpt lat="45.43001" lon="5.40675">
        <ele>537.6</ele>
        <time>2023-08-29T08:14:21Z</time>
      </trkpt>
      <trkpt lat="45.43" lon="5.40671">
        <ele>537.8</ele>
        <time>2023-08-29T08:14:22Z</time>
      </trkpt>
      <trkpt lat="45.42999" lon="5.40668">
        <ele>538</ele>
        <time>2023-08-29T08:14:23Z</time>
      </trkpt>
      <trkpt lat="45.42997" lon="5.40665">
        <ele>538.2</ele>
        <time>2023-08-29T08:14:24Z</time>
      </trkpt>
      <trkpt lat="45.42996" lon="5.40661">
        <ele>538.6</ele>
        <time>2023-08-29T08:14:25Z</time>
      </trkpt>
      <trkpt lat="45.42994" lon="5.40658">
        <ele>538.8</ele>
        <time>2023-08-29T08:14:26Z</time>
      </trkpt>
      <trkpt lat="45.42993" lon="5.40654">
        <ele>539.2</ele>
        <time>2023-08-29T08:14:27Z</time>
      </trkpt>
      <trkpt lat="45.42992" lon="5.40651">
        <ele>539.4</ele>
        <time>2023-08-29T08:14:28Z</time>
      </trkpt>
      <trkpt lat="45.4299" lon="5.40647">
        <ele>539.6</ele>
        <time>2023-08-29T08:14:29Z</time>
      </trkpt>
      <trkpt lat="45.42988" lon="5.40644">
        <ele>539.8</ele>
        <time>2023-08-29T08:14:30Z</time>
      </trkpt>
      <trkpt lat="45.42986" lon="5.40641">
        <ele>540.2</ele>
        <time>2023-08-29T08:14:31Z</time>
      </trkpt>
      <trkpt lat="45.42984" lon="5.40638">
        <ele>540.4</ele>
        <time>2023-08-29T08:14:32Z</time>
      </trkpt>
      <trkpt lat="45.42981" lon="5.40635">
        <ele>540.6</ele>
        <time>2023-08-29T08:14:33Z</time>
      </trkpt>
      <trkpt lat="45.42979" lon="5.40632">
        <ele>540.8</ele>
        <time>2023-08-29T08:14:34Z</time>
      </trkpt>
      <trkpt lat="45.42977" lon="5.40629">
        <ele>541</ele>
        <time>2023-08-29T08:14:35Z</time>
      </trkpt>
      <trkpt lat="45.42975" lon="5.40626">
        <ele>541.4</ele>
        <time>2023-08-29T08:14:36Z</time>
      </trkpt>
      <trkpt lat="45.42972" lon="5.40623">
        <ele>541.6</ele>
        <time>2023-08-29T08:14:37Z</time>
      </trkpt>
      <trkpt lat="45.4297" lon="5.40621">
        <ele>541.8</ele>
        <time>2023-08-29T08:14:38Z</time>
      </trkpt>
      <trkpt lat="45.42968" lon="5.40619">
        <ele>542</ele>
        <time>2023-08-29T08:14:39Z</time>
      </trkpt>
      <trkpt lat="45.42965" lon="5.40617">
        <ele>542.2</ele>
        <time>2023-08-29T08:14:40Z</time>
      </trkpt>
      <trkpt lat="45.42963" lon="5.40615">
        <ele>542.4</ele>
        <time>2023-08-29T08:14:41Z</time>
      </trkpt>
      <trkpt lat="45.4296" lon="5.40612">
        <ele>542.8</ele>
        <time>2023-08-29T08:14:42Z</time>
      </trkpt>
      <trkpt lat="45.42958" lon="5.40611">
        <ele>543</ele>
        <time>2023-08-29T08:14:43Z</time>
      </trkpt>
      <trkpt lat="45.42955" lon="5.40609">
        <ele>543.2</ele>
        <time>2023-08-29T08:14:44Z</time>
      </trkpt>
      <trkpt lat="45.42953" lon="5.40607">
        <ele>543.4</ele>
        <time>2023-08-29T08:14:45Z</time>
      </trkpt>
      <trkpt lat="45.42951" lon="5.40606">
        <ele>543.4</ele>
        <time>2023-08-29T08:14:46Z</time>
      </trkpt>
      <trkpt lat="45.42949" lon="5.40604">
        <ele>543.8</ele>
        <time>2023-08-29T08:14:47Z</time>
      </trkpt>
      <trkpt lat="45.42946" lon="5.40603">
        <ele>543.8</ele>
        <time>2023-08-29T08:14:48Z</time>
      </trkpt>
      <trkpt lat="45.42944" lon="5.40601">
        <ele>544</ele>
        <time>2023-08-29T08:14:49Z</time>
      </trkpt>
      <trkpt lat="45.42942" lon="5.406">
        <ele>544.2</ele>
        <time>2023-08-29T08:14:50Z</time>
      </trkpt>
      <trkpt lat="45.42939" lon="5.40598">
        <ele>544.6</ele>
        <time>2023-08-29T08:14:51Z</time>
      </trkpt>
      <trkpt lat="45.42937" lon="5.40597">
        <ele>544.6</ele>
        <time>2023-08-29T08:14:52Z</time>
      </trkpt>
      <trkpt lat="45.42934" lon="5.40595">
        <ele>545</ele>
        <time>2023-08-29T08:14:53Z</time>
      </trkpt>
      <trkpt lat="45.42932" lon="5.40593">
        <ele>545</ele>
        <time>2023-08-29T08:14:54Z</time>
      </trkpt>
      <trkpt lat="45.42929" lon="5.40591">
        <ele>545</ele>
        <time>2023-08-29T08:14:55Z</time>
      </trkpt>
      <trkpt lat="45.42927" lon="5.40589">
        <ele>545.4</ele>
        <time>2023-08-29T08:14:56Z</time>
      </trkpt>
      <trkpt lat="45.42924" lon="5.40587">
        <ele>545.6</ele>
        <time>2023-08-29T08:14:57Z</time>
      </trkpt>
      <trkpt lat="45.42921" lon="5.40586">
        <ele>545.8</ele>
        <time>2023-08-29T08:14:58Z</time>
      </trkpt>
      <trkpt lat="45.42918" lon="5.40584">
        <ele>545.8</ele>
        <time>2023-08-29T08:14:59Z</time>
      </trkpt>
      <trkpt lat="45.42916" lon="5.40583">
        <ele>546</ele>
        <time>2023-08-29T08:15:00Z</time>
      </trkpt>
      <trkpt lat="45.42913" lon="5.40582">
        <ele>546.4</ele>
        <time>2023-08-29T08:15:01Z</time>
      </trkpt>
      <trkpt lat="45.42911" lon="5.40581">
        <ele>546.6</ele>
        <time>2023-08-29T08:15:02Z</time>
      </trkpt>
      <trkpt lat="45.42908" lon="5.40579">
        <ele>546.8</ele>
        <time>2023-08-29T08:15:03Z</time>
      </trkpt>
      <trkpt lat="45.42906" lon="5.40577">
        <ele>547.2</ele>
        <time>2023-08-29T08:15:04Z</time>
      </trkpt>
      <trkpt lat="45.42904" lon="5.40575">
        <ele>547.4</ele>
        <time>2023-08-29T08:15:05Z</time>
      </trkpt>
      <trkpt lat="45.42901" lon="5.40573">
        <ele>547.4</ele>
        <time>2023-08-29T08:15:06Z</time>
      </trkpt>
      <trkpt lat="45.42898" lon="5.40572">
        <ele>548</ele>
        <time>2023-08-29T08:15:07Z</time>
      </trkpt>
      <trkpt lat="45.42895" lon="5.40571">
        <ele>548</ele>
        <time>2023-08-29T08:15:08Z</time>
      </trkpt>
      <trkpt lat="45.42891" lon="5.40569">
        <ele>548.2</ele>
        <time>2023-08-29T08:15:09Z</time>
      </trkpt>
      <trkpt lat="45.42889" lon="5.40568">
        <ele>548.6</ele>
        <time>2023-08-29T08:15:10Z</time>
      </trkpt>
      <trkpt lat="45.42886" lon="5.40566">
        <ele>548.6</ele>
        <time>2023-08-29T08:15:11Z</time>
      </trkpt>
      <trkpt lat="45.42883" lon="5.40565">
        <ele>548.8</ele>
        <time>2023-08-29T08:15:12Z</time>
      </trkpt>
      <trkpt lat="45.4288" lon="5.40564">
        <ele>549.2</ele>
        <time>2023-08-29T08:15:13Z</time>
      </trkpt>
      <trkpt lat="45.42877" lon="5.40563">
        <ele>549.2</ele>
        <time>2023-08-29T08:15:14Z</time>
      </trkpt>
      <trkpt lat="45.42874" lon="5.40562">
        <ele>549.4</ele>
        <time>2023-08-29T08:15:15Z</time>
      </trkpt>
      <trkpt lat="45.42871" lon="5.4056">
        <ele>549.6</ele>
        <time>2023-08-29T08:15:16Z</time>
      </trkpt>
      <trkpt lat="45.42869" lon="5.40558">
        <ele>550</ele>
        <time>2023-08-29T08:15:17Z</time>
      </trkpt>
      <trkpt lat="45.42866" lon="5.40556">
        <ele>550.2</ele>
        <time>2023-08-29T08:15:18Z</time>
      </trkpt>
      <trkpt lat="45.42863" lon="5.40554">
        <ele>550.2</ele>
        <time>2023-08-29T08:15:19Z</time>
      </trkpt>
      <trkpt lat="45.4286" lon="5.40553">
        <ele>550.4</ele>
        <time>2023-08-29T08:15:20Z</time>
      </trkpt>
      <trkpt lat="45.42858" lon="5.40551">
        <ele>550.6</ele>
        <time>2023-08-29T08:15:21Z</time>
      </trkpt>
      <trkpt lat="45.42855" lon="5.40549">
        <ele>550.6</ele>
        <time>2023-08-29T08:15:22Z</time>
      </trkpt>
      <trkpt lat="45.42852" lon="5.40547">
        <ele>550.8</ele>
        <time>2023-08-29T08:15:23Z</time>
      </trkpt>
      <trkpt lat="45.42849" lon="5.40546">
        <ele>551.2</ele>
        <time>2023-08-29T08:15:24Z</time>
      </trkpt>
      <trkpt lat="45.42846" lon="5.40544">
        <ele>551.2</ele>
        <time>2023-08-29T08:15:25Z</time>
      </trkpt>
      <trkpt lat="45.42844" lon="5.40542">
        <ele>551.4</ele>
        <time>2023-08-29T08:15:26Z</time>
      </trkpt>
      <trkpt lat="45.42841" lon="5.40541">
        <ele>551.4</ele>
        <time>2023-08-29T08:15:27Z</time>
      </trkpt>
      <trkpt lat="45.42838" lon="5.40539">
        <ele>551.8</ele>
        <time>2023-08-29T08:15:28Z</time>
      </trkpt>
      <trkpt lat="45.42836" lon="5.40537">
        <ele>552</ele>
        <time>2023-08-29T08:15:29Z</time>
      </trkpt>
      <trkpt lat="45.42833" lon="5.40535">
        <ele>552</ele>
        <time>2023-08-29T08:15:30Z</time>
      </trkpt>
      <trkpt lat="45.42829" lon="5.40534">
        <ele>552.2</ele>
        <time>2023-08-29T08:15:31Z</time>
      </trkpt>
      <trkpt lat="45.42827" lon="5.40532">
        <ele>552.6</ele>
        <time>2023-08-29T08:15:32Z</time>
      </trkpt>
      <trkpt lat="45.42824" lon="5.4053">
        <ele>552.8</ele>
        <time>2023-08-29T08:15:33Z</time>
      </trkpt>
      <trkpt lat="45.42822" lon="5.40528">
        <ele>553</ele>
        <time>2023-08-29T08:15:34Z</time>
      </trkpt>
      <trkpt lat="45.42819" lon="5.40525">
        <ele>553.2</ele>
        <time>2023-08-29T08:15:35Z</time>
      </trkpt>
      <trkpt lat="45.42817" lon="5.40522">
        <ele>553.4</ele>
        <time>2023-08-29T08:15:36Z</time>
      </trkpt>
      <trkpt lat="45.42814" lon="5.40519">
        <ele>553.4</ele>
        <time>2023-08-29T08:15:37Z</time>
      </trkpt>
      <trkpt lat="45.42812" lon="5.40515">
        <ele>553.6</ele>
        <time>2023-08-29T08:15:38Z</time>
      </trkpt>
      <trkpt lat="45.42811" lon="5.40512">
        <ele>554</ele>
        <time>2023-08-29T08:15:39Z</time>
      </trkpt>
      <trkpt lat="45.42809" lon="5.40508">
        <ele>554.2</ele>
        <time>2023-08-29T08:15:40Z</time>
      </trkpt>
      <trkpt lat="45.42807" lon="5.40505">
        <ele>554.2</ele>
        <time>2023-08-29T08:15:41Z</time>
      </trkpt>
      <trkpt lat="45.42805" lon="5.405">
        <ele>554.8</ele>
        <time>2023-08-29T08:15:42Z</time>
      </trkpt>
      <trkpt lat="45.42803" lon="5.40496">
        <ele>554.8</ele>
        <time>2023-08-29T08:15:43Z</time>
      </trkpt>
      <trkpt lat="45.42802" lon="5.40492">
        <ele>555</ele>
        <time>2023-08-29T08:15:44Z</time>
      </trkpt>
      <trkpt lat="45.428" lon="5.40488">
        <ele>555.2</ele>
        <time>2023-08-29T08:15:45Z</time>
      </trkpt>
      <trkpt lat="45.42799" lon="5.40483">
        <ele>555.2</ele>
        <time>2023-08-29T08:15:46Z</time>
      </trkpt>
      <trkpt lat="45.42797" lon="5.40478">
        <ele>555.4</ele>
        <time>2023-08-29T08:15:47Z</time>
      </trkpt>
      <trkpt lat="45.42795" lon="5.40473">
        <ele>555.4</ele>
        <time>2023-08-29T08:15:48Z</time>
      </trkpt>
      <trkpt lat="45.42794" lon="5.40467">
        <ele>555.4</ele>
        <time>2023-08-29T08:15:49Z</time>
      </trkpt>
      <trkpt lat="45.42792" lon="5.40462">
        <ele>555.4</ele>
        <time>2023-08-29T08:15:50Z</time>
      </trkpt>
      <trkpt lat="45.4279" lon="5.40457">
        <ele>555.6</ele>
        <time>2023-08-29T08:15:51Z</time>
      </trkpt>
      <trkpt lat="45.42787" lon="5.40451">
        <ele>555.6</ele>
        <time>2023-08-29T08:15:52Z</time>
      </trkpt>
      <trkpt lat="45.42785" lon="5.40445">
        <ele>555.6</ele>
        <time>2023-08-29T08:15:53Z</time>
      </trkpt>
      <trkpt lat="45.42782" lon="5.4044">
        <ele>555.8</ele>
        <time>2023-08-29T08:15:54Z</time>
      </trkpt>
      <trkpt lat="45.4278" lon="5.40435">
        <ele>555.8</ele>
        <time>2023-08-29T08:15:55Z</time>
      </trkpt>
      <trkpt lat="45.42778" lon="5.4043">
        <ele>556</ele>
        <time>2023-08-29T08:15:56Z</time>
      </trkpt>
      <trkpt lat="45.42776" lon="5.40424">
        <ele>556.2</ele>
        <time>2023-08-29T08:15:57Z</time>
      </trkpt>
      <trkpt lat="45.42774" lon="5.40418">
        <ele>556.2</ele>
        <time>2023-08-29T08:15:58Z</time>
      </trkpt>
      <trkpt lat="45.42772" lon="5.40412">
        <ele>556.2</ele>
        <time>2023-08-29T08:15:59Z</time>
      </trkpt>
      <trkpt lat="45.4277" lon="5.40405">
        <ele>556.2</ele>
        <time>2023-08-29T08:16:00Z</time>
      </trkpt>
      <trkpt lat="45.42767" lon="5.40398">
        <ele>556.2</ele>
        <time>2023-08-29T08:16:01Z</time>
      </trkpt>
      <trkpt lat="45.42764" lon="5.40391">
        <ele>556.2</ele>
        <time>2023-08-29T08:16:02Z</time>
      </trkpt>
      <trkpt lat="45.42762" lon="5.40384">
        <ele>556</ele>
        <time>2023-08-29T08:16:03Z</time>
      </trkpt>
      <trkpt lat="45.42759" lon="5.40378">
        <ele>556</ele>
        <time>2023-08-29T08:16:04Z</time>
      </trkpt>
      <trkpt lat="45.42755" lon="5.40371">
        <ele>556</ele>
        <time>2023-08-29T08:16:05Z</time>
      </trkpt>
      <trkpt lat="45.42753" lon="5.40363">
        <ele>555.8</ele>
        <time>2023-08-29T08:16:06Z</time>
      </trkpt>
      <trkpt lat="45.4275" lon="5.40356">
        <ele>555.8</ele>
        <time>2023-08-29T08:16:07Z</time>
      </trkpt>
      <trkpt lat="45.42747" lon="5.40349">
        <ele>555.8</ele>
        <time>2023-08-29T08:16:08Z</time>
      </trkpt>
      <trkpt lat="45.42745" lon="5.40342">
        <ele>555.6</ele>
        <time>2023-08-29T08:16:09Z</time>
      </trkpt>
      <trkpt lat="45.42742" lon="5.40335">
        <ele>555.6</ele>
        <time>2023-08-29T08:16:10Z</time>
      </trkpt>
      <trkpt lat="45.42739" lon="5.40329">
        <ele>555.4</ele>
        <time>2023-08-29T08:16:11Z</time>
      </trkpt>
      <trkpt lat="45.42736" lon="5.40322">
        <ele>555.4</ele>
        <time>2023-08-29T08:16:12Z</time>
      </trkpt>
      <trkpt lat="45.42733" lon="5.40315">
        <ele>555.2</ele>
        <time>2023-08-29T08:16:13Z</time>
      </trkpt>
      <trkpt lat="45.4273" lon="5.40309">
        <ele>555.2</ele>
        <time>2023-08-29T08:16:14Z</time>
      </trkpt>
      <trkpt lat="45.42728" lon="5.40302">
        <ele>555.2</ele>
        <time>2023-08-29T08:16:15Z</time>
      </trkpt>
      <trkpt lat="45.42725" lon="5.40295">
        <ele>555.2</ele>
        <time>2023-08-29T08:16:16Z</time>
      </trkpt>
      <trkpt lat="45.42723" lon="5.40287">
        <ele>555.2</ele>
        <time>2023-08-29T08:16:17Z</time>
      </trkpt>
      <trkpt lat="45.42722" lon="5.40278">
        <ele>555.2</ele>
        <time>2023-08-29T08:16:18Z</time>
      </trkpt>
      <trkpt lat="45.42721" lon="5.40269">
        <ele>555</ele>
        <time>2023-08-29T08:16:19Z</time>
      </trkpt>
      <trkpt lat="45.42721" lon="5.40261">
        <ele>555</ele>
        <time>2023-08-29T08:16:20Z</time>
      </trkpt>
      <trkpt lat="45.42722" lon="5.40251">
        <ele>554.6</ele>
        <time>2023-08-29T08:16:21Z</time>
      </trkpt>
      <trkpt lat="45.42724" lon="5.40243">
        <ele>554.6</ele>
        <time>2023-08-29T08:16:22Z</time>
      </trkpt>
      <trkpt lat="45.42727" lon="5.40235">
        <ele>554.4</ele>
        <time>2023-08-29T08:16:23Z</time>
      </trkpt>
      <trkpt lat="45.4273" lon="5.40228">
        <ele>554.2</ele>
        <time>2023-08-29T08:16:24Z</time>
      </trkpt>
      <trkpt lat="45.42733" lon="5.40222">
        <ele>554.2</ele>
        <time>2023-08-29T08:16:25Z</time>
      </trkpt>
      <trkpt lat="45.42737" lon="5.40216">
        <ele>554.2</ele>
        <time>2023-08-29T08:16:26Z</time>
      </trkpt>
      <trkpt lat="45.42741" lon="5.4021">
        <ele>554.2</ele>
        <time>2023-08-29T08:16:27Z</time>
      </trkpt>
      <trkpt lat="45.42745" lon="5.40205">
        <ele>554.4</ele>
        <time>2023-08-29T08:16:28Z</time>
      </trkpt>
      <trkpt lat="45.42749" lon="5.402">
        <ele>554.4</ele>
        <time>2023-08-29T08:16:29Z</time>
      </trkpt>
      <trkpt lat="45.42753" lon="5.40194">
        <ele>554.4</ele>
        <time>2023-08-29T08:16:30Z</time>
      </trkpt>
      <trkpt lat="45.42757" lon="5.40189">
        <ele>554.4</ele>
        <time>2023-08-29T08:16:31Z</time>
      </trkpt>
      <trkpt lat="45.4276" lon="5.40183">
        <ele>554.6</ele>
        <time>2023-08-29T08:16:32Z</time>
      </trkpt>
      <trkpt lat="45.42764" lon="5.40178">
        <ele>554.8</ele>
        <time>2023-08-29T08:16:33Z</time>
      </trkpt>
      <trkpt lat="45.42768" lon="5.40172">
        <ele>555</ele>
        <time>2023-08-29T08:16:34Z</time>
      </trkpt>
      <trkpt lat="45.42772" lon="5.40167">
        <ele>555</ele>
        <time>2023-08-29T08:16:35Z</time>
      </trkpt>
      <trkpt lat="45.42776" lon="5.40162">
        <ele>555</ele>
        <time>2023-08-29T08:16:36Z</time>
      </trkpt>
      <trkpt lat="45.4278" lon="5.40156">
        <ele>555.2</ele>
        <time>2023-08-29T08:16:37Z</time>
      </trkpt>
      <trkpt lat="45.42784" lon="5.40152">
        <ele>555.2</ele>
        <time>2023-08-29T08:16:38Z</time>
      </trkpt>
      <trkpt lat="45.42788" lon="5.40148">
        <ele>555.2</ele>
        <time>2023-08-29T08:16:39Z</time>
      </trkpt>
      <trkpt lat="45.42793" lon="5.40143">
        <ele>555.4</ele>
        <time>2023-08-29T08:16:40Z</time>
      </trkpt>
      <trkpt lat="45.42797" lon="5.40138">
        <ele>555.6</ele>
        <time>2023-08-29T08:16:41Z</time>
      </trkpt>
      <trkpt lat="45.42802" lon="5.40133">
        <ele>555.8</ele>
        <time>2023-08-29T08:16:42Z</time>
      </trkpt>
      <trkpt lat="45.42806" lon="5.40128">
        <ele>555.8</ele>
        <time>2023-08-29T08:16:43Z</time>
      </trkpt>
      <trkpt lat="45.4281" lon="5.40124">
        <ele>555.8</ele>
        <time>2023-08-29T08:16:44Z</time>
      </trkpt>
      <trkpt lat="45.42814" lon="5.4012">
        <ele>555.8</ele>
        <time>2023-08-29T08:16:45Z</time>
      </trkpt>
      <trkpt lat="45.42818" lon="5.40115">
        <ele>556</ele>
        <time>2023-08-29T08:16:46Z</time>
      </trkpt>
      <trkpt lat="45.42823" lon="5.4011">
        <ele>556</ele>
        <time>2023-08-29T08:16:47Z</time>
      </trkpt>
      <trkpt lat="45.42827" lon="5.40105">
        <ele>556</ele>
        <time>2023-08-29T08:16:48Z</time>
      </trkpt>
      <trkpt lat="45.42832" lon="5.401">
        <ele>556</ele>
        <time>2023-08-29T08:16:49Z</time>
      </trkpt>
      <trkpt lat="45.42836" lon="5.40095">
        <ele>556</ele>
        <time>2023-08-29T08:16:50Z</time>
      </trkpt>
      <trkpt lat="45.4284" lon="5.4009">
        <ele>556</ele>
        <time>2023-08-29T08:16:51Z</time>
      </trkpt>
      <trkpt lat="45.42844" lon="5.40084">
        <ele>556</ele>
        <time>2023-08-29T08:16:52Z</time>
      </trkpt>
      <trkpt lat="45.42848" lon="5.4008">
        <ele>556.2</ele>
        <time>2023-08-29T08:16:53Z</time>
      </trkpt>
      <trkpt lat="45.42852" lon="5.40075">
        <ele>556.2</ele>
        <time>2023-08-29T08:16:54Z</time>
      </trkpt>
      <trkpt lat="45.42856" lon="5.40071">
        <ele>556.2</ele>
        <time>2023-08-29T08:16:55Z</time>
      </trkpt>
      <trkpt lat="45.4286" lon="5.40066">
        <ele>556.2</ele>
        <time>2023-08-29T08:16:56Z</time>
      </trkpt>
      <trkpt lat="45.42864" lon="5.40061">
        <ele>556.2</ele>
        <time>2023-08-29T08:16:57Z</time>
      </trkpt>
      <trkpt lat="45.42868" lon="5.40056">
        <ele>556.2</ele>
        <time>2023-08-29T08:16:58Z</time>
      </trkpt>
      <trkpt lat="45.42872" lon="5.40051">
        <ele>556.2</ele>
        <time>2023-08-29T08:16:59Z</time>
      </trkpt>
      <trkpt lat="45.42876" lon="5.40046">
        <ele>556.2</ele>
        <time>2023-08-29T08:17:00Z</time>
      </trkpt>
      <trkpt lat="45.4288" lon="5.40041">
        <ele>556.2</ele>
        <time>2023-08-29T08:17:01Z</time>
      </trkpt>
      <trkpt lat="45.42884" lon="5.40036">
        <ele>556.2</ele>
        <time>2023-08-29T08:17:02Z</time>
      </trkpt>
      <trkpt lat="45.42888" lon="5.40031">
        <ele>556.2</ele>
        <time>2023-08-29T08:17:03Z</time>
      </trkpt>
      <trkpt lat="45.42892" lon="5.40026">
        <ele>556.2</ele>
        <time>2023-08-29T08:17:04Z</time>
      </trkpt>
      <trkpt lat="45.42896" lon="5.40021">
        <ele>556.2</ele>
        <time>2023-08-29T08:17:05Z</time>
      </trkpt>
      <trkpt lat="45.429" lon="5.40016">
        <ele>556.2</ele>
        <time>2023-08-29T08:17:06Z</time>
      </trkpt>
      <trkpt lat="45.42904" lon="5.40011">
        <ele>556</ele>
        <time>2023-08-29T08:17:07Z</time>
      </trkpt>
      <trkpt lat="45.42908" lon="5.40005">
        <ele>556</ele>
        <time>2023-08-29T08:17:08Z</time>
      </trkpt>
      <trkpt lat="45.42912" lon="5.4">
        <ele>555.8</ele>
        <time>2023-08-29T08:17:09Z</time>
      </trkpt>
      <trkpt lat="45.42916" lon="5.39995">
        <ele>555.8</ele>
        <time>2023-08-29T08:17:10Z</time>
      </trkpt>
      <trkpt lat="45.42921" lon="5.3999">
        <ele>555.6</ele>
        <time>2023-08-29T08:17:11Z</time>
      </trkpt>
      <trkpt lat="45.42925" lon="5.39984">
        <ele>555.6</ele>
        <time>2023-08-29T08:17:12Z</time>
      </trkpt>
      <trkpt lat="45.4293" lon="5.39979">
        <ele>555.6</ele>
        <time>2023-08-29T08:17:13Z</time>
      </trkpt>
      <trkpt lat="45.42934" lon="5.39973">
        <ele>555.8</ele>
        <time>2023-08-29T08:17:14Z</time>
      </trkpt>
      <trkpt lat="45.42938" lon="5.39968">
        <ele>555.8</ele>
        <time>2023-08-29T08:17:15Z</time>
      </trkpt>
      <trkpt lat="45.42943" lon="5.39961">
        <ele>555.8</ele>
        <time>2023-08-29T08:17:16Z</time>
      </trkpt>
      <trkpt lat="45.42948" lon="5.39955">
        <ele>555.8</ele>
        <time>2023-08-29T08:17:17Z</time>
      </trkpt>
      <trkpt lat="45.42952" lon="5.3995">
        <ele>555.8</ele>
        <time>2023-08-29T08:17:18Z</time>
      </trkpt>
      <trkpt lat="45.42957" lon="5.39944">
        <ele>555.8</ele>
        <time>2023-08-29T08:17:19Z</time>
      </trkpt>
      <trkpt lat="45.42962" lon="5.39939">
        <ele>555.6</ele>
        <time>2023-08-29T08:17:20Z</time>
      </trkpt>
      <trkpt lat="45.42966" lon="5.39933">
        <ele>555</ele>
        <time>2023-08-29T08:17:21Z</time>
      </trkpt>
      <trkpt lat="45.42971" lon="5.39927">
        <ele>555</ele>
        <time>2023-08-29T08:17:22Z</time>
      </trkpt>
      <trkpt lat="45.42975" lon="5.3992">
        <ele>555</ele>
        <time>2023-08-29T08:17:23Z</time>
      </trkpt>
      <trkpt lat="45.4298" lon="5.39915">
        <ele>555</ele>
        <time>2023-08-29T08:17:24Z</time>
      </trkpt>
      <trkpt lat="45.42984" lon="5.39909">
        <ele>555</ele>
        <time>2023-08-29T08:17:25Z</time>
      </trkpt>
      <trkpt lat="45.42988" lon="5.39903">
        <ele>555.4</ele>
        <time>2023-08-29T08:17:26Z</time>
      </trkpt>
      <trkpt lat="45.42993" lon="5.39898">
        <ele>555.4</ele>
        <time>2023-08-29T08:17:27Z</time>
      </trkpt>
      <trkpt lat="45.42998" lon="5.39892">
        <ele>555.4</ele>
        <time>2023-08-29T08:17:28Z</time>
      </trkpt>
      <trkpt lat="45.43002" lon="5.39887">
        <ele>555.4</ele>
        <time>2023-08-29T08:17:29Z</time>
      </trkpt>
      <trkpt lat="45.43007" lon="5.39882">
        <ele>555.2</ele>
        <time>2023-08-29T08:17:30Z</time>
      </trkpt>
      <trkpt lat="45.43011" lon="5.39877">
        <ele>555</ele>
        <time>2023-08-29T08:17:31Z</time>
      </trkpt>
      <trkpt lat="45.43016" lon="5.39872">
        <ele>554.8</ele>
        <time>2023-08-29T08:17:32Z</time>
      </trkpt>
      <trkpt lat="45.4302" lon="5.39866">
        <ele>554.8</ele>
        <time>2023-08-29T08:17:33Z</time>
      </trkpt>
      <trkpt lat="45.43025" lon="5.39861">
        <ele>554.8</ele>
        <time>2023-08-29T08:17:34Z</time>
      </trkpt>
      <trkpt lat="45.43029" lon="5.39855">
        <ele>554.8</ele>
        <time>2023-08-29T08:17:35Z</time>
      </trkpt>
      <trkpt lat="45.43034" lon="5.3985">
        <ele>554.8</ele>
        <time>2023-08-29T08:17:36Z</time>
      </trkpt>
      <trkpt lat="45.43038" lon="5.39844">
        <ele>554.8</ele>
        <time>2023-08-29T08:17:37Z</time>
      </trkpt>
      <trkpt lat="45.43042" lon="5.39839">
        <ele>554.8</ele>
        <time>2023-08-29T08:17:38Z</time>
      </trkpt>
      <trkpt lat="45.43047" lon="5.39834">
        <ele>554.8</ele>
        <time>2023-08-29T08:17:39Z</time>
      </trkpt>
      <trkpt lat="45.43052" lon="5.39828">
        <ele>554.8</ele>
        <time>2023-08-29T08:17:40Z</time>
      </trkpt>
      <trkpt lat="45.43056" lon="5.39822">
        <ele>554.8</ele>
        <time>2023-08-29T08:17:41Z</time>
      </trkpt>
      <trkpt lat="45.4306" lon="5.39817">
        <ele>554.8</ele>
        <time>2023-08-29T08:17:42Z</time>
      </trkpt>
      <trkpt lat="45.43065" lon="5.39811">
        <ele>554.8</ele>
        <time>2023-08-29T08:17:43Z</time>
      </trkpt>
      <trkpt lat="45.4307" lon="5.39805">
        <ele>554.8</ele>
        <time>2023-08-29T08:17:44Z</time>
      </trkpt>
      <trkpt lat="45.43074" lon="5.39799">
        <ele>554.8</ele>
        <time>2023-08-29T08:17:45Z</time>
      </trkpt>
      <trkpt lat="45.43079" lon="5.39794">
        <ele>554.8</ele>
        <time>2023-08-29T08:17:46Z</time>
      </trkpt>
      <trkpt lat="45.43084" lon="5.39788">
        <ele>554.8</ele>
        <time>2023-08-29T08:17:47Z</time>
      </trkpt>
      <trkpt lat="45.43088" lon="5.39783">
        <ele>554.8</ele>
        <time>2023-08-29T08:17:48Z</time>
      </trkpt>
      <trkpt lat="45.43092" lon="5.39778">
        <ele>554.8</ele>
        <time>2023-08-29T08:17:49Z</time>
      </trkpt>
      <trkpt lat="45.43096" lon="5.39773">
        <ele>554.6</ele>
        <time>2023-08-29T08:17:50Z</time>
      </trkpt>
      <trkpt lat="45.43101" lon="5.39767">
        <ele>554.6</ele>
        <time>2023-08-29T08:17:51Z</time>
      </trkpt>
      <trkpt lat="45.43105" lon="5.39761">
        <ele>554.6</ele>
        <time>2023-08-29T08:17:52Z</time>
      </trkpt>
      <trkpt lat="45.4311" lon="5.39755">
        <ele>554.6</ele>
        <time>2023-08-29T08:17:53Z</time>
      </trkpt>
      <trkpt lat="45.43114" lon="5.3975">
        <ele>554.8</ele>
        <time>2023-08-29T08:17:54Z</time>
      </trkpt>
      <trkpt lat="45.43119" lon="5.39744">
        <ele>554.8</ele>
        <time>2023-08-29T08:17:55Z</time>
      </trkpt>
      <trkpt lat="45.43123" lon="5.39739">
        <ele>554.8</ele>
        <time>2023-08-29T08:17:56Z</time>
      </trkpt>
      <trkpt lat="45.43127" lon="5.39733">
        <ele>554.8</ele>
        <time>2023-08-29T08:17:57Z</time>
      </trkpt>
      <trkpt lat="45.43132" lon="5.39728">
        <ele>554.8</ele>
        <time>2023-08-29T08:17:58Z</time>
      </trkpt>
      <trkpt lat="45.43136" lon="5.39722">
        <ele>554.8</ele>
        <time>2023-08-29T08:17:59Z</time>
      </trkpt>
      <trkpt lat="45.4314" lon="5.39716">
        <ele>555</ele>
        <time>2023-08-29T08:18:00Z</time>
      </trkpt>
      <trkpt lat="45.43144" lon="5.39711">
        <ele>555</ele>
        <time>2023-08-29T08:18:01Z</time>
      </trkpt>
      <trkpt lat="45.43148" lon="5.39705">
        <ele>554.8</ele>
        <time>2023-08-29T08:18:02Z</time>
      </trkpt>
      <trkpt lat="45.43152" lon="5.397">
        <ele>554.8</ele>
        <time>2023-08-29T08:18:03Z</time>
      </trkpt>
      <trkpt lat="45.43156" lon="5.39696">
        <ele>554.8</ele>
        <time>2023-08-29T08:18:04Z</time>
      </trkpt>
      <trkpt lat="45.4316" lon="5.39691">
        <ele>554.8</ele>
        <time>2023-08-29T08:18:05Z</time>
      </trkpt>
      <trkpt lat="45.43164" lon="5.39686">
        <ele>554.8</ele>
        <time>2023-08-29T08:18:06Z</time>
      </trkpt>
      <trkpt lat="45.43168" lon="5.39681">
        <ele>554.8</ele>
        <time>2023-08-29T08:18:07Z</time>
      </trkpt>
      <trkpt lat="45.43173" lon="5.39676">
        <ele>554.8</ele>
        <time>2023-08-29T08:18:08Z</time>
      </trkpt>
      <trkpt lat="45.43177" lon="5.39671">
        <ele>555</ele>
        <time>2023-08-29T08:18:09Z</time>
      </trkpt>
      <trkpt lat="45.43182" lon="5.39665">
        <ele>555.4</ele>
        <time>2023-08-29T08:18:10Z</time>
      </trkpt>
      <trkpt lat="45.43186" lon="5.39659">
        <ele>555.8</ele>
        <time>2023-08-29T08:18:11Z</time>
      </trkpt>
      <trkpt lat="45.4319" lon="5.39653">
        <ele>555.8</ele>
        <time>2023-08-29T08:18:12Z</time>
      </trkpt>
      <trkpt lat="45.43195" lon="5.39648">
        <ele>555.8</ele>
        <time>2023-08-29T08:18:13Z</time>
      </trkpt>
      <trkpt lat="45.43199" lon="5.39643">
        <ele>555.8</ele>
        <time>2023-08-29T08:18:14Z</time>
      </trkpt>
      <trkpt lat="45.43204" lon="5.39637">
        <ele>555.8</ele>
        <time>2023-08-29T08:18:15Z</time>
      </trkpt>
      <trkpt lat="45.43208" lon="5.39632">
        <ele>555.8</ele>
        <time>2023-08-29T08:18:16Z</time>
      </trkpt>
      <trkpt lat="45.43213" lon="5.39627">
        <ele>555.8</ele>
        <time>2023-08-29T08:18:17Z</time>
      </trkpt>
      <trkpt lat="45.43217" lon="5.39622">
        <ele>555.8</ele>
        <time>2023-08-29T08:18:18Z</time>
      </trkpt>
      <trkpt lat="45.43221" lon="5.39617">
        <ele>556.2</ele>
        <time>2023-08-29T08:18:19Z</time>
      </trkpt>
      <trkpt lat="45.43224" lon="5.39612">
        <ele>556.2</ele>
        <time>2023-08-29T08:18:20Z</time>
      </trkpt>
      <trkpt lat="45.43228" lon="5.39608">
        <ele>556.2</ele>
        <time>2023-08-29T08:18:21Z</time>
      </trkpt>
      <trkpt lat="45.43232" lon="5.39603">
        <ele>556.4</ele>
        <time>2023-08-29T08:18:22Z</time>
      </trkpt>
      <trkpt lat="45.43237" lon="5.39597">
        <ele>556.4</ele>
        <time>2023-08-29T08:18:23Z</time>
      </trkpt>
      <trkpt lat="45.4324" lon="5.39593">
        <ele>556.4</ele>
        <time>2023-08-29T08:18:24Z</time>
      </trkpt>
      <trkpt lat="45.43244" lon="5.39588">
        <ele>556.4</ele>
        <time>2023-08-29T08:18:25Z</time>
      </trkpt>
      <trkpt lat="45.43248" lon="5.39582">
        <ele>556.4</ele>
        <time>2023-08-29T08:18:26Z</time>
      </trkpt>
      <trkpt lat="45.43253" lon="5.39577">
        <ele>556.6</ele>
        <time>2023-08-29T08:18:27Z</time>
      </trkpt>
      <trkpt lat="45.43257" lon="5.39571">
        <ele>556.6</ele>
        <time>2023-08-29T08:18:28Z</time>
      </trkpt>
      <trkpt lat="45.43261" lon="5.39567">
        <ele>556.6</ele>
        <time>2023-08-29T08:18:29Z</time>
      </trkpt>
      <trkpt lat="45.43265" lon="5.39562">
        <ele>556.8</ele>
        <time>2023-08-29T08:18:30Z</time>
      </trkpt>
      <trkpt lat="45.43269" lon="5.39557">
        <ele>556.8</ele>
        <time>2023-08-29T08:18:31Z</time>
      </trkpt>
      <trkpt lat="45.43274" lon="5.39552">
        <ele>556.8</ele>
        <time>2023-08-29T08:18:32Z</time>
      </trkpt>
      <trkpt lat="45.43278" lon="5.39547">
        <ele>556.8</ele>
        <time>2023-08-29T08:18:33Z</time>
      </trkpt>
      <trkpt lat="45.43282" lon="5.39541">
        <ele>556.8</ele>
        <time>2023-08-29T08:18:34Z</time>
      </trkpt>
      <trkpt lat="45.43286" lon="5.39536">
        <ele>556.8</ele>
        <time>2023-08-29T08:18:35Z</time>
      </trkpt>
      <trkpt lat="45.43291" lon="5.3953">
        <ele>556.8</ele>
        <time>2023-08-29T08:18:36Z</time>
      </trkpt>
      <trkpt lat="45.43295" lon="5.39525">
        <ele>556.8</ele>
        <time>2023-08-29T08:18:37Z</time>
      </trkpt>
      <trkpt lat="45.433" lon="5.3952">
        <ele>556.8</ele>
        <time>2023-08-29T08:18:38Z</time>
      </trkpt>
      <trkpt lat="45.43304" lon="5.39515">
        <ele>556.8</ele>
        <time>2023-08-29T08:18:39Z</time>
      </trkpt>
      <trkpt lat="45.43308" lon="5.3951">
        <ele>556.8</ele>
        <time>2023-08-29T08:18:40Z</time>
      </trkpt>
      <trkpt lat="45.43312" lon="5.39505">
        <ele>556.8</ele>
        <time>2023-08-29T08:18:41Z</time>
      </trkpt>
      <trkpt lat="45.43316" lon="5.395">
        <ele>556.8</ele>
        <time>2023-08-29T08:18:42Z</time>
      </trkpt>
      <trkpt lat="45.4332" lon="5.39495">
        <ele>556.6</ele>
        <time>2023-08-29T08:18:43Z</time>
      </trkpt>
      <trkpt lat="45.43325" lon="5.3949">
        <ele>556.4</ele>
        <time>2023-08-29T08:18:44Z</time>
      </trkpt>
      <trkpt lat="45.43329" lon="5.39485">
        <ele>556.2</ele>
        <time>2023-08-29T08:18:45Z</time>
      </trkpt>
      <trkpt lat="45.43334" lon="5.3948">
        <ele>556.2</ele>
        <time>2023-08-29T08:18:46Z</time>
      </trkpt>
      <trkpt lat="45.43338" lon="5.39475">
        <ele>556.2</ele>
        <time>2023-08-29T08:18:47Z</time>
      </trkpt>
      <trkpt lat="45.43342" lon="5.39469">
        <ele>556</ele>
        <time>2023-08-29T08:18:48Z</time>
      </trkpt>
      <trkpt lat="45.43346" lon="5.39464">
        <ele>556</ele>
        <time>2023-08-29T08:18:49Z</time>
      </trkpt>
      <trkpt lat="45.43351" lon="5.39458">
        <ele>556</ele>
        <time>2023-08-29T08:18:50Z</time>
      </trkpt>
      <trkpt lat="45.43355" lon="5.39453">
        <ele>556</ele>
        <time>2023-08-29T08:18:51Z</time>
      </trkpt>
      <trkpt lat="45.43359" lon="5.39448">
        <ele>556</ele>
        <time>2023-08-29T08:18:52Z</time>
      </trkpt>
      <trkpt lat="45.43364" lon="5.39442">
        <ele>556</ele>
        <time>2023-08-29T08:18:53Z</time>
      </trkpt>
      <trkpt lat="45.43368" lon="5.39437">
        <ele>556</ele>
        <time>2023-08-29T08:18:54Z</time>
      </trkpt>
      <trkpt lat="45.43372" lon="5.39432">
        <ele>556</ele>
        <time>2023-08-29T08:18:55Z</time>
      </trkpt>
      <trkpt lat="45.43376" lon="5.39427">
        <ele>556</ele>
        <time>2023-08-29T08:18:56Z</time>
      </trkpt>
      <trkpt lat="45.43381" lon="5.39421">
        <ele>556</ele>
        <time>2023-08-29T08:18:57Z</time>
      </trkpt>
      <trkpt lat="45.43385" lon="5.39416">
        <ele>555.6</ele>
        <time>2023-08-29T08:18:58Z</time>
      </trkpt>
      <trkpt lat="45.43389" lon="5.39411">
        <ele>555.2</ele>
        <time>2023-08-29T08:18:59Z</time>
      </trkpt>
      <trkpt lat="45.43394" lon="5.39406">
        <ele>555.2</ele>
        <time>2023-08-29T08:19:00Z</time>
      </trkpt>
      <trkpt lat="45.43398" lon="5.39401">
        <ele>555.2</ele>
        <time>2023-08-29T08:19:01Z</time>
      </trkpt>
      <trkpt lat="45.43402" lon="5.39396">
        <ele>555</ele>
        <time>2023-08-29T08:19:02Z</time>
      </trkpt>
      <trkpt lat="45.43406" lon="5.39391">
        <ele>555</ele>
        <time>2023-08-29T08:19:03Z</time>
      </trkpt>
      <trkpt lat="45.4341" lon="5.39386">
        <ele>554.8</ele>
        <time>2023-08-29T08:19:04Z</time>
      </trkpt>
      <trkpt lat="45.43415" lon="5.3938">
        <ele>554.8</ele>
        <time>2023-08-29T08:19:05Z</time>
      </trkpt>
      <trkpt lat="45.43419" lon="5.39375">
        <ele>554.8</ele>
        <time>2023-08-29T08:19:06Z</time>
      </trkpt>
      <trkpt lat="45.43423" lon="5.3937">
        <ele>554.8</ele>
        <time>2023-08-29T08:19:07Z</time>
      </trkpt>
      <trkpt lat="45.43427" lon="5.39364">
        <ele>554.8</ele>
        <time>2023-08-29T08:19:08Z</time>
      </trkpt>
      <trkpt lat="45.43431" lon="5.39359">
        <ele>555</ele>
        <time>2023-08-29T08:19:09Z</time>
      </trkpt>
      <trkpt lat="45.43436" lon="5.39354">
        <ele>555.2</ele>
        <time>2023-08-29T08:19:10Z</time>
      </trkpt>
      <trkpt lat="45.4344" lon="5.39349">
        <ele>555.4</ele>
        <time>2023-08-29T08:19:11Z</time>
      </trkpt>
      <trkpt lat="45.43444" lon="5.39344">
        <ele>555.4</ele>
        <time>2023-08-29T08:19:12Z</time>
      </trkpt>
      <trkpt lat="45.43448" lon="5.39339">
        <ele>555.4</ele>
        <time>2023-08-29T08:19:13Z</time>
      </trkpt>
      <trkpt lat="45.43452" lon="5.39334">
        <ele>555.4</ele>
        <time>2023-08-29T08:19:14Z</time>
      </trkpt>
      <trkpt lat="45.43456" lon="5.39329">
        <ele>555.4</ele>
        <time>2023-08-29T08:19:15Z</time>
      </trkpt>
      <trkpt lat="45.4346" lon="5.39324">
        <ele>555.4</ele>
        <time>2023-08-29T08:19:16Z</time>
      </trkpt>
      <trkpt lat="45.43464" lon="5.39319">
        <ele>555.4</ele>
        <time>2023-08-29T08:19:17Z</time>
      </trkpt>
      <trkpt lat="45.43468" lon="5.39314">
        <ele>555.4</ele>
        <time>2023-08-29T08:19:18Z</time>
      </trkpt>
      <trkpt lat="45.43471" lon="5.39309">
        <ele>555.4</ele>
        <time>2023-08-29T08:19:19Z</time>
      </trkpt>
      <trkpt lat="45.43476" lon="5.39304">
        <ele>555.4</ele>
        <time>2023-08-29T08:19:20Z</time>
      </trkpt>
      <trkpt lat="45.4348" lon="5.393">
        <ele>555.4</ele>
        <time>2023-08-29T08:19:21Z</time>
      </trkpt>
      <trkpt lat="45.43484" lon="5.39295">
        <ele>555.4</ele>
        <time>2023-08-29T08:19:22Z</time>
      </trkpt>
      <trkpt lat="45.43488" lon="5.3929">
        <ele>555.4</ele>
        <time>2023-08-29T08:19:23Z</time>
      </trkpt>
      <trkpt lat="45.43492" lon="5.39285">
        <ele>555.2</ele>
        <time>2023-08-29T08:19:24Z</time>
      </trkpt>
      <trkpt lat="45.43496" lon="5.3928">
        <ele>555.4</ele>
        <time>2023-08-29T08:19:25Z</time>
      </trkpt>
      <trkpt lat="45.435" lon="5.39275">
        <ele>555.6</ele>
        <time>2023-08-29T08:19:26Z</time>
      </trkpt>
      <trkpt lat="45.43504" lon="5.3927">
        <ele>555.6</ele>
        <time>2023-08-29T08:19:27Z</time>
      </trkpt>
      <trkpt lat="45.43508" lon="5.39265">
        <ele>555.6</ele>
        <time>2023-08-29T08:19:28Z</time>
      </trkpt>
      <trkpt lat="45.43512" lon="5.3926">
        <ele>555.8</ele>
        <time>2023-08-29T08:19:29Z</time>
      </trkpt>
      <trkpt lat="45.43517" lon="5.39255">
        <ele>556</ele>
        <time>2023-08-29T08:19:30Z</time>
      </trkpt>
      <trkpt lat="45.4352" lon="5.3925">
        <ele>556.2</ele>
        <time>2023-08-29T08:19:31Z</time>
      </trkpt>
      <trkpt lat="45.43524" lon="5.39245">
        <ele>556.4</ele>
        <time>2023-08-29T08:19:32Z</time>
      </trkpt>
      <trkpt lat="45.43529" lon="5.3924">
        <ele>556.4</ele>
        <time>2023-08-29T08:19:33Z</time>
      </trkpt>
      <trkpt lat="45.43532" lon="5.39235">
        <ele>556.8</ele>
        <time>2023-08-29T08:19:34Z</time>
      </trkpt>
      <trkpt lat="45.43536" lon="5.3923">
        <ele>556.8</ele>
        <time>2023-08-29T08:19:35Z</time>
      </trkpt>
      <trkpt lat="45.43541" lon="5.39225">
        <ele>556.8</ele>
        <time>2023-08-29T08:19:36Z</time>
      </trkpt>
      <trkpt lat="45.43545" lon="5.3922">
        <ele>557</ele>
        <time>2023-08-29T08:19:37Z</time>
      </trkpt>
      <trkpt lat="45.43549" lon="5.39215">
        <ele>557</ele>
        <time>2023-08-29T08:19:38Z</time>
      </trkpt>
      <trkpt lat="45.43553" lon="5.3921">
        <ele>557</ele>
        <time>2023-08-29T08:19:39Z</time>
      </trkpt>
      <trkpt lat="45.43557" lon="5.39205">
        <ele>557</ele>
        <time>2023-08-29T08:19:40Z</time>
      </trkpt>
      <trkpt lat="45.43561" lon="5.392">
        <ele>557</ele>
        <time>2023-08-29T08:19:41Z</time>
      </trkpt>
      <trkpt lat="45.43565" lon="5.39196">
        <ele>557</ele>
        <time>2023-08-29T08:19:42Z</time>
      </trkpt>
      <trkpt lat="45.43569" lon="5.39191">
        <ele>557</ele>
        <time>2023-08-29T08:19:43Z</time>
      </trkpt>
      <trkpt lat="45.43573" lon="5.39186">
        <ele>556.8</ele>
        <time>2023-08-29T08:19:44Z</time>
      </trkpt>
      <trkpt lat="45.43577" lon="5.39181">
        <ele>556.8</ele>
        <time>2023-08-29T08:19:45Z</time>
      </trkpt>
      <trkpt lat="45.43581" lon="5.39176">
        <ele>557</ele>
        <time>2023-08-29T08:19:46Z</time>
      </trkpt>
      <trkpt lat="45.43585" lon="5.39172">
        <ele>557</ele>
        <time>2023-08-29T08:19:47Z</time>
      </trkpt>
      <trkpt lat="45.43589" lon="5.39167">
        <ele>557.2</ele>
        <time>2023-08-29T08:19:48Z</time>
      </trkpt>
      <trkpt lat="45.43593" lon="5.39162">
        <ele>557.2</ele>
        <time>2023-08-29T08:19:49Z</time>
      </trkpt>
      <trkpt lat="45.43597" lon="5.39157">
        <ele>557.4</ele>
        <time>2023-08-29T08:19:50Z</time>
      </trkpt>
      <trkpt lat="45.43601" lon="5.39152">
        <ele>557.6</ele>
        <time>2023-08-29T08:19:51Z</time>
      </trkpt>
      <trkpt lat="45.43605" lon="5.39147">
        <ele>557.6</ele>
        <time>2023-08-29T08:19:52Z</time>
      </trkpt>
      <trkpt lat="45.43608" lon="5.39142">
        <ele>558</ele>
        <time>2023-08-29T08:19:53Z</time>
      </trkpt>
      <trkpt lat="45.43613" lon="5.39137">
        <ele>558</ele>
        <time>2023-08-29T08:19:54Z</time>
      </trkpt>
      <trkpt lat="45.43616" lon="5.39132">
        <ele>558</ele>
        <time>2023-08-29T08:19:55Z</time>
      </trkpt>
      <trkpt lat="45.4362" lon="5.39128">
        <ele>558</ele>
        <time>2023-08-29T08:19:56Z</time>
      </trkpt>
      <trkpt lat="45.43624" lon="5.39123">
        <ele>558</ele>
        <time>2023-08-29T08:19:57Z</time>
      </trkpt>
      <trkpt lat="45.43628" lon="5.39118">
        <ele>558</ele>
        <time>2023-08-29T08:19:58Z</time>
      </trkpt>
      <trkpt lat="45.43632" lon="5.39113">
        <ele>558.2</ele>
        <time>2023-08-29T08:19:59Z</time>
      </trkpt>
      <trkpt lat="45.43636" lon="5.39109">
        <ele>558.2</ele>
        <time>2023-08-29T08:20:00Z</time>
      </trkpt>
      <trkpt lat="45.4364" lon="5.39105">
        <ele>558.2</ele>
        <time>2023-08-29T08:20:01Z</time>
      </trkpt>
      <trkpt lat="45.43643" lon="5.391">
        <ele>558.2</ele>
        <time>2023-08-29T08:20:02Z</time>
      </trkpt>
      <trkpt lat="45.43647" lon="5.39094">
        <ele>558.2</ele>
        <time>2023-08-29T08:20:03Z</time>
      </trkpt>
      <trkpt lat="45.43652" lon="5.39088">
        <ele>558.4</ele>
        <time>2023-08-29T08:20:04Z</time>
      </trkpt>
      <trkpt lat="45.43656" lon="5.39084">
        <ele>558.6</ele>
        <time>2023-08-29T08:20:05Z</time>
      </trkpt>
      <trkpt lat="45.4366" lon="5.39078">
        <ele>558.6</ele>
        <time>2023-08-29T08:20:06Z</time>
      </trkpt>
      <trkpt lat="45.43664" lon="5.39073">
        <ele>558.6</ele>
        <time>2023-08-29T08:20:07Z</time>
      </trkpt>
      <trkpt lat="45.43668" lon="5.39068">
        <ele>558.6</ele>
        <time>2023-08-29T08:20:08Z</time>
      </trkpt>
      <trkpt lat="45.43672" lon="5.39063">
        <ele>558.6</ele>
        <time>2023-08-29T08:20:09Z</time>
      </trkpt>
      <trkpt lat="45.43676" lon="5.39059">
        <ele>558.6</ele>
        <time>2023-08-29T08:20:10Z</time>
      </trkpt>
      <trkpt lat="45.4368" lon="5.39054">
        <ele>558.8</ele>
        <time>2023-08-29T08:20:11Z</time>
      </trkpt>
      <trkpt lat="45.43684" lon="5.39049">
        <ele>558.8</ele>
        <time>2023-08-29T08:20:12Z</time>
      </trkpt>
      <trkpt lat="45.43688" lon="5.39044">
        <ele>558.8</ele>
        <time>2023-08-29T08:20:13Z</time>
      </trkpt>
      <trkpt lat="45.43692" lon="5.39039">
        <ele>558.8</ele>
        <time>2023-08-29T08:20:14Z</time>
      </trkpt>
      <trkpt lat="45.43696" lon="5.39033">
        <ele>558.8</ele>
        <time>2023-08-29T08:20:15Z</time>
      </trkpt>
      <trkpt lat="45.43701" lon="5.39029">
        <ele>558.8</ele>
        <time>2023-08-29T08:20:16Z</time>
      </trkpt>
      <trkpt lat="45.43705" lon="5.39024">
        <ele>558.8</ele>
        <time>2023-08-29T08:20:17Z</time>
      </trkpt>
      <trkpt lat="45.43709" lon="5.39019">
        <ele>558.8</ele>
        <time>2023-08-29T08:20:18Z</time>
      </trkpt>
      <trkpt lat="45.43713" lon="5.39014">
        <ele>558.8</ele>
        <time>2023-08-29T08:20:19Z</time>
      </trkpt>
      <trkpt lat="45.43717" lon="5.39009">
        <ele>558.8</ele>
        <time>2023-08-29T08:20:20Z</time>
      </trkpt>
      <trkpt lat="45.43721" lon="5.39005">
        <ele>558.8</ele>
        <time>2023-08-29T08:20:21Z</time>
      </trkpt>
      <trkpt lat="45.43725" lon="5.39">
        <ele>558.8</ele>
        <time>2023-08-29T08:20:22Z</time>
      </trkpt>
      <trkpt lat="45.43729" lon="5.38995">
        <ele>558.6</ele>
        <time>2023-08-29T08:20:23Z</time>
      </trkpt>
      <trkpt lat="45.43733" lon="5.38989">
        <ele>558.6</ele>
        <time>2023-08-29T08:20:24Z</time>
      </trkpt>
      <trkpt lat="45.43737" lon="5.38985">
        <ele>558.6</ele>
        <time>2023-08-29T08:20:25Z</time>
      </trkpt>
      <trkpt lat="45.43741" lon="5.3898">
        <ele>558.6</ele>
        <time>2023-08-29T08:20:26Z</time>
      </trkpt>
      <trkpt lat="45.43744" lon="5.38975">
        <ele>558.6</ele>
        <time>2023-08-29T08:20:27Z</time>
      </trkpt>
      <trkpt lat="45.43748" lon="5.3897">
        <ele>558.8</ele>
        <time>2023-08-29T08:20:28Z</time>
      </trkpt>
      <trkpt lat="45.43752" lon="5.38966">
        <ele>558.8</ele>
        <time>2023-08-29T08:20:29Z</time>
      </trkpt>
      <trkpt lat="45.43756" lon="5.3896">
        <ele>558.8</ele>
        <time>2023-08-29T08:20:30Z</time>
      </trkpt>
      <trkpt lat="45.4376" lon="5.38955">
        <ele>559</ele>
        <time>2023-08-29T08:20:31Z</time>
      </trkpt>
      <trkpt lat="45.43764" lon="5.3895">
        <ele>559</ele>
        <time>2023-08-29T08:20:32Z</time>
      </trkpt>
      <trkpt lat="45.43768" lon="5.38946">
        <ele>559</ele>
        <time>2023-08-29T08:20:33Z</time>
      </trkpt>
      <trkpt lat="45.43772" lon="5.38941">
        <ele>559</ele>
        <time>2023-08-29T08:20:34Z</time>
      </trkpt>
      <trkpt lat="45.43776" lon="5.38936">
        <ele>559</ele>
        <time>2023-08-29T08:20:35Z</time>
      </trkpt>
      <trkpt lat="45.4378" lon="5.38932">
        <ele>559</ele>
        <time>2023-08-29T08:20:36Z</time>
      </trkpt>
      <trkpt lat="45.43783" lon="5.38927">
        <ele>558.8</ele>
        <time>2023-08-29T08:20:37Z</time>
      </trkpt>
      <trkpt lat="45.43787" lon="5.38922">
        <ele>558.6</ele>
        <time>2023-08-29T08:20:38Z</time>
      </trkpt>
      <trkpt lat="45.43791" lon="5.38917">
        <ele>558.6</ele>
        <time>2023-08-29T08:20:39Z</time>
      </trkpt>
      <trkpt lat="45.43795" lon="5.38912">
        <ele>558.4</ele>
        <time>2023-08-29T08:20:40Z</time>
      </trkpt>
      <trkpt lat="45.438" lon="5.38907">
        <ele>558.4</ele>
        <time>2023-08-29T08:20:41Z</time>
      </trkpt>
      <trkpt lat="45.43803" lon="5.38902">
        <ele>558.4</ele>
        <time>2023-08-29T08:20:42Z</time>
      </trkpt>
      <trkpt lat="45.43808" lon="5.38897">
        <ele>558.6</ele>
        <time>2023-08-29T08:20:43Z</time>
      </trkpt>
      <trkpt lat="45.43812" lon="5.38892">
        <ele>558.8</ele>
        <time>2023-08-29T08:20:44Z</time>
      </trkpt>
      <trkpt lat="45.43816" lon="5.38887">
        <ele>558.8</ele>
        <time>2023-08-29T08:20:45Z</time>
      </trkpt>
      <trkpt lat="45.4382" lon="5.38882">
        <ele>559</ele>
        <time>2023-08-29T08:20:46Z</time>
      </trkpt>
      <trkpt lat="45.43824" lon="5.38878">
        <ele>559</ele>
        <time>2023-08-29T08:20:47Z</time>
      </trkpt>
      <trkpt lat="45.43828" lon="5.38873">
        <ele>559</ele>
        <time>2023-08-29T08:20:48Z</time>
      </trkpt>
      <trkpt lat="45.43831" lon="5.38869">
        <ele>559</ele>
        <time>2023-08-29T08:20:49Z</time>
      </trkpt>
      <trkpt lat="45.43836" lon="5.38864">
        <ele>559.4</ele>
        <time>2023-08-29T08:20:50Z</time>
      </trkpt>
      <trkpt lat="45.4384" lon="5.38859">
        <ele>559.4</ele>
        <time>2023-08-29T08:20:51Z</time>
      </trkpt>
      <trkpt lat="45.43844" lon="5.38855">
        <ele>559.4</ele>
        <time>2023-08-29T08:20:52Z</time>
      </trkpt>
      <trkpt lat="45.43848" lon="5.38851">
        <ele>559.4</ele>
        <time>2023-08-29T08:20:53Z</time>
      </trkpt>
      <trkpt lat="45.43852" lon="5.38847">
        <ele>559.4</ele>
        <time>2023-08-29T08:20:54Z</time>
      </trkpt>
      <trkpt lat="45.43856" lon="5.38842">
        <ele>559.4</ele>
        <time>2023-08-29T08:20:55Z</time>
      </trkpt>
      <trkpt lat="45.43861" lon="5.38838">
        <ele>559.4</ele>
        <time>2023-08-29T08:20:56Z</time>
      </trkpt>
      <trkpt lat="45.43866" lon="5.38834">
        <ele>559.4</ele>
        <time>2023-08-29T08:20:57Z</time>
      </trkpt>
      <trkpt lat="45.4387" lon="5.3883">
        <ele>559.6</ele>
        <time>2023-08-29T08:20:58Z</time>
      </trkpt>
      <trkpt lat="45.43875" lon="5.38826">
        <ele>559.6</ele>
        <time>2023-08-29T08:20:59Z</time>
      </trkpt>
      <trkpt lat="45.43879" lon="5.38823">
        <ele>559.8</ele>
        <time>2023-08-29T08:21:00Z</time>
      </trkpt>
      <trkpt lat="45.43883" lon="5.38819">
        <ele>560.2</ele>
        <time>2023-08-29T08:21:01Z</time>
      </trkpt>
      <trkpt lat="45.43888" lon="5.38816">
        <ele>560.2</ele>
        <time>2023-08-29T08:21:02Z</time>
      </trkpt>
      <trkpt lat="45.43893" lon="5.38813">
        <ele>560.2</ele>
        <time>2023-08-29T08:21:03Z</time>
      </trkpt>
      <trkpt lat="45.43897" lon="5.3881">
        <ele>560.4</ele>
        <time>2023-08-29T08:21:04Z</time>
      </trkpt>
      <trkpt lat="45.43902" lon="5.38808">
        <ele>560.4</ele>
        <time>2023-08-29T08:21:05Z</time>
      </trkpt>
      <trkpt lat="45.43907" lon="5.38805">
        <ele>560.4</ele>
        <time>2023-08-29T08:21:06Z</time>
      </trkpt>
      <trkpt lat="45.43912" lon="5.38802">
        <ele>560.4</ele>
        <time>2023-08-29T08:21:07Z</time>
      </trkpt>
      <trkpt lat="45.43917" lon="5.38799">
        <ele>560.6</ele>
        <time>2023-08-29T08:21:08Z</time>
      </trkpt>
      <trkpt lat="45.43922" lon="5.38797">
        <ele>560.6</ele>
        <time>2023-08-29T08:21:09Z</time>
      </trkpt>
      <trkpt lat="45.43927" lon="5.38794">
        <ele>560.6</ele>
        <time>2023-08-29T08:21:10Z</time>
      </trkpt>
      <trkpt lat="45.43932" lon="5.38791">
        <ele>560.6</ele>
        <time>2023-08-29T08:21:11Z</time>
      </trkpt>
      <trkpt lat="45.43937" lon="5.38789">
        <ele>560.6</ele>
        <time>2023-08-29T08:21:12Z</time>
      </trkpt>
      <trkpt lat="45.43942" lon="5.38787">
        <ele>560.4</ele>
        <time>2023-08-29T08:21:13Z</time>
      </trkpt>
      <trkpt lat="45.43947" lon="5.38785">
        <ele>560.4</ele>
        <time>2023-08-29T08:21:14Z</time>
      </trkpt>
      <trkpt lat="45.43952" lon="5.38782">
        <ele>560.4</ele>
        <time>2023-08-29T08:21:15Z</time>
      </trkpt>
      <trkpt lat="45.43957" lon="5.3878">
        <ele>560.2</ele>
        <time>2023-08-29T08:21:16Z</time>
      </trkpt>
      <trkpt lat="45.43963" lon="5.38777">
        <ele>560</ele>
        <time>2023-08-29T08:21:17Z</time>
      </trkpt>
      <trkpt lat="45.43967" lon="5.38775">
        <ele>560</ele>
        <time>2023-08-29T08:21:18Z</time>
      </trkpt>
      <trkpt lat="45.43972" lon="5.38772">
        <ele>560</ele>
        <time>2023-08-29T08:21:19Z</time>
      </trkpt>
      <trkpt lat="45.43977" lon="5.3877">
        <ele>560</ele>
        <time>2023-08-29T08:21:20Z</time>
      </trkpt>
      <trkpt lat="45.43982" lon="5.38768">
        <ele>560</ele>
        <time>2023-08-29T08:21:21Z</time>
      </trkpt>
      <trkpt lat="45.43986" lon="5.38766">
        <ele>560</ele>
        <time>2023-08-29T08:21:22Z</time>
      </trkpt>
      <trkpt lat="45.43991" lon="5.38763">
        <ele>560</ele>
        <time>2023-08-29T08:21:23Z</time>
      </trkpt>
      <trkpt lat="45.43996" lon="5.3876">
        <ele>560.2</ele>
        <time>2023-08-29T08:21:24Z</time>
      </trkpt>
      <trkpt lat="45.44001" lon="5.38758">
        <ele>560.2</ele>
        <time>2023-08-29T08:21:25Z</time>
      </trkpt>
      <trkpt lat="45.44005" lon="5.38755">
        <ele>560.2</ele>
        <time>2023-08-29T08:21:26Z</time>
      </trkpt>
      <trkpt lat="45.4401" lon="5.38753">
        <ele>560.2</ele>
        <time>2023-08-29T08:21:27Z</time>
      </trkpt>
      <trkpt lat="45.44015" lon="5.3875">
        <ele>560.2</ele>
        <time>2023-08-29T08:21:28Z</time>
      </trkpt>
      <trkpt lat="45.4402" lon="5.38747">
        <ele>560.2</ele>
        <time>2023-08-29T08:21:29Z</time>
      </trkpt>
      <trkpt lat="45.44025" lon="5.38744">
        <ele>560.2</ele>
        <time>2023-08-29T08:21:30Z</time>
      </trkpt>
      <trkpt lat="45.4403" lon="5.38742">
        <ele>560.4</ele>
        <time>2023-08-29T08:21:31Z</time>
      </trkpt>
      <trkpt lat="45.44035" lon="5.38739">
        <ele>560.4</ele>
        <time>2023-08-29T08:21:32Z</time>
      </trkpt>
      <trkpt lat="45.44039" lon="5.38736">
        <ele>560.6</ele>
        <time>2023-08-29T08:21:33Z</time>
      </trkpt>
      <trkpt lat="45.44044" lon="5.38734">
        <ele>560.6</ele>
        <time>2023-08-29T08:21:34Z</time>
      </trkpt>
      <trkpt lat="45.44049" lon="5.38731">
        <ele>560.6</ele>
        <time>2023-08-29T08:21:35Z</time>
      </trkpt>
      <trkpt lat="45.44054" lon="5.38728">
        <ele>560.6</ele>
        <time>2023-08-29T08:21:36Z</time>
      </trkpt>
      <trkpt lat="45.44058" lon="5.38724">
        <ele>560.6</ele>
        <time>2023-08-29T08:21:37Z</time>
      </trkpt>
      <trkpt lat="45.44063" lon="5.38721">
        <ele>560.6</ele>
        <time>2023-08-29T08:21:38Z</time>
      </trkpt>
      <trkpt lat="45.44067" lon="5.38719">
        <ele>560.6</ele>
        <time>2023-08-29T08:21:39Z</time>
      </trkpt>
      <trkpt lat="45.44072" lon="5.38716">
        <ele>560.6</ele>
        <time>2023-08-29T08:21:40Z</time>
      </trkpt>
      <trkpt lat="45.44077" lon="5.38712">
        <ele>560.4</ele>
        <time>2023-08-29T08:21:41Z</time>
      </trkpt>
      <trkpt lat="45.44081" lon="5.38709">
        <ele>560.2</ele>
        <time>2023-08-29T08:21:42Z</time>
      </trkpt>
      <trkpt lat="45.44086" lon="5.38705">
        <ele>560.2</ele>
        <time>2023-08-29T08:21:43Z</time>
      </trkpt>
      <trkpt lat="45.4409" lon="5.38702">
        <ele>560.2</ele>
        <time>2023-08-29T08:21:44Z</time>
      </trkpt>
      <trkpt lat="45.44095" lon="5.38698">
        <ele>560.4</ele>
        <time>2023-08-29T08:21:45Z</time>
      </trkpt>
      <trkpt lat="45.44099" lon="5.38695">
        <ele>560.6</ele>
        <time>2023-08-29T08:21:46Z</time>
      </trkpt>
      <trkpt lat="45.44104" lon="5.38692">
        <ele>560.6</ele>
        <time>2023-08-29T08:21:47Z</time>
      </trkpt>
      <trkpt lat="45.44108" lon="5.38688">
        <ele>561</ele>
        <time>2023-08-29T08:21:48Z</time>
      </trkpt>
      <trkpt lat="45.44113" lon="5.38685">
        <ele>561</ele>
        <time>2023-08-29T08:21:49Z</time>
      </trkpt>
      <trkpt lat="45.44117" lon="5.38681">
        <ele>561.2</ele>
        <time>2023-08-29T08:21:50Z</time>
      </trkpt>
      <trkpt lat="45.44122" lon="5.38677">
        <ele>561.6</ele>
        <time>2023-08-29T08:21:51Z</time>
      </trkpt>
      <trkpt lat="45.44126" lon="5.38673">
        <ele>561.6</ele>
        <time>2023-08-29T08:21:52Z</time>
      </trkpt>
      <trkpt lat="45.4413" lon="5.3867">
        <ele>561.8</ele>
        <time>2023-08-29T08:21:53Z</time>
      </trkpt>
      <trkpt lat="45.44135" lon="5.38666">
        <ele>561.8</ele>
        <time>2023-08-29T08:21:54Z</time>
      </trkpt>
      <trkpt lat="45.44139" lon="5.38663">
        <ele>561.8</ele>
        <time>2023-08-29T08:21:55Z</time>
      </trkpt>
      <trkpt lat="45.44144" lon="5.3866">
        <ele>561.8</ele>
        <time>2023-08-29T08:21:56Z</time>
      </trkpt>
      <trkpt lat="45.44148" lon="5.38656">
        <ele>561.8</ele>
        <time>2023-08-29T08:21:57Z</time>
      </trkpt>
      <trkpt lat="45.44153" lon="5.38652">
        <ele>561</ele>
        <time>2023-08-29T08:21:58Z</time>
      </trkpt>
      <trkpt lat="45.44157" lon="5.38648">
        <ele>560.8</ele>
        <time>2023-08-29T08:21:59Z</time>
      </trkpt>
      <trkpt lat="45.44161" lon="5.38644">
        <ele>560.8</ele>
        <time>2023-08-29T08:22:00Z</time>
      </trkpt>
      <trkpt lat="45.44165" lon="5.3864">
        <ele>560.8</ele>
        <time>2023-08-29T08:22:01Z</time>
      </trkpt>
      <trkpt lat="45.44169" lon="5.38635">
        <ele>560.8</ele>
        <time>2023-08-29T08:22:02Z</time>
      </trkpt>
      <trkpt lat="45.44173" lon="5.38631">
        <ele>560.8</ele>
        <time>2023-08-29T08:22:03Z</time>
      </trkpt>
      <trkpt lat="45.44177" lon="5.38627">
        <ele>560.8</ele>
        <time>2023-08-29T08:22:04Z</time>
      </trkpt>
      <trkpt lat="45.44181" lon="5.38623">
        <ele>560.8</ele>
        <time>2023-08-29T08:22:05Z</time>
      </trkpt>
      <trkpt lat="45.44185" lon="5.3862">
        <ele>560.8</ele>
        <time>2023-08-29T08:22:06Z</time>
      </trkpt>
      <trkpt lat="45.4419" lon="5.38615">
        <ele>560.6</ele>
        <time>2023-08-29T08:22:07Z</time>
      </trkpt>
      <trkpt lat="45.44194" lon="5.38611">
        <ele>560.6</ele>
        <time>2023-08-29T08:22:08Z</time>
      </trkpt>
      <trkpt lat="45.44198" lon="5.38607">
        <ele>560.6</ele>
        <time>2023-08-29T08:22:09Z</time>
      </trkpt>
      <trkpt lat="45.44202" lon="5.38603">
        <ele>560.6</ele>
        <time>2023-08-29T08:22:10Z</time>
      </trkpt>
      <trkpt lat="45.44206" lon="5.38599">
        <ele>560.6</ele>
        <time>2023-08-29T08:22:11Z</time>
      </trkpt>
      <trkpt lat="45.4421" lon="5.38595">
        <ele>560.6</ele>
        <time>2023-08-29T08:22:12Z</time>
      </trkpt>
      <trkpt lat="45.44215" lon="5.38591">
        <ele>560.6</ele>
        <time>2023-08-29T08:22:13Z</time>
      </trkpt>
      <trkpt lat="45.44219" lon="5.38588">
        <ele>560.6</ele>
        <time>2023-08-29T08:22:14Z</time>
      </trkpt>
      <trkpt lat="45.44224" lon="5.38585">
        <ele>560.6</ele>
        <time>2023-08-29T08:22:15Z</time>
      </trkpt>
      <trkpt lat="45.44228" lon="5.38581">
        <ele>560.6</ele>
        <time>2023-08-29T08:22:16Z</time>
      </trkpt>
      <trkpt lat="45.44233" lon="5.38579">
        <ele>560.6</ele>
        <time>2023-08-29T08:22:17Z</time>
      </trkpt>
      <trkpt lat="45.44237" lon="5.38576">
        <ele>560.8</ele>
        <time>2023-08-29T08:22:18Z</time>
      </trkpt>
      <trkpt lat="45.44242" lon="5.38573">
        <ele>561</ele>
        <time>2023-08-29T08:22:19Z</time>
      </trkpt>
      <trkpt lat="45.44247" lon="5.3857">
        <ele>561.2</ele>
        <time>2023-08-29T08:22:20Z</time>
      </trkpt>
      <trkpt lat="45.44251" lon="5.38567">
        <ele>561.4</ele>
        <time>2023-08-29T08:22:21Z</time>
      </trkpt>
      <trkpt lat="45.44256" lon="5.38565">
        <ele>561.8</ele>
        <time>2023-08-29T08:22:22Z</time>
      </trkpt>
      <trkpt lat="45.44261" lon="5.38563">
        <ele>561.8</ele>
        <time>2023-08-29T08:22:23Z</time>
      </trkpt>
      <trkpt lat="45.44265" lon="5.3856">
        <ele>561.8</ele>
        <time>2023-08-29T08:22:24Z</time>
      </trkpt>
      <trkpt lat="45.4427" lon="5.38556">
        <ele>562</ele>
        <time>2023-08-29T08:22:25Z</time>
      </trkpt>
      <trkpt lat="45.44275" lon="5.38554">
        <ele>562.2</ele>
        <time>2023-08-29T08:22:26Z</time>
      </trkpt>
      <trkpt lat="45.4428" lon="5.38552">
        <ele>562.2</ele>
        <time>2023-08-29T08:22:27Z</time>
      </trkpt>
      <trkpt lat="45.44284" lon="5.38549">
        <ele>562.6</ele>
        <time>2023-08-29T08:22:28Z</time>
      </trkpt>
      <trkpt lat="45.44289" lon="5.38547">
        <ele>562.6</ele>
        <time>2023-08-29T08:22:29Z</time>
      </trkpt>
      <trkpt lat="45.44294" lon="5.38544">
        <ele>562.8</ele>
        <time>2023-08-29T08:22:30Z</time>
      </trkpt>
      <trkpt lat="45.44299" lon="5.38541">
        <ele>563</ele>
        <time>2023-08-29T08:22:31Z</time>
      </trkpt>
      <trkpt lat="45.44304" lon="5.38538">
        <ele>563.2</ele>
        <time>2023-08-29T08:22:32Z</time>
      </trkpt>
      <trkpt lat="45.44309" lon="5.38535">
        <ele>563.2</ele>
        <time>2023-08-29T08:22:33Z</time>
      </trkpt>
      <trkpt lat="45.44314" lon="5.38533">
        <ele>563.2</ele>
        <time>2023-08-29T08:22:34Z</time>
      </trkpt>
      <trkpt lat="45.44319" lon="5.3853">
        <ele>563.2</ele>
        <time>2023-08-29T08:22:35Z</time>
      </trkpt>
      <trkpt lat="45.44323" lon="5.38527">
        <ele>563.2</ele>
        <time>2023-08-29T08:22:36Z</time>
      </trkpt>
      <trkpt lat="45.44328" lon="5.38523">
        <ele>563.2</ele>
        <time>2023-08-29T08:22:37Z</time>
      </trkpt>
      <trkpt lat="45.44332" lon="5.38519">
        <ele>563.6</ele>
        <time>2023-08-29T08:22:38Z</time>
      </trkpt>
      <trkpt lat="45.44337" lon="5.38515">
        <ele>563.6</ele>
        <time>2023-08-29T08:22:39Z</time>
      </trkpt>
      <trkpt lat="45.44341" lon="5.3851">
        <ele>564</ele>
        <time>2023-08-29T08:22:40Z</time>
      </trkpt>
      <trkpt lat="45.44345" lon="5.38505">
        <ele>564.4</ele>
        <time>2023-08-29T08:22:41Z</time>
      </trkpt>
      <trkpt lat="45.44348" lon="5.385">
        <ele>564.6</ele>
        <time>2023-08-29T08:22:42Z</time>
      </trkpt>
      <trkpt lat="45.44352" lon="5.38495">
        <ele>564.6</ele>
        <time>2023-08-29T08:22:43Z</time>
      </trkpt>
      <trkpt lat="45.44355" lon="5.3849">
        <ele>564.6</ele>
        <time>2023-08-29T08:22:44Z</time>
      </trkpt>
      <trkpt lat="45.44358" lon="5.38484">
        <ele>564.8</ele>
        <time>2023-08-29T08:22:45Z</time>
      </trkpt>
      <trkpt lat="45.44361" lon="5.38479">
        <ele>564.8</ele>
        <time>2023-08-29T08:22:46Z</time>
      </trkpt>
      <trkpt lat="45.44365" lon="5.38475">
        <ele>564.8</ele>
        <time>2023-08-29T08:22:47Z</time>
      </trkpt>
      <trkpt lat="45.44369" lon="5.3847">
        <ele>564.8</ele>
        <time>2023-08-29T08:22:48Z</time>
      </trkpt>
      <trkpt lat="45.44372" lon="5.38465">
        <ele>564.6</ele>
        <time>2023-08-29T08:22:49Z</time>
      </trkpt>
      <trkpt lat="45.44375" lon="5.3846">
        <ele>564.4</ele>
        <time>2023-08-29T08:22:50Z</time>
      </trkpt>
      <trkpt lat="45.44378" lon="5.38455">
        <ele>564.4</ele>
        <time>2023-08-29T08:22:51Z</time>
      </trkpt>
      <trkpt lat="45.44381" lon="5.38451">
        <ele>564.4</ele>
        <time>2023-08-29T08:22:52Z</time>
      </trkpt>
      <trkpt lat="45.44384" lon="5.38447">
        <ele>564.4</ele>
        <time>2023-08-29T08:22:53Z</time>
      </trkpt>
      <trkpt lat="45.44388" lon="5.38443">
        <ele>564.4</ele>
        <time>2023-08-29T08:22:54Z</time>
      </trkpt>
      <trkpt lat="45.4439" lon="5.38439">
        <ele>564.4</ele>
        <time>2023-08-29T08:22:55Z</time>
      </trkpt>
      <trkpt lat="45.44393" lon="5.38434">
        <ele>564.8</ele>
        <time>2023-08-29T08:22:56Z</time>
      </trkpt>
      <trkpt lat="45.44396" lon="5.3843">
        <ele>565.2</ele>
        <time>2023-08-29T08:22:57Z</time>
      </trkpt>
      <trkpt lat="45.44399" lon="5.38426">
        <ele>565.8</ele>
        <time>2023-08-29T08:22:58Z</time>
      </trkpt>
      <trkpt lat="45.44402" lon="5.38422">
        <ele>566</ele>
        <time>2023-08-29T08:22:59Z</time>
      </trkpt>
      <trkpt lat="45.44405" lon="5.38419">
        <ele>566.4</ele>
        <time>2023-08-29T08:23:00Z</time>
      </trkpt>
      <trkpt lat="45.44408" lon="5.38414">
        <ele>566.8</ele>
        <time>2023-08-29T08:23:01Z</time>
      </trkpt>
      <trkpt lat="45.44411" lon="5.38411">
        <ele>567.2</ele>
        <time>2023-08-29T08:23:02Z</time>
      </trkpt>
      <trkpt lat="45.44414" lon="5.38407">
        <ele>567.6</ele>
        <time>2023-08-29T08:23:03Z</time>
      </trkpt>
      <trkpt lat="45.44417" lon="5.38403">
        <ele>568</ele>
        <time>2023-08-29T08:23:04Z</time>
      </trkpt>
      <trkpt lat="45.4442" lon="5.38399">
        <ele>568</ele>
        <time>2023-08-29T08:23:05Z</time>
      </trkpt>
      <trkpt lat="45.44423" lon="5.38395">
        <ele>568.6</ele>
        <time>2023-08-29T08:23:06Z</time>
      </trkpt>
      <trkpt lat="45.44426" lon="5.38392">
        <ele>568.8</ele>
        <time>2023-08-29T08:23:07Z</time>
      </trkpt>
      <trkpt lat="45.44429" lon="5.38388">
        <ele>569.2</ele>
        <time>2023-08-29T08:23:08Z</time>
      </trkpt>
      <trkpt lat="45.44433" lon="5.38385">
        <ele>569.4</ele>
        <time>2023-08-29T08:23:09Z</time>
      </trkpt>
      <trkpt lat="45.44436" lon="5.38382">
        <ele>569.6</ele>
        <time>2023-08-29T08:23:10Z</time>
      </trkpt>
      <trkpt lat="45.44439" lon="5.38379">
        <ele>570</ele>
        <time>2023-08-29T08:23:11Z</time>
      </trkpt>
      <trkpt lat="45.44443" lon="5.38376">
        <ele>570.4</ele>
        <time>2023-08-29T08:23:12Z</time>
      </trkpt>
      <trkpt lat="45.44446" lon="5.38373">
        <ele>570.6</ele>
        <time>2023-08-29T08:23:13Z</time>
      </trkpt>
      <trkpt lat="45.4445" lon="5.38371">
        <ele>570.8</ele>
        <time>2023-08-29T08:23:14Z</time>
      </trkpt>
      <trkpt lat="45.44453" lon="5.38368">
        <ele>570.8</ele>
        <time>2023-08-29T08:23:15Z</time>
      </trkpt>
      <trkpt lat="45.44457" lon="5.38366">
        <ele>571.2</ele>
        <time>2023-08-29T08:23:16Z</time>
      </trkpt>
      <trkpt lat="45.44461" lon="5.38364">
        <ele>571.4</ele>
        <time>2023-08-29T08:23:17Z</time>
      </trkpt>
      <trkpt lat="45.44464" lon="5.38362">
        <ele>571.6</ele>
        <time>2023-08-29T08:23:18Z</time>
      </trkpt>
      <trkpt lat="45.44468" lon="5.3836">
        <ele>572</ele>
        <time>2023-08-29T08:23:19Z</time>
      </trkpt>
      <trkpt lat="45.44472" lon="5.38359">
        <ele>572.2</ele>
        <time>2023-08-29T08:23:20Z</time>
      </trkpt>
      <trkpt lat="45.44476" lon="5.38358">
        <ele>572.2</ele>
        <time>2023-08-29T08:23:21Z</time>
      </trkpt>
      <trkpt lat="45.4448" lon="5.38357">
        <ele>572.2</ele>
        <time>2023-08-29T08:23:22Z</time>
      </trkpt>
      <trkpt lat="45.44484" lon="5.38356">
        <ele>572.2</ele>
        <time>2023-08-29T08:23:23Z</time>
      </trkpt>
      <trkpt lat="45.44489" lon="5.38356">
        <ele>572.2</ele>
        <time>2023-08-29T08:23:24Z</time>
      </trkpt>
      <trkpt lat="45.44495" lon="5.38356">
        <ele>572</ele>
        <time>2023-08-29T08:23:25Z</time>
      </trkpt>
      <trkpt lat="45.445" lon="5.38357">
        <ele>572</ele>
        <time>2023-08-29T08:23:26Z</time>
      </trkpt>
      <trkpt lat="45.44505" lon="5.38358">
        <ele>571.8</ele>
        <time>2023-08-29T08:23:27Z</time>
      </trkpt>
      <trkpt lat="45.4451" lon="5.3836">
        <ele>571.4</ele>
        <time>2023-08-29T08:23:28Z</time>
      </trkpt>
      <trkpt lat="45.44515" lon="5.38361">
        <ele>571</ele>
        <time>2023-08-29T08:23:29Z</time>
      </trkpt>
      <trkpt lat="45.4452" lon="5.38362">
        <ele>571</ele>
        <time>2023-08-29T08:23:30Z</time>
      </trkpt>
      <trkpt lat="45.44525" lon="5.38364">
        <ele>571</ele>
        <time>2023-08-29T08:23:31Z</time>
      </trkpt>
      <trkpt lat="45.4453" lon="5.38365">
        <ele>571</ele>
        <time>2023-08-29T08:23:32Z</time>
      </trkpt>
      <trkpt lat="45.44535" lon="5.38366">
        <ele>571.2</ele>
        <time>2023-08-29T08:23:33Z</time>
      </trkpt>
      <trkpt lat="45.4454" lon="5.38368">
        <ele>571.2</ele>
        <time>2023-08-29T08:23:34Z</time>
      </trkpt>
      <trkpt lat="45.44544" lon="5.38369">
        <ele>571.4</ele>
        <time>2023-08-29T08:23:35Z</time>
      </trkpt>
      <trkpt lat="45.44549" lon="5.3837">
        <ele>571.4</ele>
        <time>2023-08-29T08:23:36Z</time>
      </trkpt>
      <trkpt lat="45.44554" lon="5.38371">
        <ele>571.4</ele>
        <time>2023-08-29T08:23:37Z</time>
      </trkpt>
      <trkpt lat="45.44559" lon="5.38372">
        <ele>571.4</ele>
        <time>2023-08-29T08:23:38Z</time>
      </trkpt>
      <trkpt lat="45.44564" lon="5.38373">
        <ele>571.2</ele>
        <time>2023-08-29T08:23:39Z</time>
      </trkpt>
      <trkpt lat="45.44568" lon="5.38374">
        <ele>571.2</ele>
        <time>2023-08-29T08:23:40Z</time>
      </trkpt>
      <trkpt lat="45.44573" lon="5.38374">
        <ele>571.2</ele>
        <time>2023-08-29T08:23:41Z</time>
      </trkpt>
      <trkpt lat="45.44578" lon="5.38375">
        <ele>571.4</ele>
        <time>2023-08-29T08:23:42Z</time>
      </trkpt>
      <trkpt lat="45.44583" lon="5.38376">
        <ele>571.6</ele>
        <time>2023-08-29T08:23:43Z</time>
      </trkpt>
      <trkpt lat="45.44587" lon="5.38378">
        <ele>572.2</ele>
        <time>2023-08-29T08:23:44Z</time>
      </trkpt>
      <trkpt lat="45.44592" lon="5.3838">
        <ele>572.2</ele>
        <time>2023-08-29T08:23:45Z</time>
      </trkpt>
      <trkpt lat="45.44596" lon="5.38382">
        <ele>572.2</ele>
        <time>2023-08-29T08:23:46Z</time>
      </trkpt>
      <trkpt lat="45.446" lon="5.38384">
        <ele>572.2</ele>
        <time>2023-08-29T08:23:47Z</time>
      </trkpt>
      <trkpt lat="45.44605" lon="5.38387">
        <ele>572.4</ele>
        <time>2023-08-29T08:23:48Z</time>
      </trkpt>
      <trkpt lat="45.44609" lon="5.3839">
        <ele>572.4</ele>
        <time>2023-08-29T08:23:49Z</time>
      </trkpt>
      <trkpt lat="45.44613" lon="5.38394">
        <ele>573.2</ele>
        <time>2023-08-29T08:23:50Z</time>
      </trkpt>
      <trkpt lat="45.44617" lon="5.38397">
        <ele>573.2</ele>
        <time>2023-08-29T08:23:51Z</time>
      </trkpt>
      <trkpt lat="45.44621" lon="5.38401">
        <ele>573.2</ele>
        <time>2023-08-29T08:23:52Z</time>
      </trkpt>
      <trkpt lat="45.44625" lon="5.38405">
        <ele>573.6</ele>
        <time>2023-08-29T08:23:53Z</time>
      </trkpt>
      <trkpt lat="45.44628" lon="5.38409">
        <ele>573.6</ele>
        <time>2023-08-29T08:23:54Z</time>
      </trkpt>
      <trkpt lat="45.44631" lon="5.38414">
        <ele>573.8</ele>
        <time>2023-08-29T08:23:55Z</time>
      </trkpt>
      <trkpt lat="45.44634" lon="5.38418">
        <ele>574.2</ele>
        <time>2023-08-29T08:23:56Z</time>
      </trkpt>
      <trkpt lat="45.44637" lon="5.38423">
        <ele>574.2</ele>
        <time>2023-08-29T08:23:57Z</time>
      </trkpt>
      <trkpt lat="45.4464" lon="5.38427">
        <ele>574.2</ele>
        <time>2023-08-29T08:23:58Z</time>
      </trkpt>
      <trkpt lat="45.44644" lon="5.38432">
        <ele>574.2</ele>
        <time>2023-08-29T08:23:59Z</time>
      </trkpt>
      <trkpt lat="45.44647" lon="5.38436">
        <ele>574.4</ele>
        <time>2023-08-29T08:24:00Z</time>
      </trkpt>
      <trkpt lat="45.4465" lon="5.38441">
        <ele>574.4</ele>
        <time>2023-08-29T08:24:01Z</time>
      </trkpt>
      <trkpt lat="45.44653" lon="5.38445">
        <ele>574.4</ele>
        <time>2023-08-29T08:24:02Z</time>
      </trkpt>
      <trkpt lat="45.44656" lon="5.38449">
        <ele>574.6</ele>
        <time>2023-08-29T08:24:03Z</time>
      </trkpt>
      <trkpt lat="45.44659" lon="5.38453">
        <ele>575</ele>
        <time>2023-08-29T08:24:04Z</time>
      </trkpt>
      <trkpt lat="45.44663" lon="5.38457">
        <ele>575.2</ele>
        <time>2023-08-29T08:24:05Z</time>
      </trkpt>
      <trkpt lat="45.44667" lon="5.38461">
        <ele>575.8</ele>
        <time>2023-08-29T08:24:06Z</time>
      </trkpt>
      <trkpt lat="45.44671" lon="5.38464">
        <ele>576.2</ele>
        <time>2023-08-29T08:24:07Z</time>
      </trkpt>
      <trkpt lat="45.44675" lon="5.38467">
        <ele>576.4</ele>
        <time>2023-08-29T08:24:08Z</time>
      </trkpt>
      <trkpt lat="45.44679" lon="5.38469">
        <ele>576.4</ele>
        <time>2023-08-29T08:24:09Z</time>
      </trkpt>
      <trkpt lat="45.44683" lon="5.38472">
        <ele>576.4</ele>
        <time>2023-08-29T08:24:10Z</time>
      </trkpt>
      <trkpt lat="45.44687" lon="5.38475">
        <ele>576.4</ele>
        <time>2023-08-29T08:24:11Z</time>
      </trkpt>
      <trkpt lat="45.44691" lon="5.38476">
        <ele>576.4</ele>
        <time>2023-08-29T08:24:12Z</time>
      </trkpt>
      <trkpt lat="45.44695" lon="5.38478">
        <ele>577</ele>
        <time>2023-08-29T08:24:13Z</time>
      </trkpt>
      <trkpt lat="45.44699" lon="5.3848">
        <ele>577.2</ele>
        <time>2023-08-29T08:24:14Z</time>
      </trkpt>
      <trkpt lat="45.44703" lon="5.38482">
        <ele>577.6</ele>
        <time>2023-08-29T08:24:15Z</time>
      </trkpt>
      <trkpt lat="45.44707" lon="5.38483">
        <ele>577.8</ele>
        <time>2023-08-29T08:24:16Z</time>
      </trkpt>
      <trkpt lat="45.44711" lon="5.38483">
        <ele>578</ele>
        <time>2023-08-29T08:24:17Z</time>
      </trkpt>
      <trkpt lat="45.44715" lon="5.38485">
        <ele>578.2</ele>
        <time>2023-08-29T08:24:18Z</time>
      </trkpt>
      <trkpt lat="45.4472" lon="5.38486">
        <ele>578.6</ele>
        <time>2023-08-29T08:24:19Z</time>
      </trkpt>
      <trkpt lat="45.44724" lon="5.38487">
        <ele>579</ele>
        <time>2023-08-29T08:24:20Z</time>
      </trkpt>
      <trkpt lat="45.44728" lon="5.38488">
        <ele>579.2</ele>
        <time>2023-08-29T08:24:21Z</time>
      </trkpt>
      <trkpt lat="45.44732" lon="5.38489">
        <ele>579.6</ele>
        <time>2023-08-29T08:24:22Z</time>
      </trkpt>
      <trkpt lat="45.44737" lon="5.3849">
        <ele>579.8</ele>
        <time>2023-08-29T08:24:23Z</time>
      </trkpt>
      <trkpt lat="45.44741" lon="5.38491">
        <ele>580</ele>
        <time>2023-08-29T08:24:24Z</time>
      </trkpt>
      <trkpt lat="45.44745" lon="5.38491">
        <ele>580.2</ele>
        <time>2023-08-29T08:24:25Z</time>
      </trkpt>
      <trkpt lat="45.4475" lon="5.38492">
        <ele>580.4</ele>
        <time>2023-08-29T08:24:26Z</time>
      </trkpt>
      <trkpt lat="45.44754" lon="5.38493">
        <ele>580.4</ele>
        <time>2023-08-29T08:24:27Z</time>
      </trkpt>
      <trkpt lat="45.44759" lon="5.38493">
        <ele>580.6</ele>
        <time>2023-08-29T08:24:28Z</time>
      </trkpt>
      <trkpt lat="45.44764" lon="5.38493">
        <ele>580.6</ele>
        <time>2023-08-29T08:24:29Z</time>
      </trkpt>
      <trkpt lat="45.44768" lon="5.38493">
        <ele>581</ele>
        <time>2023-08-29T08:24:30Z</time>
      </trkpt>
      <trkpt lat="45.44772" lon="5.38493">
        <ele>581</ele>
        <time>2023-08-29T08:24:31Z</time>
      </trkpt>
      <trkpt lat="45.44777" lon="5.38493">
        <ele>581.4</ele>
        <time>2023-08-29T08:24:32Z</time>
      </trkpt>
      <trkpt lat="45.44782" lon="5.38494">
        <ele>581.8</ele>
        <time>2023-08-29T08:24:33Z</time>
      </trkpt>
      <trkpt lat="45.44786" lon="5.38494">
        <ele>582</ele>
        <time>2023-08-29T08:24:34Z</time>
      </trkpt>
      <trkpt lat="45.4479" lon="5.38495">
        <ele>582.4</ele>
        <time>2023-08-29T08:24:35Z</time>
      </trkpt>
      <trkpt lat="45.44795" lon="5.38496">
        <ele>582.6</ele>
        <time>2023-08-29T08:24:36Z</time>
      </trkpt>
      <trkpt lat="45.44799" lon="5.38496">
        <ele>582.6</ele>
        <time>2023-08-29T08:24:37Z</time>
      </trkpt>
      <trkpt lat="45.44803" lon="5.38497">
        <ele>583</ele>
        <time>2023-08-29T08:24:38Z</time>
      </trkpt>
      <trkpt lat="45.44807" lon="5.38497">
        <ele>583.2</ele>
        <time>2023-08-29T08:24:39Z</time>
      </trkpt>
      <trkpt lat="45.44811" lon="5.38497">
        <ele>583.4</ele>
        <time>2023-08-29T08:24:40Z</time>
      </trkpt>
      <trkpt lat="45.44816" lon="5.38498">
        <ele>583.8</ele>
        <time>2023-08-29T08:24:41Z</time>
      </trkpt>
      <trkpt lat="45.4482" lon="5.38498">
        <ele>583.8</ele>
        <time>2023-08-29T08:24:42Z</time>
      </trkpt>
      <trkpt lat="45.44825" lon="5.38498">
        <ele>583.8</ele>
        <time>2023-08-29T08:24:43Z</time>
      </trkpt>
      <trkpt lat="45.4483" lon="5.38498">
        <ele>583.8</ele>
        <time>2023-08-29T08:24:44Z</time>
      </trkpt>
      <trkpt lat="45.44835" lon="5.38498">
        <ele>583.8</ele>
        <time>2023-08-29T08:24:45Z</time>
      </trkpt>
      <trkpt lat="45.4484" lon="5.38497">
        <ele>583.6</ele>
        <time>2023-08-29T08:24:46Z</time>
      </trkpt>
      <trkpt lat="45.44846" lon="5.38497">
        <ele>583.4</ele>
        <time>2023-08-29T08:24:47Z</time>
      </trkpt>
      <trkpt lat="45.44851" lon="5.38496">
        <ele>583.4</ele>
        <time>2023-08-29T08:24:48Z</time>
      </trkpt>
      <trkpt lat="45.44856" lon="5.38496">
        <ele>583.4</ele>
        <time>2023-08-29T08:24:49Z</time>
      </trkpt>
      <trkpt lat="45.44861" lon="5.38495">
        <ele>583.4</ele>
        <time>2023-08-29T08:24:50Z</time>
      </trkpt>
      <trkpt lat="45.44867" lon="5.38495">
        <ele>583.4</ele>
        <time>2023-08-29T08:24:51Z</time>
      </trkpt>
      <trkpt lat="45.44873" lon="5.38494">
        <ele>583.4</ele>
        <time>2023-08-29T08:24:52Z</time>
      </trkpt>
      <trkpt lat="45.44878" lon="5.38494">
        <ele>583.2</ele>
        <time>2023-08-29T08:24:53Z</time>
      </trkpt>
      <trkpt lat="45.44884" lon="5.38494">
        <ele>583</ele>
        <time>2023-08-29T08:24:54Z</time>
      </trkpt>
      <trkpt lat="45.44889" lon="5.38493">
        <ele>582.6</ele>
        <time>2023-08-29T08:24:55Z</time>
      </trkpt>
      <trkpt lat="45.44895" lon="5.38493">
        <ele>582.4</ele>
        <time>2023-08-29T08:24:56Z</time>
      </trkpt>
      <trkpt lat="45.449" lon="5.38492">
        <ele>582.2</ele>
        <time>2023-08-29T08:24:57Z</time>
      </trkpt>
      <trkpt lat="45.44905" lon="5.38491">
        <ele>582.2</ele>
        <time>2023-08-29T08:24:58Z</time>
      </trkpt>
      <trkpt lat="45.4491" lon="5.38491">
        <ele>582.2</ele>
        <time>2023-08-29T08:24:59Z</time>
      </trkpt>
      <trkpt lat="45.44915" lon="5.3849">
        <ele>582.2</ele>
        <time>2023-08-29T08:25:00Z</time>
      </trkpt>
      <trkpt lat="45.44921" lon="5.38488">
        <ele>582.2</ele>
        <time>2023-08-29T08:25:01Z</time>
      </trkpt>
      <trkpt lat="45.44926" lon="5.38487">
        <ele>582.2</ele>
        <time>2023-08-29T08:25:02Z</time>
      </trkpt>
      <trkpt lat="45.44931" lon="5.38486">
        <ele>582.2</ele>
        <time>2023-08-29T08:25:03Z</time>
      </trkpt>
      <trkpt lat="45.44936" lon="5.38484">
        <ele>582.2</ele>
        <time>2023-08-29T08:25:04Z</time>
      </trkpt>
      <trkpt lat="45.44941" lon="5.38482">
        <ele>582.2</ele>
        <time>2023-08-29T08:25:05Z</time>
      </trkpt>
      <trkpt lat="45.44946" lon="5.38481">
        <ele>582.2</ele>
        <time>2023-08-29T08:25:06Z</time>
      </trkpt>
      <trkpt lat="45.44952" lon="5.38479">
        <ele>581.8</ele>
        <time>2023-08-29T08:25:07Z</time>
      </trkpt>
      <trkpt lat="45.44957" lon="5.38477">
        <ele>581.8</ele>
        <time>2023-08-29T08:25:08Z</time>
      </trkpt>
      <trkpt lat="45.44961" lon="5.38476">
        <ele>581.8</ele>
        <time>2023-08-29T08:25:09Z</time>
      </trkpt>
      <trkpt lat="45.44966" lon="5.38474">
        <ele>581.8</ele>
        <time>2023-08-29T08:25:10Z</time>
      </trkpt>
      <trkpt lat="45.44971" lon="5.38474">
        <ele>581.8</ele>
        <time>2023-08-29T08:25:11Z</time>
      </trkpt>
      <trkpt lat="45.44976" lon="5.38473">
        <ele>581.8</ele>
        <time>2023-08-29T08:25:12Z</time>
      </trkpt>
      <trkpt lat="45.44981" lon="5.38472">
        <ele>581.8</ele>
        <time>2023-08-29T08:25:13Z</time>
      </trkpt>
      <trkpt lat="45.44987" lon="5.38472">
        <ele>582.2</ele>
        <time>2023-08-29T08:25:14Z</time>
      </trkpt>
      <trkpt lat="45.44992" lon="5.38472">
        <ele>582.4</ele>
        <time>2023-08-29T08:25:15Z</time>
      </trkpt>
      <trkpt lat="45.44998" lon="5.38471">
        <ele>582.4</ele>
        <time>2023-08-29T08:25:16Z</time>
      </trkpt>
      <trkpt lat="45.45004" lon="5.3847">
        <ele>582.4</ele>
        <time>2023-08-29T08:25:17Z</time>
      </trkpt>
      <trkpt lat="45.4501" lon="5.3847">
        <ele>582.4</ele>
        <time>2023-08-29T08:25:18Z</time>
      </trkpt>
      <trkpt lat="45.45015" lon="5.3847">
        <ele>582</ele>
        <time>2023-08-29T08:25:19Z</time>
      </trkpt>
      <trkpt lat="45.45021" lon="5.3847">
        <ele>581.6</ele>
        <time>2023-08-29T08:25:20Z</time>
      </trkpt>
      <trkpt lat="45.45027" lon="5.3847">
        <ele>581.6</ele>
        <time>2023-08-29T08:25:21Z</time>
      </trkpt>
      <trkpt lat="45.45032" lon="5.38471">
        <ele>581.6</ele>
        <time>2023-08-29T08:25:22Z</time>
      </trkpt>
      <trkpt lat="45.45037" lon="5.38473">
        <ele>581.6</ele>
        <time>2023-08-29T08:25:23Z</time>
      </trkpt>
      <trkpt lat="45.45043" lon="5.38474">
        <ele>581.4</ele>
        <time>2023-08-29T08:25:24Z</time>
      </trkpt>
      <trkpt lat="45.45047" lon="5.38476">
        <ele>581.2</ele>
        <time>2023-08-29T08:25:25Z</time>
      </trkpt>
      <trkpt lat="45.45052" lon="5.38477">
        <ele>581.2</ele>
        <time>2023-08-29T08:25:26Z</time>
      </trkpt>
      <trkpt lat="45.45057" lon="5.38478">
        <ele>581.2</ele>
        <time>2023-08-29T08:25:27Z</time>
      </trkpt>
      <trkpt lat="45.45062" lon="5.3848">
        <ele>581.2</ele>
        <time>2023-08-29T08:25:28Z</time>
      </trkpt>
      <trkpt lat="45.45067" lon="5.38482">
        <ele>581.2</ele>
        <time>2023-08-29T08:25:29Z</time>
      </trkpt>
      <trkpt lat="45.45071" lon="5.38484">
        <ele>581.4</ele>
        <time>2023-08-29T08:25:30Z</time>
      </trkpt>
      <trkpt lat="45.45075" lon="5.38485">
        <ele>581.8</ele>
        <time>2023-08-29T08:25:31Z</time>
      </trkpt>
      <trkpt lat="45.4508" lon="5.38488">
        <ele>582.4</ele>
        <time>2023-08-29T08:25:32Z</time>
      </trkpt>
      <trkpt lat="45.45085" lon="5.3849">
        <ele>582.4</ele>
        <time>2023-08-29T08:25:33Z</time>
      </trkpt>
      <trkpt lat="45.45091" lon="5.38493">
        <ele>582.4</ele>
        <time>2023-08-29T08:25:34Z</time>
      </trkpt>
      <trkpt lat="45.45096" lon="5.38496">
        <ele>582.4</ele>
        <time>2023-08-29T08:25:35Z</time>
      </trkpt>
      <trkpt lat="45.45101" lon="5.38498">
        <ele>582.4</ele>
        <time>2023-08-29T08:25:36Z</time>
      </trkpt>
      <trkpt lat="45.45107" lon="5.38501">
        <ele>582.4</ele>
        <time>2023-08-29T08:25:37Z</time>
      </trkpt>
      <trkpt lat="45.45112" lon="5.38502">
        <ele>582.4</ele>
        <time>2023-08-29T08:25:38Z</time>
      </trkpt>
      <trkpt lat="45.45117" lon="5.38502">
        <ele>582.4</ele>
        <time>2023-08-29T08:25:39Z</time>
      </trkpt>
      <trkpt lat="45.45122" lon="5.38502">
        <ele>582.4</ele>
        <time>2023-08-29T08:25:40Z</time>
      </trkpt>
      <trkpt lat="45.45128" lon="5.38501">
        <ele>582.4</ele>
        <time>2023-08-29T08:25:41Z</time>
      </trkpt>
      <trkpt lat="45.45133" lon="5.38499">
        <ele>582.6</ele>
        <time>2023-08-29T08:25:42Z</time>
      </trkpt>
      <trkpt lat="45.45139" lon="5.38497">
        <ele>582.6</ele>
        <time>2023-08-29T08:25:43Z</time>
      </trkpt>
      <trkpt lat="45.45144" lon="5.38496">
        <ele>582.6</ele>
        <time>2023-08-29T08:25:44Z</time>
      </trkpt>
      <trkpt lat="45.45149" lon="5.38493">
        <ele>582.6</ele>
        <time>2023-08-29T08:25:45Z</time>
      </trkpt>
      <trkpt lat="45.45154" lon="5.38488">
        <ele>582.2</ele>
        <time>2023-08-29T08:25:46Z</time>
      </trkpt>
      <trkpt lat="45.45159" lon="5.38482">
        <ele>582.2</ele>
        <time>2023-08-29T08:25:47Z</time>
      </trkpt>
      <trkpt lat="45.45163" lon="5.38476">
        <ele>582.2</ele>
        <time>2023-08-29T08:25:48Z</time>
      </trkpt>
      <trkpt lat="45.45168" lon="5.3847">
        <ele>582.2</ele>
        <time>2023-08-29T08:25:49Z</time>
      </trkpt>
      <trkpt lat="45.45172" lon="5.38464">
        <ele>582.2</ele>
        <time>2023-08-29T08:25:50Z</time>
      </trkpt>
      <trkpt lat="45.45176" lon="5.38458">
        <ele>582.2</ele>
        <time>2023-08-29T08:25:51Z</time>
      </trkpt>
      <trkpt lat="45.4518" lon="5.38451">
        <ele>582.2</ele>
        <time>2023-08-29T08:25:52Z</time>
      </trkpt>
      <trkpt lat="45.45183" lon="5.38445">
        <ele>582.2</ele>
        <time>2023-08-29T08:25:53Z</time>
      </trkpt>
      <trkpt lat="45.45187" lon="5.38438">
        <ele>582</ele>
        <time>2023-08-29T08:25:54Z</time>
      </trkpt>
      <trkpt lat="45.4519" lon="5.38431">
        <ele>582</ele>
        <time>2023-08-29T08:25:55Z</time>
      </trkpt>
      <trkpt lat="45.45193" lon="5.38425">
        <ele>582</ele>
        <time>2023-08-29T08:25:56Z</time>
      </trkpt>
      <trkpt lat="45.45196" lon="5.38419">
        <ele>582</ele>
        <time>2023-08-29T08:25:57Z</time>
      </trkpt>
      <trkpt lat="45.452" lon="5.38413">
        <ele>582.4</ele>
        <time>2023-08-29T08:25:58Z</time>
      </trkpt>
      <trkpt lat="45.45203" lon="5.38408">
        <ele>582.6</ele>
        <time>2023-08-29T08:25:59Z</time>
      </trkpt>
      <trkpt lat="45.45206" lon="5.38401">
        <ele>583</ele>
        <time>2023-08-29T08:26:00Z</time>
      </trkpt>
      <trkpt lat="45.45209" lon="5.38396">
        <ele>583.4</ele>
        <time>2023-08-29T08:26:01Z</time>
      </trkpt>
      <trkpt lat="45.45212" lon="5.38391">
        <ele>583.6</ele>
        <time>2023-08-29T08:26:02Z</time>
      </trkpt>
      <trkpt lat="45.45215" lon="5.38385">
        <ele>584</ele>
        <time>2023-08-29T08:26:03Z</time>
      </trkpt>
      <trkpt lat="45.45218" lon="5.3838">
        <ele>584.4</ele>
        <time>2023-08-29T08:26:04Z</time>
      </trkpt>
      <trkpt lat="45.4522" lon="5.38374">
        <ele>584.6</ele>
        <time>2023-08-29T08:26:05Z</time>
      </trkpt>
      <trkpt lat="45.45223" lon="5.38369">
        <ele>584.8</ele>
        <time>2023-08-29T08:26:06Z</time>
      </trkpt>
      <trkpt lat="45.45226" lon="5.38365">
        <ele>585</ele>
        <time>2023-08-29T08:26:07Z</time>
      </trkpt>
      <trkpt lat="45.45229" lon="5.3836">
        <ele>585.2</ele>
        <time>2023-08-29T08:26:08Z</time>
      </trkpt>
      <trkpt lat="45.45231" lon="5.38355">
        <ele>585.4</ele>
        <time>2023-08-29T08:26:09Z</time>
      </trkpt>
      <trkpt lat="45.45234" lon="5.3835">
        <ele>585.6</ele>
        <time>2023-08-29T08:26:10Z</time>
      </trkpt>
      <trkpt lat="45.45236" lon="5.38345">
        <ele>585.6</ele>
        <time>2023-08-29T08:26:11Z</time>
      </trkpt>
      <trkpt lat="45.45239" lon="5.3834">
        <ele>585.8</ele>
        <time>2023-08-29T08:26:12Z</time>
      </trkpt>
      <trkpt lat="45.45242" lon="5.38335">
        <ele>585.8</ele>
        <time>2023-08-29T08:26:13Z</time>
      </trkpt>
      <trkpt lat="45.45245" lon="5.3833">
        <ele>585.8</ele>
        <time>2023-08-29T08:26:14Z</time>
      </trkpt>
      <trkpt lat="45.45247" lon="5.38325">
        <ele>585.8</ele>
        <time>2023-08-29T08:26:15Z</time>
      </trkpt>
      <trkpt lat="45.45251" lon="5.3832">
        <ele>585.8</ele>
        <time>2023-08-29T08:26:16Z</time>
      </trkpt>
      <trkpt lat="45.45254" lon="5.38314">
        <ele>586</ele>
        <time>2023-08-29T08:26:17Z</time>
      </trkpt>
      <trkpt lat="45.45256" lon="5.38308">
        <ele>586</ele>
        <time>2023-08-29T08:26:18Z</time>
      </trkpt>
      <trkpt lat="45.45259" lon="5.38303">
        <ele>586.2</ele>
        <time>2023-08-29T08:26:19Z</time>
      </trkpt>
      <trkpt lat="45.45262" lon="5.38298">
        <ele>586.2</ele>
        <time>2023-08-29T08:26:20Z</time>
      </trkpt>
      <trkpt lat="45.45265" lon="5.38292">
        <ele>586.2</ele>
        <time>2023-08-29T08:26:21Z</time>
      </trkpt>
      <trkpt lat="45.45268" lon="5.38286">
        <ele>586.2</ele>
        <time>2023-08-29T08:26:22Z</time>
      </trkpt>
      <trkpt lat="45.45271" lon="5.3828">
        <ele>586.4</ele>
        <time>2023-08-29T08:26:23Z</time>
      </trkpt>
      <trkpt lat="45.45274" lon="5.38274">
        <ele>586.6</ele>
        <time>2023-08-29T08:26:24Z</time>
      </trkpt>
      <trkpt lat="45.45277" lon="5.38268">
        <ele>586.8</ele>
        <time>2023-08-29T08:26:25Z</time>
      </trkpt>
      <trkpt lat="45.45281" lon="5.38261">
        <ele>586.8</ele>
        <time>2023-08-29T08:26:26Z</time>
      </trkpt>
      <trkpt lat="45.45285" lon="5.38254">
        <ele>586.8</ele>
        <time>2023-08-29T08:26:27Z</time>
      </trkpt>
      <trkpt lat="45.45289" lon="5.38247">
        <ele>586.8</ele>
        <time>2023-08-29T08:26:28Z</time>
      </trkpt>
      <trkpt lat="45.45293" lon="5.3824">
        <ele>586.8</ele>
        <time>2023-08-29T08:26:29Z</time>
      </trkpt>
      <trkpt lat="45.45297" lon="5.38233">
        <ele>586.4</ele>
        <time>2023-08-29T08:26:30Z</time>
      </trkpt>
      <trkpt lat="45.45301" lon="5.38225">
        <ele>586</ele>
        <time>2023-08-29T08:26:31Z</time>
      </trkpt>
      <trkpt lat="45.45305" lon="5.38216">
        <ele>586</ele>
        <time>2023-08-29T08:26:32Z</time>
      </trkpt>
      <trkpt lat="45.45309" lon="5.38208">
        <ele>586</ele>
        <time>2023-08-29T08:26:33Z</time>
      </trkpt>
      <trkpt lat="45.45313" lon="5.382">
        <ele>586</ele>
        <time>2023-08-29T08:26:34Z</time>
      </trkpt>
      <trkpt lat="45.45317" lon="5.38192">
        <ele>586</ele>
        <time>2023-08-29T08:26:35Z</time>
      </trkpt>
      <trkpt lat="45.4532" lon="5.38185">
        <ele>586</ele>
        <time>2023-08-29T08:26:36Z</time>
      </trkpt>
      <trkpt lat="45.45323" lon="5.38178">
        <ele>586</ele>
        <time>2023-08-29T08:26:37Z</time>
      </trkpt>
      <trkpt lat="45.45326" lon="5.38171">
        <ele>586</ele>
        <time>2023-08-29T08:26:38Z</time>
      </trkpt>
      <trkpt lat="45.45329" lon="5.38165">
        <ele>586</ele>
        <time>2023-08-29T08:26:39Z</time>
      </trkpt>
      <trkpt lat="45.45332" lon="5.38158">
        <ele>586.2</ele>
        <time>2023-08-29T08:26:40Z</time>
      </trkpt>
      <trkpt lat="45.45335" lon="5.38151">
        <ele>586.4</ele>
        <time>2023-08-29T08:26:41Z</time>
      </trkpt>
      <trkpt lat="45.45337" lon="5.38145">
        <ele>586.4</ele>
        <time>2023-08-29T08:26:42Z</time>
      </trkpt>
      <trkpt lat="45.4534" lon="5.38139">
        <ele>586.6</ele>
        <time>2023-08-29T08:26:43Z</time>
      </trkpt>
      <trkpt lat="45.45344" lon="5.38133">
        <ele>587</ele>
        <time>2023-08-29T08:26:44Z</time>
      </trkpt>
      <trkpt lat="45.45346" lon="5.38129">
        <ele>587.2</ele>
        <time>2023-08-29T08:26:45Z</time>
      </trkpt>
      <trkpt lat="45.45349" lon="5.38124">
        <ele>587.6</ele>
        <time>2023-08-29T08:26:46Z</time>
      </trkpt>
      <trkpt lat="45.45352" lon="5.38119">
        <ele>587.8</ele>
        <time>2023-08-29T08:26:47Z</time>
      </trkpt>
      <trkpt lat="45.45355" lon="5.38114">
        <ele>588</ele>
        <time>2023-08-29T08:26:48Z</time>
      </trkpt>
      <trkpt lat="45.45358" lon="5.3811">
        <ele>588</ele>
        <time>2023-08-29T08:26:49Z</time>
      </trkpt>
      <trkpt lat="45.45361" lon="5.38105">
        <ele>588</ele>
        <time>2023-08-29T08:26:50Z</time>
      </trkpt>
      <trkpt lat="45.45365" lon="5.381">
        <ele>588</ele>
        <time>2023-08-29T08:26:51Z</time>
      </trkpt>
      <trkpt lat="45.45368" lon="5.38095">
        <ele>588</ele>
        <time>2023-08-29T08:26:52Z</time>
      </trkpt>
      <trkpt lat="45.45373" lon="5.38089">
        <ele>588</ele>
        <time>2023-08-29T08:26:53Z</time>
      </trkpt>
      <trkpt lat="45.45378" lon="5.38084">
        <ele>587.8</ele>
        <time>2023-08-29T08:26:54Z</time>
      </trkpt>
      <trkpt lat="45.45384" lon="5.38078">
        <ele>587.6</ele>
        <time>2023-08-29T08:26:55Z</time>
      </trkpt>
      <trkpt lat="45.45391" lon="5.38071">
        <ele>587.2</ele>
        <time>2023-08-29T08:26:56Z</time>
      </trkpt>
      <trkpt lat="45.45397" lon="5.38065">
        <ele>586.8</ele>
        <time>2023-08-29T08:26:57Z</time>
      </trkpt>
      <trkpt lat="45.45404" lon="5.38057">
        <ele>586.2</ele>
        <time>2023-08-29T08:26:58Z</time>
      </trkpt>
      <trkpt lat="45.45411" lon="5.38049">
        <ele>585.6</ele>
        <time>2023-08-29T08:26:59Z</time>
      </trkpt>
      <trkpt lat="45.45419" lon="5.38042">
        <ele>584.6</ele>
        <time>2023-08-29T08:27:00Z</time>
      </trkpt>
      <trkpt lat="45.45426" lon="5.38035">
        <ele>583.6</ele>
        <time>2023-08-29T08:27:01Z</time>
      </trkpt>
      <trkpt lat="45.45433" lon="5.38026">
        <ele>582.4</ele>
        <time>2023-08-29T08:27:02Z</time>
      </trkpt>
      <trkpt lat="45.45441" lon="5.38017">
        <ele>581</ele>
        <time>2023-08-29T08:27:03Z</time>
      </trkpt>
      <trkpt lat="45.45449" lon="5.38006">
        <ele>580</ele>
        <time>2023-08-29T08:27:04Z</time>
      </trkpt>
      <trkpt lat="45.45457" lon="5.37996">
        <ele>578.6</ele>
        <time>2023-08-29T08:27:05Z</time>
      </trkpt>
      <trkpt lat="45.45465" lon="5.37986">
        <ele>577.8</ele>
        <time>2023-08-29T08:27:06Z</time>
      </trkpt>
      <trkpt lat="45.45472" lon="5.37976">
        <ele>576.6</ele>
        <time>2023-08-29T08:27:07Z</time>
      </trkpt>
      <trkpt lat="45.4548" lon="5.37966">
        <ele>575.2</ele>
        <time>2023-08-29T08:27:08Z</time>
      </trkpt>
      <trkpt lat="45.45487" lon="5.37956">
        <ele>573.4</ele>
        <time>2023-08-29T08:27:09Z</time>
      </trkpt>
      <trkpt lat="45.45493" lon="5.37946">
        <ele>572.8</ele>
        <time>2023-08-29T08:27:10Z</time>
      </trkpt>
      <trkpt lat="45.455" lon="5.37936">
        <ele>572.4</ele>
        <time>2023-08-29T08:27:11Z</time>
      </trkpt>
      <trkpt lat="45.45507" lon="5.37926">
        <ele>571.4</ele>
        <time>2023-08-29T08:27:12Z</time>
      </trkpt>
      <trkpt lat="45.45513" lon="5.37916">
        <ele>571</ele>
        <time>2023-08-29T08:27:13Z</time>
      </trkpt>
      <trkpt lat="45.45519" lon="5.37907">
        <ele>570.6</ele>
        <time>2023-08-29T08:27:14Z</time>
      </trkpt>
      <trkpt lat="45.45524" lon="5.37898">
        <ele>570.2</ele>
        <time>2023-08-29T08:27:15Z</time>
      </trkpt>
      <trkpt lat="45.45529" lon="5.3789">
        <ele>569.4</ele>
        <time>2023-08-29T08:27:16Z</time>
      </trkpt>
      <trkpt lat="45.45534" lon="5.37883">
        <ele>569</ele>
        <time>2023-08-29T08:27:17Z</time>
      </trkpt>
      <trkpt lat="45.45538" lon="5.37875">
        <ele>569</ele>
        <time>2023-08-29T08:27:18Z</time>
      </trkpt>
      <trkpt lat="45.45542" lon="5.37868">
        <ele>568.8</ele>
        <time>2023-08-29T08:27:19Z</time>
      </trkpt>
      <trkpt lat="45.45546" lon="5.37862">
        <ele>568.6</ele>
        <time>2023-08-29T08:27:20Z</time>
      </trkpt>
      <trkpt lat="45.4555" lon="5.37856">
        <ele>568.6</ele>
        <time>2023-08-29T08:27:21Z</time>
      </trkpt>
      <trkpt lat="45.45554" lon="5.37854">
        <ele>568.4</ele>
        <time>2023-08-29T08:27:22Z</time>
      </trkpt>
      <trkpt lat="45.45559" lon="5.37853">
        <ele>568.2</ele>
        <time>2023-08-29T08:27:23Z</time>
      </trkpt>
      <trkpt lat="45.45565" lon="5.37856">
        <ele>567.8</ele>
        <time>2023-08-29T08:27:24Z</time>
      </trkpt>
      <trkpt lat="45.45571" lon="5.3786">
        <ele>567.2</ele>
        <time>2023-08-29T08:27:25Z</time>
      </trkpt>
      <trkpt lat="45.45576" lon="5.37863">
        <ele>567</ele>
        <time>2023-08-29T08:27:26Z</time>
      </trkpt>
      <trkpt lat="45.45581" lon="5.37867">
        <ele>566.4</ele>
        <time>2023-08-29T08:27:27Z</time>
      </trkpt>
      <trkpt lat="45.45587" lon="5.3787">
        <ele>566.2</ele>
        <time>2023-08-29T08:27:28Z</time>
      </trkpt>
      <trkpt lat="45.45593" lon="5.37874">
        <ele>566.2</ele>
        <time>2023-08-29T08:27:29Z</time>
      </trkpt>
      <trkpt lat="45.45599" lon="5.37878">
        <ele>566</ele>
        <time>2023-08-29T08:27:30Z</time>
      </trkpt>
      <trkpt lat="45.45605" lon="5.37883">
        <ele>565.6</ele>
        <time>2023-08-29T08:27:31Z</time>
      </trkpt>
      <trkpt lat="45.45611" lon="5.37887">
        <ele>565.4</ele>
        <time>2023-08-29T08:27:32Z</time>
      </trkpt>
      <trkpt lat="45.45618" lon="5.37888">
        <ele>565.2</ele>
        <time>2023-08-29T08:27:33Z</time>
      </trkpt>
      <trkpt lat="45.45624" lon="5.37886">
        <ele>564.8</ele>
        <time>2023-08-29T08:27:34Z</time>
      </trkpt>
      <trkpt lat="45.45629" lon="5.37882">
        <ele>564.6</ele>
        <time>2023-08-29T08:27:35Z</time>
      </trkpt>
      <trkpt lat="45.45634" lon="5.37875">
        <ele>564.6</ele>
        <time>2023-08-29T08:27:36Z</time>
      </trkpt>
      <trkpt lat="45.45638" lon="5.37868">
        <ele>564.6</ele>
        <time>2023-08-29T08:27:37Z</time>
      </trkpt>
      <trkpt lat="45.45642" lon="5.37861">
        <ele>564.4</ele>
        <time>2023-08-29T08:27:38Z</time>
      </trkpt>
      <trkpt lat="45.45646" lon="5.37852">
        <ele>564.4</ele>
        <time>2023-08-29T08:27:39Z</time>
      </trkpt>
      <trkpt lat="45.4565" lon="5.37842">
        <ele>564.4</ele>
        <time>2023-08-29T08:27:40Z</time>
      </trkpt>
      <trkpt lat="45.45654" lon="5.37833">
        <ele>564.4</ele>
        <time>2023-08-29T08:27:41Z</time>
      </trkpt>
      <trkpt lat="45.45659" lon="5.37823">
        <ele>564.4</ele>
        <time>2023-08-29T08:27:42Z</time>
      </trkpt>
      <trkpt lat="45.45664" lon="5.37813">
        <ele>563.6</ele>
        <time>2023-08-29T08:27:43Z</time>
      </trkpt>
      <trkpt lat="45.45668" lon="5.37804">
        <ele>562</ele>
        <time>2023-08-29T08:27:44Z</time>
      </trkpt>
      <trkpt lat="45.45673" lon="5.37793">
        <ele>561.8</ele>
        <time>2023-08-29T08:27:45Z</time>
      </trkpt>
      <trkpt lat="45.45677" lon="5.37783">
        <ele>560.8</ele>
        <time>2023-08-29T08:27:46Z</time>
      </trkpt>
      <trkpt lat="45.45682" lon="5.37772">
        <ele>559.4</ele>
        <time>2023-08-29T08:27:47Z</time>
      </trkpt>
      <trkpt lat="45.45686" lon="5.37762">
        <ele>558.6</ele>
        <time>2023-08-29T08:27:48Z</time>
      </trkpt>
      <trkpt lat="45.45691" lon="5.37752">
        <ele>558.2</ele>
        <time>2023-08-29T08:27:49Z</time>
      </trkpt>
      <trkpt lat="45.45696" lon="5.3774">
        <ele>558.2</ele>
        <time>2023-08-29T08:27:50Z</time>
      </trkpt>
      <trkpt lat="45.45701" lon="5.3773">
        <ele>557</ele>
        <time>2023-08-29T08:27:51Z</time>
      </trkpt>
      <trkpt lat="45.45706" lon="5.37718">
        <ele>556.6</ele>
        <time>2023-08-29T08:27:52Z</time>
      </trkpt>
      <trkpt lat="45.45711" lon="5.37708">
        <ele>555.8</ele>
        <time>2023-08-29T08:27:53Z</time>
      </trkpt>
      <trkpt lat="45.45717" lon="5.37697">
        <ele>555</ele>
        <time>2023-08-29T08:27:54Z</time>
      </trkpt>
      <trkpt lat="45.45722" lon="5.37685">
        <ele>554</ele>
        <time>2023-08-29T08:27:55Z</time>
      </trkpt>
      <trkpt lat="45.45727" lon="5.37674">
        <ele>553.8</ele>
        <time>2023-08-29T08:27:56Z</time>
      </trkpt>
      <trkpt lat="45.45733" lon="5.37663">
        <ele>553.2</ele>
        <time>2023-08-29T08:27:57Z</time>
      </trkpt>
      <trkpt lat="45.45738" lon="5.37651">
        <ele>552.8</ele>
        <time>2023-08-29T08:27:58Z</time>
      </trkpt>
      <trkpt lat="45.45743" lon="5.37641">
        <ele>551.2</ele>
        <time>2023-08-29T08:27:59Z</time>
      </trkpt>
      <trkpt lat="45.45748" lon="5.3763">
        <ele>551</ele>
        <time>2023-08-29T08:28:00Z</time>
      </trkpt>
      <trkpt lat="45.45752" lon="5.3762">
        <ele>550.8</ele>
        <time>2023-08-29T08:28:01Z</time>
      </trkpt>
      <trkpt lat="45.45757" lon="5.37609">
        <ele>550.8</ele>
        <time>2023-08-29T08:28:02Z</time>
      </trkpt>
      <trkpt lat="45.45761" lon="5.37599">
        <ele>550.8</ele>
        <time>2023-08-29T08:28:03Z</time>
      </trkpt>
      <trkpt lat="45.45766" lon="5.3759">
        <ele>550.8</ele>
        <time>2023-08-29T08:28:04Z</time>
      </trkpt>
      <trkpt lat="45.4577" lon="5.3758">
        <ele>550.8</ele>
        <time>2023-08-29T08:28:05Z</time>
      </trkpt>
      <trkpt lat="45.45774" lon="5.37571">
        <ele>551</ele>
        <time>2023-08-29T08:28:06Z</time>
      </trkpt>
      <trkpt lat="45.45778" lon="5.37561">
        <ele>551</ele>
        <time>2023-08-29T08:28:07Z</time>
      </trkpt>
      <trkpt lat="45.45782" lon="5.37551">
        <ele>551</ele>
        <time>2023-08-29T08:28:08Z</time>
      </trkpt>
      <trkpt lat="45.45786" lon="5.37543">
        <ele>551</ele>
        <time>2023-08-29T08:28:09Z</time>
      </trkpt>
      <trkpt lat="45.45791" lon="5.37534">
        <ele>551</ele>
        <time>2023-08-29T08:28:10Z</time>
      </trkpt>
      <trkpt lat="45.45794" lon="5.37525">
        <ele>551</ele>
        <time>2023-08-29T08:28:11Z</time>
      </trkpt>
      <trkpt lat="45.45798" lon="5.37517">
        <ele>550.8</ele>
        <time>2023-08-29T08:28:12Z</time>
      </trkpt>
      <trkpt lat="45.45802" lon="5.37508">
        <ele>550.6</ele>
        <time>2023-08-29T08:28:13Z</time>
      </trkpt>
      <trkpt lat="45.45806" lon="5.375">
        <ele>550.6</ele>
        <time>2023-08-29T08:28:14Z</time>
      </trkpt>
      <trkpt lat="45.4581" lon="5.37491">
        <ele>550.6</ele>
        <time>2023-08-29T08:28:15Z</time>
      </trkpt>
      <trkpt lat="45.45813" lon="5.37483">
        <ele>550</ele>
        <time>2023-08-29T08:28:16Z</time>
      </trkpt>
      <trkpt lat="45.45817" lon="5.37475">
        <ele>550</ele>
        <time>2023-08-29T08:28:17Z</time>
      </trkpt>
      <trkpt lat="45.45821" lon="5.37468">
        <ele>550</ele>
        <time>2023-08-29T08:28:18Z</time>
      </trkpt>
      <trkpt lat="45.45824" lon="5.3746">
        <ele>550</ele>
        <time>2023-08-29T08:28:19Z</time>
      </trkpt>
      <trkpt lat="45.45828" lon="5.37453">
        <ele>549.8</ele>
        <time>2023-08-29T08:28:20Z</time>
      </trkpt>
      <trkpt lat="45.45831" lon="5.37445">
        <ele>549.6</ele>
        <time>2023-08-29T08:28:21Z</time>
      </trkpt>
      <trkpt lat="45.45834" lon="5.37438">
        <ele>549.6</ele>
        <time>2023-08-29T08:28:22Z</time>
      </trkpt>
      <trkpt lat="45.45838" lon="5.3743">
        <ele>549.4</ele>
        <time>2023-08-29T08:28:23Z</time>
      </trkpt>
      <trkpt lat="45.45842" lon="5.37423">
        <ele>549.4</ele>
        <time>2023-08-29T08:28:24Z</time>
      </trkpt>
      <trkpt lat="45.45846" lon="5.37416">
        <ele>549.4</ele>
        <time>2023-08-29T08:28:25Z</time>
      </trkpt>
      <trkpt lat="45.4585" lon="5.37409">
        <ele>549.2</ele>
        <time>2023-08-29T08:28:26Z</time>
      </trkpt>
      <trkpt lat="45.45854" lon="5.37401">
        <ele>548.8</ele>
        <time>2023-08-29T08:28:27Z</time>
      </trkpt>
      <trkpt lat="45.45859" lon="5.37393">
        <ele>548.6</ele>
        <time>2023-08-29T08:28:28Z</time>
      </trkpt>
      <trkpt lat="45.45862" lon="5.37386">
        <ele>548.6</ele>
        <time>2023-08-29T08:28:29Z</time>
      </trkpt>
      <trkpt lat="45.45866" lon="5.37379">
        <ele>548.6</ele>
        <time>2023-08-29T08:28:30Z</time>
      </trkpt>
      <trkpt lat="45.4587" lon="5.37372">
        <ele>548.6</ele>
        <time>2023-08-29T08:28:31Z</time>
      </trkpt>
      <trkpt lat="45.45875" lon="5.37365">
        <ele>548.4</ele>
        <time>2023-08-29T08:28:32Z</time>
      </trkpt>
      <trkpt lat="45.45879" lon="5.37358">
        <ele>548.4</ele>
        <time>2023-08-29T08:28:33Z</time>
      </trkpt>
      <trkpt lat="45.45883" lon="5.37351">
        <ele>548.2</ele>
        <time>2023-08-29T08:28:34Z</time>
      </trkpt>
      <trkpt lat="45.45886" lon="5.37345">
        <ele>548.2</ele>
        <time>2023-08-29T08:28:35Z</time>
      </trkpt>
      <trkpt lat="45.45891" lon="5.37338">
        <ele>548.2</ele>
        <time>2023-08-29T08:28:36Z</time>
      </trkpt>
      <trkpt lat="45.45895" lon="5.37332">
        <ele>548.2</ele>
        <time>2023-08-29T08:28:37Z</time>
      </trkpt>
      <trkpt lat="45.45899" lon="5.37325">
        <ele>548</ele>
        <time>2023-08-29T08:28:38Z</time>
      </trkpt>
      <trkpt lat="45.45902" lon="5.37318">
        <ele>547.4</ele>
        <time>2023-08-29T08:28:39Z</time>
      </trkpt>
      <trkpt lat="45.45906" lon="5.37311">
        <ele>547.2</ele>
        <time>2023-08-29T08:28:40Z</time>
      </trkpt>
      <trkpt lat="45.4591" lon="5.37305">
        <ele>547.2</ele>
        <time>2023-08-29T08:28:41Z</time>
      </trkpt>
      <trkpt lat="45.45914" lon="5.37298">
        <ele>547.2</ele>
        <time>2023-08-29T08:28:42Z</time>
      </trkpt>
      <trkpt lat="45.45918" lon="5.37292">
        <ele>547.2</ele>
        <time>2023-08-29T08:28:43Z</time>
      </trkpt>
      <trkpt lat="45.45921" lon="5.37286">
        <ele>547</ele>
        <time>2023-08-29T08:28:44Z</time>
      </trkpt>
      <trkpt lat="45.45925" lon="5.3728">
        <ele>547</ele>
        <time>2023-08-29T08:28:45Z</time>
      </trkpt>
      <trkpt lat="45.45929" lon="5.37274">
        <ele>547</ele>
        <time>2023-08-29T08:28:46Z</time>
      </trkpt>
      <trkpt lat="45.45932" lon="5.37269">
        <ele>546.8</ele>
        <time>2023-08-29T08:28:47Z</time>
      </trkpt>
      <trkpt lat="45.45936" lon="5.37263">
        <ele>547</ele>
        <time>2023-08-29T08:28:48Z</time>
      </trkpt>
      <trkpt lat="45.45939" lon="5.37258">
        <ele>546.8</ele>
        <time>2023-08-29T08:28:49Z</time>
      </trkpt>
      <trkpt lat="45.45941" lon="5.37254">
        <ele>546.8</ele>
        <time>2023-08-29T08:28:50Z</time>
      </trkpt>
      <trkpt lat="45.45944" lon="5.37249">
        <ele>546.8</ele>
        <time>2023-08-29T08:28:51Z</time>
      </trkpt>
      <trkpt lat="45.45948" lon="5.37245">
        <ele>546.8</ele>
        <time>2023-08-29T08:28:52Z</time>
      </trkpt>
      <trkpt lat="45.45951" lon="5.37242">
        <ele>546.8</ele>
        <time>2023-08-29T08:28:53Z</time>
      </trkpt>
      <trkpt lat="45.45955" lon="5.37239">
        <ele>546.8</ele>
        <time>2023-08-29T08:28:54Z</time>
      </trkpt>
      <trkpt lat="45.45959" lon="5.37237">
        <ele>546.8</ele>
        <time>2023-08-29T08:28:55Z</time>
      </trkpt>
      <trkpt lat="45.45963" lon="5.37236">
        <ele>546.8</ele>
        <time>2023-08-29T08:28:56Z</time>
      </trkpt>
      <trkpt lat="45.45967" lon="5.37234">
        <ele>546.8</ele>
        <time>2023-08-29T08:28:57Z</time>
      </trkpt>
      <trkpt lat="45.4597" lon="5.37234">
        <ele>546.8</ele>
        <time>2023-08-29T08:28:58Z</time>
      </trkpt>
      <trkpt lat="45.45974" lon="5.37233">
        <ele>546.8</ele>
        <time>2023-08-29T08:28:59Z</time>
      </trkpt>
      <trkpt lat="45.45977" lon="5.3723">
        <ele>546.8</ele>
        <time>2023-08-29T08:29:00Z</time>
      </trkpt>
      <trkpt lat="45.4598" lon="5.37225">
        <ele>546.6</ele>
        <time>2023-08-29T08:29:01Z</time>
      </trkpt>
      <trkpt lat="45.45981" lon="5.3722">
        <ele>546.6</ele>
        <time>2023-08-29T08:29:02Z</time>
      </trkpt>
      <trkpt lat="45.45983" lon="5.37214">
        <ele>546.4</ele>
        <time>2023-08-29T08:29:03Z</time>
      </trkpt>
      <trkpt lat="45.45983" lon="5.37207">
        <ele>546.2</ele>
        <time>2023-08-29T08:29:04Z</time>
      </trkpt>
      <trkpt lat="45.45983" lon="5.37199">
        <ele>546.2</ele>
        <time>2023-08-29T08:29:05Z</time>
      </trkpt>
      <trkpt lat="45.45983" lon="5.37191">
        <ele>546</ele>
        <time>2023-08-29T08:29:06Z</time>
      </trkpt>
      <trkpt lat="45.45983" lon="5.37183">
        <ele>545.6</ele>
        <time>2023-08-29T08:29:07Z</time>
      </trkpt>
      <trkpt lat="45.45984" lon="5.37175">
        <ele>545.4</ele>
        <time>2023-08-29T08:29:08Z</time>
      </trkpt>
      <trkpt lat="45.45984" lon="5.37166">
        <ele>545</ele>
        <time>2023-08-29T08:29:09Z</time>
      </trkpt>
      <trkpt lat="45.45985" lon="5.37157">
        <ele>545</ele>
        <time>2023-08-29T08:29:10Z</time>
      </trkpt>
      <trkpt lat="45.45985" lon="5.37147">
        <ele>545</ele>
        <time>2023-08-29T08:29:11Z</time>
      </trkpt>
      <trkpt lat="45.45986" lon="5.37138">
        <ele>544.8</ele>
        <time>2023-08-29T08:29:12Z</time>
      </trkpt>
      <trkpt lat="45.45986" lon="5.37129">
        <ele>544.8</ele>
        <time>2023-08-29T08:29:13Z</time>
      </trkpt>
      <trkpt lat="45.45987" lon="5.3712">
        <ele>544.6</ele>
        <time>2023-08-29T08:29:14Z</time>
      </trkpt>
      <trkpt lat="45.45987" lon="5.3711">
        <ele>544.6</ele>
        <time>2023-08-29T08:29:15Z</time>
      </trkpt>
      <trkpt lat="45.45987" lon="5.37099">
        <ele>544.2</ele>
        <time>2023-08-29T08:29:16Z</time>
      </trkpt>
      <trkpt lat="45.45987" lon="5.3709">
        <ele>543.6</ele>
        <time>2023-08-29T08:29:17Z</time>
      </trkpt>
      <trkpt lat="45.45986" lon="5.37079">
        <ele>543.6</ele>
        <time>2023-08-29T08:29:18Z</time>
      </trkpt>
      <trkpt lat="45.45986" lon="5.3707">
        <ele>543.2</ele>
        <time>2023-08-29T08:29:19Z</time>
      </trkpt>
      <trkpt lat="45.45985" lon="5.3706">
        <ele>543</ele>
        <time>2023-08-29T08:29:20Z</time>
      </trkpt>
      <trkpt lat="45.45985" lon="5.37049">
        <ele>543</ele>
        <time>2023-08-29T08:29:21Z</time>
      </trkpt>
      <trkpt lat="45.45984" lon="5.3704">
        <ele>543</ele>
        <time>2023-08-29T08:29:22Z</time>
      </trkpt>
      <trkpt lat="45.45984" lon="5.37029">
        <ele>543</ele>
        <time>2023-08-29T08:29:23Z</time>
      </trkpt>
      <trkpt lat="45.45983" lon="5.37019">
        <ele>543.2</ele>
        <time>2023-08-29T08:29:24Z</time>
      </trkpt>
      <trkpt lat="45.45982" lon="5.37009">
        <ele>543.2</ele>
        <time>2023-08-29T08:29:25Z</time>
      </trkpt>
      <trkpt lat="45.45981" lon="5.36999">
        <ele>543.2</ele>
        <time>2023-08-29T08:29:26Z</time>
      </trkpt>
      <trkpt lat="45.4598" lon="5.36989">
        <ele>543.2</ele>
        <time>2023-08-29T08:29:27Z</time>
      </trkpt>
      <trkpt lat="45.45979" lon="5.3698">
        <ele>543.2</ele>
        <time>2023-08-29T08:29:28Z</time>
      </trkpt>
      <trkpt lat="45.45979" lon="5.3697">
        <ele>542.8</ele>
        <time>2023-08-29T08:29:29Z</time>
      </trkpt>
      <trkpt lat="45.45978" lon="5.3696">
        <ele>542.6</ele>
        <time>2023-08-29T08:29:30Z</time>
      </trkpt>
      <trkpt lat="45.45977" lon="5.3695">
        <ele>542.2</ele>
        <time>2023-08-29T08:29:31Z</time>
      </trkpt>
      <trkpt lat="45.45977" lon="5.3694">
        <ele>542.2</ele>
        <time>2023-08-29T08:29:32Z</time>
      </trkpt>
      <trkpt lat="45.45976" lon="5.3693">
        <ele>542</ele>
        <time>2023-08-29T08:29:33Z</time>
      </trkpt>
      <trkpt lat="45.45975" lon="5.3692">
        <ele>542</ele>
        <time>2023-08-29T08:29:34Z</time>
      </trkpt>
      <trkpt lat="45.45974" lon="5.3691">
        <ele>542</ele>
        <time>2023-08-29T08:29:35Z</time>
      </trkpt>
      <trkpt lat="45.45973" lon="5.36901">
        <ele>542</ele>
        <time>2023-08-29T08:29:36Z</time>
      </trkpt>
      <trkpt lat="45.45972" lon="5.36892">
        <ele>542</ele>
        <time>2023-08-29T08:29:37Z</time>
      </trkpt>
      <trkpt lat="45.45971" lon="5.36882">
        <ele>542</ele>
        <time>2023-08-29T08:29:38Z</time>
      </trkpt>
      <trkpt lat="45.4597" lon="5.36871">
        <ele>542</ele>
        <time>2023-08-29T08:29:39Z</time>
      </trkpt>
      <trkpt lat="45.4597" lon="5.36862">
        <ele>542.2</ele>
        <time>2023-08-29T08:29:40Z</time>
      </trkpt>
      <trkpt lat="45.45968" lon="5.36852">
        <ele>542.4</ele>
        <time>2023-08-29T08:29:41Z</time>
      </trkpt>
      <trkpt lat="45.45968" lon="5.36843">
        <ele>542.6</ele>
        <time>2023-08-29T08:29:42Z</time>
      </trkpt>
      <trkpt lat="45.45967" lon="5.36833">
        <ele>542.6</ele>
        <time>2023-08-29T08:29:43Z</time>
      </trkpt>
      <trkpt lat="45.45967" lon="5.36823">
        <ele>542.6</ele>
        <time>2023-08-29T08:29:44Z</time>
      </trkpt>
      <trkpt lat="45.45966" lon="5.36812">
        <ele>542.8</ele>
        <time>2023-08-29T08:29:45Z</time>
      </trkpt>
      <trkpt lat="45.45965" lon="5.36802">
        <ele>543.2</ele>
        <time>2023-08-29T08:29:46Z</time>
      </trkpt>
      <trkpt lat="45.45964" lon="5.36792">
        <ele>543.4</ele>
        <time>2023-08-29T08:29:47Z</time>
      </trkpt>
      <trkpt lat="45.45963" lon="5.36782">
        <ele>543.4</ele>
        <time>2023-08-29T08:29:48Z</time>
      </trkpt>
      <trkpt lat="45.45962" lon="5.36772">
        <ele>543.4</ele>
        <time>2023-08-29T08:29:49Z</time>
      </trkpt>
      <trkpt lat="45.45962" lon="5.36763">
        <ele>543.4</ele>
        <time>2023-08-29T08:29:50Z</time>
      </trkpt>
      <trkpt lat="45.45961" lon="5.36753">
        <ele>543.2</ele>
        <time>2023-08-29T08:29:51Z</time>
      </trkpt>
      <trkpt lat="45.45959" lon="5.36744">
        <ele>543.2</ele>
        <time>2023-08-29T08:29:52Z</time>
      </trkpt>
      <trkpt lat="45.45959" lon="5.36734">
        <ele>543.2</ele>
        <time>2023-08-29T08:29:53Z</time>
      </trkpt>
      <trkpt lat="45.45958" lon="5.36724">
        <ele>543.2</ele>
        <time>2023-08-29T08:29:54Z</time>
      </trkpt>
      <trkpt lat="45.45957" lon="5.36714">
        <ele>543.2</ele>
        <time>2023-08-29T08:29:55Z</time>
      </trkpt>
      <trkpt lat="45.45957" lon="5.36703">
        <ele>543.4</ele>
        <time>2023-08-29T08:29:56Z</time>
      </trkpt>
      <trkpt lat="45.45956" lon="5.36693">
        <ele>543.4</ele>
        <time>2023-08-29T08:29:57Z</time>
      </trkpt>
      <trkpt lat="45.45955" lon="5.36684">
        <ele>543.4</ele>
        <time>2023-08-29T08:29:58Z</time>
      </trkpt>
      <trkpt lat="45.45955" lon="5.36674">
        <ele>543.6</ele>
        <time>2023-08-29T08:29:59Z</time>
      </trkpt>
      <trkpt lat="45.45954" lon="5.36665">
        <ele>543.4</ele>
        <time>2023-08-29T08:30:00Z</time>
      </trkpt>
      <trkpt lat="45.45954" lon="5.36656">
        <ele>543.4</ele>
        <time>2023-08-29T08:30:01Z</time>
      </trkpt>
      <trkpt lat="45.45954" lon="5.36645">
        <ele>543.2</ele>
        <time>2023-08-29T08:30:02Z</time>
      </trkpt>
      <trkpt lat="45.45953" lon="5.36634">
        <ele>543.2</ele>
        <time>2023-08-29T08:30:03Z</time>
      </trkpt>
      <trkpt lat="45.45953" lon="5.36624">
        <ele>543</ele>
        <time>2023-08-29T08:30:04Z</time>
      </trkpt>
      <trkpt lat="45.45953" lon="5.36614">
        <ele>543</ele>
        <time>2023-08-29T08:30:05Z</time>
      </trkpt>
      <trkpt lat="45.45953" lon="5.36605">
        <ele>543</ele>
        <time>2023-08-29T08:30:06Z</time>
      </trkpt>
      <trkpt lat="45.45953" lon="5.36595">
        <ele>542.8</ele>
        <time>2023-08-29T08:30:07Z</time>
      </trkpt>
      <trkpt lat="45.45953" lon="5.36586">
        <ele>542.8</ele>
        <time>2023-08-29T08:30:08Z</time>
      </trkpt>
      <trkpt lat="45.45954" lon="5.36576">
        <ele>542.8</ele>
        <time>2023-08-29T08:30:09Z</time>
      </trkpt>
      <trkpt lat="45.45955" lon="5.36566">
        <ele>542.6</ele>
        <time>2023-08-29T08:30:10Z</time>
      </trkpt>
      <trkpt lat="45.45955" lon="5.36556">
        <ele>542.4</ele>
        <time>2023-08-29T08:30:11Z</time>
      </trkpt>
      <trkpt lat="45.45956" lon="5.36546">
        <ele>542.4</ele>
        <time>2023-08-29T08:30:12Z</time>
      </trkpt>
      <trkpt lat="45.45958" lon="5.36537">
        <ele>542.2</ele>
        <time>2023-08-29T08:30:13Z</time>
      </trkpt>
      <trkpt lat="45.45959" lon="5.36526">
        <ele>542.2</ele>
        <time>2023-08-29T08:30:14Z</time>
      </trkpt>
      <trkpt lat="45.45959" lon="5.36516">
        <ele>542.2</ele>
        <time>2023-08-29T08:30:15Z</time>
      </trkpt>
      <trkpt lat="45.45959" lon="5.36507">
        <ele>542</ele>
        <time>2023-08-29T08:30:16Z</time>
      </trkpt>
      <trkpt lat="45.45959" lon="5.36497">
        <ele>542</ele>
        <time>2023-08-29T08:30:17Z</time>
      </trkpt>
      <trkpt lat="45.45959" lon="5.36488">
        <ele>542</ele>
        <time>2023-08-29T08:30:18Z</time>
      </trkpt>
      <trkpt lat="45.45959" lon="5.36479">
        <ele>542</ele>
        <time>2023-08-29T08:30:19Z</time>
      </trkpt>
      <trkpt lat="45.45958" lon="5.36469">
        <ele>542.2</ele>
        <time>2023-08-29T08:30:20Z</time>
      </trkpt>
      <trkpt lat="45.45957" lon="5.36459">
        <ele>542.2</ele>
        <time>2023-08-29T08:30:21Z</time>
      </trkpt>
      <trkpt lat="45.45956" lon="5.36449">
        <ele>542</ele>
        <time>2023-08-29T08:30:22Z</time>
      </trkpt>
      <trkpt lat="45.45954" lon="5.36438">
        <ele>542</ele>
        <time>2023-08-29T08:30:23Z</time>
      </trkpt>
      <trkpt lat="45.45952" lon="5.36428">
        <ele>541.4</ele>
        <time>2023-08-29T08:30:24Z</time>
      </trkpt>
      <trkpt lat="45.45951" lon="5.36418">
        <ele>540.8</ele>
        <time>2023-08-29T08:30:25Z</time>
      </trkpt>
      <trkpt lat="45.4595" lon="5.36407">
        <ele>540.2</ele>
        <time>2023-08-29T08:30:26Z</time>
      </trkpt>
      <trkpt lat="45.45948" lon="5.36397">
        <ele>540</ele>
        <time>2023-08-29T08:30:27Z</time>
      </trkpt>
      <trkpt lat="45.45947" lon="5.36386">
        <ele>540</ele>
        <time>2023-08-29T08:30:28Z</time>
      </trkpt>
      <trkpt lat="45.45945" lon="5.36376">
        <ele>540</ele>
        <time>2023-08-29T08:30:29Z</time>
      </trkpt>
      <trkpt lat="45.45944" lon="5.36364">
        <ele>540</ele>
        <time>2023-08-29T08:30:30Z</time>
      </trkpt>
      <trkpt lat="45.45942" lon="5.36353">
        <ele>539.8</ele>
        <time>2023-08-29T08:30:31Z</time>
      </trkpt>
      <trkpt lat="45.45941" lon="5.36342">
        <ele>539.8</ele>
        <time>2023-08-29T08:30:32Z</time>
      </trkpt>
      <trkpt lat="45.45939" lon="5.36332">
        <ele>539.6</ele>
        <time>2023-08-29T08:30:33Z</time>
      </trkpt>
      <trkpt lat="45.45938" lon="5.3632">
        <ele>539.6</ele>
        <time>2023-08-29T08:30:34Z</time>
      </trkpt>
      <trkpt lat="45.45936" lon="5.36309">
        <ele>539.2</ele>
        <time>2023-08-29T08:30:35Z</time>
      </trkpt>
      <trkpt lat="45.45935" lon="5.36298">
        <ele>538.8</ele>
        <time>2023-08-29T08:30:36Z</time>
      </trkpt>
      <trkpt lat="45.45934" lon="5.36288">
        <ele>538.4</ele>
        <time>2023-08-29T08:30:37Z</time>
      </trkpt>
      <trkpt lat="45.45932" lon="5.36277">
        <ele>538.4</ele>
        <time>2023-08-29T08:30:38Z</time>
      </trkpt>
      <trkpt lat="45.45931" lon="5.36266">
        <ele>537.8</ele>
        <time>2023-08-29T08:30:39Z</time>
      </trkpt>
      <trkpt lat="45.45931" lon="5.36256">
        <ele>537.8</ele>
        <time>2023-08-29T08:30:40Z</time>
      </trkpt>
      <trkpt lat="45.45929" lon="5.36245">
        <ele>537.8</ele>
        <time>2023-08-29T08:30:41Z</time>
      </trkpt>
      <trkpt lat="45.45928" lon="5.36235">
        <ele>537.8</ele>
        <time>2023-08-29T08:30:42Z</time>
      </trkpt>
      <trkpt lat="45.45927" lon="5.36225">
        <ele>538</ele>
        <time>2023-08-29T08:30:43Z</time>
      </trkpt>
      <trkpt lat="45.45926" lon="5.36215">
        <ele>538</ele>
        <time>2023-08-29T08:30:44Z</time>
      </trkpt>
      <trkpt lat="45.45925" lon="5.36206">
        <ele>538.2</ele>
        <time>2023-08-29T08:30:45Z</time>
      </trkpt>
      <trkpt lat="45.45924" lon="5.36196">
        <ele>538.2</ele>
        <time>2023-08-29T08:30:46Z</time>
      </trkpt>
      <trkpt lat="45.45924" lon="5.36186">
        <ele>538.4</ele>
        <time>2023-08-29T08:30:47Z</time>
      </trkpt>
      <trkpt lat="45.45923" lon="5.36176">
        <ele>538.4</ele>
        <time>2023-08-29T08:30:48Z</time>
      </trkpt>
      <trkpt lat="45.45922" lon="5.36166">
        <ele>538.4</ele>
        <time>2023-08-29T08:30:49Z</time>
      </trkpt>
      <trkpt lat="45.45921" lon="5.36156">
        <ele>538.6</ele>
        <time>2023-08-29T08:30:50Z</time>
      </trkpt>
      <trkpt lat="45.45921" lon="5.36146">
        <ele>538.6</ele>
        <time>2023-08-29T08:30:51Z</time>
      </trkpt>
      <trkpt lat="45.4592" lon="5.36136">
        <ele>538.6</ele>
        <time>2023-08-29T08:30:52Z</time>
      </trkpt>
      <trkpt lat="45.45921" lon="5.36126">
        <ele>538.4</ele>
        <time>2023-08-29T08:30:53Z</time>
      </trkpt>
      <trkpt lat="45.45921" lon="5.36116">
        <ele>538.4</ele>
        <time>2023-08-29T08:30:54Z</time>
      </trkpt>
      <trkpt lat="45.45922" lon="5.36106">
        <ele>538.4</ele>
        <time>2023-08-29T08:30:55Z</time>
      </trkpt>
      <trkpt lat="45.45924" lon="5.36095">
        <ele>538.4</ele>
        <time>2023-08-29T08:30:56Z</time>
      </trkpt>
      <trkpt lat="45.45926" lon="5.36084">
        <ele>538.4</ele>
        <time>2023-08-29T08:30:57Z</time>
      </trkpt>
      <trkpt lat="45.45928" lon="5.36074">
        <ele>538.4</ele>
        <time>2023-08-29T08:30:58Z</time>
      </trkpt>
      <trkpt lat="45.45931" lon="5.36064">
        <ele>538.4</ele>
        <time>2023-08-29T08:30:59Z</time>
      </trkpt>
      <trkpt lat="45.45933" lon="5.36055">
        <ele>538.6</ele>
        <time>2023-08-29T08:31:00Z</time>
      </trkpt>
      <trkpt lat="45.45936" lon="5.36045">
        <ele>538.6</ele>
        <time>2023-08-29T08:31:01Z</time>
      </trkpt>
      <trkpt lat="45.45939" lon="5.36035">
        <ele>538.6</ele>
        <time>2023-08-29T08:31:02Z</time>
      </trkpt>
      <trkpt lat="45.45942" lon="5.36026">
        <ele>538.6</ele>
        <time>2023-08-29T08:31:03Z</time>
      </trkpt>
      <trkpt lat="45.45944" lon="5.36016">
        <ele>538.6</ele>
        <time>2023-08-29T08:31:04Z</time>
      </trkpt>
      <trkpt lat="45.45947" lon="5.36007">
        <ele>537.8</ele>
        <time>2023-08-29T08:31:05Z</time>
      </trkpt>
      <trkpt lat="45.4595" lon="5.35996">
        <ele>537.4</ele>
        <time>2023-08-29T08:31:06Z</time>
      </trkpt>
      <trkpt lat="45.45953" lon="5.35987">
        <ele>537.4</ele>
        <time>2023-08-29T08:31:07Z</time>
      </trkpt>
      <trkpt lat="45.45955" lon="5.35978">
        <ele>537.4</ele>
        <time>2023-08-29T08:31:08Z</time>
      </trkpt>
      <trkpt lat="45.45958" lon="5.35969">
        <ele>537.4</ele>
        <time>2023-08-29T08:31:09Z</time>
      </trkpt>
      <trkpt lat="45.45961" lon="5.3596">
        <ele>537.4</ele>
        <time>2023-08-29T08:31:10Z</time>
      </trkpt>
      <trkpt lat="45.45963" lon="5.3595">
        <ele>537.6</ele>
        <time>2023-08-29T08:31:11Z</time>
      </trkpt>
      <trkpt lat="45.45966" lon="5.35941">
        <ele>537.8</ele>
        <time>2023-08-29T08:31:12Z</time>
      </trkpt>
      <trkpt lat="45.45969" lon="5.35931">
        <ele>538.2</ele>
        <time>2023-08-29T08:31:13Z</time>
      </trkpt>
      <trkpt lat="45.45972" lon="5.35922">
        <ele>538.2</ele>
        <time>2023-08-29T08:31:14Z</time>
      </trkpt>
      <trkpt lat="45.45974" lon="5.35914">
        <ele>538.2</ele>
        <time>2023-08-29T08:31:15Z</time>
      </trkpt>
      <trkpt lat="45.45977" lon="5.35905">
        <ele>538.2</ele>
        <time>2023-08-29T08:31:16Z</time>
      </trkpt>
      <trkpt lat="45.4598" lon="5.35895">
        <ele>538</ele>
        <time>2023-08-29T08:31:17Z</time>
      </trkpt>
      <trkpt lat="45.45982" lon="5.35885">
        <ele>537.6</ele>
        <time>2023-08-29T08:31:18Z</time>
      </trkpt>
      <trkpt lat="45.45985" lon="5.35875">
        <ele>537.2</ele>
        <time>2023-08-29T08:31:19Z</time>
      </trkpt>
      <trkpt lat="45.45987" lon="5.35865">
        <ele>537</ele>
        <time>2023-08-29T08:31:20Z</time>
      </trkpt>
      <trkpt lat="45.4599" lon="5.35855">
        <ele>536.8</ele>
        <time>2023-08-29T08:31:21Z</time>
      </trkpt>
      <trkpt lat="45.45993" lon="5.35845">
        <ele>536.8</ele>
        <time>2023-08-29T08:31:22Z</time>
      </trkpt>
      <trkpt lat="45.45995" lon="5.35836">
        <ele>536.6</ele>
        <time>2023-08-29T08:31:23Z</time>
      </trkpt>
      <trkpt lat="45.45998" lon="5.35827">
        <ele>536.6</ele>
        <time>2023-08-29T08:31:24Z</time>
      </trkpt>
      <trkpt lat="45.46" lon="5.35817">
        <ele>536.6</ele>
        <time>2023-08-29T08:31:25Z</time>
      </trkpt>
      <trkpt lat="45.46002" lon="5.35808">
        <ele>536.6</ele>
        <time>2023-08-29T08:31:26Z</time>
      </trkpt>
      <trkpt lat="45.46004" lon="5.35799">
        <ele>536.6</ele>
        <time>2023-08-29T08:31:27Z</time>
      </trkpt>
      <trkpt lat="45.46006" lon="5.35789">
        <ele>536.6</ele>
        <time>2023-08-29T08:31:28Z</time>
      </trkpt>
      <trkpt lat="45.46008" lon="5.3578">
        <ele>536.6</ele>
        <time>2023-08-29T08:31:29Z</time>
      </trkpt>
      <trkpt lat="45.4601" lon="5.35771">
        <ele>536.6</ele>
        <time>2023-08-29T08:31:30Z</time>
      </trkpt>
      <trkpt lat="45.46012" lon="5.35762">
        <ele>536.4</ele>
        <time>2023-08-29T08:31:31Z</time>
      </trkpt>
      <trkpt lat="45.46014" lon="5.35754">
        <ele>536.2</ele>
        <time>2023-08-29T08:31:32Z</time>
      </trkpt>
      <trkpt lat="45.46015" lon="5.35745">
        <ele>536</ele>
        <time>2023-08-29T08:31:33Z</time>
      </trkpt>
      <trkpt lat="45.46016" lon="5.35736">
        <ele>536</ele>
        <time>2023-08-29T08:31:34Z</time>
      </trkpt>
      <trkpt lat="45.46018" lon="5.35728">
        <ele>536</ele>
        <time>2023-08-29T08:31:35Z</time>
      </trkpt>
      <trkpt lat="45.4602" lon="5.3572">
        <ele>536</ele>
        <time>2023-08-29T08:31:36Z</time>
      </trkpt>
      <trkpt lat="45.46021" lon="5.35712">
        <ele>536</ele>
        <time>2023-08-29T08:31:37Z</time>
      </trkpt>
      <trkpt lat="45.46023" lon="5.35704">
        <ele>536.2</ele>
        <time>2023-08-29T08:31:38Z</time>
      </trkpt>
      <trkpt lat="45.46024" lon="5.35696">
        <ele>536.6</ele>
        <time>2023-08-29T08:31:39Z</time>
      </trkpt>
      <trkpt lat="45.46026" lon="5.35687">
        <ele>537</ele>
        <time>2023-08-29T08:31:40Z</time>
      </trkpt>
      <trkpt lat="45.46027" lon="5.35679">
        <ele>537.2</ele>
        <time>2023-08-29T08:31:41Z</time>
      </trkpt>
      <trkpt lat="45.46029" lon="5.3567">
        <ele>537.2</ele>
        <time>2023-08-29T08:31:42Z</time>
      </trkpt>
      <trkpt lat="45.4603" lon="5.35661">
        <ele>537.2</ele>
        <time>2023-08-29T08:31:43Z</time>
      </trkpt>
      <trkpt lat="45.46032" lon="5.35653">
        <ele>537.2</ele>
        <time>2023-08-29T08:31:44Z</time>
      </trkpt>
      <trkpt lat="45.46033" lon="5.35645">
        <ele>537.2</ele>
        <time>2023-08-29T08:31:45Z</time>
      </trkpt>
      <trkpt lat="45.46035" lon="5.35636">
        <ele>537.2</ele>
        <time>2023-08-29T08:31:46Z</time>
      </trkpt>
      <trkpt lat="45.46036" lon="5.35628">
        <ele>537.2</ele>
        <time>2023-08-29T08:31:47Z</time>
      </trkpt>
      <trkpt lat="45.46038" lon="5.35619">
        <ele>537.2</ele>
        <time>2023-08-29T08:31:48Z</time>
      </trkpt>
      <trkpt lat="45.4604" lon="5.3561">
        <ele>537.2</ele>
        <time>2023-08-29T08:31:49Z</time>
      </trkpt>
      <trkpt lat="45.46042" lon="5.35602">
        <ele>537.2</ele>
        <time>2023-08-29T08:31:50Z</time>
      </trkpt>
      <trkpt lat="45.46043" lon="5.35593">
        <ele>537.2</ele>
        <time>2023-08-29T08:31:51Z</time>
      </trkpt>
      <trkpt lat="45.46045" lon="5.35585">
        <ele>537.2</ele>
        <time>2023-08-29T08:31:52Z</time>
      </trkpt>
      <trkpt lat="45.46046" lon="5.35575">
        <ele>537.2</ele>
        <time>2023-08-29T08:31:53Z</time>
      </trkpt>
      <trkpt lat="45.46048" lon="5.35566">
        <ele>537.2</ele>
        <time>2023-08-29T08:31:54Z</time>
      </trkpt>
      <trkpt lat="45.4605" lon="5.35558">
        <ele>537</ele>
        <time>2023-08-29T08:31:55Z</time>
      </trkpt>
      <trkpt lat="45.46051" lon="5.35549">
        <ele>536.6</ele>
        <time>2023-08-29T08:31:56Z</time>
      </trkpt>
      <trkpt lat="45.46053" lon="5.35539">
        <ele>536.6</ele>
        <time>2023-08-29T08:31:57Z</time>
      </trkpt>
      <trkpt lat="45.46054" lon="5.35531">
        <ele>536.4</ele>
        <time>2023-08-29T08:31:58Z</time>
      </trkpt>
      <trkpt lat="45.46056" lon="5.35523">
        <ele>536.4</ele>
        <time>2023-08-29T08:31:59Z</time>
      </trkpt>
      <trkpt lat="45.46058" lon="5.35514">
        <ele>536.4</ele>
        <time>2023-08-29T08:32:00Z</time>
      </trkpt>
      <trkpt lat="45.46059" lon="5.35505">
        <ele>536.4</ele>
        <time>2023-08-29T08:32:01Z</time>
      </trkpt>
      <trkpt lat="45.46061" lon="5.35496">
        <ele>536.4</ele>
        <time>2023-08-29T08:32:02Z</time>
      </trkpt>
      <trkpt lat="45.46062" lon="5.35487">
        <ele>536.4</ele>
        <time>2023-08-29T08:32:03Z</time>
      </trkpt>
      <trkpt lat="45.46064" lon="5.35478">
        <ele>536.6</ele>
        <time>2023-08-29T08:32:04Z</time>
      </trkpt>
      <trkpt lat="45.46065" lon="5.35469">
        <ele>536.6</ele>
        <time>2023-08-29T08:32:05Z</time>
      </trkpt>
      <trkpt lat="45.46067" lon="5.35461">
        <ele>536.6</ele>
        <time>2023-08-29T08:32:06Z</time>
      </trkpt>
      <trkpt lat="45.46069" lon="5.35453">
        <ele>536.6</ele>
        <time>2023-08-29T08:32:07Z</time>
      </trkpt>
      <trkpt lat="45.4607" lon="5.35444">
        <ele>536.8</ele>
        <time>2023-08-29T08:32:08Z</time>
      </trkpt>
      <trkpt lat="45.46072" lon="5.35436">
        <ele>536.8</ele>
        <time>2023-08-29T08:32:09Z</time>
      </trkpt>
      <trkpt lat="45.46074" lon="5.35426">
        <ele>537</ele>
        <time>2023-08-29T08:32:10Z</time>
      </trkpt>
      <trkpt lat="45.46075" lon="5.35417">
        <ele>537</ele>
        <time>2023-08-29T08:32:11Z</time>
      </trkpt>
      <trkpt lat="45.46077" lon="5.35408">
        <ele>537</ele>
        <time>2023-08-29T08:32:12Z</time>
      </trkpt>
      <trkpt lat="45.46078" lon="5.35399">
        <ele>537</ele>
        <time>2023-08-29T08:32:13Z</time>
      </trkpt>
      <trkpt lat="45.4608" lon="5.35391">
        <ele>537.2</ele>
        <time>2023-08-29T08:32:14Z</time>
      </trkpt>
      <trkpt lat="45.46082" lon="5.35382">
        <ele>537.4</ele>
        <time>2023-08-29T08:32:15Z</time>
      </trkpt>
      <trkpt lat="45.46083" lon="5.35374">
        <ele>537.4</ele>
        <time>2023-08-29T08:32:16Z</time>
      </trkpt>
      <trkpt lat="45.46085" lon="5.35365">
        <ele>537.6</ele>
        <time>2023-08-29T08:32:17Z</time>
      </trkpt>
      <trkpt lat="45.46086" lon="5.35356">
        <ele>537.8</ele>
        <time>2023-08-29T08:32:18Z</time>
      </trkpt>
      <trkpt lat="45.46088" lon="5.35348">
        <ele>537.8</ele>
        <time>2023-08-29T08:32:19Z</time>
      </trkpt>
      <trkpt lat="45.46089" lon="5.3534">
        <ele>538</ele>
        <time>2023-08-29T08:32:20Z</time>
      </trkpt>
      <trkpt lat="45.46091" lon="5.35331">
        <ele>538</ele>
        <time>2023-08-29T08:32:21Z</time>
      </trkpt>
      <trkpt lat="45.46092" lon="5.35322">
        <ele>538</ele>
        <time>2023-08-29T08:32:22Z</time>
      </trkpt>
      <trkpt lat="45.46093" lon="5.35315">
        <ele>538</ele>
        <time>2023-08-29T08:32:23Z</time>
      </trkpt>
      <trkpt lat="45.46094" lon="5.35306">
        <ele>538.2</ele>
        <time>2023-08-29T08:32:24Z</time>
      </trkpt>
      <trkpt lat="45.46094" lon="5.35297">
        <ele>538.2</ele>
        <time>2023-08-29T08:32:25Z</time>
      </trkpt>
      <trkpt lat="45.46095" lon="5.35288">
        <ele>538.2</ele>
        <time>2023-08-29T08:32:26Z</time>
      </trkpt>
      <trkpt lat="45.46095" lon="5.35279">
        <ele>538.2</ele>
        <time>2023-08-29T08:32:27Z</time>
      </trkpt>
      <trkpt lat="45.46094" lon="5.3527">
        <ele>538.4</ele>
        <time>2023-08-29T08:32:28Z</time>
      </trkpt>
      <trkpt lat="45.46095" lon="5.35262">
        <ele>538.6</ele>
        <time>2023-08-29T08:32:29Z</time>
      </trkpt>
      <trkpt lat="45.46095" lon="5.35254">
        <ele>538.8</ele>
        <time>2023-08-29T08:32:30Z</time>
      </trkpt>
      <trkpt lat="45.46094" lon="5.35246">
        <ele>538.8</ele>
        <time>2023-08-29T08:32:31Z</time>
      </trkpt>
      <trkpt lat="45.46093" lon="5.35237">
        <ele>539</ele>
        <time>2023-08-29T08:32:32Z</time>
      </trkpt>
      <trkpt lat="45.46092" lon="5.3523">
        <ele>539.2</ele>
        <time>2023-08-29T08:32:33Z</time>
      </trkpt>
      <trkpt lat="45.46091" lon="5.35223">
        <ele>539.2</ele>
        <time>2023-08-29T08:32:34Z</time>
      </trkpt>
      <trkpt lat="45.4609" lon="5.35215">
        <ele>539.6</ele>
        <time>2023-08-29T08:32:35Z</time>
      </trkpt>
      <trkpt lat="45.46089" lon="5.35207">
        <ele>540</ele>
        <time>2023-08-29T08:32:36Z</time>
      </trkpt>
      <trkpt lat="45.46088" lon="5.352">
        <ele>540.2</ele>
        <time>2023-08-29T08:32:37Z</time>
      </trkpt>
      <trkpt lat="45.46087" lon="5.35192">
        <ele>540.2</ele>
        <time>2023-08-29T08:32:38Z</time>
      </trkpt>
      <trkpt lat="45.46085" lon="5.35184">
        <ele>540.4</ele>
        <time>2023-08-29T08:32:39Z</time>
      </trkpt>
      <trkpt lat="45.46084" lon="5.35176">
        <ele>540.6</ele>
        <time>2023-08-29T08:32:40Z</time>
      </trkpt>
      <trkpt lat="45.46083" lon="5.35167">
        <ele>540.8</ele>
        <time>2023-08-29T08:32:41Z</time>
      </trkpt>
      <trkpt lat="45.46082" lon="5.35159">
        <ele>541.2</ele>
        <time>2023-08-29T08:32:42Z</time>
      </trkpt>
      <trkpt lat="45.46081" lon="5.35151">
        <ele>541.6</ele>
        <time>2023-08-29T08:32:43Z</time>
      </trkpt>
      <trkpt lat="45.4608" lon="5.35143">
        <ele>542</ele>
        <time>2023-08-29T08:32:44Z</time>
      </trkpt>
      <trkpt lat="45.46079" lon="5.35135">
        <ele>542.2</ele>
        <time>2023-08-29T08:32:45Z</time>
      </trkpt>
      <trkpt lat="45.46079" lon="5.35127">
        <ele>542.6</ele>
        <time>2023-08-29T08:32:46Z</time>
      </trkpt>
      <trkpt lat="45.46078" lon="5.35118">
        <ele>542.8</ele>
        <time>2023-08-29T08:32:47Z</time>
      </trkpt>
      <trkpt lat="45.46077" lon="5.3511">
        <ele>543.2</ele>
        <time>2023-08-29T08:32:48Z</time>
      </trkpt>
      <trkpt lat="45.46076" lon="5.35102">
        <ele>543.4</ele>
        <time>2023-08-29T08:32:49Z</time>
      </trkpt>
      <trkpt lat="45.46075" lon="5.35095">
        <ele>543.8</ele>
        <time>2023-08-29T08:32:50Z</time>
      </trkpt>
      <trkpt lat="45.46074" lon="5.35088">
        <ele>544.2</ele>
        <time>2023-08-29T08:32:51Z</time>
      </trkpt>
      <trkpt lat="45.46073" lon="5.35081">
        <ele>544.4</ele>
        <time>2023-08-29T08:32:52Z</time>
      </trkpt>
      <trkpt lat="45.46072" lon="5.35073">
        <ele>544.6</ele>
        <time>2023-08-29T08:32:53Z</time>
      </trkpt>
      <trkpt lat="45.46071" lon="5.35065">
        <ele>544.8</ele>
        <time>2023-08-29T08:32:54Z</time>
      </trkpt>
      <trkpt lat="45.4607" lon="5.35057">
        <ele>545</ele>
        <time>2023-08-29T08:32:55Z</time>
      </trkpt>
      <trkpt lat="45.46068" lon="5.3505">
        <ele>545</ele>
        <time>2023-08-29T08:32:56Z</time>
      </trkpt>
      <trkpt lat="45.46066" lon="5.35043">
        <ele>545.4</ele>
        <time>2023-08-29T08:32:57Z</time>
      </trkpt>
      <trkpt lat="45.46063" lon="5.35038">
        <ele>545.4</ele>
        <time>2023-08-29T08:32:58Z</time>
      </trkpt>
      <trkpt lat="45.4606" lon="5.35032">
        <ele>545.6</ele>
        <time>2023-08-29T08:32:59Z</time>
      </trkpt>
      <trkpt lat="45.46057" lon="5.35026">
        <ele>545.6</ele>
        <time>2023-08-29T08:33:00Z</time>
      </trkpt>
      <trkpt lat="45.46054" lon="5.3502">
        <ele>545.6</ele>
        <time>2023-08-29T08:33:01Z</time>
      </trkpt>
      <trkpt lat="45.4605" lon="5.35015">
        <ele>546.2</ele>
        <time>2023-08-29T08:33:02Z</time>
      </trkpt>
      <trkpt lat="45.46047" lon="5.3501">
        <ele>546.6</ele>
        <time>2023-08-29T08:33:03Z</time>
      </trkpt>
      <trkpt lat="45.46043" lon="5.35005">
        <ele>547</ele>
        <time>2023-08-29T08:33:04Z</time>
      </trkpt>
      <trkpt lat="45.4604" lon="5.35">
        <ele>547.4</ele>
        <time>2023-08-29T08:33:05Z</time>
      </trkpt>
      <trkpt lat="45.46036" lon="5.34994">
        <ele>547.6</ele>
        <time>2023-08-29T08:33:06Z</time>
      </trkpt>
      <trkpt lat="45.46032" lon="5.34989">
        <ele>547.6</ele>
        <time>2023-08-29T08:33:07Z</time>
      </trkpt>
      <trkpt lat="45.46028" lon="5.34984">
        <ele>547.8</ele>
        <time>2023-08-29T08:33:08Z</time>
      </trkpt>
      <trkpt lat="45.46025" lon="5.34979">
        <ele>548</ele>
        <time>2023-08-29T08:33:09Z</time>
      </trkpt>
      <trkpt lat="45.46021" lon="5.34973">
        <ele>548.2</ele>
        <time>2023-08-29T08:33:10Z</time>
      </trkpt>
      <trkpt lat="45.46017" lon="5.34968">
        <ele>548.4</ele>
        <time>2023-08-29T08:33:11Z</time>
      </trkpt>
      <trkpt lat="45.46014" lon="5.34962">
        <ele>548.4</ele>
        <time>2023-08-29T08:33:12Z</time>
      </trkpt>
      <trkpt lat="45.4601" lon="5.34957">
        <ele>548.6</ele>
        <time>2023-08-29T08:33:13Z</time>
      </trkpt>
      <trkpt lat="45.46007" lon="5.34951">
        <ele>548.8</ele>
        <time>2023-08-29T08:33:14Z</time>
      </trkpt>
      <trkpt lat="45.46003" lon="5.34944">
        <ele>549</ele>
        <time>2023-08-29T08:33:15Z</time>
      </trkpt>
      <trkpt lat="45.45999" lon="5.34939">
        <ele>549.2</ele>
        <time>2023-08-29T08:33:16Z</time>
      </trkpt>
      <trkpt lat="45.45995" lon="5.34934">
        <ele>549.2</ele>
        <time>2023-08-29T08:33:17Z</time>
      </trkpt>
      <trkpt lat="45.45992" lon="5.34929">
        <ele>549.4</ele>
        <time>2023-08-29T08:33:18Z</time>
      </trkpt>
      <trkpt lat="45.45988" lon="5.34923">
        <ele>549.6</ele>
        <time>2023-08-29T08:33:19Z</time>
      </trkpt>
      <trkpt lat="45.45984" lon="5.34917">
        <ele>550</ele>
        <time>2023-08-29T08:33:20Z</time>
      </trkpt>
      <trkpt lat="45.4598" lon="5.34912">
        <ele>550</ele>
        <time>2023-08-29T08:33:21Z</time>
      </trkpt>
      <trkpt lat="45.45976" lon="5.34906">
        <ele>550.2</ele>
        <time>2023-08-29T08:33:22Z</time>
      </trkpt>
      <trkpt lat="45.45972" lon="5.34901">
        <ele>550.2</ele>
        <time>2023-08-29T08:33:23Z</time>
      </trkpt>
      <trkpt lat="45.45969" lon="5.34895">
        <ele>550.4</ele>
        <time>2023-08-29T08:33:24Z</time>
      </trkpt>
      <trkpt lat="45.45965" lon="5.3489">
        <ele>550.6</ele>
        <time>2023-08-29T08:33:25Z</time>
      </trkpt>
      <trkpt lat="45.45961" lon="5.34884">
        <ele>550.6</ele>
        <time>2023-08-29T08:33:26Z</time>
      </trkpt>
      <trkpt lat="45.45957" lon="5.34878">
        <ele>550.6</ele>
        <time>2023-08-29T08:33:27Z</time>
      </trkpt>
      <trkpt lat="45.45953" lon="5.34873">
        <ele>550.6</ele>
        <time>2023-08-29T08:33:28Z</time>
      </trkpt>
      <trkpt lat="45.45949" lon="5.34867">
        <ele>550.6</ele>
        <time>2023-08-29T08:33:29Z</time>
      </trkpt>
      <trkpt lat="45.45945" lon="5.34861">
        <ele>550.6</ele>
        <time>2023-08-29T08:33:30Z</time>
      </trkpt>
      <trkpt lat="45.45941" lon="5.34855">
        <ele>550.8</ele>
        <time>2023-08-29T08:33:31Z</time>
      </trkpt>
      <trkpt lat="45.45937" lon="5.34849">
        <ele>550.8</ele>
        <time>2023-08-29T08:33:32Z</time>
      </trkpt>
      <trkpt lat="45.45932" lon="5.34844">
        <ele>550.8</ele>
        <time>2023-08-29T08:33:33Z</time>
      </trkpt>
      <trkpt lat="45.45928" lon="5.34838">
        <ele>551.2</ele>
        <time>2023-08-29T08:33:34Z</time>
      </trkpt>
      <trkpt lat="45.45924" lon="5.34832">
        <ele>551.2</ele>
        <time>2023-08-29T08:33:35Z</time>
      </trkpt>
      <trkpt lat="45.4592" lon="5.34826">
        <ele>551.4</ele>
        <time>2023-08-29T08:33:36Z</time>
      </trkpt>
      <trkpt lat="45.45915" lon="5.34821">
        <ele>551.4</ele>
        <time>2023-08-29T08:33:37Z</time>
      </trkpt>
      <trkpt lat="45.45911" lon="5.34815">
        <ele>551.4</ele>
        <time>2023-08-29T08:33:38Z</time>
      </trkpt>
      <trkpt lat="45.45907" lon="5.34809">
        <ele>551.4</ele>
        <time>2023-08-29T08:33:39Z</time>
      </trkpt>
      <trkpt lat="45.45903" lon="5.34803">
        <ele>551.6</ele>
        <time>2023-08-29T08:33:40Z</time>
      </trkpt>
      <trkpt lat="45.45899" lon="5.34797">
        <ele>551.6</ele>
        <time>2023-08-29T08:33:41Z</time>
      </trkpt>
      <trkpt lat="45.45895" lon="5.34791">
        <ele>551.6</ele>
        <time>2023-08-29T08:33:42Z</time>
      </trkpt>
      <trkpt lat="45.45891" lon="5.34786">
        <ele>551.6</ele>
        <time>2023-08-29T08:33:43Z</time>
      </trkpt>
      <trkpt lat="45.45887" lon="5.34779">
        <ele>551.6</ele>
        <time>2023-08-29T08:33:44Z</time>
      </trkpt>
      <trkpt lat="45.45882" lon="5.34773">
        <ele>551.8</ele>
        <time>2023-08-29T08:33:45Z</time>
      </trkpt>
      <trkpt lat="45.45878" lon="5.34766">
        <ele>551.8</ele>
        <time>2023-08-29T08:33:46Z</time>
      </trkpt>
      <trkpt lat="45.45874" lon="5.34761">
        <ele>552</ele>
        <time>2023-08-29T08:33:47Z</time>
      </trkpt>
      <trkpt lat="45.45869" lon="5.34756">
        <ele>552</ele>
        <time>2023-08-29T08:33:48Z</time>
      </trkpt>
      <trkpt lat="45.45865" lon="5.3475">
        <ele>552</ele>
        <time>2023-08-29T08:33:49Z</time>
      </trkpt>
      <trkpt lat="45.45862" lon="5.34745">
        <ele>552.2</ele>
        <time>2023-08-29T08:33:50Z</time>
      </trkpt>
      <trkpt lat="45.45858" lon="5.34739">
        <ele>552.2</ele>
        <time>2023-08-29T08:33:51Z</time>
      </trkpt>
      <trkpt lat="45.45854" lon="5.34732">
        <ele>552</ele>
        <time>2023-08-29T08:33:52Z</time>
      </trkpt>
      <trkpt lat="45.4585" lon="5.34726">
        <ele>552</ele>
        <time>2023-08-29T08:33:53Z</time>
      </trkpt>
      <trkpt lat="45.45846" lon="5.3472">
        <ele>552</ele>
        <time>2023-08-29T08:33:54Z</time>
      </trkpt>
      <trkpt lat="45.45842" lon="5.34714">
        <ele>552</ele>
        <time>2023-08-29T08:33:55Z</time>
      </trkpt>
      <trkpt lat="45.45837" lon="5.34708">
        <ele>552</ele>
        <time>2023-08-29T08:33:56Z</time>
      </trkpt>
      <trkpt lat="45.45833" lon="5.34703">
        <ele>551.8</ele>
        <time>2023-08-29T08:33:57Z</time>
      </trkpt>
      <trkpt lat="45.45829" lon="5.34697">
        <ele>551.8</ele>
        <time>2023-08-29T08:33:58Z</time>
      </trkpt>
      <trkpt lat="45.45825" lon="5.34691">
        <ele>552</ele>
        <time>2023-08-29T08:33:59Z</time>
      </trkpt>
      <trkpt lat="45.4582" lon="5.34685">
        <ele>552.2</ele>
        <time>2023-08-29T08:34:00Z</time>
      </trkpt>
      <trkpt lat="45.45816" lon="5.34679">
        <ele>552.2</ele>
        <time>2023-08-29T08:34:01Z</time>
      </trkpt>
      <trkpt lat="45.45812" lon="5.34672">
        <ele>552.4</ele>
        <time>2023-08-29T08:34:02Z</time>
      </trkpt>
      <trkpt lat="45.45807" lon="5.34666">
        <ele>552.6</ele>
        <time>2023-08-29T08:34:03Z</time>
      </trkpt>
      <trkpt lat="45.45803" lon="5.34659">
        <ele>552.6</ele>
        <time>2023-08-29T08:34:04Z</time>
      </trkpt>
      <trkpt lat="45.45799" lon="5.34652">
        <ele>552.6</ele>
        <time>2023-08-29T08:34:05Z</time>
      </trkpt>
      <trkpt lat="45.45794" lon="5.34646">
        <ele>552.6</ele>
        <time>2023-08-29T08:34:06Z</time>
      </trkpt>
      <trkpt lat="45.45789" lon="5.34639">
        <ele>552.4</ele>
        <time>2023-08-29T08:34:07Z</time>
      </trkpt>
      <trkpt lat="45.45784" lon="5.34632">
        <ele>552.4</ele>
        <time>2023-08-29T08:34:08Z</time>
      </trkpt>
      <trkpt lat="45.4578" lon="5.34625">
        <ele>552.4</ele>
        <time>2023-08-29T08:34:09Z</time>
      </trkpt>
      <trkpt lat="45.45775" lon="5.34619">
        <ele>552.2</ele>
        <time>2023-08-29T08:34:10Z</time>
      </trkpt>
      <trkpt lat="45.45769" lon="5.34612">
        <ele>552</ele>
        <time>2023-08-29T08:34:11Z</time>
      </trkpt>
      <trkpt lat="45.45764" lon="5.34604">
        <ele>552</ele>
        <time>2023-08-29T08:34:12Z</time>
      </trkpt>
      <trkpt lat="45.45759" lon="5.34597">
        <ele>552</ele>
        <time>2023-08-29T08:34:13Z</time>
      </trkpt>
      <trkpt lat="45.45754" lon="5.34589">
        <ele>551.8</ele>
        <time>2023-08-29T08:34:14Z</time>
      </trkpt>
      <trkpt lat="45.45748" lon="5.34581">
        <ele>551.6</ele>
        <time>2023-08-29T08:34:15Z</time>
      </trkpt>
      <trkpt lat="45.45743" lon="5.34574">
        <ele>551.4</ele>
        <time>2023-08-29T08:34:16Z</time>
      </trkpt>
      <trkpt lat="45.45737" lon="5.34566">
        <ele>551.4</ele>
        <time>2023-08-29T08:34:17Z</time>
      </trkpt>
      <trkpt lat="45.45732" lon="5.34558">
        <ele>551.4</ele>
        <time>2023-08-29T08:34:18Z</time>
      </trkpt>
      <trkpt lat="45.45726" lon="5.3455">
        <ele>551.2</ele>
        <time>2023-08-29T08:34:19Z</time>
      </trkpt>
      <trkpt lat="45.4572" lon="5.34542">
        <ele>550.8</ele>
        <time>2023-08-29T08:34:20Z</time>
      </trkpt>
      <trkpt lat="45.45714" lon="5.34533">
        <ele>550.4</ele>
        <time>2023-08-29T08:34:21Z</time>
      </trkpt>
      <trkpt lat="45.45708" lon="5.34525">
        <ele>550.2</ele>
        <time>2023-08-29T08:34:22Z</time>
      </trkpt>
      <trkpt lat="45.45702" lon="5.34516">
        <ele>550.2</ele>
        <time>2023-08-29T08:34:23Z</time>
      </trkpt>
      <trkpt lat="45.45695" lon="5.34508">
        <ele>550</ele>
        <time>2023-08-29T08:34:24Z</time>
      </trkpt>
      <trkpt lat="45.45689" lon="5.34499">
        <ele>550</ele>
        <time>2023-08-29T08:34:25Z</time>
      </trkpt>
      <trkpt lat="45.45683" lon="5.3449">
        <ele>549.6</ele>
        <time>2023-08-29T08:34:26Z</time>
      </trkpt>
      <trkpt lat="45.45676" lon="5.34481">
        <ele>549.6</ele>
        <time>2023-08-29T08:34:27Z</time>
      </trkpt>
      <trkpt lat="45.4567" lon="5.34472">
        <ele>549.6</ele>
        <time>2023-08-29T08:34:28Z</time>
      </trkpt>
      <trkpt lat="45.45664" lon="5.34463">
        <ele>549.6</ele>
        <time>2023-08-29T08:34:29Z</time>
      </trkpt>
      <trkpt lat="45.45657" lon="5.34454">
        <ele>549.6</ele>
        <time>2023-08-29T08:34:30Z</time>
      </trkpt>
      <trkpt lat="45.45651" lon="5.34445">
        <ele>549.6</ele>
        <time>2023-08-29T08:34:31Z</time>
      </trkpt>
      <trkpt lat="45.45645" lon="5.34436">
        <ele>549.6</ele>
        <time>2023-08-29T08:34:32Z</time>
      </trkpt>
      <trkpt lat="45.45639" lon="5.34426">
        <ele>549.6</ele>
        <time>2023-08-29T08:34:33Z</time>
      </trkpt>
      <trkpt lat="45.45632" lon="5.34417">
        <ele>549.6</ele>
        <time>2023-08-29T08:34:34Z</time>
      </trkpt>
      <trkpt lat="45.45626" lon="5.34408">
        <ele>549.2</ele>
        <time>2023-08-29T08:34:35Z</time>
      </trkpt>
      <trkpt lat="45.4562" lon="5.34398">
        <ele>549</ele>
        <time>2023-08-29T08:34:36Z</time>
      </trkpt>
      <trkpt lat="45.45613" lon="5.34389">
        <ele>548.8</ele>
        <time>2023-08-29T08:34:37Z</time>
      </trkpt>
      <trkpt lat="45.45606" lon="5.3438">
        <ele>548.8</ele>
        <time>2023-08-29T08:34:38Z</time>
      </trkpt>
      <trkpt lat="45.456" lon="5.34371">
        <ele>548.6</ele>
        <time>2023-08-29T08:34:39Z</time>
      </trkpt>
      <trkpt lat="45.45593" lon="5.34361">
        <ele>548.4</ele>
        <time>2023-08-29T08:34:40Z</time>
      </trkpt>
      <trkpt lat="45.45587" lon="5.34351">
        <ele>548.2</ele>
        <time>2023-08-29T08:34:41Z</time>
      </trkpt>
      <trkpt lat="45.4558" lon="5.34342">
        <ele>547.8</ele>
        <time>2023-08-29T08:34:42Z</time>
      </trkpt>
      <trkpt lat="45.45574" lon="5.34333">
        <ele>547.6</ele>
        <time>2023-08-29T08:34:43Z</time>
      </trkpt>
      <trkpt lat="45.45567" lon="5.34324">
        <ele>547.4</ele>
        <time>2023-08-29T08:34:44Z</time>
      </trkpt>
      <trkpt lat="45.4556" lon="5.34315">
        <ele>546.8</ele>
        <time>2023-08-29T08:34:45Z</time>
      </trkpt>
      <trkpt lat="45.45552" lon="5.34305">
        <ele>546.8</ele>
        <time>2023-08-29T08:34:46Z</time>
      </trkpt>
      <trkpt lat="45.45544" lon="5.34294">
        <ele>546.8</ele>
        <time>2023-08-29T08:34:47Z</time>
      </trkpt>
      <trkpt lat="45.45536" lon="5.34283">
        <ele>546.4</ele>
        <time>2023-08-29T08:34:48Z</time>
      </trkpt>
      <trkpt lat="45.45529" lon="5.34272">
        <ele>546.2</ele>
        <time>2023-08-29T08:34:49Z</time>
      </trkpt>
      <trkpt lat="45.45521" lon="5.34261">
        <ele>545.6</ele>
        <time>2023-08-29T08:34:50Z</time>
      </trkpt>
      <trkpt lat="45.45513" lon="5.3425">
        <ele>545.4</ele>
        <time>2023-08-29T08:34:51Z</time>
      </trkpt>
      <trkpt lat="45.45506" lon="5.34238">
        <ele>544.2</ele>
        <time>2023-08-29T08:34:52Z</time>
      </trkpt>
      <trkpt lat="45.45498" lon="5.34226">
        <ele>543.4</ele>
        <time>2023-08-29T08:34:53Z</time>
      </trkpt>
      <trkpt lat="45.4549" lon="5.34215">
        <ele>543</ele>
        <time>2023-08-29T08:34:54Z</time>
      </trkpt>
      <trkpt lat="45.45482" lon="5.34204">
        <ele>542.8</ele>
        <time>2023-08-29T08:34:55Z</time>
      </trkpt>
      <trkpt lat="45.45474" lon="5.34192">
        <ele>542.8</ele>
        <time>2023-08-29T08:34:56Z</time>
      </trkpt>
      <trkpt lat="45.45466" lon="5.34181">
        <ele>542.6</ele>
        <time>2023-08-29T08:34:57Z</time>
      </trkpt>
      <trkpt lat="45.45458" lon="5.34168">
        <ele>542.6</ele>
        <time>2023-08-29T08:34:58Z</time>
      </trkpt>
      <trkpt lat="45.45451" lon="5.34156">
        <ele>542.4</ele>
        <time>2023-08-29T08:34:59Z</time>
      </trkpt>
      <trkpt lat="45.45443" lon="5.34144">
        <ele>541.8</ele>
        <time>2023-08-29T08:35:00Z</time>
      </trkpt>
      <trkpt lat="45.45436" lon="5.34132">
        <ele>541</ele>
        <time>2023-08-29T08:35:01Z</time>
      </trkpt>
      <trkpt lat="45.4543" lon="5.34119">
        <ele>540.8</ele>
        <time>2023-08-29T08:35:02Z</time>
      </trkpt>
      <trkpt lat="45.45424" lon="5.34106">
        <ele>540.2</ele>
        <time>2023-08-29T08:35:03Z</time>
      </trkpt>
      <trkpt lat="45.45419" lon="5.34093">
        <ele>539.4</ele>
        <time>2023-08-29T08:35:04Z</time>
      </trkpt>
      <trkpt lat="45.45414" lon="5.3408">
        <ele>538.2</ele>
        <time>2023-08-29T08:35:05Z</time>
      </trkpt>
      <trkpt lat="45.45409" lon="5.34067">
        <ele>537.2</ele>
        <time>2023-08-29T08:35:06Z</time>
      </trkpt>
      <trkpt lat="45.45404" lon="5.34054">
        <ele>536.6</ele>
        <time>2023-08-29T08:35:07Z</time>
      </trkpt>
      <trkpt lat="45.45399" lon="5.34041">
        <ele>536</ele>
        <time>2023-08-29T08:35:08Z</time>
      </trkpt>
      <trkpt lat="45.45395" lon="5.34027">
        <ele>535.6</ele>
        <time>2023-08-29T08:35:09Z</time>
      </trkpt>
      <trkpt lat="45.45391" lon="5.34014">
        <ele>535.4</ele>
        <time>2023-08-29T08:35:10Z</time>
      </trkpt>
      <trkpt lat="45.45388" lon="5.34">
        <ele>535</ele>
        <time>2023-08-29T08:35:11Z</time>
      </trkpt>
      <trkpt lat="45.45384" lon="5.33986">
        <ele>534.4</ele>
        <time>2023-08-29T08:35:12Z</time>
      </trkpt>
      <trkpt lat="45.45381" lon="5.33972">
        <ele>534.4</ele>
        <time>2023-08-29T08:35:13Z</time>
      </trkpt>
      <trkpt lat="45.45377" lon="5.33958">
        <ele>534.4</ele>
        <time>2023-08-29T08:35:14Z</time>
      </trkpt>
      <trkpt lat="45.45374" lon="5.33944">
        <ele>534.2</ele>
        <time>2023-08-29T08:35:15Z</time>
      </trkpt>
      <trkpt lat="45.4537" lon="5.33929">
        <ele>534</ele>
        <time>2023-08-29T08:35:16Z</time>
      </trkpt>
      <trkpt lat="45.45366" lon="5.33914">
        <ele>534</ele>
        <time>2023-08-29T08:35:17Z</time>
      </trkpt>
      <trkpt lat="45.45361" lon="5.33899">
        <ele>533.8</ele>
        <time>2023-08-29T08:35:18Z</time>
      </trkpt>
      <trkpt lat="45.45356" lon="5.33884">
        <ele>533.4</ele>
        <time>2023-08-29T08:35:19Z</time>
      </trkpt>
      <trkpt lat="45.4535" lon="5.3387">
        <ele>532.6</ele>
        <time>2023-08-29T08:35:20Z</time>
      </trkpt>
      <trkpt lat="45.45343" lon="5.33856">
        <ele>532</ele>
        <time>2023-08-29T08:35:21Z</time>
      </trkpt>
      <trkpt lat="45.45336" lon="5.33843">
        <ele>532</ele>
        <time>2023-08-29T08:35:22Z</time>
      </trkpt>
      <trkpt lat="45.45329" lon="5.33831">
        <ele>531.4</ele>
        <time>2023-08-29T08:35:23Z</time>
      </trkpt>
      <trkpt lat="45.45321" lon="5.33819">
        <ele>530.8</ele>
        <time>2023-08-29T08:35:24Z</time>
      </trkpt>
      <trkpt lat="45.45313" lon="5.33808">
        <ele>530.2</ele>
        <time>2023-08-29T08:35:25Z</time>
      </trkpt>
      <trkpt lat="45.45306" lon="5.33796">
        <ele>529.6</ele>
        <time>2023-08-29T08:35:26Z</time>
      </trkpt>
      <trkpt lat="45.45298" lon="5.33786">
        <ele>529.2</ele>
        <time>2023-08-29T08:35:27Z</time>
      </trkpt>
      <trkpt lat="45.4529" lon="5.33775">
        <ele>528.8</ele>
        <time>2023-08-29T08:35:28Z</time>
      </trkpt>
      <trkpt lat="45.45281" lon="5.33765">
        <ele>528.4</ele>
        <time>2023-08-29T08:35:29Z</time>
      </trkpt>
      <trkpt lat="45.45272" lon="5.33756">
        <ele>528</ele>
        <time>2023-08-29T08:35:30Z</time>
      </trkpt>
      <trkpt lat="45.45263" lon="5.33747">
        <ele>527.6</ele>
        <time>2023-08-29T08:35:31Z</time>
      </trkpt>
      <trkpt lat="45.45253" lon="5.33739">
        <ele>526.2</ele>
        <time>2023-08-29T08:35:32Z</time>
      </trkpt>
      <trkpt lat="45.45243" lon="5.33731">
        <ele>526</ele>
        <time>2023-08-29T08:35:33Z</time>
      </trkpt>
      <trkpt lat="45.45234" lon="5.33724">
        <ele>525.4</ele>
        <time>2023-08-29T08:35:34Z</time>
      </trkpt>
      <trkpt lat="45.45224" lon="5.33718">
        <ele>524.2</ele>
        <time>2023-08-29T08:35:35Z</time>
      </trkpt>
      <trkpt lat="45.45214" lon="5.33711">
        <ele>523.2</ele>
        <time>2023-08-29T08:35:36Z</time>
      </trkpt>
      <trkpt lat="45.45205" lon="5.33705">
        <ele>522.6</ele>
        <time>2023-08-29T08:35:37Z</time>
      </trkpt>
      <trkpt lat="45.45195" lon="5.33698">
        <ele>522.4</ele>
        <time>2023-08-29T08:35:38Z</time>
      </trkpt>
      <trkpt lat="45.45185" lon="5.33691">
        <ele>522.4</ele>
        <time>2023-08-29T08:35:39Z</time>
      </trkpt>
      <trkpt lat="45.45176" lon="5.33685">
        <ele>522.2</ele>
        <time>2023-08-29T08:35:40Z</time>
      </trkpt>
      <trkpt lat="45.45166" lon="5.33678">
        <ele>522</ele>
        <time>2023-08-29T08:35:41Z</time>
      </trkpt>
      <trkpt lat="45.45156" lon="5.33672">
        <ele>521.6</ele>
        <time>2023-08-29T08:35:42Z</time>
      </trkpt>
      <trkpt lat="45.45147" lon="5.33665">
        <ele>521.6</ele>
        <time>2023-08-29T08:35:43Z</time>
      </trkpt>
      <trkpt lat="45.45137" lon="5.33658">
        <ele>521.6</ele>
        <time>2023-08-29T08:35:44Z</time>
      </trkpt>
      <trkpt lat="45.45127" lon="5.33651">
        <ele>521.6</ele>
        <time>2023-08-29T08:35:45Z</time>
      </trkpt>
      <trkpt lat="45.45117" lon="5.33644">
        <ele>521.6</ele>
        <time>2023-08-29T08:35:46Z</time>
      </trkpt>
      <trkpt lat="45.45107" lon="5.33637">
        <ele>521.6</ele>
        <time>2023-08-29T08:35:47Z</time>
      </trkpt>
      <trkpt lat="45.45097" lon="5.33631">
        <ele>521.6</ele>
        <time>2023-08-29T08:35:48Z</time>
      </trkpt>
      <trkpt lat="45.45087" lon="5.33625">
        <ele>521.6</ele>
        <time>2023-08-29T08:35:49Z</time>
      </trkpt>
      <trkpt lat="45.45076" lon="5.3362">
        <ele>521.6</ele>
        <time>2023-08-29T08:35:50Z</time>
      </trkpt>
      <trkpt lat="45.45066" lon="5.33615">
        <ele>521.4</ele>
        <time>2023-08-29T08:35:51Z</time>
      </trkpt>
      <trkpt lat="45.45056" lon="5.33612">
        <ele>521</ele>
        <time>2023-08-29T08:35:52Z</time>
      </trkpt>
      <trkpt lat="45.45045" lon="5.33609">
        <ele>520.8</ele>
        <time>2023-08-29T08:35:53Z</time>
      </trkpt>
      <trkpt lat="45.45035" lon="5.33605">
        <ele>520.6</ele>
        <time>2023-08-29T08:35:54Z</time>
      </trkpt>
      <trkpt lat="45.45025" lon="5.33602">
        <ele>520</ele>
        <time>2023-08-29T08:35:55Z</time>
      </trkpt>
      <trkpt lat="45.45015" lon="5.336">
        <ele>519.8</ele>
        <time>2023-08-29T08:35:56Z</time>
      </trkpt>
      <trkpt lat="45.45005" lon="5.33597">
        <ele>519.8</ele>
        <time>2023-08-29T08:35:57Z</time>
      </trkpt>
      <trkpt lat="45.44996" lon="5.33594">
        <ele>519.8</ele>
        <time>2023-08-29T08:35:58Z</time>
      </trkpt>
      <trkpt lat="45.44987" lon="5.33591">
        <ele>519.8</ele>
        <time>2023-08-29T08:35:59Z</time>
      </trkpt>
      <trkpt lat="45.44978" lon="5.33589">
        <ele>519.8</ele>
        <time>2023-08-29T08:36:00Z</time>
      </trkpt>
      <trkpt lat="45.44969" lon="5.33586">
        <ele>520</ele>
        <time>2023-08-29T08:36:01Z</time>
      </trkpt>
      <trkpt lat="45.4496" lon="5.33583">
        <ele>520</ele>
        <time>2023-08-29T08:36:02Z</time>
      </trkpt>
      <trkpt lat="45.44951" lon="5.3358">
        <ele>520</ele>
        <time>2023-08-29T08:36:03Z</time>
      </trkpt>
      <trkpt lat="45.44943" lon="5.33577">
        <ele>520</ele>
        <time>2023-08-29T08:36:04Z</time>
      </trkpt>
      <trkpt lat="45.44934" lon="5.33574">
        <ele>520</ele>
        <time>2023-08-29T08:36:05Z</time>
      </trkpt>
      <trkpt lat="45.44926" lon="5.33571">
        <ele>519.8</ele>
        <time>2023-08-29T08:36:06Z</time>
      </trkpt>
      <trkpt lat="45.44918" lon="5.33569">
        <ele>519.8</ele>
        <time>2023-08-29T08:36:07Z</time>
      </trkpt>
      <trkpt lat="45.44911" lon="5.33567">
        <ele>519.6</ele>
        <time>2023-08-29T08:36:08Z</time>
      </trkpt>
      <trkpt lat="45.44904" lon="5.33565">
        <ele>519.6</ele>
        <time>2023-08-29T08:36:09Z</time>
      </trkpt>
      <trkpt lat="45.44899" lon="5.33564">
        <ele>519.6</ele>
        <time>2023-08-29T08:36:10Z</time>
      </trkpt>
      <trkpt lat="45.44895" lon="5.33562">
        <ele>519.6</ele>
        <time>2023-08-29T08:36:11Z</time>
      </trkpt>
      <trkpt lat="45.44891" lon="5.3356">
        <ele>520</ele>
        <time>2023-08-29T08:36:12Z</time>
      </trkpt>
      <trkpt lat="45.44889" lon="5.33558">
        <ele>520.2</ele>
        <time>2023-08-29T08:36:13Z</time>
      </trkpt>
      <trkpt lat="45.44889" lon="5.33555">
        <ele>520.6</ele>
        <time>2023-08-29T08:36:14Z</time>
      </trkpt>
      <trkpt lat="45.44889" lon="5.33552">
        <ele>520.6</ele>
        <time>2023-08-29T08:36:15Z</time>
      </trkpt>
      <trkpt lat="45.4489" lon="5.33549">
        <ele>520.6</ele>
        <time>2023-08-29T08:36:16Z</time>
      </trkpt>
      <trkpt lat="45.44891" lon="5.33546">
        <ele>520.6</ele>
        <time>2023-08-29T08:36:17Z</time>
      </trkpt>
      <trkpt lat="45.44893" lon="5.33544">
        <ele>520.6</ele>
        <time>2023-08-29T08:36:18Z</time>
      </trkpt>
      <trkpt lat="45.44896" lon="5.33542">
        <ele>520.4</ele>
        <time>2023-08-29T08:36:19Z</time>
      </trkpt>
      <trkpt lat="45.44899" lon="5.33541">
        <ele>520.2</ele>
        <time>2023-08-29T08:36:20Z</time>
      </trkpt>
      <trkpt lat="45.44903" lon="5.3354">
        <ele>520</ele>
        <time>2023-08-29T08:36:21Z</time>
      </trkpt>
      <trkpt lat="45.44906" lon="5.33539">
        <ele>520</ele>
        <time>2023-08-29T08:36:22Z</time>
      </trkpt>
      <trkpt lat="45.44911" lon="5.33537">
        <ele>519.8</ele>
        <time>2023-08-29T08:36:23Z</time>
      </trkpt>
      <trkpt lat="45.44915" lon="5.33536">
        <ele>519.8</ele>
        <time>2023-08-29T08:36:24Z</time>
      </trkpt>
      <trkpt lat="45.44919" lon="5.33536">
        <ele>519.8</ele>
        <time>2023-08-29T08:36:25Z</time>
      </trkpt>
      <trkpt lat="45.44924" lon="5.33535">
        <ele>519.8</ele>
        <time>2023-08-29T08:36:26Z</time>
      </trkpt>
      <trkpt lat="45.44928" lon="5.33535">
        <ele>519.6</ele>
        <time>2023-08-29T08:36:27Z</time>
      </trkpt>
      <trkpt lat="45.44933" lon="5.33534">
        <ele>519.8</ele>
        <time>2023-08-29T08:36:28Z</time>
      </trkpt>
      <trkpt lat="45.44937" lon="5.33534">
        <ele>520</ele>
        <time>2023-08-29T08:36:29Z</time>
      </trkpt>
      <trkpt lat="45.4494" lon="5.33535">
        <ele>520.2</ele>
        <time>2023-08-29T08:36:30Z</time>
      </trkpt>
      <trkpt lat="45.44944" lon="5.33535">
        <ele>520.2</ele>
        <time>2023-08-29T08:36:31Z</time>
      </trkpt>
      <trkpt lat="45.44948" lon="5.33535">
        <ele>520.4</ele>
        <time>2023-08-29T08:36:32Z</time>
      </trkpt>
      <trkpt lat="45.44951" lon="5.33534">
        <ele>520.8</ele>
        <time>2023-08-29T08:36:33Z</time>
      </trkpt>
      <trkpt lat="45.44955" lon="5.33534">
        <ele>521</ele>
        <time>2023-08-29T08:36:34Z</time>
      </trkpt>
      <trkpt lat="45.44958" lon="5.33533">
        <ele>521</ele>
        <time>2023-08-29T08:36:35Z</time>
      </trkpt>
      <trkpt lat="45.44962" lon="5.33533">
        <ele>521</ele>
        <time>2023-08-29T08:36:36Z</time>
      </trkpt>
      <trkpt lat="45.44965" lon="5.33533">
        <ele>521.2</ele>
        <time>2023-08-29T08:36:37Z</time>
      </trkpt>
      <trkpt lat="45.44969" lon="5.33532">
        <ele>521.2</ele>
        <time>2023-08-29T08:36:38Z</time>
      </trkpt>
      <trkpt lat="45.44972" lon="5.33532">
        <ele>521.4</ele>
        <time>2023-08-29T08:36:39Z</time>
      </trkpt>
      <trkpt lat="45.44975" lon="5.33532">
        <ele>521.4</ele>
        <time>2023-08-29T08:36:40Z</time>
      </trkpt>
      <trkpt lat="45.44979" lon="5.33531">
        <ele>521.4</ele>
        <time>2023-08-29T08:36:41Z</time>
      </trkpt>
      <trkpt lat="45.44983" lon="5.3353">
        <ele>521.4</ele>
        <time>2023-08-29T08:36:42Z</time>
      </trkpt>
      <trkpt lat="45.44986" lon="5.33528">
        <ele>521.4</ele>
        <time>2023-08-29T08:36:43Z</time>
      </trkpt>
      <trkpt lat="45.4499" lon="5.33527">
        <ele>521.4</ele>
        <time>2023-08-29T08:36:44Z</time>
      </trkpt>
      <trkpt lat="45.44993" lon="5.33525">
        <ele>521.4</ele>
        <time>2023-08-29T08:36:45Z</time>
      </trkpt>
      <trkpt lat="45.44997" lon="5.33524">
        <ele>521.4</ele>
        <time>2023-08-29T08:36:46Z</time>
      </trkpt>
      <trkpt lat="45.45" lon="5.33522">
        <ele>521.4</ele>
        <time>2023-08-29T08:36:47Z</time>
      </trkpt>
      <trkpt lat="45.45003" lon="5.33519">
        <ele>521.4</ele>
        <time>2023-08-29T08:36:48Z</time>
      </trkpt>
      <trkpt lat="45.45006" lon="5.33517">
        <ele>521.6</ele>
        <time>2023-08-29T08:36:49Z</time>
      </trkpt>
      <trkpt lat="45.4501" lon="5.33514">
        <ele>521.8</ele>
        <time>2023-08-29T08:36:50Z</time>
      </trkpt>
      <trkpt lat="45.45013" lon="5.33512">
        <ele>521.8</ele>
        <time>2023-08-29T08:36:51Z</time>
      </trkpt>
      <trkpt lat="45.45016" lon="5.3351">
        <ele>522</ele>
        <time>2023-08-29T08:36:52Z</time>
      </trkpt>
      <trkpt lat="45.4502" lon="5.33507">
        <ele>522</ele>
        <time>2023-08-29T08:36:53Z</time>
      </trkpt>
      <trkpt lat="45.45024" lon="5.33504">
        <ele>522.2</ele>
        <time>2023-08-29T08:36:54Z</time>
      </trkpt>
      <trkpt lat="45.45027" lon="5.33501">
        <ele>522.4</ele>
        <time>2023-08-29T08:36:55Z</time>
      </trkpt>
      <trkpt lat="45.4503" lon="5.33498">
        <ele>522.4</ele>
        <time>2023-08-29T08:36:56Z</time>
      </trkpt>
      <trkpt lat="45.45034" lon="5.33494">
        <ele>522.4</ele>
        <time>2023-08-29T08:36:57Z</time>
      </trkpt>
      <trkpt lat="45.45037" lon="5.33492">
        <ele>522.4</ele>
        <time>2023-08-29T08:36:58Z</time>
      </trkpt>
      <trkpt lat="45.45041" lon="5.33489">
        <ele>522.6</ele>
        <time>2023-08-29T08:36:59Z</time>
      </trkpt>
      <trkpt lat="45.45044" lon="5.33487">
        <ele>522.8</ele>
        <time>2023-08-29T08:37:00Z</time>
      </trkpt>
      <trkpt lat="45.45047" lon="5.33483">
        <ele>522.8</ele>
        <time>2023-08-29T08:37:01Z</time>
      </trkpt>
      <trkpt lat="45.45051" lon="5.33481">
        <ele>522.8</ele>
        <time>2023-08-29T08:37:02Z</time>
      </trkpt>
      <trkpt lat="45.45054" lon="5.33478">
        <ele>522.8</ele>
        <time>2023-08-29T08:37:03Z</time>
      </trkpt>
      <trkpt lat="45.45057" lon="5.33476">
        <ele>522.8</ele>
        <time>2023-08-29T08:37:04Z</time>
      </trkpt>
      <trkpt lat="45.45061" lon="5.33474">
        <ele>522.8</ele>
        <time>2023-08-29T08:37:05Z</time>
      </trkpt>
      <trkpt lat="45.45064" lon="5.33472">
        <ele>522.8</ele>
        <time>2023-08-29T08:37:06Z</time>
      </trkpt>
      <trkpt lat="45.45067" lon="5.3347">
        <ele>523</ele>
        <time>2023-08-29T08:37:07Z</time>
      </trkpt>
      <trkpt lat="45.4507" lon="5.33469">
        <ele>523</ele>
        <time>2023-08-29T08:37:08Z</time>
      </trkpt>
      <trkpt lat="45.45073" lon="5.33468">
        <ele>523.2</ele>
        <time>2023-08-29T08:37:09Z</time>
      </trkpt>
      <trkpt lat="45.45076" lon="5.33466">
        <ele>523.4</ele>
        <time>2023-08-29T08:37:10Z</time>
      </trkpt>
      <trkpt lat="45.45079" lon="5.33465">
        <ele>523.6</ele>
        <time>2023-08-29T08:37:11Z</time>
      </trkpt>
      <trkpt lat="45.45082" lon="5.33464">
        <ele>523.6</ele>
        <time>2023-08-29T08:37:12Z</time>
      </trkpt>
      <trkpt lat="45.45086" lon="5.33462">
        <ele>523.8</ele>
        <time>2023-08-29T08:37:13Z</time>
      </trkpt>
      <trkpt lat="45.45089" lon="5.33461">
        <ele>523.8</ele>
        <time>2023-08-29T08:37:14Z</time>
      </trkpt>
      <trkpt lat="45.45093" lon="5.3346">
        <ele>524.2</ele>
        <time>2023-08-29T08:37:15Z</time>
      </trkpt>
      <trkpt lat="45.45096" lon="5.33458">
        <ele>524.4</ele>
        <time>2023-08-29T08:37:16Z</time>
      </trkpt>
      <trkpt lat="45.45099" lon="5.33455">
        <ele>524.4</ele>
        <time>2023-08-29T08:37:17Z</time>
      </trkpt>
      <trkpt lat="45.45103" lon="5.33453">
        <ele>524.6</ele>
        <time>2023-08-29T08:37:18Z</time>
      </trkpt>
      <trkpt lat="45.45106" lon="5.33451">
        <ele>524.8</ele>
        <time>2023-08-29T08:37:19Z</time>
      </trkpt>
      <trkpt lat="45.45109" lon="5.33449">
        <ele>525</ele>
        <time>2023-08-29T08:37:20Z</time>
      </trkpt>
      <trkpt lat="45.45112" lon="5.33448">
        <ele>525</ele>
        <time>2023-08-29T08:37:21Z</time>
      </trkpt>
      <trkpt lat="45.45115" lon="5.33446">
        <ele>525.2</ele>
        <time>2023-08-29T08:37:22Z</time>
      </trkpt>
      <trkpt lat="45.45118" lon="5.33444">
        <ele>525.2</ele>
        <time>2023-08-29T08:37:23Z</time>
      </trkpt>
      <trkpt lat="45.45122" lon="5.33443">
        <ele>525.4</ele>
        <time>2023-08-29T08:37:24Z</time>
      </trkpt>
      <trkpt lat="45.45124" lon="5.33442">
        <ele>525.4</ele>
        <time>2023-08-29T08:37:25Z</time>
      </trkpt>
      <trkpt lat="45.45127" lon="5.3344">
        <ele>525.8</ele>
        <time>2023-08-29T08:37:26Z</time>
      </trkpt>
      <trkpt lat="45.4513" lon="5.33441">
        <ele>526</ele>
        <time>2023-08-29T08:37:27Z</time>
      </trkpt>
      <trkpt lat="45.45133" lon="5.33442">
        <ele>526</ele>
        <time>2023-08-29T08:37:28Z</time>
      </trkpt>
      <trkpt lat="45.45135" lon="5.33445">
        <ele>526</ele>
        <time>2023-08-29T08:37:29Z</time>
      </trkpt>
      <trkpt lat="45.45138" lon="5.33449">
        <ele>526.2</ele>
        <time>2023-08-29T08:37:30Z</time>
      </trkpt>
      <trkpt lat="45.45141" lon="5.33454">
        <ele>526.2</ele>
        <time>2023-08-29T08:37:31Z</time>
      </trkpt>
      <trkpt lat="45.45142" lon="5.33458">
        <ele>526.4</ele>
        <time>2023-08-29T08:37:32Z</time>
      </trkpt>
      <trkpt lat="45.45145" lon="5.33462">
        <ele>526.4</ele>
        <time>2023-08-29T08:37:33Z</time>
      </trkpt>
      <trkpt lat="45.45147" lon="5.33466">
        <ele>526.6</ele>
        <time>2023-08-29T08:37:34Z</time>
      </trkpt>
      <trkpt lat="45.45149" lon="5.3347">
        <ele>526.8</ele>
        <time>2023-08-29T08:37:35Z</time>
      </trkpt>
      <trkpt lat="45.45151" lon="5.33474">
        <ele>527.2</ele>
        <time>2023-08-29T08:37:36Z</time>
      </trkpt>
      <trkpt lat="45.45154" lon="5.33477">
        <ele>527.6</ele>
        <time>2023-08-29T08:37:37Z</time>
      </trkpt>
      <trkpt lat="45.45156" lon="5.33481">
        <ele>527.8</ele>
        <time>2023-08-29T08:37:38Z</time>
      </trkpt>
      <trkpt lat="45.45158" lon="5.33484">
        <ele>528</ele>
        <time>2023-08-29T08:37:39Z</time>
      </trkpt>
      <trkpt lat="45.45159" lon="5.33487">
        <ele>528.2</ele>
        <time>2023-08-29T08:37:40Z</time>
      </trkpt>
      <trkpt lat="45.45161" lon="5.3349">
        <ele>528.4</ele>
        <time>2023-08-29T08:37:41Z</time>
      </trkpt>
      <trkpt lat="45.45163" lon="5.33493">
        <ele>528.8</ele>
        <time>2023-08-29T08:37:42Z</time>
      </trkpt>
      <trkpt lat="45.45164" lon="5.33496">
        <ele>529.2</ele>
        <time>2023-08-29T08:37:43Z</time>
      </trkpt>
      <trkpt lat="45.45166" lon="5.33497">
        <ele>529.6</ele>
        <time>2023-08-29T08:37:44Z</time>
      </trkpt>
      <trkpt lat="45.45168" lon="5.33498">
        <ele>530</ele>
        <time>2023-08-29T08:37:45Z</time>
      </trkpt>
      <trkpt lat="45.45169" lon="5.335">
        <ele>530.4</ele>
        <time>2023-08-29T08:37:46Z</time>
      </trkpt>
      <trkpt lat="45.45171" lon="5.33502">
        <ele>530.6</ele>
        <time>2023-08-29T08:37:47Z</time>
      </trkpt>
      <trkpt lat="45.45174" lon="5.33504">
        <ele>530.6</ele>
        <time>2023-08-29T08:37:48Z</time>
      </trkpt>
      <trkpt lat="45.45176" lon="5.33505">
        <ele>530.8</ele>
        <time>2023-08-29T08:37:49Z</time>
      </trkpt>
      <trkpt lat="45.45179" lon="5.33506">
        <ele>531.4</ele>
        <time>2023-08-29T08:37:50Z</time>
      </trkpt>
      <trkpt lat="45.45181" lon="5.33507">
        <ele>531.8</ele>
        <time>2023-08-29T08:37:51Z</time>
      </trkpt>
      <trkpt lat="45.45184" lon="5.33508">
        <ele>532</ele>
        <time>2023-08-29T08:37:52Z</time>
      </trkpt>
      <trkpt lat="45.45186" lon="5.33507">
        <ele>532.4</ele>
        <time>2023-08-29T08:37:53Z</time>
      </trkpt>
      <trkpt lat="45.45188" lon="5.33507">
        <ele>532.8</ele>
        <time>2023-08-29T08:37:54Z</time>
      </trkpt>
      <trkpt lat="45.4519" lon="5.33506">
        <ele>533.2</ele>
        <time>2023-08-29T08:37:55Z</time>
      </trkpt>
      <trkpt lat="45.45193" lon="5.33506">
        <ele>533.6</ele>
        <time>2023-08-29T08:37:56Z</time>
      </trkpt>
      <trkpt lat="45.45195" lon="5.33505">
        <ele>534</ele>
        <time>2023-08-29T08:37:57Z</time>
      </trkpt>
      <trkpt lat="45.45198" lon="5.33504">
        <ele>534.4</ele>
        <time>2023-08-29T08:37:58Z</time>
      </trkpt>
      <trkpt lat="45.452" lon="5.33503">
        <ele>534.8</ele>
        <time>2023-08-29T08:37:59Z</time>
      </trkpt>
      <trkpt lat="45.45204" lon="5.33503">
        <ele>534.8</ele>
        <time>2023-08-29T08:38:00Z</time>
      </trkpt>
      <trkpt lat="45.45206" lon="5.33503">
        <ele>535.2</ele>
        <time>2023-08-29T08:38:01Z</time>
      </trkpt>
      <trkpt lat="45.45209" lon="5.33502">
        <ele>535.4</ele>
        <time>2023-08-29T08:38:02Z</time>
      </trkpt>
      <trkpt lat="45.45211" lon="5.33501">
        <ele>535.6</ele>
        <time>2023-08-29T08:38:03Z</time>
      </trkpt>
      <trkpt lat="45.45214" lon="5.33501">
        <ele>536</ele>
        <time>2023-08-29T08:38:04Z</time>
      </trkpt>
      <trkpt lat="45.45217" lon="5.335">
        <ele>536.2</ele>
        <time>2023-08-29T08:38:05Z</time>
      </trkpt>
      <trkpt lat="45.45219" lon="5.33499">
        <ele>536.4</ele>
        <time>2023-08-29T08:38:06Z</time>
      </trkpt>
      <trkpt lat="45.45222" lon="5.33498">
        <ele>536.8</ele>
        <time>2023-08-29T08:38:07Z</time>
      </trkpt>
      <trkpt lat="45.45225" lon="5.33497">
        <ele>536.8</ele>
        <time>2023-08-29T08:38:08Z</time>
      </trkpt>
      <trkpt lat="45.45227" lon="5.33495">
        <ele>537</ele>
        <time>2023-08-29T08:38:09Z</time>
      </trkpt>
      <trkpt lat="45.45231" lon="5.33494">
        <ele>537.2</ele>
        <time>2023-08-29T08:38:10Z</time>
      </trkpt>
      <trkpt lat="45.45235" lon="5.33492">
        <ele>537.4</ele>
        <time>2023-08-29T08:38:11Z</time>
      </trkpt>
      <trkpt lat="45.45238" lon="5.33491">
        <ele>537.4</ele>
        <time>2023-08-29T08:38:12Z</time>
      </trkpt>
      <trkpt lat="45.45242" lon="5.33489">
        <ele>537.4</ele>
        <time>2023-08-29T08:38:13Z</time>
      </trkpt>
      <trkpt lat="45.45245" lon="5.33487">
        <ele>537.4</ele>
        <time>2023-08-29T08:38:14Z</time>
      </trkpt>
      <trkpt lat="45.45249" lon="5.33485">
        <ele>537.2</ele>
        <time>2023-08-29T08:38:15Z</time>
      </trkpt>
      <trkpt lat="45.45252" lon="5.33482">
        <ele>537</ele>
        <time>2023-08-29T08:38:16Z</time>
      </trkpt>
      <trkpt lat="45.45256" lon="5.3348">
        <ele>536.8</ele>
        <time>2023-08-29T08:38:17Z</time>
      </trkpt>
      <trkpt lat="45.45258" lon="5.33477">
        <ele>536.6</ele>
        <time>2023-08-29T08:38:18Z</time>
      </trkpt>
      <trkpt lat="45.45261" lon="5.33475">
        <ele>536.6</ele>
        <time>2023-08-29T08:38:19Z</time>
      </trkpt>
      <trkpt lat="45.45264" lon="5.33472">
        <ele>536.6</ele>
        <time>2023-08-29T08:38:20Z</time>
      </trkpt>
      <trkpt lat="45.45267" lon="5.33469">
        <ele>536.6</ele>
        <time>2023-08-29T08:38:21Z</time>
      </trkpt>
      <trkpt lat="45.4527" lon="5.33465">
        <ele>536.6</ele>
        <time>2023-08-29T08:38:22Z</time>
      </trkpt>
      <trkpt lat="45.45273" lon="5.33463">
        <ele>536.8</ele>
        <time>2023-08-29T08:38:23Z</time>
      </trkpt>
      <trkpt lat="45.45275" lon="5.33459">
        <ele>536.8</ele>
        <time>2023-08-29T08:38:24Z</time>
      </trkpt>
      <trkpt lat="45.45278" lon="5.33456">
        <ele>536.8</ele>
        <time>2023-08-29T08:38:25Z</time>
      </trkpt>
      <trkpt lat="45.45282" lon="5.33453">
        <ele>536.8</ele>
        <time>2023-08-29T08:38:26Z</time>
      </trkpt>
      <trkpt lat="45.45285" lon="5.3345">
        <ele>536.8</ele>
        <time>2023-08-29T08:38:27Z</time>
      </trkpt>
      <trkpt lat="45.45288" lon="5.33446">
        <ele>536.8</ele>
        <time>2023-08-29T08:38:28Z</time>
      </trkpt>
      <trkpt lat="45.45292" lon="5.33442">
        <ele>536.6</ele>
        <time>2023-08-29T08:38:29Z</time>
      </trkpt>
      <trkpt lat="45.45295" lon="5.33439">
        <ele>536.4</ele>
        <time>2023-08-29T08:38:30Z</time>
      </trkpt>
      <trkpt lat="45.45299" lon="5.33435">
        <ele>536.2</ele>
        <time>2023-08-29T08:38:31Z</time>
      </trkpt>
      <trkpt lat="45.45303" lon="5.33431">
        <ele>536</ele>
        <time>2023-08-29T08:38:32Z</time>
      </trkpt>
      <trkpt lat="45.45307" lon="5.33426">
        <ele>535.6</ele>
        <time>2023-08-29T08:38:33Z</time>
      </trkpt>
      <trkpt lat="45.45311" lon="5.33422">
        <ele>535.4</ele>
        <time>2023-08-29T08:38:34Z</time>
      </trkpt>
      <trkpt lat="45.45314" lon="5.33418">
        <ele>535.4</ele>
        <time>2023-08-29T08:38:35Z</time>
      </trkpt>
      <trkpt lat="45.45318" lon="5.33413">
        <ele>535.4</ele>
        <time>2023-08-29T08:38:36Z</time>
      </trkpt>
      <trkpt lat="45.45321" lon="5.33409">
        <ele>535.4</ele>
        <time>2023-08-29T08:38:37Z</time>
      </trkpt>
      <trkpt lat="45.45325" lon="5.33404">
        <ele>535.4</ele>
        <time>2023-08-29T08:38:38Z</time>
      </trkpt>
      <trkpt lat="45.45328" lon="5.33399">
        <ele>535.4</ele>
        <time>2023-08-29T08:38:39Z</time>
      </trkpt>
      <trkpt lat="45.45331" lon="5.33394">
        <ele>535.4</ele>
        <time>2023-08-29T08:38:40Z</time>
      </trkpt>
      <trkpt lat="45.45335" lon="5.33389">
        <ele>535.6</ele>
        <time>2023-08-29T08:38:41Z</time>
      </trkpt>
      <trkpt lat="45.45338" lon="5.33384">
        <ele>535.6</ele>
        <time>2023-08-29T08:38:42Z</time>
      </trkpt>
      <trkpt lat="45.45341" lon="5.33379">
        <ele>535.6</ele>
        <time>2023-08-29T08:38:43Z</time>
      </trkpt>
      <trkpt lat="45.45345" lon="5.33374">
        <ele>535.6</ele>
        <time>2023-08-29T08:38:44Z</time>
      </trkpt>
      <trkpt lat="45.45348" lon="5.33369">
        <ele>535.6</ele>
        <time>2023-08-29T08:38:45Z</time>
      </trkpt>
      <trkpt lat="45.45352" lon="5.33364">
        <ele>535.6</ele>
        <time>2023-08-29T08:38:46Z</time>
      </trkpt>
      <trkpt lat="45.45355" lon="5.3336">
        <ele>535.6</ele>
        <time>2023-08-29T08:38:47Z</time>
      </trkpt>
      <trkpt lat="45.45359" lon="5.33356">
        <ele>535.2</ele>
        <time>2023-08-29T08:38:48Z</time>
      </trkpt>
      <trkpt lat="45.45361" lon="5.33352">
        <ele>535.2</ele>
        <time>2023-08-29T08:38:49Z</time>
      </trkpt>
      <trkpt lat="45.45364" lon="5.33347">
        <ele>535.2</ele>
        <time>2023-08-29T08:38:50Z</time>
      </trkpt>
      <trkpt lat="45.45368" lon="5.33343">
        <ele>535.2</ele>
        <time>2023-08-29T08:38:51Z</time>
      </trkpt>
      <trkpt lat="45.45371" lon="5.33338">
        <ele>535.2</ele>
        <time>2023-08-29T08:38:52Z</time>
      </trkpt>
      <trkpt lat="45.45375" lon="5.33334">
        <ele>535.4</ele>
        <time>2023-08-29T08:38:53Z</time>
      </trkpt>
      <trkpt lat="45.45378" lon="5.3333">
        <ele>535.4</ele>
        <time>2023-08-29T08:38:54Z</time>
      </trkpt>
      <trkpt lat="45.45382" lon="5.33325">
        <ele>535.4</ele>
        <time>2023-08-29T08:38:55Z</time>
      </trkpt>
      <trkpt lat="45.45385" lon="5.33321">
        <ele>535.6</ele>
        <time>2023-08-29T08:38:56Z</time>
      </trkpt>
      <trkpt lat="45.45389" lon="5.33316">
        <ele>535.6</ele>
        <time>2023-08-29T08:38:57Z</time>
      </trkpt>
      <trkpt lat="45.45393" lon="5.3331">
        <ele>535.6</ele>
        <time>2023-08-29T08:38:58Z</time>
      </trkpt>
      <trkpt lat="45.45396" lon="5.33305">
        <ele>535.6</ele>
        <time>2023-08-29T08:38:59Z</time>
      </trkpt>
      <trkpt lat="45.454" lon="5.33299">
        <ele>535.6</ele>
        <time>2023-08-29T08:39:00Z</time>
      </trkpt>
      <trkpt lat="45.45403" lon="5.33293">
        <ele>535.6</ele>
        <time>2023-08-29T08:39:01Z</time>
      </trkpt>
      <trkpt lat="45.45406" lon="5.33288">
        <ele>535.6</ele>
        <time>2023-08-29T08:39:02Z</time>
      </trkpt>
      <trkpt lat="45.45409" lon="5.33284">
        <ele>535.6</ele>
        <time>2023-08-29T08:39:03Z</time>
      </trkpt>
      <trkpt lat="45.45412" lon="5.33279">
        <ele>535.6</ele>
        <time>2023-08-29T08:39:04Z</time>
      </trkpt>
      <trkpt lat="45.45416" lon="5.33275">
        <ele>535.8</ele>
        <time>2023-08-29T08:39:05Z</time>
      </trkpt>
      <trkpt lat="45.45419" lon="5.33271">
        <ele>535.6</ele>
        <time>2023-08-29T08:39:06Z</time>
      </trkpt>
      <trkpt lat="45.45422" lon="5.33268">
        <ele>535.6</ele>
        <time>2023-08-29T08:39:07Z</time>
      </trkpt>
      <trkpt lat="45.45426" lon="5.33265">
        <ele>535.8</ele>
        <time>2023-08-29T08:39:08Z</time>
      </trkpt>
      <trkpt lat="45.4543" lon="5.33262">
        <ele>535.8</ele>
        <time>2023-08-29T08:39:09Z</time>
      </trkpt>
      <trkpt lat="45.45434" lon="5.33258">
        <ele>535.8</ele>
        <time>2023-08-29T08:39:10Z</time>
      </trkpt>
      <trkpt lat="45.45438" lon="5.33256">
        <ele>535.8</ele>
        <time>2023-08-29T08:39:11Z</time>
      </trkpt>
      <trkpt lat="45.45442" lon="5.33254">
        <ele>535.8</ele>
        <time>2023-08-29T08:39:12Z</time>
      </trkpt>
      <trkpt lat="45.45447" lon="5.33251">
        <ele>535.8</ele>
        <time>2023-08-29T08:39:13Z</time>
      </trkpt>
      <trkpt lat="45.45451" lon="5.33249">
        <ele>536</ele>
        <time>2023-08-29T08:39:14Z</time>
      </trkpt>
      <trkpt lat="45.45456" lon="5.33248">
        <ele>536</ele>
        <time>2023-08-29T08:39:15Z</time>
      </trkpt>
      <trkpt lat="45.4546" lon="5.33247">
        <ele>536</ele>
        <time>2023-08-29T08:39:16Z</time>
      </trkpt>
      <trkpt lat="45.45465" lon="5.33247">
        <ele>536.2</ele>
        <time>2023-08-29T08:39:17Z</time>
      </trkpt>
      <trkpt lat="45.4547" lon="5.33247">
        <ele>536.4</ele>
        <time>2023-08-29T08:39:18Z</time>
      </trkpt>
      <trkpt lat="45.45474" lon="5.33247">
        <ele>536.4</ele>
        <time>2023-08-29T08:39:19Z</time>
      </trkpt>
      <trkpt lat="45.45479" lon="5.33247">
        <ele>536.6</ele>
        <time>2023-08-29T08:39:20Z</time>
      </trkpt>
      <trkpt lat="45.45482" lon="5.33247">
        <ele>536.8</ele>
        <time>2023-08-29T08:39:21Z</time>
      </trkpt>
      <trkpt lat="45.45487" lon="5.33248">
        <ele>537</ele>
        <time>2023-08-29T08:39:22Z</time>
      </trkpt>
      <trkpt lat="45.45491" lon="5.33249">
        <ele>537.2</ele>
        <time>2023-08-29T08:39:23Z</time>
      </trkpt>
      <trkpt lat="45.45495" lon="5.33252">
        <ele>537.4</ele>
        <time>2023-08-29T08:39:24Z</time>
      </trkpt>
      <trkpt lat="45.455" lon="5.33255">
        <ele>537.4</ele>
        <time>2023-08-29T08:39:25Z</time>
      </trkpt>
      <trkpt lat="45.45505" lon="5.33257">
        <ele>537.6</ele>
        <time>2023-08-29T08:39:26Z</time>
      </trkpt>
      <trkpt lat="45.4551" lon="5.3326">
        <ele>537.6</ele>
        <time>2023-08-29T08:39:27Z</time>
      </trkpt>
      <trkpt lat="45.45515" lon="5.33262">
        <ele>537.6</ele>
        <time>2023-08-29T08:39:28Z</time>
      </trkpt>
      <trkpt lat="45.4552" lon="5.33264">
        <ele>537.6</ele>
        <time>2023-08-29T08:39:29Z</time>
      </trkpt>
      <trkpt lat="45.45523" lon="5.33266">
        <ele>537.6</ele>
        <time>2023-08-29T08:39:30Z</time>
      </trkpt>
      <trkpt lat="45.45527" lon="5.33267">
        <ele>537.4</ele>
        <time>2023-08-29T08:39:31Z</time>
      </trkpt>
      <trkpt lat="45.45532" lon="5.33269">
        <ele>537.4</ele>
        <time>2023-08-29T08:39:32Z</time>
      </trkpt>
      <trkpt lat="45.45537" lon="5.3327">
        <ele>537.4</ele>
        <time>2023-08-29T08:39:33Z</time>
      </trkpt>
      <trkpt lat="45.45542" lon="5.3327">
        <ele>537.4</ele>
        <time>2023-08-29T08:39:34Z</time>
      </trkpt>
      <trkpt lat="45.45547" lon="5.3327">
        <ele>537.4</ele>
        <time>2023-08-29T08:39:35Z</time>
      </trkpt>
      <trkpt lat="45.45551" lon="5.3327">
        <ele>537.4</ele>
        <time>2023-08-29T08:39:36Z</time>
      </trkpt>
      <trkpt lat="45.45556" lon="5.33269">
        <ele>537.4</ele>
        <time>2023-08-29T08:39:37Z</time>
      </trkpt>
      <trkpt lat="45.45561" lon="5.33268">
        <ele>537.4</ele>
        <time>2023-08-29T08:39:38Z</time>
      </trkpt>
      <trkpt lat="45.45565" lon="5.33265">
        <ele>537.6</ele>
        <time>2023-08-29T08:39:39Z</time>
      </trkpt>
      <trkpt lat="45.4557" lon="5.33262">
        <ele>537.8</ele>
        <time>2023-08-29T08:39:40Z</time>
      </trkpt>
      <trkpt lat="45.45574" lon="5.3326">
        <ele>537.8</ele>
        <time>2023-08-29T08:39:41Z</time>
      </trkpt>
      <trkpt lat="45.45578" lon="5.33256">
        <ele>538</ele>
        <time>2023-08-29T08:39:42Z</time>
      </trkpt>
      <trkpt lat="45.45583" lon="5.33253">
        <ele>538.2</ele>
        <time>2023-08-29T08:39:43Z</time>
      </trkpt>
      <trkpt lat="45.45587" lon="5.3325">
        <ele>538.2</ele>
        <time>2023-08-29T08:39:44Z</time>
      </trkpt>
      <trkpt lat="45.45592" lon="5.33247">
        <ele>538.2</ele>
        <time>2023-08-29T08:39:45Z</time>
      </trkpt>
      <trkpt lat="45.45596" lon="5.33244">
        <ele>538.2</ele>
        <time>2023-08-29T08:39:46Z</time>
      </trkpt>
      <trkpt lat="45.456" lon="5.33242">
        <ele>538.2</ele>
        <time>2023-08-29T08:39:47Z</time>
      </trkpt>
      <trkpt lat="45.45604" lon="5.33239">
        <ele>538.4</ele>
        <time>2023-08-29T08:39:48Z</time>
      </trkpt>
      <trkpt lat="45.45609" lon="5.33237">
        <ele>538.4</ele>
        <time>2023-08-29T08:39:49Z</time>
      </trkpt>
      <trkpt lat="45.45613" lon="5.33235">
        <ele>538.4</ele>
        <time>2023-08-29T08:39:50Z</time>
      </trkpt>
      <trkpt lat="45.45617" lon="5.33232">
        <ele>538.6</ele>
        <time>2023-08-29T08:39:51Z</time>
      </trkpt>
      <trkpt lat="45.45622" lon="5.3323">
        <ele>538.8</ele>
        <time>2023-08-29T08:39:52Z</time>
      </trkpt>
      <trkpt lat="45.45626" lon="5.33229">
        <ele>538.8</ele>
        <time>2023-08-29T08:39:53Z</time>
      </trkpt>
      <trkpt lat="45.4563" lon="5.33226">
        <ele>539</ele>
        <time>2023-08-29T08:39:54Z</time>
      </trkpt>
      <trkpt lat="45.45634" lon="5.33225">
        <ele>539.2</ele>
        <time>2023-08-29T08:39:55Z</time>
      </trkpt>
      <trkpt lat="45.45638" lon="5.33223">
        <ele>539.6</ele>
        <time>2023-08-29T08:39:56Z</time>
      </trkpt>
      <trkpt lat="45.45642" lon="5.33222">
        <ele>539.8</ele>
        <time>2023-08-29T08:39:57Z</time>
      </trkpt>
      <trkpt lat="45.45646" lon="5.33221">
        <ele>540</ele>
        <time>2023-08-29T08:39:58Z</time>
      </trkpt>
      <trkpt lat="45.45651" lon="5.3322">
        <ele>540.6</ele>
        <time>2023-08-29T08:39:59Z</time>
      </trkpt>
      <trkpt lat="45.45654" lon="5.33219">
        <ele>540.8</ele>
        <time>2023-08-29T08:40:00Z</time>
      </trkpt>
      <trkpt lat="45.45659" lon="5.33218">
        <ele>541.2</ele>
        <time>2023-08-29T08:40:01Z</time>
      </trkpt>
      <trkpt lat="45.45663" lon="5.33216">
        <ele>541.6</ele>
        <time>2023-08-29T08:40:02Z</time>
      </trkpt>
      <trkpt lat="45.45668" lon="5.33215">
        <ele>541.6</ele>
        <time>2023-08-29T08:40:03Z</time>
      </trkpt>
      <trkpt lat="45.45672" lon="5.33213">
        <ele>541.8</ele>
        <time>2023-08-29T08:40:04Z</time>
      </trkpt>
      <trkpt lat="45.45676" lon="5.33211">
        <ele>542</ele>
        <time>2023-08-29T08:40:05Z</time>
      </trkpt>
      <trkpt lat="45.4568" lon="5.33208">
        <ele>542.2</ele>
        <time>2023-08-29T08:40:06Z</time>
      </trkpt>
      <trkpt lat="45.45684" lon="5.33206">
        <ele>542.4</ele>
        <time>2023-08-29T08:40:07Z</time>
      </trkpt>
      <trkpt lat="45.45689" lon="5.33203">
        <ele>542.6</ele>
        <time>2023-08-29T08:40:08Z</time>
      </trkpt>
      <trkpt lat="45.45693" lon="5.33201">
        <ele>542.6</ele>
        <time>2023-08-29T08:40:09Z</time>
      </trkpt>
      <trkpt lat="45.45697" lon="5.33198">
        <ele>542.8</ele>
        <time>2023-08-29T08:40:10Z</time>
      </trkpt>
      <trkpt lat="45.457" lon="5.33196">
        <ele>542.8</ele>
        <time>2023-08-29T08:40:11Z</time>
      </trkpt>
      <trkpt lat="45.45703" lon="5.33194">
        <ele>542.8</ele>
        <time>2023-08-29T08:40:12Z</time>
      </trkpt>
      <trkpt lat="45.45707" lon="5.33192">
        <ele>542.8</ele>
        <time>2023-08-29T08:40:13Z</time>
      </trkpt>
      <trkpt lat="45.45711" lon="5.3319">
        <ele>542.8</ele>
        <time>2023-08-29T08:40:14Z</time>
      </trkpt>
      <trkpt lat="45.45715" lon="5.33188">
        <ele>542.8</ele>
        <time>2023-08-29T08:40:15Z</time>
      </trkpt>
      <trkpt lat="45.45719" lon="5.33186">
        <ele>542.8</ele>
        <time>2023-08-29T08:40:16Z</time>
      </trkpt>
      <trkpt lat="45.45723" lon="5.33184">
        <ele>542.8</ele>
        <time>2023-08-29T08:40:17Z</time>
      </trkpt>
      <trkpt lat="45.45727" lon="5.33181">
        <ele>542.8</ele>
        <time>2023-08-29T08:40:18Z</time>
      </trkpt>
      <trkpt lat="45.4573" lon="5.33179">
        <ele>542.8</ele>
        <time>2023-08-29T08:40:19Z</time>
      </trkpt>
      <trkpt lat="45.45735" lon="5.33176">
        <ele>542.8</ele>
        <time>2023-08-29T08:40:20Z</time>
      </trkpt>
      <trkpt lat="45.4574" lon="5.33173">
        <ele>542.8</ele>
        <time>2023-08-29T08:40:21Z</time>
      </trkpt>
      <trkpt lat="45.45744" lon="5.33169">
        <ele>542.8</ele>
        <time>2023-08-29T08:40:22Z</time>
      </trkpt>
      <trkpt lat="45.45748" lon="5.33166">
        <ele>542.8</ele>
        <time>2023-08-29T08:40:23Z</time>
      </trkpt>
      <trkpt lat="45.45753" lon="5.33162">
        <ele>542.8</ele>
        <time>2023-08-29T08:40:24Z</time>
      </trkpt>
      <trkpt lat="45.45757" lon="5.33159">
        <ele>542.8</ele>
        <time>2023-08-29T08:40:25Z</time>
      </trkpt>
      <trkpt lat="45.45761" lon="5.33156">
        <ele>542.8</ele>
        <time>2023-08-29T08:40:26Z</time>
      </trkpt>
      <trkpt lat="45.45765" lon="5.33152">
        <ele>542.8</ele>
        <time>2023-08-29T08:40:27Z</time>
      </trkpt>
      <trkpt lat="45.45769" lon="5.33148">
        <ele>542.6</ele>
        <time>2023-08-29T08:40:28Z</time>
      </trkpt>
      <trkpt lat="45.45774" lon="5.33144">
        <ele>542.6</ele>
        <time>2023-08-29T08:40:29Z</time>
      </trkpt>
      <trkpt lat="45.45777" lon="5.3314">
        <ele>542.6</ele>
        <time>2023-08-29T08:40:30Z</time>
      </trkpt>
      <trkpt lat="45.45782" lon="5.33136">
        <ele>542.4</ele>
        <time>2023-08-29T08:40:31Z</time>
      </trkpt>
      <trkpt lat="45.45786" lon="5.33132">
        <ele>542.4</ele>
        <time>2023-08-29T08:40:32Z</time>
      </trkpt>
      <trkpt lat="45.4579" lon="5.33128">
        <ele>542.2</ele>
        <time>2023-08-29T08:40:33Z</time>
      </trkpt>
      <trkpt lat="45.45795" lon="5.33124">
        <ele>542.2</ele>
        <time>2023-08-29T08:40:34Z</time>
      </trkpt>
      <trkpt lat="45.45798" lon="5.3312">
        <ele>542.2</ele>
        <time>2023-08-29T08:40:35Z</time>
      </trkpt>
      <trkpt lat="45.45802" lon="5.33115">
        <ele>542.2</ele>
        <time>2023-08-29T08:40:36Z</time>
      </trkpt>
      <trkpt lat="45.45806" lon="5.33111">
        <ele>542.2</ele>
        <time>2023-08-29T08:40:37Z</time>
      </trkpt>
      <trkpt lat="45.4581" lon="5.33106">
        <ele>542.2</ele>
        <time>2023-08-29T08:40:38Z</time>
      </trkpt>
      <trkpt lat="45.45814" lon="5.33102">
        <ele>542</ele>
        <time>2023-08-29T08:40:39Z</time>
      </trkpt>
      <trkpt lat="45.45817" lon="5.33097">
        <ele>542</ele>
        <time>2023-08-29T08:40:40Z</time>
      </trkpt>
      <trkpt lat="45.4582" lon="5.33092">
        <ele>542</ele>
        <time>2023-08-29T08:40:41Z</time>
      </trkpt>
      <trkpt lat="45.45823" lon="5.33088">
        <ele>542</ele>
        <time>2023-08-29T08:40:42Z</time>
      </trkpt>
      <trkpt lat="45.45826" lon="5.33083">
        <ele>541.6</ele>
        <time>2023-08-29T08:40:43Z</time>
      </trkpt>
      <trkpt lat="45.4583" lon="5.33079">
        <ele>541.6</ele>
        <time>2023-08-29T08:40:44Z</time>
      </trkpt>
      <trkpt lat="45.45833" lon="5.33074">
        <ele>541.6</ele>
        <time>2023-08-29T08:40:45Z</time>
      </trkpt>
      <trkpt lat="45.45837" lon="5.33068">
        <ele>541.6</ele>
        <time>2023-08-29T08:40:46Z</time>
      </trkpt>
      <trkpt lat="45.4584" lon="5.33063">
        <ele>541.6</ele>
        <time>2023-08-29T08:40:47Z</time>
      </trkpt>
      <trkpt lat="45.45843" lon="5.33058">
        <ele>541.8</ele>
        <time>2023-08-29T08:40:48Z</time>
      </trkpt>
      <trkpt lat="45.45847" lon="5.33054">
        <ele>541.8</ele>
        <time>2023-08-29T08:40:49Z</time>
      </trkpt>
      <trkpt lat="45.4585" lon="5.33049">
        <ele>541.8</ele>
        <time>2023-08-29T08:40:50Z</time>
      </trkpt>
      <trkpt lat="45.45853" lon="5.33044">
        <ele>542</ele>
        <time>2023-08-29T08:40:51Z</time>
      </trkpt>
      <trkpt lat="45.45856" lon="5.33039">
        <ele>542</ele>
        <time>2023-08-29T08:40:52Z</time>
      </trkpt>
      <trkpt lat="45.4586" lon="5.33033">
        <ele>542</ele>
        <time>2023-08-29T08:40:53Z</time>
      </trkpt>
      <trkpt lat="45.45863" lon="5.33029">
        <ele>542</ele>
        <time>2023-08-29T08:40:54Z</time>
      </trkpt>
      <trkpt lat="45.45866" lon="5.33024">
        <ele>542.2</ele>
        <time>2023-08-29T08:40:55Z</time>
      </trkpt>
      <trkpt lat="45.45869" lon="5.3302">
        <ele>542.4</ele>
        <time>2023-08-29T08:40:56Z</time>
      </trkpt>
      <trkpt lat="45.45872" lon="5.33016">
        <ele>542.4</ele>
        <time>2023-08-29T08:40:57Z</time>
      </trkpt>
      <trkpt lat="45.45875" lon="5.33011">
        <ele>542.6</ele>
        <time>2023-08-29T08:40:58Z</time>
      </trkpt>
      <trkpt lat="45.45878" lon="5.33007">
        <ele>542.6</ele>
        <time>2023-08-29T08:40:59Z</time>
      </trkpt>
      <trkpt lat="45.45881" lon="5.33003">
        <ele>542.8</ele>
        <time>2023-08-29T08:41:00Z</time>
      </trkpt>
      <trkpt lat="45.45884" lon="5.32998">
        <ele>543</ele>
        <time>2023-08-29T08:41:01Z</time>
      </trkpt>
      <trkpt lat="45.45888" lon="5.32993">
        <ele>543.2</ele>
        <time>2023-08-29T08:41:02Z</time>
      </trkpt>
      <trkpt lat="45.45891" lon="5.32989">
        <ele>543.2</ele>
        <time>2023-08-29T08:41:03Z</time>
      </trkpt>
      <trkpt lat="45.45895" lon="5.32985">
        <ele>543.2</ele>
        <time>2023-08-29T08:41:04Z</time>
      </trkpt>
      <trkpt lat="45.45898" lon="5.32981">
        <ele>543.2</ele>
        <time>2023-08-29T08:41:05Z</time>
      </trkpt>
      <trkpt lat="45.45901" lon="5.32976">
        <ele>543.2</ele>
        <time>2023-08-29T08:41:06Z</time>
      </trkpt>
      <trkpt lat="45.45904" lon="5.32972">
        <ele>543</ele>
        <time>2023-08-29T08:41:07Z</time>
      </trkpt>
      <trkpt lat="45.45908" lon="5.32967">
        <ele>543</ele>
        <time>2023-08-29T08:41:08Z</time>
      </trkpt>
      <trkpt lat="45.45911" lon="5.32962">
        <ele>543</ele>
        <time>2023-08-29T08:41:09Z</time>
      </trkpt>
      <trkpt lat="45.45914" lon="5.32957">
        <ele>542.8</ele>
        <time>2023-08-29T08:41:10Z</time>
      </trkpt>
      <trkpt lat="45.45917" lon="5.32952">
        <ele>542.8</ele>
        <time>2023-08-29T08:41:11Z</time>
      </trkpt>
      <trkpt lat="45.45921" lon="5.32946">
        <ele>542.8</ele>
        <time>2023-08-29T08:41:12Z</time>
      </trkpt>
      <trkpt lat="45.45924" lon="5.32941">
        <ele>542.8</ele>
        <time>2023-08-29T08:41:13Z</time>
      </trkpt>
      <trkpt lat="45.45928" lon="5.32936">
        <ele>542.8</ele>
        <time>2023-08-29T08:41:14Z</time>
      </trkpt>
      <trkpt lat="45.45931" lon="5.32931">
        <ele>542.8</ele>
        <time>2023-08-29T08:41:15Z</time>
      </trkpt>
      <trkpt lat="45.45935" lon="5.32926">
        <ele>542.8</ele>
        <time>2023-08-29T08:41:16Z</time>
      </trkpt>
      <trkpt lat="45.45939" lon="5.32921">
        <ele>542.8</ele>
        <time>2023-08-29T08:41:17Z</time>
      </trkpt>
      <trkpt lat="45.45942" lon="5.32918">
        <ele>542.8</ele>
        <time>2023-08-29T08:41:18Z</time>
      </trkpt>
      <trkpt lat="45.45946" lon="5.32914">
        <ele>542.8</ele>
        <time>2023-08-29T08:41:19Z</time>
      </trkpt>
      <trkpt lat="45.4595" lon="5.32911">
        <ele>543</ele>
        <time>2023-08-29T08:41:20Z</time>
      </trkpt>
      <trkpt lat="45.45953" lon="5.32907">
        <ele>543</ele>
        <time>2023-08-29T08:41:21Z</time>
      </trkpt>
      <trkpt lat="45.45957" lon="5.32903">
        <ele>543.4</ele>
        <time>2023-08-29T08:41:22Z</time>
      </trkpt>
      <trkpt lat="45.4596" lon="5.32899">
        <ele>544</ele>
        <time>2023-08-29T08:41:23Z</time>
      </trkpt>
      <trkpt lat="45.45963" lon="5.32896">
        <ele>544.8</ele>
        <time>2023-08-29T08:41:24Z</time>
      </trkpt>
      <trkpt lat="45.45967" lon="5.32893">
        <ele>544.8</ele>
        <time>2023-08-29T08:41:25Z</time>
      </trkpt>
      <trkpt lat="45.4597" lon="5.32889">
        <ele>545.2</ele>
        <time>2023-08-29T08:41:26Z</time>
      </trkpt>
      <trkpt lat="45.45973" lon="5.32885">
        <ele>545.2</ele>
        <time>2023-08-29T08:41:27Z</time>
      </trkpt>
      <trkpt lat="45.45976" lon="5.32882">
        <ele>545.6</ele>
        <time>2023-08-29T08:41:28Z</time>
      </trkpt>
      <trkpt lat="45.45979" lon="5.32879">
        <ele>546.2</ele>
        <time>2023-08-29T08:41:29Z</time>
      </trkpt>
      <trkpt lat="45.45981" lon="5.32875">
        <ele>546.6</ele>
        <time>2023-08-29T08:41:30Z</time>
      </trkpt>
      <trkpt lat="45.45984" lon="5.32871">
        <ele>547</ele>
        <time>2023-08-29T08:41:31Z</time>
      </trkpt>
      <trkpt lat="45.45987" lon="5.32868">
        <ele>547.4</ele>
        <time>2023-08-29T08:41:32Z</time>
      </trkpt>
      <trkpt lat="45.45989" lon="5.32865">
        <ele>547.8</ele>
        <time>2023-08-29T08:41:33Z</time>
      </trkpt>
      <trkpt lat="45.45991" lon="5.32862">
        <ele>548.2</ele>
        <time>2023-08-29T08:41:34Z</time>
      </trkpt>
      <trkpt lat="45.45994" lon="5.32858">
        <ele>548.8</ele>
        <time>2023-08-29T08:41:35Z</time>
      </trkpt>
      <trkpt lat="45.45996" lon="5.32855">
        <ele>549</ele>
        <time>2023-08-29T08:41:36Z</time>
      </trkpt>
      <trkpt lat="45.45998" lon="5.32851">
        <ele>549.4</ele>
        <time>2023-08-29T08:41:37Z</time>
      </trkpt>
      <trkpt lat="45.46" lon="5.32848">
        <ele>549.8</ele>
        <time>2023-08-29T08:41:38Z</time>
      </trkpt>
      <trkpt lat="45.46003" lon="5.32844">
        <ele>550</ele>
        <time>2023-08-29T08:41:39Z</time>
      </trkpt>
      <trkpt lat="45.46004" lon="5.3284">
        <ele>550.2</ele>
        <time>2023-08-29T08:41:40Z</time>
      </trkpt>
      <trkpt lat="45.46006" lon="5.32836">
        <ele>550.4</ele>
        <time>2023-08-29T08:41:41Z</time>
      </trkpt>
      <trkpt lat="45.46008" lon="5.32832">
        <ele>550.6</ele>
        <time>2023-08-29T08:41:42Z</time>
      </trkpt>
      <trkpt lat="45.46009" lon="5.32828">
        <ele>550.8</ele>
        <time>2023-08-29T08:41:43Z</time>
      </trkpt>
      <trkpt lat="45.4601" lon="5.32823">
        <ele>551</ele>
        <time>2023-08-29T08:41:44Z</time>
      </trkpt>
      <trkpt lat="45.46012" lon="5.32818">
        <ele>551</ele>
        <time>2023-08-29T08:41:45Z</time>
      </trkpt>
      <trkpt lat="45.46013" lon="5.32812">
        <ele>551.2</ele>
        <time>2023-08-29T08:41:46Z</time>
      </trkpt>
      <trkpt lat="45.46015" lon="5.32807">
        <ele>551.2</ele>
        <time>2023-08-29T08:41:47Z</time>
      </trkpt>
      <trkpt lat="45.46017" lon="5.32802">
        <ele>551.2</ele>
        <time>2023-08-29T08:41:48Z</time>
      </trkpt>
      <trkpt lat="45.46018" lon="5.32796">
        <ele>551.2</ele>
        <time>2023-08-29T08:41:49Z</time>
      </trkpt>
      <trkpt lat="45.4602" lon="5.3279">
        <ele>551.4</ele>
        <time>2023-08-29T08:41:50Z</time>
      </trkpt>
      <trkpt lat="45.46021" lon="5.32785">
        <ele>551.4</ele>
        <time>2023-08-29T08:41:51Z</time>
      </trkpt>
      <trkpt lat="45.46022" lon="5.3278">
        <ele>551.4</ele>
        <time>2023-08-29T08:41:52Z</time>
      </trkpt>
      <trkpt lat="45.46024" lon="5.32775">
        <ele>551.6</ele>
        <time>2023-08-29T08:41:53Z</time>
      </trkpt>
      <trkpt lat="45.46025" lon="5.32771">
        <ele>551.6</ele>
        <time>2023-08-29T08:41:54Z</time>
      </trkpt>
      <trkpt lat="45.46027" lon="5.32766">
        <ele>551.6</ele>
        <time>2023-08-29T08:41:55Z</time>
      </trkpt>
      <trkpt lat="45.46028" lon="5.32761">
        <ele>551.8</ele>
        <time>2023-08-29T08:41:56Z</time>
      </trkpt>
      <trkpt lat="45.4603" lon="5.32756">
        <ele>552</ele>
        <time>2023-08-29T08:41:57Z</time>
      </trkpt>
      <trkpt lat="45.46032" lon="5.32751">
        <ele>552</ele>
        <time>2023-08-29T08:41:58Z</time>
      </trkpt>
      <trkpt lat="45.46034" lon="5.32746">
        <ele>552</ele>
        <time>2023-08-29T08:41:59Z</time>
      </trkpt>
      <trkpt lat="45.46036" lon="5.32741">
        <ele>552.2</ele>
        <time>2023-08-29T08:42:00Z</time>
      </trkpt>
      <trkpt lat="45.46038" lon="5.32737">
        <ele>552.2</ele>
        <time>2023-08-29T08:42:01Z</time>
      </trkpt>
      <trkpt lat="45.46039" lon="5.32732">
        <ele>552.4</ele>
        <time>2023-08-29T08:42:02Z</time>
      </trkpt>
      <trkpt lat="45.46041" lon="5.32728">
        <ele>552.4</ele>
        <time>2023-08-29T08:42:03Z</time>
      </trkpt>
      <trkpt lat="45.46043" lon="5.32723">
        <ele>552.4</ele>
        <time>2023-08-29T08:42:04Z</time>
      </trkpt>
      <trkpt lat="45.46045" lon="5.32718">
        <ele>552.6</ele>
        <time>2023-08-29T08:42:05Z</time>
      </trkpt>
      <trkpt lat="45.46047" lon="5.32713">
        <ele>552.8</ele>
        <time>2023-08-29T08:42:06Z</time>
      </trkpt>
      <trkpt lat="45.4605" lon="5.32708">
        <ele>552.8</ele>
        <time>2023-08-29T08:42:07Z</time>
      </trkpt>
      <trkpt lat="45.46052" lon="5.32703">
        <ele>552.8</ele>
        <time>2023-08-29T08:42:08Z</time>
      </trkpt>
      <trkpt lat="45.46055" lon="5.32699">
        <ele>552.8</ele>
        <time>2023-08-29T08:42:09Z</time>
      </trkpt>
      <trkpt lat="45.46057" lon="5.32695">
        <ele>552.6</ele>
        <time>2023-08-29T08:42:10Z</time>
      </trkpt>
      <trkpt lat="45.4606" lon="5.32691">
        <ele>552.6</ele>
        <time>2023-08-29T08:42:11Z</time>
      </trkpt>
      <trkpt lat="45.46062" lon="5.32686">
        <ele>552.6</ele>
        <time>2023-08-29T08:42:12Z</time>
      </trkpt>
      <trkpt lat="45.46065" lon="5.32682">
        <ele>552.6</ele>
        <time>2023-08-29T08:42:13Z</time>
      </trkpt>
      <trkpt lat="45.46067" lon="5.32678">
        <ele>552.6</ele>
        <time>2023-08-29T08:42:14Z</time>
      </trkpt>
      <trkpt lat="45.4607" lon="5.32674">
        <ele>552.8</ele>
        <time>2023-08-29T08:42:15Z</time>
      </trkpt>
      <trkpt lat="45.46073" lon="5.3267">
        <ele>552.8</ele>
        <time>2023-08-29T08:42:16Z</time>
      </trkpt>
      <trkpt lat="45.46076" lon="5.32666">
        <ele>552.8</ele>
        <time>2023-08-29T08:42:17Z</time>
      </trkpt>
      <trkpt lat="45.46079" lon="5.32663">
        <ele>553.2</ele>
        <time>2023-08-29T08:42:18Z</time>
      </trkpt>
      <trkpt lat="45.46081" lon="5.32659">
        <ele>553.2</ele>
        <time>2023-08-29T08:42:19Z</time>
      </trkpt>
      <trkpt lat="45.46084" lon="5.32655">
        <ele>553.6</ele>
        <time>2023-08-29T08:42:20Z</time>
      </trkpt>
      <trkpt lat="45.46087" lon="5.32652">
        <ele>553.8</ele>
        <time>2023-08-29T08:42:21Z</time>
      </trkpt>
      <trkpt lat="45.46091" lon="5.32648">
        <ele>553.8</ele>
        <time>2023-08-29T08:42:22Z</time>
      </trkpt>
      <trkpt lat="45.46093" lon="5.32644">
        <ele>554</ele>
        <time>2023-08-29T08:42:23Z</time>
      </trkpt>
      <trkpt lat="45.46096" lon="5.32641">
        <ele>554</ele>
        <time>2023-08-29T08:42:24Z</time>
      </trkpt>
      <trkpt lat="45.461" lon="5.32637">
        <ele>554</ele>
        <time>2023-08-29T08:42:25Z</time>
      </trkpt>
      <trkpt lat="45.46102" lon="5.32634">
        <ele>554.2</ele>
        <time>2023-08-29T08:42:26Z</time>
      </trkpt>
      <trkpt lat="45.46105" lon="5.32631">
        <ele>554.4</ele>
        <time>2023-08-29T08:42:27Z</time>
      </trkpt>
      <trkpt lat="45.46108" lon="5.32628">
        <ele>554.4</ele>
        <time>2023-08-29T08:42:28Z</time>
      </trkpt>
      <trkpt lat="45.46111" lon="5.32624">
        <ele>554.6</ele>
        <time>2023-08-29T08:42:29Z</time>
      </trkpt>
      <trkpt lat="45.46114" lon="5.3262">
        <ele>554.8</ele>
        <time>2023-08-29T08:42:30Z</time>
      </trkpt>
      <trkpt lat="45.46117" lon="5.32616">
        <ele>555</ele>
        <time>2023-08-29T08:42:31Z</time>
      </trkpt>
      <trkpt lat="45.4612" lon="5.32612">
        <ele>555.2</ele>
        <time>2023-08-29T08:42:32Z</time>
      </trkpt>
      <trkpt lat="45.46122" lon="5.32608">
        <ele>555.4</ele>
        <time>2023-08-29T08:42:33Z</time>
      </trkpt>
      <trkpt lat="45.46125" lon="5.32604">
        <ele>555.6</ele>
        <time>2023-08-29T08:42:34Z</time>
      </trkpt>
      <trkpt lat="45.46127" lon="5.326">
        <ele>555.6</ele>
        <time>2023-08-29T08:42:35Z</time>
      </trkpt>
      <trkpt lat="45.46129" lon="5.32595">
        <ele>555.8</ele>
        <time>2023-08-29T08:42:36Z</time>
      </trkpt>
      <trkpt lat="45.46131" lon="5.32591">
        <ele>555.8</ele>
        <time>2023-08-29T08:42:37Z</time>
      </trkpt>
      <trkpt lat="45.46133" lon="5.32586">
        <ele>556.2</ele>
        <time>2023-08-29T08:42:38Z</time>
      </trkpt>
      <trkpt lat="45.46135" lon="5.32581">
        <ele>556.2</ele>
        <time>2023-08-29T08:42:39Z</time>
      </trkpt>
      <trkpt lat="45.46137" lon="5.32576">
        <ele>556.4</ele>
        <time>2023-08-29T08:42:40Z</time>
      </trkpt>
      <trkpt lat="45.46139" lon="5.32571">
        <ele>556.4</ele>
        <time>2023-08-29T08:42:41Z</time>
      </trkpt>
      <trkpt lat="45.46141" lon="5.32566">
        <ele>556.6</ele>
        <time>2023-08-29T08:42:42Z</time>
      </trkpt>
      <trkpt lat="45.46144" lon="5.32562">
        <ele>556.8</ele>
        <time>2023-08-29T08:42:43Z</time>
      </trkpt>
      <trkpt lat="45.46146" lon="5.32556">
        <ele>556.8</ele>
        <time>2023-08-29T08:42:44Z</time>
      </trkpt>
      <trkpt lat="45.46149" lon="5.32551">
        <ele>557</ele>
        <time>2023-08-29T08:42:45Z</time>
      </trkpt>
      <trkpt lat="45.46151" lon="5.32546">
        <ele>557</ele>
        <time>2023-08-29T08:42:46Z</time>
      </trkpt>
      <trkpt lat="45.46153" lon="5.32541">
        <ele>557</ele>
        <time>2023-08-29T08:42:47Z</time>
      </trkpt>
      <trkpt lat="45.46155" lon="5.32535">
        <ele>557</ele>
        <time>2023-08-29T08:42:48Z</time>
      </trkpt>
      <trkpt lat="45.46157" lon="5.3253">
        <ele>556.8</ele>
        <time>2023-08-29T08:42:49Z</time>
      </trkpt>
      <trkpt lat="45.46159" lon="5.32524">
        <ele>556.8</ele>
        <time>2023-08-29T08:42:50Z</time>
      </trkpt>
      <trkpt lat="45.46161" lon="5.32519">
        <ele>556.8</ele>
        <time>2023-08-29T08:42:51Z</time>
      </trkpt>
      <trkpt lat="45.46163" lon="5.32512">
        <ele>556.8</ele>
        <time>2023-08-29T08:42:52Z</time>
      </trkpt>
      <trkpt lat="45.46165" lon="5.32507">
        <ele>556.8</ele>
        <time>2023-08-29T08:42:53Z</time>
      </trkpt>
      <trkpt lat="45.46167" lon="5.32501">
        <ele>556.8</ele>
        <time>2023-08-29T08:42:54Z</time>
      </trkpt>
      <trkpt lat="45.46169" lon="5.32495">
        <ele>556.8</ele>
        <time>2023-08-29T08:42:55Z</time>
      </trkpt>
      <trkpt lat="45.46171" lon="5.3249">
        <ele>556.8</ele>
        <time>2023-08-29T08:42:56Z</time>
      </trkpt>
      <trkpt lat="45.46174" lon="5.32484">
        <ele>556.8</ele>
        <time>2023-08-29T08:42:57Z</time>
      </trkpt>
      <trkpt lat="45.46176" lon="5.32478">
        <ele>556.6</ele>
        <time>2023-08-29T08:42:58Z</time>
      </trkpt>
      <trkpt lat="45.46179" lon="5.32473">
        <ele>556.6</ele>
        <time>2023-08-29T08:42:59Z</time>
      </trkpt>
      <trkpt lat="45.46181" lon="5.32467">
        <ele>556.6</ele>
        <time>2023-08-29T08:43:00Z</time>
      </trkpt>
      <trkpt lat="45.46183" lon="5.32461">
        <ele>556.6</ele>
        <time>2023-08-29T08:43:01Z</time>
      </trkpt>
      <trkpt lat="45.46186" lon="5.32456">
        <ele>556.6</ele>
        <time>2023-08-29T08:43:02Z</time>
      </trkpt>
      <trkpt lat="45.46188" lon="5.3245">
        <ele>556.6</ele>
        <time>2023-08-29T08:43:03Z</time>
      </trkpt>
      <trkpt lat="45.46191" lon="5.32444">
        <ele>556.6</ele>
        <time>2023-08-29T08:43:04Z</time>
      </trkpt>
      <trkpt lat="45.46194" lon="5.32438">
        <ele>556.6</ele>
        <time>2023-08-29T08:43:05Z</time>
      </trkpt>
      <trkpt lat="45.46198" lon="5.32432">
        <ele>556.6</ele>
        <time>2023-08-29T08:43:06Z</time>
      </trkpt>
      <trkpt lat="45.46201" lon="5.32425">
        <ele>556.4</ele>
        <time>2023-08-29T08:43:07Z</time>
      </trkpt>
      <trkpt lat="45.46205" lon="5.32419">
        <ele>555.8</ele>
        <time>2023-08-29T08:43:08Z</time>
      </trkpt>
      <trkpt lat="45.46209" lon="5.32414">
        <ele>555.2</ele>
        <time>2023-08-29T08:43:09Z</time>
      </trkpt>
      <trkpt lat="45.46213" lon="5.32407">
        <ele>555.2</ele>
        <time>2023-08-29T08:43:10Z</time>
      </trkpt>
      <trkpt lat="45.46218" lon="5.32402">
        <ele>554.8</ele>
        <time>2023-08-29T08:43:11Z</time>
      </trkpt>
      <trkpt lat="45.46222" lon="5.32396">
        <ele>554.2</ele>
        <time>2023-08-29T08:43:12Z</time>
      </trkpt>
      <trkpt lat="45.46226" lon="5.32391">
        <ele>554</ele>
        <time>2023-08-29T08:43:13Z</time>
      </trkpt>
      <trkpt lat="45.4623" lon="5.32386">
        <ele>553.8</ele>
        <time>2023-08-29T08:43:14Z</time>
      </trkpt>
      <trkpt lat="45.46235" lon="5.32381">
        <ele>553.8</ele>
        <time>2023-08-29T08:43:15Z</time>
      </trkpt>
      <trkpt lat="45.46238" lon="5.32376">
        <ele>553.8</ele>
        <time>2023-08-29T08:43:16Z</time>
      </trkpt>
      <trkpt lat="45.46242" lon="5.32371">
        <ele>553.6</ele>
        <time>2023-08-29T08:43:17Z</time>
      </trkpt>
      <trkpt lat="45.46246" lon="5.32366">
        <ele>553.6</ele>
        <time>2023-08-29T08:43:18Z</time>
      </trkpt>
      <trkpt lat="45.4625" lon="5.32361">
        <ele>553.6</ele>
        <time>2023-08-29T08:43:19Z</time>
      </trkpt>
      <trkpt lat="45.46254" lon="5.32356">
        <ele>553.6</ele>
        <time>2023-08-29T08:43:20Z</time>
      </trkpt>
      <trkpt lat="45.46258" lon="5.32351">
        <ele>553.6</ele>
        <time>2023-08-29T08:43:21Z</time>
      </trkpt>
      <trkpt lat="45.46261" lon="5.32347">
        <ele>553.8</ele>
        <time>2023-08-29T08:43:22Z</time>
      </trkpt>
      <trkpt lat="45.46265" lon="5.32342">
        <ele>554</ele>
        <time>2023-08-29T08:43:23Z</time>
      </trkpt>
      <trkpt lat="45.46269" lon="5.32338">
        <ele>554</ele>
        <time>2023-08-29T08:43:24Z</time>
      </trkpt>
      <trkpt lat="45.46272" lon="5.32334">
        <ele>554.8</ele>
        <time>2023-08-29T08:43:25Z</time>
      </trkpt>
      <trkpt lat="45.46276" lon="5.3233">
        <ele>554.8</ele>
        <time>2023-08-29T08:43:26Z</time>
      </trkpt>
      <trkpt lat="45.46279" lon="5.32326">
        <ele>555</ele>
        <time>2023-08-29T08:43:27Z</time>
      </trkpt>
      <trkpt lat="45.46282" lon="5.32322">
        <ele>555.4</ele>
        <time>2023-08-29T08:43:28Z</time>
      </trkpt>
      <trkpt lat="45.46285" lon="5.32318">
        <ele>555.8</ele>
        <time>2023-08-29T08:43:29Z</time>
      </trkpt>
      <trkpt lat="45.46287" lon="5.32314">
        <ele>556.2</ele>
        <time>2023-08-29T08:43:30Z</time>
      </trkpt>
      <trkpt lat="45.46291" lon="5.32311">
        <ele>556.4</ele>
        <time>2023-08-29T08:43:31Z</time>
      </trkpt>
      <trkpt lat="45.46294" lon="5.32306">
        <ele>556.8</ele>
        <time>2023-08-29T08:43:32Z</time>
      </trkpt>
      <trkpt lat="45.46297" lon="5.32302">
        <ele>556.8</ele>
        <time>2023-08-29T08:43:33Z</time>
      </trkpt>
      <trkpt lat="45.463" lon="5.32298">
        <ele>557.2</ele>
        <time>2023-08-29T08:43:34Z</time>
      </trkpt>
      <trkpt lat="45.46303" lon="5.32294">
        <ele>557.2</ele>
        <time>2023-08-29T08:43:35Z</time>
      </trkpt>
      <trkpt lat="45.46307" lon="5.3229">
        <ele>557.4</ele>
        <time>2023-08-29T08:43:36Z</time>
      </trkpt>
      <trkpt lat="45.4631" lon="5.32287">
        <ele>557.8</ele>
        <time>2023-08-29T08:43:37Z</time>
      </trkpt>
      <trkpt lat="45.46314" lon="5.32284">
        <ele>557.8</ele>
        <time>2023-08-29T08:43:38Z</time>
      </trkpt>
      <trkpt lat="45.46318" lon="5.32281">
        <ele>557.8</ele>
        <time>2023-08-29T08:43:39Z</time>
      </trkpt>
      <trkpt lat="45.46321" lon="5.3228">
        <ele>558.4</ele>
        <time>2023-08-29T08:43:40Z</time>
      </trkpt>
      <trkpt lat="45.46325" lon="5.32278">
        <ele>558.6</ele>
        <time>2023-08-29T08:43:41Z</time>
      </trkpt>
      <trkpt lat="45.46329" lon="5.32276">
        <ele>558.8</ele>
        <time>2023-08-29T08:43:42Z</time>
      </trkpt>
      <trkpt lat="45.46333" lon="5.32274">
        <ele>559</ele>
        <time>2023-08-29T08:43:43Z</time>
      </trkpt>
      <trkpt lat="45.46338" lon="5.32272">
        <ele>559.4</ele>
        <time>2023-08-29T08:43:45Z</time>
      </trkpt>
      <trkpt lat="45.46342" lon="5.32271">
        <ele>560</ele>
        <time>2023-08-29T08:43:46Z</time>
      </trkpt>
      <trkpt lat="45.46346" lon="5.32269">
        <ele>560.2</ele>
        <time>2023-08-29T08:43:47Z</time>
      </trkpt>
      <trkpt lat="45.4635" lon="5.32267">
        <ele>560.4</ele>
        <time>2023-08-29T08:43:48Z</time>
      </trkpt>
      <trkpt lat="45.46354" lon="5.32266">
        <ele>560.4</ele>
        <time>2023-08-29T08:43:49Z</time>
      </trkpt>
      <trkpt lat="45.46358" lon="5.32264">
        <ele>560.4</ele>
        <time>2023-08-29T08:43:50Z</time>
      </trkpt>
      <trkpt lat="45.46363" lon="5.32262">
        <ele>560.4</ele>
        <time>2023-08-29T08:43:51Z</time>
      </trkpt>
      <trkpt lat="45.46367" lon="5.32261">
        <ele>560.6</ele>
        <time>2023-08-29T08:43:52Z</time>
      </trkpt>
      <trkpt lat="45.46371" lon="5.32259">
        <ele>560.6</ele>
        <time>2023-08-29T08:43:53Z</time>
      </trkpt>
      <trkpt lat="45.46375" lon="5.32258">
        <ele>560.6</ele>
        <time>2023-08-29T08:43:54Z</time>
      </trkpt>
      <trkpt lat="45.46379" lon="5.32256">
        <ele>560.8</ele>
        <time>2023-08-29T08:43:55Z</time>
      </trkpt>
      <trkpt lat="45.46383" lon="5.32255">
        <ele>560.8</ele>
        <time>2023-08-29T08:43:56Z</time>
      </trkpt>
      <trkpt lat="45.46387" lon="5.32253">
        <ele>561</ele>
        <time>2023-08-29T08:43:57Z</time>
      </trkpt>
      <trkpt lat="45.46391" lon="5.32252">
        <ele>561.4</ele>
        <time>2023-08-29T08:43:58Z</time>
      </trkpt>
      <trkpt lat="45.46395" lon="5.32251">
        <ele>561.4</ele>
        <time>2023-08-29T08:43:59Z</time>
      </trkpt>
      <trkpt lat="45.46399" lon="5.3225">
        <ele>561.8</ele>
        <time>2023-08-29T08:44:00Z</time>
      </trkpt>
      <trkpt lat="45.46403" lon="5.32249">
        <ele>562</ele>
        <time>2023-08-29T08:44:01Z</time>
      </trkpt>
      <trkpt lat="45.46407" lon="5.32248">
        <ele>562</ele>
        <time>2023-08-29T08:44:02Z</time>
      </trkpt>
      <trkpt lat="45.46412" lon="5.32247">
        <ele>562</ele>
        <time>2023-08-29T08:44:03Z</time>
      </trkpt>
      <trkpt lat="45.46416" lon="5.32246">
        <ele>562.2</ele>
        <time>2023-08-29T08:44:04Z</time>
      </trkpt>
      <trkpt lat="45.46421" lon="5.32246">
        <ele>562.4</ele>
        <time>2023-08-29T08:44:05Z</time>
      </trkpt>
      <trkpt lat="45.46426" lon="5.32246">
        <ele>562.6</ele>
        <time>2023-08-29T08:44:06Z</time>
      </trkpt>
      <trkpt lat="45.4643" lon="5.32245">
        <ele>562.8</ele>
        <time>2023-08-29T08:44:07Z</time>
      </trkpt>
      <trkpt lat="45.46434" lon="5.32245">
        <ele>562.8</ele>
        <time>2023-08-29T08:44:08Z</time>
      </trkpt>
      <trkpt lat="45.46438" lon="5.32245">
        <ele>563</ele>
        <time>2023-08-29T08:44:09Z</time>
      </trkpt>
      <trkpt lat="45.46443" lon="5.32245">
        <ele>563</ele>
        <time>2023-08-29T08:44:10Z</time>
      </trkpt>
      <trkpt lat="45.46447" lon="5.32245">
        <ele>563</ele>
        <time>2023-08-29T08:44:11Z</time>
      </trkpt>
      <trkpt lat="45.46452" lon="5.32245">
        <ele>563.2</ele>
        <time>2023-08-29T08:44:12Z</time>
      </trkpt>
      <trkpt lat="45.46456" lon="5.32245">
        <ele>563.2</ele>
        <time>2023-08-29T08:44:13Z</time>
      </trkpt>
      <trkpt lat="45.46461" lon="5.32245">
        <ele>563.2</ele>
        <time>2023-08-29T08:44:14Z</time>
      </trkpt>
      <trkpt lat="45.46465" lon="5.32245">
        <ele>563.2</ele>
        <time>2023-08-29T08:44:15Z</time>
      </trkpt>
      <trkpt lat="45.4647" lon="5.32245">
        <ele>563.2</ele>
        <time>2023-08-29T08:44:16Z</time>
      </trkpt>
      <trkpt lat="45.46474" lon="5.32244">
        <ele>563</ele>
        <time>2023-08-29T08:44:17Z</time>
      </trkpt>
      <trkpt lat="45.46479" lon="5.32244">
        <ele>563</ele>
        <time>2023-08-29T08:44:18Z</time>
      </trkpt>
      <trkpt lat="45.46483" lon="5.32244">
        <ele>563</ele>
        <time>2023-08-29T08:44:19Z</time>
      </trkpt>
      <trkpt lat="45.46488" lon="5.32243">
        <ele>563</ele>
        <time>2023-08-29T08:44:20Z</time>
      </trkpt>
      <trkpt lat="45.46492" lon="5.32244">
        <ele>563</ele>
        <time>2023-08-29T08:44:21Z</time>
      </trkpt>
      <trkpt lat="45.46497" lon="5.32243">
        <ele>563.8</ele>
        <time>2023-08-29T08:44:22Z</time>
      </trkpt>
      <trkpt lat="45.46501" lon="5.32242">
        <ele>564.2</ele>
        <time>2023-08-29T08:44:23Z</time>
      </trkpt>
      <trkpt lat="45.46506" lon="5.32241">
        <ele>564.2</ele>
        <time>2023-08-29T08:44:24Z</time>
      </trkpt>
      <trkpt lat="45.46511" lon="5.32241">
        <ele>564.2</ele>
        <time>2023-08-29T08:44:25Z</time>
      </trkpt>
      <trkpt lat="45.46516" lon="5.3224">
        <ele>564.6</ele>
        <time>2023-08-29T08:44:26Z</time>
      </trkpt>
      <trkpt lat="45.4652" lon="5.3224">
        <ele>564.6</ele>
        <time>2023-08-29T08:44:27Z</time>
      </trkpt>
      <trkpt lat="45.46524" lon="5.32239">
        <ele>564.8</ele>
        <time>2023-08-29T08:44:28Z</time>
      </trkpt>
      <trkpt lat="45.46529" lon="5.32239">
        <ele>564.8</ele>
        <time>2023-08-29T08:44:29Z</time>
      </trkpt>
      <trkpt lat="45.46533" lon="5.32238">
        <ele>565.2</ele>
        <time>2023-08-29T08:44:30Z</time>
      </trkpt>
      <trkpt lat="45.46538" lon="5.32238">
        <ele>565.4</ele>
        <time>2023-08-29T08:44:31Z</time>
      </trkpt>
      <trkpt lat="45.46542" lon="5.32237">
        <ele>565.6</ele>
        <time>2023-08-29T08:44:32Z</time>
      </trkpt>
      <trkpt lat="45.46545" lon="5.32236">
        <ele>565.8</ele>
        <time>2023-08-29T08:44:33Z</time>
      </trkpt>
      <trkpt lat="45.46548" lon="5.32235">
        <ele>565.8</ele>
        <time>2023-08-29T08:44:34Z</time>
      </trkpt>
      <trkpt lat="45.46552" lon="5.32235">
        <ele>565.8</ele>
        <time>2023-08-29T08:44:35Z</time>
      </trkpt>
      <trkpt lat="45.46555" lon="5.32234">
        <ele>566</ele>
        <time>2023-08-29T08:44:36Z</time>
      </trkpt>
      <trkpt lat="45.46559" lon="5.32233">
        <ele>566.4</ele>
        <time>2023-08-29T08:44:37Z</time>
      </trkpt>
      <trkpt lat="45.46562" lon="5.32232">
        <ele>566.6</ele>
        <time>2023-08-29T08:44:38Z</time>
      </trkpt>
      <trkpt lat="45.46566" lon="5.32232">
        <ele>566.8</ele>
        <time>2023-08-29T08:44:39Z</time>
      </trkpt>
      <trkpt lat="45.4657" lon="5.32231">
        <ele>566.8</ele>
        <time>2023-08-29T08:44:40Z</time>
      </trkpt>
      <trkpt lat="45.46575" lon="5.3223">
        <ele>566.8</ele>
        <time>2023-08-29T08:44:41Z</time>
      </trkpt>
      <trkpt lat="45.46579" lon="5.32228">
        <ele>566.8</ele>
        <time>2023-08-29T08:44:42Z</time>
      </trkpt>
      <trkpt lat="45.46583" lon="5.32227">
        <ele>566.8</ele>
        <time>2023-08-29T08:44:43Z</time>
      </trkpt>
      <trkpt lat="45.46588" lon="5.32226">
        <ele>567</ele>
        <time>2023-08-29T08:44:44Z</time>
      </trkpt>
      <trkpt lat="45.46592" lon="5.32225">
        <ele>567</ele>
        <time>2023-08-29T08:44:45Z</time>
      </trkpt>
      <trkpt lat="45.46596" lon="5.32225">
        <ele>567.2</ele>
        <time>2023-08-29T08:44:46Z</time>
      </trkpt>
      <trkpt lat="45.466" lon="5.32224">
        <ele>567.2</ele>
        <time>2023-08-29T08:44:47Z</time>
      </trkpt>
      <trkpt lat="45.46604" lon="5.32222">
        <ele>567.2</ele>
        <time>2023-08-29T08:44:48Z</time>
      </trkpt>
      <trkpt lat="45.46608" lon="5.32221">
        <ele>567.2</ele>
        <time>2023-08-29T08:44:49Z</time>
      </trkpt>
      <trkpt lat="45.46612" lon="5.32219">
        <ele>567.2</ele>
        <time>2023-08-29T08:44:50Z</time>
      </trkpt>
      <trkpt lat="45.46616" lon="5.32217">
        <ele>567.2</ele>
        <time>2023-08-29T08:44:51Z</time>
      </trkpt>
      <trkpt lat="45.46621" lon="5.32215">
        <ele>567.2</ele>
        <time>2023-08-29T08:44:52Z</time>
      </trkpt>
      <trkpt lat="45.46626" lon="5.32213">
        <ele>567.2</ele>
        <time>2023-08-29T08:44:53Z</time>
      </trkpt>
      <trkpt lat="45.4663" lon="5.32211">
        <ele>567.2</ele>
        <time>2023-08-29T08:44:54Z</time>
      </trkpt>
      <trkpt lat="45.46634" lon="5.3221">
        <ele>567.4</ele>
        <time>2023-08-29T08:44:55Z</time>
      </trkpt>
      <trkpt lat="45.46637" lon="5.32209">
        <ele>567.4</ele>
        <time>2023-08-29T08:44:56Z</time>
      </trkpt>
      <trkpt lat="45.46641" lon="5.32207">
        <ele>567.6</ele>
        <time>2023-08-29T08:44:57Z</time>
      </trkpt>
      <trkpt lat="45.46645" lon="5.32205">
        <ele>567.6</ele>
        <time>2023-08-29T08:44:58Z</time>
      </trkpt>
      <trkpt lat="45.46649" lon="5.32204">
        <ele>567.8</ele>
        <time>2023-08-29T08:44:59Z</time>
      </trkpt>
      <trkpt lat="45.46653" lon="5.32202">
        <ele>568</ele>
        <time>2023-08-29T08:45:00Z</time>
      </trkpt>
      <trkpt lat="45.46657" lon="5.322">
        <ele>568</ele>
        <time>2023-08-29T08:45:01Z</time>
      </trkpt>
      <trkpt lat="45.46661" lon="5.32199">
        <ele>568</ele>
        <time>2023-08-29T08:45:02Z</time>
      </trkpt>
      <trkpt lat="45.46665" lon="5.32197">
        <ele>568</ele>
        <time>2023-08-29T08:45:03Z</time>
      </trkpt>
      <trkpt lat="45.4667" lon="5.32195">
        <ele>568</ele>
        <time>2023-08-29T08:45:04Z</time>
      </trkpt>
      <trkpt lat="45.46674" lon="5.32193">
        <ele>568</ele>
        <time>2023-08-29T08:45:05Z</time>
      </trkpt>
      <trkpt lat="45.46678" lon="5.32191">
        <ele>568</ele>
        <time>2023-08-29T08:45:06Z</time>
      </trkpt>
      <trkpt lat="45.46682" lon="5.32189">
        <ele>568.2</ele>
        <time>2023-08-29T08:45:07Z</time>
      </trkpt>
      <trkpt lat="45.46685" lon="5.32187">
        <ele>568.2</ele>
        <time>2023-08-29T08:45:08Z</time>
      </trkpt>
      <trkpt lat="45.46689" lon="5.32185">
        <ele>568.4</ele>
        <time>2023-08-29T08:45:09Z</time>
      </trkpt>
      <trkpt lat="45.46693" lon="5.32183">
        <ele>568.4</ele>
        <time>2023-08-29T08:45:10Z</time>
      </trkpt>
      <trkpt lat="45.46697" lon="5.32182">
        <ele>568.6</ele>
        <time>2023-08-29T08:45:11Z</time>
      </trkpt>
      <trkpt lat="45.46701" lon="5.32179">
        <ele>568.6</ele>
        <time>2023-08-29T08:45:12Z</time>
      </trkpt>
      <trkpt lat="45.46705" lon="5.32177">
        <ele>568.6</ele>
        <time>2023-08-29T08:45:13Z</time>
      </trkpt>
      <trkpt lat="45.46709" lon="5.32176">
        <ele>568.6</ele>
        <time>2023-08-29T08:45:14Z</time>
      </trkpt>
      <trkpt lat="45.46713" lon="5.32174">
        <ele>568.6</ele>
        <time>2023-08-29T08:45:15Z</time>
      </trkpt>
      <trkpt lat="45.46717" lon="5.32172">
        <ele>568.8</ele>
        <time>2023-08-29T08:45:16Z</time>
      </trkpt>
      <trkpt lat="45.46721" lon="5.3217">
        <ele>568.8</ele>
        <time>2023-08-29T08:45:17Z</time>
      </trkpt>
      <trkpt lat="45.46725" lon="5.32168">
        <ele>569</ele>
        <time>2023-08-29T08:45:18Z</time>
      </trkpt>
      <trkpt lat="45.46729" lon="5.32166">
        <ele>569.2</ele>
        <time>2023-08-29T08:45:19Z</time>
      </trkpt>
      <trkpt lat="45.46733" lon="5.32164">
        <ele>569.2</ele>
        <time>2023-08-29T08:45:20Z</time>
      </trkpt>
      <trkpt lat="45.46736" lon="5.32163">
        <ele>569.4</ele>
        <time>2023-08-29T08:45:21Z</time>
      </trkpt>
      <trkpt lat="45.46741" lon="5.32161">
        <ele>569.4</ele>
        <time>2023-08-29T08:45:22Z</time>
      </trkpt>
      <trkpt lat="45.46745" lon="5.3216">
        <ele>569.6</ele>
        <time>2023-08-29T08:45:23Z</time>
      </trkpt>
      <trkpt lat="45.46749" lon="5.32158">
        <ele>570.2</ele>
        <time>2023-08-29T08:45:24Z</time>
      </trkpt>
      <trkpt lat="45.46753" lon="5.32156">
        <ele>570.6</ele>
        <time>2023-08-29T08:45:25Z</time>
      </trkpt>
      <trkpt lat="45.46757" lon="5.32155">
        <ele>570.8</ele>
        <time>2023-08-29T08:45:26Z</time>
      </trkpt>
      <trkpt lat="45.46761" lon="5.32153">
        <ele>570.8</ele>
        <time>2023-08-29T08:45:27Z</time>
      </trkpt>
      <trkpt lat="45.46765" lon="5.32151">
        <ele>570.8</ele>
        <time>2023-08-29T08:45:28Z</time>
      </trkpt>
      <trkpt lat="45.46769" lon="5.32149">
        <ele>570.8</ele>
        <time>2023-08-29T08:45:29Z</time>
      </trkpt>
      <trkpt lat="45.46773" lon="5.32146">
        <ele>571.2</ele>
        <time>2023-08-29T08:45:30Z</time>
      </trkpt>
      <trkpt lat="45.46777" lon="5.32145">
        <ele>571.2</ele>
        <time>2023-08-29T08:45:31Z</time>
      </trkpt>
      <trkpt lat="45.46782" lon="5.32143">
        <ele>571.4</ele>
        <time>2023-08-29T08:45:32Z</time>
      </trkpt>
      <trkpt lat="45.46786" lon="5.32142">
        <ele>571.4</ele>
        <time>2023-08-29T08:45:33Z</time>
      </trkpt>
      <trkpt lat="45.46791" lon="5.3214">
        <ele>571.4</ele>
        <time>2023-08-29T08:45:34Z</time>
      </trkpt>
      <trkpt lat="45.46795" lon="5.32139">
        <ele>571.4</ele>
        <time>2023-08-29T08:45:35Z</time>
      </trkpt>
      <trkpt lat="45.46799" lon="5.32137">
        <ele>571.4</ele>
        <time>2023-08-29T08:45:36Z</time>
      </trkpt>
      <trkpt lat="45.46803" lon="5.32135">
        <ele>571.2</ele>
        <time>2023-08-29T08:45:37Z</time>
      </trkpt>
      <trkpt lat="45.46807" lon="5.32134">
        <ele>571</ele>
        <time>2023-08-29T08:45:38Z</time>
      </trkpt>
      <trkpt lat="45.46812" lon="5.32132">
        <ele>571</ele>
        <time>2023-08-29T08:45:39Z</time>
      </trkpt>
      <trkpt lat="45.46817" lon="5.32131">
        <ele>571</ele>
        <time>2023-08-29T08:45:40Z</time>
      </trkpt>
      <trkpt lat="45.46821" lon="5.32129">
        <ele>571</ele>
        <time>2023-08-29T08:45:41Z</time>
      </trkpt>
      <trkpt lat="45.46825" lon="5.32128">
        <ele>571</ele>
        <time>2023-08-29T08:45:42Z</time>
      </trkpt>
      <trkpt lat="45.4683" lon="5.32127">
        <ele>571</ele>
        <time>2023-08-29T08:45:43Z</time>
      </trkpt>
      <trkpt lat="45.46834" lon="5.32126">
        <ele>571.4</ele>
        <time>2023-08-29T08:45:44Z</time>
      </trkpt>
      <trkpt lat="45.46838" lon="5.32124">
        <ele>571.4</ele>
        <time>2023-08-29T08:45:45Z</time>
      </trkpt>
      <trkpt lat="45.46842" lon="5.32123">
        <ele>571.8</ele>
        <time>2023-08-29T08:45:46Z</time>
      </trkpt>
      <trkpt lat="45.46846" lon="5.32122">
        <ele>572.4</ele>
        <time>2023-08-29T08:45:47Z</time>
      </trkpt>
      <trkpt lat="45.4685" lon="5.32121">
        <ele>572.4</ele>
        <time>2023-08-29T08:45:48Z</time>
      </trkpt>
      <trkpt lat="45.46853" lon="5.3212">
        <ele>572.6</ele>
        <time>2023-08-29T08:45:49Z</time>
      </trkpt>
      <trkpt lat="45.46857" lon="5.32118">
        <ele>572.6</ele>
        <time>2023-08-29T08:45:50Z</time>
      </trkpt>
      <trkpt lat="45.46861" lon="5.32117">
        <ele>572.6</ele>
        <time>2023-08-29T08:45:51Z</time>
      </trkpt>
      <trkpt lat="45.46866" lon="5.32116">
        <ele>572.8</ele>
        <time>2023-08-29T08:45:52Z</time>
      </trkpt>
      <trkpt lat="45.4687" lon="5.32114">
        <ele>572.8</ele>
        <time>2023-08-29T08:45:53Z</time>
      </trkpt>
      <trkpt lat="45.46874" lon="5.32112">
        <ele>572.8</ele>
        <time>2023-08-29T08:45:54Z</time>
      </trkpt>
      <trkpt lat="45.46879" lon="5.32111">
        <ele>572.8</ele>
        <time>2023-08-29T08:45:55Z</time>
      </trkpt>
      <trkpt lat="45.46882" lon="5.32109">
        <ele>572.8</ele>
        <time>2023-08-29T08:45:56Z</time>
      </trkpt>
      <trkpt lat="45.46886" lon="5.32108">
        <ele>572.8</ele>
        <time>2023-08-29T08:45:57Z</time>
      </trkpt>
      <trkpt lat="45.46891" lon="5.32106">
        <ele>572.8</ele>
        <time>2023-08-29T08:45:58Z</time>
      </trkpt>
      <trkpt lat="45.46895" lon="5.32104">
        <ele>572.8</ele>
        <time>2023-08-29T08:45:59Z</time>
      </trkpt>
      <trkpt lat="45.469" lon="5.32103">
        <ele>572.8</ele>
        <time>2023-08-29T08:46:00Z</time>
      </trkpt>
      <trkpt lat="45.46904" lon="5.32102">
        <ele>572.6</ele>
        <time>2023-08-29T08:46:01Z</time>
      </trkpt>
      <trkpt lat="45.46908" lon="5.321">
        <ele>572.6</ele>
        <time>2023-08-29T08:46:02Z</time>
      </trkpt>
      <trkpt lat="45.46913" lon="5.32098">
        <ele>572.6</ele>
        <time>2023-08-29T08:46:03Z</time>
      </trkpt>
      <trkpt lat="45.46917" lon="5.32097">
        <ele>572.6</ele>
        <time>2023-08-29T08:46:04Z</time>
      </trkpt>
      <trkpt lat="45.46921" lon="5.32095">
        <ele>572.6</ele>
        <time>2023-08-29T08:46:05Z</time>
      </trkpt>
      <trkpt lat="45.46925" lon="5.32092">
        <ele>572.6</ele>
        <time>2023-08-29T08:46:06Z</time>
      </trkpt>
      <trkpt lat="45.4693" lon="5.3209">
        <ele>572.6</ele>
        <time>2023-08-29T08:46:07Z</time>
      </trkpt>
      <trkpt lat="45.46934" lon="5.32087">
        <ele>572.6</ele>
        <time>2023-08-29T08:46:08Z</time>
      </trkpt>
      <trkpt lat="45.46939" lon="5.32085">
        <ele>572.6</ele>
        <time>2023-08-29T08:46:09Z</time>
      </trkpt>
      <trkpt lat="45.46943" lon="5.32082">
        <ele>572.6</ele>
        <time>2023-08-29T08:46:10Z</time>
      </trkpt>
      <trkpt lat="45.46947" lon="5.32079">
        <ele>572.6</ele>
        <time>2023-08-29T08:46:11Z</time>
      </trkpt>
      <trkpt lat="45.46951" lon="5.32076">
        <ele>572.8</ele>
        <time>2023-08-29T08:46:12Z</time>
      </trkpt>
      <trkpt lat="45.46956" lon="5.32072">
        <ele>572.8</ele>
        <time>2023-08-29T08:46:13Z</time>
      </trkpt>
      <trkpt lat="45.4696" lon="5.3207">
        <ele>573.2</ele>
        <time>2023-08-29T08:46:14Z</time>
      </trkpt>
      <trkpt lat="45.46965" lon="5.32067">
        <ele>573.2</ele>
        <time>2023-08-29T08:46:15Z</time>
      </trkpt>
      <trkpt lat="45.46969" lon="5.32063">
        <ele>573.2</ele>
        <time>2023-08-29T08:46:16Z</time>
      </trkpt>
      <trkpt lat="45.46973" lon="5.32059">
        <ele>573.2</ele>
        <time>2023-08-29T08:46:17Z</time>
      </trkpt>
      <trkpt lat="45.46977" lon="5.32054">
        <ele>573.2</ele>
        <time>2023-08-29T08:46:18Z</time>
      </trkpt>
      <trkpt lat="45.4698" lon="5.3205">
        <ele>573.2</ele>
        <time>2023-08-29T08:46:19Z</time>
      </trkpt>
      <trkpt lat="45.46984" lon="5.32045">
        <ele>573.2</ele>
        <time>2023-08-29T08:46:20Z</time>
      </trkpt>
      <trkpt lat="45.46988" lon="5.3204">
        <ele>573.2</ele>
        <time>2023-08-29T08:46:21Z</time>
      </trkpt>
      <trkpt lat="45.46991" lon="5.32036">
        <ele>573.2</ele>
        <time>2023-08-29T08:46:22Z</time>
      </trkpt>
      <trkpt lat="45.46995" lon="5.32033">
        <ele>573.2</ele>
        <time>2023-08-29T08:46:23Z</time>
      </trkpt>
      <trkpt lat="45.46998" lon="5.32029">
        <ele>573</ele>
        <time>2023-08-29T08:46:24Z</time>
      </trkpt>
      <trkpt lat="45.47001" lon="5.32027">
        <ele>573</ele>
        <time>2023-08-29T08:46:25Z</time>
      </trkpt>
      <trkpt lat="45.47004" lon="5.32024">
        <ele>573</ele>
        <time>2023-08-29T08:46:26Z</time>
      </trkpt>
      <trkpt lat="45.47007" lon="5.3202">
        <ele>572.6</ele>
        <time>2023-08-29T08:46:27Z</time>
      </trkpt>
      <trkpt lat="45.4701" lon="5.32016">
        <ele>572.6</ele>
        <time>2023-08-29T08:46:28Z</time>
      </trkpt>
      <trkpt lat="45.47012" lon="5.32012">
        <ele>572.6</ele>
        <time>2023-08-29T08:46:29Z</time>
      </trkpt>
      <trkpt lat="45.47013" lon="5.32006">
        <ele>572.6</ele>
        <time>2023-08-29T08:46:30Z</time>
      </trkpt>
      <trkpt lat="45.47014" lon="5.32">
        <ele>572.8</ele>
        <time>2023-08-29T08:46:31Z</time>
      </trkpt>
      <trkpt lat="45.47015" lon="5.31994">
        <ele>572.8</ele>
        <time>2023-08-29T08:46:32Z</time>
      </trkpt>
      <trkpt lat="45.47017" lon="5.31988">
        <ele>572.8</ele>
        <time>2023-08-29T08:46:33Z</time>
      </trkpt>
      <trkpt lat="45.47019" lon="5.31982">
        <ele>572.8</ele>
        <time>2023-08-29T08:46:34Z</time>
      </trkpt>
      <trkpt lat="45.47022" lon="5.31977">
        <ele>572.6</ele>
        <time>2023-08-29T08:46:35Z</time>
      </trkpt>
      <trkpt lat="45.47025" lon="5.3197">
        <ele>572.2</ele>
        <time>2023-08-29T08:46:36Z</time>
      </trkpt>
      <trkpt lat="45.47029" lon="5.31964">
        <ele>572.2</ele>
        <time>2023-08-29T08:46:37Z</time>
      </trkpt>
      <trkpt lat="45.47032" lon="5.3196">
        <ele>571.8</ele>
        <time>2023-08-29T08:46:38Z</time>
      </trkpt>
      <trkpt lat="45.47036" lon="5.31956">
        <ele>571.8</ele>
        <time>2023-08-29T08:46:39Z</time>
      </trkpt>
      <trkpt lat="45.47039" lon="5.31952">
        <ele>571.8</ele>
        <time>2023-08-29T08:46:40Z</time>
      </trkpt>
      <trkpt lat="45.47044" lon="5.31947">
        <ele>571.8</ele>
        <time>2023-08-29T08:46:41Z</time>
      </trkpt>
      <trkpt lat="45.47047" lon="5.31943">
        <ele>572</ele>
        <time>2023-08-29T08:46:42Z</time>
      </trkpt>
      <trkpt lat="45.47051" lon="5.3194">
        <ele>572</ele>
        <time>2023-08-29T08:46:43Z</time>
      </trkpt>
      <trkpt lat="45.47055" lon="5.31936">
        <ele>572.2</ele>
        <time>2023-08-29T08:46:44Z</time>
      </trkpt>
      <trkpt lat="45.47059" lon="5.31931">
        <ele>572.4</ele>
        <time>2023-08-29T08:46:45Z</time>
      </trkpt>
      <trkpt lat="45.47064" lon="5.31928">
        <ele>572.4</ele>
        <time>2023-08-29T08:46:46Z</time>
      </trkpt>
      <trkpt lat="45.47068" lon="5.31925">
        <ele>572.4</ele>
        <time>2023-08-29T08:46:47Z</time>
      </trkpt>
      <trkpt lat="45.47072" lon="5.31922">
        <ele>572.6</ele>
        <time>2023-08-29T08:46:48Z</time>
      </trkpt>
      <trkpt lat="45.47076" lon="5.31918">
        <ele>572.6</ele>
        <time>2023-08-29T08:46:49Z</time>
      </trkpt>
      <trkpt lat="45.4708" lon="5.31914">
        <ele>572.6</ele>
        <time>2023-08-29T08:46:50Z</time>
      </trkpt>
      <trkpt lat="45.47084" lon="5.31911">
        <ele>572.6</ele>
        <time>2023-08-29T08:46:51Z</time>
      </trkpt>
      <trkpt lat="45.47089" lon="5.31907">
        <ele>572.4</ele>
        <time>2023-08-29T08:46:52Z</time>
      </trkpt>
      <trkpt lat="45.47092" lon="5.31904">
        <ele>572.4</ele>
        <time>2023-08-29T08:46:53Z</time>
      </trkpt>
      <trkpt lat="45.47096" lon="5.319">
        <ele>572.4</ele>
        <time>2023-08-29T08:46:54Z</time>
      </trkpt>
      <trkpt lat="45.47101" lon="5.31896">
        <ele>572.4</ele>
        <time>2023-08-29T08:46:55Z</time>
      </trkpt>
      <trkpt lat="45.47105" lon="5.31893">
        <ele>572.4</ele>
        <time>2023-08-29T08:46:56Z</time>
      </trkpt>
      <trkpt lat="45.47109" lon="5.31888">
        <ele>572.4</ele>
        <time>2023-08-29T08:46:57Z</time>
      </trkpt>
      <trkpt lat="45.47113" lon="5.31884">
        <ele>572.4</ele>
        <time>2023-08-29T08:46:58Z</time>
      </trkpt>
      <trkpt lat="45.47117" lon="5.3188">
        <ele>572.4</ele>
        <time>2023-08-29T08:46:59Z</time>
      </trkpt>
      <trkpt lat="45.47121" lon="5.31876">
        <ele>572.4</ele>
        <time>2023-08-29T08:47:00Z</time>
      </trkpt>
      <trkpt lat="45.47124" lon="5.31873">
        <ele>572.6</ele>
        <time>2023-08-29T08:47:01Z</time>
      </trkpt>
      <trkpt lat="45.47128" lon="5.31868">
        <ele>572.6</ele>
        <time>2023-08-29T08:47:02Z</time>
      </trkpt>
      <trkpt lat="45.47131" lon="5.31864">
        <ele>572.6</ele>
        <time>2023-08-29T08:47:03Z</time>
      </trkpt>
      <trkpt lat="45.47135" lon="5.31861">
        <ele>572.6</ele>
        <time>2023-08-29T08:47:04Z</time>
      </trkpt>
      <trkpt lat="45.47138" lon="5.31857">
        <ele>572.6</ele>
        <time>2023-08-29T08:47:05Z</time>
      </trkpt>
      <trkpt lat="45.47142" lon="5.31853">
        <ele>572.6</ele>
        <time>2023-08-29T08:47:06Z</time>
      </trkpt>
      <trkpt lat="45.47146" lon="5.31849">
        <ele>572.6</ele>
        <time>2023-08-29T08:47:07Z</time>
      </trkpt>
      <trkpt lat="45.4715" lon="5.31844">
        <ele>572.6</ele>
        <time>2023-08-29T08:47:08Z</time>
      </trkpt>
      <trkpt lat="45.47154" lon="5.3184">
        <ele>572.8</ele>
        <time>2023-08-29T08:47:09Z</time>
      </trkpt>
      <trkpt lat="45.47158" lon="5.31835">
        <ele>572.8</ele>
        <time>2023-08-29T08:47:10Z</time>
      </trkpt>
      <trkpt lat="45.47163" lon="5.3183">
        <ele>572.8</ele>
        <time>2023-08-29T08:47:11Z</time>
      </trkpt>
      <trkpt lat="45.47168" lon="5.31825">
        <ele>572.8</ele>
        <time>2023-08-29T08:47:12Z</time>
      </trkpt>
      <trkpt lat="45.47173" lon="5.31821">
        <ele>573</ele>
        <time>2023-08-29T08:47:13Z</time>
      </trkpt>
      <trkpt lat="45.47177" lon="5.31816">
        <ele>573</ele>
        <time>2023-08-29T08:47:14Z</time>
      </trkpt>
      <trkpt lat="45.47182" lon="5.31811">
        <ele>573</ele>
        <time>2023-08-29T08:47:15Z</time>
      </trkpt>
      <trkpt lat="45.47187" lon="5.31807">
        <ele>573.2</ele>
        <time>2023-08-29T08:47:16Z</time>
      </trkpt>
      <trkpt lat="45.47192" lon="5.31802">
        <ele>573.4</ele>
        <time>2023-08-29T08:47:17Z</time>
      </trkpt>
      <trkpt lat="45.47196" lon="5.31798">
        <ele>573.6</ele>
        <time>2023-08-29T08:47:18Z</time>
      </trkpt>
      <trkpt lat="45.47201" lon="5.31794">
        <ele>574.2</ele>
        <time>2023-08-29T08:47:19Z</time>
      </trkpt>
      <trkpt lat="45.47206" lon="5.3179">
        <ele>574.4</ele>
        <time>2023-08-29T08:47:20Z</time>
      </trkpt>
      <trkpt lat="45.47211" lon="5.31785">
        <ele>574.6</ele>
        <time>2023-08-29T08:47:21Z</time>
      </trkpt>
      <trkpt lat="45.47216" lon="5.31781">
        <ele>574.6</ele>
        <time>2023-08-29T08:47:22Z</time>
      </trkpt>
      <trkpt lat="45.47221" lon="5.31776">
        <ele>574.6</ele>
        <time>2023-08-29T08:47:23Z</time>
      </trkpt>
      <trkpt lat="45.47226" lon="5.31772">
        <ele>574.6</ele>
        <time>2023-08-29T08:47:24Z</time>
      </trkpt>
      <trkpt lat="45.47231" lon="5.31768">
        <ele>574.4</ele>
        <time>2023-08-29T08:47:25Z</time>
      </trkpt>
      <trkpt lat="45.47235" lon="5.31765">
        <ele>574</ele>
        <time>2023-08-29T08:47:26Z</time>
      </trkpt>
      <trkpt lat="45.4724" lon="5.3176">
        <ele>574</ele>
        <time>2023-08-29T08:47:27Z</time>
      </trkpt>
      <trkpt lat="45.47245" lon="5.31755">
        <ele>574</ele>
        <time>2023-08-29T08:47:28Z</time>
      </trkpt>
      <trkpt lat="45.4725" lon="5.31751">
        <ele>574</ele>
        <time>2023-08-29T08:47:29Z</time>
      </trkpt>
      <trkpt lat="45.47255" lon="5.31746">
        <ele>574</ele>
        <time>2023-08-29T08:47:30Z</time>
      </trkpt>
      <trkpt lat="45.4726" lon="5.31741">
        <ele>574</ele>
        <time>2023-08-29T08:47:31Z</time>
      </trkpt>
      <trkpt lat="45.47265" lon="5.31736">
        <ele>574.2</ele>
        <time>2023-08-29T08:47:32Z</time>
      </trkpt>
      <trkpt lat="45.47269" lon="5.31732">
        <ele>574.2</ele>
        <time>2023-08-29T08:47:33Z</time>
      </trkpt>
      <trkpt lat="45.47274" lon="5.31727">
        <ele>574.2</ele>
        <time>2023-08-29T08:47:34Z</time>
      </trkpt>
      <trkpt lat="45.47278" lon="5.31721">
        <ele>574.2</ele>
        <time>2023-08-29T08:47:35Z</time>
      </trkpt>
      <trkpt lat="45.47282" lon="5.31717">
        <ele>574.2</ele>
        <time>2023-08-29T08:47:36Z</time>
      </trkpt>
      <trkpt lat="45.47287" lon="5.31712">
        <ele>574.4</ele>
        <time>2023-08-29T08:47:37Z</time>
      </trkpt>
      <trkpt lat="45.47291" lon="5.31707">
        <ele>574.4</ele>
        <time>2023-08-29T08:47:38Z</time>
      </trkpt>
      <trkpt lat="45.47296" lon="5.31702">
        <ele>574.6</ele>
        <time>2023-08-29T08:47:39Z</time>
      </trkpt>
      <trkpt lat="45.473" lon="5.31697">
        <ele>574.6</ele>
        <time>2023-08-29T08:47:40Z</time>
      </trkpt>
      <trkpt lat="45.47304" lon="5.3169">
        <ele>574.6</ele>
        <time>2023-08-29T08:47:41Z</time>
      </trkpt>
      <trkpt lat="45.47307" lon="5.31685">
        <ele>574.6</ele>
        <time>2023-08-29T08:47:42Z</time>
      </trkpt>
      <trkpt lat="45.47311" lon="5.31681">
        <ele>574.8</ele>
        <time>2023-08-29T08:47:43Z</time>
      </trkpt>
      <trkpt lat="45.47316" lon="5.31675">
        <ele>574.8</ele>
        <time>2023-08-29T08:47:44Z</time>
      </trkpt>
      <trkpt lat="45.4732" lon="5.3167">
        <ele>574.8</ele>
        <time>2023-08-29T08:47:45Z</time>
      </trkpt>
      <trkpt lat="45.47324" lon="5.31663">
        <ele>575.4</ele>
        <time>2023-08-29T08:47:46Z</time>
      </trkpt>
      <trkpt lat="45.47328" lon="5.31658">
        <ele>575.8</ele>
        <time>2023-08-29T08:47:47Z</time>
      </trkpt>
      <trkpt lat="45.47332" lon="5.31653">
        <ele>575.8</ele>
        <time>2023-08-29T08:47:48Z</time>
      </trkpt>
      <trkpt lat="45.47335" lon="5.31648">
        <ele>575.8</ele>
        <time>2023-08-29T08:47:49Z</time>
      </trkpt>
      <trkpt lat="45.47339" lon="5.31643">
        <ele>575.8</ele>
        <time>2023-08-29T08:47:50Z</time>
      </trkpt>
      <trkpt lat="45.47342" lon="5.31637">
        <ele>575.4</ele>
        <time>2023-08-29T08:47:51Z</time>
      </trkpt>
      <trkpt lat="45.47346" lon="5.31633">
        <ele>575.2</ele>
        <time>2023-08-29T08:47:52Z</time>
      </trkpt>
      <trkpt lat="45.4735" lon="5.31627">
        <ele>575.2</ele>
        <time>2023-08-29T08:47:53Z</time>
      </trkpt>
      <trkpt lat="45.47354" lon="5.31622">
        <ele>575.2</ele>
        <time>2023-08-29T08:47:54Z</time>
      </trkpt>
      <trkpt lat="45.47357" lon="5.31617">
        <ele>575.2</ele>
        <time>2023-08-29T08:47:55Z</time>
      </trkpt>
      <trkpt lat="45.47361" lon="5.31612">
        <ele>575.2</ele>
        <time>2023-08-29T08:47:56Z</time>
      </trkpt>
      <trkpt lat="45.47364" lon="5.31608">
        <ele>575.2</ele>
        <time>2023-08-29T08:47:57Z</time>
      </trkpt>
      <trkpt lat="45.47368" lon="5.31602">
        <ele>575.2</ele>
        <time>2023-08-29T08:47:58Z</time>
      </trkpt>
      <trkpt lat="45.47372" lon="5.31596">
        <ele>575.4</ele>
        <time>2023-08-29T08:47:59Z</time>
      </trkpt>
      <trkpt lat="45.47376" lon="5.3159">
        <ele>575.4</ele>
        <time>2023-08-29T08:48:00Z</time>
      </trkpt>
      <trkpt lat="45.47379" lon="5.31584">
        <ele>575.4</ele>
        <time>2023-08-29T08:48:01Z</time>
      </trkpt>
      <trkpt lat="45.47383" lon="5.31579">
        <ele>575.4</ele>
        <time>2023-08-29T08:48:02Z</time>
      </trkpt>
      <trkpt lat="45.47387" lon="5.31574">
        <ele>575.4</ele>
        <time>2023-08-29T08:48:03Z</time>
      </trkpt>
      <trkpt lat="45.4739" lon="5.3157">
        <ele>575.4</ele>
        <time>2023-08-29T08:48:04Z</time>
      </trkpt>
      <trkpt lat="45.47394" lon="5.31565">
        <ele>575.6</ele>
        <time>2023-08-29T08:48:05Z</time>
      </trkpt>
      <trkpt lat="45.47397" lon="5.31561">
        <ele>575.6</ele>
        <time>2023-08-29T08:48:06Z</time>
      </trkpt>
      <trkpt lat="45.474" lon="5.31556">
        <ele>576</ele>
        <time>2023-08-29T08:48:07Z</time>
      </trkpt>
      <trkpt lat="45.47403" lon="5.31551">
        <ele>576</ele>
        <time>2023-08-29T08:48:08Z</time>
      </trkpt>
      <trkpt lat="45.47407" lon="5.31547">
        <ele>576</ele>
        <time>2023-08-29T08:48:09Z</time>
      </trkpt>
      <trkpt lat="45.4741" lon="5.31541">
        <ele>576.6</ele>
        <time>2023-08-29T08:48:10Z</time>
      </trkpt>
      <trkpt lat="45.47414" lon="5.31536">
        <ele>576.6</ele>
        <time>2023-08-29T08:48:11Z</time>
      </trkpt>
      <trkpt lat="45.47418" lon="5.31531">
        <ele>576.6</ele>
        <time>2023-08-29T08:48:12Z</time>
      </trkpt>
      <trkpt lat="45.47421" lon="5.31526">
        <ele>577</ele>
        <time>2023-08-29T08:48:13Z</time>
      </trkpt>
      <trkpt lat="45.47425" lon="5.31521">
        <ele>577</ele>
        <time>2023-08-29T08:48:14Z</time>
      </trkpt>
      <trkpt lat="45.47429" lon="5.31516">
        <ele>577.2</ele>
        <time>2023-08-29T08:48:15Z</time>
      </trkpt>
      <trkpt lat="45.47433" lon="5.31511">
        <ele>577.2</ele>
        <time>2023-08-29T08:48:16Z</time>
      </trkpt>
      <trkpt lat="45.47437" lon="5.31508">
        <ele>577.2</ele>
        <time>2023-08-29T08:48:17Z</time>
      </trkpt>
      <trkpt lat="45.47441" lon="5.31504">
        <ele>577.2</ele>
        <time>2023-08-29T08:48:18Z</time>
      </trkpt>
      <trkpt lat="45.47445" lon="5.31501">
        <ele>577.4</ele>
        <time>2023-08-29T08:48:19Z</time>
      </trkpt>
      <trkpt lat="45.47449" lon="5.31497">
        <ele>577.4</ele>
        <time>2023-08-29T08:48:20Z</time>
      </trkpt>
      <trkpt lat="45.47453" lon="5.31493">
        <ele>577.6</ele>
        <time>2023-08-29T08:48:21Z</time>
      </trkpt>
      <trkpt lat="45.47457" lon="5.31489">
        <ele>578</ele>
        <time>2023-08-29T08:48:22Z</time>
      </trkpt>
      <trkpt lat="45.47462" lon="5.31486">
        <ele>578</ele>
        <time>2023-08-29T08:48:23Z</time>
      </trkpt>
      <trkpt lat="45.47466" lon="5.31482">
        <ele>578</ele>
        <time>2023-08-29T08:48:24Z</time>
      </trkpt>
      <trkpt lat="45.47471" lon="5.31478">
        <ele>578</ele>
        <time>2023-08-29T08:48:25Z</time>
      </trkpt>
      <trkpt lat="45.47475" lon="5.31474">
        <ele>578</ele>
        <time>2023-08-29T08:48:26Z</time>
      </trkpt>
      <trkpt lat="45.4748" lon="5.3147">
        <ele>578.2</ele>
        <time>2023-08-29T08:48:27Z</time>
      </trkpt>
      <trkpt lat="45.47485" lon="5.31466">
        <ele>578.4</ele>
        <time>2023-08-29T08:48:28Z</time>
      </trkpt>
      <trkpt lat="45.47489" lon="5.31462">
        <ele>578.4</ele>
        <time>2023-08-29T08:48:29Z</time>
      </trkpt>
      <trkpt lat="45.47494" lon="5.31458">
        <ele>578.4</ele>
        <time>2023-08-29T08:48:30Z</time>
      </trkpt>
      <trkpt lat="45.47499" lon="5.31453">
        <ele>578.4</ele>
        <time>2023-08-29T08:48:31Z</time>
      </trkpt>
      <trkpt lat="45.47503" lon="5.31449">
        <ele>578.6</ele>
        <time>2023-08-29T08:48:32Z</time>
      </trkpt>
      <trkpt lat="45.47507" lon="5.31445">
        <ele>578.8</ele>
        <time>2023-08-29T08:48:33Z</time>
      </trkpt>
      <trkpt lat="45.47512" lon="5.31441">
        <ele>579</ele>
        <time>2023-08-29T08:48:34Z</time>
      </trkpt>
      <trkpt lat="45.47516" lon="5.31436">
        <ele>579</ele>
        <time>2023-08-29T08:48:35Z</time>
      </trkpt>
      <trkpt lat="45.4752" lon="5.31432">
        <ele>579.2</ele>
        <time>2023-08-29T08:48:36Z</time>
      </trkpt>
      <trkpt lat="45.47524" lon="5.31428">
        <ele>579.2</ele>
        <time>2023-08-29T08:48:37Z</time>
      </trkpt>
      <trkpt lat="45.47528" lon="5.31425">
        <ele>579.4</ele>
        <time>2023-08-29T08:48:38Z</time>
      </trkpt>
      <trkpt lat="45.47531" lon="5.31421">
        <ele>579.6</ele>
        <time>2023-08-29T08:48:39Z</time>
      </trkpt>
      <trkpt lat="45.47535" lon="5.31417">
        <ele>579.8</ele>
        <time>2023-08-29T08:48:40Z</time>
      </trkpt>
      <trkpt lat="45.47538" lon="5.31413">
        <ele>579.8</ele>
        <time>2023-08-29T08:48:41Z</time>
      </trkpt>
      <trkpt lat="45.47542" lon="5.31409">
        <ele>580</ele>
        <time>2023-08-29T08:48:42Z</time>
      </trkpt>
      <trkpt lat="45.47545" lon="5.31405">
        <ele>580.2</ele>
        <time>2023-08-29T08:48:43Z</time>
      </trkpt>
      <trkpt lat="45.47549" lon="5.314">
        <ele>580.2</ele>
        <time>2023-08-29T08:48:44Z</time>
      </trkpt>
      <trkpt lat="45.47552" lon="5.31396">
        <ele>580.2</ele>
        <time>2023-08-29T08:48:45Z</time>
      </trkpt>
      <trkpt lat="45.47555" lon="5.31393">
        <ele>580.2</ele>
        <time>2023-08-29T08:48:46Z</time>
      </trkpt>
      <trkpt lat="45.47557" lon="5.3139">
        <ele>580.2</ele>
        <time>2023-08-29T08:48:47Z</time>
      </trkpt>
      <trkpt lat="45.4756" lon="5.31388">
        <ele>580.2</ele>
        <time>2023-08-29T08:48:48Z</time>
      </trkpt>
      <trkpt lat="45.47564" lon="5.31386">
        <ele>580.2</ele>
        <time>2023-08-29T08:48:49Z</time>
      </trkpt>
      <trkpt lat="45.47567" lon="5.31385">
        <ele>580.2</ele>
        <time>2023-08-29T08:48:50Z</time>
      </trkpt>
      <trkpt lat="45.47571" lon="5.31383">
        <ele>580.2</ele>
        <time>2023-08-29T08:48:51Z</time>
      </trkpt>
      <trkpt lat="45.47575" lon="5.31382">
        <ele>580.2</ele>
        <time>2023-08-29T08:48:52Z</time>
      </trkpt>
      <trkpt lat="45.4758" lon="5.3138">
        <ele>580.2</ele>
        <time>2023-08-29T08:48:53Z</time>
      </trkpt>
      <trkpt lat="45.47585" lon="5.31379">
        <ele>580.2</ele>
        <time>2023-08-29T08:48:54Z</time>
      </trkpt>
      <trkpt lat="45.47589" lon="5.31378">
        <ele>580.2</ele>
        <time>2023-08-29T08:48:55Z</time>
      </trkpt>
      <trkpt lat="45.47594" lon="5.31377">
        <ele>580.2</ele>
        <time>2023-08-29T08:48:56Z</time>
      </trkpt>
      <trkpt lat="45.47599" lon="5.31376">
        <ele>580.2</ele>
        <time>2023-08-29T08:48:57Z</time>
      </trkpt>
      <trkpt lat="45.47603" lon="5.31375">
        <ele>580.4</ele>
        <time>2023-08-29T08:48:58Z</time>
      </trkpt>
      <trkpt lat="45.47608" lon="5.31373">
        <ele>580.4</ele>
        <time>2023-08-29T08:48:59Z</time>
      </trkpt>
      <trkpt lat="45.47613" lon="5.31372">
        <ele>580.4</ele>
        <time>2023-08-29T08:49:00Z</time>
      </trkpt>
      <trkpt lat="45.47618" lon="5.31371">
        <ele>580.4</ele>
        <time>2023-08-29T08:49:01Z</time>
      </trkpt>
      <trkpt lat="45.47623" lon="5.31369">
        <ele>580.4</ele>
        <time>2023-08-29T08:49:02Z</time>
      </trkpt>
      <trkpt lat="45.47628" lon="5.31368">
        <ele>580.4</ele>
        <time>2023-08-29T08:49:03Z</time>
      </trkpt>
      <trkpt lat="45.47633" lon="5.31367">
        <ele>580.6</ele>
        <time>2023-08-29T08:49:04Z</time>
      </trkpt>
      <trkpt lat="45.47638" lon="5.31366">
        <ele>580.8</ele>
        <time>2023-08-29T08:49:05Z</time>
      </trkpt>
      <trkpt lat="45.47644" lon="5.31365">
        <ele>580.8</ele>
        <time>2023-08-29T08:49:06Z</time>
      </trkpt>
      <trkpt lat="45.47649" lon="5.31363">
        <ele>580.8</ele>
        <time>2023-08-29T08:49:07Z</time>
      </trkpt>
      <trkpt lat="45.47654" lon="5.31362">
        <ele>580.8</ele>
        <time>2023-08-29T08:49:08Z</time>
      </trkpt>
      <trkpt lat="45.47659" lon="5.31361">
        <ele>580.8</ele>
        <time>2023-08-29T08:49:09Z</time>
      </trkpt>
      <trkpt lat="45.47664" lon="5.3136">
        <ele>580.8</ele>
        <time>2023-08-29T08:49:10Z</time>
      </trkpt>
      <trkpt lat="45.47669" lon="5.31359">
        <ele>580.8</ele>
        <time>2023-08-29T08:49:11Z</time>
      </trkpt>
      <trkpt lat="45.47674" lon="5.31358">
        <ele>580.8</ele>
        <time>2023-08-29T08:49:12Z</time>
      </trkpt>
      <trkpt lat="45.47679" lon="5.31356">
        <ele>580.8</ele>
        <time>2023-08-29T08:49:13Z</time>
      </trkpt>
      <trkpt lat="45.47683" lon="5.31355">
        <ele>580.8</ele>
        <time>2023-08-29T08:49:14Z</time>
      </trkpt>
      <trkpt lat="45.47687" lon="5.31354">
        <ele>581.2</ele>
        <time>2023-08-29T08:49:15Z</time>
      </trkpt>
      <trkpt lat="45.47692" lon="5.31352">
        <ele>581.2</ele>
        <time>2023-08-29T08:49:16Z</time>
      </trkpt>
      <trkpt lat="45.47696" lon="5.3135">
        <ele>581.2</ele>
        <time>2023-08-29T08:49:17Z</time>
      </trkpt>
      <trkpt lat="45.477" lon="5.31348">
        <ele>581.2</ele>
        <time>2023-08-29T08:49:18Z</time>
      </trkpt>
      <trkpt lat="45.47705" lon="5.31345">
        <ele>581.2</ele>
        <time>2023-08-29T08:49:19Z</time>
      </trkpt>
      <trkpt lat="45.47709" lon="5.31342">
        <ele>581.2</ele>
        <time>2023-08-29T08:49:20Z</time>
      </trkpt>
      <trkpt lat="45.47713" lon="5.31339">
        <ele>581.2</ele>
        <time>2023-08-29T08:49:21Z</time>
      </trkpt>
      <trkpt lat="45.47718" lon="5.31336">
        <ele>581.6</ele>
        <time>2023-08-29T08:49:22Z</time>
      </trkpt>
      <trkpt lat="45.47722" lon="5.31332">
        <ele>581.8</ele>
        <time>2023-08-29T08:49:23Z</time>
      </trkpt>
      <trkpt lat="45.47726" lon="5.31328">
        <ele>581.8</ele>
        <time>2023-08-29T08:49:24Z</time>
      </trkpt>
      <trkpt lat="45.47731" lon="5.31323">
        <ele>581.8</ele>
        <time>2023-08-29T08:49:25Z</time>
      </trkpt>
      <trkpt lat="45.47735" lon="5.31318">
        <ele>582.2</ele>
        <time>2023-08-29T08:49:26Z</time>
      </trkpt>
      <trkpt lat="45.47739" lon="5.31313">
        <ele>582.4</ele>
        <time>2023-08-29T08:49:27Z</time>
      </trkpt>
      <trkpt lat="45.47744" lon="5.31307">
        <ele>582.4</ele>
        <time>2023-08-29T08:49:28Z</time>
      </trkpt>
      <trkpt lat="45.47748" lon="5.31302">
        <ele>582.4</ele>
        <time>2023-08-29T08:49:29Z</time>
      </trkpt>
      <trkpt lat="45.47752" lon="5.31297">
        <ele>582.4</ele>
        <time>2023-08-29T08:49:30Z</time>
      </trkpt>
      <trkpt lat="45.47756" lon="5.31292">
        <ele>581.8</ele>
        <time>2023-08-29T08:49:31Z</time>
      </trkpt>
      <trkpt lat="45.47761" lon="5.31286">
        <ele>581.6</ele>
        <time>2023-08-29T08:49:32Z</time>
      </trkpt>
      <trkpt lat="45.47765" lon="5.31282">
        <ele>581.6</ele>
        <time>2023-08-29T08:49:33Z</time>
      </trkpt>
      <trkpt lat="45.47769" lon="5.31277">
        <ele>581.4</ele>
        <time>2023-08-29T08:49:34Z</time>
      </trkpt>
      <trkpt lat="45.47773" lon="5.31273">
        <ele>581.4</ele>
        <time>2023-08-29T08:49:35Z</time>
      </trkpt>
      <trkpt lat="45.47777" lon="5.31269">
        <ele>581.4</ele>
        <time>2023-08-29T08:49:36Z</time>
      </trkpt>
      <trkpt lat="45.47781" lon="5.31264">
        <ele>581.4</ele>
        <time>2023-08-29T08:49:37Z</time>
      </trkpt>
      <trkpt lat="45.47785" lon="5.31259">
        <ele>581.6</ele>
        <time>2023-08-29T08:49:38Z</time>
      </trkpt>
      <trkpt lat="45.47789" lon="5.31253">
        <ele>581.6</ele>
        <time>2023-08-29T08:49:39Z</time>
      </trkpt>
      <trkpt lat="45.47793" lon="5.31248">
        <ele>581.8</ele>
        <time>2023-08-29T08:49:40Z</time>
      </trkpt>
      <trkpt lat="45.47796" lon="5.31243">
        <ele>582</ele>
        <time>2023-08-29T08:49:41Z</time>
      </trkpt>
      <trkpt lat="45.478" lon="5.31237">
        <ele>582.2</ele>
        <time>2023-08-29T08:49:42Z</time>
      </trkpt>
      <trkpt lat="45.47804" lon="5.31232">
        <ele>582.4</ele>
        <time>2023-08-29T08:49:43Z</time>
      </trkpt>
      <trkpt lat="45.47808" lon="5.31228">
        <ele>582.4</ele>
        <time>2023-08-29T08:49:44Z</time>
      </trkpt>
      <trkpt lat="45.47813" lon="5.31224">
        <ele>582.6</ele>
        <time>2023-08-29T08:49:45Z</time>
      </trkpt>
      <trkpt lat="45.47817" lon="5.31219">
        <ele>582.6</ele>
        <time>2023-08-29T08:49:46Z</time>
      </trkpt>
      <trkpt lat="45.47822" lon="5.31213">
        <ele>582.6</ele>
        <time>2023-08-29T08:49:47Z</time>
      </trkpt>
      <trkpt lat="45.47825" lon="5.31208">
        <ele>582.6</ele>
        <time>2023-08-29T08:49:48Z</time>
      </trkpt>
      <trkpt lat="45.47828" lon="5.31204">
        <ele>582.6</ele>
        <time>2023-08-29T08:49:49Z</time>
      </trkpt>
      <trkpt lat="45.47832" lon="5.31199">
        <ele>582.6</ele>
        <time>2023-08-29T08:49:50Z</time>
      </trkpt>
      <trkpt lat="45.47836" lon="5.31194">
        <ele>582.6</ele>
        <time>2023-08-29T08:49:51Z</time>
      </trkpt>
      <trkpt lat="45.47839" lon="5.31189">
        <ele>582.6</ele>
        <time>2023-08-29T08:49:52Z</time>
      </trkpt>
      <trkpt lat="45.47843" lon="5.31184">
        <ele>582.6</ele>
        <time>2023-08-29T08:49:53Z</time>
      </trkpt>
      <trkpt lat="45.47847" lon="5.31178">
        <ele>582.6</ele>
        <time>2023-08-29T08:49:54Z</time>
      </trkpt>
      <trkpt lat="45.47851" lon="5.31173">
        <ele>582.4</ele>
        <time>2023-08-29T08:49:55Z</time>
      </trkpt>
      <trkpt lat="45.47855" lon="5.31169">
        <ele>582.4</ele>
        <time>2023-08-29T08:49:56Z</time>
      </trkpt>
      <trkpt lat="45.47859" lon="5.31164">
        <ele>582.4</ele>
        <time>2023-08-29T08:49:57Z</time>
      </trkpt>
      <trkpt lat="45.47863" lon="5.3116">
        <ele>582.4</ele>
        <time>2023-08-29T08:49:58Z</time>
      </trkpt>
      <trkpt lat="45.47868" lon="5.31155">
        <ele>582.4</ele>
        <time>2023-08-29T08:49:59Z</time>
      </trkpt>
      <trkpt lat="45.47872" lon="5.3115">
        <ele>582.4</ele>
        <time>2023-08-29T08:50:00Z</time>
      </trkpt>
      <trkpt lat="45.47876" lon="5.31144">
        <ele>582.4</ele>
        <time>2023-08-29T08:50:01Z</time>
      </trkpt>
      <trkpt lat="45.4788" lon="5.3114">
        <ele>582.6</ele>
        <time>2023-08-29T08:50:02Z</time>
      </trkpt>
      <trkpt lat="45.47884" lon="5.31134">
        <ele>582.8</ele>
        <time>2023-08-29T08:50:03Z</time>
      </trkpt>
      <trkpt lat="45.47887" lon="5.31128">
        <ele>582.8</ele>
        <time>2023-08-29T08:50:04Z</time>
      </trkpt>
      <trkpt lat="45.4789" lon="5.31122">
        <ele>583</ele>
        <time>2023-08-29T08:50:05Z</time>
      </trkpt>
      <trkpt lat="45.47893" lon="5.31116">
        <ele>583</ele>
        <time>2023-08-29T08:50:06Z</time>
      </trkpt>
      <trkpt lat="45.47896" lon="5.31109">
        <ele>583</ele>
        <time>2023-08-29T08:50:07Z</time>
      </trkpt>
      <trkpt lat="45.47898" lon="5.31103">
        <ele>583.6</ele>
        <time>2023-08-29T08:50:08Z</time>
      </trkpt>
      <trkpt lat="45.47901" lon="5.31097">
        <ele>583.8</ele>
        <time>2023-08-29T08:50:09Z</time>
      </trkpt>
      <trkpt lat="45.47904" lon="5.31091">
        <ele>584</ele>
        <time>2023-08-29T08:50:10Z</time>
      </trkpt>
      <trkpt lat="45.47907" lon="5.31085">
        <ele>584.2</ele>
        <time>2023-08-29T08:50:11Z</time>
      </trkpt>
      <trkpt lat="45.4791" lon="5.31078">
        <ele>584.2</ele>
        <time>2023-08-29T08:50:12Z</time>
      </trkpt>
      <trkpt lat="45.47912" lon="5.31072">
        <ele>584.4</ele>
        <time>2023-08-29T08:50:13Z</time>
      </trkpt>
      <trkpt lat="45.47915" lon="5.31066">
        <ele>584.4</ele>
        <time>2023-08-29T08:50:14Z</time>
      </trkpt>
      <trkpt lat="45.47918" lon="5.3106">
        <ele>584.8</ele>
        <time>2023-08-29T08:50:15Z</time>
      </trkpt>
      <trkpt lat="45.47921" lon="5.31054">
        <ele>584.8</ele>
        <time>2023-08-29T08:50:16Z</time>
      </trkpt>
      <trkpt lat="45.47925" lon="5.31049">
        <ele>584.8</ele>
        <time>2023-08-29T08:50:17Z</time>
      </trkpt>
      <trkpt lat="45.4793" lon="5.31042">
        <ele>584.8</ele>
        <time>2023-08-29T08:50:18Z</time>
      </trkpt>
      <trkpt lat="45.47934" lon="5.31036">
        <ele>584.8</ele>
        <time>2023-08-29T08:50:19Z</time>
      </trkpt>
      <trkpt lat="45.47939" lon="5.31029">
        <ele>584.8</ele>
        <time>2023-08-29T08:50:20Z</time>
      </trkpt>
      <trkpt lat="45.47944" lon="5.31022">
        <ele>583.4</ele>
        <time>2023-08-29T08:50:21Z</time>
      </trkpt>
      <trkpt lat="45.47951" lon="5.31014">
        <ele>582.2</ele>
        <time>2023-08-29T08:50:22Z</time>
      </trkpt>
      <trkpt lat="45.47956" lon="5.31005">
        <ele>582</ele>
        <time>2023-08-29T08:50:23Z</time>
      </trkpt>
      <trkpt lat="45.47961" lon="5.30995">
        <ele>581.4</ele>
        <time>2023-08-29T08:50:24Z</time>
      </trkpt>
      <trkpt lat="45.47966" lon="5.30984">
        <ele>580.2</ele>
        <time>2023-08-29T08:50:25Z</time>
      </trkpt>
      <trkpt lat="45.4797" lon="5.30972">
        <ele>580.2</ele>
        <time>2023-08-29T08:50:26Z</time>
      </trkpt>
      <trkpt lat="45.47974" lon="5.3096">
        <ele>579</ele>
        <time>2023-08-29T08:50:27Z</time>
      </trkpt>
      <trkpt lat="45.47977" lon="5.30948">
        <ele>577.8</ele>
        <time>2023-08-29T08:50:28Z</time>
      </trkpt>
      <trkpt lat="45.47981" lon="5.30935">
        <ele>576.8</ele>
        <time>2023-08-29T08:50:29Z</time>
      </trkpt>
      <trkpt lat="45.47984" lon="5.30923">
        <ele>575.2</ele>
        <time>2023-08-29T08:50:30Z</time>
      </trkpt>
      <trkpt lat="45.47987" lon="5.30911">
        <ele>574.6</ele>
        <time>2023-08-29T08:50:31Z</time>
      </trkpt>
      <trkpt lat="45.47989" lon="5.309">
        <ele>574.4</ele>
        <time>2023-08-29T08:50:32Z</time>
      </trkpt>
      <trkpt lat="45.47992" lon="5.30889">
        <ele>574.4</ele>
        <time>2023-08-29T08:50:33Z</time>
      </trkpt>
      <trkpt lat="45.47994" lon="5.30878">
        <ele>574.4</ele>
        <time>2023-08-29T08:50:34Z</time>
      </trkpt>
      <trkpt lat="45.47996" lon="5.30867">
        <ele>574.2</ele>
        <time>2023-08-29T08:50:35Z</time>
      </trkpt>
      <trkpt lat="45.47999" lon="5.30855">
        <ele>574.2</ele>
        <time>2023-08-29T08:50:36Z</time>
      </trkpt>
      <trkpt lat="45.48002" lon="5.30843">
        <ele>574</ele>
        <time>2023-08-29T08:50:37Z</time>
      </trkpt>
      <trkpt lat="45.48004" lon="5.30832">
        <ele>574</ele>
        <time>2023-08-29T08:50:38Z</time>
      </trkpt>
      <trkpt lat="45.48006" lon="5.3082">
        <ele>573.6</ele>
        <time>2023-08-29T08:50:39Z</time>
      </trkpt>
      <trkpt lat="45.48008" lon="5.30809">
        <ele>573</ele>
        <time>2023-08-29T08:50:40Z</time>
      </trkpt>
      <trkpt lat="45.4801" lon="5.30797">
        <ele>573</ele>
        <time>2023-08-29T08:50:41Z</time>
      </trkpt>
      <trkpt lat="45.48013" lon="5.30785">
        <ele>571.8</ele>
        <time>2023-08-29T08:50:42Z</time>
      </trkpt>
      <trkpt lat="45.48015" lon="5.30774">
        <ele>571.2</ele>
        <time>2023-08-29T08:50:43Z</time>
      </trkpt>
      <trkpt lat="45.48018" lon="5.30764">
        <ele>571.2</ele>
        <time>2023-08-29T08:50:44Z</time>
      </trkpt>
      <trkpt lat="45.48022" lon="5.30753">
        <ele>571.2</ele>
        <time>2023-08-29T08:50:45Z</time>
      </trkpt>
      <trkpt lat="45.48026" lon="5.30743">
        <ele>571.2</ele>
        <time>2023-08-29T08:50:46Z</time>
      </trkpt>
      <trkpt lat="45.4803" lon="5.30734">
        <ele>571.2</ele>
        <time>2023-08-29T08:50:47Z</time>
      </trkpt>
      <trkpt lat="45.48035" lon="5.30726">
        <ele>571.2</ele>
        <time>2023-08-29T08:50:48Z</time>
      </trkpt>
      <trkpt lat="45.48041" lon="5.30718">
        <ele>571.2</ele>
        <time>2023-08-29T08:50:49Z</time>
      </trkpt>
      <trkpt lat="45.48047" lon="5.30712">
        <ele>571.2</ele>
        <time>2023-08-29T08:50:50Z</time>
      </trkpt>
      <trkpt lat="45.48054" lon="5.30706">
        <ele>571</ele>
        <time>2023-08-29T08:50:51Z</time>
      </trkpt>
      <trkpt lat="45.48061" lon="5.30701">
        <ele>571</ele>
        <time>2023-08-29T08:50:52Z</time>
      </trkpt>
      <trkpt lat="45.48069" lon="5.30697">
        <ele>571</ele>
        <time>2023-08-29T08:50:53Z</time>
      </trkpt>
      <trkpt lat="45.48076" lon="5.30693">
        <ele>571</ele>
        <time>2023-08-29T08:50:54Z</time>
      </trkpt>
      <trkpt lat="45.48083" lon="5.30691">
        <ele>571</ele>
        <time>2023-08-29T08:50:55Z</time>
      </trkpt>
      <trkpt lat="45.4809" lon="5.3069">
        <ele>571.4</ele>
        <time>2023-08-29T08:50:56Z</time>
      </trkpt>
      <trkpt lat="45.48097" lon="5.3069">
        <ele>571.6</ele>
        <time>2023-08-29T08:50:57Z</time>
      </trkpt>
      <trkpt lat="45.48104" lon="5.30691">
        <ele>571.6</ele>
        <time>2023-08-29T08:50:58Z</time>
      </trkpt>
      <trkpt lat="45.4811" lon="5.30692">
        <ele>571.8</ele>
        <time>2023-08-29T08:50:59Z</time>
      </trkpt>
      <trkpt lat="45.48118" lon="5.30693">
        <ele>571.8</ele>
        <time>2023-08-29T08:51:00Z</time>
      </trkpt>
      <trkpt lat="45.48125" lon="5.30694">
        <ele>571.8</ele>
        <time>2023-08-29T08:51:01Z</time>
      </trkpt>
      <trkpt lat="45.48133" lon="5.30695">
        <ele>571.8</ele>
        <time>2023-08-29T08:51:02Z</time>
      </trkpt>
      <trkpt lat="45.48141" lon="5.30694">
        <ele>571.8</ele>
        <time>2023-08-29T08:51:03Z</time>
      </trkpt>
      <trkpt lat="45.4815" lon="5.30692">
        <ele>571</ele>
        <time>2023-08-29T08:51:04Z</time>
      </trkpt>
      <trkpt lat="45.48158" lon="5.30689">
        <ele>569.6</ele>
        <time>2023-08-29T08:51:05Z</time>
      </trkpt>
      <trkpt lat="45.48166" lon="5.30684">
        <ele>569</ele>
        <time>2023-08-29T08:51:06Z</time>
      </trkpt>
      <trkpt lat="45.48174" lon="5.3068">
        <ele>568.4</ele>
        <time>2023-08-29T08:51:07Z</time>
      </trkpt>
      <trkpt lat="45.48182" lon="5.30676">
        <ele>568.4</ele>
        <time>2023-08-29T08:51:08Z</time>
      </trkpt>
      <trkpt lat="45.4819" lon="5.30672">
        <ele>568.2</ele>
        <time>2023-08-29T08:51:09Z</time>
      </trkpt>
      <trkpt lat="45.48196" lon="5.30667">
        <ele>567.8</ele>
        <time>2023-08-29T08:51:10Z</time>
      </trkpt>
      <trkpt lat="45.48203" lon="5.30662">
        <ele>567.8</ele>
        <time>2023-08-29T08:51:11Z</time>
      </trkpt>
      <trkpt lat="45.4821" lon="5.30656">
        <ele>567.8</ele>
        <time>2023-08-29T08:51:12Z</time>
      </trkpt>
      <trkpt lat="45.48216" lon="5.3065">
        <ele>567.8</ele>
        <time>2023-08-29T08:51:13Z</time>
      </trkpt>
      <trkpt lat="45.48221" lon="5.30643">
        <ele>567.8</ele>
        <time>2023-08-29T08:51:14Z</time>
      </trkpt>
      <trkpt lat="45.48227" lon="5.30636">
        <ele>567.8</ele>
        <time>2023-08-29T08:51:15Z</time>
      </trkpt>
      <trkpt lat="45.48232" lon="5.30629">
        <ele>567.8</ele>
        <time>2023-08-29T08:51:16Z</time>
      </trkpt>
      <trkpt lat="45.48238" lon="5.30622">
        <ele>568</ele>
        <time>2023-08-29T08:51:17Z</time>
      </trkpt>
      <trkpt lat="45.48244" lon="5.30615">
        <ele>568.2</ele>
        <time>2023-08-29T08:51:18Z</time>
      </trkpt>
      <trkpt lat="45.48249" lon="5.30608">
        <ele>568.2</ele>
        <time>2023-08-29T08:51:19Z</time>
      </trkpt>
      <trkpt lat="45.48254" lon="5.30603">
        <ele>568.2</ele>
        <time>2023-08-29T08:51:20Z</time>
      </trkpt>
      <trkpt lat="45.4826" lon="5.30597">
        <ele>568.4</ele>
        <time>2023-08-29T08:51:21Z</time>
      </trkpt>
      <trkpt lat="45.48265" lon="5.30593">
        <ele>568.4</ele>
        <time>2023-08-29T08:51:22Z</time>
      </trkpt>
      <trkpt lat="45.48271" lon="5.30589">
        <ele>568.6</ele>
        <time>2023-08-29T08:51:23Z</time>
      </trkpt>
      <trkpt lat="45.48276" lon="5.30585">
        <ele>568.8</ele>
        <time>2023-08-29T08:51:24Z</time>
      </trkpt>
      <trkpt lat="45.48282" lon="5.30581">
        <ele>568.8</ele>
        <time>2023-08-29T08:51:25Z</time>
      </trkpt>
      <trkpt lat="45.48287" lon="5.30576">
        <ele>569</ele>
        <time>2023-08-29T08:51:26Z</time>
      </trkpt>
      <trkpt lat="45.48292" lon="5.30571">
        <ele>569</ele>
        <time>2023-08-29T08:51:27Z</time>
      </trkpt>
      <trkpt lat="45.48298" lon="5.30565">
        <ele>569</ele>
        <time>2023-08-29T08:51:28Z</time>
      </trkpt>
      <trkpt lat="45.48303" lon="5.30558">
        <ele>569</ele>
        <time>2023-08-29T08:51:29Z</time>
      </trkpt>
      <trkpt lat="45.48308" lon="5.30551">
        <ele>569</ele>
        <time>2023-08-29T08:51:30Z</time>
      </trkpt>
      <trkpt lat="45.48313" lon="5.30543">
        <ele>569</ele>
        <time>2023-08-29T08:51:31Z</time>
      </trkpt>
      <trkpt lat="45.48318" lon="5.30534">
        <ele>568.8</ele>
        <time>2023-08-29T08:51:32Z</time>
      </trkpt>
      <trkpt lat="45.48323" lon="5.30525">
        <ele>568.6</ele>
        <time>2023-08-29T08:51:33Z</time>
      </trkpt>
      <trkpt lat="45.48329" lon="5.30517">
        <ele>568.2</ele>
        <time>2023-08-29T08:51:34Z</time>
      </trkpt>
      <trkpt lat="45.48334" lon="5.3051">
        <ele>568.2</ele>
        <time>2023-08-29T08:51:35Z</time>
      </trkpt>
      <trkpt lat="45.4834" lon="5.30503">
        <ele>567.6</ele>
        <time>2023-08-29T08:51:36Z</time>
      </trkpt>
      <trkpt lat="45.48347" lon="5.30496">
        <ele>567.2</ele>
        <time>2023-08-29T08:51:37Z</time>
      </trkpt>
      <trkpt lat="45.48354" lon="5.30491">
        <ele>566.4</ele>
        <time>2023-08-29T08:51:38Z</time>
      </trkpt>
      <trkpt lat="45.48361" lon="5.30488">
        <ele>565.6</ele>
        <time>2023-08-29T08:51:39Z</time>
      </trkpt>
      <trkpt lat="45.48369" lon="5.30486">
        <ele>564.6</ele>
        <time>2023-08-29T08:51:40Z</time>
      </trkpt>
      <trkpt lat="45.48376" lon="5.30485">
        <ele>564.6</ele>
        <time>2023-08-29T08:51:41Z</time>
      </trkpt>
      <trkpt lat="45.48383" lon="5.30485">
        <ele>564.6</ele>
        <time>2023-08-29T08:51:42Z</time>
      </trkpt>
      <trkpt lat="45.4839" lon="5.30485">
        <ele>564.6</ele>
        <time>2023-08-29T08:51:43Z</time>
      </trkpt>
      <trkpt lat="45.48397" lon="5.30485">
        <ele>564.6</ele>
        <time>2023-08-29T08:51:44Z</time>
      </trkpt>
      <trkpt lat="45.48404" lon="5.30485">
        <ele>565</ele>
        <time>2023-08-29T08:51:45Z</time>
      </trkpt>
      <trkpt lat="45.4841" lon="5.30485">
        <ele>565</ele>
        <time>2023-08-29T08:51:46Z</time>
      </trkpt>
      <trkpt lat="45.48416" lon="5.30485">
        <ele>565</ele>
        <time>2023-08-29T08:51:47Z</time>
      </trkpt>
      <trkpt lat="45.48423" lon="5.30485">
        <ele>565</ele>
        <time>2023-08-29T08:51:48Z</time>
      </trkpt>
      <trkpt lat="45.48429" lon="5.30485">
        <ele>565</ele>
        <time>2023-08-29T08:51:49Z</time>
      </trkpt>
      <trkpt lat="45.48436" lon="5.30486">
        <ele>564.8</ele>
        <time>2023-08-29T08:51:50Z</time>
      </trkpt>
      <trkpt lat="45.48444" lon="5.30487">
        <ele>564.2</ele>
        <time>2023-08-29T08:51:51Z</time>
      </trkpt>
      <trkpt lat="45.48452" lon="5.30489">
        <ele>563.2</ele>
        <time>2023-08-29T08:51:52Z</time>
      </trkpt>
      <trkpt lat="45.48461" lon="5.30491">
        <ele>562.6</ele>
        <time>2023-08-29T08:51:53Z</time>
      </trkpt>
      <trkpt lat="45.4847" lon="5.30494">
        <ele>562.6</ele>
        <time>2023-08-29T08:51:54Z</time>
      </trkpt>
      <trkpt lat="45.48479" lon="5.30497">
        <ele>561.8</ele>
        <time>2023-08-29T08:51:55Z</time>
      </trkpt>
      <trkpt lat="45.48488" lon="5.305">
        <ele>561.2</ele>
        <time>2023-08-29T08:51:56Z</time>
      </trkpt>
      <trkpt lat="45.48497" lon="5.30504">
        <ele>560.8</ele>
        <time>2023-08-29T08:51:57Z</time>
      </trkpt>
      <trkpt lat="45.48506" lon="5.30507">
        <ele>560.6</ele>
        <time>2023-08-29T08:51:58Z</time>
      </trkpt>
      <trkpt lat="45.48515" lon="5.3051">
        <ele>560</ele>
        <time>2023-08-29T08:51:59Z</time>
      </trkpt>
      <trkpt lat="45.48524" lon="5.30513">
        <ele>559.8</ele>
        <time>2023-08-29T08:52:00Z</time>
      </trkpt>
      <trkpt lat="45.48531" lon="5.30516">
        <ele>559.6</ele>
        <time>2023-08-29T08:52:01Z</time>
      </trkpt>
      <trkpt lat="45.48539" lon="5.30519">
        <ele>559.6</ele>
        <time>2023-08-29T08:52:02Z</time>
      </trkpt>
      <trkpt lat="45.48546" lon="5.30522">
        <ele>559.6</ele>
        <time>2023-08-29T08:52:03Z</time>
      </trkpt>
      <trkpt lat="45.48554" lon="5.30523">
        <ele>559.4</ele>
        <time>2023-08-29T08:52:04Z</time>
      </trkpt>
      <trkpt lat="45.48561" lon="5.30524">
        <ele>559.2</ele>
        <time>2023-08-29T08:52:05Z</time>
      </trkpt>
      <trkpt lat="45.48568" lon="5.30522">
        <ele>559</ele>
        <time>2023-08-29T08:52:06Z</time>
      </trkpt>
      <trkpt lat="45.48575" lon="5.30521">
        <ele>559</ele>
        <time>2023-08-29T08:52:07Z</time>
      </trkpt>
      <trkpt lat="45.48582" lon="5.3052">
        <ele>559</ele>
        <time>2023-08-29T08:52:08Z</time>
      </trkpt>
      <trkpt lat="45.48589" lon="5.30517">
        <ele>559</ele>
        <time>2023-08-29T08:52:09Z</time>
      </trkpt>
      <trkpt lat="45.48596" lon="5.30514">
        <ele>559</ele>
        <time>2023-08-29T08:52:10Z</time>
      </trkpt>
      <trkpt lat="45.48603" lon="5.3051">
        <ele>558.8</ele>
        <time>2023-08-29T08:52:11Z</time>
      </trkpt>
      <trkpt lat="45.48611" lon="5.30505">
        <ele>558.6</ele>
        <time>2023-08-29T08:52:12Z</time>
      </trkpt>
      <trkpt lat="45.48619" lon="5.305">
        <ele>558.4</ele>
        <time>2023-08-29T08:52:13Z</time>
      </trkpt>
      <trkpt lat="45.48627" lon="5.30495">
        <ele>557.6</ele>
        <time>2023-08-29T08:52:14Z</time>
      </trkpt>
      <trkpt lat="45.48637" lon="5.30488">
        <ele>557</ele>
        <time>2023-08-29T08:52:15Z</time>
      </trkpt>
      <trkpt lat="45.48646" lon="5.30482">
        <ele>556.4</ele>
        <time>2023-08-29T08:52:16Z</time>
      </trkpt>
      <trkpt lat="45.48655" lon="5.30476">
        <ele>555.4</ele>
        <time>2023-08-29T08:52:17Z</time>
      </trkpt>
      <trkpt lat="45.48665" lon="5.3047">
        <ele>553.4</ele>
        <time>2023-08-29T08:52:18Z</time>
      </trkpt>
      <trkpt lat="45.48674" lon="5.30464">
        <ele>551.8</ele>
        <time>2023-08-29T08:52:19Z</time>
      </trkpt>
      <trkpt lat="45.48684" lon="5.3046">
        <ele>551.4</ele>
        <time>2023-08-29T08:52:20Z</time>
      </trkpt>
      <trkpt lat="45.48692" lon="5.30458">
        <ele>550.6</ele>
        <time>2023-08-29T08:52:21Z</time>
      </trkpt>
      <trkpt lat="45.48701" lon="5.30457">
        <ele>550</ele>
        <time>2023-08-29T08:52:22Z</time>
      </trkpt>
      <trkpt lat="45.4871" lon="5.30459">
        <ele>549.6</ele>
        <time>2023-08-29T08:52:23Z</time>
      </trkpt>
      <trkpt lat="45.48719" lon="5.30461">
        <ele>549.6</ele>
        <time>2023-08-29T08:52:24Z</time>
      </trkpt>
      <trkpt lat="45.48726" lon="5.30464">
        <ele>549.4</ele>
        <time>2023-08-29T08:52:25Z</time>
      </trkpt>
      <trkpt lat="45.48734" lon="5.30468">
        <ele>549.4</ele>
        <time>2023-08-29T08:52:26Z</time>
      </trkpt>
      <trkpt lat="45.48741" lon="5.30472">
        <ele>548.8</ele>
        <time>2023-08-29T08:52:27Z</time>
      </trkpt>
      <trkpt lat="45.48749" lon="5.30477">
        <ele>548.4</ele>
        <time>2023-08-29T08:52:28Z</time>
      </trkpt>
      <trkpt lat="45.48756" lon="5.3048">
        <ele>548.4</ele>
        <time>2023-08-29T08:52:29Z</time>
      </trkpt>
      <trkpt lat="45.48763" lon="5.30482">
        <ele>548.4</ele>
        <time>2023-08-29T08:52:30Z</time>
      </trkpt>
      <trkpt lat="45.48771" lon="5.30482">
        <ele>548.4</ele>
        <time>2023-08-29T08:52:31Z</time>
      </trkpt>
      <trkpt lat="45.48778" lon="5.30482">
        <ele>548.4</ele>
        <time>2023-08-29T08:52:32Z</time>
      </trkpt>
      <trkpt lat="45.48785" lon="5.3048">
        <ele>548.4</ele>
        <time>2023-08-29T08:52:33Z</time>
      </trkpt>
      <trkpt lat="45.48792" lon="5.30478">
        <ele>548.2</ele>
        <time>2023-08-29T08:52:34Z</time>
      </trkpt>
      <trkpt lat="45.488" lon="5.30476">
        <ele>548</ele>
        <time>2023-08-29T08:52:35Z</time>
      </trkpt>
      <trkpt lat="45.48807" lon="5.30474">
        <ele>547.8</ele>
        <time>2023-08-29T08:52:36Z</time>
      </trkpt>
      <trkpt lat="45.48814" lon="5.3047">
        <ele>547.8</ele>
        <time>2023-08-29T08:52:37Z</time>
      </trkpt>
      <trkpt lat="45.48821" lon="5.30467">
        <ele>547.8</ele>
        <time>2023-08-29T08:52:38Z</time>
      </trkpt>
      <trkpt lat="45.48827" lon="5.30462">
        <ele>547.8</ele>
        <time>2023-08-29T08:52:39Z</time>
      </trkpt>
      <trkpt lat="45.48834" lon="5.30456">
        <ele>547.8</ele>
        <time>2023-08-29T08:52:40Z</time>
      </trkpt>
      <trkpt lat="45.4884" lon="5.3045">
        <ele>548</ele>
        <time>2023-08-29T08:52:41Z</time>
      </trkpt>
      <trkpt lat="45.48845" lon="5.30442">
        <ele>548</ele>
        <time>2023-08-29T08:52:42Z</time>
      </trkpt>
      <trkpt lat="45.4885" lon="5.30433">
        <ele>548</ele>
        <time>2023-08-29T08:52:43Z</time>
      </trkpt>
      <trkpt lat="45.48854" lon="5.30424">
        <ele>548.2</ele>
        <time>2023-08-29T08:52:44Z</time>
      </trkpt>
      <trkpt lat="45.48857" lon="5.30414">
        <ele>548.2</ele>
        <time>2023-08-29T08:52:45Z</time>
      </trkpt>
      <trkpt lat="45.4886" lon="5.30403">
        <ele>548</ele>
        <time>2023-08-29T08:52:46Z</time>
      </trkpt>
      <trkpt lat="45.48862" lon="5.30392">
        <ele>548</ele>
        <time>2023-08-29T08:52:47Z</time>
      </trkpt>
      <trkpt lat="45.48865" lon="5.3038">
        <ele>548</ele>
        <time>2023-08-29T08:52:48Z</time>
      </trkpt>
      <trkpt lat="45.48868" lon="5.30369">
        <ele>548</ele>
        <time>2023-08-29T08:52:49Z</time>
      </trkpt>
      <trkpt lat="45.48872" lon="5.30357">
        <ele>547.8</ele>
        <time>2023-08-29T08:52:50Z</time>
      </trkpt>
      <trkpt lat="45.48877" lon="5.30347">
        <ele>547.8</ele>
        <time>2023-08-29T08:52:51Z</time>
      </trkpt>
      <trkpt lat="45.48881" lon="5.30335">
        <ele>547.6</ele>
        <time>2023-08-29T08:52:52Z</time>
      </trkpt>
      <trkpt lat="45.48885" lon="5.30323">
        <ele>546.8</ele>
        <time>2023-08-29T08:52:53Z</time>
      </trkpt>
      <trkpt lat="45.48889" lon="5.30313">
        <ele>546.4</ele>
        <time>2023-08-29T08:52:54Z</time>
      </trkpt>
      <trkpt lat="45.48893" lon="5.30301">
        <ele>546.2</ele>
        <time>2023-08-29T08:52:55Z</time>
      </trkpt>
      <trkpt lat="45.48897" lon="5.3029">
        <ele>545.8</ele>
        <time>2023-08-29T08:52:56Z</time>
      </trkpt>
      <trkpt lat="45.489" lon="5.30278">
        <ele>545.8</ele>
        <time>2023-08-29T08:52:57Z</time>
      </trkpt>
      <trkpt lat="45.48904" lon="5.30267">
        <ele>545.2</ele>
        <time>2023-08-29T08:52:58Z</time>
      </trkpt>
      <trkpt lat="45.48907" lon="5.30257">
        <ele>545</ele>
        <time>2023-08-29T08:52:59Z</time>
      </trkpt>
      <trkpt lat="45.4891" lon="5.30247">
        <ele>545</ele>
        <time>2023-08-29T08:53:00Z</time>
      </trkpt>
      <trkpt lat="45.48915" lon="5.30237">
        <ele>545</ele>
        <time>2023-08-29T08:53:01Z</time>
      </trkpt>
      <trkpt lat="45.48919" lon="5.30229">
        <ele>545</ele>
        <time>2023-08-29T08:53:02Z</time>
      </trkpt>
      <trkpt lat="45.48924" lon="5.30221">
        <ele>545</ele>
        <time>2023-08-29T08:53:03Z</time>
      </trkpt>
      <trkpt lat="45.4893" lon="5.30213">
        <ele>545</ele>
        <time>2023-08-29T08:53:04Z</time>
      </trkpt>
      <trkpt lat="45.48935" lon="5.30206">
        <ele>545.6</ele>
        <time>2023-08-29T08:53:05Z</time>
      </trkpt>
      <trkpt lat="45.4894" lon="5.30198">
        <ele>545.6</ele>
        <time>2023-08-29T08:53:06Z</time>
      </trkpt>
      <trkpt lat="45.48945" lon="5.30191">
        <ele>546</ele>
        <time>2023-08-29T08:53:07Z</time>
      </trkpt>
      <trkpt lat="45.4895" lon="5.30185">
        <ele>546</ele>
        <time>2023-08-29T08:53:08Z</time>
      </trkpt>
      <trkpt lat="45.48956" lon="5.30178">
        <ele>546</ele>
        <time>2023-08-29T08:53:09Z</time>
      </trkpt>
      <trkpt lat="45.48962" lon="5.30171">
        <ele>546</ele>
        <time>2023-08-29T08:53:10Z</time>
      </trkpt>
      <trkpt lat="45.48968" lon="5.30165">
        <ele>545.8</ele>
        <time>2023-08-29T08:53:11Z</time>
      </trkpt>
      <trkpt lat="45.48975" lon="5.30159">
        <ele>545.4</ele>
        <time>2023-08-29T08:53:12Z</time>
      </trkpt>
      <trkpt lat="45.48982" lon="5.30154">
        <ele>545</ele>
        <time>2023-08-29T08:53:13Z</time>
      </trkpt>
      <trkpt lat="45.48989" lon="5.30151">
        <ele>544.6</ele>
        <time>2023-08-29T08:53:14Z</time>
      </trkpt>
      <trkpt lat="45.48995" lon="5.30148">
        <ele>544</ele>
        <time>2023-08-29T08:53:15Z</time>
      </trkpt>
      <trkpt lat="45.49003" lon="5.30146">
        <ele>543.4</ele>
        <time>2023-08-29T08:53:16Z</time>
      </trkpt>
      <trkpt lat="45.4901" lon="5.30145">
        <ele>542.6</ele>
        <time>2023-08-29T08:53:17Z</time>
      </trkpt>
      <trkpt lat="45.49019" lon="5.30144">
        <ele>541.8</ele>
        <time>2023-08-29T08:53:18Z</time>
      </trkpt>
      <trkpt lat="45.49027" lon="5.30143">
        <ele>541</ele>
        <time>2023-08-29T08:53:19Z</time>
      </trkpt>
      <trkpt lat="45.49035" lon="5.30142">
        <ele>539.4</ele>
        <time>2023-08-29T08:53:20Z</time>
      </trkpt>
      <trkpt lat="45.49044" lon="5.30139">
        <ele>538</ele>
        <time>2023-08-29T08:53:21Z</time>
      </trkpt>
      <trkpt lat="45.49052" lon="5.30134">
        <ele>537</ele>
        <time>2023-08-29T08:53:22Z</time>
      </trkpt>
      <trkpt lat="45.49059" lon="5.30128">
        <ele>536</ele>
        <time>2023-08-29T08:53:23Z</time>
      </trkpt>
      <trkpt lat="45.49067" lon="5.30119">
        <ele>535.6</ele>
        <time>2023-08-29T08:53:24Z</time>
      </trkpt>
      <trkpt lat="45.49074" lon="5.3011">
        <ele>534.2</ele>
        <time>2023-08-29T08:53:25Z</time>
      </trkpt>
      <trkpt lat="45.49081" lon="5.30101">
        <ele>533.8</ele>
        <time>2023-08-29T08:53:26Z</time>
      </trkpt>
      <trkpt lat="45.49089" lon="5.30094">
        <ele>532.6</ele>
        <time>2023-08-29T08:53:27Z</time>
      </trkpt>
      <trkpt lat="45.49099" lon="5.30087">
        <ele>532.2</ele>
        <time>2023-08-29T08:53:28Z</time>
      </trkpt>
      <trkpt lat="45.49107" lon="5.3008">
        <ele>531.2</ele>
        <time>2023-08-29T08:53:29Z</time>
      </trkpt>
      <trkpt lat="45.49116" lon="5.30072">
        <ele>530.4</ele>
        <time>2023-08-29T08:53:30Z</time>
      </trkpt>
      <trkpt lat="45.49123" lon="5.30064">
        <ele>529.6</ele>
        <time>2023-08-29T08:53:31Z</time>
      </trkpt>
      <trkpt lat="45.49131" lon="5.30056">
        <ele>529.2</ele>
        <time>2023-08-29T08:53:32Z</time>
      </trkpt>
      <trkpt lat="45.49138" lon="5.30047">
        <ele>529.2</ele>
        <time>2023-08-29T08:53:33Z</time>
      </trkpt>
      <trkpt lat="45.49144" lon="5.30038">
        <ele>528.8</ele>
        <time>2023-08-29T08:53:34Z</time>
      </trkpt>
      <trkpt lat="45.49151" lon="5.30029">
        <ele>528.6</ele>
        <time>2023-08-29T08:53:35Z</time>
      </trkpt>
      <trkpt lat="45.49157" lon="5.30021">
        <ele>528.4</ele>
        <time>2023-08-29T08:53:36Z</time>
      </trkpt>
      <trkpt lat="45.49164" lon="5.30013">
        <ele>528.4</ele>
        <time>2023-08-29T08:53:37Z</time>
      </trkpt>
      <trkpt lat="45.49171" lon="5.30006">
        <ele>528</ele>
        <time>2023-08-29T08:53:38Z</time>
      </trkpt>
      <trkpt lat="45.49177" lon="5.3">
        <ele>528</ele>
        <time>2023-08-29T08:53:39Z</time>
      </trkpt>
      <trkpt lat="45.49184" lon="5.29994">
        <ele>527.8</ele>
        <time>2023-08-29T08:53:40Z</time>
      </trkpt>
      <trkpt lat="45.49191" lon="5.29988">
        <ele>527.8</ele>
        <time>2023-08-29T08:53:41Z</time>
      </trkpt>
      <trkpt lat="45.49198" lon="5.29983">
        <ele>527.8</ele>
        <time>2023-08-29T08:53:42Z</time>
      </trkpt>
      <trkpt lat="45.49205" lon="5.29979">
        <ele>527.8</ele>
        <time>2023-08-29T08:53:43Z</time>
      </trkpt>
      <trkpt lat="45.49213" lon="5.29976">
        <ele>527.8</ele>
        <time>2023-08-29T08:53:44Z</time>
      </trkpt>
      <trkpt lat="45.4922" lon="5.29973">
        <ele>528</ele>
        <time>2023-08-29T08:53:45Z</time>
      </trkpt>
      <trkpt lat="45.49227" lon="5.29973">
        <ele>528</ele>
        <time>2023-08-29T08:53:46Z</time>
      </trkpt>
      <trkpt lat="45.49234" lon="5.29973">
        <ele>527.8</ele>
        <time>2023-08-29T08:53:47Z</time>
      </trkpt>
      <trkpt lat="45.49241" lon="5.29974">
        <ele>527.6</ele>
        <time>2023-08-29T08:53:48Z</time>
      </trkpt>
      <trkpt lat="45.49249" lon="5.29977">
        <ele>527.8</ele>
        <time>2023-08-29T08:53:49Z</time>
      </trkpt>
      <trkpt lat="45.49256" lon="5.29982">
        <ele>527.6</ele>
        <time>2023-08-29T08:53:50Z</time>
      </trkpt>
      <trkpt lat="45.49263" lon="5.29986">
        <ele>527.6</ele>
        <time>2023-08-29T08:53:51Z</time>
      </trkpt>
      <trkpt lat="45.4927" lon="5.29991">
        <ele>527.6</ele>
        <time>2023-08-29T08:53:52Z</time>
      </trkpt>
      <trkpt lat="45.49278" lon="5.29996">
        <ele>527.6</ele>
        <time>2023-08-29T08:53:53Z</time>
      </trkpt>
      <trkpt lat="45.49285" lon="5.30001">
        <ele>527.6</ele>
        <time>2023-08-29T08:53:54Z</time>
      </trkpt>
      <trkpt lat="45.49292" lon="5.30007">
        <ele>526.8</ele>
        <time>2023-08-29T08:53:55Z</time>
      </trkpt>
      <trkpt lat="45.49298" lon="5.30012">
        <ele>525.6</ele>
        <time>2023-08-29T08:53:56Z</time>
      </trkpt>
      <trkpt lat="45.49304" lon="5.30016">
        <ele>525.4</ele>
        <time>2023-08-29T08:53:57Z</time>
      </trkpt>
      <trkpt lat="45.49311" lon="5.30019">
        <ele>525.2</ele>
        <time>2023-08-29T08:53:58Z</time>
      </trkpt>
      <trkpt lat="45.49319" lon="5.30022">
        <ele>525.2</ele>
        <time>2023-08-29T08:53:59Z</time>
      </trkpt>
      <trkpt lat="45.49326" lon="5.30023">
        <ele>525.2</ele>
        <time>2023-08-29T08:54:00Z</time>
      </trkpt>
      <trkpt lat="45.49333" lon="5.30023">
        <ele>525.2</ele>
        <time>2023-08-29T08:54:01Z</time>
      </trkpt>
      <trkpt lat="45.49341" lon="5.30023">
        <ele>525.6</ele>
        <time>2023-08-29T08:54:02Z</time>
      </trkpt>
      <trkpt lat="45.49349" lon="5.30022">
        <ele>525.6</ele>
        <time>2023-08-29T08:54:03Z</time>
      </trkpt>
      <trkpt lat="45.49357" lon="5.3002">
        <ele>525.6</ele>
        <time>2023-08-29T08:54:04Z</time>
      </trkpt>
      <trkpt lat="45.49365" lon="5.30018">
        <ele>525.6</ele>
        <time>2023-08-29T08:54:05Z</time>
      </trkpt>
      <trkpt lat="45.49372" lon="5.30016">
        <ele>525.4</ele>
        <time>2023-08-29T08:54:06Z</time>
      </trkpt>
      <trkpt lat="45.4938" lon="5.30014">
        <ele>525.2</ele>
        <time>2023-08-29T08:54:07Z</time>
      </trkpt>
      <trkpt lat="45.49387" lon="5.30012">
        <ele>525</ele>
        <time>2023-08-29T08:54:08Z</time>
      </trkpt>
      <trkpt lat="45.49395" lon="5.30011">
        <ele>524.8</ele>
        <time>2023-08-29T08:54:09Z</time>
      </trkpt>
      <trkpt lat="45.49403" lon="5.3001">
        <ele>524</ele>
        <time>2023-08-29T08:54:10Z</time>
      </trkpt>
      <trkpt lat="45.49411" lon="5.3001">
        <ele>524</ele>
        <time>2023-08-29T08:54:11Z</time>
      </trkpt>
      <trkpt lat="45.49419" lon="5.3001">
        <ele>523.8</ele>
        <time>2023-08-29T08:54:12Z</time>
      </trkpt>
      <trkpt lat="45.49427" lon="5.30012">
        <ele>523.8</ele>
        <time>2023-08-29T08:54:13Z</time>
      </trkpt>
      <trkpt lat="45.49434" lon="5.30015">
        <ele>523.2</ele>
        <time>2023-08-29T08:54:14Z</time>
      </trkpt>
      <trkpt lat="45.49442" lon="5.30019">
        <ele>522.6</ele>
        <time>2023-08-29T08:54:15Z</time>
      </trkpt>
      <trkpt lat="45.49449" lon="5.30022">
        <ele>522.2</ele>
        <time>2023-08-29T08:54:16Z</time>
      </trkpt>
      <trkpt lat="45.49456" lon="5.30023">
        <ele>521.4</ele>
        <time>2023-08-29T08:54:17Z</time>
      </trkpt>
      <trkpt lat="45.49464" lon="5.30024">
        <ele>521.2</ele>
        <time>2023-08-29T08:54:18Z</time>
      </trkpt>
      <trkpt lat="45.49472" lon="5.30023">
        <ele>521.2</ele>
        <time>2023-08-29T08:54:19Z</time>
      </trkpt>
      <trkpt lat="45.4948" lon="5.30021">
        <ele>521.2</ele>
        <time>2023-08-29T08:54:20Z</time>
      </trkpt>
      <trkpt lat="45.49488" lon="5.30018">
        <ele>520.8</ele>
        <time>2023-08-29T08:54:21Z</time>
      </trkpt>
      <trkpt lat="45.49495" lon="5.30015">
        <ele>520.8</ele>
        <time>2023-08-29T08:54:22Z</time>
      </trkpt>
      <trkpt lat="45.49502" lon="5.30013">
        <ele>520.8</ele>
        <time>2023-08-29T08:54:23Z</time>
      </trkpt>
      <trkpt lat="45.49509" lon="5.30011">
        <ele>520.8</ele>
        <time>2023-08-29T08:54:24Z</time>
      </trkpt>
      <trkpt lat="45.49517" lon="5.30008">
        <ele>520.8</ele>
        <time>2023-08-29T08:54:25Z</time>
      </trkpt>
      <trkpt lat="45.49524" lon="5.30006">
        <ele>520.2</ele>
        <time>2023-08-29T08:54:26Z</time>
      </trkpt>
      <trkpt lat="45.49531" lon="5.30005">
        <ele>520</ele>
        <time>2023-08-29T08:54:27Z</time>
      </trkpt>
      <trkpt lat="45.49538" lon="5.30006">
        <ele>519.8</ele>
        <time>2023-08-29T08:54:28Z</time>
      </trkpt>
      <trkpt lat="45.49545" lon="5.30006">
        <ele>519.2</ele>
        <time>2023-08-29T08:54:29Z</time>
      </trkpt>
      <trkpt lat="45.49552" lon="5.30006">
        <ele>519.2</ele>
        <time>2023-08-29T08:54:30Z</time>
      </trkpt>
      <trkpt lat="45.49559" lon="5.30007">
        <ele>519.2</ele>
        <time>2023-08-29T08:54:31Z</time>
      </trkpt>
      <trkpt lat="45.49565" lon="5.30007">
        <ele>519.2</ele>
        <time>2023-08-29T08:54:32Z</time>
      </trkpt>
      <trkpt lat="45.49572" lon="5.30008">
        <ele>519.2</ele>
        <time>2023-08-29T08:54:33Z</time>
      </trkpt>
      <trkpt lat="45.49578" lon="5.30008">
        <ele>519</ele>
        <time>2023-08-29T08:54:34Z</time>
      </trkpt>
      <trkpt lat="45.49584" lon="5.30008">
        <ele>519</ele>
        <time>2023-08-29T08:54:35Z</time>
      </trkpt>
      <trkpt lat="45.4959" lon="5.30007">
        <ele>518.8</ele>
        <time>2023-08-29T08:54:36Z</time>
      </trkpt>
      <trkpt lat="45.49594" lon="5.30007">
        <ele>518.8</ele>
        <time>2023-08-29T08:54:37Z</time>
      </trkpt>
      <trkpt lat="45.49598" lon="5.30006">
        <ele>518.8</ele>
        <time>2023-08-29T08:54:38Z</time>
      </trkpt>
      <trkpt lat="45.49601" lon="5.30005">
        <ele>518.8</ele>
        <time>2023-08-29T08:54:39Z</time>
      </trkpt>
      <trkpt lat="45.49603" lon="5.30004">
        <ele>519</ele>
        <time>2023-08-29T08:54:40Z</time>
      </trkpt>
      <trkpt lat="45.49604" lon="5.30003">
        <ele>519</ele>
        <time>2023-08-29T08:54:41Z</time>
      </trkpt>
      <trkpt lat="45.49604" lon="5.30003">
        <ele>519.4</ele>
        <time>2023-08-29T08:54:42Z</time>
      </trkpt>
      <trkpt lat="45.49604" lon="5.30003">
        <ele>520</ele>
        <time>2023-08-29T08:54:43Z</time>
      </trkpt>
      <trkpt lat="45.49608" lon="5.30004">
        <ele>520</ele>
        <time>2023-08-29T08:54:48Z</time>
      </trkpt>
      <trkpt lat="45.4961" lon="5.30004">
        <ele>520</ele>
        <time>2023-08-29T08:54:49Z</time>
      </trkpt>
      <trkpt lat="45.49612" lon="5.30005">
        <ele>520</ele>
        <time>2023-08-29T08:54:50Z</time>
      </trkpt>
      <trkpt lat="45.49615" lon="5.30005">
        <ele>520</ele>
        <time>2023-08-29T08:54:51Z</time>
      </trkpt>
      <trkpt lat="45.49619" lon="5.30007">
        <ele>520</ele>
        <time>2023-08-29T08:54:52Z</time>
      </trkpt>
      <trkpt lat="45.49623" lon="5.30008">
        <ele>519.8</ele>
        <time>2023-08-29T08:54:53Z</time>
      </trkpt>
      <trkpt lat="45.49627" lon="5.3001">
        <ele>519.8</ele>
        <time>2023-08-29T08:54:54Z</time>
      </trkpt>
      <trkpt lat="45.49631" lon="5.30011">
        <ele>519.8</ele>
        <time>2023-08-29T08:54:55Z</time>
      </trkpt>
      <trkpt lat="45.49635" lon="5.30013">
        <ele>519.6</ele>
        <time>2023-08-29T08:54:56Z</time>
      </trkpt>
      <trkpt lat="45.4964" lon="5.30014">
        <ele>519.2</ele>
        <time>2023-08-29T08:54:57Z</time>
      </trkpt>
      <trkpt lat="45.49644" lon="5.30015">
        <ele>519</ele>
        <time>2023-08-29T08:54:58Z</time>
      </trkpt>
      <trkpt lat="45.49649" lon="5.30017">
        <ele>519</ele>
        <time>2023-08-29T08:54:59Z</time>
      </trkpt>
      <trkpt lat="45.49654" lon="5.3002">
        <ele>518.8</ele>
        <time>2023-08-29T08:55:00Z</time>
      </trkpt>
      <trkpt lat="45.49659" lon="5.30022">
        <ele>518.8</ele>
        <time>2023-08-29T08:55:01Z</time>
      </trkpt>
      <trkpt lat="45.49664" lon="5.30023">
        <ele>518.8</ele>
        <time>2023-08-29T08:55:02Z</time>
      </trkpt>
      <trkpt lat="45.4967" lon="5.30026">
        <ele>518.8</ele>
        <time>2023-08-29T08:55:03Z</time>
      </trkpt>
      <trkpt lat="45.49675" lon="5.30028">
        <ele>518.8</ele>
        <time>2023-08-29T08:55:04Z</time>
      </trkpt>
      <trkpt lat="45.4968" lon="5.30031">
        <ele>518.8</ele>
        <time>2023-08-29T08:55:05Z</time>
      </trkpt>
      <trkpt lat="45.49686" lon="5.30033">
        <ele>518.8</ele>
        <time>2023-08-29T08:55:06Z</time>
      </trkpt>
      <trkpt lat="45.49693" lon="5.30035">
        <ele>518.8</ele>
        <time>2023-08-29T08:55:07Z</time>
      </trkpt>
      <trkpt lat="45.49698" lon="5.30037">
        <ele>518.8</ele>
        <time>2023-08-29T08:55:08Z</time>
      </trkpt>
      <trkpt lat="45.49705" lon="5.30039">
        <ele>518.8</ele>
        <time>2023-08-29T08:55:09Z</time>
      </trkpt>
      <trkpt lat="45.49711" lon="5.30042">
        <ele>518.8</ele>
        <time>2023-08-29T08:55:10Z</time>
      </trkpt>
      <trkpt lat="45.49717" lon="5.30044">
        <ele>518.8</ele>
        <time>2023-08-29T08:55:11Z</time>
      </trkpt>
      <trkpt lat="45.49723" lon="5.30046">
        <ele>518.4</ele>
        <time>2023-08-29T08:55:12Z</time>
      </trkpt>
      <trkpt lat="45.49729" lon="5.30048">
        <ele>518.2</ele>
        <time>2023-08-29T08:55:13Z</time>
      </trkpt>
      <trkpt lat="45.49735" lon="5.3005">
        <ele>518.2</ele>
        <time>2023-08-29T08:55:14Z</time>
      </trkpt>
      <trkpt lat="45.4974" lon="5.30052">
        <ele>518.2</ele>
        <time>2023-08-29T08:55:15Z</time>
      </trkpt>
      <trkpt lat="45.49746" lon="5.30055">
        <ele>518.2</ele>
        <time>2023-08-29T08:55:16Z</time>
      </trkpt>
      <trkpt lat="45.49752" lon="5.30057">
        <ele>518.2</ele>
        <time>2023-08-29T08:55:17Z</time>
      </trkpt>
      <trkpt lat="45.49758" lon="5.30059">
        <ele>518.4</ele>
        <time>2023-08-29T08:55:18Z</time>
      </trkpt>
      <trkpt lat="45.49765" lon="5.30061">
        <ele>518.4</ele>
        <time>2023-08-29T08:55:19Z</time>
      </trkpt>
      <trkpt lat="45.4977" lon="5.30063">
        <ele>518.4</ele>
        <time>2023-08-29T08:55:20Z</time>
      </trkpt>
      <trkpt lat="45.49776" lon="5.30064">
        <ele>518.4</ele>
        <time>2023-08-29T08:55:21Z</time>
      </trkpt>
      <trkpt lat="45.49782" lon="5.30066">
        <ele>518.4</ele>
        <time>2023-08-29T08:55:22Z</time>
      </trkpt>
      <trkpt lat="45.49787" lon="5.30068">
        <ele>518.2</ele>
        <time>2023-08-29T08:55:23Z</time>
      </trkpt>
      <trkpt lat="45.49792" lon="5.3007">
        <ele>517.8</ele>
        <time>2023-08-29T08:55:24Z</time>
      </trkpt>
      <trkpt lat="45.49797" lon="5.30072">
        <ele>517.6</ele>
        <time>2023-08-29T08:55:25Z</time>
      </trkpt>
      <trkpt lat="45.49802" lon="5.30074">
        <ele>517.6</ele>
        <time>2023-08-29T08:55:26Z</time>
      </trkpt>
      <trkpt lat="45.49807" lon="5.30076">
        <ele>517.6</ele>
        <time>2023-08-29T08:55:27Z</time>
      </trkpt>
      <trkpt lat="45.49811" lon="5.30078">
        <ele>517.4</ele>
        <time>2023-08-29T08:55:28Z</time>
      </trkpt>
      <trkpt lat="45.49816" lon="5.3008">
        <ele>517.4</ele>
        <time>2023-08-29T08:55:29Z</time>
      </trkpt>
      <trkpt lat="45.49822" lon="5.30083">
        <ele>517.4</ele>
        <time>2023-08-29T08:55:30Z</time>
      </trkpt>
      <trkpt lat="45.49827" lon="5.30085">
        <ele>517.4</ele>
        <time>2023-08-29T08:55:31Z</time>
      </trkpt>
      <trkpt lat="45.49832" lon="5.30087">
        <ele>517.6</ele>
        <time>2023-08-29T08:55:32Z</time>
      </trkpt>
      <trkpt lat="45.49837" lon="5.30089">
        <ele>517.6</ele>
        <time>2023-08-29T08:55:33Z</time>
      </trkpt>
      <trkpt lat="45.49842" lon="5.30091">
        <ele>517.6</ele>
        <time>2023-08-29T08:55:34Z</time>
      </trkpt>
      <trkpt lat="45.49847" lon="5.30093">
        <ele>517.8</ele>
        <time>2023-08-29T08:55:35Z</time>
      </trkpt>
      <trkpt lat="45.49852" lon="5.30095">
        <ele>517.8</ele>
        <time>2023-08-29T08:55:36Z</time>
      </trkpt>
      <trkpt lat="45.49856" lon="5.30098">
        <ele>517.6</ele>
        <time>2023-08-29T08:55:37Z</time>
      </trkpt>
      <trkpt lat="45.49858" lon="5.30102">
        <ele>517.6</ele>
        <time>2023-08-29T08:55:38Z</time>
      </trkpt>
      <trkpt lat="45.49859" lon="5.30109">
        <ele>517.6</ele>
        <time>2023-08-29T08:55:39Z</time>
      </trkpt>
      <trkpt lat="45.49859" lon="5.30115">
        <ele>517.6</ele>
        <time>2023-08-29T08:55:40Z</time>
      </trkpt>
      <trkpt lat="45.49857" lon="5.30121">
        <ele>517.4</ele>
        <time>2023-08-29T08:55:41Z</time>
      </trkpt>
      <trkpt lat="45.49855" lon="5.30127">
        <ele>517.4</ele>
        <time>2023-08-29T08:55:42Z</time>
      </trkpt>
      <trkpt lat="45.49854" lon="5.30135">
        <ele>517.4</ele>
        <time>2023-08-29T08:55:43Z</time>
      </trkpt>
      <trkpt lat="45.49853" lon="5.30143">
        <ele>517.4</ele>
        <time>2023-08-29T08:55:44Z</time>
      </trkpt>
      <trkpt lat="45.49852" lon="5.3015">
        <ele>517.6</ele>
        <time>2023-08-29T08:55:45Z</time>
      </trkpt>
      <trkpt lat="45.4985" lon="5.30159">
        <ele>517.6</ele>
        <time>2023-08-29T08:55:46Z</time>
      </trkpt>
      <trkpt lat="45.49848" lon="5.30166">
        <ele>517.8</ele>
        <time>2023-08-29T08:55:47Z</time>
      </trkpt>
      <trkpt lat="45.49847" lon="5.30174">
        <ele>518</ele>
        <time>2023-08-29T08:55:48Z</time>
      </trkpt>
      <trkpt lat="45.49845" lon="5.30181">
        <ele>518.2</ele>
        <time>2023-08-29T08:55:49Z</time>
      </trkpt>
      <trkpt lat="45.49843" lon="5.30189">
        <ele>518.4</ele>
        <time>2023-08-29T08:55:50Z</time>
      </trkpt>
      <trkpt lat="45.49842" lon="5.30197">
        <ele>518.8</ele>
        <time>2023-08-29T08:55:51Z</time>
      </trkpt>
      <trkpt lat="45.4984" lon="5.30204">
        <ele>519</ele>
        <time>2023-08-29T08:55:52Z</time>
      </trkpt>
      <trkpt lat="45.49839" lon="5.30211">
        <ele>519.4</ele>
        <time>2023-08-29T08:55:53Z</time>
      </trkpt>
      <trkpt lat="45.49837" lon="5.30218">
        <ele>519.6</ele>
        <time>2023-08-29T08:55:54Z</time>
      </trkpt>
      <trkpt lat="45.49835" lon="5.30227">
        <ele>520</ele>
        <time>2023-08-29T08:55:55Z</time>
      </trkpt>
      <trkpt lat="45.49833" lon="5.30234">
        <ele>520</ele>
        <time>2023-08-29T08:55:56Z</time>
      </trkpt>
      <trkpt lat="45.49832" lon="5.30242">
        <ele>520.2</ele>
        <time>2023-08-29T08:55:57Z</time>
      </trkpt>
      <trkpt lat="45.4983" lon="5.30251">
        <ele>520.4</ele>
        <time>2023-08-29T08:55:58Z</time>
      </trkpt>
      <trkpt lat="45.49829" lon="5.30259">
        <ele>520.4</ele>
        <time>2023-08-29T08:55:59Z</time>
      </trkpt>
      <trkpt lat="45.49827" lon="5.30267">
        <ele>520.4</ele>
        <time>2023-08-29T08:56:00Z</time>
      </trkpt>
      <trkpt lat="45.49825" lon="5.30274">
        <ele>520.4</ele>
        <time>2023-08-29T08:56:01Z</time>
      </trkpt>
      <trkpt lat="45.49824" lon="5.30282">
        <ele>520.4</ele>
        <time>2023-08-29T08:56:02Z</time>
      </trkpt>
      <trkpt lat="45.49823" lon="5.3029">
        <ele>520.4</ele>
        <time>2023-08-29T08:56:03Z</time>
      </trkpt>
      <trkpt lat="45.49821" lon="5.30298">
        <ele>520.6</ele>
        <time>2023-08-29T08:56:04Z</time>
      </trkpt>
      <trkpt lat="45.4982" lon="5.30306">
        <ele>521</ele>
        <time>2023-08-29T08:56:05Z</time>
      </trkpt>
      <trkpt lat="45.49819" lon="5.30313">
        <ele>521.2</ele>
        <time>2023-08-29T08:56:06Z</time>
      </trkpt>
      <trkpt lat="45.49817" lon="5.3032">
        <ele>521.4</ele>
        <time>2023-08-29T08:56:07Z</time>
      </trkpt>
      <trkpt lat="45.49815" lon="5.30326">
        <ele>521.4</ele>
        <time>2023-08-29T08:56:08Z</time>
      </trkpt>
      <trkpt lat="45.49814" lon="5.30333">
        <ele>521.6</ele>
        <time>2023-08-29T08:56:09Z</time>
      </trkpt>
      <trkpt lat="45.49813" lon="5.3034">
        <ele>521.8</ele>
        <time>2023-08-29T08:56:10Z</time>
      </trkpt>
      <trkpt lat="45.49811" lon="5.30348">
        <ele>522</ele>
        <time>2023-08-29T08:56:11Z</time>
      </trkpt>
      <trkpt lat="45.4981" lon="5.30355">
        <ele>522.2</ele>
        <time>2023-08-29T08:56:12Z</time>
      </trkpt>
      <trkpt lat="45.49808" lon="5.30362">
        <ele>522.4</ele>
        <time>2023-08-29T08:56:13Z</time>
      </trkpt>
      <trkpt lat="45.49807" lon="5.30369">
        <ele>522.6</ele>
        <time>2023-08-29T08:56:14Z</time>
      </trkpt>
      <trkpt lat="45.49806" lon="5.30377">
        <ele>522.8</ele>
        <time>2023-08-29T08:56:15Z</time>
      </trkpt>
      <trkpt lat="45.49804" lon="5.30384">
        <ele>522.8</ele>
        <time>2023-08-29T08:56:16Z</time>
      </trkpt>
      <trkpt lat="45.49803" lon="5.30391">
        <ele>522.8</ele>
        <time>2023-08-29T08:56:17Z</time>
      </trkpt>
      <trkpt lat="45.49801" lon="5.30398">
        <ele>522.8</ele>
        <time>2023-08-29T08:56:18Z</time>
      </trkpt>
      <trkpt lat="45.498" lon="5.30405">
        <ele>523</ele>
        <time>2023-08-29T08:56:19Z</time>
      </trkpt>
      <trkpt lat="45.49799" lon="5.30411">
        <ele>523.2</ele>
        <time>2023-08-29T08:56:20Z</time>
      </trkpt>
      <trkpt lat="45.49798" lon="5.30418">
        <ele>523.2</ele>
        <time>2023-08-29T08:56:21Z</time>
      </trkpt>
      <trkpt lat="45.49796" lon="5.30425">
        <ele>523.6</ele>
        <time>2023-08-29T08:56:22Z</time>
      </trkpt>
      <trkpt lat="45.49795" lon="5.30433">
        <ele>523.8</ele>
        <time>2023-08-29T08:56:23Z</time>
      </trkpt>
      <trkpt lat="45.49795" lon="5.3044">
        <ele>524.2</ele>
        <time>2023-08-29T08:56:24Z</time>
      </trkpt>
      <trkpt lat="45.49794" lon="5.30447">
        <ele>524.4</ele>
        <time>2023-08-29T08:56:25Z</time>
      </trkpt>
      <trkpt lat="45.49794" lon="5.30454">
        <ele>524.6</ele>
        <time>2023-08-29T08:56:26Z</time>
      </trkpt>
      <trkpt lat="45.49793" lon="5.30461">
        <ele>524.6</ele>
        <time>2023-08-29T08:56:27Z</time>
      </trkpt>
      <trkpt lat="45.49792" lon="5.30468">
        <ele>524.8</ele>
        <time>2023-08-29T08:56:28Z</time>
      </trkpt>
      <trkpt lat="45.49791" lon="5.30474">
        <ele>525</ele>
        <time>2023-08-29T08:56:29Z</time>
      </trkpt>
      <trkpt lat="45.49791" lon="5.30481">
        <ele>525.2</ele>
        <time>2023-08-29T08:56:30Z</time>
      </trkpt>
      <trkpt lat="45.4979" lon="5.30486">
        <ele>525.4</ele>
        <time>2023-08-29T08:56:31Z</time>
      </trkpt>
      <trkpt lat="45.49789" lon="5.30493">
        <ele>525.6</ele>
        <time>2023-08-29T08:56:32Z</time>
      </trkpt>
      <trkpt lat="45.49789" lon="5.305">
        <ele>525.8</ele>
        <time>2023-08-29T08:56:33Z</time>
      </trkpt>
      <trkpt lat="45.49789" lon="5.30508">
        <ele>526.2</ele>
        <time>2023-08-29T08:56:34Z</time>
      </trkpt>
      <trkpt lat="45.49788" lon="5.30515">
        <ele>526.6</ele>
        <time>2023-08-29T08:56:35Z</time>
      </trkpt>
      <trkpt lat="45.49787" lon="5.30521">
        <ele>526.8</ele>
        <time>2023-08-29T08:56:36Z</time>
      </trkpt>
      <trkpt lat="45.49785" lon="5.30527">
        <ele>527</ele>
        <time>2023-08-29T08:56:37Z</time>
      </trkpt>
      <trkpt lat="45.49784" lon="5.30533">
        <ele>527.4</ele>
        <time>2023-08-29T08:56:38Z</time>
      </trkpt>
      <trkpt lat="45.49783" lon="5.3054">
        <ele>527.4</ele>
        <time>2023-08-29T08:56:39Z</time>
      </trkpt>
      <trkpt lat="45.49782" lon="5.30546">
        <ele>527.6</ele>
        <time>2023-08-29T08:56:40Z</time>
      </trkpt>
      <trkpt lat="45.49781" lon="5.30551">
        <ele>527.6</ele>
        <time>2023-08-29T08:56:41Z</time>
      </trkpt>
      <trkpt lat="45.4978" lon="5.30556">
        <ele>527.6</ele>
        <time>2023-08-29T08:56:42Z</time>
      </trkpt>
      <trkpt lat="45.49779" lon="5.30561">
        <ele>527.6</ele>
        <time>2023-08-29T08:56:43Z</time>
      </trkpt>
      <trkpt lat="45.49777" lon="5.30567">
        <ele>527.6</ele>
        <time>2023-08-29T08:56:44Z</time>
      </trkpt>
      <trkpt lat="45.49776" lon="5.30573">
        <ele>527.6</ele>
        <time>2023-08-29T08:56:45Z</time>
      </trkpt>
      <trkpt lat="45.49775" lon="5.30579">
        <ele>527.6</ele>
        <time>2023-08-29T08:56:46Z</time>
      </trkpt>
      <trkpt lat="45.49773" lon="5.30585">
        <ele>527.4</ele>
        <time>2023-08-29T08:56:47Z</time>
      </trkpt>
      <trkpt lat="45.49772" lon="5.30592">
        <ele>527.4</ele>
        <time>2023-08-29T08:56:48Z</time>
      </trkpt>
      <trkpt lat="45.49769" lon="5.30598">
        <ele>527.4</ele>
        <time>2023-08-29T08:56:49Z</time>
      </trkpt>
      <trkpt lat="45.49767" lon="5.30604">
        <ele>527</ele>
        <time>2023-08-29T08:56:50Z</time>
      </trkpt>
      <trkpt lat="45.49767" lon="5.30609">
        <ele>526.6</ele>
        <time>2023-08-29T08:56:51Z</time>
      </trkpt>
      <trkpt lat="45.49769" lon="5.30614">
        <ele>526.4</ele>
        <time>2023-08-29T08:56:52Z</time>
      </trkpt>
      <trkpt lat="45.49771" lon="5.30616">
        <ele>526.4</ele>
        <time>2023-08-29T08:56:53Z</time>
      </trkpt>
      <trkpt lat="45.49774" lon="5.30619">
        <ele>526.4</ele>
        <time>2023-08-29T08:56:54Z</time>
      </trkpt>
      <trkpt lat="45.49777" lon="5.30621">
        <ele>526.2</ele>
        <time>2023-08-29T08:56:55Z</time>
      </trkpt>
      <trkpt lat="45.49782" lon="5.30624">
        <ele>526.2</ele>
        <time>2023-08-29T08:56:56Z</time>
      </trkpt>
      <trkpt lat="45.49786" lon="5.30628">
        <ele>525.6</ele>
        <time>2023-08-29T08:56:57Z</time>
      </trkpt>
      <trkpt lat="45.4979" lon="5.30631">
        <ele>524.6</ele>
        <time>2023-08-29T08:56:58Z</time>
      </trkpt>
      <trkpt lat="45.49795" lon="5.30634">
        <ele>523.8</ele>
        <time>2023-08-29T08:56:59Z</time>
      </trkpt>
      <trkpt lat="45.49801" lon="5.30638">
        <ele>523.4</ele>
        <time>2023-08-29T08:57:00Z</time>
      </trkpt>
      <trkpt lat="45.49807" lon="5.30641">
        <ele>522.6</ele>
        <time>2023-08-29T08:57:01Z</time>
      </trkpt>
      <trkpt lat="45.49813" lon="5.30645">
        <ele>522.4</ele>
        <time>2023-08-29T08:57:02Z</time>
      </trkpt>
      <trkpt lat="45.49819" lon="5.3065">
        <ele>521.6</ele>
        <time>2023-08-29T08:57:03Z</time>
      </trkpt>
      <trkpt lat="45.49825" lon="5.30655">
        <ele>520.8</ele>
        <time>2023-08-29T08:57:04Z</time>
      </trkpt>
      <trkpt lat="45.4983" lon="5.3066">
        <ele>520</ele>
        <time>2023-08-29T08:57:05Z</time>
      </trkpt>
      <trkpt lat="45.49837" lon="5.30667">
        <ele>519.4</ele>
        <time>2023-08-29T08:57:06Z</time>
      </trkpt>
      <trkpt lat="45.49842" lon="5.30673">
        <ele>518.2</ele>
        <time>2023-08-29T08:57:07Z</time>
      </trkpt>
      <trkpt lat="45.49848" lon="5.30679">
        <ele>518</ele>
        <time>2023-08-29T08:57:08Z</time>
      </trkpt>
      <trkpt lat="45.49854" lon="5.30684">
        <ele>517.6</ele>
        <time>2023-08-29T08:57:09Z</time>
      </trkpt>
      <trkpt lat="45.49859" lon="5.30689">
        <ele>517.6</ele>
        <time>2023-08-29T08:57:10Z</time>
      </trkpt>
      <trkpt lat="45.49864" lon="5.30695">
        <ele>517.4</ele>
        <time>2023-08-29T08:57:11Z</time>
      </trkpt>
      <trkpt lat="45.4987" lon="5.307">
        <ele>517.2</ele>
        <time>2023-08-29T08:57:12Z</time>
      </trkpt>
      <trkpt lat="45.49874" lon="5.30705">
        <ele>517.2</ele>
        <time>2023-08-29T08:57:13Z</time>
      </trkpt>
      <trkpt lat="45.49878" lon="5.3071">
        <ele>517.2</ele>
        <time>2023-08-29T08:57:14Z</time>
      </trkpt>
      <trkpt lat="45.49883" lon="5.30717">
        <ele>517.2</ele>
        <time>2023-08-29T08:57:15Z</time>
      </trkpt>
      <trkpt lat="45.49886" lon="5.30723">
        <ele>517.2</ele>
        <time>2023-08-29T08:57:16Z</time>
      </trkpt>
      <trkpt lat="45.49889" lon="5.30731">
        <ele>517.2</ele>
        <time>2023-08-29T08:57:17Z</time>
      </trkpt>
      <trkpt lat="45.49892" lon="5.30739">
        <ele>517.4</ele>
        <time>2023-08-29T08:57:18Z</time>
      </trkpt>
      <trkpt lat="45.49894" lon="5.30748">
        <ele>517.4</ele>
        <time>2023-08-29T08:57:19Z</time>
      </trkpt>
      <trkpt lat="45.49896" lon="5.30757">
        <ele>517.4</ele>
        <time>2023-08-29T08:57:20Z</time>
      </trkpt>
      <trkpt lat="45.49898" lon="5.30765">
        <ele>517.4</ele>
        <time>2023-08-29T08:57:21Z</time>
      </trkpt>
      <trkpt lat="45.49899" lon="5.30775">
        <ele>517.4</ele>
        <time>2023-08-29T08:57:22Z</time>
      </trkpt>
      <trkpt lat="45.499" lon="5.30784">
        <ele>517.2</ele>
        <time>2023-08-29T08:57:23Z</time>
      </trkpt>
      <trkpt lat="45.49901" lon="5.30792">
        <ele>517</ele>
        <time>2023-08-29T08:57:24Z</time>
      </trkpt>
      <trkpt lat="45.49902" lon="5.30801">
        <ele>517</ele>
        <time>2023-08-29T08:57:25Z</time>
      </trkpt>
      <trkpt lat="45.49904" lon="5.30811">
        <ele>517</ele>
        <time>2023-08-29T08:57:26Z</time>
      </trkpt>
      <trkpt lat="45.49905" lon="5.3082">
        <ele>517</ele>
        <time>2023-08-29T08:57:27Z</time>
      </trkpt>
      <trkpt lat="45.49907" lon="5.30829">
        <ele>517</ele>
        <time>2023-08-29T08:57:28Z</time>
      </trkpt>
      <trkpt lat="45.49909" lon="5.30838">
        <ele>517</ele>
        <time>2023-08-29T08:57:29Z</time>
      </trkpt>
      <trkpt lat="45.4991" lon="5.30847">
        <ele>517</ele>
        <time>2023-08-29T08:57:30Z</time>
      </trkpt>
      <trkpt lat="45.49911" lon="5.30855">
        <ele>517.2</ele>
        <time>2023-08-29T08:57:31Z</time>
      </trkpt>
      <trkpt lat="45.49913" lon="5.30863">
        <ele>517.2</ele>
        <time>2023-08-29T08:57:32Z</time>
      </trkpt>
      <trkpt lat="45.49914" lon="5.30871">
        <ele>517.2</ele>
        <time>2023-08-29T08:57:33Z</time>
      </trkpt>
      <trkpt lat="45.49915" lon="5.30879">
        <ele>517.2</ele>
        <time>2023-08-29T08:57:34Z</time>
      </trkpt>
      <trkpt lat="45.49916" lon="5.30886">
        <ele>517.2</ele>
        <time>2023-08-29T08:57:35Z</time>
      </trkpt>
      <trkpt lat="45.49917" lon="5.30894">
        <ele>517.2</ele>
        <time>2023-08-29T08:57:36Z</time>
      </trkpt>
      <trkpt lat="45.49919" lon="5.30901">
        <ele>517.2</ele>
        <time>2023-08-29T08:57:37Z</time>
      </trkpt>
      <trkpt lat="45.4992" lon="5.30909">
        <ele>517.4</ele>
        <time>2023-08-29T08:57:38Z</time>
      </trkpt>
      <trkpt lat="45.49921" lon="5.30918">
        <ele>517.4</ele>
        <time>2023-08-29T08:57:39Z</time>
      </trkpt>
      <trkpt lat="45.49922" lon="5.30927">
        <ele>517.4</ele>
        <time>2023-08-29T08:57:40Z</time>
      </trkpt>
      <trkpt lat="45.49923" lon="5.30936">
        <ele>517.4</ele>
        <time>2023-08-29T08:57:41Z</time>
      </trkpt>
      <trkpt lat="45.49923" lon="5.30943">
        <ele>517.2</ele>
        <time>2023-08-29T08:57:42Z</time>
      </trkpt>
      <trkpt lat="45.49924" lon="5.3095">
        <ele>517.2</ele>
        <time>2023-08-29T08:57:43Z</time>
      </trkpt>
      <trkpt lat="45.49925" lon="5.30956">
        <ele>517.4</ele>
        <time>2023-08-29T08:57:44Z</time>
      </trkpt>
      <trkpt lat="45.49926" lon="5.30963">
        <ele>517.4</ele>
        <time>2023-08-29T08:57:45Z</time>
      </trkpt>
      <trkpt lat="45.49926" lon="5.30972">
        <ele>517.2</ele>
        <time>2023-08-29T08:57:46Z</time>
      </trkpt>
      <trkpt lat="45.49927" lon="5.3098">
        <ele>517.2</ele>
        <time>2023-08-29T08:57:47Z</time>
      </trkpt>
      <trkpt lat="45.49928" lon="5.3099">
        <ele>517.2</ele>
        <time>2023-08-29T08:57:48Z</time>
      </trkpt>
      <trkpt lat="45.49929" lon="5.30999">
        <ele>517</ele>
        <time>2023-08-29T08:57:49Z</time>
      </trkpt>
      <trkpt lat="45.4993" lon="5.31009">
        <ele>517</ele>
        <time>2023-08-29T08:57:50Z</time>
      </trkpt>
      <trkpt lat="45.49931" lon="5.3102">
        <ele>517</ele>
        <time>2023-08-29T08:57:51Z</time>
      </trkpt>
      <trkpt lat="45.49932" lon="5.3103">
        <ele>517</ele>
        <time>2023-08-29T08:57:52Z</time>
      </trkpt>
      <trkpt lat="45.49934" lon="5.31039">
        <ele>516.8</ele>
        <time>2023-08-29T08:57:53Z</time>
      </trkpt>
      <trkpt lat="45.49935" lon="5.31048">
        <ele>516.6</ele>
        <time>2023-08-29T08:57:54Z</time>
      </trkpt>
      <trkpt lat="45.49937" lon="5.31057">
        <ele>516.6</ele>
        <time>2023-08-29T08:57:55Z</time>
      </trkpt>
      <trkpt lat="45.49938" lon="5.31064">
        <ele>516.4</ele>
        <time>2023-08-29T08:57:56Z</time>
      </trkpt>
      <trkpt lat="45.49941" lon="5.31071">
        <ele>516.4</ele>
        <time>2023-08-29T08:57:57Z</time>
      </trkpt>
      <trkpt lat="45.49944" lon="5.31078">
        <ele>516.4</ele>
        <time>2023-08-29T08:57:58Z</time>
      </trkpt>
      <trkpt lat="45.49947" lon="5.31083">
        <ele>516.6</ele>
        <time>2023-08-29T08:57:59Z</time>
      </trkpt>
      <trkpt lat="45.49951" lon="5.31089">
        <ele>516.6</ele>
        <time>2023-08-29T08:58:00Z</time>
      </trkpt>
      <trkpt lat="45.49956" lon="5.31094">
        <ele>516.6</ele>
        <time>2023-08-29T08:58:01Z</time>
      </trkpt>
      <trkpt lat="45.4996" lon="5.31098">
        <ele>516.6</ele>
        <time>2023-08-29T08:58:02Z</time>
      </trkpt>
      <trkpt lat="45.49965" lon="5.31102">
        <ele>516.6</ele>
        <time>2023-08-29T08:58:03Z</time>
      </trkpt>
      <trkpt lat="45.4997" lon="5.31107">
        <ele>516.6</ele>
        <time>2023-08-29T08:58:04Z</time>
      </trkpt>
      <trkpt lat="45.49974" lon="5.31112">
        <ele>516.6</ele>
        <time>2023-08-29T08:58:05Z</time>
      </trkpt>
      <trkpt lat="45.49978" lon="5.31116">
        <ele>516.6</ele>
        <time>2023-08-29T08:58:06Z</time>
      </trkpt>
      <trkpt lat="45.49982" lon="5.31121">
        <ele>516.8</ele>
        <time>2023-08-29T08:58:07Z</time>
      </trkpt>
      <trkpt lat="45.49987" lon="5.31126">
        <ele>516.8</ele>
        <time>2023-08-29T08:58:08Z</time>
      </trkpt>
      <trkpt lat="45.49991" lon="5.31131">
        <ele>517</ele>
        <time>2023-08-29T08:58:09Z</time>
      </trkpt>
      <trkpt lat="45.49994" lon="5.31136">
        <ele>517.2</ele>
        <time>2023-08-29T08:58:10Z</time>
      </trkpt>
      <trkpt lat="45.49999" lon="5.31141">
        <ele>517.4</ele>
        <time>2023-08-29T08:58:11Z</time>
      </trkpt>
      <trkpt lat="45.50002" lon="5.31146">
        <ele>517.4</ele>
        <time>2023-08-29T08:58:12Z</time>
      </trkpt>
      <trkpt lat="45.50005" lon="5.31152">
        <ele>517.8</ele>
        <time>2023-08-29T08:58:13Z</time>
      </trkpt>
      <trkpt lat="45.50009" lon="5.31156">
        <ele>517.8</ele>
        <time>2023-08-29T08:58:14Z</time>
      </trkpt>
      <trkpt lat="45.50012" lon="5.31161">
        <ele>517.4</ele>
        <time>2023-08-29T08:58:15Z</time>
      </trkpt>
      <trkpt lat="45.50017" lon="5.31167">
        <ele>517.4</ele>
        <time>2023-08-29T08:58:16Z</time>
      </trkpt>
      <trkpt lat="45.50021" lon="5.31173">
        <ele>517.4</ele>
        <time>2023-08-29T08:58:17Z</time>
      </trkpt>
      <trkpt lat="45.50026" lon="5.31179">
        <ele>517.4</ele>
        <time>2023-08-29T08:58:18Z</time>
      </trkpt>
      <trkpt lat="45.50031" lon="5.31184">
        <ele>517.2</ele>
        <time>2023-08-29T08:58:19Z</time>
      </trkpt>
      <trkpt lat="45.50037" lon="5.3119">
        <ele>517.2</ele>
        <time>2023-08-29T08:58:20Z</time>
      </trkpt>
      <trkpt lat="45.50043" lon="5.31194">
        <ele>517.2</ele>
        <time>2023-08-29T08:58:21Z</time>
      </trkpt>
      <trkpt lat="45.50048" lon="5.31198">
        <ele>517.2</ele>
        <time>2023-08-29T08:58:22Z</time>
      </trkpt>
      <trkpt lat="45.50053" lon="5.31202">
        <ele>517.2</ele>
        <time>2023-08-29T08:58:23Z</time>
      </trkpt>
      <trkpt lat="45.50058" lon="5.31206">
        <ele>517.2</ele>
        <time>2023-08-29T08:58:24Z</time>
      </trkpt>
      <trkpt lat="45.50063" lon="5.31211">
        <ele>517.2</ele>
        <time>2023-08-29T08:58:25Z</time>
      </trkpt>
      <trkpt lat="45.50067" lon="5.31215">
        <ele>517.2</ele>
        <time>2023-08-29T08:58:26Z</time>
      </trkpt>
      <trkpt lat="45.50071" lon="5.31219">
        <ele>517.2</ele>
        <time>2023-08-29T08:58:27Z</time>
      </trkpt>
      <trkpt lat="45.50075" lon="5.31223">
        <ele>517.2</ele>
        <time>2023-08-29T08:58:28Z</time>
      </trkpt>
      <trkpt lat="45.50079" lon="5.31228">
        <ele>517.4</ele>
        <time>2023-08-29T08:58:29Z</time>
      </trkpt>
      <trkpt lat="45.50083" lon="5.31232">
        <ele>517.4</ele>
        <time>2023-08-29T08:58:30Z</time>
      </trkpt>
      <trkpt lat="45.50087" lon="5.31236">
        <ele>517.4</ele>
        <time>2023-08-29T08:58:31Z</time>
      </trkpt>
      <trkpt lat="45.50091" lon="5.3124">
        <ele>517.4</ele>
        <time>2023-08-29T08:58:32Z</time>
      </trkpt>
      <trkpt lat="45.50095" lon="5.31245">
        <ele>517.2</ele>
        <time>2023-08-29T08:58:33Z</time>
      </trkpt>
      <trkpt lat="45.50099" lon="5.31249">
        <ele>517.2</ele>
        <time>2023-08-29T08:58:34Z</time>
      </trkpt>
      <trkpt lat="45.50103" lon="5.31253">
        <ele>517.2</ele>
        <time>2023-08-29T08:58:35Z</time>
      </trkpt>
      <trkpt lat="45.50108" lon="5.31257">
        <ele>517.2</ele>
        <time>2023-08-29T08:58:36Z</time>
      </trkpt>
      <trkpt lat="45.50111" lon="5.31262">
        <ele>517</ele>
        <time>2023-08-29T08:58:37Z</time>
      </trkpt>
      <trkpt lat="45.50116" lon="5.31266">
        <ele>517</ele>
        <time>2023-08-29T08:58:38Z</time>
      </trkpt>
      <trkpt lat="45.5012" lon="5.3127">
        <ele>516.8</ele>
        <time>2023-08-29T08:58:39Z</time>
      </trkpt>
      <trkpt lat="45.50123" lon="5.31275">
        <ele>516.8</ele>
        <time>2023-08-29T08:58:40Z</time>
      </trkpt>
      <trkpt lat="45.50126" lon="5.31278">
        <ele>516.8</ele>
        <time>2023-08-29T08:58:41Z</time>
      </trkpt>
      <trkpt lat="45.50129" lon="5.31283">
        <ele>516.8</ele>
        <time>2023-08-29T08:58:42Z</time>
      </trkpt>
      <trkpt lat="45.50131" lon="5.31288">
        <ele>516.8</ele>
        <time>2023-08-29T08:58:43Z</time>
      </trkpt>
      <trkpt lat="45.50133" lon="5.31293">
        <ele>516.8</ele>
        <time>2023-08-29T08:58:44Z</time>
      </trkpt>
      <trkpt lat="45.50136" lon="5.31297">
        <ele>517.2</ele>
        <time>2023-08-29T08:58:45Z</time>
      </trkpt>
      <trkpt lat="45.50138" lon="5.31302">
        <ele>517.2</ele>
        <time>2023-08-29T08:58:46Z</time>
      </trkpt>
      <trkpt lat="45.50141" lon="5.31307">
        <ele>517.2</ele>
        <time>2023-08-29T08:58:47Z</time>
      </trkpt>
      <trkpt lat="45.50144" lon="5.31312">
        <ele>517.2</ele>
        <time>2023-08-29T08:58:48Z</time>
      </trkpt>
      <trkpt lat="45.50147" lon="5.31315">
        <ele>517.4</ele>
        <time>2023-08-29T08:58:49Z</time>
      </trkpt>
      <trkpt lat="45.50151" lon="5.31318">
        <ele>517.4</ele>
        <time>2023-08-29T08:58:50Z</time>
      </trkpt>
      <trkpt lat="45.50155" lon="5.3132">
        <ele>517.4</ele>
        <time>2023-08-29T08:58:51Z</time>
      </trkpt>
      <trkpt lat="45.50159" lon="5.31321">
        <ele>517.4</ele>
        <time>2023-08-29T08:58:52Z</time>
      </trkpt>
      <trkpt lat="45.50165" lon="5.31322">
        <ele>517.4</ele>
        <time>2023-08-29T08:58:53Z</time>
      </trkpt>
      <trkpt lat="45.5017" lon="5.31321">
        <ele>517.2</ele>
        <time>2023-08-29T08:58:54Z</time>
      </trkpt>
      <trkpt lat="45.50175" lon="5.31319">
        <ele>517.2</ele>
        <time>2023-08-29T08:58:55Z</time>
      </trkpt>
      <trkpt lat="45.50179" lon="5.31316">
        <ele>516.8</ele>
        <time>2023-08-29T08:58:56Z</time>
      </trkpt>
      <trkpt lat="45.50182" lon="5.31311">
        <ele>516.6</ele>
        <time>2023-08-29T08:58:57Z</time>
      </trkpt>
      <trkpt lat="45.50184" lon="5.31305">
        <ele>516.6</ele>
        <time>2023-08-29T08:58:58Z</time>
      </trkpt>
      <trkpt lat="45.50185" lon="5.31299">
        <ele>516.6</ele>
        <time>2023-08-29T08:58:59Z</time>
      </trkpt>
      <trkpt lat="45.50187" lon="5.31293">
        <ele>516.8</ele>
        <time>2023-08-29T08:59:00Z</time>
      </trkpt>
      <trkpt lat="45.5019" lon="5.31287">
        <ele>516.8</ele>
        <time>2023-08-29T08:59:01Z</time>
      </trkpt>
      <trkpt lat="45.50193" lon="5.31281">
        <ele>516.8</ele>
        <time>2023-08-29T08:59:02Z</time>
      </trkpt>
      <trkpt lat="45.50197" lon="5.31277">
        <ele>516.8</ele>
        <time>2023-08-29T08:59:03Z</time>
      </trkpt>
      <trkpt lat="45.50202" lon="5.31274">
        <ele>516.6</ele>
        <time>2023-08-29T08:59:04Z</time>
      </trkpt>
      <trkpt lat="45.50206" lon="5.31274">
        <ele>516.6</ele>
        <time>2023-08-29T08:59:05Z</time>
      </trkpt>
      <trkpt lat="45.50211" lon="5.31273">
        <ele>516.6</ele>
        <time>2023-08-29T08:59:06Z</time>
      </trkpt>
      <trkpt lat="45.50216" lon="5.31273">
        <ele>516.6</ele>
        <time>2023-08-29T08:59:07Z</time>
      </trkpt>
      <trkpt lat="45.50221" lon="5.31274">
        <ele>516.6</ele>
        <time>2023-08-29T08:59:08Z</time>
      </trkpt>
      <trkpt lat="45.50225" lon="5.31275">
        <ele>516.6</ele>
        <time>2023-08-29T08:59:09Z</time>
      </trkpt>
      <trkpt lat="45.5023" lon="5.31276">
        <ele>516.6</ele>
        <time>2023-08-29T08:59:10Z</time>
      </trkpt>
      <trkpt lat="45.50234" lon="5.31277">
        <ele>516.8</ele>
        <time>2023-08-29T08:59:11Z</time>
      </trkpt>
      <trkpt lat="45.50239" lon="5.31278">
        <ele>517</ele>
        <time>2023-08-29T08:59:12Z</time>
      </trkpt>
      <trkpt lat="45.50244" lon="5.31279">
        <ele>517.2</ele>
        <time>2023-08-29T08:59:13Z</time>
      </trkpt>
      <trkpt lat="45.50248" lon="5.31279">
        <ele>517.4</ele>
        <time>2023-08-29T08:59:14Z</time>
      </trkpt>
      <trkpt lat="45.50253" lon="5.31279">
        <ele>517.4</ele>
        <time>2023-08-29T08:59:15Z</time>
      </trkpt>
      <trkpt lat="45.50257" lon="5.31278">
        <ele>517.6</ele>
        <time>2023-08-29T08:59:16Z</time>
      </trkpt>
      <trkpt lat="45.5026" lon="5.31275">
        <ele>517.6</ele>
        <time>2023-08-29T08:59:17Z</time>
      </trkpt>
      <trkpt lat="45.50264" lon="5.31271">
        <ele>517.6</ele>
        <time>2023-08-29T08:59:18Z</time>
      </trkpt>
      <trkpt lat="45.50268" lon="5.31267">
        <ele>517.4</ele>
        <time>2023-08-29T08:59:19Z</time>
      </trkpt>
      <trkpt lat="45.50271" lon="5.31263">
        <ele>517.4</ele>
        <time>2023-08-29T08:59:20Z</time>
      </trkpt>
      <trkpt lat="45.50275" lon="5.31259">
        <ele>517.4</ele>
        <time>2023-08-29T08:59:21Z</time>
      </trkpt>
      <trkpt lat="45.50277" lon="5.31254">
        <ele>517</ele>
        <time>2023-08-29T08:59:22Z</time>
      </trkpt>
      <trkpt lat="45.5028" lon="5.3125">
        <ele>517</ele>
        <time>2023-08-29T08:59:23Z</time>
      </trkpt>
      <trkpt lat="45.50283" lon="5.31245">
        <ele>516.8</ele>
        <time>2023-08-29T08:59:24Z</time>
      </trkpt>
      <trkpt lat="45.50287" lon="5.31241">
        <ele>516.6</ele>
        <time>2023-08-29T08:59:25Z</time>
      </trkpt>
      <trkpt lat="45.5029" lon="5.31237">
        <ele>516.6</ele>
        <time>2023-08-29T08:59:26Z</time>
      </trkpt>
      <trkpt lat="45.50294" lon="5.31234">
        <ele>516.6</ele>
        <time>2023-08-29T08:59:27Z</time>
      </trkpt>
      <trkpt lat="45.50297" lon="5.31231">
        <ele>516.6</ele>
        <time>2023-08-29T08:59:28Z</time>
      </trkpt>
      <trkpt lat="45.50301" lon="5.31228">
        <ele>516.6</ele>
        <time>2023-08-29T08:59:29Z</time>
      </trkpt>
      <trkpt lat="45.50304" lon="5.31224">
        <ele>516.6</ele>
        <time>2023-08-29T08:59:30Z</time>
      </trkpt>
      <trkpt lat="45.50308" lon="5.3122">
        <ele>516.6</ele>
        <time>2023-08-29T08:59:31Z</time>
      </trkpt>
      <trkpt lat="45.50311" lon="5.31215">
        <ele>516.6</ele>
        <time>2023-08-29T08:59:32Z</time>
      </trkpt>
      <trkpt lat="45.50314" lon="5.3121">
        <ele>516.8</ele>
        <time>2023-08-29T08:59:33Z</time>
      </trkpt>
      <trkpt lat="45.50316" lon="5.31205">
        <ele>516.8</ele>
        <time>2023-08-29T08:59:34Z</time>
      </trkpt>
      <trkpt lat="45.50316" lon="5.31199">
        <ele>516.8</ele>
        <time>2023-08-29T08:59:35Z</time>
      </trkpt>
      <trkpt lat="45.50316" lon="5.31195">
        <ele>517</ele>
        <time>2023-08-29T08:59:36Z</time>
      </trkpt>
      <trkpt lat="45.50316" lon="5.3119">
        <ele>517.2</ele>
        <time>2023-08-29T08:59:37Z</time>
      </trkpt>
      <trkpt lat="45.50316" lon="5.31185">
        <ele>517.6</ele>
        <time>2023-08-29T08:59:38Z</time>
      </trkpt>
      <trkpt lat="45.50316" lon="5.31179">
        <ele>517.6</ele>
        <time>2023-08-29T08:59:39Z</time>
      </trkpt>
      <trkpt lat="45.50316" lon="5.31173">
        <ele>517.6</ele>
        <time>2023-08-29T08:59:40Z</time>
      </trkpt>
      <trkpt lat="45.50316" lon="5.31167">
        <ele>517.8</ele>
        <time>2023-08-29T08:59:41Z</time>
      </trkpt>
      <trkpt lat="45.50317" lon="5.31161">
        <ele>517.8</ele>
        <time>2023-08-29T08:59:42Z</time>
      </trkpt>
      <trkpt lat="45.50319" lon="5.31155">
        <ele>517.8</ele>
        <time>2023-08-29T08:59:43Z</time>
      </trkpt>
      <trkpt lat="45.50322" lon="5.31149">
        <ele>517.8</ele>
        <time>2023-08-29T08:59:44Z</time>
      </trkpt>
      <trkpt lat="45.50326" lon="5.31144">
        <ele>517.8</ele>
        <time>2023-08-29T08:59:45Z</time>
      </trkpt>
      <trkpt lat="45.50329" lon="5.31139">
        <ele>517.2</ele>
        <time>2023-08-29T08:59:46Z</time>
      </trkpt>
      <trkpt lat="45.50333" lon="5.31134">
        <ele>517</ele>
        <time>2023-08-29T08:59:47Z</time>
      </trkpt>
      <trkpt lat="45.50336" lon="5.3113">
        <ele>516.4</ele>
        <time>2023-08-29T08:59:48Z</time>
      </trkpt>
      <trkpt lat="45.50339" lon="5.31126">
        <ele>516.4</ele>
        <time>2023-08-29T08:59:49Z</time>
      </trkpt>
      <trkpt lat="45.50343" lon="5.31122">
        <ele>516.4</ele>
        <time>2023-08-29T08:59:50Z</time>
      </trkpt>
      <trkpt lat="45.50347" lon="5.31117">
        <ele>516.4</ele>
        <time>2023-08-29T08:59:51Z</time>
      </trkpt>
      <trkpt lat="45.50351" lon="5.31113">
        <ele>516.4</ele>
        <time>2023-08-29T08:59:52Z</time>
      </trkpt>
      <trkpt lat="45.50355" lon="5.3111">
        <ele>516.4</ele>
        <time>2023-08-29T08:59:53Z</time>
      </trkpt>
      <trkpt lat="45.50359" lon="5.31106">
        <ele>516.4</ele>
        <time>2023-08-29T08:59:54Z</time>
      </trkpt>
      <trkpt lat="45.50363" lon="5.31102">
        <ele>516.4</ele>
        <time>2023-08-29T08:59:55Z</time>
      </trkpt>
      <trkpt lat="45.50367" lon="5.311">
        <ele>516.6</ele>
        <time>2023-08-29T08:59:56Z</time>
      </trkpt>
      <trkpt lat="45.50371" lon="5.31097">
        <ele>516.6</ele>
        <time>2023-08-29T08:59:57Z</time>
      </trkpt>
      <trkpt lat="45.50375" lon="5.31094">
        <ele>516.6</ele>
        <time>2023-08-29T08:59:58Z</time>
      </trkpt>
      <trkpt lat="45.50379" lon="5.31092">
        <ele>516.6</ele>
        <time>2023-08-29T08:59:59Z</time>
      </trkpt>
      <trkpt lat="45.50383" lon="5.31089">
        <ele>516.8</ele>
        <time>2023-08-29T09:00:00Z</time>
      </trkpt>
      <trkpt lat="45.50387" lon="5.31087">
        <ele>517</ele>
        <time>2023-08-29T09:00:01Z</time>
      </trkpt>
      <trkpt lat="45.5039" lon="5.31084">
        <ele>517.4</ele>
        <time>2023-08-29T09:00:02Z</time>
      </trkpt>
      <trkpt lat="45.50394" lon="5.31082">
        <ele>517.4</ele>
        <time>2023-08-29T09:00:03Z</time>
      </trkpt>
      <trkpt lat="45.50399" lon="5.31079">
        <ele>517.8</ele>
        <time>2023-08-29T09:00:04Z</time>
      </trkpt>
      <trkpt lat="45.50403" lon="5.31076">
        <ele>518</ele>
        <time>2023-08-29T09:00:05Z</time>
      </trkpt>
      <trkpt lat="45.50407" lon="5.31073">
        <ele>518.2</ele>
        <time>2023-08-29T09:00:06Z</time>
      </trkpt>
      <trkpt lat="45.50411" lon="5.31071">
        <ele>518.4</ele>
        <time>2023-08-29T09:00:07Z</time>
      </trkpt>
      <trkpt lat="45.50415" lon="5.31068">
        <ele>518.4</ele>
        <time>2023-08-29T09:00:08Z</time>
      </trkpt>
      <trkpt lat="45.50419" lon="5.31065">
        <ele>518.4</ele>
        <time>2023-08-29T09:00:09Z</time>
      </trkpt>
      <trkpt lat="45.50422" lon="5.31061">
        <ele>518.6</ele>
        <time>2023-08-29T09:00:10Z</time>
      </trkpt>
      <trkpt lat="45.50426" lon="5.31058">
        <ele>518.8</ele>
        <time>2023-08-29T09:00:11Z</time>
      </trkpt>
      <trkpt lat="45.50431" lon="5.31054">
        <ele>518.8</ele>
        <time>2023-08-29T09:00:12Z</time>
      </trkpt>
      <trkpt lat="45.50435" lon="5.31052">
        <ele>518.8</ele>
        <time>2023-08-29T09:00:13Z</time>
      </trkpt>
      <trkpt lat="45.50438" lon="5.31049">
        <ele>518.8</ele>
        <time>2023-08-29T09:00:14Z</time>
      </trkpt>
      <trkpt lat="45.50442" lon="5.31045">
        <ele>519</ele>
        <time>2023-08-29T09:00:15Z</time>
      </trkpt>
      <trkpt lat="45.50446" lon="5.31042">
        <ele>519</ele>
        <time>2023-08-29T09:00:16Z</time>
      </trkpt>
      <trkpt lat="45.5045" lon="5.31038">
        <ele>519</ele>
        <time>2023-08-29T09:00:17Z</time>
      </trkpt>
      <trkpt lat="45.50454" lon="5.31035">
        <ele>519.2</ele>
        <time>2023-08-29T09:00:18Z</time>
      </trkpt>
      <trkpt lat="45.50458" lon="5.31031">
        <ele>519.6</ele>
        <time>2023-08-29T09:00:19Z</time>
      </trkpt>
      <trkpt lat="45.50462" lon="5.31027">
        <ele>519.6</ele>
        <time>2023-08-29T09:00:20Z</time>
      </trkpt>
      <trkpt lat="45.50466" lon="5.31023">
        <ele>519.8</ele>
        <time>2023-08-29T09:00:21Z</time>
      </trkpt>
      <trkpt lat="45.5047" lon="5.31019">
        <ele>520.2</ele>
        <time>2023-08-29T09:00:22Z</time>
      </trkpt>
      <trkpt lat="45.50474" lon="5.31015">
        <ele>520.2</ele>
        <time>2023-08-29T09:00:23Z</time>
      </trkpt>
      <trkpt lat="45.50478" lon="5.31012">
        <ele>520.4</ele>
        <time>2023-08-29T09:00:24Z</time>
      </trkpt>
      <trkpt lat="45.50482" lon="5.31009">
        <ele>520.4</ele>
        <time>2023-08-29T09:00:25Z</time>
      </trkpt>
      <trkpt lat="45.50486" lon="5.31006">
        <ele>520.4</ele>
        <time>2023-08-29T09:00:26Z</time>
      </trkpt>
      <trkpt lat="45.5049" lon="5.31004">
        <ele>520.4</ele>
        <time>2023-08-29T09:00:27Z</time>
      </trkpt>
      <trkpt lat="45.50495" lon="5.31003">
        <ele>520.8</ele>
        <time>2023-08-29T09:00:28Z</time>
      </trkpt>
      <trkpt lat="45.50499" lon="5.31001">
        <ele>521</ele>
        <time>2023-08-29T09:00:29Z</time>
      </trkpt>
      <trkpt lat="45.50503" lon="5.31">
        <ele>521.4</ele>
        <time>2023-08-29T09:00:30Z</time>
      </trkpt>
      <trkpt lat="45.50507" lon="5.30999">
        <ele>521.6</ele>
        <time>2023-08-29T09:00:31Z</time>
      </trkpt>
      <trkpt lat="45.5051" lon="5.30998">
        <ele>521.6</ele>
        <time>2023-08-29T09:00:32Z</time>
      </trkpt>
      <trkpt lat="45.50513" lon="5.30996">
        <ele>522.2</ele>
        <time>2023-08-29T09:00:33Z</time>
      </trkpt>
      <trkpt lat="45.50516" lon="5.30994">
        <ele>522.4</ele>
        <time>2023-08-29T09:00:34Z</time>
      </trkpt>
      <trkpt lat="45.50519" lon="5.30992">
        <ele>522.6</ele>
        <time>2023-08-29T09:00:35Z</time>
      </trkpt>
      <trkpt lat="45.50522" lon="5.3099">
        <ele>522.8</ele>
        <time>2023-08-29T09:00:36Z</time>
      </trkpt>
      <trkpt lat="45.50525" lon="5.30989">
        <ele>523.2</ele>
        <time>2023-08-29T09:00:37Z</time>
      </trkpt>
      <trkpt lat="45.50528" lon="5.30988">
        <ele>523.4</ele>
        <time>2023-08-29T09:00:38Z</time>
      </trkpt>
      <trkpt lat="45.50531" lon="5.30987">
        <ele>523.6</ele>
        <time>2023-08-29T09:00:39Z</time>
      </trkpt>
      <trkpt lat="45.50534" lon="5.30985">
        <ele>524</ele>
        <time>2023-08-29T09:00:40Z</time>
      </trkpt>
      <trkpt lat="45.50538" lon="5.30984">
        <ele>524.4</ele>
        <time>2023-08-29T09:00:41Z</time>
      </trkpt>
      <trkpt lat="45.50541" lon="5.30982">
        <ele>525</ele>
        <time>2023-08-29T09:00:42Z</time>
      </trkpt>
      <trkpt lat="45.50544" lon="5.30981">
        <ele>525.2</ele>
        <time>2023-08-29T09:00:43Z</time>
      </trkpt>
      <trkpt lat="45.50547" lon="5.30979">
        <ele>525.4</ele>
        <time>2023-08-29T09:00:44Z</time>
      </trkpt>
      <trkpt lat="45.5055" lon="5.30978">
        <ele>526</ele>
        <time>2023-08-29T09:00:45Z</time>
      </trkpt>
      <trkpt lat="45.50552" lon="5.30978">
        <ele>526.2</ele>
        <time>2023-08-29T09:00:46Z</time>
      </trkpt>
      <trkpt lat="45.50555" lon="5.30977">
        <ele>526.6</ele>
        <time>2023-08-29T09:00:47Z</time>
      </trkpt>
      <trkpt lat="45.50557" lon="5.30975">
        <ele>526.8</ele>
        <time>2023-08-29T09:00:48Z</time>
      </trkpt>
      <trkpt lat="45.50559" lon="5.30974">
        <ele>526.8</ele>
        <time>2023-08-29T09:00:49Z</time>
      </trkpt>
      <trkpt lat="45.50562" lon="5.30973">
        <ele>527</ele>
        <time>2023-08-29T09:00:50Z</time>
      </trkpt>
      <trkpt lat="45.50564" lon="5.30972">
        <ele>527.2</ele>
        <time>2023-08-29T09:00:51Z</time>
      </trkpt>
      <trkpt lat="45.50566" lon="5.30971">
        <ele>527.2</ele>
        <time>2023-08-29T09:00:52Z</time>
      </trkpt>
      <trkpt lat="45.50569" lon="5.3097">
        <ele>527.4</ele>
        <time>2023-08-29T09:00:53Z</time>
      </trkpt>
      <trkpt lat="45.50571" lon="5.30968">
        <ele>527.6</ele>
        <time>2023-08-29T09:00:54Z</time>
      </trkpt>
      <trkpt lat="45.50574" lon="5.30967">
        <ele>527.8</ele>
        <time>2023-08-29T09:00:55Z</time>
      </trkpt>
      <trkpt lat="45.50576" lon="5.30967">
        <ele>528.2</ele>
        <time>2023-08-29T09:00:56Z</time>
      </trkpt>
      <trkpt lat="45.50578" lon="5.30966">
        <ele>528.4</ele>
        <time>2023-08-29T09:00:57Z</time>
      </trkpt>
      <trkpt lat="45.50581" lon="5.30965">
        <ele>528.6</ele>
        <time>2023-08-29T09:00:58Z</time>
      </trkpt>
      <trkpt lat="45.50584" lon="5.30963">
        <ele>529</ele>
        <time>2023-08-29T09:00:59Z</time>
      </trkpt>
      <trkpt lat="45.50587" lon="5.30962">
        <ele>529.2</ele>
        <time>2023-08-29T09:01:00Z</time>
      </trkpt>
      <trkpt lat="45.5059" lon="5.30961">
        <ele>529.2</ele>
        <time>2023-08-29T09:01:01Z</time>
      </trkpt>
      <trkpt lat="45.50593" lon="5.3096">
        <ele>529.6</ele>
        <time>2023-08-29T09:01:02Z</time>
      </trkpt>
      <trkpt lat="45.50596" lon="5.30958">
        <ele>529.8</ele>
        <time>2023-08-29T09:01:03Z</time>
      </trkpt>
      <trkpt lat="45.50598" lon="5.30957">
        <ele>530</ele>
        <time>2023-08-29T09:01:04Z</time>
      </trkpt>
      <trkpt lat="45.50601" lon="5.30956">
        <ele>530</ele>
        <time>2023-08-29T09:01:05Z</time>
      </trkpt>
      <trkpt lat="45.50604" lon="5.30956">
        <ele>530.2</ele>
        <time>2023-08-29T09:01:06Z</time>
      </trkpt>
      <trkpt lat="45.50606" lon="5.30955">
        <ele>530.2</ele>
        <time>2023-08-29T09:01:07Z</time>
      </trkpt>
      <trkpt lat="45.50609" lon="5.30953">
        <ele>530.2</ele>
        <time>2023-08-29T09:01:08Z</time>
      </trkpt>
      <trkpt lat="45.50612" lon="5.30952">
        <ele>530.2</ele>
        <time>2023-08-29T09:01:09Z</time>
      </trkpt>
      <trkpt lat="45.50614" lon="5.3095">
        <ele>530.2</ele>
        <time>2023-08-29T09:01:10Z</time>
      </trkpt>
      <trkpt lat="45.50617" lon="5.30947">
        <ele>530.2</ele>
        <time>2023-08-29T09:01:11Z</time>
      </trkpt>
      <trkpt lat="45.50619" lon="5.30943">
        <ele>530.4</ele>
        <time>2023-08-29T09:01:12Z</time>
      </trkpt>
      <trkpt lat="45.5062" lon="5.30937">
        <ele>530.6</ele>
        <time>2023-08-29T09:01:13Z</time>
      </trkpt>
      <trkpt lat="45.50622" lon="5.30931">
        <ele>530.6</ele>
        <time>2023-08-29T09:01:14Z</time>
      </trkpt>
      <trkpt lat="45.50623" lon="5.30925">
        <ele>530.6</ele>
        <time>2023-08-29T09:01:15Z</time>
      </trkpt>
      <trkpt lat="45.50625" lon="5.30919">
        <ele>530.6</ele>
        <time>2023-08-29T09:01:16Z</time>
      </trkpt>
      <trkpt lat="45.50626" lon="5.30913">
        <ele>530.6</ele>
        <time>2023-08-29T09:01:17Z</time>
      </trkpt>
      <trkpt lat="45.50628" lon="5.30905">
        <ele>530.6</ele>
        <time>2023-08-29T09:01:18Z</time>
      </trkpt>
      <trkpt lat="45.5063" lon="5.30898">
        <ele>530.6</ele>
        <time>2023-08-29T09:01:19Z</time>
      </trkpt>
      <trkpt lat="45.50631" lon="5.30892">
        <ele>530.6</ele>
        <time>2023-08-29T09:01:20Z</time>
      </trkpt>
      <trkpt lat="45.50633" lon="5.30884">
        <ele>530.6</ele>
        <time>2023-08-29T09:01:21Z</time>
      </trkpt>
      <trkpt lat="45.50635" lon="5.30876">
        <ele>530.4</ele>
        <time>2023-08-29T09:01:22Z</time>
      </trkpt>
      <trkpt lat="45.50637" lon="5.30869">
        <ele>530.4</ele>
        <time>2023-08-29T09:01:23Z</time>
      </trkpt>
      <trkpt lat="45.50639" lon="5.30861">
        <ele>530.2</ele>
        <time>2023-08-29T09:01:24Z</time>
      </trkpt>
      <trkpt lat="45.50641" lon="5.30854">
        <ele>530</ele>
        <time>2023-08-29T09:01:25Z</time>
      </trkpt>
      <trkpt lat="45.50643" lon="5.30846">
        <ele>529.4</ele>
        <time>2023-08-29T09:01:26Z</time>
      </trkpt>
      <trkpt lat="45.50645" lon="5.30838">
        <ele>528.8</ele>
        <time>2023-08-29T09:01:27Z</time>
      </trkpt>
      <trkpt lat="45.50647" lon="5.30831">
        <ele>528.8</ele>
        <time>2023-08-29T09:01:28Z</time>
      </trkpt>
      <trkpt lat="45.50649" lon="5.30824">
        <ele>528.6</ele>
        <time>2023-08-29T09:01:29Z</time>
      </trkpt>
      <trkpt lat="45.50651" lon="5.30818">
        <ele>528.6</ele>
        <time>2023-08-29T09:01:30Z</time>
      </trkpt>
      <trkpt lat="45.50653" lon="5.30812">
        <ele>528.6</ele>
        <time>2023-08-29T09:01:31Z</time>
      </trkpt>
      <trkpt lat="45.50655" lon="5.30806">
        <ele>528.6</ele>
        <time>2023-08-29T09:01:32Z</time>
      </trkpt>
      <trkpt lat="45.50657" lon="5.308">
        <ele>528.8</ele>
        <time>2023-08-29T09:01:33Z</time>
      </trkpt>
      <trkpt lat="45.50659" lon="5.30794">
        <ele>529</ele>
        <time>2023-08-29T09:01:34Z</time>
      </trkpt>
      <trkpt lat="45.50661" lon="5.30788">
        <ele>529.2</ele>
        <time>2023-08-29T09:01:35Z</time>
      </trkpt>
      <trkpt lat="45.50664" lon="5.30782">
        <ele>529.2</ele>
        <time>2023-08-29T09:01:36Z</time>
      </trkpt>
      <trkpt lat="45.50666" lon="5.30776">
        <ele>529.4</ele>
        <time>2023-08-29T09:01:37Z</time>
      </trkpt>
      <trkpt lat="45.50668" lon="5.30771">
        <ele>529.6</ele>
        <time>2023-08-29T09:01:38Z</time>
      </trkpt>
      <trkpt lat="45.5067" lon="5.30766">
        <ele>529.6</ele>
        <time>2023-08-29T09:01:39Z</time>
      </trkpt>
      <trkpt lat="45.50673" lon="5.3076">
        <ele>529.6</ele>
        <time>2023-08-29T09:01:40Z</time>
      </trkpt>
      <trkpt lat="45.50674" lon="5.30754">
        <ele>529.8</ele>
        <time>2023-08-29T09:01:41Z</time>
      </trkpt>
      <trkpt lat="45.50676" lon="5.30749">
        <ele>530.2</ele>
        <time>2023-08-29T09:01:42Z</time>
      </trkpt>
      <trkpt lat="45.50677" lon="5.30744">
        <ele>530.6</ele>
        <time>2023-08-29T09:01:43Z</time>
      </trkpt>
      <trkpt lat="45.50679" lon="5.30738">
        <ele>530.8</ele>
        <time>2023-08-29T09:01:44Z</time>
      </trkpt>
      <trkpt lat="45.50681" lon="5.30734">
        <ele>531.4</ele>
        <time>2023-08-29T09:01:45Z</time>
      </trkpt>
      <trkpt lat="45.50682" lon="5.3073">
        <ele>531.6</ele>
        <time>2023-08-29T09:01:46Z</time>
      </trkpt>
      <trkpt lat="45.50683" lon="5.30726">
        <ele>531.8</ele>
        <time>2023-08-29T09:01:47Z</time>
      </trkpt>
      <trkpt lat="45.50684" lon="5.30722">
        <ele>531.8</ele>
        <time>2023-08-29T09:01:48Z</time>
      </trkpt>
      <trkpt lat="45.50685" lon="5.30717">
        <ele>532.2</ele>
        <time>2023-08-29T09:01:49Z</time>
      </trkpt>
      <trkpt lat="45.50685" lon="5.30712">
        <ele>532.4</ele>
        <time>2023-08-29T09:01:50Z</time>
      </trkpt>
      <trkpt lat="45.50686" lon="5.30708">
        <ele>532.6</ele>
        <time>2023-08-29T09:01:51Z</time>
      </trkpt>
      <trkpt lat="45.50687" lon="5.30703">
        <ele>532.8</ele>
        <time>2023-08-29T09:01:52Z</time>
      </trkpt>
      <trkpt lat="45.50687" lon="5.30698">
        <ele>532.8</ele>
        <time>2023-08-29T09:01:53Z</time>
      </trkpt>
      <trkpt lat="45.50688" lon="5.30693">
        <ele>532.8</ele>
        <time>2023-08-29T09:01:54Z</time>
      </trkpt>
      <trkpt lat="45.50688" lon="5.30687">
        <ele>532.8</ele>
        <time>2023-08-29T09:01:55Z</time>
      </trkpt>
      <trkpt lat="45.50688" lon="5.30681">
        <ele>532.8</ele>
        <time>2023-08-29T09:01:56Z</time>
      </trkpt>
      <trkpt lat="45.50688" lon="5.30676">
        <ele>533</ele>
        <time>2023-08-29T09:01:57Z</time>
      </trkpt>
      <trkpt lat="45.50688" lon="5.3067">
        <ele>533</ele>
        <time>2023-08-29T09:01:58Z</time>
      </trkpt>
      <trkpt lat="45.50688" lon="5.30663">
        <ele>533</ele>
        <time>2023-08-29T09:01:59Z</time>
      </trkpt>
      <trkpt lat="45.50688" lon="5.30658">
        <ele>533</ele>
        <time>2023-08-29T09:02:00Z</time>
      </trkpt>
      <trkpt lat="45.50688" lon="5.30653">
        <ele>533</ele>
        <time>2023-08-29T09:02:01Z</time>
      </trkpt>
      <trkpt lat="45.50687" lon="5.30647">
        <ele>533</ele>
        <time>2023-08-29T09:02:02Z</time>
      </trkpt>
      <trkpt lat="45.50687" lon="5.30641">
        <ele>533</ele>
        <time>2023-08-29T09:02:03Z</time>
      </trkpt>
      <trkpt lat="45.50686" lon="5.30636">
        <ele>533.6</ele>
        <time>2023-08-29T09:02:04Z</time>
      </trkpt>
      <trkpt lat="45.50686" lon="5.30629">
        <ele>533.6</ele>
        <time>2023-08-29T09:02:05Z</time>
      </trkpt>
      <trkpt lat="45.50686" lon="5.30623">
        <ele>533.8</ele>
        <time>2023-08-29T09:02:06Z</time>
      </trkpt>
      <trkpt lat="45.50686" lon="5.30617">
        <ele>534</ele>
        <time>2023-08-29T09:02:07Z</time>
      </trkpt>
      <trkpt lat="45.50685" lon="5.30611">
        <ele>534</ele>
        <time>2023-08-29T09:02:08Z</time>
      </trkpt>
      <trkpt lat="45.50685" lon="5.30604">
        <ele>534</ele>
        <time>2023-08-29T09:02:09Z</time>
      </trkpt>
      <trkpt lat="45.50685" lon="5.30598">
        <ele>534.2</ele>
        <time>2023-08-29T09:02:10Z</time>
      </trkpt>
      <trkpt lat="45.50685" lon="5.30591">
        <ele>534.2</ele>
        <time>2023-08-29T09:02:11Z</time>
      </trkpt>
      <trkpt lat="45.50684" lon="5.30585">
        <ele>534.2</ele>
        <time>2023-08-29T09:02:12Z</time>
      </trkpt>
      <trkpt lat="45.50684" lon="5.30579">
        <ele>534.4</ele>
        <time>2023-08-29T09:02:13Z</time>
      </trkpt>
      <trkpt lat="45.50684" lon="5.30573">
        <ele>534.4</ele>
        <time>2023-08-29T09:02:14Z</time>
      </trkpt>
      <trkpt lat="45.50684" lon="5.30567">
        <ele>534.4</ele>
        <time>2023-08-29T09:02:15Z</time>
      </trkpt>
      <trkpt lat="45.50684" lon="5.30561">
        <ele>534.4</ele>
        <time>2023-08-29T09:02:16Z</time>
      </trkpt>
      <trkpt lat="45.50684" lon="5.30555">
        <ele>534.6</ele>
        <time>2023-08-29T09:02:17Z</time>
      </trkpt>
      <trkpt lat="45.50684" lon="5.30549">
        <ele>534.6</ele>
        <time>2023-08-29T09:02:18Z</time>
      </trkpt>
      <trkpt lat="45.50684" lon="5.30544">
        <ele>534.6</ele>
        <time>2023-08-29T09:02:19Z</time>
      </trkpt>
      <trkpt lat="45.50683" lon="5.30536">
        <ele>534.8</ele>
        <time>2023-08-29T09:02:20Z</time>
      </trkpt>
      <trkpt lat="45.50684" lon="5.3053">
        <ele>535.2</ele>
        <time>2023-08-29T09:02:21Z</time>
      </trkpt>
      <trkpt lat="45.50685" lon="5.30524">
        <ele>535.4</ele>
        <time>2023-08-29T09:02:22Z</time>
      </trkpt>
      <trkpt lat="45.50686" lon="5.30518">
        <ele>536</ele>
        <time>2023-08-29T09:02:23Z</time>
      </trkpt>
      <trkpt lat="45.50687" lon="5.30512">
        <ele>536</ele>
        <time>2023-08-29T09:02:24Z</time>
      </trkpt>
      <trkpt lat="45.50688" lon="5.30507">
        <ele>536.2</ele>
        <time>2023-08-29T09:02:25Z</time>
      </trkpt>
      <trkpt lat="45.5069" lon="5.30502">
        <ele>536.6</ele>
        <time>2023-08-29T09:02:26Z</time>
      </trkpt>
      <trkpt lat="45.50692" lon="5.30496">
        <ele>536.8</ele>
        <time>2023-08-29T09:02:27Z</time>
      </trkpt>
      <trkpt lat="45.50694" lon="5.30491">
        <ele>537</ele>
        <time>2023-08-29T09:02:28Z</time>
      </trkpt>
      <trkpt lat="45.50697" lon="5.30485">
        <ele>537.2</ele>
        <time>2023-08-29T09:02:29Z</time>
      </trkpt>
      <trkpt lat="45.50699" lon="5.30481">
        <ele>537.2</ele>
        <time>2023-08-29T09:02:30Z</time>
      </trkpt>
      <trkpt lat="45.50702" lon="5.30476">
        <ele>537.2</ele>
        <time>2023-08-29T09:02:31Z</time>
      </trkpt>
      <trkpt lat="45.50704" lon="5.30471">
        <ele>537.2</ele>
        <time>2023-08-29T09:02:32Z</time>
      </trkpt>
      <trkpt lat="45.50707" lon="5.30467">
        <ele>537.4</ele>
        <time>2023-08-29T09:02:33Z</time>
      </trkpt>
      <trkpt lat="45.5071" lon="5.30462">
        <ele>537.4</ele>
        <time>2023-08-29T09:02:34Z</time>
      </trkpt>
      <trkpt lat="45.50712" lon="5.30457">
        <ele>537.4</ele>
        <time>2023-08-29T09:02:35Z</time>
      </trkpt>
      <trkpt lat="45.50715" lon="5.30452">
        <ele>537.4</ele>
        <time>2023-08-29T09:02:36Z</time>
      </trkpt>
      <trkpt lat="45.50718" lon="5.30448">
        <ele>537.4</ele>
        <time>2023-08-29T09:02:37Z</time>
      </trkpt>
      <trkpt lat="45.50721" lon="5.30443">
        <ele>537.4</ele>
        <time>2023-08-29T09:02:38Z</time>
      </trkpt>
      <trkpt lat="45.50723" lon="5.30438">
        <ele>537.4</ele>
        <time>2023-08-29T09:02:39Z</time>
      </trkpt>
      <trkpt lat="45.50726" lon="5.30433">
        <ele>537.6</ele>
        <time>2023-08-29T09:02:40Z</time>
      </trkpt>
      <trkpt lat="45.50728" lon="5.30429">
        <ele>537.6</ele>
        <time>2023-08-29T09:02:41Z</time>
      </trkpt>
      <trkpt lat="45.50731" lon="5.30425">
        <ele>537.6</ele>
        <time>2023-08-29T09:02:42Z</time>
      </trkpt>
      <trkpt lat="45.50733" lon="5.3042">
        <ele>537.6</ele>
        <time>2023-08-29T09:02:43Z</time>
      </trkpt>
      <trkpt lat="45.50736" lon="5.30416">
        <ele>537.8</ele>
        <time>2023-08-29T09:02:44Z</time>
      </trkpt>
      <trkpt lat="45.50739" lon="5.30412">
        <ele>537.8</ele>
        <time>2023-08-29T09:02:45Z</time>
      </trkpt>
      <trkpt lat="45.50741" lon="5.30407">
        <ele>537.8</ele>
        <time>2023-08-29T09:02:46Z</time>
      </trkpt>
      <trkpt lat="45.50744" lon="5.30403">
        <ele>538</ele>
        <time>2023-08-29T09:02:47Z</time>
      </trkpt>
      <trkpt lat="45.50747" lon="5.30399">
        <ele>538.2</ele>
        <time>2023-08-29T09:02:48Z</time>
      </trkpt>
      <trkpt lat="45.50751" lon="5.30395">
        <ele>538.4</ele>
        <time>2023-08-29T09:02:49Z</time>
      </trkpt>
      <trkpt lat="45.50753" lon="5.30392">
        <ele>538.4</ele>
        <time>2023-08-29T09:02:50Z</time>
      </trkpt>
      <trkpt lat="45.50756" lon="5.30387">
        <ele>538.6</ele>
        <time>2023-08-29T09:02:51Z</time>
      </trkpt>
      <trkpt lat="45.5076" lon="5.30382">
        <ele>538.8</ele>
        <time>2023-08-29T09:02:52Z</time>
      </trkpt>
      <trkpt lat="45.50762" lon="5.30378">
        <ele>538.8</ele>
        <time>2023-08-29T09:02:53Z</time>
      </trkpt>
      <trkpt lat="45.50765" lon="5.30375">
        <ele>538.8</ele>
        <time>2023-08-29T09:02:54Z</time>
      </trkpt>
      <trkpt lat="45.50768" lon="5.3037">
        <ele>539.2</ele>
        <time>2023-08-29T09:02:55Z</time>
      </trkpt>
      <trkpt lat="45.50771" lon="5.30367">
        <ele>539.4</ele>
        <time>2023-08-29T09:02:56Z</time>
      </trkpt>
      <trkpt lat="45.50773" lon="5.30363">
        <ele>539.6</ele>
        <time>2023-08-29T09:02:57Z</time>
      </trkpt>
      <trkpt lat="45.50776" lon="5.30359">
        <ele>539.8</ele>
        <time>2023-08-29T09:02:58Z</time>
      </trkpt>
      <trkpt lat="45.50779" lon="5.30355">
        <ele>539.8</ele>
        <time>2023-08-29T09:02:59Z</time>
      </trkpt>
      <trkpt lat="45.50781" lon="5.3035">
        <ele>540</ele>
        <time>2023-08-29T09:03:00Z</time>
      </trkpt>
      <trkpt lat="45.50783" lon="5.30346">
        <ele>540</ele>
        <time>2023-08-29T09:03:01Z</time>
      </trkpt>
      <trkpt lat="45.50786" lon="5.30342">
        <ele>540</ele>
        <time>2023-08-29T09:03:02Z</time>
      </trkpt>
      <trkpt lat="45.50788" lon="5.30338">
        <ele>540.2</ele>
        <time>2023-08-29T09:03:03Z</time>
      </trkpt>
      <trkpt lat="45.50789" lon="5.30336">
        <ele>540.2</ele>
        <time>2023-08-29T09:03:04Z</time>
      </trkpt>
      <trkpt lat="45.50791" lon="5.30333">
        <ele>540.4</ele>
        <time>2023-08-29T09:03:05Z</time>
      </trkpt>
      <trkpt lat="45.50793" lon="5.3033">
        <ele>540.4</ele>
        <time>2023-08-29T09:03:06Z</time>
      </trkpt>
      <trkpt lat="45.50795" lon="5.30326">
        <ele>540.8</ele>
        <time>2023-08-29T09:03:07Z</time>
      </trkpt>
      <trkpt lat="45.50797" lon="5.30323">
        <ele>541</ele>
        <time>2023-08-29T09:03:08Z</time>
      </trkpt>
      <trkpt lat="45.50799" lon="5.3032">
        <ele>541</ele>
        <time>2023-08-29T09:03:09Z</time>
      </trkpt>
      <trkpt lat="45.50801" lon="5.30317">
        <ele>541</ele>
        <time>2023-08-29T09:03:10Z</time>
      </trkpt>
      <trkpt lat="45.50802" lon="5.30315">
        <ele>541</ele>
        <time>2023-08-29T09:03:11Z</time>
      </trkpt>
      <trkpt lat="45.50802" lon="5.30314">
        <ele>540.8</ele>
        <time>2023-08-29T09:03:12Z</time>
      </trkpt>
      <trkpt lat="45.50803" lon="5.30313">
        <ele>540.6</ele>
        <time>2023-08-29T09:03:13Z</time>
      </trkpt>
      <trkpt lat="45.50803" lon="5.30313">
        <ele>540.6</ele>
        <time>2023-08-29T09:03:14Z</time>
      </trkpt>
      <trkpt lat="45.50805" lon="5.3031">
        <ele>540.6</ele>
        <time>2023-08-29T09:03:19Z</time>
      </trkpt>
      <trkpt lat="45.50806" lon="5.30308">
        <ele>540.6</ele>
        <time>2023-08-29T09:03:20Z</time>
      </trkpt>
      <trkpt lat="45.50808" lon="5.30306">
        <ele>540.6</ele>
        <time>2023-08-29T09:03:21Z</time>
      </trkpt>
      <trkpt lat="45.5081" lon="5.30304">
        <ele>540.6</ele>
        <time>2023-08-29T09:03:22Z</time>
      </trkpt>
      <trkpt lat="45.50813" lon="5.30301">
        <ele>540.6</ele>
        <time>2023-08-29T09:03:23Z</time>
      </trkpt>
      <trkpt lat="45.50816" lon="5.30298">
        <ele>540.6</ele>
        <time>2023-08-29T09:03:24Z</time>
      </trkpt>
      <trkpt lat="45.50818" lon="5.30296">
        <ele>540.6</ele>
        <time>2023-08-29T09:03:25Z</time>
      </trkpt>
      <trkpt lat="45.5082" lon="5.30292">
        <ele>540.6</ele>
        <time>2023-08-29T09:03:26Z</time>
      </trkpt>
      <trkpt lat="45.50822" lon="5.30288">
        <ele>540.6</ele>
        <time>2023-08-29T09:03:27Z</time>
      </trkpt>
      <trkpt lat="45.50823" lon="5.30285">
        <ele>540.6</ele>
        <time>2023-08-29T09:03:28Z</time>
      </trkpt>
      <trkpt lat="45.50825" lon="5.30282">
        <ele>540.6</ele>
        <time>2023-08-29T09:03:29Z</time>
      </trkpt>
      <trkpt lat="45.50826" lon="5.30278">
        <ele>540.8</ele>
        <time>2023-08-29T09:03:30Z</time>
      </trkpt>
      <trkpt lat="45.50828" lon="5.30274">
        <ele>540.8</ele>
        <time>2023-08-29T09:03:31Z</time>
      </trkpt>
      <trkpt lat="45.5083" lon="5.3027">
        <ele>541</ele>
        <time>2023-08-29T09:03:32Z</time>
      </trkpt>
      <trkpt lat="45.50832" lon="5.30267">
        <ele>541</ele>
        <time>2023-08-29T09:03:33Z</time>
      </trkpt>
      <trkpt lat="45.50834" lon="5.30263">
        <ele>541.2</ele>
        <time>2023-08-29T09:03:34Z</time>
      </trkpt>
      <trkpt lat="45.50836" lon="5.30259">
        <ele>541.2</ele>
        <time>2023-08-29T09:03:35Z</time>
      </trkpt>
      <trkpt lat="45.50838" lon="5.30255">
        <ele>541.2</ele>
        <time>2023-08-29T09:03:36Z</time>
      </trkpt>
      <trkpt lat="45.50839" lon="5.30251">
        <ele>541.2</ele>
        <time>2023-08-29T09:03:37Z</time>
      </trkpt>
      <trkpt lat="45.50841" lon="5.30247">
        <ele>541.2</ele>
        <time>2023-08-29T09:03:38Z</time>
      </trkpt>
      <trkpt lat="45.50843" lon="5.30243">
        <ele>541</ele>
        <time>2023-08-29T09:03:39Z</time>
      </trkpt>
      <trkpt lat="45.50846" lon="5.30239">
        <ele>541</ele>
        <time>2023-08-29T09:03:40Z</time>
      </trkpt>
      <trkpt lat="45.50848" lon="5.30235">
        <ele>540.8</ele>
        <time>2023-08-29T09:03:41Z</time>
      </trkpt>
      <trkpt lat="45.5085" lon="5.3023">
        <ele>540.8</ele>
        <time>2023-08-29T09:03:42Z</time>
      </trkpt>
      <trkpt lat="45.50852" lon="5.30225">
        <ele>540.8</ele>
        <time>2023-08-29T09:03:43Z</time>
      </trkpt>
      <trkpt lat="45.50855" lon="5.3022">
        <ele>540.8</ele>
        <time>2023-08-29T09:03:44Z</time>
      </trkpt>
      <trkpt lat="45.50858" lon="5.30216">
        <ele>540.6</ele>
        <time>2023-08-29T09:03:45Z</time>
      </trkpt>
      <trkpt lat="45.5086" lon="5.30211">
        <ele>540.4</ele>
        <time>2023-08-29T09:03:46Z</time>
      </trkpt>
      <trkpt lat="45.50863" lon="5.30207">
        <ele>540.2</ele>
        <time>2023-08-29T09:03:47Z</time>
      </trkpt>
      <trkpt lat="45.50865" lon="5.30202">
        <ele>540.2</ele>
        <time>2023-08-29T09:03:48Z</time>
      </trkpt>
      <trkpt lat="45.50867" lon="5.30198">
        <ele>540.2</ele>
        <time>2023-08-29T09:03:49Z</time>
      </trkpt>
      <trkpt lat="45.50869" lon="5.30194">
        <ele>540.2</ele>
        <time>2023-08-29T09:03:50Z</time>
      </trkpt>
      <trkpt lat="45.50871" lon="5.3019">
        <ele>540</ele>
        <time>2023-08-29T09:03:51Z</time>
      </trkpt>
      <trkpt lat="45.50874" lon="5.30185">
        <ele>540</ele>
        <time>2023-08-29T09:03:52Z</time>
      </trkpt>
      <trkpt lat="45.50876" lon="5.30181">
        <ele>539.6</ele>
        <time>2023-08-29T09:03:53Z</time>
      </trkpt>
      <trkpt lat="45.50878" lon="5.30176">
        <ele>539.4</ele>
        <time>2023-08-29T09:03:54Z</time>
      </trkpt>
      <trkpt lat="45.50881" lon="5.30171">
        <ele>539.4</ele>
        <time>2023-08-29T09:03:55Z</time>
      </trkpt>
      <trkpt lat="45.50883" lon="5.30166">
        <ele>539.4</ele>
        <time>2023-08-29T09:03:56Z</time>
      </trkpt>
      <trkpt lat="45.50886" lon="5.30162">
        <ele>539.4</ele>
        <time>2023-08-29T09:03:57Z</time>
      </trkpt>
      <trkpt lat="45.50889" lon="5.30157">
        <ele>539.4</ele>
        <time>2023-08-29T09:03:58Z</time>
      </trkpt>
      <trkpt lat="45.50892" lon="5.30152">
        <ele>539.4</ele>
        <time>2023-08-29T09:03:59Z</time>
      </trkpt>
      <trkpt lat="45.50895" lon="5.30147">
        <ele>539.4</ele>
        <time>2023-08-29T09:04:00Z</time>
      </trkpt>
      <trkpt lat="45.50898" lon="5.30142">
        <ele>539.4</ele>
        <time>2023-08-29T09:04:01Z</time>
      </trkpt>
      <trkpt lat="45.509" lon="5.30136">
        <ele>539.4</ele>
        <time>2023-08-29T09:04:02Z</time>
      </trkpt>
      <trkpt lat="45.50904" lon="5.30131">
        <ele>539.2</ele>
        <time>2023-08-29T09:04:03Z</time>
      </trkpt>
      <trkpt lat="45.50907" lon="5.30125">
        <ele>539</ele>
        <time>2023-08-29T09:04:04Z</time>
      </trkpt>
      <trkpt lat="45.5091" lon="5.30118">
        <ele>538.8</ele>
        <time>2023-08-29T09:04:05Z</time>
      </trkpt>
      <trkpt lat="45.50912" lon="5.30111">
        <ele>538</ele>
        <time>2023-08-29T09:04:06Z</time>
      </trkpt>
      <trkpt lat="45.50915" lon="5.30104">
        <ele>538</ele>
        <time>2023-08-29T09:04:07Z</time>
      </trkpt>
      <trkpt lat="45.50918" lon="5.30096">
        <ele>537.6</ele>
        <time>2023-08-29T09:04:08Z</time>
      </trkpt>
      <trkpt lat="45.50921" lon="5.30087">
        <ele>537.2</ele>
        <time>2023-08-29T09:04:09Z</time>
      </trkpt>
      <trkpt lat="45.50924" lon="5.30079">
        <ele>536.6</ele>
        <time>2023-08-29T09:04:10Z</time>
      </trkpt>
      <trkpt lat="45.50926" lon="5.30071">
        <ele>536.4</ele>
        <time>2023-08-29T09:04:11Z</time>
      </trkpt>
      <trkpt lat="45.50929" lon="5.30063">
        <ele>535.8</ele>
        <time>2023-08-29T09:04:12Z</time>
      </trkpt>
      <trkpt lat="45.50931" lon="5.30054">
        <ele>535.2</ele>
        <time>2023-08-29T09:04:13Z</time>
      </trkpt>
      <trkpt lat="45.50934" lon="5.30045">
        <ele>535</ele>
        <time>2023-08-29T09:04:14Z</time>
      </trkpt>
      <trkpt lat="45.50936" lon="5.30036">
        <ele>534.8</ele>
        <time>2023-08-29T09:04:15Z</time>
      </trkpt>
      <trkpt lat="45.50938" lon="5.30026">
        <ele>534.8</ele>
        <time>2023-08-29T09:04:16Z</time>
      </trkpt>
      <trkpt lat="45.5094" lon="5.30017">
        <ele>534.4</ele>
        <time>2023-08-29T09:04:17Z</time>
      </trkpt>
      <trkpt lat="45.50941" lon="5.30009">
        <ele>534</ele>
        <time>2023-08-29T09:04:18Z</time>
      </trkpt>
      <trkpt lat="45.50942" lon="5.3">
        <ele>533.8</ele>
        <time>2023-08-29T09:04:19Z</time>
      </trkpt>
      <trkpt lat="45.50943" lon="5.29992">
        <ele>533.4</ele>
        <time>2023-08-29T09:04:20Z</time>
      </trkpt>
      <trkpt lat="45.50944" lon="5.29983">
        <ele>533</ele>
        <time>2023-08-29T09:04:21Z</time>
      </trkpt>
      <trkpt lat="45.50946" lon="5.29974">
        <ele>533</ele>
        <time>2023-08-29T09:04:22Z</time>
      </trkpt>
      <trkpt lat="45.50947" lon="5.29965">
        <ele>533</ele>
        <time>2023-08-29T09:04:23Z</time>
      </trkpt>
      <trkpt lat="45.50947" lon="5.29957">
        <ele>532.8</ele>
        <time>2023-08-29T09:04:24Z</time>
      </trkpt>
      <trkpt lat="45.50948" lon="5.29948">
        <ele>532.6</ele>
        <time>2023-08-29T09:04:25Z</time>
      </trkpt>
      <trkpt lat="45.50949" lon="5.29939">
        <ele>532.4</ele>
        <time>2023-08-29T09:04:26Z</time>
      </trkpt>
      <trkpt lat="45.5095" lon="5.2993">
        <ele>532.4</ele>
        <time>2023-08-29T09:04:27Z</time>
      </trkpt>
      <trkpt lat="45.50951" lon="5.29921">
        <ele>532.2</ele>
        <time>2023-08-29T09:04:28Z</time>
      </trkpt>
      <trkpt lat="45.50952" lon="5.29912">
        <ele>532.2</ele>
        <time>2023-08-29T09:04:29Z</time>
      </trkpt>
      <trkpt lat="45.50953" lon="5.29903">
        <ele>532.2</ele>
        <time>2023-08-29T09:04:30Z</time>
      </trkpt>
      <trkpt lat="45.50954" lon="5.29893">
        <ele>532.2</ele>
        <time>2023-08-29T09:04:31Z</time>
      </trkpt>
      <trkpt lat="45.50955" lon="5.29883">
        <ele>532</ele>
        <time>2023-08-29T09:04:32Z</time>
      </trkpt>
      <trkpt lat="45.50956" lon="5.29874">
        <ele>531.6</ele>
        <time>2023-08-29T09:04:33Z</time>
      </trkpt>
      <trkpt lat="45.50957" lon="5.29865">
        <ele>531.4</ele>
        <time>2023-08-29T09:04:34Z</time>
      </trkpt>
      <trkpt lat="45.50958" lon="5.29854">
        <ele>531</ele>
        <time>2023-08-29T09:04:35Z</time>
      </trkpt>
      <trkpt lat="45.50959" lon="5.29844">
        <ele>530.4</ele>
        <time>2023-08-29T09:04:36Z</time>
      </trkpt>
      <trkpt lat="45.5096" lon="5.29835">
        <ele>530.2</ele>
        <time>2023-08-29T09:04:37Z</time>
      </trkpt>
      <trkpt lat="45.50961" lon="5.29825">
        <ele>530</ele>
        <time>2023-08-29T09:04:38Z</time>
      </trkpt>
      <trkpt lat="45.50962" lon="5.29816">
        <ele>530</ele>
        <time>2023-08-29T09:04:39Z</time>
      </trkpt>
      <trkpt lat="45.50963" lon="5.29806">
        <ele>529.6</ele>
        <time>2023-08-29T09:04:40Z</time>
      </trkpt>
      <trkpt lat="45.50963" lon="5.29796">
        <ele>529.6</ele>
        <time>2023-08-29T09:04:41Z</time>
      </trkpt>
      <trkpt lat="45.50964" lon="5.29786">
        <ele>529.6</ele>
        <time>2023-08-29T09:04:42Z</time>
      </trkpt>
      <trkpt lat="45.50965" lon="5.29776">
        <ele>529.4</ele>
        <time>2023-08-29T09:04:43Z</time>
      </trkpt>
      <trkpt lat="45.50966" lon="5.29766">
        <ele>529.4</ele>
        <time>2023-08-29T09:04:44Z</time>
      </trkpt>
      <trkpt lat="45.50967" lon="5.29756">
        <ele>528.4</ele>
        <time>2023-08-29T09:04:45Z</time>
      </trkpt>
      <trkpt lat="45.50968" lon="5.29746">
        <ele>528</ele>
        <time>2023-08-29T09:04:46Z</time>
      </trkpt>
      <trkpt lat="45.50968" lon="5.29735">
        <ele>527.8</ele>
        <time>2023-08-29T09:04:47Z</time>
      </trkpt>
      <trkpt lat="45.50969" lon="5.29724">
        <ele>527.4</ele>
        <time>2023-08-29T09:04:48Z</time>
      </trkpt>
      <trkpt lat="45.50969" lon="5.29713">
        <ele>527.2</ele>
        <time>2023-08-29T09:04:49Z</time>
      </trkpt>
      <trkpt lat="45.5097" lon="5.29701">
        <ele>526.8</ele>
        <time>2023-08-29T09:04:50Z</time>
      </trkpt>
      <trkpt lat="45.5097" lon="5.2969">
        <ele>526.6</ele>
        <time>2023-08-29T09:04:51Z</time>
      </trkpt>
      <trkpt lat="45.50969" lon="5.29678">
        <ele>526.4</ele>
        <time>2023-08-29T09:04:52Z</time>
      </trkpt>
      <trkpt lat="45.50969" lon="5.29666">
        <ele>526</ele>
        <time>2023-08-29T09:04:53Z</time>
      </trkpt>
      <trkpt lat="45.50968" lon="5.29654">
        <ele>525.4</ele>
        <time>2023-08-29T09:04:54Z</time>
      </trkpt>
      <trkpt lat="45.50966" lon="5.29641">
        <ele>524.8</ele>
        <time>2023-08-29T09:04:55Z</time>
      </trkpt>
      <trkpt lat="45.50965" lon="5.29628">
        <ele>524.6</ele>
        <time>2023-08-29T09:04:56Z</time>
      </trkpt>
      <trkpt lat="45.50963" lon="5.29614">
        <ele>523.4</ele>
        <time>2023-08-29T09:04:57Z</time>
      </trkpt>
      <trkpt lat="45.50961" lon="5.296">
        <ele>522.8</ele>
        <time>2023-08-29T09:04:58Z</time>
      </trkpt>
      <trkpt lat="45.50959" lon="5.29585">
        <ele>522.2</ele>
        <time>2023-08-29T09:04:59Z</time>
      </trkpt>
      <trkpt lat="45.50957" lon="5.2957">
        <ele>521.6</ele>
        <time>2023-08-29T09:05:00Z</time>
      </trkpt>
      <trkpt lat="45.50955" lon="5.29556">
        <ele>520.4</ele>
        <time>2023-08-29T09:05:01Z</time>
      </trkpt>
      <trkpt lat="45.50953" lon="5.29542">
        <ele>520</ele>
        <time>2023-08-29T09:05:02Z</time>
      </trkpt>
      <trkpt lat="45.50951" lon="5.29529">
        <ele>518.8</ele>
        <time>2023-08-29T09:05:03Z</time>
      </trkpt>
      <trkpt lat="45.50949" lon="5.29517">
        <ele>517</ele>
        <time>2023-08-29T09:05:04Z</time>
      </trkpt>
      <trkpt lat="45.50948" lon="5.29507">
        <ele>516.4</ele>
        <time>2023-08-29T09:05:05Z</time>
      </trkpt>
      <trkpt lat="45.50947" lon="5.29497">
        <ele>515.6</ele>
        <time>2023-08-29T09:05:06Z</time>
      </trkpt>
      <trkpt lat="45.50948" lon="5.29487">
        <ele>515.6</ele>
        <time>2023-08-29T09:05:07Z</time>
      </trkpt>
      <trkpt lat="45.50951" lon="5.2948">
        <ele>515.2</ele>
        <time>2023-08-29T09:05:08Z</time>
      </trkpt>
      <trkpt lat="45.50955" lon="5.29472">
        <ele>514.8</ele>
        <time>2023-08-29T09:05:09Z</time>
      </trkpt>
      <trkpt lat="45.50959" lon="5.29465">
        <ele>514.4</ele>
        <time>2023-08-29T09:05:10Z</time>
      </trkpt>
      <trkpt lat="45.50964" lon="5.29458">
        <ele>514.4</ele>
        <time>2023-08-29T09:05:11Z</time>
      </trkpt>
      <trkpt lat="45.50969" lon="5.2945">
        <ele>514.2</ele>
        <time>2023-08-29T09:05:12Z</time>
      </trkpt>
      <trkpt lat="45.50974" lon="5.29442">
        <ele>514</ele>
        <time>2023-08-29T09:05:13Z</time>
      </trkpt>
      <trkpt lat="45.50979" lon="5.29436">
        <ele>513.6</ele>
        <time>2023-08-29T09:05:14Z</time>
      </trkpt>
      <trkpt lat="45.50984" lon="5.29429">
        <ele>512.8</ele>
        <time>2023-08-29T09:05:15Z</time>
      </trkpt>
      <trkpt lat="45.50989" lon="5.29421">
        <ele>512.2</ele>
        <time>2023-08-29T09:05:16Z</time>
      </trkpt>
      <trkpt lat="45.50994" lon="5.29414">
        <ele>512</ele>
        <time>2023-08-29T09:05:17Z</time>
      </trkpt>
      <trkpt lat="45.50999" lon="5.29408">
        <ele>511.8</ele>
        <time>2023-08-29T09:05:18Z</time>
      </trkpt>
      <trkpt lat="45.51003" lon="5.29403">
        <ele>511.6</ele>
        <time>2023-08-29T09:05:19Z</time>
      </trkpt>
      <trkpt lat="45.51006" lon="5.29397">
        <ele>511.4</ele>
        <time>2023-08-29T09:05:20Z</time>
      </trkpt>
      <trkpt lat="45.51008" lon="5.2939">
        <ele>511.2</ele>
        <time>2023-08-29T09:05:21Z</time>
      </trkpt>
      <trkpt lat="45.5101" lon="5.29383">
        <ele>511</ele>
        <time>2023-08-29T09:05:22Z</time>
      </trkpt>
      <trkpt lat="45.5101" lon="5.29374">
        <ele>510.4</ele>
        <time>2023-08-29T09:05:23Z</time>
      </trkpt>
      <trkpt lat="45.5101" lon="5.29364">
        <ele>510.2</ele>
        <time>2023-08-29T09:05:24Z</time>
      </trkpt>
      <trkpt lat="45.51009" lon="5.29354">
        <ele>509.8</ele>
        <time>2023-08-29T09:05:25Z</time>
      </trkpt>
      <trkpt lat="45.51009" lon="5.29345">
        <ele>509.4</ele>
        <time>2023-08-29T09:05:26Z</time>
      </trkpt>
      <trkpt lat="45.51008" lon="5.29334">
        <ele>508.6</ele>
        <time>2023-08-29T09:05:27Z</time>
      </trkpt>
      <trkpt lat="45.51007" lon="5.29323">
        <ele>507.8</ele>
        <time>2023-08-29T09:05:28Z</time>
      </trkpt>
      <trkpt lat="45.51007" lon="5.29312">
        <ele>506.8</ele>
        <time>2023-08-29T09:05:29Z</time>
      </trkpt>
      <trkpt lat="45.51006" lon="5.293">
        <ele>505.8</ele>
        <time>2023-08-29T09:05:30Z</time>
      </trkpt>
      <trkpt lat="45.51006" lon="5.29288">
        <ele>505.2</ele>
        <time>2023-08-29T09:05:31Z</time>
      </trkpt>
      <trkpt lat="45.51005" lon="5.29276">
        <ele>504.4</ele>
        <time>2023-08-29T09:05:32Z</time>
      </trkpt>
      <trkpt lat="45.51005" lon="5.29264">
        <ele>504.2</ele>
        <time>2023-08-29T09:05:33Z</time>
      </trkpt>
      <trkpt lat="45.51004" lon="5.29251">
        <ele>503.4</ele>
        <time>2023-08-29T09:05:34Z</time>
      </trkpt>
      <trkpt lat="45.51003" lon="5.29239">
        <ele>503</ele>
        <time>2023-08-29T09:05:35Z</time>
      </trkpt>
      <trkpt lat="45.51002" lon="5.29226">
        <ele>501.8</ele>
        <time>2023-08-29T09:05:36Z</time>
      </trkpt>
      <trkpt lat="45.51001" lon="5.29214">
        <ele>501.8</ele>
        <time>2023-08-29T09:05:37Z</time>
      </trkpt>
      <trkpt lat="45.51" lon="5.29202">
        <ele>501.2</ele>
        <time>2023-08-29T09:05:38Z</time>
      </trkpt>
      <trkpt lat="45.50999" lon="5.2919">
        <ele>500.8</ele>
        <time>2023-08-29T09:05:39Z</time>
      </trkpt>
      <trkpt lat="45.50998" lon="5.29179">
        <ele>500.6</ele>
        <time>2023-08-29T09:05:40Z</time>
      </trkpt>
      <trkpt lat="45.50996" lon="5.29168">
        <ele>500.4</ele>
        <time>2023-08-29T09:05:41Z</time>
      </trkpt>
      <trkpt lat="45.50995" lon="5.29157">
        <ele>500.4</ele>
        <time>2023-08-29T09:05:42Z</time>
      </trkpt>
      <trkpt lat="45.50993" lon="5.29146">
        <ele>500.4</ele>
        <time>2023-08-29T09:05:43Z</time>
      </trkpt>
      <trkpt lat="45.50991" lon="5.29136">
        <ele>500.4</ele>
        <time>2023-08-29T09:05:44Z</time>
      </trkpt>
      <trkpt lat="45.50989" lon="5.29126">
        <ele>500.4</ele>
        <time>2023-08-29T09:05:45Z</time>
      </trkpt>
      <trkpt lat="45.50987" lon="5.29116">
        <ele>500.4</ele>
        <time>2023-08-29T09:05:46Z</time>
      </trkpt>
      <trkpt lat="45.50985" lon="5.29106">
        <ele>500.4</ele>
        <time>2023-08-29T09:05:47Z</time>
      </trkpt>
      <trkpt lat="45.50983" lon="5.29096">
        <ele>500.4</ele>
        <time>2023-08-29T09:05:48Z</time>
      </trkpt>
      <trkpt lat="45.50982" lon="5.29085">
        <ele>500.6</ele>
        <time>2023-08-29T09:05:49Z</time>
      </trkpt>
      <trkpt lat="45.50981" lon="5.29073">
        <ele>500.6</ele>
        <time>2023-08-29T09:05:50Z</time>
      </trkpt>
      <trkpt lat="45.50979" lon="5.29061">
        <ele>500.6</ele>
        <time>2023-08-29T09:05:51Z</time>
      </trkpt>
      <trkpt lat="45.50978" lon="5.2905">
        <ele>500.6</ele>
        <time>2023-08-29T09:05:52Z</time>
      </trkpt>
      <trkpt lat="45.50976" lon="5.29039">
        <ele>500.6</ele>
        <time>2023-08-29T09:05:53Z</time>
      </trkpt>
      <trkpt lat="45.50974" lon="5.29028">
        <ele>499.6</ele>
        <time>2023-08-29T09:05:54Z</time>
      </trkpt>
      <trkpt lat="45.50972" lon="5.29016">
        <ele>499.4</ele>
        <time>2023-08-29T09:05:55Z</time>
      </trkpt>
      <trkpt lat="45.5097" lon="5.29005">
        <ele>498</ele>
        <time>2023-08-29T09:05:56Z</time>
      </trkpt>
      <trkpt lat="45.50967" lon="5.28993">
        <ele>497.2</ele>
        <time>2023-08-29T09:05:57Z</time>
      </trkpt>
      <trkpt lat="45.50965" lon="5.28981">
        <ele>497</ele>
        <time>2023-08-29T09:05:58Z</time>
      </trkpt>
      <trkpt lat="45.50963" lon="5.28969">
        <ele>496.6</ele>
        <time>2023-08-29T09:05:59Z</time>
      </trkpt>
      <trkpt lat="45.50961" lon="5.28957">
        <ele>496.6</ele>
        <time>2023-08-29T09:06:00Z</time>
      </trkpt>
      <trkpt lat="45.50958" lon="5.28946">
        <ele>496.2</ele>
        <time>2023-08-29T09:06:01Z</time>
      </trkpt>
      <trkpt lat="45.50956" lon="5.28935">
        <ele>496</ele>
        <time>2023-08-29T09:06:02Z</time>
      </trkpt>
      <trkpt lat="45.50954" lon="5.28923">
        <ele>495.8</ele>
        <time>2023-08-29T09:06:03Z</time>
      </trkpt>
      <trkpt lat="45.50952" lon="5.28912">
        <ele>495.8</ele>
        <time>2023-08-29T09:06:04Z</time>
      </trkpt>
      <trkpt lat="45.5095" lon="5.289">
        <ele>495.8</ele>
        <time>2023-08-29T09:06:05Z</time>
      </trkpt>
      <trkpt lat="45.50948" lon="5.28889">
        <ele>495.8</ele>
        <time>2023-08-29T09:06:06Z</time>
      </trkpt>
      <trkpt lat="45.50946" lon="5.28878">
        <ele>495</ele>
        <time>2023-08-29T09:06:07Z</time>
      </trkpt>
      <trkpt lat="45.50944" lon="5.28867">
        <ele>494.8</ele>
        <time>2023-08-29T09:06:08Z</time>
      </trkpt>
      <trkpt lat="45.50941" lon="5.28856">
        <ele>494.6</ele>
        <time>2023-08-29T09:06:09Z</time>
      </trkpt>
      <trkpt lat="45.50939" lon="5.28845">
        <ele>494.2</ele>
        <time>2023-08-29T09:06:10Z</time>
      </trkpt>
      <trkpt lat="45.50936" lon="5.28834">
        <ele>494.2</ele>
        <time>2023-08-29T09:06:11Z</time>
      </trkpt>
      <trkpt lat="45.50933" lon="5.28822">
        <ele>494</ele>
        <time>2023-08-29T09:06:12Z</time>
      </trkpt>
      <trkpt lat="45.5093" lon="5.28811">
        <ele>493.8</ele>
        <time>2023-08-29T09:06:13Z</time>
      </trkpt>
      <trkpt lat="45.50926" lon="5.28799">
        <ele>492.8</ele>
        <time>2023-08-29T09:06:14Z</time>
      </trkpt>
      <trkpt lat="45.50923" lon="5.28789">
        <ele>492.2</ele>
        <time>2023-08-29T09:06:15Z</time>
      </trkpt>
      <trkpt lat="45.50919" lon="5.28779">
        <ele>491.8</ele>
        <time>2023-08-29T09:06:16Z</time>
      </trkpt>
      <trkpt lat="45.50915" lon="5.28769">
        <ele>491.4</ele>
        <time>2023-08-29T09:06:17Z</time>
      </trkpt>
      <trkpt lat="45.50911" lon="5.2876">
        <ele>491.4</ele>
        <time>2023-08-29T09:06:18Z</time>
      </trkpt>
      <trkpt lat="45.50907" lon="5.28751">
        <ele>490.8</ele>
        <time>2023-08-29T09:06:19Z</time>
      </trkpt>
      <trkpt lat="45.50904" lon="5.28743">
        <ele>490.8</ele>
        <time>2023-08-29T09:06:20Z</time>
      </trkpt>
      <trkpt lat="45.50901" lon="5.28737">
        <ele>490.8</ele>
        <time>2023-08-29T09:06:21Z</time>
      </trkpt>
      <trkpt lat="45.50899" lon="5.28731">
        <ele>490.8</ele>
        <time>2023-08-29T09:06:22Z</time>
      </trkpt>
      <trkpt lat="45.50897" lon="5.28725">
        <ele>490.8</ele>
        <time>2023-08-29T09:06:23Z</time>
      </trkpt>
      <trkpt lat="45.50896" lon="5.28719">
        <ele>490.8</ele>
        <time>2023-08-29T09:06:24Z</time>
      </trkpt>
      <trkpt lat="45.50895" lon="5.28713">
        <ele>490.8</ele>
        <time>2023-08-29T09:06:25Z</time>
      </trkpt>
      <trkpt lat="45.50895" lon="5.28706">
        <ele>490.8</ele>
        <time>2023-08-29T09:06:26Z</time>
      </trkpt>
      <trkpt lat="45.50897" lon="5.28701">
        <ele>490.8</ele>
        <time>2023-08-29T09:06:27Z</time>
      </trkpt>
      <trkpt lat="45.50899" lon="5.28695">
        <ele>490.8</ele>
        <time>2023-08-29T09:06:28Z</time>
      </trkpt>
      <trkpt lat="45.50902" lon="5.2869">
        <ele>490.8</ele>
        <time>2023-08-29T09:06:29Z</time>
      </trkpt>
      <trkpt lat="45.50906" lon="5.28685">
        <ele>490.8</ele>
        <time>2023-08-29T09:06:30Z</time>
      </trkpt>
      <trkpt lat="45.50909" lon="5.2868">
        <ele>490.8</ele>
        <time>2023-08-29T09:06:31Z</time>
      </trkpt>
      <trkpt lat="45.50913" lon="5.28674">
        <ele>490.8</ele>
        <time>2023-08-29T09:06:32Z</time>
      </trkpt>
      <trkpt lat="45.50917" lon="5.28669">
        <ele>490.4</ele>
        <time>2023-08-29T09:06:33Z</time>
      </trkpt>
      <trkpt lat="45.5092" lon="5.28663">
        <ele>490.2</ele>
        <time>2023-08-29T09:06:34Z</time>
      </trkpt>
      <trkpt lat="45.50923" lon="5.28657">
        <ele>490.2</ele>
        <time>2023-08-29T09:06:35Z</time>
      </trkpt>
      <trkpt lat="45.50926" lon="5.28651">
        <ele>490</ele>
        <time>2023-08-29T09:06:36Z</time>
      </trkpt>
      <trkpt lat="45.50928" lon="5.28645">
        <ele>490</ele>
        <time>2023-08-29T09:06:37Z</time>
      </trkpt>
      <trkpt lat="45.5093" lon="5.28638">
        <ele>490</ele>
        <time>2023-08-29T09:06:38Z</time>
      </trkpt>
      <trkpt lat="45.50932" lon="5.28632">
        <ele>490</ele>
        <time>2023-08-29T09:06:39Z</time>
      </trkpt>
      <trkpt lat="45.50935" lon="5.28625">
        <ele>490</ele>
        <time>2023-08-29T09:06:40Z</time>
      </trkpt>
      <trkpt lat="45.50937" lon="5.28618">
        <ele>490</ele>
        <time>2023-08-29T09:06:41Z</time>
      </trkpt>
      <trkpt lat="45.5094" lon="5.28611">
        <ele>489.8</ele>
        <time>2023-08-29T09:06:42Z</time>
      </trkpt>
      <trkpt lat="45.50942" lon="5.28604">
        <ele>489.8</ele>
        <time>2023-08-29T09:06:43Z</time>
      </trkpt>
      <trkpt lat="45.50944" lon="5.28597">
        <ele>489.8</ele>
        <time>2023-08-29T09:06:44Z</time>
      </trkpt>
      <trkpt lat="45.50947" lon="5.2859">
        <ele>489.6</ele>
        <time>2023-08-29T09:06:45Z</time>
      </trkpt>
      <trkpt lat="45.50951" lon="5.28583">
        <ele>489.6</ele>
        <time>2023-08-29T09:06:46Z</time>
      </trkpt>
      <trkpt lat="45.50953" lon="5.28576">
        <ele>489.6</ele>
        <time>2023-08-29T09:06:47Z</time>
      </trkpt>
      <trkpt lat="45.50957" lon="5.2857">
        <ele>489.6</ele>
        <time>2023-08-29T09:06:48Z</time>
      </trkpt>
      <trkpt lat="45.5096" lon="5.28565">
        <ele>489.6</ele>
        <time>2023-08-29T09:06:49Z</time>
      </trkpt>
      <trkpt lat="45.50964" lon="5.28559">
        <ele>489.6</ele>
        <time>2023-08-29T09:06:50Z</time>
      </trkpt>
      <trkpt lat="45.50969" lon="5.28555">
        <ele>489.6</ele>
        <time>2023-08-29T09:06:51Z</time>
      </trkpt>
      <trkpt lat="45.50973" lon="5.28551">
        <ele>489.8</ele>
        <time>2023-08-29T09:06:52Z</time>
      </trkpt>
      <trkpt lat="45.50977" lon="5.28546">
        <ele>489.8</ele>
        <time>2023-08-29T09:06:53Z</time>
      </trkpt>
      <trkpt lat="45.50981" lon="5.28543">
        <ele>490</ele>
        <time>2023-08-29T09:06:54Z</time>
      </trkpt>
      <trkpt lat="45.50985" lon="5.2854">
        <ele>490</ele>
        <time>2023-08-29T09:06:55Z</time>
      </trkpt>
      <trkpt lat="45.50989" lon="5.28536">
        <ele>490</ele>
        <time>2023-08-29T09:06:56Z</time>
      </trkpt>
      <trkpt lat="45.50993" lon="5.28533">
        <ele>490</ele>
        <time>2023-08-29T09:06:57Z</time>
      </trkpt>
      <trkpt lat="45.50997" lon="5.28529">
        <ele>490</ele>
        <time>2023-08-29T09:06:58Z</time>
      </trkpt>
      <trkpt lat="45.51001" lon="5.28525">
        <ele>490</ele>
        <time>2023-08-29T09:06:59Z</time>
      </trkpt>
      <trkpt lat="45.51004" lon="5.28522">
        <ele>490</ele>
        <time>2023-08-29T09:07:00Z</time>
      </trkpt>
      <trkpt lat="45.51008" lon="5.28518">
        <ele>490</ele>
        <time>2023-08-29T09:07:01Z</time>
      </trkpt>
      <trkpt lat="45.51012" lon="5.28514">
        <ele>490</ele>
        <time>2023-08-29T09:07:02Z</time>
      </trkpt>
      <trkpt lat="45.51016" lon="5.28509">
        <ele>490</ele>
        <time>2023-08-29T09:07:03Z</time>
      </trkpt>
      <trkpt lat="45.5102" lon="5.28504">
        <ele>490</ele>
        <time>2023-08-29T09:07:04Z</time>
      </trkpt>
      <trkpt lat="45.51024" lon="5.28499">
        <ele>490</ele>
        <time>2023-08-29T09:07:05Z</time>
      </trkpt>
      <trkpt lat="45.51028" lon="5.28495">
        <ele>490</ele>
        <time>2023-08-29T09:07:06Z</time>
      </trkpt>
      <trkpt lat="45.51031" lon="5.28491">
        <ele>489.8</ele>
        <time>2023-08-29T09:07:07Z</time>
      </trkpt>
      <trkpt lat="45.51035" lon="5.28486">
        <ele>489.6</ele>
        <time>2023-08-29T09:07:08Z</time>
      </trkpt>
      <trkpt lat="45.5104" lon="5.28481">
        <ele>489.2</ele>
        <time>2023-08-29T09:07:09Z</time>
      </trkpt>
      <trkpt lat="45.51043" lon="5.28477">
        <ele>489.2</ele>
        <time>2023-08-29T09:07:10Z</time>
      </trkpt>
      <trkpt lat="45.51046" lon="5.28474">
        <ele>488.6</ele>
        <time>2023-08-29T09:07:11Z</time>
      </trkpt>
      <trkpt lat="45.51048" lon="5.28471">
        <ele>488.2</ele>
        <time>2023-08-29T09:07:12Z</time>
      </trkpt>
      <trkpt lat="45.51049" lon="5.28469">
        <ele>488.2</ele>
        <time>2023-08-29T09:07:13Z</time>
      </trkpt>
      <trkpt lat="45.5105" lon="5.28467">
        <ele>488.2</ele>
        <time>2023-08-29T09:07:14Z</time>
      </trkpt>
      <trkpt lat="45.51051" lon="5.28466">
        <ele>488.2</ele>
        <time>2023-08-29T09:07:15Z</time>
      </trkpt>
      <trkpt lat="45.51052" lon="5.28464">
        <ele>488</ele>
        <time>2023-08-29T09:07:16Z</time>
      </trkpt>
      <trkpt lat="45.51052" lon="5.28464">
        <ele>488</ele>
        <time>2023-08-29T09:07:17Z</time>
      </trkpt>
      <trkpt lat="45.51051" lon="5.28464">
        <ele>488</ele>
        <time>2023-08-29T09:07:18Z</time>
      </trkpt>
      <trkpt lat="45.51051" lon="5.28463">
        <ele>488</ele>
        <time>2023-08-29T09:07:19Z</time>
      </trkpt>
      <trkpt lat="45.51061" lon="5.28461">
        <ele>486.6</ele>
        <time>2023-08-29T09:08:26Z</time>
      </trkpt>
      <trkpt lat="45.51063" lon="5.2846">
        <ele>486.6</ele>
        <time>2023-08-29T09:08:27Z</time>
      </trkpt>
      <trkpt lat="45.51065" lon="5.28459">
        <ele>486.6</ele>
        <time>2023-08-29T09:08:28Z</time>
      </trkpt>
      <trkpt lat="45.51068" lon="5.28457">
        <ele>486.6</ele>
        <time>2023-08-29T09:08:29Z</time>
      </trkpt>
      <trkpt lat="45.5107" lon="5.28456">
        <ele>486.4</ele>
        <time>2023-08-29T09:08:30Z</time>
      </trkpt>
      <trkpt lat="45.51072" lon="5.28454">
        <ele>486.4</ele>
        <time>2023-08-29T09:08:31Z</time>
      </trkpt>
      <trkpt lat="45.51075" lon="5.28452">
        <ele>486.4</ele>
        <time>2023-08-29T09:08:32Z</time>
      </trkpt>
      <trkpt lat="45.51077" lon="5.2845">
        <ele>486.4</ele>
        <time>2023-08-29T09:08:33Z</time>
      </trkpt>
      <trkpt lat="45.5108" lon="5.2845">
        <ele>486.2</ele>
        <time>2023-08-29T09:08:34Z</time>
      </trkpt>
      <trkpt lat="45.51083" lon="5.28449">
        <ele>486.2</ele>
        <time>2023-08-29T09:08:35Z</time>
      </trkpt>
      <trkpt lat="45.51086" lon="5.28447">
        <ele>486.2</ele>
        <time>2023-08-29T09:08:36Z</time>
      </trkpt>
      <trkpt lat="45.51089" lon="5.28446">
        <ele>486</ele>
        <time>2023-08-29T09:08:37Z</time>
      </trkpt>
      <trkpt lat="45.51093" lon="5.28444">
        <ele>486</ele>
        <time>2023-08-29T09:08:38Z</time>
      </trkpt>
      <trkpt lat="45.51096" lon="5.28442">
        <ele>486</ele>
        <time>2023-08-29T09:08:39Z</time>
      </trkpt>
      <trkpt lat="45.51099" lon="5.2844">
        <ele>486</ele>
        <time>2023-08-29T09:08:40Z</time>
      </trkpt>
      <trkpt lat="45.51103" lon="5.28439">
        <ele>485.8</ele>
        <time>2023-08-29T09:08:41Z</time>
      </trkpt>
      <trkpt lat="45.51106" lon="5.28438">
        <ele>485.6</ele>
        <time>2023-08-29T09:08:42Z</time>
      </trkpt>
      <trkpt lat="45.5111" lon="5.28437">
        <ele>485.6</ele>
        <time>2023-08-29T09:08:43Z</time>
      </trkpt>
      <trkpt lat="45.51113" lon="5.28435">
        <ele>485.4</ele>
        <time>2023-08-29T09:08:44Z</time>
      </trkpt>
      <trkpt lat="45.51117" lon="5.28432">
        <ele>485.4</ele>
        <time>2023-08-29T09:08:45Z</time>
      </trkpt>
      <trkpt lat="45.51121" lon="5.28431">
        <ele>485.2</ele>
        <time>2023-08-29T09:08:46Z</time>
      </trkpt>
      <trkpt lat="45.51124" lon="5.28429">
        <ele>485.2</ele>
        <time>2023-08-29T09:08:47Z</time>
      </trkpt>
      <trkpt lat="45.51128" lon="5.28427">
        <ele>485</ele>
        <time>2023-08-29T09:08:48Z</time>
      </trkpt>
      <trkpt lat="45.51131" lon="5.28425">
        <ele>485</ele>
        <time>2023-08-29T09:08:49Z</time>
      </trkpt>
      <trkpt lat="45.51135" lon="5.28423">
        <ele>485</ele>
        <time>2023-08-29T09:08:50Z</time>
      </trkpt>
      <trkpt lat="45.51138" lon="5.28422">
        <ele>484.8</ele>
        <time>2023-08-29T09:08:51Z</time>
      </trkpt>
      <trkpt lat="45.51142" lon="5.2842">
        <ele>484.8</ele>
        <time>2023-08-29T09:08:52Z</time>
      </trkpt>
      <trkpt lat="45.51145" lon="5.28418">
        <ele>484.8</ele>
        <time>2023-08-29T09:08:53Z</time>
      </trkpt>
      <trkpt lat="45.51148" lon="5.28417">
        <ele>484.8</ele>
        <time>2023-08-29T09:08:54Z</time>
      </trkpt>
      <trkpt lat="45.51152" lon="5.28416">
        <ele>484.8</ele>
        <time>2023-08-29T09:08:55Z</time>
      </trkpt>
      <trkpt lat="45.51154" lon="5.28415">
        <ele>484.8</ele>
        <time>2023-08-29T09:08:56Z</time>
      </trkpt>
      <trkpt lat="45.51157" lon="5.28413">
        <ele>484.8</ele>
        <time>2023-08-29T09:08:57Z</time>
      </trkpt>
      <trkpt lat="45.5116" lon="5.28413">
        <ele>484.8</ele>
        <time>2023-08-29T09:08:58Z</time>
      </trkpt>
      <trkpt lat="45.51163" lon="5.28411">
        <ele>484.8</ele>
        <time>2023-08-29T09:08:59Z</time>
      </trkpt>
      <trkpt lat="45.51165" lon="5.28408">
        <ele>484.8</ele>
        <time>2023-08-29T09:09:00Z</time>
      </trkpt>
      <trkpt lat="45.51167" lon="5.28405">
        <ele>484.8</ele>
        <time>2023-08-29T09:09:01Z</time>
      </trkpt>
      <trkpt lat="45.51169" lon="5.28402">
        <ele>484.8</ele>
        <time>2023-08-29T09:09:02Z</time>
      </trkpt>
      <trkpt lat="45.5117" lon="5.28398">
        <ele>484.8</ele>
        <time>2023-08-29T09:09:03Z</time>
      </trkpt>
      <trkpt lat="45.51171" lon="5.28393">
        <ele>484.6</ele>
        <time>2023-08-29T09:09:04Z</time>
      </trkpt>
      <trkpt lat="45.51172" lon="5.28388">
        <ele>484.6</ele>
        <time>2023-08-29T09:09:05Z</time>
      </trkpt>
      <trkpt lat="45.51172" lon="5.28384">
        <ele>484.6</ele>
        <time>2023-08-29T09:09:06Z</time>
      </trkpt>
      <trkpt lat="45.51173" lon="5.28379">
        <ele>484.6</ele>
        <time>2023-08-29T09:09:07Z</time>
      </trkpt>
      <trkpt lat="45.51174" lon="5.28375">
        <ele>484.6</ele>
        <time>2023-08-29T09:09:08Z</time>
      </trkpt>
      <trkpt lat="45.51175" lon="5.28371">
        <ele>484.6</ele>
        <time>2023-08-29T09:09:09Z</time>
      </trkpt>
      <trkpt lat="45.51176" lon="5.28367">
        <ele>484.6</ele>
        <time>2023-08-29T09:09:10Z</time>
      </trkpt>
      <trkpt lat="45.51177" lon="5.28363">
        <ele>484.8</ele>
        <time>2023-08-29T09:09:11Z</time>
      </trkpt>
      <trkpt lat="45.51178" lon="5.2836">
        <ele>484.8</ele>
        <time>2023-08-29T09:09:12Z</time>
      </trkpt>
      <trkpt lat="45.51179" lon="5.28355">
        <ele>484.8</ele>
        <time>2023-08-29T09:09:13Z</time>
      </trkpt>
      <trkpt lat="45.51181" lon="5.2835">
        <ele>484.8</ele>
        <time>2023-08-29T09:09:14Z</time>
      </trkpt>
      <trkpt lat="45.51182" lon="5.28345">
        <ele>484.8</ele>
        <time>2023-08-29T09:09:15Z</time>
      </trkpt>
      <trkpt lat="45.51184" lon="5.2834">
        <ele>484.8</ele>
        <time>2023-08-29T09:09:16Z</time>
      </trkpt>
      <trkpt lat="45.51186" lon="5.28336">
        <ele>484.8</ele>
        <time>2023-08-29T09:09:17Z</time>
      </trkpt>
      <trkpt lat="45.51187" lon="5.28331">
        <ele>484.8</ele>
        <time>2023-08-29T09:09:18Z</time>
      </trkpt>
      <trkpt lat="45.51189" lon="5.28327">
        <ele>484.8</ele>
        <time>2023-08-29T09:09:19Z</time>
      </trkpt>
      <trkpt lat="45.51192" lon="5.2832">
        <ele>484.8</ele>
        <time>2023-08-29T09:09:20Z</time>
      </trkpt>
      <trkpt lat="45.51194" lon="5.28316">
        <ele>484.8</ele>
        <time>2023-08-29T09:09:21Z</time>
      </trkpt>
      <trkpt lat="45.51196" lon="5.2831">
        <ele>484.8</ele>
        <time>2023-08-29T09:09:22Z</time>
      </trkpt>
      <trkpt lat="45.51198" lon="5.28303">
        <ele>484.6</ele>
        <time>2023-08-29T09:09:23Z</time>
      </trkpt>
      <trkpt lat="45.512" lon="5.28296">
        <ele>484.2</ele>
        <time>2023-08-29T09:09:24Z</time>
      </trkpt>
      <trkpt lat="45.512" lon="5.28288">
        <ele>484</ele>
        <time>2023-08-29T09:09:25Z</time>
      </trkpt>
      <trkpt lat="45.51201" lon="5.2828">
        <ele>483.8</ele>
        <time>2023-08-29T09:09:26Z</time>
      </trkpt>
      <trkpt lat="45.51201" lon="5.28271">
        <ele>483.6</ele>
        <time>2023-08-29T09:09:27Z</time>
      </trkpt>
      <trkpt lat="45.51202" lon="5.28262">
        <ele>483.2</ele>
        <time>2023-08-29T09:09:28Z</time>
      </trkpt>
      <trkpt lat="45.51202" lon="5.28255">
        <ele>482.8</ele>
        <time>2023-08-29T09:09:29Z</time>
      </trkpt>
      <trkpt lat="45.51202" lon="5.28248">
        <ele>482.8</ele>
        <time>2023-08-29T09:09:30Z</time>
      </trkpt>
      <trkpt lat="45.51203" lon="5.2824">
        <ele>482.2</ele>
        <time>2023-08-29T09:09:31Z</time>
      </trkpt>
      <trkpt lat="45.51203" lon="5.28233">
        <ele>482</ele>
        <time>2023-08-29T09:09:32Z</time>
      </trkpt>
      <trkpt lat="45.51203" lon="5.28226">
        <ele>481.8</ele>
        <time>2023-08-29T09:09:33Z</time>
      </trkpt>
      <trkpt lat="45.51203" lon="5.2822">
        <ele>481.8</ele>
        <time>2023-08-29T09:09:34Z</time>
      </trkpt>
      <trkpt lat="45.51203" lon="5.28213">
        <ele>481.8</ele>
        <time>2023-08-29T09:09:35Z</time>
      </trkpt>
      <trkpt lat="45.51203" lon="5.28207">
        <ele>481.8</ele>
        <time>2023-08-29T09:09:36Z</time>
      </trkpt>
      <trkpt lat="45.51203" lon="5.28201">
        <ele>481.8</ele>
        <time>2023-08-29T09:09:37Z</time>
      </trkpt>
      <trkpt lat="45.51203" lon="5.28195">
        <ele>481.8</ele>
        <time>2023-08-29T09:09:38Z</time>
      </trkpt>
      <trkpt lat="45.51203" lon="5.28188">
        <ele>481.8</ele>
        <time>2023-08-29T09:09:39Z</time>
      </trkpt>
      <trkpt lat="45.51203" lon="5.28183">
        <ele>481.8</ele>
        <time>2023-08-29T09:09:40Z</time>
      </trkpt>
      <trkpt lat="45.51203" lon="5.28177">
        <ele>481.8</ele>
        <time>2023-08-29T09:09:41Z</time>
      </trkpt>
      <trkpt lat="45.51203" lon="5.28171">
        <ele>481.8</ele>
        <time>2023-08-29T09:09:42Z</time>
      </trkpt>
      <trkpt lat="45.51202" lon="5.28164">
        <ele>481.6</ele>
        <time>2023-08-29T09:09:43Z</time>
      </trkpt>
      <trkpt lat="45.51202" lon="5.28158">
        <ele>481.6</ele>
        <time>2023-08-29T09:09:44Z</time>
      </trkpt>
      <trkpt lat="45.51202" lon="5.28152">
        <ele>481.4</ele>
        <time>2023-08-29T09:09:45Z</time>
      </trkpt>
      <trkpt lat="45.51202" lon="5.28146">
        <ele>481.4</ele>
        <time>2023-08-29T09:09:46Z</time>
      </trkpt>
      <trkpt lat="45.51202" lon="5.2814">
        <ele>481.2</ele>
        <time>2023-08-29T09:09:47Z</time>
      </trkpt>
      <trkpt lat="45.51202" lon="5.28134">
        <ele>481.2</ele>
        <time>2023-08-29T09:09:48Z</time>
      </trkpt>
      <trkpt lat="45.51202" lon="5.28128">
        <ele>481.2</ele>
        <time>2023-08-29T09:09:49Z</time>
      </trkpt>
      <trkpt lat="45.51202" lon="5.28122">
        <ele>481.2</ele>
        <time>2023-08-29T09:09:50Z</time>
      </trkpt>
      <trkpt lat="45.51202" lon="5.28115">
        <ele>481.2</ele>
        <time>2023-08-29T09:09:51Z</time>
      </trkpt>
      <trkpt lat="45.51202" lon="5.28109">
        <ele>481.2</ele>
        <time>2023-08-29T09:09:52Z</time>
      </trkpt>
      <trkpt lat="45.51202" lon="5.28104">
        <ele>481.6</ele>
        <time>2023-08-29T09:09:53Z</time>
      </trkpt>
      <trkpt lat="45.51202" lon="5.28098">
        <ele>481.6</ele>
        <time>2023-08-29T09:09:54Z</time>
      </trkpt>
      <trkpt lat="45.51202" lon="5.28092">
        <ele>482</ele>
        <time>2023-08-29T09:09:55Z</time>
      </trkpt>
      <trkpt lat="45.51202" lon="5.28085">
        <ele>482</ele>
        <time>2023-08-29T09:09:56Z</time>
      </trkpt>
      <trkpt lat="45.51202" lon="5.28079">
        <ele>482</ele>
        <time>2023-08-29T09:09:57Z</time>
      </trkpt>
      <trkpt lat="45.51202" lon="5.28073">
        <ele>482</ele>
        <time>2023-08-29T09:09:58Z</time>
      </trkpt>
      <trkpt lat="45.51202" lon="5.28066">
        <ele>482</ele>
        <time>2023-08-29T09:09:59Z</time>
      </trkpt>
      <trkpt lat="45.51202" lon="5.28059">
        <ele>482</ele>
        <time>2023-08-29T09:10:00Z</time>
      </trkpt>
      <trkpt lat="45.51202" lon="5.28051">
        <ele>481.8</ele>
        <time>2023-08-29T09:10:01Z</time>
      </trkpt>
      <trkpt lat="45.51202" lon="5.28044">
        <ele>481.6</ele>
        <time>2023-08-29T09:10:02Z</time>
      </trkpt>
      <trkpt lat="45.51202" lon="5.28036">
        <ele>481.2</ele>
        <time>2023-08-29T09:10:03Z</time>
      </trkpt>
      <trkpt lat="45.51202" lon="5.28029">
        <ele>481.2</ele>
        <time>2023-08-29T09:10:04Z</time>
      </trkpt>
      <trkpt lat="45.51202" lon="5.28022">
        <ele>481</ele>
        <time>2023-08-29T09:10:05Z</time>
      </trkpt>
      <trkpt lat="45.51202" lon="5.28016">
        <ele>480.8</ele>
        <time>2023-08-29T09:10:06Z</time>
      </trkpt>
      <trkpt lat="45.51202" lon="5.2801">
        <ele>480.8</ele>
        <time>2023-08-29T09:10:07Z</time>
      </trkpt>
      <trkpt lat="45.51201" lon="5.28003">
        <ele>480.8</ele>
        <time>2023-08-29T09:10:08Z</time>
      </trkpt>
      <trkpt lat="45.51201" lon="5.27996">
        <ele>480.8</ele>
        <time>2023-08-29T09:10:09Z</time>
      </trkpt>
      <trkpt lat="45.51201" lon="5.27989">
        <ele>480.8</ele>
        <time>2023-08-29T09:10:10Z</time>
      </trkpt>
      <trkpt lat="45.51201" lon="5.27982">
        <ele>480.8</ele>
        <time>2023-08-29T09:10:11Z</time>
      </trkpt>
      <trkpt lat="45.51201" lon="5.27975">
        <ele>480.8</ele>
        <time>2023-08-29T09:10:12Z</time>
      </trkpt>
      <trkpt lat="45.51201" lon="5.27967">
        <ele>480.8</ele>
        <time>2023-08-29T09:10:13Z</time>
      </trkpt>
      <trkpt lat="45.51201" lon="5.2796">
        <ele>480.2</ele>
        <time>2023-08-29T09:10:14Z</time>
      </trkpt>
      <trkpt lat="45.51201" lon="5.27953">
        <ele>480</ele>
        <time>2023-08-29T09:10:15Z</time>
      </trkpt>
      <trkpt lat="45.51201" lon="5.27945">
        <ele>480</ele>
        <time>2023-08-29T09:10:16Z</time>
      </trkpt>
      <trkpt lat="45.51201" lon="5.27938">
        <ele>479.6</ele>
        <time>2023-08-29T09:10:17Z</time>
      </trkpt>
      <trkpt lat="45.51201" lon="5.2793">
        <ele>479.6</ele>
        <time>2023-08-29T09:10:18Z</time>
      </trkpt>
      <trkpt lat="45.51201" lon="5.27923">
        <ele>479.6</ele>
        <time>2023-08-29T09:10:19Z</time>
      </trkpt>
      <trkpt lat="45.51201" lon="5.27916">
        <ele>479.4</ele>
        <time>2023-08-29T09:10:20Z</time>
      </trkpt>
      <trkpt lat="45.512" lon="5.27909">
        <ele>479.2</ele>
        <time>2023-08-29T09:10:21Z</time>
      </trkpt>
      <trkpt lat="45.512" lon="5.27902">
        <ele>478.4</ele>
        <time>2023-08-29T09:10:22Z</time>
      </trkpt>
      <trkpt lat="45.51199" lon="5.27896">
        <ele>478.2</ele>
        <time>2023-08-29T09:10:23Z</time>
      </trkpt>
      <trkpt lat="45.51198" lon="5.27888">
        <ele>477.8</ele>
        <time>2023-08-29T09:10:24Z</time>
      </trkpt>
      <trkpt lat="45.51197" lon="5.27881">
        <ele>477.4</ele>
        <time>2023-08-29T09:10:25Z</time>
      </trkpt>
      <trkpt lat="45.51195" lon="5.27874">
        <ele>477.2</ele>
        <time>2023-08-29T09:10:26Z</time>
      </trkpt>
      <trkpt lat="45.51192" lon="5.27866">
        <ele>476.6</ele>
        <time>2023-08-29T09:10:27Z</time>
      </trkpt>
      <trkpt lat="45.5119" lon="5.27859">
        <ele>476.2</ele>
        <time>2023-08-29T09:10:28Z</time>
      </trkpt>
      <trkpt lat="45.51187" lon="5.2785">
        <ele>476</ele>
        <time>2023-08-29T09:10:29Z</time>
      </trkpt>
      <trkpt lat="45.51184" lon="5.27841">
        <ele>474.8</ele>
        <time>2023-08-29T09:10:30Z</time>
      </trkpt>
      <trkpt lat="45.5118" lon="5.27831">
        <ele>474.2</ele>
        <time>2023-08-29T09:10:31Z</time>
      </trkpt>
      <trkpt lat="45.51177" lon="5.27819">
        <ele>473.4</ele>
        <time>2023-08-29T09:10:32Z</time>
      </trkpt>
      <trkpt lat="45.51174" lon="5.27808">
        <ele>472.6</ele>
        <time>2023-08-29T09:10:33Z</time>
      </trkpt>
      <trkpt lat="45.51171" lon="5.27797">
        <ele>471.2</ele>
        <time>2023-08-29T09:10:34Z</time>
      </trkpt>
      <trkpt lat="45.51169" lon="5.27786">
        <ele>471.2</ele>
        <time>2023-08-29T09:10:35Z</time>
      </trkpt>
      <trkpt lat="45.51166" lon="5.27775">
        <ele>470.6</ele>
        <time>2023-08-29T09:10:36Z</time>
      </trkpt>
      <trkpt lat="45.51164" lon="5.27765">
        <ele>470.4</ele>
        <time>2023-08-29T09:10:37Z</time>
      </trkpt>
      <trkpt lat="45.51163" lon="5.27754">
        <ele>470.2</ele>
        <time>2023-08-29T09:10:38Z</time>
      </trkpt>
      <trkpt lat="45.51162" lon="5.27743">
        <ele>470.2</ele>
        <time>2023-08-29T09:10:39Z</time>
      </trkpt>
      <trkpt lat="45.51161" lon="5.27733">
        <ele>470.2</ele>
        <time>2023-08-29T09:10:40Z</time>
      </trkpt>
      <trkpt lat="45.51161" lon="5.27725">
        <ele>470.4</ele>
        <time>2023-08-29T09:10:41Z</time>
      </trkpt>
      <trkpt lat="45.5116" lon="5.27719">
        <ele>470.6</ele>
        <time>2023-08-29T09:10:42Z</time>
      </trkpt>
      <trkpt lat="45.5116" lon="5.27713">
        <ele>471</ele>
        <time>2023-08-29T09:10:43Z</time>
      </trkpt>
      <trkpt lat="45.5116" lon="5.27707">
        <ele>472</ele>
        <time>2023-08-29T09:10:44Z</time>
      </trkpt>
      <trkpt lat="45.5116" lon="5.27703">
        <ele>472</ele>
        <time>2023-08-29T09:10:45Z</time>
      </trkpt>
      <trkpt lat="45.5116" lon="5.27698">
        <ele>473.4</ele>
        <time>2023-08-29T09:10:46Z</time>
      </trkpt>
      <trkpt lat="45.51161" lon="5.27693">
        <ele>473.8</ele>
        <time>2023-08-29T09:10:47Z</time>
      </trkpt>
      <trkpt lat="45.51161" lon="5.27689">
        <ele>474.6</ele>
        <time>2023-08-29T09:10:48Z</time>
      </trkpt>
      <trkpt lat="45.51161" lon="5.27684">
        <ele>475</ele>
        <time>2023-08-29T09:10:49Z</time>
      </trkpt>
      <trkpt lat="45.51161" lon="5.27679">
        <ele>475.6</ele>
        <time>2023-08-29T09:10:50Z</time>
      </trkpt>
      <trkpt lat="45.51161" lon="5.27674">
        <ele>475.8</ele>
        <time>2023-08-29T09:10:51Z</time>
      </trkpt>
      <trkpt lat="45.51162" lon="5.27669">
        <ele>476.2</ele>
        <time>2023-08-29T09:10:52Z</time>
      </trkpt>
      <trkpt lat="45.51162" lon="5.27664">
        <ele>476.4</ele>
        <time>2023-08-29T09:10:53Z</time>
      </trkpt>
      <trkpt lat="45.51163" lon="5.27658">
        <ele>476.6</ele>
        <time>2023-08-29T09:10:54Z</time>
      </trkpt>
      <trkpt lat="45.51163" lon="5.27652">
        <ele>476.8</ele>
        <time>2023-08-29T09:10:55Z</time>
      </trkpt>
      <trkpt lat="45.51163" lon="5.27646">
        <ele>477</ele>
        <time>2023-08-29T09:10:56Z</time>
      </trkpt>
      <trkpt lat="45.51164" lon="5.27639">
        <ele>477</ele>
        <time>2023-08-29T09:10:57Z</time>
      </trkpt>
      <trkpt lat="45.51164" lon="5.27633">
        <ele>477.2</ele>
        <time>2023-08-29T09:10:58Z</time>
      </trkpt>
      <trkpt lat="45.51165" lon="5.27626">
        <ele>477.4</ele>
        <time>2023-08-29T09:10:59Z</time>
      </trkpt>
      <trkpt lat="45.51166" lon="5.27621">
        <ele>477.4</ele>
        <time>2023-08-29T09:11:00Z</time>
      </trkpt>
      <trkpt lat="45.51168" lon="5.27613">
        <ele>477.4</ele>
        <time>2023-08-29T09:11:01Z</time>
      </trkpt>
      <trkpt lat="45.51169" lon="5.27607">
        <ele>477.4</ele>
        <time>2023-08-29T09:11:02Z</time>
      </trkpt>
      <trkpt lat="45.5117" lon="5.27601">
        <ele>477.4</ele>
        <time>2023-08-29T09:11:03Z</time>
      </trkpt>
      <trkpt lat="45.51172" lon="5.27595">
        <ele>477.4</ele>
        <time>2023-08-29T09:11:04Z</time>
      </trkpt>
      <trkpt lat="45.51173" lon="5.2759">
        <ele>477.4</ele>
        <time>2023-08-29T09:11:05Z</time>
      </trkpt>
      <trkpt lat="45.51174" lon="5.27583">
        <ele>477.4</ele>
        <time>2023-08-29T09:11:06Z</time>
      </trkpt>
      <trkpt lat="45.51176" lon="5.27576">
        <ele>477.4</ele>
        <time>2023-08-29T09:11:07Z</time>
      </trkpt>
      <trkpt lat="45.51177" lon="5.27569">
        <ele>477.4</ele>
        <time>2023-08-29T09:11:08Z</time>
      </trkpt>
      <trkpt lat="45.51178" lon="5.27562">
        <ele>477.2</ele>
        <time>2023-08-29T09:11:09Z</time>
      </trkpt>
      <trkpt lat="45.51179" lon="5.27555">
        <ele>477</ele>
        <time>2023-08-29T09:11:10Z</time>
      </trkpt>
      <trkpt lat="45.5118" lon="5.27548">
        <ele>477</ele>
        <time>2023-08-29T09:11:11Z</time>
      </trkpt>
      <trkpt lat="45.5118" lon="5.2754">
        <ele>477</ele>
        <time>2023-08-29T09:11:12Z</time>
      </trkpt>
      <trkpt lat="45.5118" lon="5.27533">
        <ele>476.8</ele>
        <time>2023-08-29T09:11:13Z</time>
      </trkpt>
      <trkpt lat="45.51181" lon="5.27526">
        <ele>476.6</ele>
        <time>2023-08-29T09:11:14Z</time>
      </trkpt>
      <trkpt lat="45.5118" lon="5.27518">
        <ele>476.4</ele>
        <time>2023-08-29T09:11:15Z</time>
      </trkpt>
      <trkpt lat="45.5118" lon="5.27511">
        <ele>476.4</ele>
        <time>2023-08-29T09:11:16Z</time>
      </trkpt>
      <trkpt lat="45.51179" lon="5.27504">
        <ele>476.4</ele>
        <time>2023-08-29T09:11:17Z</time>
      </trkpt>
      <trkpt lat="45.51179" lon="5.27496">
        <ele>475.8</ele>
        <time>2023-08-29T09:11:18Z</time>
      </trkpt>
      <trkpt lat="45.51178" lon="5.27489">
        <ele>475.8</ele>
        <time>2023-08-29T09:11:19Z</time>
      </trkpt>
      <trkpt lat="45.51178" lon="5.27482">
        <ele>475.8</ele>
        <time>2023-08-29T09:11:20Z</time>
      </trkpt>
      <trkpt lat="45.51177" lon="5.27475">
        <ele>475.8</ele>
        <time>2023-08-29T09:11:21Z</time>
      </trkpt>
      <trkpt lat="45.51177" lon="5.27467">
        <ele>475.8</ele>
        <time>2023-08-29T09:11:22Z</time>
      </trkpt>
      <trkpt lat="45.51178" lon="5.27459">
        <ele>475.8</ele>
        <time>2023-08-29T09:11:23Z</time>
      </trkpt>
      <trkpt lat="45.51178" lon="5.27451">
        <ele>475.8</ele>
        <time>2023-08-29T09:11:24Z</time>
      </trkpt>
      <trkpt lat="45.51178" lon="5.27445">
        <ele>475.8</ele>
        <time>2023-08-29T09:11:25Z</time>
      </trkpt>
      <trkpt lat="45.51178" lon="5.27437">
        <ele>475.8</ele>
        <time>2023-08-29T09:11:26Z</time>
      </trkpt>
      <trkpt lat="45.51178" lon="5.2743">
        <ele>475.8</ele>
        <time>2023-08-29T09:11:27Z</time>
      </trkpt>
      <trkpt lat="45.51178" lon="5.27422">
        <ele>475.6</ele>
        <time>2023-08-29T09:11:28Z</time>
      </trkpt>
      <trkpt lat="45.51178" lon="5.27415">
        <ele>475.6</ele>
        <time>2023-08-29T09:11:29Z</time>
      </trkpt>
      <trkpt lat="45.51178" lon="5.27409">
        <ele>475.4</ele>
        <time>2023-08-29T09:11:30Z</time>
      </trkpt>
      <trkpt lat="45.51178" lon="5.27401">
        <ele>475.2</ele>
        <time>2023-08-29T09:11:31Z</time>
      </trkpt>
      <trkpt lat="45.51178" lon="5.27393">
        <ele>475.2</ele>
        <time>2023-08-29T09:11:32Z</time>
      </trkpt>
      <trkpt lat="45.51178" lon="5.27387">
        <ele>475</ele>
        <time>2023-08-29T09:11:33Z</time>
      </trkpt>
      <trkpt lat="45.51177" lon="5.2738">
        <ele>475</ele>
        <time>2023-08-29T09:11:34Z</time>
      </trkpt>
      <trkpt lat="45.51177" lon="5.27372">
        <ele>475</ele>
        <time>2023-08-29T09:11:35Z</time>
      </trkpt>
      <trkpt lat="45.51177" lon="5.27366">
        <ele>475</ele>
        <time>2023-08-29T09:11:36Z</time>
      </trkpt>
      <trkpt lat="45.51176" lon="5.27359">
        <ele>474.8</ele>
        <time>2023-08-29T09:11:37Z</time>
      </trkpt>
      <trkpt lat="45.51176" lon="5.27351">
        <ele>474.6</ele>
        <time>2023-08-29T09:11:38Z</time>
      </trkpt>
      <trkpt lat="45.51175" lon="5.27343">
        <ele>474.4</ele>
        <time>2023-08-29T09:11:39Z</time>
      </trkpt>
      <trkpt lat="45.51174" lon="5.27337">
        <ele>474.4</ele>
        <time>2023-08-29T09:11:40Z</time>
      </trkpt>
      <trkpt lat="45.51172" lon="5.2733">
        <ele>474.4</ele>
        <time>2023-08-29T09:11:41Z</time>
      </trkpt>
      <trkpt lat="45.51171" lon="5.27325">
        <ele>474.6</ele>
        <time>2023-08-29T09:11:42Z</time>
      </trkpt>
      <trkpt lat="45.5117" lon="5.27319">
        <ele>474.6</ele>
        <time>2023-08-29T09:11:43Z</time>
      </trkpt>
      <trkpt lat="45.51168" lon="5.27313">
        <ele>474.6</ele>
        <time>2023-08-29T09:11:44Z</time>
      </trkpt>
      <trkpt lat="45.51166" lon="5.27306">
        <ele>474.6</ele>
        <time>2023-08-29T09:11:45Z</time>
      </trkpt>
      <trkpt lat="45.51165" lon="5.273">
        <ele>474.8</ele>
        <time>2023-08-29T09:11:46Z</time>
      </trkpt>
      <trkpt lat="45.51164" lon="5.27297">
        <ele>474.8</ele>
        <time>2023-08-29T09:11:47Z</time>
      </trkpt>
      <trkpt lat="45.51162" lon="5.27292">
        <ele>474.8</ele>
        <time>2023-08-29T09:11:48Z</time>
      </trkpt>
      <trkpt lat="45.51161" lon="5.27286">
        <ele>474.8</ele>
        <time>2023-08-29T09:11:49Z</time>
      </trkpt>
      <trkpt lat="45.51159" lon="5.27282">
        <ele>474.8</ele>
        <time>2023-08-29T09:11:50Z</time>
      </trkpt>
      <trkpt lat="45.51158" lon="5.27277">
        <ele>474.6</ele>
        <time>2023-08-29T09:11:51Z</time>
      </trkpt>
      <trkpt lat="45.51157" lon="5.27272">
        <ele>474.6</ele>
        <time>2023-08-29T09:11:52Z</time>
      </trkpt>
      <trkpt lat="45.51157" lon="5.27267">
        <ele>474.6</ele>
        <time>2023-08-29T09:11:53Z</time>
      </trkpt>
      <trkpt lat="45.51158" lon="5.27261">
        <ele>474.6</ele>
        <time>2023-08-29T09:11:54Z</time>
      </trkpt>
      <trkpt lat="45.51159" lon="5.27257">
        <ele>474.2</ele>
        <time>2023-08-29T09:11:55Z</time>
      </trkpt>
      <trkpt lat="45.51161" lon="5.27251">
        <ele>473.8</ele>
        <time>2023-08-29T09:11:56Z</time>
      </trkpt>
      <trkpt lat="45.51163" lon="5.27246">
        <ele>473.6</ele>
        <time>2023-08-29T09:11:57Z</time>
      </trkpt>
      <trkpt lat="45.51165" lon="5.27241">
        <ele>473.6</ele>
        <time>2023-08-29T09:11:58Z</time>
      </trkpt>
      <trkpt lat="45.51167" lon="5.27234">
        <ele>473.6</ele>
        <time>2023-08-29T09:11:59Z</time>
      </trkpt>
      <trkpt lat="45.51168" lon="5.27228">
        <ele>473.6</ele>
        <time>2023-08-29T09:12:00Z</time>
      </trkpt>
      <trkpt lat="45.5117" lon="5.27222">
        <ele>473.6</ele>
        <time>2023-08-29T09:12:01Z</time>
      </trkpt>
      <trkpt lat="45.51171" lon="5.27215">
        <ele>473.4</ele>
        <time>2023-08-29T09:12:02Z</time>
      </trkpt>
      <trkpt lat="45.51173" lon="5.27207">
        <ele>473.4</ele>
        <time>2023-08-29T09:12:03Z</time>
      </trkpt>
      <trkpt lat="45.51175" lon="5.27201">
        <ele>473</ele>
        <time>2023-08-29T09:12:04Z</time>
      </trkpt>
      <trkpt lat="45.51178" lon="5.27193">
        <ele>473</ele>
        <time>2023-08-29T09:12:05Z</time>
      </trkpt>
      <trkpt lat="45.51181" lon="5.27186">
        <ele>472.4</ele>
        <time>2023-08-29T09:12:06Z</time>
      </trkpt>
      <trkpt lat="45.51183" lon="5.2718">
        <ele>472.2</ele>
        <time>2023-08-29T09:12:07Z</time>
      </trkpt>
      <trkpt lat="45.51186" lon="5.27174">
        <ele>472</ele>
        <time>2023-08-29T09:12:08Z</time>
      </trkpt>
      <trkpt lat="45.51189" lon="5.27167">
        <ele>471.4</ele>
        <time>2023-08-29T09:12:09Z</time>
      </trkpt>
      <trkpt lat="45.51192" lon="5.27161">
        <ele>471</ele>
        <time>2023-08-29T09:12:10Z</time>
      </trkpt>
      <trkpt lat="45.51196" lon="5.27154">
        <ele>470.8</ele>
        <time>2023-08-29T09:12:11Z</time>
      </trkpt>
      <trkpt lat="45.512" lon="5.27147">
        <ele>470.6</ele>
        <time>2023-08-29T09:12:12Z</time>
      </trkpt>
      <trkpt lat="45.51203" lon="5.2714">
        <ele>470.4</ele>
        <time>2023-08-29T09:12:13Z</time>
      </trkpt>
      <trkpt lat="45.51207" lon="5.27133">
        <ele>469.8</ele>
        <time>2023-08-29T09:12:14Z</time>
      </trkpt>
      <trkpt lat="45.51212" lon="5.27127">
        <ele>469.4</ele>
        <time>2023-08-29T09:12:15Z</time>
      </trkpt>
      <trkpt lat="45.51216" lon="5.2712">
        <ele>469</ele>
        <time>2023-08-29T09:12:16Z</time>
      </trkpt>
      <trkpt lat="45.51221" lon="5.27115">
        <ele>467.8</ele>
        <time>2023-08-29T09:12:17Z</time>
      </trkpt>
      <trkpt lat="45.51225" lon="5.27109">
        <ele>467</ele>
        <time>2023-08-29T09:12:18Z</time>
      </trkpt>
      <trkpt lat="45.51229" lon="5.27102">
        <ele>465.8</ele>
        <time>2023-08-29T09:12:19Z</time>
      </trkpt>
      <trkpt lat="45.51233" lon="5.27095">
        <ele>465.4</ele>
        <time>2023-08-29T09:12:20Z</time>
      </trkpt>
      <trkpt lat="45.51237" lon="5.27089">
        <ele>465</ele>
        <time>2023-08-29T09:12:21Z</time>
      </trkpt>
      <trkpt lat="45.51239" lon="5.27081">
        <ele>464.2</ele>
        <time>2023-08-29T09:12:22Z</time>
      </trkpt>
      <trkpt lat="45.51242" lon="5.27071">
        <ele>463.2</ele>
        <time>2023-08-29T09:12:23Z</time>
      </trkpt>
      <trkpt lat="45.51243" lon="5.27061">
        <ele>463.2</ele>
        <time>2023-08-29T09:12:24Z</time>
      </trkpt>
      <trkpt lat="45.51244" lon="5.2705">
        <ele>462.8</ele>
        <time>2023-08-29T09:12:25Z</time>
      </trkpt>
      <trkpt lat="45.51244" lon="5.27039">
        <ele>461.8</ele>
        <time>2023-08-29T09:12:26Z</time>
      </trkpt>
      <trkpt lat="45.51244" lon="5.27027">
        <ele>460.6</ele>
        <time>2023-08-29T09:12:27Z</time>
      </trkpt>
      <trkpt lat="45.51244" lon="5.27016">
        <ele>460.2</ele>
        <time>2023-08-29T09:12:28Z</time>
      </trkpt>
      <trkpt lat="45.51244" lon="5.27005">
        <ele>458.6</ele>
        <time>2023-08-29T09:12:29Z</time>
      </trkpt>
      <trkpt lat="45.51243" lon="5.26993">
        <ele>458.2</ele>
        <time>2023-08-29T09:12:30Z</time>
      </trkpt>
      <trkpt lat="45.51243" lon="5.26983">
        <ele>457.6</ele>
        <time>2023-08-29T09:12:31Z</time>
      </trkpt>
      <trkpt lat="45.51242" lon="5.26972">
        <ele>457</ele>
        <time>2023-08-29T09:12:32Z</time>
      </trkpt>
      <trkpt lat="45.51242" lon="5.2696">
        <ele>456.2</ele>
        <time>2023-08-29T09:12:33Z</time>
      </trkpt>
      <trkpt lat="45.51241" lon="5.26949">
        <ele>455.2</ele>
        <time>2023-08-29T09:12:34Z</time>
      </trkpt>
      <trkpt lat="45.51241" lon="5.26939">
        <ele>454.6</ele>
        <time>2023-08-29T09:12:35Z</time>
      </trkpt>
      <trkpt lat="45.5124" lon="5.26928">
        <ele>453.2</ele>
        <time>2023-08-29T09:12:36Z</time>
      </trkpt>
      <trkpt lat="45.51239" lon="5.26917">
        <ele>452</ele>
        <time>2023-08-29T09:12:37Z</time>
      </trkpt>
      <trkpt lat="45.51238" lon="5.26907">
        <ele>451.2</ele>
        <time>2023-08-29T09:12:38Z</time>
      </trkpt>
      <trkpt lat="45.51237" lon="5.26899">
        <ele>450.4</ele>
        <time>2023-08-29T09:12:39Z</time>
      </trkpt>
      <trkpt lat="45.51236" lon="5.2689">
        <ele>450.2</ele>
        <time>2023-08-29T09:12:40Z</time>
      </trkpt>
      <trkpt lat="45.51234" lon="5.26882">
        <ele>449.8</ele>
        <time>2023-08-29T09:12:41Z</time>
      </trkpt>
      <trkpt lat="45.51233" lon="5.26874">
        <ele>449.6</ele>
        <time>2023-08-29T09:12:42Z</time>
      </trkpt>
      <trkpt lat="45.51233" lon="5.26867">
        <ele>449</ele>
        <time>2023-08-29T09:12:43Z</time>
      </trkpt>
      <trkpt lat="45.51234" lon="5.2686">
        <ele>448.8</ele>
        <time>2023-08-29T09:12:44Z</time>
      </trkpt>
      <trkpt lat="45.51236" lon="5.26854">
        <ele>448.6</ele>
        <time>2023-08-29T09:12:45Z</time>
      </trkpt>
      <trkpt lat="45.51239" lon="5.26849">
        <ele>448.6</ele>
        <time>2023-08-29T09:12:46Z</time>
      </trkpt>
      <trkpt lat="45.51242" lon="5.26846">
        <ele>448.6</ele>
        <time>2023-08-29T09:12:47Z</time>
      </trkpt>
      <trkpt lat="45.51247" lon="5.26843">
        <ele>448.6</ele>
        <time>2023-08-29T09:12:48Z</time>
      </trkpt>
      <trkpt lat="45.51251" lon="5.2684">
        <ele>448.6</ele>
        <time>2023-08-29T09:12:49Z</time>
      </trkpt>
      <trkpt lat="45.51256" lon="5.26839">
        <ele>448.4</ele>
        <time>2023-08-29T09:12:50Z</time>
      </trkpt>
      <trkpt lat="45.5126" lon="5.26838">
        <ele>448.4</ele>
        <time>2023-08-29T09:12:51Z</time>
      </trkpt>
      <trkpt lat="45.51265" lon="5.26838">
        <ele>448.4</ele>
        <time>2023-08-29T09:12:52Z</time>
      </trkpt>
      <trkpt lat="45.5127" lon="5.26838">
        <ele>448.4</ele>
        <time>2023-08-29T09:12:53Z</time>
      </trkpt>
      <trkpt lat="45.51275" lon="5.26838">
        <ele>448.4</ele>
        <time>2023-08-29T09:12:54Z</time>
      </trkpt>
      <trkpt lat="45.51279" lon="5.26839">
        <ele>448.6</ele>
        <time>2023-08-29T09:12:55Z</time>
      </trkpt>
      <trkpt lat="45.51283" lon="5.2684">
        <ele>448.8</ele>
        <time>2023-08-29T09:12:56Z</time>
      </trkpt>
      <trkpt lat="45.51286" lon="5.26842">
        <ele>449</ele>
        <time>2023-08-29T09:12:57Z</time>
      </trkpt>
      <trkpt lat="45.51289" lon="5.26844">
        <ele>449</ele>
        <time>2023-08-29T09:12:58Z</time>
      </trkpt>
      <trkpt lat="45.51292" lon="5.26846">
        <ele>449.2</ele>
        <time>2023-08-29T09:12:59Z</time>
      </trkpt>
      <trkpt lat="45.51294" lon="5.26848">
        <ele>449.2</ele>
        <time>2023-08-29T09:13:00Z</time>
      </trkpt>
      <trkpt lat="45.51296" lon="5.2685">
        <ele>449.4</ele>
        <time>2023-08-29T09:13:01Z</time>
      </trkpt>
      <trkpt lat="45.51299" lon="5.26851">
        <ele>450</ele>
        <time>2023-08-29T09:13:02Z</time>
      </trkpt>
      <trkpt lat="45.51301" lon="5.26853">
        <ele>450.4</ele>
        <time>2023-08-29T09:13:03Z</time>
      </trkpt>
      <trkpt lat="45.51304" lon="5.26855">
        <ele>450.8</ele>
        <time>2023-08-29T09:13:04Z</time>
      </trkpt>
      <trkpt lat="45.51306" lon="5.26857">
        <ele>451.2</ele>
        <time>2023-08-29T09:13:05Z</time>
      </trkpt>
      <trkpt lat="45.51308" lon="5.26858">
        <ele>451.6</ele>
        <time>2023-08-29T09:13:06Z</time>
      </trkpt>
      <trkpt lat="45.5131" lon="5.2686">
        <ele>451.8</ele>
        <time>2023-08-29T09:13:07Z</time>
      </trkpt>
      <trkpt lat="45.51312" lon="5.26861">
        <ele>452</ele>
        <time>2023-08-29T09:13:08Z</time>
      </trkpt>
      <trkpt lat="45.51314" lon="5.26863">
        <ele>452.2</ele>
        <time>2023-08-29T09:13:09Z</time>
      </trkpt>
      <trkpt lat="45.51316" lon="5.26864">
        <ele>452.6</ele>
        <time>2023-08-29T09:13:10Z</time>
      </trkpt>
      <trkpt lat="45.51318" lon="5.26866">
        <ele>452.8</ele>
        <time>2023-08-29T09:13:11Z</time>
      </trkpt>
      <trkpt lat="45.5132" lon="5.26867">
        <ele>453.2</ele>
        <time>2023-08-29T09:13:12Z</time>
      </trkpt>
      <trkpt lat="45.51322" lon="5.26867">
        <ele>453.4</ele>
        <time>2023-08-29T09:13:13Z</time>
      </trkpt>
      <trkpt lat="45.51324" lon="5.26868">
        <ele>453.8</ele>
        <time>2023-08-29T09:13:14Z</time>
      </trkpt>
      <trkpt lat="45.51326" lon="5.26869">
        <ele>454</ele>
        <time>2023-08-29T09:13:15Z</time>
      </trkpt>
      <trkpt lat="45.51328" lon="5.2687">
        <ele>454.2</ele>
        <time>2023-08-29T09:13:16Z</time>
      </trkpt>
      <trkpt lat="45.5133" lon="5.26871">
        <ele>454.4</ele>
        <time>2023-08-29T09:13:17Z</time>
      </trkpt>
      <trkpt lat="45.51332" lon="5.26872">
        <ele>454.6</ele>
        <time>2023-08-29T09:13:18Z</time>
      </trkpt>
      <trkpt lat="45.51334" lon="5.26872">
        <ele>454.8</ele>
        <time>2023-08-29T09:13:19Z</time>
      </trkpt>
      <trkpt lat="45.51336" lon="5.26873">
        <ele>455.2</ele>
        <time>2023-08-29T09:13:20Z</time>
      </trkpt>
      <trkpt lat="45.51338" lon="5.26874">
        <ele>455.4</ele>
        <time>2023-08-29T09:13:21Z</time>
      </trkpt>
      <trkpt lat="45.5134" lon="5.26874">
        <ele>455.6</ele>
        <time>2023-08-29T09:13:22Z</time>
      </trkpt>
      <trkpt lat="45.51342" lon="5.26875">
        <ele>455.8</ele>
        <time>2023-08-29T09:13:23Z</time>
      </trkpt>
      <trkpt lat="45.51344" lon="5.26875">
        <ele>456</ele>
        <time>2023-08-29T09:13:24Z</time>
      </trkpt>
      <trkpt lat="45.51346" lon="5.26875">
        <ele>456.2</ele>
        <time>2023-08-29T09:13:25Z</time>
      </trkpt>
      <trkpt lat="45.51348" lon="5.26876">
        <ele>456.2</ele>
        <time>2023-08-29T09:13:26Z</time>
      </trkpt>
      <trkpt lat="45.5135" lon="5.26876">
        <ele>456.4</ele>
        <time>2023-08-29T09:13:27Z</time>
      </trkpt>
      <trkpt lat="45.51352" lon="5.26877">
        <ele>456.4</ele>
        <time>2023-08-29T09:13:28Z</time>
      </trkpt>
      <trkpt lat="45.51354" lon="5.26877">
        <ele>456.6</ele>
        <time>2023-08-29T09:13:29Z</time>
      </trkpt>
      <trkpt lat="45.51356" lon="5.26878">
        <ele>457</ele>
        <time>2023-08-29T09:13:30Z</time>
      </trkpt>
      <trkpt lat="45.51358" lon="5.26878">
        <ele>457.4</ele>
        <time>2023-08-29T09:13:31Z</time>
      </trkpt>
      <trkpt lat="45.5136" lon="5.26878">
        <ele>457.6</ele>
        <time>2023-08-29T09:13:32Z</time>
      </trkpt>
      <trkpt lat="45.51361" lon="5.26879">
        <ele>457.8</ele>
        <time>2023-08-29T09:13:33Z</time>
      </trkpt>
      <trkpt lat="45.51363" lon="5.26879">
        <ele>458</ele>
        <time>2023-08-29T09:13:34Z</time>
      </trkpt>
      <trkpt lat="45.51366" lon="5.26879">
        <ele>458.2</ele>
        <time>2023-08-29T09:13:35Z</time>
      </trkpt>
      <trkpt lat="45.51368" lon="5.2688">
        <ele>458.6</ele>
        <time>2023-08-29T09:13:36Z</time>
      </trkpt>
      <trkpt lat="45.5137" lon="5.2688">
        <ele>459</ele>
        <time>2023-08-29T09:13:37Z</time>
      </trkpt>
      <trkpt lat="45.51372" lon="5.2688">
        <ele>459</ele>
        <time>2023-08-29T09:13:38Z</time>
      </trkpt>
      <trkpt lat="45.51373" lon="5.26881">
        <ele>459.4</ele>
        <time>2023-08-29T09:13:39Z</time>
      </trkpt>
      <trkpt lat="45.51375" lon="5.26881">
        <ele>459.4</ele>
        <time>2023-08-29T09:13:40Z</time>
      </trkpt>
      <trkpt lat="45.51377" lon="5.26881">
        <ele>459.8</ele>
        <time>2023-08-29T09:13:41Z</time>
      </trkpt>
      <trkpt lat="45.51379" lon="5.26881">
        <ele>460</ele>
        <time>2023-08-29T09:13:42Z</time>
      </trkpt>
      <trkpt lat="45.51381" lon="5.26881">
        <ele>460.2</ele>
        <time>2023-08-29T09:13:43Z</time>
      </trkpt>
      <trkpt lat="45.51382" lon="5.26881">
        <ele>460.8</ele>
        <time>2023-08-29T09:13:44Z</time>
      </trkpt>
      <trkpt lat="45.51384" lon="5.26881">
        <ele>461</ele>
        <time>2023-08-29T09:13:45Z</time>
      </trkpt>
      <trkpt lat="45.51386" lon="5.26881">
        <ele>461.2</ele>
        <time>2023-08-29T09:13:46Z</time>
      </trkpt>
      <trkpt lat="45.51388" lon="5.2688">
        <ele>461.6</ele>
        <time>2023-08-29T09:13:47Z</time>
      </trkpt>
      <trkpt lat="45.5139" lon="5.2688">
        <ele>461.8</ele>
        <time>2023-08-29T09:13:48Z</time>
      </trkpt>
      <trkpt lat="45.51391" lon="5.2688">
        <ele>462</ele>
        <time>2023-08-29T09:13:49Z</time>
      </trkpt>
      <trkpt lat="45.51393" lon="5.2688">
        <ele>462.4</ele>
        <time>2023-08-29T09:13:50Z</time>
      </trkpt>
      <trkpt lat="45.51396" lon="5.26879">
        <ele>462.8</ele>
        <time>2023-08-29T09:13:51Z</time>
      </trkpt>
      <trkpt lat="45.51398" lon="5.26878">
        <ele>463</ele>
        <time>2023-08-29T09:13:52Z</time>
      </trkpt>
      <trkpt lat="45.514" lon="5.26878">
        <ele>463.2</ele>
        <time>2023-08-29T09:13:53Z</time>
      </trkpt>
      <trkpt lat="45.51401" lon="5.26877">
        <ele>463.4</ele>
        <time>2023-08-29T09:13:54Z</time>
      </trkpt>
      <trkpt lat="45.51403" lon="5.26877">
        <ele>463.4</ele>
        <time>2023-08-29T09:13:55Z</time>
      </trkpt>
      <trkpt lat="45.51405" lon="5.26876">
        <ele>463.4</ele>
        <time>2023-08-29T09:13:56Z</time>
      </trkpt>
      <trkpt lat="45.51408" lon="5.26875">
        <ele>463.4</ele>
        <time>2023-08-29T09:13:57Z</time>
      </trkpt>
      <trkpt lat="45.5141" lon="5.26874">
        <ele>463.4</ele>
        <time>2023-08-29T09:13:58Z</time>
      </trkpt>
      <trkpt lat="45.51412" lon="5.26873">
        <ele>463.6</ele>
        <time>2023-08-29T09:13:59Z</time>
      </trkpt>
      <trkpt lat="45.51414" lon="5.26872">
        <ele>463.8</ele>
        <time>2023-08-29T09:14:00Z</time>
      </trkpt>
      <trkpt lat="45.51416" lon="5.26872">
        <ele>464</ele>
        <time>2023-08-29T09:14:01Z</time>
      </trkpt>
      <trkpt lat="45.51418" lon="5.26871">
        <ele>464.2</ele>
        <time>2023-08-29T09:14:02Z</time>
      </trkpt>
      <trkpt lat="45.5142" lon="5.2687">
        <ele>464.6</ele>
        <time>2023-08-29T09:14:03Z</time>
      </trkpt>
      <trkpt lat="45.51422" lon="5.2687">
        <ele>464.8</ele>
        <time>2023-08-29T09:14:04Z</time>
      </trkpt>
      <trkpt lat="45.51423" lon="5.2687">
        <ele>465</ele>
        <time>2023-08-29T09:14:05Z</time>
      </trkpt>
      <trkpt lat="45.51425" lon="5.26869">
        <ele>465.4</ele>
        <time>2023-08-29T09:14:06Z</time>
      </trkpt>
      <trkpt lat="45.51427" lon="5.26868">
        <ele>465.6</ele>
        <time>2023-08-29T09:14:07Z</time>
      </trkpt>
      <trkpt lat="45.51429" lon="5.26866">
        <ele>465.8</ele>
        <time>2023-08-29T09:14:08Z</time>
      </trkpt>
      <trkpt lat="45.51431" lon="5.26866">
        <ele>466</ele>
        <time>2023-08-29T09:14:09Z</time>
      </trkpt>
      <trkpt lat="45.51433" lon="5.26866">
        <ele>466.2</ele>
        <time>2023-08-29T09:14:10Z</time>
      </trkpt>
      <trkpt lat="45.51434" lon="5.26866">
        <ele>466.4</ele>
        <time>2023-08-29T09:14:11Z</time>
      </trkpt>
      <trkpt lat="45.51436" lon="5.26865">
        <ele>466.4</ele>
        <time>2023-08-29T09:14:12Z</time>
      </trkpt>
      <trkpt lat="45.51438" lon="5.26864">
        <ele>466.6</ele>
        <time>2023-08-29T09:14:13Z</time>
      </trkpt>
      <trkpt lat="45.5144" lon="5.26863">
        <ele>466.8</ele>
        <time>2023-08-29T09:14:14Z</time>
      </trkpt>
      <trkpt lat="45.51442" lon="5.26863">
        <ele>466.8</ele>
        <time>2023-08-29T09:14:15Z</time>
      </trkpt>
      <trkpt lat="45.51444" lon="5.26862">
        <ele>466.8</ele>
        <time>2023-08-29T09:14:16Z</time>
      </trkpt>
      <trkpt lat="45.51446" lon="5.26861">
        <ele>467</ele>
        <time>2023-08-29T09:14:17Z</time>
      </trkpt>
      <trkpt lat="45.51448" lon="5.2686">
        <ele>467.2</ele>
        <time>2023-08-29T09:14:18Z</time>
      </trkpt>
      <trkpt lat="45.5145" lon="5.26859">
        <ele>467.4</ele>
        <time>2023-08-29T09:14:19Z</time>
      </trkpt>
      <trkpt lat="45.51452" lon="5.26859">
        <ele>467.6</ele>
        <time>2023-08-29T09:14:20Z</time>
      </trkpt>
      <trkpt lat="45.51454" lon="5.26858">
        <ele>467.8</ele>
        <time>2023-08-29T09:14:21Z</time>
      </trkpt>
      <trkpt lat="45.51456" lon="5.26857">
        <ele>468.4</ele>
        <time>2023-08-29T09:14:22Z</time>
      </trkpt>
      <trkpt lat="45.51458" lon="5.26857">
        <ele>468.6</ele>
        <time>2023-08-29T09:14:23Z</time>
      </trkpt>
      <trkpt lat="45.5146" lon="5.26857">
        <ele>468.6</ele>
        <time>2023-08-29T09:14:24Z</time>
      </trkpt>
      <trkpt lat="45.51463" lon="5.26857">
        <ele>468.6</ele>
        <time>2023-08-29T09:14:25Z</time>
      </trkpt>
      <trkpt lat="45.51465" lon="5.26857">
        <ele>468.8</ele>
        <time>2023-08-29T09:14:26Z</time>
      </trkpt>
      <trkpt lat="45.51467" lon="5.26857">
        <ele>469</ele>
        <time>2023-08-29T09:14:27Z</time>
      </trkpt>
      <trkpt lat="45.51469" lon="5.26857">
        <ele>469</ele>
        <time>2023-08-29T09:14:28Z</time>
      </trkpt>
      <trkpt lat="45.51471" lon="5.26856">
        <ele>469</ele>
        <time>2023-08-29T09:14:29Z</time>
      </trkpt>
      <trkpt lat="45.51474" lon="5.26857">
        <ele>469</ele>
        <time>2023-08-29T09:14:30Z</time>
      </trkpt>
      <trkpt lat="45.51476" lon="5.26858">
        <ele>469</ele>
        <time>2023-08-29T09:14:31Z</time>
      </trkpt>
      <trkpt lat="45.51478" lon="5.26859">
        <ele>469</ele>
        <time>2023-08-29T09:14:32Z</time>
      </trkpt>
      <trkpt lat="45.51481" lon="5.2686">
        <ele>469</ele>
        <time>2023-08-29T09:14:33Z</time>
      </trkpt>
      <trkpt lat="45.51484" lon="5.26859">
        <ele>469</ele>
        <time>2023-08-29T09:14:34Z</time>
      </trkpt>
      <trkpt lat="45.51486" lon="5.26858">
        <ele>469.2</ele>
        <time>2023-08-29T09:14:35Z</time>
      </trkpt>
      <trkpt lat="45.51488" lon="5.26857">
        <ele>469.2</ele>
        <time>2023-08-29T09:14:36Z</time>
      </trkpt>
      <trkpt lat="45.51491" lon="5.26856">
        <ele>469.4</ele>
        <time>2023-08-29T09:14:37Z</time>
      </trkpt>
      <trkpt lat="45.51492" lon="5.26855">
        <ele>469.4</ele>
        <time>2023-08-29T09:14:38Z</time>
      </trkpt>
      <trkpt lat="45.51495" lon="5.26853">
        <ele>469.6</ele>
        <time>2023-08-29T09:14:39Z</time>
      </trkpt>
      <trkpt lat="45.51496" lon="5.26851">
        <ele>469.8</ele>
        <time>2023-08-29T09:14:40Z</time>
      </trkpt>
      <trkpt lat="45.51498" lon="5.26848">
        <ele>470</ele>
        <time>2023-08-29T09:14:41Z</time>
      </trkpt>
      <trkpt lat="45.515" lon="5.26846">
        <ele>470.2</ele>
        <time>2023-08-29T09:14:42Z</time>
      </trkpt>
      <trkpt lat="45.51501" lon="5.26845">
        <ele>470.4</ele>
        <time>2023-08-29T09:14:43Z</time>
      </trkpt>
      <trkpt lat="45.51503" lon="5.26843">
        <ele>470.6</ele>
        <time>2023-08-29T09:14:44Z</time>
      </trkpt>
      <trkpt lat="45.51505" lon="5.2684">
        <ele>470.8</ele>
        <time>2023-08-29T09:14:45Z</time>
      </trkpt>
      <trkpt lat="45.51507" lon="5.26837">
        <ele>471</ele>
        <time>2023-08-29T09:14:46Z</time>
      </trkpt>
      <trkpt lat="45.51509" lon="5.26834">
        <ele>471.2</ele>
        <time>2023-08-29T09:14:47Z</time>
      </trkpt>
      <trkpt lat="45.5151" lon="5.26832">
        <ele>471.2</ele>
        <time>2023-08-29T09:14:48Z</time>
      </trkpt>
      <trkpt lat="45.51512" lon="5.2683">
        <ele>471.4</ele>
        <time>2023-08-29T09:14:49Z</time>
      </trkpt>
      <trkpt lat="45.51514" lon="5.26827">
        <ele>471.4</ele>
        <time>2023-08-29T09:14:50Z</time>
      </trkpt>
      <trkpt lat="45.51515" lon="5.26824">
        <ele>471.4</ele>
        <time>2023-08-29T09:14:51Z</time>
      </trkpt>
      <trkpt lat="45.51517" lon="5.26822">
        <ele>471.6</ele>
        <time>2023-08-29T09:14:52Z</time>
      </trkpt>
      <trkpt lat="45.51519" lon="5.2682">
        <ele>472</ele>
        <time>2023-08-29T09:14:53Z</time>
      </trkpt>
      <trkpt lat="45.51521" lon="5.26819">
        <ele>472</ele>
        <time>2023-08-29T09:14:54Z</time>
      </trkpt>
      <trkpt lat="45.51522" lon="5.26817">
        <ele>472</ele>
        <time>2023-08-29T09:14:55Z</time>
      </trkpt>
      <trkpt lat="45.51524" lon="5.26815">
        <ele>472.2</ele>
        <time>2023-08-29T09:14:56Z</time>
      </trkpt>
      <trkpt lat="45.51526" lon="5.26814">
        <ele>472.4</ele>
        <time>2023-08-29T09:14:57Z</time>
      </trkpt>
      <trkpt lat="45.51528" lon="5.26812">
        <ele>472.6</ele>
        <time>2023-08-29T09:14:58Z</time>
      </trkpt>
      <trkpt lat="45.5153" lon="5.2681">
        <ele>472.6</ele>
        <time>2023-08-29T09:14:59Z</time>
      </trkpt>
      <trkpt lat="45.51532" lon="5.26808">
        <ele>472.6</ele>
        <time>2023-08-29T09:15:00Z</time>
      </trkpt>
      <trkpt lat="45.51534" lon="5.26806">
        <ele>472.8</ele>
        <time>2023-08-29T09:15:01Z</time>
      </trkpt>
      <trkpt lat="45.51537" lon="5.26805">
        <ele>472.8</ele>
        <time>2023-08-29T09:15:02Z</time>
      </trkpt>
      <trkpt lat="45.51538" lon="5.26804">
        <ele>473</ele>
        <time>2023-08-29T09:15:03Z</time>
      </trkpt>
      <trkpt lat="45.5154" lon="5.26803">
        <ele>473.2</ele>
        <time>2023-08-29T09:15:04Z</time>
      </trkpt>
      <trkpt lat="45.51543" lon="5.26801">
        <ele>473.2</ele>
        <time>2023-08-29T09:15:05Z</time>
      </trkpt>
      <trkpt lat="45.51545" lon="5.268">
        <ele>473.6</ele>
        <time>2023-08-29T09:15:06Z</time>
      </trkpt>
      <trkpt lat="45.51547" lon="5.26799">
        <ele>473.8</ele>
        <time>2023-08-29T09:15:07Z</time>
      </trkpt>
      <trkpt lat="45.51549" lon="5.26797">
        <ele>473.8</ele>
        <time>2023-08-29T09:15:08Z</time>
      </trkpt>
      <trkpt lat="45.51551" lon="5.26796">
        <ele>474</ele>
        <time>2023-08-29T09:15:09Z</time>
      </trkpt>
      <trkpt lat="45.51554" lon="5.26794">
        <ele>474.2</ele>
        <time>2023-08-29T09:15:10Z</time>
      </trkpt>
      <trkpt lat="45.51556" lon="5.26793">
        <ele>474.4</ele>
        <time>2023-08-29T09:15:11Z</time>
      </trkpt>
      <trkpt lat="45.51558" lon="5.2679">
        <ele>474.6</ele>
        <time>2023-08-29T09:15:12Z</time>
      </trkpt>
      <trkpt lat="45.5156" lon="5.26788">
        <ele>474.8</ele>
        <time>2023-08-29T09:15:13Z</time>
      </trkpt>
      <trkpt lat="45.51562" lon="5.26787">
        <ele>475</ele>
        <time>2023-08-29T09:15:14Z</time>
      </trkpt>
      <trkpt lat="45.51564" lon="5.26786">
        <ele>475.2</ele>
        <time>2023-08-29T09:15:15Z</time>
      </trkpt>
      <trkpt lat="45.51566" lon="5.26785">
        <ele>475.4</ele>
        <time>2023-08-29T09:15:16Z</time>
      </trkpt>
      <trkpt lat="45.51569" lon="5.26783">
        <ele>475.6</ele>
        <time>2023-08-29T09:15:17Z</time>
      </trkpt>
      <trkpt lat="45.51571" lon="5.26782">
        <ele>475.6</ele>
        <time>2023-08-29T09:15:18Z</time>
      </trkpt>
      <trkpt lat="45.51572" lon="5.2678">
        <ele>475.8</ele>
        <time>2023-08-29T09:15:19Z</time>
      </trkpt>
      <trkpt lat="45.51574" lon="5.26779">
        <ele>476.2</ele>
        <time>2023-08-29T09:15:20Z</time>
      </trkpt>
      <trkpt lat="45.51576" lon="5.26778">
        <ele>476.4</ele>
        <time>2023-08-29T09:15:21Z</time>
      </trkpt>
      <trkpt lat="45.51578" lon="5.26777">
        <ele>476.6</ele>
        <time>2023-08-29T09:15:22Z</time>
      </trkpt>
      <trkpt lat="45.5158" lon="5.26776">
        <ele>476.8</ele>
        <time>2023-08-29T09:15:23Z</time>
      </trkpt>
      <trkpt lat="45.51582" lon="5.26776">
        <ele>477</ele>
        <time>2023-08-29T09:15:24Z</time>
      </trkpt>
      <trkpt lat="45.51585" lon="5.26775">
        <ele>477</ele>
        <time>2023-08-29T09:15:25Z</time>
      </trkpt>
      <trkpt lat="45.51587" lon="5.26774">
        <ele>477.4</ele>
        <time>2023-08-29T09:15:26Z</time>
      </trkpt>
      <trkpt lat="45.5159" lon="5.26774">
        <ele>477.4</ele>
        <time>2023-08-29T09:15:27Z</time>
      </trkpt>
      <trkpt lat="45.51592" lon="5.26773">
        <ele>477.6</ele>
        <time>2023-08-29T09:15:28Z</time>
      </trkpt>
      <trkpt lat="45.51594" lon="5.26773">
        <ele>477.8</ele>
        <time>2023-08-29T09:15:29Z</time>
      </trkpt>
      <trkpt lat="45.51596" lon="5.26772">
        <ele>477.8</ele>
        <time>2023-08-29T09:15:30Z</time>
      </trkpt>
      <trkpt lat="45.51599" lon="5.26771">
        <ele>477.8</ele>
        <time>2023-08-29T09:15:31Z</time>
      </trkpt>
      <trkpt lat="45.51601" lon="5.2677">
        <ele>477.8</ele>
        <time>2023-08-29T09:15:32Z</time>
      </trkpt>
      <trkpt lat="45.51603" lon="5.26769">
        <ele>477.8</ele>
        <time>2023-08-29T09:15:33Z</time>
      </trkpt>
      <trkpt lat="45.51605" lon="5.26768">
        <ele>478</ele>
        <time>2023-08-29T09:15:34Z</time>
      </trkpt>
      <trkpt lat="45.51607" lon="5.26767">
        <ele>478</ele>
        <time>2023-08-29T09:15:35Z</time>
      </trkpt>
      <trkpt lat="45.51609" lon="5.26766">
        <ele>478.2</ele>
        <time>2023-08-29T09:15:36Z</time>
      </trkpt>
      <trkpt lat="45.51611" lon="5.26765">
        <ele>478.4</ele>
        <time>2023-08-29T09:15:37Z</time>
      </trkpt>
      <trkpt lat="45.51613" lon="5.26765">
        <ele>478.8</ele>
        <time>2023-08-29T09:15:38Z</time>
      </trkpt>
      <trkpt lat="45.51615" lon="5.26764">
        <ele>479.2</ele>
        <time>2023-08-29T09:15:39Z</time>
      </trkpt>
      <trkpt lat="45.51617" lon="5.26763">
        <ele>479.6</ele>
        <time>2023-08-29T09:15:40Z</time>
      </trkpt>
      <trkpt lat="45.51619" lon="5.26762">
        <ele>479.8</ele>
        <time>2023-08-29T09:15:41Z</time>
      </trkpt>
      <trkpt lat="45.51621" lon="5.26761">
        <ele>480</ele>
        <time>2023-08-29T09:15:42Z</time>
      </trkpt>
      <trkpt lat="45.51624" lon="5.2676">
        <ele>480.4</ele>
        <time>2023-08-29T09:15:43Z</time>
      </trkpt>
      <trkpt lat="45.51626" lon="5.2676">
        <ele>480.6</ele>
        <time>2023-08-29T09:15:44Z</time>
      </trkpt>
      <trkpt lat="45.51628" lon="5.26759">
        <ele>480.8</ele>
        <time>2023-08-29T09:15:45Z</time>
      </trkpt>
      <trkpt lat="45.5163" lon="5.26759">
        <ele>481</ele>
        <time>2023-08-29T09:15:46Z</time>
      </trkpt>
      <trkpt lat="45.51632" lon="5.26759">
        <ele>481.2</ele>
        <time>2023-08-29T09:15:47Z</time>
      </trkpt>
      <trkpt lat="45.51633" lon="5.26758">
        <ele>481.4</ele>
        <time>2023-08-29T09:15:48Z</time>
      </trkpt>
      <trkpt lat="45.51635" lon="5.26757">
        <ele>481.6</ele>
        <time>2023-08-29T09:15:49Z</time>
      </trkpt>
      <trkpt lat="45.51637" lon="5.26755">
        <ele>481.8</ele>
        <time>2023-08-29T09:15:50Z</time>
      </trkpt>
      <trkpt lat="45.51639" lon="5.26754">
        <ele>482.2</ele>
        <time>2023-08-29T09:15:51Z</time>
      </trkpt>
      <trkpt lat="45.51641" lon="5.26753">
        <ele>482.4</ele>
        <time>2023-08-29T09:15:52Z</time>
      </trkpt>
      <trkpt lat="45.51643" lon="5.26751">
        <ele>482.6</ele>
        <time>2023-08-29T09:15:53Z</time>
      </trkpt>
      <trkpt lat="45.51644" lon="5.26747">
        <ele>483</ele>
        <time>2023-08-29T09:15:54Z</time>
      </trkpt>
      <trkpt lat="45.51644" lon="5.26744">
        <ele>483.4</ele>
        <time>2023-08-29T09:15:55Z</time>
      </trkpt>
      <trkpt lat="45.51644" lon="5.26741">
        <ele>483.6</ele>
        <time>2023-08-29T09:15:56Z</time>
      </trkpt>
      <trkpt lat="45.51643" lon="5.26737">
        <ele>484</ele>
        <time>2023-08-29T09:15:57Z</time>
      </trkpt>
      <trkpt lat="45.51643" lon="5.26733">
        <ele>484</ele>
        <time>2023-08-29T09:15:58Z</time>
      </trkpt>
      <trkpt lat="45.51642" lon="5.26729">
        <ele>484</ele>
        <time>2023-08-29T09:15:59Z</time>
      </trkpt>
      <trkpt lat="45.51642" lon="5.26725">
        <ele>484</ele>
        <time>2023-08-29T09:16:00Z</time>
      </trkpt>
      <trkpt lat="45.51641" lon="5.26721">
        <ele>484</ele>
        <time>2023-08-29T09:16:01Z</time>
      </trkpt>
      <trkpt lat="45.5164" lon="5.26717">
        <ele>483.8</ele>
        <time>2023-08-29T09:16:02Z</time>
      </trkpt>
      <trkpt lat="45.51639" lon="5.26713">
        <ele>483.8</ele>
        <time>2023-08-29T09:16:03Z</time>
      </trkpt>
      <trkpt lat="45.51638" lon="5.26709">
        <ele>483.6</ele>
        <time>2023-08-29T09:16:04Z</time>
      </trkpt>
      <trkpt lat="45.51637" lon="5.26705">
        <ele>483.6</ele>
        <time>2023-08-29T09:16:05Z</time>
      </trkpt>
      <trkpt lat="45.51635" lon="5.267">
        <ele>483.6</ele>
        <time>2023-08-29T09:16:06Z</time>
      </trkpt>
      <trkpt lat="45.51634" lon="5.26696">
        <ele>483.6</ele>
        <time>2023-08-29T09:16:07Z</time>
      </trkpt>
      <trkpt lat="45.51633" lon="5.26692">
        <ele>483.4</ele>
        <time>2023-08-29T09:16:08Z</time>
      </trkpt>
      <trkpt lat="45.51631" lon="5.26688">
        <ele>483.4</ele>
        <time>2023-08-29T09:16:09Z</time>
      </trkpt>
      <trkpt lat="45.5163" lon="5.26684">
        <ele>483.4</ele>
        <time>2023-08-29T09:16:10Z</time>
      </trkpt>
      <trkpt lat="45.51629" lon="5.26679">
        <ele>483.2</ele>
        <time>2023-08-29T09:16:11Z</time>
      </trkpt>
      <trkpt lat="45.51627" lon="5.26674">
        <ele>483.2</ele>
        <time>2023-08-29T09:16:12Z</time>
      </trkpt>
      <trkpt lat="45.51626" lon="5.26669">
        <ele>483.2</ele>
        <time>2023-08-29T09:16:13Z</time>
      </trkpt>
      <trkpt lat="45.51624" lon="5.26665">
        <ele>483.2</ele>
        <time>2023-08-29T09:16:14Z</time>
      </trkpt>
      <trkpt lat="45.51621" lon="5.2666">
        <ele>483</ele>
        <time>2023-08-29T09:16:15Z</time>
      </trkpt>
      <trkpt lat="45.5162" lon="5.26656">
        <ele>483</ele>
        <time>2023-08-29T09:16:16Z</time>
      </trkpt>
      <trkpt lat="45.51618" lon="5.26651">
        <ele>483</ele>
        <time>2023-08-29T09:16:17Z</time>
      </trkpt>
      <trkpt lat="45.51616" lon="5.26646">
        <ele>482.8</ele>
        <time>2023-08-29T09:16:18Z</time>
      </trkpt>
      <trkpt lat="45.51614" lon="5.26641">
        <ele>482.8</ele>
        <time>2023-08-29T09:16:19Z</time>
      </trkpt>
      <trkpt lat="45.51612" lon="5.26636">
        <ele>482.4</ele>
        <time>2023-08-29T09:16:20Z</time>
      </trkpt>
      <trkpt lat="45.5161" lon="5.26631">
        <ele>482.2</ele>
        <time>2023-08-29T09:16:21Z</time>
      </trkpt>
      <trkpt lat="45.51607" lon="5.26626">
        <ele>482.2</ele>
        <time>2023-08-29T09:16:22Z</time>
      </trkpt>
      <trkpt lat="45.51604" lon="5.2662">
        <ele>482</ele>
        <time>2023-08-29T09:16:23Z</time>
      </trkpt>
      <trkpt lat="45.51601" lon="5.26614">
        <ele>481.6</ele>
        <time>2023-08-29T09:16:24Z</time>
      </trkpt>
      <trkpt lat="45.51598" lon="5.26608">
        <ele>481.6</ele>
        <time>2023-08-29T09:16:25Z</time>
      </trkpt>
      <trkpt lat="45.51595" lon="5.26601">
        <ele>481</ele>
        <time>2023-08-29T09:16:26Z</time>
      </trkpt>
      <trkpt lat="45.5159" lon="5.26595">
        <ele>480.6</ele>
        <time>2023-08-29T09:16:27Z</time>
      </trkpt>
      <trkpt lat="45.51586" lon="5.26588">
        <ele>480.4</ele>
        <time>2023-08-29T09:16:28Z</time>
      </trkpt>
      <trkpt lat="45.51581" lon="5.26581">
        <ele>480</ele>
        <time>2023-08-29T09:16:29Z</time>
      </trkpt>
      <trkpt lat="45.51577" lon="5.26574">
        <ele>479.6</ele>
        <time>2023-08-29T09:16:30Z</time>
      </trkpt>
      <trkpt lat="45.51572" lon="5.26567">
        <ele>479.2</ele>
        <time>2023-08-29T09:16:31Z</time>
      </trkpt>
      <trkpt lat="45.51568" lon="5.2656">
        <ele>479</ele>
        <time>2023-08-29T09:16:32Z</time>
      </trkpt>
      <trkpt lat="45.51564" lon="5.26553">
        <ele>478.8</ele>
        <time>2023-08-29T09:16:33Z</time>
      </trkpt>
      <trkpt lat="45.5156" lon="5.26546">
        <ele>478.8</ele>
        <time>2023-08-29T09:16:34Z</time>
      </trkpt>
      <trkpt lat="45.51556" lon="5.26539">
        <ele>478.6</ele>
        <time>2023-08-29T09:16:35Z</time>
      </trkpt>
      <trkpt lat="45.51553" lon="5.26532">
        <ele>478</ele>
        <time>2023-08-29T09:16:36Z</time>
      </trkpt>
      <trkpt lat="45.51549" lon="5.26525">
        <ele>478</ele>
        <time>2023-08-29T09:16:37Z</time>
      </trkpt>
      <trkpt lat="45.51546" lon="5.26519">
        <ele>477.6</ele>
        <time>2023-08-29T09:16:38Z</time>
      </trkpt>
      <trkpt lat="45.51544" lon="5.26513">
        <ele>477.4</ele>
        <time>2023-08-29T09:16:39Z</time>
      </trkpt>
      <trkpt lat="45.51541" lon="5.26506">
        <ele>477.4</ele>
        <time>2023-08-29T09:16:40Z</time>
      </trkpt>
      <trkpt lat="45.51538" lon="5.26501">
        <ele>477.4</ele>
        <time>2023-08-29T09:16:41Z</time>
      </trkpt>
      <trkpt lat="45.51535" lon="5.26496">
        <ele>477.4</ele>
        <time>2023-08-29T09:16:42Z</time>
      </trkpt>
      <trkpt lat="45.51533" lon="5.26491">
        <ele>477.4</ele>
        <time>2023-08-29T09:16:43Z</time>
      </trkpt>
      <trkpt lat="45.51531" lon="5.26486">
        <ele>478</ele>
        <time>2023-08-29T09:16:44Z</time>
      </trkpt>
      <trkpt lat="45.51529" lon="5.26482">
        <ele>478.2</ele>
        <time>2023-08-29T09:16:45Z</time>
      </trkpt>
      <trkpt lat="45.51528" lon="5.26479">
        <ele>478.4</ele>
        <time>2023-08-29T09:16:46Z</time>
      </trkpt>
      <trkpt lat="45.51526" lon="5.26475">
        <ele>478.8</ele>
        <time>2023-08-29T09:16:47Z</time>
      </trkpt>
      <trkpt lat="45.51525" lon="5.26471">
        <ele>479</ele>
        <time>2023-08-29T09:16:48Z</time>
      </trkpt>
      <trkpt lat="45.51524" lon="5.26467">
        <ele>479</ele>
        <time>2023-08-29T09:16:49Z</time>
      </trkpt>
      <trkpt lat="45.51522" lon="5.26463">
        <ele>479.2</ele>
        <time>2023-08-29T09:16:50Z</time>
      </trkpt>
      <trkpt lat="45.5152" lon="5.26459">
        <ele>479.6</ele>
        <time>2023-08-29T09:16:51Z</time>
      </trkpt>
      <trkpt lat="45.51519" lon="5.26456">
        <ele>479.8</ele>
        <time>2023-08-29T09:16:52Z</time>
      </trkpt>
      <trkpt lat="45.51518" lon="5.26453">
        <ele>480</ele>
        <time>2023-08-29T09:16:53Z</time>
      </trkpt>
      <trkpt lat="45.51517" lon="5.2645">
        <ele>480</ele>
        <time>2023-08-29T09:16:54Z</time>
      </trkpt>
      <trkpt lat="45.51515" lon="5.26446">
        <ele>480.2</ele>
        <time>2023-08-29T09:16:55Z</time>
      </trkpt>
      <trkpt lat="45.51514" lon="5.26443">
        <ele>480.2</ele>
        <time>2023-08-29T09:16:56Z</time>
      </trkpt>
      <trkpt lat="45.51512" lon="5.2644">
        <ele>480.2</ele>
        <time>2023-08-29T09:16:57Z</time>
      </trkpt>
      <trkpt lat="45.51511" lon="5.26437">
        <ele>480.2</ele>
        <time>2023-08-29T09:16:58Z</time>
      </trkpt>
      <trkpt lat="45.5151" lon="5.26434">
        <ele>480.2</ele>
        <time>2023-08-29T09:16:59Z</time>
      </trkpt>
      <trkpt lat="45.51508" lon="5.26432">
        <ele>480.4</ele>
        <time>2023-08-29T09:17:00Z</time>
      </trkpt>
      <trkpt lat="45.51507" lon="5.26428">
        <ele>480.8</ele>
        <time>2023-08-29T09:17:01Z</time>
      </trkpt>
      <trkpt lat="45.51506" lon="5.26425">
        <ele>481.4</ele>
        <time>2023-08-29T09:17:02Z</time>
      </trkpt>
      <trkpt lat="45.51505" lon="5.26422">
        <ele>481.8</ele>
        <time>2023-08-29T09:17:03Z</time>
      </trkpt>
      <trkpt lat="45.51504" lon="5.26419">
        <ele>482.2</ele>
        <time>2023-08-29T09:17:04Z</time>
      </trkpt>
      <trkpt lat="45.51504" lon="5.26416">
        <ele>482.2</ele>
        <time>2023-08-29T09:17:05Z</time>
      </trkpt>
      <trkpt lat="45.51502" lon="5.26413">
        <ele>482.4</ele>
        <time>2023-08-29T09:17:06Z</time>
      </trkpt>
      <trkpt lat="45.51501" lon="5.2641">
        <ele>482.6</ele>
        <time>2023-08-29T09:17:07Z</time>
      </trkpt>
      <trkpt lat="45.51501" lon="5.26407">
        <ele>482.8</ele>
        <time>2023-08-29T09:17:08Z</time>
      </trkpt>
      <trkpt lat="45.51501" lon="5.26403">
        <ele>483</ele>
        <time>2023-08-29T09:17:09Z</time>
      </trkpt>
      <trkpt lat="45.51501" lon="5.264">
        <ele>483</ele>
        <time>2023-08-29T09:17:10Z</time>
      </trkpt>
      <trkpt lat="45.51502" lon="5.26397">
        <ele>483.4</ele>
        <time>2023-08-29T09:17:11Z</time>
      </trkpt>
      <trkpt lat="45.51504" lon="5.26394">
        <ele>483.6</ele>
        <time>2023-08-29T09:17:12Z</time>
      </trkpt>
      <trkpt lat="45.51506" lon="5.26391">
        <ele>484</ele>
        <time>2023-08-29T09:17:13Z</time>
      </trkpt>
      <trkpt lat="45.51507" lon="5.26387">
        <ele>484.2</ele>
        <time>2023-08-29T09:17:14Z</time>
      </trkpt>
      <trkpt lat="45.51508" lon="5.26384">
        <ele>484.2</ele>
        <time>2023-08-29T09:17:15Z</time>
      </trkpt>
      <trkpt lat="45.5151" lon="5.26381">
        <ele>484.2</ele>
        <time>2023-08-29T09:17:16Z</time>
      </trkpt>
      <trkpt lat="45.51511" lon="5.26378">
        <ele>484.4</ele>
        <time>2023-08-29T09:17:17Z</time>
      </trkpt>
      <trkpt lat="45.51513" lon="5.26376">
        <ele>484.6</ele>
        <time>2023-08-29T09:17:18Z</time>
      </trkpt>
      <trkpt lat="45.51514" lon="5.26373">
        <ele>484.6</ele>
        <time>2023-08-29T09:17:19Z</time>
      </trkpt>
      <trkpt lat="45.51515" lon="5.26371">
        <ele>485</ele>
        <time>2023-08-29T09:17:20Z</time>
      </trkpt>
      <trkpt lat="45.51516" lon="5.26368">
        <ele>485.6</ele>
        <time>2023-08-29T09:17:21Z</time>
      </trkpt>
      <trkpt lat="45.51517" lon="5.26365">
        <ele>485.6</ele>
        <time>2023-08-29T09:17:22Z</time>
      </trkpt>
      <trkpt lat="45.51518" lon="5.26362">
        <ele>485.8</ele>
        <time>2023-08-29T09:17:23Z</time>
      </trkpt>
      <trkpt lat="45.51518" lon="5.26359">
        <ele>485.8</ele>
        <time>2023-08-29T09:17:24Z</time>
      </trkpt>
      <trkpt lat="45.51518" lon="5.26357">
        <ele>485.8</ele>
        <time>2023-08-29T09:17:25Z</time>
      </trkpt>
      <trkpt lat="45.51519" lon="5.26353">
        <ele>486</ele>
        <time>2023-08-29T09:17:26Z</time>
      </trkpt>
      <trkpt lat="45.51519" lon="5.2635">
        <ele>486.2</ele>
        <time>2023-08-29T09:17:27Z</time>
      </trkpt>
      <trkpt lat="45.5152" lon="5.26347">
        <ele>486.4</ele>
        <time>2023-08-29T09:17:28Z</time>
      </trkpt>
      <trkpt lat="45.5152" lon="5.26344">
        <ele>486.6</ele>
        <time>2023-08-29T09:17:29Z</time>
      </trkpt>
      <trkpt lat="45.51521" lon="5.26341">
        <ele>487</ele>
        <time>2023-08-29T09:17:30Z</time>
      </trkpt>
      <trkpt lat="45.51521" lon="5.26338">
        <ele>487.2</ele>
        <time>2023-08-29T09:17:31Z</time>
      </trkpt>
      <trkpt lat="45.51522" lon="5.26335">
        <ele>487.2</ele>
        <time>2023-08-29T09:17:32Z</time>
      </trkpt>
      <trkpt lat="45.51522" lon="5.26332">
        <ele>487.4</ele>
        <time>2023-08-29T09:17:33Z</time>
      </trkpt>
      <trkpt lat="45.51523" lon="5.2633">
        <ele>487.4</ele>
        <time>2023-08-29T09:17:34Z</time>
      </trkpt>
      <trkpt lat="45.51523" lon="5.26327">
        <ele>487.6</ele>
        <time>2023-08-29T09:17:35Z</time>
      </trkpt>
      <trkpt lat="45.51524" lon="5.26324">
        <ele>487.8</ele>
        <time>2023-08-29T09:17:36Z</time>
      </trkpt>
      <trkpt lat="45.51524" lon="5.26321">
        <ele>487.8</ele>
        <time>2023-08-29T09:17:37Z</time>
      </trkpt>
      <trkpt lat="45.51525" lon="5.26318">
        <ele>488</ele>
        <time>2023-08-29T09:17:38Z</time>
      </trkpt>
      <trkpt lat="45.51526" lon="5.26315">
        <ele>488.2</ele>
        <time>2023-08-29T09:17:39Z</time>
      </trkpt>
      <trkpt lat="45.51527" lon="5.26312">
        <ele>488.2</ele>
        <time>2023-08-29T09:17:40Z</time>
      </trkpt>
      <trkpt lat="45.51527" lon="5.26309">
        <ele>488.2</ele>
        <time>2023-08-29T09:17:41Z</time>
      </trkpt>
      <trkpt lat="45.51528" lon="5.26306">
        <ele>488.6</ele>
        <time>2023-08-29T09:17:42Z</time>
      </trkpt>
      <trkpt lat="45.51529" lon="5.26303">
        <ele>488.8</ele>
        <time>2023-08-29T09:17:43Z</time>
      </trkpt>
      <trkpt lat="45.51529" lon="5.263">
        <ele>488.8</ele>
        <time>2023-08-29T09:17:44Z</time>
      </trkpt>
      <trkpt lat="45.5153" lon="5.26297">
        <ele>489</ele>
        <time>2023-08-29T09:17:45Z</time>
      </trkpt>
      <trkpt lat="45.51531" lon="5.26295">
        <ele>489.2</ele>
        <time>2023-08-29T09:17:46Z</time>
      </trkpt>
      <trkpt lat="45.51532" lon="5.26293">
        <ele>489.6</ele>
        <time>2023-08-29T09:17:47Z</time>
      </trkpt>
      <trkpt lat="45.51533" lon="5.26289">
        <ele>490</ele>
        <time>2023-08-29T09:17:48Z</time>
      </trkpt>
      <trkpt lat="45.51534" lon="5.26287">
        <ele>490.2</ele>
        <time>2023-08-29T09:17:49Z</time>
      </trkpt>
      <trkpt lat="45.51535" lon="5.26283">
        <ele>490.6</ele>
        <time>2023-08-29T09:17:50Z</time>
      </trkpt>
      <trkpt lat="45.51537" lon="5.26281">
        <ele>490.8</ele>
        <time>2023-08-29T09:17:51Z</time>
      </trkpt>
      <trkpt lat="45.51537" lon="5.26278">
        <ele>490.8</ele>
        <time>2023-08-29T09:17:52Z</time>
      </trkpt>
      <trkpt lat="45.51539" lon="5.26276">
        <ele>491</ele>
        <time>2023-08-29T09:17:53Z</time>
      </trkpt>
      <trkpt lat="45.51539" lon="5.26273">
        <ele>491</ele>
        <time>2023-08-29T09:17:54Z</time>
      </trkpt>
      <trkpt lat="45.5154" lon="5.26269">
        <ele>491</ele>
        <time>2023-08-29T09:17:55Z</time>
      </trkpt>
      <trkpt lat="45.51541" lon="5.26266">
        <ele>491.2</ele>
        <time>2023-08-29T09:17:56Z</time>
      </trkpt>
      <trkpt lat="45.51541" lon="5.26263">
        <ele>491.4</ele>
        <time>2023-08-29T09:17:57Z</time>
      </trkpt>
      <trkpt lat="45.51541" lon="5.2626">
        <ele>491.4</ele>
        <time>2023-08-29T09:17:58Z</time>
      </trkpt>
      <trkpt lat="45.51542" lon="5.26257">
        <ele>491.6</ele>
        <time>2023-08-29T09:17:59Z</time>
      </trkpt>
      <trkpt lat="45.51543" lon="5.26253">
        <ele>491.6</ele>
        <time>2023-08-29T09:18:00Z</time>
      </trkpt>
      <trkpt lat="45.51543" lon="5.26251">
        <ele>491.6</ele>
        <time>2023-08-29T09:18:01Z</time>
      </trkpt>
      <trkpt lat="45.51543" lon="5.26248">
        <ele>492</ele>
        <time>2023-08-29T09:18:02Z</time>
      </trkpt>
      <trkpt lat="45.51544" lon="5.26245">
        <ele>492.4</ele>
        <time>2023-08-29T09:18:03Z</time>
      </trkpt>
      <trkpt lat="45.51544" lon="5.26242">
        <ele>492.4</ele>
        <time>2023-08-29T09:18:04Z</time>
      </trkpt>
      <trkpt lat="45.51544" lon="5.26239">
        <ele>492.4</ele>
        <time>2023-08-29T09:18:05Z</time>
      </trkpt>
      <trkpt lat="45.51544" lon="5.26236">
        <ele>492.6</ele>
        <time>2023-08-29T09:18:06Z</time>
      </trkpt>
      <trkpt lat="45.51544" lon="5.26234">
        <ele>492.8</ele>
        <time>2023-08-29T09:18:07Z</time>
      </trkpt>
      <trkpt lat="45.51544" lon="5.2623">
        <ele>493.8</ele>
        <time>2023-08-29T09:18:08Z</time>
      </trkpt>
      <trkpt lat="45.51544" lon="5.26227">
        <ele>494</ele>
        <time>2023-08-29T09:18:09Z</time>
      </trkpt>
      <trkpt lat="45.51544" lon="5.26225">
        <ele>494</ele>
        <time>2023-08-29T09:18:10Z</time>
      </trkpt>
      <trkpt lat="45.51544" lon="5.26222">
        <ele>494</ele>
        <time>2023-08-29T09:18:11Z</time>
      </trkpt>
      <trkpt lat="45.51544" lon="5.26219">
        <ele>494.2</ele>
        <time>2023-08-29T09:18:12Z</time>
      </trkpt>
      <trkpt lat="45.51544" lon="5.26216">
        <ele>494.4</ele>
        <time>2023-08-29T09:18:13Z</time>
      </trkpt>
      <trkpt lat="45.51544" lon="5.26213">
        <ele>494.6</ele>
        <time>2023-08-29T09:18:14Z</time>
      </trkpt>
      <trkpt lat="45.51543" lon="5.26211">
        <ele>494.8</ele>
        <time>2023-08-29T09:18:15Z</time>
      </trkpt>
      <trkpt lat="45.51543" lon="5.26208">
        <ele>495</ele>
        <time>2023-08-29T09:18:16Z</time>
      </trkpt>
      <trkpt lat="45.51543" lon="5.26205">
        <ele>495.2</ele>
        <time>2023-08-29T09:18:17Z</time>
      </trkpt>
      <trkpt lat="45.51542" lon="5.26203">
        <ele>495.6</ele>
        <time>2023-08-29T09:18:18Z</time>
      </trkpt>
      <trkpt lat="45.51542" lon="5.26199">
        <ele>496</ele>
        <time>2023-08-29T09:18:19Z</time>
      </trkpt>
      <trkpt lat="45.51542" lon="5.26196">
        <ele>496.2</ele>
        <time>2023-08-29T09:18:20Z</time>
      </trkpt>
      <trkpt lat="45.51541" lon="5.26193">
        <ele>496.6</ele>
        <time>2023-08-29T09:18:21Z</time>
      </trkpt>
      <trkpt lat="45.51541" lon="5.26191">
        <ele>496.8</ele>
        <time>2023-08-29T09:18:22Z</time>
      </trkpt>
      <trkpt lat="45.5154" lon="5.26189">
        <ele>497</ele>
        <time>2023-08-29T09:18:23Z</time>
      </trkpt>
      <trkpt lat="45.51539" lon="5.26186">
        <ele>497.4</ele>
        <time>2023-08-29T09:18:24Z</time>
      </trkpt>
      <trkpt lat="45.51538" lon="5.26183">
        <ele>497.6</ele>
        <time>2023-08-29T09:18:25Z</time>
      </trkpt>
      <trkpt lat="45.51538" lon="5.2618">
        <ele>498</ele>
        <time>2023-08-29T09:18:26Z</time>
      </trkpt>
      <trkpt lat="45.51537" lon="5.26178">
        <ele>498.2</ele>
        <time>2023-08-29T09:18:27Z</time>
      </trkpt>
      <trkpt lat="45.51536" lon="5.26175">
        <ele>498.4</ele>
        <time>2023-08-29T09:18:28Z</time>
      </trkpt>
      <trkpt lat="45.51535" lon="5.26172">
        <ele>498.4</ele>
        <time>2023-08-29T09:18:29Z</time>
      </trkpt>
      <trkpt lat="45.51534" lon="5.26169">
        <ele>498.4</ele>
        <time>2023-08-29T09:18:30Z</time>
      </trkpt>
      <trkpt lat="45.51533" lon="5.26166">
        <ele>498.8</ele>
        <time>2023-08-29T09:18:31Z</time>
      </trkpt>
      <trkpt lat="45.51532" lon="5.26163">
        <ele>499</ele>
        <time>2023-08-29T09:18:32Z</time>
      </trkpt>
      <trkpt lat="45.5153" lon="5.2616">
        <ele>499.2</ele>
        <time>2023-08-29T09:18:33Z</time>
      </trkpt>
      <trkpt lat="45.51529" lon="5.26157">
        <ele>499.4</ele>
        <time>2023-08-29T09:18:34Z</time>
      </trkpt>
      <trkpt lat="45.51527" lon="5.26153">
        <ele>499.4</ele>
        <time>2023-08-29T09:18:35Z</time>
      </trkpt>
      <trkpt lat="45.51526" lon="5.26151">
        <ele>499.6</ele>
        <time>2023-08-29T09:18:36Z</time>
      </trkpt>
      <trkpt lat="45.51525" lon="5.26147">
        <ele>499.6</ele>
        <time>2023-08-29T09:18:37Z</time>
      </trkpt>
      <trkpt lat="45.51523" lon="5.26144">
        <ele>499.6</ele>
        <time>2023-08-29T09:18:38Z</time>
      </trkpt>
      <trkpt lat="45.51521" lon="5.26142">
        <ele>499.6</ele>
        <time>2023-08-29T09:18:39Z</time>
      </trkpt>
      <trkpt lat="45.51519" lon="5.26139">
        <ele>499.6</ele>
        <time>2023-08-29T09:18:40Z</time>
      </trkpt>
      <trkpt lat="45.51518" lon="5.26136">
        <ele>499.6</ele>
        <time>2023-08-29T09:18:41Z</time>
      </trkpt>
      <trkpt lat="45.51517" lon="5.26134">
        <ele>499.6</ele>
        <time>2023-08-29T09:18:42Z</time>
      </trkpt>
      <trkpt lat="45.51515" lon="5.26131">
        <ele>499.6</ele>
        <time>2023-08-29T09:18:43Z</time>
      </trkpt>
      <trkpt lat="45.51514" lon="5.26128">
        <ele>499.6</ele>
        <time>2023-08-29T09:18:44Z</time>
      </trkpt>
      <trkpt lat="45.51512" lon="5.26124">
        <ele>499.6</ele>
        <time>2023-08-29T09:18:45Z</time>
      </trkpt>
      <trkpt lat="45.5151" lon="5.26121">
        <ele>499.6</ele>
        <time>2023-08-29T09:18:46Z</time>
      </trkpt>
      <trkpt lat="45.51509" lon="5.26118">
        <ele>499.8</ele>
        <time>2023-08-29T09:18:47Z</time>
      </trkpt>
      <trkpt lat="45.51508" lon="5.26116">
        <ele>500</ele>
        <time>2023-08-29T09:18:48Z</time>
      </trkpt>
      <trkpt lat="45.51506" lon="5.26113">
        <ele>500</ele>
        <time>2023-08-29T09:18:49Z</time>
      </trkpt>
      <trkpt lat="45.51505" lon="5.2611">
        <ele>500.2</ele>
        <time>2023-08-29T09:18:50Z</time>
      </trkpt>
      <trkpt lat="45.51503" lon="5.26107">
        <ele>500.2</ele>
        <time>2023-08-29T09:18:51Z</time>
      </trkpt>
      <trkpt lat="45.51502" lon="5.26104">
        <ele>500.2</ele>
        <time>2023-08-29T09:18:52Z</time>
      </trkpt>
      <trkpt lat="45.51501" lon="5.261">
        <ele>500.4</ele>
        <time>2023-08-29T09:18:53Z</time>
      </trkpt>
      <trkpt lat="45.515" lon="5.26097">
        <ele>500.6</ele>
        <time>2023-08-29T09:18:54Z</time>
      </trkpt>
      <trkpt lat="45.51499" lon="5.26093">
        <ele>500.6</ele>
        <time>2023-08-29T09:18:55Z</time>
      </trkpt>
      <trkpt lat="45.51499" lon="5.26088">
        <ele>500.6</ele>
        <time>2023-08-29T09:18:56Z</time>
      </trkpt>
      <trkpt lat="45.51498" lon="5.26084">
        <ele>500.6</ele>
        <time>2023-08-29T09:18:57Z</time>
      </trkpt>
      <trkpt lat="45.51497" lon="5.26079">
        <ele>500.6</ele>
        <time>2023-08-29T09:18:58Z</time>
      </trkpt>
      <trkpt lat="45.51498" lon="5.26076">
        <ele>500.8</ele>
        <time>2023-08-29T09:18:59Z</time>
      </trkpt>
      <trkpt lat="45.51498" lon="5.26072">
        <ele>500.8</ele>
        <time>2023-08-29T09:19:00Z</time>
      </trkpt>
      <trkpt lat="45.51498" lon="5.26068">
        <ele>500.8</ele>
        <time>2023-08-29T09:19:01Z</time>
      </trkpt>
      <trkpt lat="45.51498" lon="5.26065">
        <ele>500.8</ele>
        <time>2023-08-29T09:19:02Z</time>
      </trkpt>
      <trkpt lat="45.51498" lon="5.26062">
        <ele>501</ele>
        <time>2023-08-29T09:19:03Z</time>
      </trkpt>
      <trkpt lat="45.51499" lon="5.26057">
        <ele>501.2</ele>
        <time>2023-08-29T09:19:04Z</time>
      </trkpt>
      <trkpt lat="45.51499" lon="5.26053">
        <ele>501.2</ele>
        <time>2023-08-29T09:19:05Z</time>
      </trkpt>
      <trkpt lat="45.51499" lon="5.2605">
        <ele>501.2</ele>
        <time>2023-08-29T09:19:06Z</time>
      </trkpt>
      <trkpt lat="45.51499" lon="5.26046">
        <ele>501.4</ele>
        <time>2023-08-29T09:19:07Z</time>
      </trkpt>
      <trkpt lat="45.515" lon="5.26042">
        <ele>501.4</ele>
        <time>2023-08-29T09:19:08Z</time>
      </trkpt>
      <trkpt lat="45.515" lon="5.26038">
        <ele>501.4</ele>
        <time>2023-08-29T09:19:09Z</time>
      </trkpt>
      <trkpt lat="45.51501" lon="5.26035">
        <ele>501.4</ele>
        <time>2023-08-29T09:19:10Z</time>
      </trkpt>
      <trkpt lat="45.51501" lon="5.2603">
        <ele>501.6</ele>
        <time>2023-08-29T09:19:11Z</time>
      </trkpt>
      <trkpt lat="45.51501" lon="5.26027">
        <ele>501.6</ele>
        <time>2023-08-29T09:19:12Z</time>
      </trkpt>
      <trkpt lat="45.51501" lon="5.26022">
        <ele>501.8</ele>
        <time>2023-08-29T09:19:13Z</time>
      </trkpt>
      <trkpt lat="45.51501" lon="5.26017">
        <ele>501.8</ele>
        <time>2023-08-29T09:19:14Z</time>
      </trkpt>
      <trkpt lat="45.51501" lon="5.26013">
        <ele>501.8</ele>
        <time>2023-08-29T09:19:15Z</time>
      </trkpt>
      <trkpt lat="45.51502" lon="5.26007">
        <ele>501.8</ele>
        <time>2023-08-29T09:19:16Z</time>
      </trkpt>
      <trkpt lat="45.51503" lon="5.26002">
        <ele>501.6</ele>
        <time>2023-08-29T09:19:17Z</time>
      </trkpt>
      <trkpt lat="45.51504" lon="5.25996">
        <ele>501.6</ele>
        <time>2023-08-29T09:19:18Z</time>
      </trkpt>
      <trkpt lat="45.51506" lon="5.2599">
        <ele>501.4</ele>
        <time>2023-08-29T09:19:19Z</time>
      </trkpt>
      <trkpt lat="45.51507" lon="5.25985">
        <ele>501.2</ele>
        <time>2023-08-29T09:19:20Z</time>
      </trkpt>
      <trkpt lat="45.5151" lon="5.25981">
        <ele>501</ele>
        <time>2023-08-29T09:19:21Z</time>
      </trkpt>
      <trkpt lat="45.51513" lon="5.2598">
        <ele>500.8</ele>
        <time>2023-08-29T09:19:22Z</time>
      </trkpt>
      <trkpt lat="45.51516" lon="5.25979">
        <ele>500.8</ele>
        <time>2023-08-29T09:19:23Z</time>
      </trkpt>
      <trkpt lat="45.51518" lon="5.2598">
        <ele>500.8</ele>
        <time>2023-08-29T09:19:24Z</time>
      </trkpt>
      <trkpt lat="45.51521" lon="5.25983">
        <ele>500.8</ele>
        <time>2023-08-29T09:19:25Z</time>
      </trkpt>
      <trkpt lat="45.51524" lon="5.25985">
        <ele>501</ele>
        <time>2023-08-29T09:19:26Z</time>
      </trkpt>
      <trkpt lat="45.51527" lon="5.25988">
        <ele>501.2</ele>
        <time>2023-08-29T09:19:27Z</time>
      </trkpt>
      <trkpt lat="45.51529" lon="5.2599">
        <ele>501.4</ele>
        <time>2023-08-29T09:19:28Z</time>
      </trkpt>
      <trkpt lat="45.51531" lon="5.25992">
        <ele>501.6</ele>
        <time>2023-08-29T09:19:29Z</time>
      </trkpt>
      <trkpt lat="45.51534" lon="5.25995">
        <ele>501.8</ele>
        <time>2023-08-29T09:19:30Z</time>
      </trkpt>
      <trkpt lat="45.51536" lon="5.25998">
        <ele>502</ele>
        <time>2023-08-29T09:19:31Z</time>
      </trkpt>
      <trkpt lat="45.51539" lon="5.26">
        <ele>502.2</ele>
        <time>2023-08-29T09:19:32Z</time>
      </trkpt>
      <trkpt lat="45.51541" lon="5.26002">
        <ele>502.4</ele>
        <time>2023-08-29T09:19:33Z</time>
      </trkpt>
      <trkpt lat="45.51543" lon="5.26005">
        <ele>502.6</ele>
        <time>2023-08-29T09:19:34Z</time>
      </trkpt>
      <trkpt lat="45.51545" lon="5.26008">
        <ele>503</ele>
        <time>2023-08-29T09:19:35Z</time>
      </trkpt>
      <trkpt lat="45.51547" lon="5.2601">
        <ele>503.4</ele>
        <time>2023-08-29T09:19:36Z</time>
      </trkpt>
      <trkpt lat="45.5155" lon="5.26012">
        <ele>503.6</ele>
        <time>2023-08-29T09:19:37Z</time>
      </trkpt>
      <trkpt lat="45.51552" lon="5.26015">
        <ele>503.8</ele>
        <time>2023-08-29T09:19:38Z</time>
      </trkpt>
      <trkpt lat="45.51554" lon="5.26018">
        <ele>504.2</ele>
        <time>2023-08-29T09:19:39Z</time>
      </trkpt>
      <trkpt lat="45.51556" lon="5.2602">
        <ele>504.2</ele>
        <time>2023-08-29T09:19:40Z</time>
      </trkpt>
      <trkpt lat="45.51558" lon="5.26023">
        <ele>504.4</ele>
        <time>2023-08-29T09:19:41Z</time>
      </trkpt>
      <trkpt lat="45.5156" lon="5.26026">
        <ele>504.6</ele>
        <time>2023-08-29T09:19:42Z</time>
      </trkpt>
      <trkpt lat="45.51561" lon="5.26029">
        <ele>504.6</ele>
        <time>2023-08-29T09:19:43Z</time>
      </trkpt>
      <trkpt lat="45.51563" lon="5.26031">
        <ele>504.8</ele>
        <time>2023-08-29T09:19:44Z</time>
      </trkpt>
      <trkpt lat="45.51565" lon="5.26035">
        <ele>505</ele>
        <time>2023-08-29T09:19:45Z</time>
      </trkpt>
      <trkpt lat="45.51567" lon="5.26037">
        <ele>505</ele>
        <time>2023-08-29T09:19:46Z</time>
      </trkpt>
      <trkpt lat="45.51568" lon="5.2604">
        <ele>505.2</ele>
        <time>2023-08-29T09:19:47Z</time>
      </trkpt>
      <trkpt lat="45.5157" lon="5.26043">
        <ele>505.4</ele>
        <time>2023-08-29T09:19:48Z</time>
      </trkpt>
      <trkpt lat="45.51572" lon="5.26045">
        <ele>505.6</ele>
        <time>2023-08-29T09:19:49Z</time>
      </trkpt>
      <trkpt lat="45.51574" lon="5.26048">
        <ele>506</ele>
        <time>2023-08-29T09:19:50Z</time>
      </trkpt>
      <trkpt lat="45.51575" lon="5.2605">
        <ele>506.4</ele>
        <time>2023-08-29T09:19:51Z</time>
      </trkpt>
      <trkpt lat="45.51577" lon="5.26053">
        <ele>506.8</ele>
        <time>2023-08-29T09:19:52Z</time>
      </trkpt>
      <trkpt lat="45.51578" lon="5.26056">
        <ele>507.2</ele>
        <time>2023-08-29T09:19:53Z</time>
      </trkpt>
      <trkpt lat="45.5158" lon="5.26059">
        <ele>507.4</ele>
        <time>2023-08-29T09:19:54Z</time>
      </trkpt>
      <trkpt lat="45.51581" lon="5.2606">
        <ele>507.8</ele>
        <time>2023-08-29T09:19:55Z</time>
      </trkpt>
      <trkpt lat="45.51583" lon="5.26063">
        <ele>508</ele>
        <time>2023-08-29T09:19:56Z</time>
      </trkpt>
      <trkpt lat="45.51585" lon="5.26065">
        <ele>508.4</ele>
        <time>2023-08-29T09:19:57Z</time>
      </trkpt>
      <trkpt lat="45.51586" lon="5.26067">
        <ele>508.6</ele>
        <time>2023-08-29T09:19:58Z</time>
      </trkpt>
      <trkpt lat="45.51588" lon="5.2607">
        <ele>508.8</ele>
        <time>2023-08-29T09:19:59Z</time>
      </trkpt>
      <trkpt lat="45.5159" lon="5.26072">
        <ele>509.2</ele>
        <time>2023-08-29T09:20:00Z</time>
      </trkpt>
      <trkpt lat="45.51591" lon="5.26074">
        <ele>509.4</ele>
        <time>2023-08-29T09:20:01Z</time>
      </trkpt>
      <trkpt lat="45.51593" lon="5.26076">
        <ele>509.6</ele>
        <time>2023-08-29T09:20:02Z</time>
      </trkpt>
      <trkpt lat="45.51595" lon="5.26078">
        <ele>509.8</ele>
        <time>2023-08-29T09:20:03Z</time>
      </trkpt>
      <trkpt lat="45.51597" lon="5.26081">
        <ele>510.2</ele>
        <time>2023-08-29T09:20:04Z</time>
      </trkpt>
      <trkpt lat="45.51598" lon="5.26083">
        <ele>510.4</ele>
        <time>2023-08-29T09:20:05Z</time>
      </trkpt>
      <trkpt lat="45.516" lon="5.26085">
        <ele>510.6</ele>
        <time>2023-08-29T09:20:06Z</time>
      </trkpt>
      <trkpt lat="45.51602" lon="5.26087">
        <ele>510.8</ele>
        <time>2023-08-29T09:20:07Z</time>
      </trkpt>
      <trkpt lat="45.51604" lon="5.26089">
        <ele>510.8</ele>
        <time>2023-08-29T09:20:08Z</time>
      </trkpt>
      <trkpt lat="45.51606" lon="5.26092">
        <ele>511</ele>
        <time>2023-08-29T09:20:09Z</time>
      </trkpt>
      <trkpt lat="45.51609" lon="5.26095">
        <ele>511</ele>
        <time>2023-08-29T09:20:10Z</time>
      </trkpt>
      <trkpt lat="45.51611" lon="5.26098">
        <ele>511.4</ele>
        <time>2023-08-29T09:20:11Z</time>
      </trkpt>
      <trkpt lat="45.51613" lon="5.261">
        <ele>511.4</ele>
        <time>2023-08-29T09:20:12Z</time>
      </trkpt>
      <trkpt lat="45.51615" lon="5.26102">
        <ele>511.6</ele>
        <time>2023-08-29T09:20:13Z</time>
      </trkpt>
      <trkpt lat="45.51617" lon="5.26105">
        <ele>512</ele>
        <time>2023-08-29T09:20:14Z</time>
      </trkpt>
      <trkpt lat="45.51619" lon="5.26108">
        <ele>512.2</ele>
        <time>2023-08-29T09:20:15Z</time>
      </trkpt>
      <trkpt lat="45.51621" lon="5.2611">
        <ele>512.4</ele>
        <time>2023-08-29T09:20:16Z</time>
      </trkpt>
      <trkpt lat="45.51623" lon="5.26113">
        <ele>512.6</ele>
        <time>2023-08-29T09:20:17Z</time>
      </trkpt>
      <trkpt lat="45.51624" lon="5.26116">
        <ele>512.8</ele>
        <time>2023-08-29T09:20:18Z</time>
      </trkpt>
      <trkpt lat="45.51626" lon="5.26119">
        <ele>512.8</ele>
        <time>2023-08-29T09:20:19Z</time>
      </trkpt>
      <trkpt lat="45.51628" lon="5.26122">
        <ele>513</ele>
        <time>2023-08-29T09:20:20Z</time>
      </trkpt>
      <trkpt lat="45.5163" lon="5.26125">
        <ele>513</ele>
        <time>2023-08-29T09:20:21Z</time>
      </trkpt>
      <trkpt lat="45.51632" lon="5.26128">
        <ele>513.2</ele>
        <time>2023-08-29T09:20:22Z</time>
      </trkpt>
      <trkpt lat="45.51634" lon="5.26131">
        <ele>513.4</ele>
        <time>2023-08-29T09:20:23Z</time>
      </trkpt>
      <trkpt lat="45.51635" lon="5.26134">
        <ele>513.4</ele>
        <time>2023-08-29T09:20:24Z</time>
      </trkpt>
      <trkpt lat="45.51637" lon="5.26137">
        <ele>513.6</ele>
        <time>2023-08-29T09:20:25Z</time>
      </trkpt>
      <trkpt lat="45.51638" lon="5.2614">
        <ele>513.6</ele>
        <time>2023-08-29T09:20:26Z</time>
      </trkpt>
      <trkpt lat="45.5164" lon="5.26142">
        <ele>513.6</ele>
        <time>2023-08-29T09:20:27Z</time>
      </trkpt>
      <trkpt lat="45.51641" lon="5.26145">
        <ele>513.8</ele>
        <time>2023-08-29T09:20:28Z</time>
      </trkpt>
      <trkpt lat="45.51643" lon="5.26148">
        <ele>514</ele>
        <time>2023-08-29T09:20:29Z</time>
      </trkpt>
      <trkpt lat="45.51644" lon="5.26152">
        <ele>514.2</ele>
        <time>2023-08-29T09:20:30Z</time>
      </trkpt>
      <trkpt lat="45.51646" lon="5.26155">
        <ele>514.4</ele>
        <time>2023-08-29T09:20:31Z</time>
      </trkpt>
      <trkpt lat="45.51648" lon="5.26158">
        <ele>514.4</ele>
        <time>2023-08-29T09:20:32Z</time>
      </trkpt>
      <trkpt lat="45.51649" lon="5.26161">
        <ele>514.8</ele>
        <time>2023-08-29T09:20:33Z</time>
      </trkpt>
      <trkpt lat="45.5165" lon="5.26163">
        <ele>515</ele>
        <time>2023-08-29T09:20:34Z</time>
      </trkpt>
      <trkpt lat="45.51652" lon="5.26166">
        <ele>515.2</ele>
        <time>2023-08-29T09:20:35Z</time>
      </trkpt>
      <trkpt lat="45.51653" lon="5.26169">
        <ele>515.6</ele>
        <time>2023-08-29T09:20:36Z</time>
      </trkpt>
      <trkpt lat="45.51655" lon="5.26171">
        <ele>515.8</ele>
        <time>2023-08-29T09:20:37Z</time>
      </trkpt>
      <trkpt lat="45.51656" lon="5.26174">
        <ele>516</ele>
        <time>2023-08-29T09:20:38Z</time>
      </trkpt>
      <trkpt lat="45.51658" lon="5.26177">
        <ele>516.2</ele>
        <time>2023-08-29T09:20:39Z</time>
      </trkpt>
      <trkpt lat="45.51659" lon="5.26179">
        <ele>516.4</ele>
        <time>2023-08-29T09:20:40Z</time>
      </trkpt>
      <trkpt lat="45.5166" lon="5.26182">
        <ele>516.6</ele>
        <time>2023-08-29T09:20:41Z</time>
      </trkpt>
      <trkpt lat="45.51661" lon="5.26185">
        <ele>516.8</ele>
        <time>2023-08-29T09:20:42Z</time>
      </trkpt>
      <trkpt lat="45.51663" lon="5.26188">
        <ele>517</ele>
        <time>2023-08-29T09:20:43Z</time>
      </trkpt>
      <trkpt lat="45.51664" lon="5.26192">
        <ele>517.2</ele>
        <time>2023-08-29T09:20:44Z</time>
      </trkpt>
      <trkpt lat="45.51665" lon="5.26195">
        <ele>517.4</ele>
        <time>2023-08-29T09:20:45Z</time>
      </trkpt>
      <trkpt lat="45.51666" lon="5.26197">
        <ele>517.8</ele>
        <time>2023-08-29T09:20:46Z</time>
      </trkpt>
      <trkpt lat="45.51667" lon="5.26199">
        <ele>518</ele>
        <time>2023-08-29T09:20:47Z</time>
      </trkpt>
      <trkpt lat="45.51669" lon="5.26203">
        <ele>518.4</ele>
        <time>2023-08-29T09:20:48Z</time>
      </trkpt>
      <trkpt lat="45.51671" lon="5.26206">
        <ele>518.6</ele>
        <time>2023-08-29T09:20:49Z</time>
      </trkpt>
      <trkpt lat="45.51672" lon="5.26209">
        <ele>518.6</ele>
        <time>2023-08-29T09:20:50Z</time>
      </trkpt>
      <trkpt lat="45.51673" lon="5.26212">
        <ele>518.8</ele>
        <time>2023-08-29T09:20:51Z</time>
      </trkpt>
      <trkpt lat="45.51675" lon="5.26216">
        <ele>519</ele>
        <time>2023-08-29T09:20:52Z</time>
      </trkpt>
      <trkpt lat="45.51676" lon="5.26219">
        <ele>519.2</ele>
        <time>2023-08-29T09:20:53Z</time>
      </trkpt>
      <trkpt lat="45.51678" lon="5.26221">
        <ele>519.4</ele>
        <time>2023-08-29T09:20:54Z</time>
      </trkpt>
      <trkpt lat="45.51679" lon="5.26224">
        <ele>519.4</ele>
        <time>2023-08-29T09:20:55Z</time>
      </trkpt>
      <trkpt lat="45.51681" lon="5.26227">
        <ele>519.6</ele>
        <time>2023-08-29T09:20:56Z</time>
      </trkpt>
      <trkpt lat="45.51682" lon="5.2623">
        <ele>519.8</ele>
        <time>2023-08-29T09:20:57Z</time>
      </trkpt>
      <trkpt lat="45.51684" lon="5.26233">
        <ele>520</ele>
        <time>2023-08-29T09:20:58Z</time>
      </trkpt>
      <trkpt lat="45.51685" lon="5.26236">
        <ele>520</ele>
        <time>2023-08-29T09:20:59Z</time>
      </trkpt>
      <trkpt lat="45.51687" lon="5.26239">
        <ele>520</ele>
        <time>2023-08-29T09:21:00Z</time>
      </trkpt>
      <trkpt lat="45.51689" lon="5.26242">
        <ele>520</ele>
        <time>2023-08-29T09:21:01Z</time>
      </trkpt>
      <trkpt lat="45.5169" lon="5.26245">
        <ele>520</ele>
        <time>2023-08-29T09:21:02Z</time>
      </trkpt>
      <trkpt lat="45.51692" lon="5.26247">
        <ele>520</ele>
        <time>2023-08-29T09:21:03Z</time>
      </trkpt>
      <trkpt lat="45.51694" lon="5.2625">
        <ele>520</ele>
        <time>2023-08-29T09:21:04Z</time>
      </trkpt>
      <trkpt lat="45.51696" lon="5.26254">
        <ele>520</ele>
        <time>2023-08-29T09:21:05Z</time>
      </trkpt>
      <trkpt lat="45.51699" lon="5.26257">
        <ele>519.8</ele>
        <time>2023-08-29T09:21:06Z</time>
      </trkpt>
      <trkpt lat="45.51701" lon="5.26261">
        <ele>519.6</ele>
        <time>2023-08-29T09:21:07Z</time>
      </trkpt>
      <trkpt lat="45.51703" lon="5.26265">
        <ele>519.2</ele>
        <time>2023-08-29T09:21:08Z</time>
      </trkpt>
      <trkpt lat="45.51706" lon="5.26269">
        <ele>519.2</ele>
        <time>2023-08-29T09:21:09Z</time>
      </trkpt>
      <trkpt lat="45.51709" lon="5.26274">
        <ele>518.8</ele>
        <time>2023-08-29T09:21:10Z</time>
      </trkpt>
      <trkpt lat="45.51712" lon="5.26278">
        <ele>518.6</ele>
        <time>2023-08-29T09:21:11Z</time>
      </trkpt>
      <trkpt lat="45.51715" lon="5.26283">
        <ele>518.4</ele>
        <time>2023-08-29T09:21:12Z</time>
      </trkpt>
      <trkpt lat="45.51718" lon="5.26288">
        <ele>517.8</ele>
        <time>2023-08-29T09:21:13Z</time>
      </trkpt>
      <trkpt lat="45.51721" lon="5.26292">
        <ele>517.6</ele>
        <time>2023-08-29T09:21:14Z</time>
      </trkpt>
      <trkpt lat="45.51724" lon="5.26297">
        <ele>517.2</ele>
        <time>2023-08-29T09:21:15Z</time>
      </trkpt>
      <trkpt lat="45.51728" lon="5.26303">
        <ele>517.2</ele>
        <time>2023-08-29T09:21:16Z</time>
      </trkpt>
      <trkpt lat="45.51731" lon="5.26308">
        <ele>517.2</ele>
        <time>2023-08-29T09:21:17Z</time>
      </trkpt>
      <trkpt lat="45.51735" lon="5.26314">
        <ele>517.2</ele>
        <time>2023-08-29T09:21:18Z</time>
      </trkpt>
      <trkpt lat="45.51738" lon="5.2632">
        <ele>516.6</ele>
        <time>2023-08-29T09:21:19Z</time>
      </trkpt>
      <trkpt lat="45.51742" lon="5.26325">
        <ele>516.4</ele>
        <time>2023-08-29T09:21:20Z</time>
      </trkpt>
      <trkpt lat="45.51746" lon="5.26331">
        <ele>516.4</ele>
        <time>2023-08-29T09:21:21Z</time>
      </trkpt>
      <trkpt lat="45.51749" lon="5.26337">
        <ele>516.2</ele>
        <time>2023-08-29T09:21:22Z</time>
      </trkpt>
      <trkpt lat="45.51753" lon="5.26342">
        <ele>516.2</ele>
        <time>2023-08-29T09:21:23Z</time>
      </trkpt>
      <trkpt lat="45.51757" lon="5.26348">
        <ele>516.2</ele>
        <time>2023-08-29T09:21:24Z</time>
      </trkpt>
      <trkpt lat="45.5176" lon="5.26354">
        <ele>516.2</ele>
        <time>2023-08-29T09:21:25Z</time>
      </trkpt>
      <trkpt lat="45.51764" lon="5.2636">
        <ele>516.2</ele>
        <time>2023-08-29T09:21:26Z</time>
      </trkpt>
      <trkpt lat="45.51768" lon="5.26367">
        <ele>516</ele>
        <time>2023-08-29T09:21:27Z</time>
      </trkpt>
      <trkpt lat="45.51772" lon="5.26373">
        <ele>515.6</ele>
        <time>2023-08-29T09:21:28Z</time>
      </trkpt>
      <trkpt lat="45.51775" lon="5.26378">
        <ele>515.2</ele>
        <time>2023-08-29T09:21:29Z</time>
      </trkpt>
      <trkpt lat="45.51778" lon="5.26384">
        <ele>514.8</ele>
        <time>2023-08-29T09:21:30Z</time>
      </trkpt>
      <trkpt lat="45.51781" lon="5.2639">
        <ele>514.8</ele>
        <time>2023-08-29T09:21:31Z</time>
      </trkpt>
      <trkpt lat="45.51785" lon="5.26397">
        <ele>514.8</ele>
        <time>2023-08-29T09:21:32Z</time>
      </trkpt>
      <trkpt lat="45.51788" lon="5.26403">
        <ele>514.4</ele>
        <time>2023-08-29T09:21:33Z</time>
      </trkpt>
      <trkpt lat="45.51791" lon="5.2641">
        <ele>514.4</ele>
        <time>2023-08-29T09:21:34Z</time>
      </trkpt>
      <trkpt lat="45.51795" lon="5.26416">
        <ele>514.2</ele>
        <time>2023-08-29T09:21:35Z</time>
      </trkpt>
      <trkpt lat="45.51799" lon="5.26423">
        <ele>513.4</ele>
        <time>2023-08-29T09:21:36Z</time>
      </trkpt>
      <trkpt lat="45.51803" lon="5.2643">
        <ele>513.2</ele>
        <time>2023-08-29T09:21:37Z</time>
      </trkpt>
      <trkpt lat="45.51806" lon="5.26438">
        <ele>513</ele>
        <time>2023-08-29T09:21:38Z</time>
      </trkpt>
      <trkpt lat="45.5181" lon="5.26445">
        <ele>512.8</ele>
        <time>2023-08-29T09:21:39Z</time>
      </trkpt>
      <trkpt lat="45.51814" lon="5.26453">
        <ele>512.6</ele>
        <time>2023-08-29T09:21:40Z</time>
      </trkpt>
      <trkpt lat="45.51818" lon="5.2646">
        <ele>512.2</ele>
        <time>2023-08-29T09:21:41Z</time>
      </trkpt>
      <trkpt lat="45.51821" lon="5.26468">
        <ele>512.2</ele>
        <time>2023-08-29T09:21:42Z</time>
      </trkpt>
      <trkpt lat="45.51825" lon="5.26475">
        <ele>512</ele>
        <time>2023-08-29T09:21:43Z</time>
      </trkpt>
      <trkpt lat="45.51829" lon="5.26483">
        <ele>511.8</ele>
        <time>2023-08-29T09:21:44Z</time>
      </trkpt>
      <trkpt lat="45.51833" lon="5.26489">
        <ele>511.6</ele>
        <time>2023-08-29T09:21:45Z</time>
      </trkpt>
      <trkpt lat="45.51837" lon="5.26496">
        <ele>511.4</ele>
        <time>2023-08-29T09:21:46Z</time>
      </trkpt>
      <trkpt lat="45.51841" lon="5.26504">
        <ele>511.2</ele>
        <time>2023-08-29T09:21:47Z</time>
      </trkpt>
      <trkpt lat="45.51845" lon="5.26511">
        <ele>511.2</ele>
        <time>2023-08-29T09:21:48Z</time>
      </trkpt>
      <trkpt lat="45.51849" lon="5.26518">
        <ele>511.2</ele>
        <time>2023-08-29T09:21:49Z</time>
      </trkpt>
      <trkpt lat="45.51853" lon="5.26523">
        <ele>511</ele>
        <time>2023-08-29T09:21:50Z</time>
      </trkpt>
      <trkpt lat="45.51856" lon="5.26529">
        <ele>510.8</ele>
        <time>2023-08-29T09:21:51Z</time>
      </trkpt>
      <trkpt lat="45.51859" lon="5.26535">
        <ele>510.6</ele>
        <time>2023-08-29T09:21:52Z</time>
      </trkpt>
      <trkpt lat="45.51862" lon="5.2654">
        <ele>510.6</ele>
        <time>2023-08-29T09:21:53Z</time>
      </trkpt>
      <trkpt lat="45.51865" lon="5.26546">
        <ele>510.6</ele>
        <time>2023-08-29T09:21:54Z</time>
      </trkpt>
      <trkpt lat="45.51868" lon="5.26552">
        <ele>510.2</ele>
        <time>2023-08-29T09:21:55Z</time>
      </trkpt>
      <trkpt lat="45.51871" lon="5.26557">
        <ele>509.8</ele>
        <time>2023-08-29T09:21:56Z</time>
      </trkpt>
      <trkpt lat="45.51873" lon="5.26562">
        <ele>509.4</ele>
        <time>2023-08-29T09:21:57Z</time>
      </trkpt>
      <trkpt lat="45.51876" lon="5.26567">
        <ele>509.4</ele>
        <time>2023-08-29T09:21:58Z</time>
      </trkpt>
      <trkpt lat="45.51879" lon="5.26573">
        <ele>509.4</ele>
        <time>2023-08-29T09:21:59Z</time>
      </trkpt>
      <trkpt lat="45.51882" lon="5.26578">
        <ele>509.4</ele>
        <time>2023-08-29T09:22:00Z</time>
      </trkpt>
      <trkpt lat="45.51885" lon="5.26583">
        <ele>509.4</ele>
        <time>2023-08-29T09:22:01Z</time>
      </trkpt>
      <trkpt lat="45.51887" lon="5.26588">
        <ele>509.4</ele>
        <time>2023-08-29T09:22:02Z</time>
      </trkpt>
      <trkpt lat="45.5189" lon="5.26593">
        <ele>509.4</ele>
        <time>2023-08-29T09:22:03Z</time>
      </trkpt>
      <trkpt lat="45.51893" lon="5.26598">
        <ele>509.2</ele>
        <time>2023-08-29T09:22:04Z</time>
      </trkpt>
      <trkpt lat="45.51896" lon="5.26603">
        <ele>509.2</ele>
        <time>2023-08-29T09:22:05Z</time>
      </trkpt>
      <trkpt lat="45.51898" lon="5.26608">
        <ele>509.2</ele>
        <time>2023-08-29T09:22:06Z</time>
      </trkpt>
      <trkpt lat="45.519" lon="5.26613">
        <ele>509.2</ele>
        <time>2023-08-29T09:22:07Z</time>
      </trkpt>
      <trkpt lat="45.51902" lon="5.26618">
        <ele>509.2</ele>
        <time>2023-08-29T09:22:08Z</time>
      </trkpt>
      <trkpt lat="45.51904" lon="5.26624">
        <ele>509.2</ele>
        <time>2023-08-29T09:22:09Z</time>
      </trkpt>
      <trkpt lat="45.51906" lon="5.2663">
        <ele>508.6</ele>
        <time>2023-08-29T09:22:10Z</time>
      </trkpt>
      <trkpt lat="45.51908" lon="5.26636">
        <ele>508.6</ele>
        <time>2023-08-29T09:22:11Z</time>
      </trkpt>
      <trkpt lat="45.5191" lon="5.26643">
        <ele>508.6</ele>
        <time>2023-08-29T09:22:12Z</time>
      </trkpt>
      <trkpt lat="45.51912" lon="5.2665">
        <ele>508.4</ele>
        <time>2023-08-29T09:22:13Z</time>
      </trkpt>
      <trkpt lat="45.51914" lon="5.26658">
        <ele>508.4</ele>
        <time>2023-08-29T09:22:14Z</time>
      </trkpt>
      <trkpt lat="45.51916" lon="5.26664">
        <ele>508</ele>
        <time>2023-08-29T09:22:15Z</time>
      </trkpt>
      <trkpt lat="45.51917" lon="5.26671">
        <ele>508</ele>
        <time>2023-08-29T09:22:16Z</time>
      </trkpt>
      <trkpt lat="45.51919" lon="5.26678">
        <ele>507.8</ele>
        <time>2023-08-29T09:22:17Z</time>
      </trkpt>
      <trkpt lat="45.51919" lon="5.26684">
        <ele>507.4</ele>
        <time>2023-08-29T09:22:18Z</time>
      </trkpt>
      <trkpt lat="45.51919" lon="5.26691">
        <ele>507</ele>
        <time>2023-08-29T09:22:19Z</time>
      </trkpt>
      <trkpt lat="45.5192" lon="5.26697">
        <ele>506.8</ele>
        <time>2023-08-29T09:22:20Z</time>
      </trkpt>
      <trkpt lat="45.51922" lon="5.26703">
        <ele>506.6</ele>
        <time>2023-08-29T09:22:21Z</time>
      </trkpt>
      <trkpt lat="45.51925" lon="5.26707">
        <ele>506.4</ele>
        <time>2023-08-29T09:22:22Z</time>
      </trkpt>
      <trkpt lat="45.51929" lon="5.26709">
        <ele>506.2</ele>
        <time>2023-08-29T09:22:23Z</time>
      </trkpt>
      <trkpt lat="45.51934" lon="5.2671">
        <ele>505.8</ele>
        <time>2023-08-29T09:22:24Z</time>
      </trkpt>
      <trkpt lat="45.51939" lon="5.26708">
        <ele>505.6</ele>
        <time>2023-08-29T09:22:25Z</time>
      </trkpt>
      <trkpt lat="45.51945" lon="5.26707">
        <ele>505.4</ele>
        <time>2023-08-29T09:22:26Z</time>
      </trkpt>
      <trkpt lat="45.51951" lon="5.26705">
        <ele>505</ele>
        <time>2023-08-29T09:22:27Z</time>
      </trkpt>
      <trkpt lat="45.51956" lon="5.26702">
        <ele>504</ele>
        <time>2023-08-29T09:22:28Z</time>
      </trkpt>
      <trkpt lat="45.51961" lon="5.26699">
        <ele>504</ele>
        <time>2023-08-29T09:22:29Z</time>
      </trkpt>
      <trkpt lat="45.51967" lon="5.26696">
        <ele>504</ele>
        <time>2023-08-29T09:22:30Z</time>
      </trkpt>
      <trkpt lat="45.51972" lon="5.26691">
        <ele>503</ele>
        <time>2023-08-29T09:22:31Z</time>
      </trkpt>
      <trkpt lat="45.51978" lon="5.26687">
        <ele>502.8</ele>
        <time>2023-08-29T09:22:32Z</time>
      </trkpt>
      <trkpt lat="45.51983" lon="5.26681">
        <ele>502.8</ele>
        <time>2023-08-29T09:22:33Z</time>
      </trkpt>
      <trkpt lat="45.51988" lon="5.26675">
        <ele>502.4</ele>
        <time>2023-08-29T09:22:34Z</time>
      </trkpt>
      <trkpt lat="45.51993" lon="5.26669">
        <ele>502.4</ele>
        <time>2023-08-29T09:22:35Z</time>
      </trkpt>
      <trkpt lat="45.51998" lon="5.26664">
        <ele>502.4</ele>
        <time>2023-08-29T09:22:36Z</time>
      </trkpt>
      <trkpt lat="45.52003" lon="5.26658">
        <ele>502.4</ele>
        <time>2023-08-29T09:22:37Z</time>
      </trkpt>
      <trkpt lat="45.52008" lon="5.26653">
        <ele>502.4</ele>
        <time>2023-08-29T09:22:38Z</time>
      </trkpt>
      <trkpt lat="45.52013" lon="5.26649">
        <ele>502</ele>
        <time>2023-08-29T09:22:39Z</time>
      </trkpt>
      <trkpt lat="45.52017" lon="5.26644">
        <ele>501</ele>
        <time>2023-08-29T09:22:40Z</time>
      </trkpt>
      <trkpt lat="45.52022" lon="5.26639">
        <ele>501</ele>
        <time>2023-08-29T09:22:41Z</time>
      </trkpt>
      <trkpt lat="45.52027" lon="5.26634">
        <ele>501</ele>
        <time>2023-08-29T09:22:42Z</time>
      </trkpt>
      <trkpt lat="45.52032" lon="5.2663">
        <ele>501</ele>
        <time>2023-08-29T09:22:43Z</time>
      </trkpt>
      <trkpt lat="45.52037" lon="5.26625">
        <ele>501</ele>
        <time>2023-08-29T09:22:44Z</time>
      </trkpt>
      <trkpt lat="45.52043" lon="5.26621">
        <ele>501.4</ele>
        <time>2023-08-29T09:22:45Z</time>
      </trkpt>
      <trkpt lat="45.52048" lon="5.26616">
        <ele>501.4</ele>
        <time>2023-08-29T09:22:46Z</time>
      </trkpt>
      <trkpt lat="45.52053" lon="5.26613">
        <ele>501.4</ele>
        <time>2023-08-29T09:22:47Z</time>
      </trkpt>
      <trkpt lat="45.52058" lon="5.26609">
        <ele>501.6</ele>
        <time>2023-08-29T09:22:48Z</time>
      </trkpt>
      <trkpt lat="45.52064" lon="5.26606">
        <ele>501.6</ele>
        <time>2023-08-29T09:22:49Z</time>
      </trkpt>
      <trkpt lat="45.52068" lon="5.26601">
        <ele>501.8</ele>
        <time>2023-08-29T09:22:50Z</time>
      </trkpt>
      <trkpt lat="45.52072" lon="5.26597">
        <ele>501.8</ele>
        <time>2023-08-29T09:22:51Z</time>
      </trkpt>
      <trkpt lat="45.52076" lon="5.26593">
        <ele>501.8</ele>
        <time>2023-08-29T09:22:52Z</time>
      </trkpt>
      <trkpt lat="45.5208" lon="5.2659">
        <ele>501.6</ele>
        <time>2023-08-29T09:22:53Z</time>
      </trkpt>
      <trkpt lat="45.52084" lon="5.26586">
        <ele>501.6</ele>
        <time>2023-08-29T09:22:54Z</time>
      </trkpt>
      <trkpt lat="45.52087" lon="5.26582">
        <ele>501.8</ele>
        <time>2023-08-29T09:22:55Z</time>
      </trkpt>
      <trkpt lat="45.52091" lon="5.26579">
        <ele>501.8</ele>
        <time>2023-08-29T09:22:56Z</time>
      </trkpt>
      <trkpt lat="45.52094" lon="5.26576">
        <ele>502</ele>
        <time>2023-08-29T09:22:57Z</time>
      </trkpt>
      <trkpt lat="45.52098" lon="5.26572">
        <ele>502.4</ele>
        <time>2023-08-29T09:22:58Z</time>
      </trkpt>
      <trkpt lat="45.52102" lon="5.26567">
        <ele>502.4</ele>
        <time>2023-08-29T09:22:59Z</time>
      </trkpt>
      <trkpt lat="45.52106" lon="5.26564">
        <ele>502.4</ele>
        <time>2023-08-29T09:23:00Z</time>
      </trkpt>
      <trkpt lat="45.5211" lon="5.2656">
        <ele>502.4</ele>
        <time>2023-08-29T09:23:01Z</time>
      </trkpt>
      <trkpt lat="45.52113" lon="5.26557">
        <ele>502.6</ele>
        <time>2023-08-29T09:23:02Z</time>
      </trkpt>
      <trkpt lat="45.52117" lon="5.26554">
        <ele>502.4</ele>
        <time>2023-08-29T09:23:03Z</time>
      </trkpt>
      <trkpt lat="45.52121" lon="5.2655">
        <ele>502.2</ele>
        <time>2023-08-29T09:23:04Z</time>
      </trkpt>
      <trkpt lat="45.52125" lon="5.26546">
        <ele>502</ele>
        <time>2023-08-29T09:23:05Z</time>
      </trkpt>
      <trkpt lat="45.5213" lon="5.26542">
        <ele>501.8</ele>
        <time>2023-08-29T09:23:06Z</time>
      </trkpt>
      <trkpt lat="45.52134" lon="5.2654">
        <ele>501.8</ele>
        <time>2023-08-29T09:23:07Z</time>
      </trkpt>
      <trkpt lat="45.52139" lon="5.26537">
        <ele>501.8</ele>
        <time>2023-08-29T09:23:08Z</time>
      </trkpt>
      <trkpt lat="45.52144" lon="5.26534">
        <ele>501.8</ele>
        <time>2023-08-29T09:23:09Z</time>
      </trkpt>
      <trkpt lat="45.52148" lon="5.26531">
        <ele>501.8</ele>
        <time>2023-08-29T09:23:10Z</time>
      </trkpt>
      <trkpt lat="45.52153" lon="5.26528">
        <ele>501.8</ele>
        <time>2023-08-29T09:23:11Z</time>
      </trkpt>
      <trkpt lat="45.52158" lon="5.26525">
        <ele>501.8</ele>
        <time>2023-08-29T09:23:12Z</time>
      </trkpt>
      <trkpt lat="45.52162" lon="5.26523">
        <ele>501.8</ele>
        <time>2023-08-29T09:23:13Z</time>
      </trkpt>
      <trkpt lat="45.52167" lon="5.26519">
        <ele>501.8</ele>
        <time>2023-08-29T09:23:14Z</time>
      </trkpt>
      <trkpt lat="45.52172" lon="5.26516">
        <ele>501.8</ele>
        <time>2023-08-29T09:23:15Z</time>
      </trkpt>
      <trkpt lat="45.52176" lon="5.26513">
        <ele>501.6</ele>
        <time>2023-08-29T09:23:16Z</time>
      </trkpt>
      <trkpt lat="45.52181" lon="5.26509">
        <ele>501.6</ele>
        <time>2023-08-29T09:23:17Z</time>
      </trkpt>
      <trkpt lat="45.52186" lon="5.26505">
        <ele>501.4</ele>
        <time>2023-08-29T09:23:18Z</time>
      </trkpt>
      <trkpt lat="45.5219" lon="5.26501">
        <ele>501.4</ele>
        <time>2023-08-29T09:23:19Z</time>
      </trkpt>
      <trkpt lat="45.52194" lon="5.26497">
        <ele>501.2</ele>
        <time>2023-08-29T09:23:20Z</time>
      </trkpt>
      <trkpt lat="45.52198" lon="5.26494">
        <ele>501</ele>
        <time>2023-08-29T09:23:21Z</time>
      </trkpt>
      <trkpt lat="45.52202" lon="5.2649">
        <ele>501</ele>
        <time>2023-08-29T09:23:22Z</time>
      </trkpt>
      <trkpt lat="45.52207" lon="5.26486">
        <ele>501</ele>
        <time>2023-08-29T09:23:23Z</time>
      </trkpt>
      <trkpt lat="45.52211" lon="5.26481">
        <ele>500.8</ele>
        <time>2023-08-29T09:23:24Z</time>
      </trkpt>
      <trkpt lat="45.52215" lon="5.26476">
        <ele>500.2</ele>
        <time>2023-08-29T09:23:25Z</time>
      </trkpt>
      <trkpt lat="45.5222" lon="5.2647">
        <ele>499.6</ele>
        <time>2023-08-29T09:23:26Z</time>
      </trkpt>
      <trkpt lat="45.52225" lon="5.26464">
        <ele>499</ele>
        <time>2023-08-29T09:23:27Z</time>
      </trkpt>
      <trkpt lat="45.5223" lon="5.26458">
        <ele>498.4</ele>
        <time>2023-08-29T09:23:28Z</time>
      </trkpt>
      <trkpt lat="45.52236" lon="5.26452">
        <ele>497.6</ele>
        <time>2023-08-29T09:23:29Z</time>
      </trkpt>
      <trkpt lat="45.52241" lon="5.26446">
        <ele>497</ele>
        <time>2023-08-29T09:23:30Z</time>
      </trkpt>
      <trkpt lat="45.52247" lon="5.26439">
        <ele>496.8</ele>
        <time>2023-08-29T09:23:31Z</time>
      </trkpt>
      <trkpt lat="45.52252" lon="5.26431">
        <ele>496.4</ele>
        <time>2023-08-29T09:23:32Z</time>
      </trkpt>
      <trkpt lat="45.52258" lon="5.26423">
        <ele>496</ele>
        <time>2023-08-29T09:23:33Z</time>
      </trkpt>
      <trkpt lat="45.52263" lon="5.26415">
        <ele>495.8</ele>
        <time>2023-08-29T09:23:34Z</time>
      </trkpt>
      <trkpt lat="45.52268" lon="5.26407">
        <ele>495.4</ele>
        <time>2023-08-29T09:23:35Z</time>
      </trkpt>
      <trkpt lat="45.52274" lon="5.26398">
        <ele>494.4</ele>
        <time>2023-08-29T09:23:36Z</time>
      </trkpt>
      <trkpt lat="45.5228" lon="5.26389">
        <ele>493.8</ele>
        <time>2023-08-29T09:23:37Z</time>
      </trkpt>
      <trkpt lat="45.52285" lon="5.2638">
        <ele>493</ele>
        <time>2023-08-29T09:23:38Z</time>
      </trkpt>
      <trkpt lat="45.5229" lon="5.26371">
        <ele>492.2</ele>
        <time>2023-08-29T09:23:39Z</time>
      </trkpt>
      <trkpt lat="45.52294" lon="5.26361">
        <ele>491.4</ele>
        <time>2023-08-29T09:23:40Z</time>
      </trkpt>
      <trkpt lat="45.52297" lon="5.2635">
        <ele>491</ele>
        <time>2023-08-29T09:23:41Z</time>
      </trkpt>
      <trkpt lat="45.523" lon="5.26338">
        <ele>491</ele>
        <time>2023-08-29T09:23:42Z</time>
      </trkpt>
      <trkpt lat="45.52302" lon="5.26326">
        <ele>490</ele>
        <time>2023-08-29T09:23:43Z</time>
      </trkpt>
      <trkpt lat="45.52304" lon="5.26313">
        <ele>489.6</ele>
        <time>2023-08-29T09:23:44Z</time>
      </trkpt>
      <trkpt lat="45.52306" lon="5.263">
        <ele>488.8</ele>
        <time>2023-08-29T09:23:45Z</time>
      </trkpt>
      <trkpt lat="45.52308" lon="5.26286">
        <ele>488.4</ele>
        <time>2023-08-29T09:23:46Z</time>
      </trkpt>
      <trkpt lat="45.5231" lon="5.26273">
        <ele>486.8</ele>
        <time>2023-08-29T09:23:47Z</time>
      </trkpt>
      <trkpt lat="45.52312" lon="5.2626">
        <ele>486.6</ele>
        <time>2023-08-29T09:23:48Z</time>
      </trkpt>
      <trkpt lat="45.52314" lon="5.26249">
        <ele>486.4</ele>
        <time>2023-08-29T09:23:49Z</time>
      </trkpt>
      <trkpt lat="45.52316" lon="5.26238">
        <ele>486.2</ele>
        <time>2023-08-29T09:23:50Z</time>
      </trkpt>
      <trkpt lat="45.5232" lon="5.26229">
        <ele>486.2</ele>
        <time>2023-08-29T09:23:51Z</time>
      </trkpt>
      <trkpt lat="45.52324" lon="5.26221">
        <ele>486.2</ele>
        <time>2023-08-29T09:23:52Z</time>
      </trkpt>
      <trkpt lat="45.52329" lon="5.26213">
        <ele>486.2</ele>
        <time>2023-08-29T09:23:53Z</time>
      </trkpt>
      <trkpt lat="45.52334" lon="5.26205">
        <ele>486.2</ele>
        <time>2023-08-29T09:23:54Z</time>
      </trkpt>
      <trkpt lat="45.5234" lon="5.26198">
        <ele>486.2</ele>
        <time>2023-08-29T09:23:55Z</time>
      </trkpt>
      <trkpt lat="45.52346" lon="5.26193">
        <ele>486.2</ele>
        <time>2023-08-29T09:23:56Z</time>
      </trkpt>
      <trkpt lat="45.52351" lon="5.26189">
        <ele>486.2</ele>
        <time>2023-08-29T09:23:57Z</time>
      </trkpt>
      <trkpt lat="45.52357" lon="5.26185">
        <ele>486.2</ele>
        <time>2023-08-29T09:23:58Z</time>
      </trkpt>
      <trkpt lat="45.52363" lon="5.2618">
        <ele>486.2</ele>
        <time>2023-08-29T09:23:59Z</time>
      </trkpt>
      <trkpt lat="45.52369" lon="5.26175">
        <ele>486</ele>
        <time>2023-08-29T09:24:00Z</time>
      </trkpt>
      <trkpt lat="45.52374" lon="5.2617">
        <ele>486</ele>
        <time>2023-08-29T09:24:01Z</time>
      </trkpt>
      <trkpt lat="45.5238" lon="5.26165">
        <ele>486</ele>
        <time>2023-08-29T09:24:02Z</time>
      </trkpt>
      <trkpt lat="45.52386" lon="5.2616">
        <ele>486</ele>
        <time>2023-08-29T09:24:03Z</time>
      </trkpt>
      <trkpt lat="45.52391" lon="5.26156">
        <ele>486</ele>
        <time>2023-08-29T09:24:04Z</time>
      </trkpt>
      <trkpt lat="45.52397" lon="5.26152">
        <ele>486</ele>
        <time>2023-08-29T09:24:05Z</time>
      </trkpt>
      <trkpt lat="45.52402" lon="5.26148">
        <ele>486</ele>
        <time>2023-08-29T09:24:06Z</time>
      </trkpt>
      <trkpt lat="45.52408" lon="5.26143">
        <ele>486</ele>
        <time>2023-08-29T09:24:07Z</time>
      </trkpt>
      <trkpt lat="45.52413" lon="5.26138">
        <ele>486.2</ele>
        <time>2023-08-29T09:24:08Z</time>
      </trkpt>
      <trkpt lat="45.52418" lon="5.26133">
        <ele>486.2</ele>
        <time>2023-08-29T09:24:09Z</time>
      </trkpt>
      <trkpt lat="45.52423" lon="5.2613">
        <ele>486.2</ele>
        <time>2023-08-29T09:24:10Z</time>
      </trkpt>
      <trkpt lat="45.52429" lon="5.26125">
        <ele>486.2</ele>
        <time>2023-08-29T09:24:11Z</time>
      </trkpt>
      <trkpt lat="45.52434" lon="5.26121">
        <ele>486.2</ele>
        <time>2023-08-29T09:24:12Z</time>
      </trkpt>
      <trkpt lat="45.52439" lon="5.26117">
        <ele>486.2</ele>
        <time>2023-08-29T09:24:13Z</time>
      </trkpt>
      <trkpt lat="45.52445" lon="5.26114">
        <ele>486</ele>
        <time>2023-08-29T09:24:14Z</time>
      </trkpt>
      <trkpt lat="45.52452" lon="5.26112">
        <ele>485.8</ele>
        <time>2023-08-29T09:24:15Z</time>
      </trkpt>
      <trkpt lat="45.52458" lon="5.2611">
        <ele>485.4</ele>
        <time>2023-08-29T09:24:16Z</time>
      </trkpt>
      <trkpt lat="45.52463" lon="5.2611">
        <ele>485.4</ele>
        <time>2023-08-29T09:24:17Z</time>
      </trkpt>
      <trkpt lat="45.52469" lon="5.2611">
        <ele>485.4</ele>
        <time>2023-08-29T09:24:18Z</time>
      </trkpt>
      <trkpt lat="45.52475" lon="5.26109">
        <ele>485.4</ele>
        <time>2023-08-29T09:24:19Z</time>
      </trkpt>
      <trkpt lat="45.52481" lon="5.26109">
        <ele>485.8</ele>
        <time>2023-08-29T09:24:20Z</time>
      </trkpt>
      <trkpt lat="45.52486" lon="5.26108">
        <ele>485.8</ele>
        <time>2023-08-29T09:24:21Z</time>
      </trkpt>
      <trkpt lat="45.52492" lon="5.26106">
        <ele>486</ele>
        <time>2023-08-29T09:24:22Z</time>
      </trkpt>
      <trkpt lat="45.52497" lon="5.26103">
        <ele>486</ele>
        <time>2023-08-29T09:24:23Z</time>
      </trkpt>
      <trkpt lat="45.52502" lon="5.26099">
        <ele>486</ele>
        <time>2023-08-29T09:24:24Z</time>
      </trkpt>
      <trkpt lat="45.52506" lon="5.26095">
        <ele>486.2</ele>
        <time>2023-08-29T09:24:25Z</time>
      </trkpt>
      <trkpt lat="45.5251" lon="5.26091">
        <ele>486.2</ele>
        <time>2023-08-29T09:24:26Z</time>
      </trkpt>
      <trkpt lat="45.52515" lon="5.26088">
        <ele>486.6</ele>
        <time>2023-08-29T09:24:27Z</time>
      </trkpt>
      <trkpt lat="45.5252" lon="5.26084">
        <ele>486.8</ele>
        <time>2023-08-29T09:24:28Z</time>
      </trkpt>
      <trkpt lat="45.52524" lon="5.2608">
        <ele>487.2</ele>
        <time>2023-08-29T09:24:29Z</time>
      </trkpt>
      <trkpt lat="45.52528" lon="5.26076">
        <ele>487.4</ele>
        <time>2023-08-29T09:24:30Z</time>
      </trkpt>
      <trkpt lat="45.52532" lon="5.26071">
        <ele>487.6</ele>
        <time>2023-08-29T09:24:31Z</time>
      </trkpt>
      <trkpt lat="45.52536" lon="5.26066">
        <ele>487.6</ele>
        <time>2023-08-29T09:24:32Z</time>
      </trkpt>
      <trkpt lat="45.52541" lon="5.26061">
        <ele>487.6</ele>
        <time>2023-08-29T09:24:33Z</time>
      </trkpt>
      <trkpt lat="45.52545" lon="5.26056">
        <ele>487.6</ele>
        <time>2023-08-29T09:24:34Z</time>
      </trkpt>
      <trkpt lat="45.5255" lon="5.26052">
        <ele>487.6</ele>
        <time>2023-08-29T09:24:35Z</time>
      </trkpt>
      <trkpt lat="45.52555" lon="5.26048">
        <ele>487.2</ele>
        <time>2023-08-29T09:24:36Z</time>
      </trkpt>
      <trkpt lat="45.5256" lon="5.26045">
        <ele>487.2</ele>
        <time>2023-08-29T09:24:37Z</time>
      </trkpt>
      <trkpt lat="45.52564" lon="5.26041">
        <ele>487.2</ele>
        <time>2023-08-29T09:24:38Z</time>
      </trkpt>
      <trkpt lat="45.52569" lon="5.26038">
        <ele>487.2</ele>
        <time>2023-08-29T09:24:39Z</time>
      </trkpt>
      <trkpt lat="45.52574" lon="5.26035">
        <ele>487.2</ele>
        <time>2023-08-29T09:24:40Z</time>
      </trkpt>
      <trkpt lat="45.52579" lon="5.26031">
        <ele>487.4</ele>
        <time>2023-08-29T09:24:41Z</time>
      </trkpt>
      <trkpt lat="45.52584" lon="5.26028">
        <ele>487.4</ele>
        <time>2023-08-29T09:24:42Z</time>
      </trkpt>
      <trkpt lat="45.52589" lon="5.26026">
        <ele>487.4</ele>
        <time>2023-08-29T09:24:43Z</time>
      </trkpt>
      <trkpt lat="45.52594" lon="5.26024">
        <ele>487.4</ele>
        <time>2023-08-29T09:24:44Z</time>
      </trkpt>
      <trkpt lat="45.52599" lon="5.26021">
        <ele>487.4</ele>
        <time>2023-08-29T09:24:45Z</time>
      </trkpt>
      <trkpt lat="45.52604" lon="5.26017">
        <ele>487.4</ele>
        <time>2023-08-29T09:24:46Z</time>
      </trkpt>
      <trkpt lat="45.52609" lon="5.26015">
        <ele>487.6</ele>
        <time>2023-08-29T09:24:47Z</time>
      </trkpt>
      <trkpt lat="45.52614" lon="5.26012">
        <ele>487.8</ele>
        <time>2023-08-29T09:24:48Z</time>
      </trkpt>
      <trkpt lat="45.52619" lon="5.26009">
        <ele>487.8</ele>
        <time>2023-08-29T09:24:49Z</time>
      </trkpt>
      <trkpt lat="45.52622" lon="5.26006">
        <ele>488</ele>
        <time>2023-08-29T09:24:50Z</time>
      </trkpt>
      <trkpt lat="45.52626" lon="5.26004">
        <ele>488.4</ele>
        <time>2023-08-29T09:24:51Z</time>
      </trkpt>
      <trkpt lat="45.5263" lon="5.26001">
        <ele>488.6</ele>
        <time>2023-08-29T09:24:52Z</time>
      </trkpt>
      <trkpt lat="45.52634" lon="5.25998">
        <ele>488.6</ele>
        <time>2023-08-29T09:24:53Z</time>
      </trkpt>
      <trkpt lat="45.52639" lon="5.25996">
        <ele>488.6</ele>
        <time>2023-08-29T09:24:54Z</time>
      </trkpt>
      <trkpt lat="45.52643" lon="5.25993">
        <ele>488.8</ele>
        <time>2023-08-29T09:24:55Z</time>
      </trkpt>
      <trkpt lat="45.52647" lon="5.25988">
        <ele>489.2</ele>
        <time>2023-08-29T09:24:56Z</time>
      </trkpt>
      <trkpt lat="45.52651" lon="5.25984">
        <ele>489.4</ele>
        <time>2023-08-29T09:24:57Z</time>
      </trkpt>
      <trkpt lat="45.52655" lon="5.25981">
        <ele>489.4</ele>
        <time>2023-08-29T09:24:58Z</time>
      </trkpt>
      <trkpt lat="45.52659" lon="5.25978">
        <ele>489.6</ele>
        <time>2023-08-29T09:24:59Z</time>
      </trkpt>
      <trkpt lat="45.52663" lon="5.25976">
        <ele>489.6</ele>
        <time>2023-08-29T09:25:00Z</time>
      </trkpt>
      <trkpt lat="45.52667" lon="5.25973">
        <ele>489.8</ele>
        <time>2023-08-29T09:25:01Z</time>
      </trkpt>
      <trkpt lat="45.5267" lon="5.25972">
        <ele>490</ele>
        <time>2023-08-29T09:25:02Z</time>
      </trkpt>
      <trkpt lat="45.52673" lon="5.2597">
        <ele>490</ele>
        <time>2023-08-29T09:25:03Z</time>
      </trkpt>
      <trkpt lat="45.52676" lon="5.25968">
        <ele>490.2</ele>
        <time>2023-08-29T09:25:04Z</time>
      </trkpt>
      <trkpt lat="45.52679" lon="5.25965">
        <ele>490.2</ele>
        <time>2023-08-29T09:25:05Z</time>
      </trkpt>
      <trkpt lat="45.52682" lon="5.25963">
        <ele>490.2</ele>
        <time>2023-08-29T09:25:06Z</time>
      </trkpt>
      <trkpt lat="45.52684" lon="5.2596">
        <ele>490.4</ele>
        <time>2023-08-29T09:25:07Z</time>
      </trkpt>
      <trkpt lat="45.52686" lon="5.25957">
        <ele>490.8</ele>
        <time>2023-08-29T09:25:08Z</time>
      </trkpt>
      <trkpt lat="45.52685" lon="5.25952">
        <ele>491.2</ele>
        <time>2023-08-29T09:25:09Z</time>
      </trkpt>
      <trkpt lat="45.52684" lon="5.25948">
        <ele>491.2</ele>
        <time>2023-08-29T09:25:10Z</time>
      </trkpt>
      <trkpt lat="45.52683" lon="5.25945">
        <ele>491.2</ele>
        <time>2023-08-29T09:25:11Z</time>
      </trkpt>
      <trkpt lat="45.52682" lon="5.2594">
        <ele>491.2</ele>
        <time>2023-08-29T09:25:12Z</time>
      </trkpt>
      <trkpt lat="45.5268" lon="5.25935">
        <ele>491.4</ele>
        <time>2023-08-29T09:25:13Z</time>
      </trkpt>
      <trkpt lat="45.52679" lon="5.25931">
        <ele>491.4</ele>
        <time>2023-08-29T09:25:14Z</time>
      </trkpt>
      <trkpt lat="45.52677" lon="5.25926">
        <ele>491.4</ele>
        <time>2023-08-29T09:25:15Z</time>
      </trkpt>
      <trkpt lat="45.52676" lon="5.25921">
        <ele>491.4</ele>
        <time>2023-08-29T09:25:16Z</time>
      </trkpt>
      <trkpt lat="45.52674" lon="5.25915">
        <ele>491.6</ele>
        <time>2023-08-29T09:25:17Z</time>
      </trkpt>
      <trkpt lat="45.52672" lon="5.2591">
        <ele>491.6</ele>
        <time>2023-08-29T09:25:18Z</time>
      </trkpt>
      <trkpt lat="45.52671" lon="5.25905">
        <ele>491.6</ele>
        <time>2023-08-29T09:25:19Z</time>
      </trkpt>
      <trkpt lat="45.52669" lon="5.259">
        <ele>491.6</ele>
        <time>2023-08-29T09:25:20Z</time>
      </trkpt>
      <trkpt lat="45.52668" lon="5.25896">
        <ele>491.6</ele>
        <time>2023-08-29T09:25:21Z</time>
      </trkpt>
      <trkpt lat="45.52666" lon="5.25891">
        <ele>491.6</ele>
        <time>2023-08-29T09:25:22Z</time>
      </trkpt>
      <trkpt lat="45.52665" lon="5.25886">
        <ele>491.6</ele>
        <time>2023-08-29T09:25:23Z</time>
      </trkpt>
      <trkpt lat="45.52664" lon="5.25881">
        <ele>491.6</ele>
        <time>2023-08-29T09:25:24Z</time>
      </trkpt>
      <trkpt lat="45.52662" lon="5.25876">
        <ele>491.6</ele>
        <time>2023-08-29T09:25:25Z</time>
      </trkpt>
      <trkpt lat="45.5266" lon="5.25871">
        <ele>491.6</ele>
        <time>2023-08-29T09:25:26Z</time>
      </trkpt>
      <trkpt lat="45.52659" lon="5.25866">
        <ele>491.4</ele>
        <time>2023-08-29T09:25:27Z</time>
      </trkpt>
      <trkpt lat="45.52658" lon="5.2586">
        <ele>491.4</ele>
        <time>2023-08-29T09:25:28Z</time>
      </trkpt>
      <trkpt lat="45.52657" lon="5.25854">
        <ele>491.2</ele>
        <time>2023-08-29T09:25:29Z</time>
      </trkpt>
      <trkpt lat="45.52655" lon="5.25849">
        <ele>491.2</ele>
        <time>2023-08-29T09:25:30Z</time>
      </trkpt>
      <trkpt lat="45.52655" lon="5.25843">
        <ele>491.2</ele>
        <time>2023-08-29T09:25:31Z</time>
      </trkpt>
      <trkpt lat="45.52655" lon="5.25837">
        <ele>491.2</ele>
        <time>2023-08-29T09:25:32Z</time>
      </trkpt>
      <trkpt lat="45.52656" lon="5.25832">
        <ele>491.2</ele>
        <time>2023-08-29T09:25:33Z</time>
      </trkpt>
      <trkpt lat="45.52657" lon="5.25826">
        <ele>491.2</ele>
        <time>2023-08-29T09:25:34Z</time>
      </trkpt>
      <trkpt lat="45.52658" lon="5.25821">
        <ele>491.2</ele>
        <time>2023-08-29T09:25:35Z</time>
      </trkpt>
      <trkpt lat="45.52659" lon="5.25817">
        <ele>491.2</ele>
        <time>2023-08-29T09:25:36Z</time>
      </trkpt>
      <trkpt lat="45.5266" lon="5.25812">
        <ele>491.2</ele>
        <time>2023-08-29T09:25:37Z</time>
      </trkpt>
      <trkpt lat="45.52662" lon="5.25808">
        <ele>491.6</ele>
        <time>2023-08-29T09:25:38Z</time>
      </trkpt>
      <trkpt lat="45.52664" lon="5.25804">
        <ele>491.8</ele>
        <time>2023-08-29T09:25:39Z</time>
      </trkpt>
      <trkpt lat="45.52665" lon="5.25801">
        <ele>491.8</ele>
        <time>2023-08-29T09:25:40Z</time>
      </trkpt>
      <trkpt lat="45.52667" lon="5.25797">
        <ele>492</ele>
        <time>2023-08-29T09:25:41Z</time>
      </trkpt>
      <trkpt lat="45.52669" lon="5.25794">
        <ele>492.2</ele>
        <time>2023-08-29T09:25:42Z</time>
      </trkpt>
      <trkpt lat="45.52671" lon="5.25791">
        <ele>492.2</ele>
        <time>2023-08-29T09:25:43Z</time>
      </trkpt>
      <trkpt lat="45.52674" lon="5.25786">
        <ele>492.2</ele>
        <time>2023-08-29T09:25:44Z</time>
      </trkpt>
      <trkpt lat="45.52676" lon="5.25783">
        <ele>492.2</ele>
        <time>2023-08-29T09:25:45Z</time>
      </trkpt>
      <trkpt lat="45.52677" lon="5.25779">
        <ele>492.6</ele>
        <time>2023-08-29T09:25:46Z</time>
      </trkpt>
      <trkpt lat="45.52678" lon="5.25775">
        <ele>492.6</ele>
        <time>2023-08-29T09:25:47Z</time>
      </trkpt>
      <trkpt lat="45.52679" lon="5.25769">
        <ele>493</ele>
        <time>2023-08-29T09:25:48Z</time>
      </trkpt>
      <trkpt lat="45.52679" lon="5.25764">
        <ele>493.2</ele>
        <time>2023-08-29T09:25:49Z</time>
      </trkpt>
      <trkpt lat="45.52678" lon="5.25759">
        <ele>493.2</ele>
        <time>2023-08-29T09:25:50Z</time>
      </trkpt>
      <trkpt lat="45.52677" lon="5.25754">
        <ele>493.2</ele>
        <time>2023-08-29T09:25:51Z</time>
      </trkpt>
      <trkpt lat="45.52676" lon="5.25749">
        <ele>493.4</ele>
        <time>2023-08-29T09:25:52Z</time>
      </trkpt>
      <trkpt lat="45.52675" lon="5.25745">
        <ele>493.4</ele>
        <time>2023-08-29T09:25:53Z</time>
      </trkpt>
      <trkpt lat="45.52674" lon="5.2574">
        <ele>493.4</ele>
        <time>2023-08-29T09:25:54Z</time>
      </trkpt>
      <trkpt lat="45.52673" lon="5.25735">
        <ele>493.4</ele>
        <time>2023-08-29T09:25:55Z</time>
      </trkpt>
      <trkpt lat="45.52672" lon="5.2573">
        <ele>493.4</ele>
        <time>2023-08-29T09:25:56Z</time>
      </trkpt>
      <trkpt lat="45.52671" lon="5.25725">
        <ele>493.6</ele>
        <time>2023-08-29T09:25:57Z</time>
      </trkpt>
      <trkpt lat="45.5267" lon="5.2572">
        <ele>493.6</ele>
        <time>2023-08-29T09:25:58Z</time>
      </trkpt>
      <trkpt lat="45.52669" lon="5.25715">
        <ele>493.6</ele>
        <time>2023-08-29T09:25:59Z</time>
      </trkpt>
      <trkpt lat="45.52668" lon="5.2571">
        <ele>493.8</ele>
        <time>2023-08-29T09:26:00Z</time>
      </trkpt>
      <trkpt lat="45.52668" lon="5.25706">
        <ele>493.8</ele>
        <time>2023-08-29T09:26:01Z</time>
      </trkpt>
      <trkpt lat="45.52667" lon="5.25701">
        <ele>494</ele>
        <time>2023-08-29T09:26:02Z</time>
      </trkpt>
      <trkpt lat="45.52666" lon="5.25695">
        <ele>494</ele>
        <time>2023-08-29T09:26:03Z</time>
      </trkpt>
      <trkpt lat="45.52664" lon="5.2569">
        <ele>494</ele>
        <time>2023-08-29T09:26:04Z</time>
      </trkpt>
      <trkpt lat="45.52663" lon="5.25685">
        <ele>494.2</ele>
        <time>2023-08-29T09:26:05Z</time>
      </trkpt>
      <trkpt lat="45.52662" lon="5.25681">
        <ele>494.4</ele>
        <time>2023-08-29T09:26:06Z</time>
      </trkpt>
      <trkpt lat="45.52661" lon="5.25677">
        <ele>494.6</ele>
        <time>2023-08-29T09:26:07Z</time>
      </trkpt>
      <trkpt lat="45.5266" lon="5.25672">
        <ele>494.6</ele>
        <time>2023-08-29T09:26:08Z</time>
      </trkpt>
      <trkpt lat="45.52659" lon="5.25667">
        <ele>494.6</ele>
        <time>2023-08-29T09:26:09Z</time>
      </trkpt>
      <trkpt lat="45.52658" lon="5.25662">
        <ele>494.8</ele>
        <time>2023-08-29T09:26:10Z</time>
      </trkpt>
      <trkpt lat="45.52657" lon="5.25658">
        <ele>494.8</ele>
        <time>2023-08-29T09:26:11Z</time>
      </trkpt>
      <trkpt lat="45.52656" lon="5.25653">
        <ele>495.2</ele>
        <time>2023-08-29T09:26:12Z</time>
      </trkpt>
      <trkpt lat="45.52655" lon="5.25649">
        <ele>495.2</ele>
        <time>2023-08-29T09:26:13Z</time>
      </trkpt>
      <trkpt lat="45.52655" lon="5.25645">
        <ele>495.2</ele>
        <time>2023-08-29T09:26:14Z</time>
      </trkpt>
      <trkpt lat="45.52654" lon="5.25641">
        <ele>495.2</ele>
        <time>2023-08-29T09:26:15Z</time>
      </trkpt>
      <trkpt lat="45.52652" lon="5.25636">
        <ele>495.2</ele>
        <time>2023-08-29T09:26:16Z</time>
      </trkpt>
      <trkpt lat="45.52651" lon="5.2563">
        <ele>495.2</ele>
        <time>2023-08-29T09:26:17Z</time>
      </trkpt>
      <trkpt lat="45.5265" lon="5.25625">
        <ele>495.2</ele>
        <time>2023-08-29T09:26:18Z</time>
      </trkpt>
      <trkpt lat="45.52649" lon="5.2562">
        <ele>495.2</ele>
        <time>2023-08-29T09:26:19Z</time>
      </trkpt>
      <trkpt lat="45.52648" lon="5.25614">
        <ele>495.2</ele>
        <time>2023-08-29T09:26:20Z</time>
      </trkpt>
      <trkpt lat="45.52646" lon="5.25609">
        <ele>495.6</ele>
        <time>2023-08-29T09:26:21Z</time>
      </trkpt>
      <trkpt lat="45.52645" lon="5.25605">
        <ele>495.6</ele>
        <time>2023-08-29T09:26:22Z</time>
      </trkpt>
      <trkpt lat="45.52644" lon="5.25601">
        <ele>495.6</ele>
        <time>2023-08-29T09:26:23Z</time>
      </trkpt>
      <trkpt lat="45.52643" lon="5.25596">
        <ele>495.8</ele>
        <time>2023-08-29T09:26:24Z</time>
      </trkpt>
      <trkpt lat="45.52642" lon="5.25592">
        <ele>496</ele>
        <time>2023-08-29T09:26:25Z</time>
      </trkpt>
      <trkpt lat="45.52641" lon="5.25588">
        <ele>496.4</ele>
        <time>2023-08-29T09:26:26Z</time>
      </trkpt>
      <trkpt lat="45.5264" lon="5.25583">
        <ele>496.6</ele>
        <time>2023-08-29T09:26:27Z</time>
      </trkpt>
      <trkpt lat="45.52638" lon="5.25578">
        <ele>496.6</ele>
        <time>2023-08-29T09:26:28Z</time>
      </trkpt>
      <trkpt lat="45.52637" lon="5.25573">
        <ele>496.8</ele>
        <time>2023-08-29T09:26:29Z</time>
      </trkpt>
      <trkpt lat="45.52636" lon="5.25569">
        <ele>496.8</ele>
        <time>2023-08-29T09:26:30Z</time>
      </trkpt>
      <trkpt lat="45.52635" lon="5.25563">
        <ele>497.2</ele>
        <time>2023-08-29T09:26:31Z</time>
      </trkpt>
      <trkpt lat="45.52634" lon="5.25557">
        <ele>497.4</ele>
        <time>2023-08-29T09:26:32Z</time>
      </trkpt>
      <trkpt lat="45.52633" lon="5.25552">
        <ele>497.4</ele>
        <time>2023-08-29T09:26:33Z</time>
      </trkpt>
      <trkpt lat="45.52631" lon="5.25547">
        <ele>497.6</ele>
        <time>2023-08-29T09:26:34Z</time>
      </trkpt>
      <trkpt lat="45.5263" lon="5.25543">
        <ele>497.6</ele>
        <time>2023-08-29T09:26:35Z</time>
      </trkpt>
      <trkpt lat="45.52629" lon="5.25537">
        <ele>497.8</ele>
        <time>2023-08-29T09:26:36Z</time>
      </trkpt>
      <trkpt lat="45.52628" lon="5.25532">
        <ele>497.8</ele>
        <time>2023-08-29T09:26:37Z</time>
      </trkpt>
      <trkpt lat="45.52627" lon="5.25527">
        <ele>498</ele>
        <time>2023-08-29T09:26:38Z</time>
      </trkpt>
      <trkpt lat="45.52627" lon="5.25524">
        <ele>498</ele>
        <time>2023-08-29T09:26:39Z</time>
      </trkpt>
      <trkpt lat="45.52626" lon="5.2552">
        <ele>498</ele>
        <time>2023-08-29T09:26:40Z</time>
      </trkpt>
      <trkpt lat="45.52626" lon="5.25516">
        <ele>498</ele>
        <time>2023-08-29T09:26:41Z</time>
      </trkpt>
      <trkpt lat="45.52625" lon="5.25513">
        <ele>498.2</ele>
        <time>2023-08-29T09:26:42Z</time>
      </trkpt>
      <trkpt lat="45.52624" lon="5.25508">
        <ele>498.4</ele>
        <time>2023-08-29T09:26:43Z</time>
      </trkpt>
      <trkpt lat="45.52623" lon="5.25504">
        <ele>498.8</ele>
        <time>2023-08-29T09:26:44Z</time>
      </trkpt>
      <trkpt lat="45.52622" lon="5.255">
        <ele>498.8</ele>
        <time>2023-08-29T09:26:45Z</time>
      </trkpt>
      <trkpt lat="45.52621" lon="5.25496">
        <ele>499</ele>
        <time>2023-08-29T09:26:46Z</time>
      </trkpt>
      <trkpt lat="45.5262" lon="5.25492">
        <ele>499.2</ele>
        <time>2023-08-29T09:26:47Z</time>
      </trkpt>
      <trkpt lat="45.5262" lon="5.25488">
        <ele>499.2</ele>
        <time>2023-08-29T09:26:48Z</time>
      </trkpt>
      <trkpt lat="45.52619" lon="5.25484">
        <ele>499.4</ele>
        <time>2023-08-29T09:26:49Z</time>
      </trkpt>
      <trkpt lat="45.52618" lon="5.2548">
        <ele>499.8</ele>
        <time>2023-08-29T09:26:50Z</time>
      </trkpt>
      <trkpt lat="45.52618" lon="5.25477">
        <ele>500</ele>
        <time>2023-08-29T09:26:51Z</time>
      </trkpt>
      <trkpt lat="45.52617" lon="5.25473">
        <ele>500.2</ele>
        <time>2023-08-29T09:26:52Z</time>
      </trkpt>
      <trkpt lat="45.52617" lon="5.25469">
        <ele>500.6</ele>
        <time>2023-08-29T09:26:53Z</time>
      </trkpt>
      <trkpt lat="45.52616" lon="5.25465">
        <ele>500.8</ele>
        <time>2023-08-29T09:26:54Z</time>
      </trkpt>
      <trkpt lat="45.52615" lon="5.25461">
        <ele>501.2</ele>
        <time>2023-08-29T09:26:55Z</time>
      </trkpt>
      <trkpt lat="45.52614" lon="5.25458">
        <ele>501.4</ele>
        <time>2023-08-29T09:26:56Z</time>
      </trkpt>
      <trkpt lat="45.52614" lon="5.25455">
        <ele>501.6</ele>
        <time>2023-08-29T09:26:57Z</time>
      </trkpt>
      <trkpt lat="45.52613" lon="5.25452">
        <ele>501.8</ele>
        <time>2023-08-29T09:26:58Z</time>
      </trkpt>
      <trkpt lat="45.52612" lon="5.25449">
        <ele>501.8</ele>
        <time>2023-08-29T09:26:59Z</time>
      </trkpt>
      <trkpt lat="45.52611" lon="5.25446">
        <ele>502.2</ele>
        <time>2023-08-29T09:27:00Z</time>
      </trkpt>
      <trkpt lat="45.5261" lon="5.25443">
        <ele>502.6</ele>
        <time>2023-08-29T09:27:01Z</time>
      </trkpt>
      <trkpt lat="45.5261" lon="5.2544">
        <ele>503</ele>
        <time>2023-08-29T09:27:02Z</time>
      </trkpt>
      <trkpt lat="45.52609" lon="5.25437">
        <ele>503.4</ele>
        <time>2023-08-29T09:27:03Z</time>
      </trkpt>
      <trkpt lat="45.52608" lon="5.25433">
        <ele>503.8</ele>
        <time>2023-08-29T09:27:04Z</time>
      </trkpt>
      <trkpt lat="45.52608" lon="5.2543">
        <ele>504.2</ele>
        <time>2023-08-29T09:27:05Z</time>
      </trkpt>
      <trkpt lat="45.52608" lon="5.25427">
        <ele>504.6</ele>
        <time>2023-08-29T09:27:06Z</time>
      </trkpt>
      <trkpt lat="45.52607" lon="5.25423">
        <ele>504.8</ele>
        <time>2023-08-29T09:27:07Z</time>
      </trkpt>
      <trkpt lat="45.52607" lon="5.25421">
        <ele>505.2</ele>
        <time>2023-08-29T09:27:08Z</time>
      </trkpt>
      <trkpt lat="45.52606" lon="5.25418">
        <ele>505.6</ele>
        <time>2023-08-29T09:27:09Z</time>
      </trkpt>
      <trkpt lat="45.52605" lon="5.25415">
        <ele>506</ele>
        <time>2023-08-29T09:27:10Z</time>
      </trkpt>
      <trkpt lat="45.52604" lon="5.25412">
        <ele>506</ele>
        <time>2023-08-29T09:27:11Z</time>
      </trkpt>
      <trkpt lat="45.52604" lon="5.25409">
        <ele>506.2</ele>
        <time>2023-08-29T09:27:12Z</time>
      </trkpt>
      <trkpt lat="45.52603" lon="5.25405">
        <ele>506.4</ele>
        <time>2023-08-29T09:27:13Z</time>
      </trkpt>
      <trkpt lat="45.52602" lon="5.25402">
        <ele>506.8</ele>
        <time>2023-08-29T09:27:14Z</time>
      </trkpt>
      <trkpt lat="45.52602" lon="5.25399">
        <ele>507</ele>
        <time>2023-08-29T09:27:15Z</time>
      </trkpt>
      <trkpt lat="45.52601" lon="5.25396">
        <ele>507.2</ele>
        <time>2023-08-29T09:27:16Z</time>
      </trkpt>
      <trkpt lat="45.526" lon="5.25394">
        <ele>507.6</ele>
        <time>2023-08-29T09:27:17Z</time>
      </trkpt>
      <trkpt lat="45.526" lon="5.25391">
        <ele>508</ele>
        <time>2023-08-29T09:27:18Z</time>
      </trkpt>
      <trkpt lat="45.52599" lon="5.25389">
        <ele>508.2</ele>
        <time>2023-08-29T09:27:19Z</time>
      </trkpt>
      <trkpt lat="45.52598" lon="5.25386">
        <ele>508.4</ele>
        <time>2023-08-29T09:27:20Z</time>
      </trkpt>
      <trkpt lat="45.52597" lon="5.25384">
        <ele>508.6</ele>
        <time>2023-08-29T09:27:21Z</time>
      </trkpt>
      <trkpt lat="45.52596" lon="5.25382">
        <ele>508.8</ele>
        <time>2023-08-29T09:27:22Z</time>
      </trkpt>
      <trkpt lat="45.52595" lon="5.2538">
        <ele>509.2</ele>
        <time>2023-08-29T09:27:23Z</time>
      </trkpt>
      <trkpt lat="45.52594" lon="5.25379">
        <ele>509.2</ele>
        <time>2023-08-29T09:27:24Z</time>
      </trkpt>
      <trkpt lat="45.52593" lon="5.25377">
        <ele>509.4</ele>
        <time>2023-08-29T09:27:25Z</time>
      </trkpt>
      <trkpt lat="45.52592" lon="5.25375">
        <ele>509.6</ele>
        <time>2023-08-29T09:27:26Z</time>
      </trkpt>
      <trkpt lat="45.5259" lon="5.25373">
        <ele>509.6</ele>
        <time>2023-08-29T09:27:27Z</time>
      </trkpt>
      <trkpt lat="45.52588" lon="5.25372">
        <ele>509.8</ele>
        <time>2023-08-29T09:27:28Z</time>
      </trkpt>
      <trkpt lat="45.52586" lon="5.25371">
        <ele>509.8</ele>
        <time>2023-08-29T09:27:29Z</time>
      </trkpt>
      <trkpt lat="45.52584" lon="5.2537">
        <ele>510</ele>
        <time>2023-08-29T09:27:30Z</time>
      </trkpt>
      <trkpt lat="45.52582" lon="5.2537">
        <ele>510</ele>
        <time>2023-08-29T09:27:31Z</time>
      </trkpt>
      <trkpt lat="45.52579" lon="5.25369">
        <ele>510</ele>
        <time>2023-08-29T09:27:32Z</time>
      </trkpt>
      <trkpt lat="45.52577" lon="5.25367">
        <ele>510</ele>
        <time>2023-08-29T09:27:33Z</time>
      </trkpt>
      <trkpt lat="45.52576" lon="5.25366">
        <ele>510</ele>
        <time>2023-08-29T09:27:34Z</time>
      </trkpt>
      <trkpt lat="45.52574" lon="5.25365">
        <ele>510</ele>
        <time>2023-08-29T09:27:35Z</time>
      </trkpt>
      <trkpt lat="45.52571" lon="5.25363">
        <ele>510</ele>
        <time>2023-08-29T09:27:36Z</time>
      </trkpt>
      <trkpt lat="45.52569" lon="5.25361">
        <ele>510.2</ele>
        <time>2023-08-29T09:27:37Z</time>
      </trkpt>
      <trkpt lat="45.52566" lon="5.25359">
        <ele>510.4</ele>
        <time>2023-08-29T09:27:38Z</time>
      </trkpt>
      <trkpt lat="45.52564" lon="5.25358">
        <ele>510.6</ele>
        <time>2023-08-29T09:27:39Z</time>
      </trkpt>
      <trkpt lat="45.52562" lon="5.25357">
        <ele>510.6</ele>
        <time>2023-08-29T09:27:40Z</time>
      </trkpt>
      <trkpt lat="45.52559" lon="5.25356">
        <ele>510.8</ele>
        <time>2023-08-29T09:27:41Z</time>
      </trkpt>
      <trkpt lat="45.52557" lon="5.25354">
        <ele>511</ele>
        <time>2023-08-29T09:27:42Z</time>
      </trkpt>
      <trkpt lat="45.52555" lon="5.25352">
        <ele>511</ele>
        <time>2023-08-29T09:27:43Z</time>
      </trkpt>
      <trkpt lat="45.52552" lon="5.2535">
        <ele>511</ele>
        <time>2023-08-29T09:27:44Z</time>
      </trkpt>
      <trkpt lat="45.5255" lon="5.25349">
        <ele>511</ele>
        <time>2023-08-29T09:27:45Z</time>
      </trkpt>
      <trkpt lat="45.52548" lon="5.25348">
        <ele>511.2</ele>
        <time>2023-08-29T09:27:46Z</time>
      </trkpt>
      <trkpt lat="45.52546" lon="5.25346">
        <ele>511.2</ele>
        <time>2023-08-29T09:27:47Z</time>
      </trkpt>
      <trkpt lat="45.52543" lon="5.25345">
        <ele>511.4</ele>
        <time>2023-08-29T09:27:48Z</time>
      </trkpt>
      <trkpt lat="45.5254" lon="5.25343">
        <ele>511.6</ele>
        <time>2023-08-29T09:27:49Z</time>
      </trkpt>
      <trkpt lat="45.52538" lon="5.25341">
        <ele>511.6</ele>
        <time>2023-08-29T09:27:50Z</time>
      </trkpt>
      <trkpt lat="45.52537" lon="5.25339">
        <ele>512</ele>
        <time>2023-08-29T09:27:51Z</time>
      </trkpt>
      <trkpt lat="45.52535" lon="5.25336">
        <ele>512</ele>
        <time>2023-08-29T09:27:52Z</time>
      </trkpt>
      <trkpt lat="45.52534" lon="5.25333">
        <ele>512.2</ele>
        <time>2023-08-29T09:27:53Z</time>
      </trkpt>
      <trkpt lat="45.52532" lon="5.2533">
        <ele>512.2</ele>
        <time>2023-08-29T09:27:54Z</time>
      </trkpt>
      <trkpt lat="45.5253" lon="5.25327">
        <ele>512.2</ele>
        <time>2023-08-29T09:27:55Z</time>
      </trkpt>
      <trkpt lat="45.52529" lon="5.25324">
        <ele>512.2</ele>
        <time>2023-08-29T09:27:56Z</time>
      </trkpt>
      <trkpt lat="45.52528" lon="5.25321">
        <ele>512.2</ele>
        <time>2023-08-29T09:27:57Z</time>
      </trkpt>
      <trkpt lat="45.52527" lon="5.25318">
        <ele>512.2</ele>
        <time>2023-08-29T09:27:58Z</time>
      </trkpt>
      <trkpt lat="45.52526" lon="5.25315">
        <ele>512.2</ele>
        <time>2023-08-29T09:27:59Z</time>
      </trkpt>
      <trkpt lat="45.52525" lon="5.25311">
        <ele>512.2</ele>
        <time>2023-08-29T09:28:00Z</time>
      </trkpt>
      <trkpt lat="45.52524" lon="5.25308">
        <ele>512.4</ele>
        <time>2023-08-29T09:28:01Z</time>
      </trkpt>
      <trkpt lat="45.52523" lon="5.25306">
        <ele>512.4</ele>
        <time>2023-08-29T09:28:02Z</time>
      </trkpt>
      <trkpt lat="45.52523" lon="5.25303">
        <ele>512.4</ele>
        <time>2023-08-29T09:28:03Z</time>
      </trkpt>
      <trkpt lat="45.52522" lon="5.253">
        <ele>512.4</ele>
        <time>2023-08-29T09:28:04Z</time>
      </trkpt>
      <trkpt lat="45.52521" lon="5.25298">
        <ele>512.2</ele>
        <time>2023-08-29T09:28:05Z</time>
      </trkpt>
      <trkpt lat="45.5252" lon="5.25294">
        <ele>512.2</ele>
        <time>2023-08-29T09:28:06Z</time>
      </trkpt>
      <trkpt lat="45.52518" lon="5.25291">
        <ele>512</ele>
        <time>2023-08-29T09:28:07Z</time>
      </trkpt>
      <trkpt lat="45.52517" lon="5.25287">
        <ele>512</ele>
        <time>2023-08-29T09:28:08Z</time>
      </trkpt>
      <trkpt lat="45.52516" lon="5.25284">
        <ele>512</ele>
        <time>2023-08-29T09:28:09Z</time>
      </trkpt>
      <trkpt lat="45.52515" lon="5.2528">
        <ele>512</ele>
        <time>2023-08-29T09:28:10Z</time>
      </trkpt>
      <trkpt lat="45.52515" lon="5.25278">
        <ele>512</ele>
        <time>2023-08-29T09:28:11Z</time>
      </trkpt>
      <trkpt lat="45.52514" lon="5.25277">
        <ele>512</ele>
        <time>2023-08-29T09:28:12Z</time>
      </trkpt>
      <trkpt lat="45.52513" lon="5.25275">
        <ele>512</ele>
        <time>2023-08-29T09:28:13Z</time>
      </trkpt>
      <trkpt lat="45.52512" lon="5.25272">
        <ele>511.8</ele>
        <time>2023-08-29T09:28:14Z</time>
      </trkpt>
      <trkpt lat="45.52512" lon="5.25269">
        <ele>511.8</ele>
        <time>2023-08-29T09:28:15Z</time>
      </trkpt>
      <trkpt lat="45.52514" lon="5.25266">
        <ele>511.6</ele>
        <time>2023-08-29T09:28:16Z</time>
      </trkpt>
      <trkpt lat="45.52516" lon="5.25263">
        <ele>511.4</ele>
        <time>2023-08-29T09:28:17Z</time>
      </trkpt>
      <trkpt lat="45.52519" lon="5.2526">
        <ele>511</ele>
        <time>2023-08-29T09:28:18Z</time>
      </trkpt>
      <trkpt lat="45.52521" lon="5.25258">
        <ele>511</ele>
        <time>2023-08-29T09:28:19Z</time>
      </trkpt>
      <trkpt lat="45.52524" lon="5.25255">
        <ele>511</ele>
        <time>2023-08-29T09:28:20Z</time>
      </trkpt>
      <trkpt lat="45.52527" lon="5.25251">
        <ele>511</ele>
        <time>2023-08-29T09:28:21Z</time>
      </trkpt>
      <trkpt lat="45.52529" lon="5.25248">
        <ele>511</ele>
        <time>2023-08-29T09:28:22Z</time>
      </trkpt>
      <trkpt lat="45.52531" lon="5.25244">
        <ele>511.2</ele>
        <time>2023-08-29T09:28:23Z</time>
      </trkpt>
      <trkpt lat="45.52533" lon="5.25241">
        <ele>511.4</ele>
        <time>2023-08-29T09:28:24Z</time>
      </trkpt>
      <trkpt lat="45.52535" lon="5.25237">
        <ele>511.4</ele>
        <time>2023-08-29T09:28:25Z</time>
      </trkpt>
      <trkpt lat="45.52537" lon="5.25234">
        <ele>511.4</ele>
        <time>2023-08-29T09:28:26Z</time>
      </trkpt>
      <trkpt lat="45.52539" lon="5.25231">
        <ele>511.8</ele>
        <time>2023-08-29T09:28:27Z</time>
      </trkpt>
      <trkpt lat="45.52541" lon="5.25229">
        <ele>512</ele>
        <time>2023-08-29T09:28:28Z</time>
      </trkpt>
      <trkpt lat="45.52543" lon="5.25226">
        <ele>512.2</ele>
        <time>2023-08-29T09:28:29Z</time>
      </trkpt>
      <trkpt lat="45.52544" lon="5.25224">
        <ele>512.2</ele>
        <time>2023-08-29T09:28:30Z</time>
      </trkpt>
      <trkpt lat="45.52546" lon="5.25222">
        <ele>512.4</ele>
        <time>2023-08-29T09:28:31Z</time>
      </trkpt>
      <trkpt lat="45.52548" lon="5.2522">
        <ele>512.6</ele>
        <time>2023-08-29T09:28:32Z</time>
      </trkpt>
      <trkpt lat="45.52548" lon="5.25219">
        <ele>512.8</ele>
        <time>2023-08-29T09:28:33Z</time>
      </trkpt>
      <trkpt lat="45.52549" lon="5.25218">
        <ele>513</ele>
        <time>2023-08-29T09:28:34Z</time>
      </trkpt>
      <trkpt lat="45.52549" lon="5.25216">
        <ele>513.2</ele>
        <time>2023-08-29T09:28:35Z</time>
      </trkpt>
      <trkpt lat="45.5255" lon="5.25213">
        <ele>513.2</ele>
        <time>2023-08-29T09:28:36Z</time>
      </trkpt>
      <trkpt lat="45.52551" lon="5.25211">
        <ele>513.4</ele>
        <time>2023-08-29T09:28:37Z</time>
      </trkpt>
      <trkpt lat="45.52553" lon="5.25208">
        <ele>513.4</ele>
        <time>2023-08-29T09:28:38Z</time>
      </trkpt>
      <trkpt lat="45.52556" lon="5.25206">
        <ele>513.4</ele>
        <time>2023-08-29T09:28:39Z</time>
      </trkpt>
      <trkpt lat="45.52558" lon="5.25205">
        <ele>513.4</ele>
        <time>2023-08-29T09:28:40Z</time>
      </trkpt>
      <trkpt lat="45.52559" lon="5.25203">
        <ele>513.4</ele>
        <time>2023-08-29T09:28:41Z</time>
      </trkpt>
      <trkpt lat="45.52559" lon="5.25202">
        <ele>513.4</ele>
        <time>2023-08-29T09:28:42Z</time>
      </trkpt>
      <trkpt lat="45.5256" lon="5.252">
        <ele>513.4</ele>
        <time>2023-08-29T09:28:43Z</time>
      </trkpt>
      <trkpt lat="45.52561" lon="5.25198">
        <ele>513.6</ele>
        <time>2023-08-29T09:28:44Z</time>
      </trkpt>
      <trkpt lat="45.52563" lon="5.25198">
        <ele>514</ele>
        <time>2023-08-29T09:28:45Z</time>
      </trkpt>
      <trkpt lat="45.52566" lon="5.25196">
        <ele>514.2</ele>
        <time>2023-08-29T09:28:46Z</time>
      </trkpt>
      <trkpt lat="45.5257" lon="5.25194">
        <ele>514.2</ele>
        <time>2023-08-29T09:28:47Z</time>
      </trkpt>
      <trkpt lat="45.52573" lon="5.25193">
        <ele>514.2</ele>
        <time>2023-08-29T09:28:48Z</time>
      </trkpt>
      <trkpt lat="45.52576" lon="5.25192">
        <ele>514.2</ele>
        <time>2023-08-29T09:28:49Z</time>
      </trkpt>
      <trkpt lat="45.5258" lon="5.25191">
        <ele>514.2</ele>
        <time>2023-08-29T09:28:50Z</time>
      </trkpt>
      <trkpt lat="45.52583" lon="5.25189">
        <ele>514.2</ele>
        <time>2023-08-29T09:28:51Z</time>
      </trkpt>
      <trkpt lat="45.52586" lon="5.25188">
        <ele>514.4</ele>
        <time>2023-08-29T09:28:52Z</time>
      </trkpt>
      <trkpt lat="45.52589" lon="5.25187">
        <ele>514.4</ele>
        <time>2023-08-29T09:28:53Z</time>
      </trkpt>
      <trkpt lat="45.52591" lon="5.25186">
        <ele>514.6</ele>
        <time>2023-08-29T09:28:54Z</time>
      </trkpt>
      <trkpt lat="45.52594" lon="5.25185">
        <ele>514.8</ele>
        <time>2023-08-29T09:28:55Z</time>
      </trkpt>
      <trkpt lat="45.52597" lon="5.25184">
        <ele>514.8</ele>
        <time>2023-08-29T09:28:56Z</time>
      </trkpt>
      <trkpt lat="45.526" lon="5.25183">
        <ele>514.8</ele>
        <time>2023-08-29T09:28:57Z</time>
      </trkpt>
      <trkpt lat="45.52602" lon="5.25181">
        <ele>515.2</ele>
        <time>2023-08-29T09:28:58Z</time>
      </trkpt>
      <trkpt lat="45.52605" lon="5.25179">
        <ele>515.2</ele>
        <time>2023-08-29T09:28:59Z</time>
      </trkpt>
      <trkpt lat="45.52609" lon="5.25178">
        <ele>515.4</ele>
        <time>2023-08-29T09:29:00Z</time>
      </trkpt>
      <trkpt lat="45.52612" lon="5.25177">
        <ele>515.4</ele>
        <time>2023-08-29T09:29:01Z</time>
      </trkpt>
      <trkpt lat="45.52615" lon="5.25175">
        <ele>515.6</ele>
        <time>2023-08-29T09:29:02Z</time>
      </trkpt>
      <trkpt lat="45.52618" lon="5.25172">
        <ele>515.8</ele>
        <time>2023-08-29T09:29:03Z</time>
      </trkpt>
      <trkpt lat="45.52622" lon="5.2517">
        <ele>515.8</ele>
        <time>2023-08-29T09:29:04Z</time>
      </trkpt>
      <trkpt lat="45.52624" lon="5.25168">
        <ele>516</ele>
        <time>2023-08-29T09:29:05Z</time>
      </trkpt>
      <trkpt lat="45.52627" lon="5.25165">
        <ele>516.4</ele>
        <time>2023-08-29T09:29:06Z</time>
      </trkpt>
      <trkpt lat="45.52629" lon="5.25163">
        <ele>516.6</ele>
        <time>2023-08-29T09:29:07Z</time>
      </trkpt>
      <trkpt lat="45.52632" lon="5.2516">
        <ele>516.8</ele>
        <time>2023-08-29T09:29:08Z</time>
      </trkpt>
      <trkpt lat="45.52634" lon="5.25157">
        <ele>516.8</ele>
        <time>2023-08-29T09:29:09Z</time>
      </trkpt>
      <trkpt lat="45.52637" lon="5.25153">
        <ele>517</ele>
        <time>2023-08-29T09:29:10Z</time>
      </trkpt>
      <trkpt lat="45.52639" lon="5.25149">
        <ele>517.2</ele>
        <time>2023-08-29T09:29:11Z</time>
      </trkpt>
      <trkpt lat="45.5264" lon="5.25145">
        <ele>517.2</ele>
        <time>2023-08-29T09:29:12Z</time>
      </trkpt>
      <trkpt lat="45.52641" lon="5.25142">
        <ele>517.2</ele>
        <time>2023-08-29T09:29:13Z</time>
      </trkpt>
      <trkpt lat="45.52642" lon="5.25139">
        <ele>517.4</ele>
        <time>2023-08-29T09:29:14Z</time>
      </trkpt>
      <trkpt lat="45.52644" lon="5.25135">
        <ele>517.8</ele>
        <time>2023-08-29T09:29:15Z</time>
      </trkpt>
      <trkpt lat="45.52645" lon="5.25131">
        <ele>518</ele>
        <time>2023-08-29T09:29:16Z</time>
      </trkpt>
      <trkpt lat="45.52647" lon="5.25127">
        <ele>518.2</ele>
        <time>2023-08-29T09:29:17Z</time>
      </trkpt>
      <trkpt lat="45.52648" lon="5.25123">
        <ele>518.2</ele>
        <time>2023-08-29T09:29:18Z</time>
      </trkpt>
      <trkpt lat="45.52649" lon="5.25118">
        <ele>518.6</ele>
        <time>2023-08-29T09:29:19Z</time>
      </trkpt>
      <trkpt lat="45.5265" lon="5.25114">
        <ele>518.8</ele>
        <time>2023-08-29T09:29:20Z</time>
      </trkpt>
      <trkpt lat="45.52651" lon="5.2511">
        <ele>519</ele>
        <time>2023-08-29T09:29:21Z</time>
      </trkpt>
      <trkpt lat="45.52653" lon="5.25106">
        <ele>519.4</ele>
        <time>2023-08-29T09:29:22Z</time>
      </trkpt>
      <trkpt lat="45.52654" lon="5.25102">
        <ele>519.4</ele>
        <time>2023-08-29T09:29:23Z</time>
      </trkpt>
      <trkpt lat="45.52655" lon="5.25099">
        <ele>519.4</ele>
        <time>2023-08-29T09:29:24Z</time>
      </trkpt>
      <trkpt lat="45.52656" lon="5.25095">
        <ele>519.4</ele>
        <time>2023-08-29T09:29:25Z</time>
      </trkpt>
      <trkpt lat="45.52658" lon="5.2509">
        <ele>519.4</ele>
        <time>2023-08-29T09:29:26Z</time>
      </trkpt>
      <trkpt lat="45.52659" lon="5.25086">
        <ele>519.4</ele>
        <time>2023-08-29T09:29:27Z</time>
      </trkpt>
      <trkpt lat="45.52661" lon="5.25082">
        <ele>519.4</ele>
        <time>2023-08-29T09:29:28Z</time>
      </trkpt>
      <trkpt lat="45.52662" lon="5.25078">
        <ele>519.4</ele>
        <time>2023-08-29T09:29:29Z</time>
      </trkpt>
      <trkpt lat="45.52663" lon="5.25074">
        <ele>519.4</ele>
        <time>2023-08-29T09:29:30Z</time>
      </trkpt>
      <trkpt lat="45.52665" lon="5.2507">
        <ele>519.4</ele>
        <time>2023-08-29T09:29:31Z</time>
      </trkpt>
      <trkpt lat="45.52666" lon="5.25067">
        <ele>519.4</ele>
        <time>2023-08-29T09:29:32Z</time>
      </trkpt>
      <trkpt lat="45.52668" lon="5.25062">
        <ele>519.4</ele>
        <time>2023-08-29T09:29:33Z</time>
      </trkpt>
      <trkpt lat="45.5267" lon="5.25058">
        <ele>519.4</ele>
        <time>2023-08-29T09:29:34Z</time>
      </trkpt>
      <trkpt lat="45.52672" lon="5.25054">
        <ele>519.6</ele>
        <time>2023-08-29T09:29:35Z</time>
      </trkpt>
      <trkpt lat="45.52675" lon="5.2505">
        <ele>519.6</ele>
        <time>2023-08-29T09:29:36Z</time>
      </trkpt>
      <trkpt lat="45.52677" lon="5.25047">
        <ele>519.6</ele>
        <time>2023-08-29T09:29:37Z</time>
      </trkpt>
      <trkpt lat="45.52678" lon="5.25043">
        <ele>519.6</ele>
        <time>2023-08-29T09:29:38Z</time>
      </trkpt>
      <trkpt lat="45.5268" lon="5.25039">
        <ele>519.6</ele>
        <time>2023-08-29T09:29:39Z</time>
      </trkpt>
      <trkpt lat="45.52682" lon="5.25034">
        <ele>519.6</ele>
        <time>2023-08-29T09:29:40Z</time>
      </trkpt>
      <trkpt lat="45.52684" lon="5.2503">
        <ele>519.6</ele>
        <time>2023-08-29T09:29:41Z</time>
      </trkpt>
      <trkpt lat="45.52686" lon="5.25025">
        <ele>519.4</ele>
        <time>2023-08-29T09:29:42Z</time>
      </trkpt>
      <trkpt lat="45.52688" lon="5.2502">
        <ele>519.4</ele>
        <time>2023-08-29T09:29:43Z</time>
      </trkpt>
      <trkpt lat="45.5269" lon="5.25015">
        <ele>519.4</ele>
        <time>2023-08-29T09:29:44Z</time>
      </trkpt>
      <trkpt lat="45.52692" lon="5.2501">
        <ele>519.2</ele>
        <time>2023-08-29T09:29:45Z</time>
      </trkpt>
      <trkpt lat="45.52693" lon="5.25005">
        <ele>519.2</ele>
        <time>2023-08-29T09:29:46Z</time>
      </trkpt>
      <trkpt lat="45.52695" lon="5.25001">
        <ele>519.2</ele>
        <time>2023-08-29T09:29:47Z</time>
      </trkpt>
      <trkpt lat="45.52697" lon="5.24996">
        <ele>519.4</ele>
        <time>2023-08-29T09:29:48Z</time>
      </trkpt>
      <trkpt lat="45.52699" lon="5.24992">
        <ele>519.4</ele>
        <time>2023-08-29T09:29:49Z</time>
      </trkpt>
      <trkpt lat="45.527" lon="5.24988">
        <ele>519.4</ele>
        <time>2023-08-29T09:29:50Z</time>
      </trkpt>
      <trkpt lat="45.52702" lon="5.24983">
        <ele>519.4</ele>
        <time>2023-08-29T09:29:51Z</time>
      </trkpt>
      <trkpt lat="45.52703" lon="5.2498">
        <ele>519.4</ele>
        <time>2023-08-29T09:29:52Z</time>
      </trkpt>
      <trkpt lat="45.52705" lon="5.24976">
        <ele>519.4</ele>
        <time>2023-08-29T09:29:53Z</time>
      </trkpt>
      <trkpt lat="45.52707" lon="5.24972">
        <ele>519.4</ele>
        <time>2023-08-29T09:29:54Z</time>
      </trkpt>
      <trkpt lat="45.52708" lon="5.24969">
        <ele>519.4</ele>
        <time>2023-08-29T09:29:55Z</time>
      </trkpt>
      <trkpt lat="45.5271" lon="5.24965">
        <ele>519.2</ele>
        <time>2023-08-29T09:29:56Z</time>
      </trkpt>
      <trkpt lat="45.52712" lon="5.24961">
        <ele>519.4</ele>
        <time>2023-08-29T09:29:57Z</time>
      </trkpt>
      <trkpt lat="45.52714" lon="5.24957">
        <ele>519.4</ele>
        <time>2023-08-29T09:29:58Z</time>
      </trkpt>
      <trkpt lat="45.52715" lon="5.24953">
        <ele>519.4</ele>
        <time>2023-08-29T09:29:59Z</time>
      </trkpt>
      <trkpt lat="45.52717" lon="5.2495">
        <ele>519.4</ele>
        <time>2023-08-29T09:30:00Z</time>
      </trkpt>
      <trkpt lat="45.52718" lon="5.24946">
        <ele>519.4</ele>
        <time>2023-08-29T09:30:01Z</time>
      </trkpt>
      <trkpt lat="45.5272" lon="5.24942">
        <ele>519.4</ele>
        <time>2023-08-29T09:30:02Z</time>
      </trkpt>
      <trkpt lat="45.52722" lon="5.24938">
        <ele>519.4</ele>
        <time>2023-08-29T09:30:03Z</time>
      </trkpt>
      <trkpt lat="45.52724" lon="5.24933">
        <ele>519.4</ele>
        <time>2023-08-29T09:30:04Z</time>
      </trkpt>
      <trkpt lat="45.52726" lon="5.24929">
        <ele>519.4</ele>
        <time>2023-08-29T09:30:05Z</time>
      </trkpt>
      <trkpt lat="45.52728" lon="5.24925">
        <ele>519.2</ele>
        <time>2023-08-29T09:30:06Z</time>
      </trkpt>
      <trkpt lat="45.5273" lon="5.24921">
        <ele>519.2</ele>
        <time>2023-08-29T09:30:07Z</time>
      </trkpt>
      <trkpt lat="45.52732" lon="5.24915">
        <ele>518.8</ele>
        <time>2023-08-29T09:30:08Z</time>
      </trkpt>
      <trkpt lat="45.52734" lon="5.2491">
        <ele>518.6</ele>
        <time>2023-08-29T09:30:09Z</time>
      </trkpt>
      <trkpt lat="45.52737" lon="5.24904">
        <ele>518.2</ele>
        <time>2023-08-29T09:30:10Z</time>
      </trkpt>
      <trkpt lat="45.5274" lon="5.24898">
        <ele>518.2</ele>
        <time>2023-08-29T09:30:11Z</time>
      </trkpt>
      <trkpt lat="45.52743" lon="5.24893">
        <ele>518</ele>
        <time>2023-08-29T09:30:12Z</time>
      </trkpt>
      <trkpt lat="45.52746" lon="5.24887">
        <ele>518</ele>
        <time>2023-08-29T09:30:13Z</time>
      </trkpt>
      <trkpt lat="45.52749" lon="5.2488">
        <ele>518</ele>
        <time>2023-08-29T09:30:14Z</time>
      </trkpt>
      <trkpt lat="45.52752" lon="5.24873">
        <ele>517.8</ele>
        <time>2023-08-29T09:30:15Z</time>
      </trkpt>
      <trkpt lat="45.52755" lon="5.24866">
        <ele>517.8</ele>
        <time>2023-08-29T09:30:16Z</time>
      </trkpt>
      <trkpt lat="45.52759" lon="5.2486">
        <ele>517.4</ele>
        <time>2023-08-29T09:30:17Z</time>
      </trkpt>
      <trkpt lat="45.52763" lon="5.24853">
        <ele>517</ele>
        <time>2023-08-29T09:30:18Z</time>
      </trkpt>
      <trkpt lat="45.52766" lon="5.24846">
        <ele>517</ele>
        <time>2023-08-29T09:30:19Z</time>
      </trkpt>
      <trkpt lat="45.5277" lon="5.24838">
        <ele>516.8</ele>
        <time>2023-08-29T09:30:20Z</time>
      </trkpt>
      <trkpt lat="45.52774" lon="5.24829">
        <ele>516.8</ele>
        <time>2023-08-29T09:30:21Z</time>
      </trkpt>
      <trkpt lat="45.52777" lon="5.24821">
        <ele>516.2</ele>
        <time>2023-08-29T09:30:22Z</time>
      </trkpt>
      <trkpt lat="45.52781" lon="5.24811">
        <ele>515.8</ele>
        <time>2023-08-29T09:30:23Z</time>
      </trkpt>
      <trkpt lat="45.52785" lon="5.24801">
        <ele>515</ele>
        <time>2023-08-29T09:30:24Z</time>
      </trkpt>
      <trkpt lat="45.52788" lon="5.24792">
        <ele>514.4</ele>
        <time>2023-08-29T09:30:25Z</time>
      </trkpt>
      <trkpt lat="45.52792" lon="5.24783">
        <ele>514</ele>
        <time>2023-08-29T09:30:26Z</time>
      </trkpt>
      <trkpt lat="45.52795" lon="5.24773">
        <ele>513.8</ele>
        <time>2023-08-29T09:30:27Z</time>
      </trkpt>
      <trkpt lat="45.52799" lon="5.24763">
        <ele>513.6</ele>
        <time>2023-08-29T09:30:28Z</time>
      </trkpt>
      <trkpt lat="45.52803" lon="5.24753">
        <ele>513.2</ele>
        <time>2023-08-29T09:30:29Z</time>
      </trkpt>
      <trkpt lat="45.52806" lon="5.24744">
        <ele>512.8</ele>
        <time>2023-08-29T09:30:30Z</time>
      </trkpt>
      <trkpt lat="45.5281" lon="5.24735">
        <ele>512</ele>
        <time>2023-08-29T09:30:31Z</time>
      </trkpt>
      <trkpt lat="45.52813" lon="5.24725">
        <ele>512</ele>
        <time>2023-08-29T09:30:32Z</time>
      </trkpt>
      <trkpt lat="45.52817" lon="5.24716">
        <ele>511.8</ele>
        <time>2023-08-29T09:30:33Z</time>
      </trkpt>
      <trkpt lat="45.5282" lon="5.24707">
        <ele>511.6</ele>
        <time>2023-08-29T09:30:34Z</time>
      </trkpt>
      <trkpt lat="45.52824" lon="5.24698">
        <ele>511.4</ele>
        <time>2023-08-29T09:30:35Z</time>
      </trkpt>
      <trkpt lat="45.52827" lon="5.24688">
        <ele>511.4</ele>
        <time>2023-08-29T09:30:36Z</time>
      </trkpt>
      <trkpt lat="45.5283" lon="5.2468">
        <ele>511.4</ele>
        <time>2023-08-29T09:30:37Z</time>
      </trkpt>
      <trkpt lat="45.52833" lon="5.24671">
        <ele>511.4</ele>
        <time>2023-08-29T09:30:38Z</time>
      </trkpt>
      <trkpt lat="45.52836" lon="5.24663">
        <ele>511.4</ele>
        <time>2023-08-29T09:30:39Z</time>
      </trkpt>
      <trkpt lat="45.5284" lon="5.24655">
        <ele>511.2</ele>
        <time>2023-08-29T09:30:40Z</time>
      </trkpt>
      <trkpt lat="45.52845" lon="5.24649">
        <ele>511.2</ele>
        <time>2023-08-29T09:30:41Z</time>
      </trkpt>
      <trkpt lat="45.5285" lon="5.24644">
        <ele>511.2</ele>
        <time>2023-08-29T09:30:42Z</time>
      </trkpt>
      <trkpt lat="45.52855" lon="5.24639">
        <ele>509.8</ele>
        <time>2023-08-29T09:30:43Z</time>
      </trkpt>
      <trkpt lat="45.5286" lon="5.24635">
        <ele>509.4</ele>
        <time>2023-08-29T09:30:44Z</time>
      </trkpt>
      <trkpt lat="45.52865" lon="5.2463">
        <ele>509.4</ele>
        <time>2023-08-29T09:30:45Z</time>
      </trkpt>
      <trkpt lat="45.5287" lon="5.24624">
        <ele>508.8</ele>
        <time>2023-08-29T09:30:46Z</time>
      </trkpt>
      <trkpt lat="45.52876" lon="5.24619">
        <ele>507.6</ele>
        <time>2023-08-29T09:30:47Z</time>
      </trkpt>
      <trkpt lat="45.52882" lon="5.24613">
        <ele>507.2</ele>
        <time>2023-08-29T09:30:48Z</time>
      </trkpt>
      <trkpt lat="45.52889" lon="5.24608">
        <ele>506.8</ele>
        <time>2023-08-29T09:30:49Z</time>
      </trkpt>
      <trkpt lat="45.52896" lon="5.24602">
        <ele>506</ele>
        <time>2023-08-29T09:30:50Z</time>
      </trkpt>
      <trkpt lat="45.52903" lon="5.24598">
        <ele>505.2</ele>
        <time>2023-08-29T09:30:51Z</time>
      </trkpt>
      <trkpt lat="45.52911" lon="5.24595">
        <ele>504.8</ele>
        <time>2023-08-29T09:30:52Z</time>
      </trkpt>
      <trkpt lat="45.52918" lon="5.24592">
        <ele>504.6</ele>
        <time>2023-08-29T09:30:53Z</time>
      </trkpt>
      <trkpt lat="45.52926" lon="5.24591">
        <ele>504.2</ele>
        <time>2023-08-29T09:30:54Z</time>
      </trkpt>
      <trkpt lat="45.52934" lon="5.24591">
        <ele>503.8</ele>
        <time>2023-08-29T09:30:55Z</time>
      </trkpt>
      <trkpt lat="45.52942" lon="5.2459">
        <ele>503.6</ele>
        <time>2023-08-29T09:30:56Z</time>
      </trkpt>
      <trkpt lat="45.52949" lon="5.2459">
        <ele>502.8</ele>
        <time>2023-08-29T09:30:57Z</time>
      </trkpt>
      <trkpt lat="45.52957" lon="5.2459">
        <ele>502.8</ele>
        <time>2023-08-29T09:30:58Z</time>
      </trkpt>
      <trkpt lat="45.52964" lon="5.24588">
        <ele>502.4</ele>
        <time>2023-08-29T09:30:59Z</time>
      </trkpt>
      <trkpt lat="45.52971" lon="5.24584">
        <ele>502.2</ele>
        <time>2023-08-29T09:31:00Z</time>
      </trkpt>
      <trkpt lat="45.52978" lon="5.24579">
        <ele>501.6</ele>
        <time>2023-08-29T09:31:01Z</time>
      </trkpt>
      <trkpt lat="45.52983" lon="5.24572">
        <ele>501.2</ele>
        <time>2023-08-29T09:31:02Z</time>
      </trkpt>
      <trkpt lat="45.52987" lon="5.24565">
        <ele>501</ele>
        <time>2023-08-29T09:31:03Z</time>
      </trkpt>
      <trkpt lat="45.5299" lon="5.24558">
        <ele>501</ele>
        <time>2023-08-29T09:31:04Z</time>
      </trkpt>
      <trkpt lat="45.52991" lon="5.24548">
        <ele>500.4</ele>
        <time>2023-08-29T09:31:05Z</time>
      </trkpt>
      <trkpt lat="45.5299" lon="5.24539">
        <ele>500</ele>
        <time>2023-08-29T09:31:06Z</time>
      </trkpt>
      <trkpt lat="45.52988" lon="5.2453">
        <ele>499.6</ele>
        <time>2023-08-29T09:31:07Z</time>
      </trkpt>
      <trkpt lat="45.52985" lon="5.24521">
        <ele>498.6</ele>
        <time>2023-08-29T09:31:08Z</time>
      </trkpt>
      <trkpt lat="45.52981" lon="5.24511">
        <ele>498</ele>
        <time>2023-08-29T09:31:09Z</time>
      </trkpt>
      <trkpt lat="45.52978" lon="5.24501">
        <ele>497.4</ele>
        <time>2023-08-29T09:31:10Z</time>
      </trkpt>
      <trkpt lat="45.52976" lon="5.24492">
        <ele>496.6</ele>
        <time>2023-08-29T09:31:11Z</time>
      </trkpt>
      <trkpt lat="45.52974" lon="5.24483">
        <ele>496.2</ele>
        <time>2023-08-29T09:31:12Z</time>
      </trkpt>
      <trkpt lat="45.52973" lon="5.24473">
        <ele>495.8</ele>
        <time>2023-08-29T09:31:13Z</time>
      </trkpt>
      <trkpt lat="45.52973" lon="5.24464">
        <ele>495.4</ele>
        <time>2023-08-29T09:31:14Z</time>
      </trkpt>
      <trkpt lat="45.52975" lon="5.24455">
        <ele>495.4</ele>
        <time>2023-08-29T09:31:15Z</time>
      </trkpt>
      <trkpt lat="45.52977" lon="5.24447">
        <ele>494.4</ele>
        <time>2023-08-29T09:31:16Z</time>
      </trkpt>
      <trkpt lat="45.5298" lon="5.24438">
        <ele>494</ele>
        <time>2023-08-29T09:31:17Z</time>
      </trkpt>
      <trkpt lat="45.52981" lon="5.24429">
        <ele>494</ele>
        <time>2023-08-29T09:31:18Z</time>
      </trkpt>
      <trkpt lat="45.52982" lon="5.24418">
        <ele>493.8</ele>
        <time>2023-08-29T09:31:19Z</time>
      </trkpt>
      <trkpt lat="45.52983" lon="5.24406">
        <ele>493.8</ele>
        <time>2023-08-29T09:31:20Z</time>
      </trkpt>
      <trkpt lat="45.52984" lon="5.24394">
        <ele>493.8</ele>
        <time>2023-08-29T09:31:21Z</time>
      </trkpt>
      <trkpt lat="45.52985" lon="5.24382">
        <ele>493.6</ele>
        <time>2023-08-29T09:31:22Z</time>
      </trkpt>
      <trkpt lat="45.52986" lon="5.24372">
        <ele>493.2</ele>
        <time>2023-08-29T09:31:23Z</time>
      </trkpt>
      <trkpt lat="45.52987" lon="5.24363">
        <ele>492.6</ele>
        <time>2023-08-29T09:31:24Z</time>
      </trkpt>
      <trkpt lat="45.52988" lon="5.24353">
        <ele>491</ele>
        <time>2023-08-29T09:31:25Z</time>
      </trkpt>
      <trkpt lat="45.52989" lon="5.24344">
        <ele>490.2</ele>
        <time>2023-08-29T09:31:26Z</time>
      </trkpt>
      <trkpt lat="45.52988" lon="5.24335">
        <ele>490</ele>
        <time>2023-08-29T09:31:27Z</time>
      </trkpt>
      <trkpt lat="45.52986" lon="5.24326">
        <ele>489.6</ele>
        <time>2023-08-29T09:31:28Z</time>
      </trkpt>
      <trkpt lat="45.52985" lon="5.24316">
        <ele>489.2</ele>
        <time>2023-08-29T09:31:29Z</time>
      </trkpt>
      <trkpt lat="45.52982" lon="5.24306">
        <ele>488.8</ele>
        <time>2023-08-29T09:31:30Z</time>
      </trkpt>
      <trkpt lat="45.52979" lon="5.24297">
        <ele>487.8</ele>
        <time>2023-08-29T09:31:31Z</time>
      </trkpt>
      <trkpt lat="45.52976" lon="5.24287">
        <ele>487.4</ele>
        <time>2023-08-29T09:31:32Z</time>
      </trkpt>
      <trkpt lat="45.52975" lon="5.24276">
        <ele>487</ele>
        <time>2023-08-29T09:31:33Z</time>
      </trkpt>
      <trkpt lat="45.52975" lon="5.24267">
        <ele>486.6</ele>
        <time>2023-08-29T09:31:34Z</time>
      </trkpt>
      <trkpt lat="45.52976" lon="5.24259">
        <ele>486.2</ele>
        <time>2023-08-29T09:31:35Z</time>
      </trkpt>
      <trkpt lat="45.52976" lon="5.24249">
        <ele>485.8</ele>
        <time>2023-08-29T09:31:36Z</time>
      </trkpt>
      <trkpt lat="45.52974" lon="5.24239">
        <ele>485</ele>
        <time>2023-08-29T09:31:37Z</time>
      </trkpt>
      <trkpt lat="45.52973" lon="5.24229">
        <ele>484.6</ele>
        <time>2023-08-29T09:31:38Z</time>
      </trkpt>
      <trkpt lat="45.52972" lon="5.24218">
        <ele>484.2</ele>
        <time>2023-08-29T09:31:39Z</time>
      </trkpt>
      <trkpt lat="45.52969" lon="5.24207">
        <ele>483.6</ele>
        <time>2023-08-29T09:31:40Z</time>
      </trkpt>
      <trkpt lat="45.52967" lon="5.24197">
        <ele>483.4</ele>
        <time>2023-08-29T09:31:41Z</time>
      </trkpt>
      <trkpt lat="45.52965" lon="5.24187">
        <ele>483.2</ele>
        <time>2023-08-29T09:31:42Z</time>
      </trkpt>
      <trkpt lat="45.52963" lon="5.24177">
        <ele>483</ele>
        <time>2023-08-29T09:31:43Z</time>
      </trkpt>
      <trkpt lat="45.52962" lon="5.24169">
        <ele>483</ele>
        <time>2023-08-29T09:31:44Z</time>
      </trkpt>
      <trkpt lat="45.5296" lon="5.2416">
        <ele>482.8</ele>
        <time>2023-08-29T09:31:45Z</time>
      </trkpt>
      <trkpt lat="45.52959" lon="5.24152">
        <ele>482.6</ele>
        <time>2023-08-29T09:31:46Z</time>
      </trkpt>
      <trkpt lat="45.52958" lon="5.24144">
        <ele>482</ele>
        <time>2023-08-29T09:31:47Z</time>
      </trkpt>
      <trkpt lat="45.52956" lon="5.24136">
        <ele>481.6</ele>
        <time>2023-08-29T09:31:48Z</time>
      </trkpt>
      <trkpt lat="45.52955" lon="5.24127">
        <ele>481</ele>
        <time>2023-08-29T09:31:49Z</time>
      </trkpt>
      <trkpt lat="45.52955" lon="5.24119">
        <ele>480.6</ele>
        <time>2023-08-29T09:31:50Z</time>
      </trkpt>
      <trkpt lat="45.52954" lon="5.2411">
        <ele>480.4</ele>
        <time>2023-08-29T09:31:51Z</time>
      </trkpt>
      <trkpt lat="45.52954" lon="5.24101">
        <ele>480.4</ele>
        <time>2023-08-29T09:31:52Z</time>
      </trkpt>
      <trkpt lat="45.52954" lon="5.24092">
        <ele>479.8</ele>
        <time>2023-08-29T09:31:53Z</time>
      </trkpt>
      <trkpt lat="45.52953" lon="5.24083">
        <ele>479.2</ele>
        <time>2023-08-29T09:31:54Z</time>
      </trkpt>
      <trkpt lat="45.52954" lon="5.24073">
        <ele>478.4</ele>
        <time>2023-08-29T09:31:55Z</time>
      </trkpt>
      <trkpt lat="45.52954" lon="5.24064">
        <ele>478.2</ele>
        <time>2023-08-29T09:31:56Z</time>
      </trkpt>
      <trkpt lat="45.52953" lon="5.24054">
        <ele>477.8</ele>
        <time>2023-08-29T09:31:57Z</time>
      </trkpt>
      <trkpt lat="45.52952" lon="5.24044">
        <ele>477.6</ele>
        <time>2023-08-29T09:31:58Z</time>
      </trkpt>
      <trkpt lat="45.52952" lon="5.24034">
        <ele>477.6</ele>
        <time>2023-08-29T09:31:59Z</time>
      </trkpt>
      <trkpt lat="45.52951" lon="5.24024">
        <ele>477.6</ele>
        <time>2023-08-29T09:32:00Z</time>
      </trkpt>
      <trkpt lat="45.52951" lon="5.24015">
        <ele>477.6</ele>
        <time>2023-08-29T09:32:01Z</time>
      </trkpt>
      <trkpt lat="45.5295" lon="5.24005">
        <ele>477.4</ele>
        <time>2023-08-29T09:32:02Z</time>
      </trkpt>
      <trkpt lat="45.52949" lon="5.23995">
        <ele>477.2</ele>
        <time>2023-08-29T09:32:03Z</time>
      </trkpt>
      <trkpt lat="45.52948" lon="5.23986">
        <ele>477</ele>
        <time>2023-08-29T09:32:04Z</time>
      </trkpt>
      <trkpt lat="45.52948" lon="5.23978">
        <ele>477</ele>
        <time>2023-08-29T09:32:05Z</time>
      </trkpt>
      <trkpt lat="45.52947" lon="5.2397">
        <ele>477</ele>
        <time>2023-08-29T09:32:06Z</time>
      </trkpt>
      <trkpt lat="45.52947" lon="5.23962">
        <ele>477</ele>
        <time>2023-08-29T09:32:07Z</time>
      </trkpt>
      <trkpt lat="45.52947" lon="5.23953">
        <ele>477</ele>
        <time>2023-08-29T09:32:08Z</time>
      </trkpt>
      <trkpt lat="45.52948" lon="5.23946">
        <ele>477</ele>
        <time>2023-08-29T09:32:09Z</time>
      </trkpt>
      <trkpt lat="45.52949" lon="5.23938">
        <ele>477.4</ele>
        <time>2023-08-29T09:32:10Z</time>
      </trkpt>
      <trkpt lat="45.52951" lon="5.23931">
        <ele>477.6</ele>
        <time>2023-08-29T09:32:11Z</time>
      </trkpt>
      <trkpt lat="45.52953" lon="5.23923">
        <ele>477.6</ele>
        <time>2023-08-29T09:32:12Z</time>
      </trkpt>
      <trkpt lat="45.52954" lon="5.23915">
        <ele>477.6</ele>
        <time>2023-08-29T09:32:13Z</time>
      </trkpt>
      <trkpt lat="45.52957" lon="5.23908">
        <ele>477.6</ele>
        <time>2023-08-29T09:32:14Z</time>
      </trkpt>
      <trkpt lat="45.52959" lon="5.23903">
        <ele>477.2</ele>
        <time>2023-08-29T09:32:15Z</time>
      </trkpt>
      <trkpt lat="45.52962" lon="5.23897">
        <ele>477</ele>
        <time>2023-08-29T09:32:16Z</time>
      </trkpt>
      <trkpt lat="45.52964" lon="5.23891">
        <ele>477</ele>
        <time>2023-08-29T09:32:17Z</time>
      </trkpt>
      <trkpt lat="45.52967" lon="5.23884">
        <ele>476.8</ele>
        <time>2023-08-29T09:32:18Z</time>
      </trkpt>
      <trkpt lat="45.5297" lon="5.23877">
        <ele>476.6</ele>
        <time>2023-08-29T09:32:19Z</time>
      </trkpt>
      <trkpt lat="45.52972" lon="5.23869">
        <ele>476.2</ele>
        <time>2023-08-29T09:32:20Z</time>
      </trkpt>
      <trkpt lat="45.52974" lon="5.23861">
        <ele>476.2</ele>
        <time>2023-08-29T09:32:21Z</time>
      </trkpt>
      <trkpt lat="45.52975" lon="5.23852">
        <ele>476</ele>
        <time>2023-08-29T09:32:22Z</time>
      </trkpt>
      <trkpt lat="45.52976" lon="5.23842">
        <ele>475.8</ele>
        <time>2023-08-29T09:32:23Z</time>
      </trkpt>
      <trkpt lat="45.52977" lon="5.23831">
        <ele>475</ele>
        <time>2023-08-29T09:32:24Z</time>
      </trkpt>
      <trkpt lat="45.52978" lon="5.23819">
        <ele>474.4</ele>
        <time>2023-08-29T09:32:25Z</time>
      </trkpt>
      <trkpt lat="45.5298" lon="5.23806">
        <ele>474.2</ele>
        <time>2023-08-29T09:32:26Z</time>
      </trkpt>
      <trkpt lat="45.52982" lon="5.23793">
        <ele>473</ele>
        <time>2023-08-29T09:32:27Z</time>
      </trkpt>
      <trkpt lat="45.52985" lon="5.23781">
        <ele>473</ele>
        <time>2023-08-29T09:32:28Z</time>
      </trkpt>
      <trkpt lat="45.52988" lon="5.23769">
        <ele>472.4</ele>
        <time>2023-08-29T09:32:29Z</time>
      </trkpt>
      <trkpt lat="45.52991" lon="5.23756">
        <ele>471.6</ele>
        <time>2023-08-29T09:32:30Z</time>
      </trkpt>
      <trkpt lat="45.52993" lon="5.23744">
        <ele>471</ele>
        <time>2023-08-29T09:32:31Z</time>
      </trkpt>
      <trkpt lat="45.52995" lon="5.23731">
        <ele>470.8</ele>
        <time>2023-08-29T09:32:32Z</time>
      </trkpt>
      <trkpt lat="45.52997" lon="5.23718">
        <ele>469.2</ele>
        <time>2023-08-29T09:32:33Z</time>
      </trkpt>
      <trkpt lat="45.53" lon="5.23705">
        <ele>468.6</ele>
        <time>2023-08-29T09:32:34Z</time>
      </trkpt>
      <trkpt lat="45.53001" lon="5.23694">
        <ele>467.4</ele>
        <time>2023-08-29T09:32:35Z</time>
      </trkpt>
      <trkpt lat="45.53003" lon="5.23681">
        <ele>467</ele>
        <time>2023-08-29T09:32:36Z</time>
      </trkpt>
      <trkpt lat="45.53004" lon="5.2367">
        <ele>466.4</ele>
        <time>2023-08-29T09:32:37Z</time>
      </trkpt>
      <trkpt lat="45.53004" lon="5.23658">
        <ele>466.2</ele>
        <time>2023-08-29T09:32:38Z</time>
      </trkpt>
      <trkpt lat="45.53003" lon="5.23647">
        <ele>466</ele>
        <time>2023-08-29T09:32:39Z</time>
      </trkpt>
      <trkpt lat="45.53001" lon="5.23637">
        <ele>466</ele>
        <time>2023-08-29T09:32:40Z</time>
      </trkpt>
      <trkpt lat="45.53" lon="5.23626">
        <ele>466</ele>
        <time>2023-08-29T09:32:41Z</time>
      </trkpt>
      <trkpt lat="45.52998" lon="5.23617">
        <ele>466.2</ele>
        <time>2023-08-29T09:32:42Z</time>
      </trkpt>
      <trkpt lat="45.52996" lon="5.23609">
        <ele>466.4</ele>
        <time>2023-08-29T09:32:43Z</time>
      </trkpt>
      <trkpt lat="45.52994" lon="5.23601">
        <ele>466.8</ele>
        <time>2023-08-29T09:32:44Z</time>
      </trkpt>
      <trkpt lat="45.52992" lon="5.23594">
        <ele>466.8</ele>
        <time>2023-08-29T09:32:45Z</time>
      </trkpt>
      <trkpt lat="45.5299" lon="5.23589">
        <ele>467.2</ele>
        <time>2023-08-29T09:32:46Z</time>
      </trkpt>
      <trkpt lat="45.52988" lon="5.23585">
        <ele>467.8</ele>
        <time>2023-08-29T09:32:47Z</time>
      </trkpt>
      <trkpt lat="45.52986" lon="5.2358">
        <ele>468.4</ele>
        <time>2023-08-29T09:32:48Z</time>
      </trkpt>
      <trkpt lat="45.52984" lon="5.23575">
        <ele>469.2</ele>
        <time>2023-08-29T09:32:49Z</time>
      </trkpt>
      <trkpt lat="45.52982" lon="5.23572">
        <ele>469.6</ele>
        <time>2023-08-29T09:32:50Z</time>
      </trkpt>
      <trkpt lat="45.5298" lon="5.23568">
        <ele>470.2</ele>
        <time>2023-08-29T09:32:51Z</time>
      </trkpt>
      <trkpt lat="45.52978" lon="5.23564">
        <ele>470.4</ele>
        <time>2023-08-29T09:32:52Z</time>
      </trkpt>
      <trkpt lat="45.52976" lon="5.23559">
        <ele>470.8</ele>
        <time>2023-08-29T09:32:53Z</time>
      </trkpt>
      <trkpt lat="45.52975" lon="5.23554">
        <ele>471.2</ele>
        <time>2023-08-29T09:32:54Z</time>
      </trkpt>
      <trkpt lat="45.52974" lon="5.23548">
        <ele>471.2</ele>
        <time>2023-08-29T09:32:55Z</time>
      </trkpt>
      <trkpt lat="45.52974" lon="5.23542">
        <ele>471.2</ele>
        <time>2023-08-29T09:32:56Z</time>
      </trkpt>
      <trkpt lat="45.52973" lon="5.23535">
        <ele>471.2</ele>
        <time>2023-08-29T09:32:57Z</time>
      </trkpt>
      <trkpt lat="45.52972" lon="5.23528">
        <ele>471.2</ele>
        <time>2023-08-29T09:32:58Z</time>
      </trkpt>
      <trkpt lat="45.52971" lon="5.23521">
        <ele>471</ele>
        <time>2023-08-29T09:32:59Z</time>
      </trkpt>
      <trkpt lat="45.52971" lon="5.23516">
        <ele>471</ele>
        <time>2023-08-29T09:33:00Z</time>
      </trkpt>
      <trkpt lat="45.52971" lon="5.23509">
        <ele>471</ele>
        <time>2023-08-29T09:33:01Z</time>
      </trkpt>
      <trkpt lat="45.52972" lon="5.23501">
        <ele>470.6</ele>
        <time>2023-08-29T09:33:02Z</time>
      </trkpt>
      <trkpt lat="45.52972" lon="5.23494">
        <ele>470.2</ele>
        <time>2023-08-29T09:33:03Z</time>
      </trkpt>
      <trkpt lat="45.52972" lon="5.23486">
        <ele>470.2</ele>
        <time>2023-08-29T09:33:04Z</time>
      </trkpt>
      <trkpt lat="45.52973" lon="5.23478">
        <ele>470.2</ele>
        <time>2023-08-29T09:33:05Z</time>
      </trkpt>
      <trkpt lat="45.52974" lon="5.2347">
        <ele>469.6</ele>
        <time>2023-08-29T09:33:06Z</time>
      </trkpt>
      <trkpt lat="45.52977" lon="5.23462">
        <ele>469.4</ele>
        <time>2023-08-29T09:33:07Z</time>
      </trkpt>
      <trkpt lat="45.5298" lon="5.23455">
        <ele>469.2</ele>
        <time>2023-08-29T09:33:08Z</time>
      </trkpt>
      <trkpt lat="45.52984" lon="5.2345">
        <ele>468.8</ele>
        <time>2023-08-29T09:33:09Z</time>
      </trkpt>
      <trkpt lat="45.52989" lon="5.23446">
        <ele>468.4</ele>
        <time>2023-08-29T09:33:10Z</time>
      </trkpt>
      <trkpt lat="45.52994" lon="5.23442">
        <ele>468.2</ele>
        <time>2023-08-29T09:33:11Z</time>
      </trkpt>
      <trkpt lat="45.52999" lon="5.23439">
        <ele>467.6</ele>
        <time>2023-08-29T09:33:12Z</time>
      </trkpt>
      <trkpt lat="45.53004" lon="5.23436">
        <ele>467.6</ele>
        <time>2023-08-29T09:33:13Z</time>
      </trkpt>
      <trkpt lat="45.53009" lon="5.23432">
        <ele>467.4</ele>
        <time>2023-08-29T09:33:14Z</time>
      </trkpt>
      <trkpt lat="45.53015" lon="5.23428">
        <ele>467.2</ele>
        <time>2023-08-29T09:33:15Z</time>
      </trkpt>
      <trkpt lat="45.53019" lon="5.23424">
        <ele>467</ele>
        <time>2023-08-29T09:33:16Z</time>
      </trkpt>
      <trkpt lat="45.53024" lon="5.2342">
        <ele>466.8</ele>
        <time>2023-08-29T09:33:17Z</time>
      </trkpt>
      <trkpt lat="45.53028" lon="5.23417">
        <ele>466.8</ele>
        <time>2023-08-29T09:33:18Z</time>
      </trkpt>
      <trkpt lat="45.53032" lon="5.23414">
        <ele>466.8</ele>
        <time>2023-08-29T09:33:19Z</time>
      </trkpt>
      <trkpt lat="45.53036" lon="5.23411">
        <ele>466.6</ele>
        <time>2023-08-29T09:33:20Z</time>
      </trkpt>
      <trkpt lat="45.53041" lon="5.23409">
        <ele>466.2</ele>
        <time>2023-08-29T09:33:21Z</time>
      </trkpt>
      <trkpt lat="45.53044" lon="5.23406">
        <ele>465.6</ele>
        <time>2023-08-29T09:33:22Z</time>
      </trkpt>
      <trkpt lat="45.53047" lon="5.23404">
        <ele>465.2</ele>
        <time>2023-08-29T09:33:23Z</time>
      </trkpt>
      <trkpt lat="45.53051" lon="5.23403">
        <ele>464.8</ele>
        <time>2023-08-29T09:33:24Z</time>
      </trkpt>
      <trkpt lat="45.53054" lon="5.234">
        <ele>464.6</ele>
        <time>2023-08-29T09:33:25Z</time>
      </trkpt>
      <trkpt lat="45.53058" lon="5.23397">
        <ele>464.6</ele>
        <time>2023-08-29T09:33:26Z</time>
      </trkpt>
      <trkpt lat="45.53061" lon="5.23391">
        <ele>464.6</ele>
        <time>2023-08-29T09:33:27Z</time>
      </trkpt>
      <trkpt lat="45.53064" lon="5.23385">
        <ele>464.4</ele>
        <time>2023-08-29T09:33:28Z</time>
      </trkpt>
      <trkpt lat="45.53065" lon="5.23377">
        <ele>464</ele>
        <time>2023-08-29T09:33:29Z</time>
      </trkpt>
      <trkpt lat="45.53067" lon="5.23369">
        <ele>464</ele>
        <time>2023-08-29T09:33:30Z</time>
      </trkpt>
      <trkpt lat="45.53069" lon="5.23361">
        <ele>463.2</ele>
        <time>2023-08-29T09:33:31Z</time>
      </trkpt>
      <trkpt lat="45.53071" lon="5.23353">
        <ele>462.4</ele>
        <time>2023-08-29T09:33:32Z</time>
      </trkpt>
      <trkpt lat="45.53073" lon="5.23345">
        <ele>461.8</ele>
        <time>2023-08-29T09:33:33Z</time>
      </trkpt>
      <trkpt lat="45.53075" lon="5.23336">
        <ele>460.8</ele>
        <time>2023-08-29T09:33:34Z</time>
      </trkpt>
      <trkpt lat="45.53077" lon="5.23326">
        <ele>460.8</ele>
        <time>2023-08-29T09:33:35Z</time>
      </trkpt>
      <trkpt lat="45.5308" lon="5.23317">
        <ele>460.2</ele>
        <time>2023-08-29T09:33:36Z</time>
      </trkpt>
      <trkpt lat="45.53082" lon="5.23307">
        <ele>458.6</ele>
        <time>2023-08-29T09:33:37Z</time>
      </trkpt>
      <trkpt lat="45.53085" lon="5.23297">
        <ele>458.4</ele>
        <time>2023-08-29T09:33:38Z</time>
      </trkpt>
      <trkpt lat="45.53088" lon="5.23288">
        <ele>457.8</ele>
        <time>2023-08-29T09:33:39Z</time>
      </trkpt>
      <trkpt lat="45.53092" lon="5.23279">
        <ele>457.8</ele>
        <time>2023-08-29T09:33:40Z</time>
      </trkpt>
      <trkpt lat="45.53096" lon="5.23271">
        <ele>457.8</ele>
        <time>2023-08-29T09:33:41Z</time>
      </trkpt>
      <trkpt lat="45.531" lon="5.23263">
        <ele>457.8</ele>
        <time>2023-08-29T09:33:42Z</time>
      </trkpt>
      <trkpt lat="45.53103" lon="5.23254">
        <ele>457.6</ele>
        <time>2023-08-29T09:33:43Z</time>
      </trkpt>
      <trkpt lat="45.53106" lon="5.23245">
        <ele>457.6</ele>
        <time>2023-08-29T09:33:44Z</time>
      </trkpt>
      <trkpt lat="45.53109" lon="5.23235">
        <ele>457.6</ele>
        <time>2023-08-29T09:33:45Z</time>
      </trkpt>
      <trkpt lat="45.53111" lon="5.23226">
        <ele>457.6</ele>
        <time>2023-08-29T09:33:46Z</time>
      </trkpt>
      <trkpt lat="45.53112" lon="5.23217">
        <ele>457.6</ele>
        <time>2023-08-29T09:33:47Z</time>
      </trkpt>
      <trkpt lat="45.53112" lon="5.23208">
        <ele>457.6</ele>
        <time>2023-08-29T09:33:48Z</time>
      </trkpt>
      <trkpt lat="45.53113" lon="5.23199">
        <ele>457.6</ele>
        <time>2023-08-29T09:33:49Z</time>
      </trkpt>
      <trkpt lat="45.53112" lon="5.2319">
        <ele>457.8</ele>
        <time>2023-08-29T09:33:50Z</time>
      </trkpt>
      <trkpt lat="45.53112" lon="5.23182">
        <ele>457.8</ele>
        <time>2023-08-29T09:33:51Z</time>
      </trkpt>
      <trkpt lat="45.53112" lon="5.23175">
        <ele>458</ele>
        <time>2023-08-29T09:33:52Z</time>
      </trkpt>
      <trkpt lat="45.53112" lon="5.23168">
        <ele>458</ele>
        <time>2023-08-29T09:33:53Z</time>
      </trkpt>
      <trkpt lat="45.53113" lon="5.23161">
        <ele>458</ele>
        <time>2023-08-29T09:33:54Z</time>
      </trkpt>
      <trkpt lat="45.53116" lon="5.23152">
        <ele>458.2</ele>
        <time>2023-08-29T09:33:55Z</time>
      </trkpt>
      <trkpt lat="45.53118" lon="5.23145">
        <ele>458.2</ele>
        <time>2023-08-29T09:33:56Z</time>
      </trkpt>
      <trkpt lat="45.5312" lon="5.23137">
        <ele>458.6</ele>
        <time>2023-08-29T09:33:57Z</time>
      </trkpt>
      <trkpt lat="45.53122" lon="5.23131">
        <ele>459</ele>
        <time>2023-08-29T09:33:58Z</time>
      </trkpt>
      <trkpt lat="45.53125" lon="5.23126">
        <ele>459</ele>
        <time>2023-08-29T09:33:59Z</time>
      </trkpt>
      <trkpt lat="45.53128" lon="5.2312">
        <ele>459.2</ele>
        <time>2023-08-29T09:34:00Z</time>
      </trkpt>
      <trkpt lat="45.53131" lon="5.23114">
        <ele>459.4</ele>
        <time>2023-08-29T09:34:01Z</time>
      </trkpt>
      <trkpt lat="45.53134" lon="5.23109">
        <ele>459.4</ele>
        <time>2023-08-29T09:34:02Z</time>
      </trkpt>
      <trkpt lat="45.53136" lon="5.23105">
        <ele>459.4</ele>
        <time>2023-08-29T09:34:03Z</time>
      </trkpt>
      <trkpt lat="45.53138" lon="5.231">
        <ele>459.4</ele>
        <time>2023-08-29T09:34:04Z</time>
      </trkpt>
      <trkpt lat="45.53141" lon="5.23096">
        <ele>459.4</ele>
        <time>2023-08-29T09:34:05Z</time>
      </trkpt>
      <trkpt lat="45.53144" lon="5.23092">
        <ele>459.4</ele>
        <time>2023-08-29T09:34:06Z</time>
      </trkpt>
      <trkpt lat="45.53147" lon="5.23087">
        <ele>459.4</ele>
        <time>2023-08-29T09:34:07Z</time>
      </trkpt>
      <trkpt lat="45.5315" lon="5.23081">
        <ele>459.4</ele>
        <time>2023-08-29T09:34:08Z</time>
      </trkpt>
      <trkpt lat="45.53153" lon="5.23075">
        <ele>459.2</ele>
        <time>2023-08-29T09:34:09Z</time>
      </trkpt>
      <trkpt lat="45.53156" lon="5.23069">
        <ele>459.2</ele>
        <time>2023-08-29T09:34:10Z</time>
      </trkpt>
      <trkpt lat="45.53158" lon="5.23063">
        <ele>459.2</ele>
        <time>2023-08-29T09:34:11Z</time>
      </trkpt>
      <trkpt lat="45.53161" lon="5.23057">
        <ele>459.2</ele>
        <time>2023-08-29T09:34:12Z</time>
      </trkpt>
      <trkpt lat="45.53163" lon="5.23051">
        <ele>459.2</ele>
        <time>2023-08-29T09:34:13Z</time>
      </trkpt>
      <trkpt lat="45.53165" lon="5.23044">
        <ele>459.4</ele>
        <time>2023-08-29T09:34:14Z</time>
      </trkpt>
      <trkpt lat="45.53167" lon="5.23037">
        <ele>459.4</ele>
        <time>2023-08-29T09:34:15Z</time>
      </trkpt>
      <trkpt lat="45.53168" lon="5.23031">
        <ele>459.4</ele>
        <time>2023-08-29T09:34:16Z</time>
      </trkpt>
      <trkpt lat="45.53169" lon="5.23024">
        <ele>459.4</ele>
        <time>2023-08-29T09:34:17Z</time>
      </trkpt>
      <trkpt lat="45.53171" lon="5.23018">
        <ele>459.4</ele>
        <time>2023-08-29T09:34:18Z</time>
      </trkpt>
      <trkpt lat="45.53172" lon="5.23013">
        <ele>459.4</ele>
        <time>2023-08-29T09:34:19Z</time>
      </trkpt>
      <trkpt lat="45.53174" lon="5.23007">
        <ele>459.4</ele>
        <time>2023-08-29T09:34:20Z</time>
      </trkpt>
      <trkpt lat="45.53175" lon="5.23">
        <ele>459.4</ele>
        <time>2023-08-29T09:34:21Z</time>
      </trkpt>
      <trkpt lat="45.53176" lon="5.22992">
        <ele>459.6</ele>
        <time>2023-08-29T09:34:22Z</time>
      </trkpt>
      <trkpt lat="45.53177" lon="5.22985">
        <ele>459.6</ele>
        <time>2023-08-29T09:34:23Z</time>
      </trkpt>
      <trkpt lat="45.53178" lon="5.22978">
        <ele>459.6</ele>
        <time>2023-08-29T09:34:24Z</time>
      </trkpt>
      <trkpt lat="45.53178" lon="5.22971">
        <ele>459.6</ele>
        <time>2023-08-29T09:34:25Z</time>
      </trkpt>
      <trkpt lat="45.53178" lon="5.22964">
        <ele>459.6</ele>
        <time>2023-08-29T09:34:26Z</time>
      </trkpt>
      <trkpt lat="45.53179" lon="5.22957">
        <ele>459.6</ele>
        <time>2023-08-29T09:34:27Z</time>
      </trkpt>
      <trkpt lat="45.53179" lon="5.22951">
        <ele>459.4</ele>
        <time>2023-08-29T09:34:28Z</time>
      </trkpt>
      <trkpt lat="45.5318" lon="5.22944">
        <ele>459.4</ele>
        <time>2023-08-29T09:34:29Z</time>
      </trkpt>
      <trkpt lat="45.5318" lon="5.22937">
        <ele>459.4</ele>
        <time>2023-08-29T09:34:30Z</time>
      </trkpt>
      <trkpt lat="45.5318" lon="5.22931">
        <ele>459.4</ele>
        <time>2023-08-29T09:34:31Z</time>
      </trkpt>
      <trkpt lat="45.5318" lon="5.22924">
        <ele>459.4</ele>
        <time>2023-08-29T09:34:32Z</time>
      </trkpt>
      <trkpt lat="45.53179" lon="5.22917">
        <ele>459.4</ele>
        <time>2023-08-29T09:34:33Z</time>
      </trkpt>
      <trkpt lat="45.53179" lon="5.22911">
        <ele>459.4</ele>
        <time>2023-08-29T09:34:34Z</time>
      </trkpt>
      <trkpt lat="45.53179" lon="5.22905">
        <ele>459.6</ele>
        <time>2023-08-29T09:34:35Z</time>
      </trkpt>
      <trkpt lat="45.53179" lon="5.22898">
        <ele>459.6</ele>
        <time>2023-08-29T09:34:36Z</time>
      </trkpt>
      <trkpt lat="45.53178" lon="5.22892">
        <ele>459.8</ele>
        <time>2023-08-29T09:34:37Z</time>
      </trkpt>
      <trkpt lat="45.53178" lon="5.22886">
        <ele>459.8</ele>
        <time>2023-08-29T09:34:38Z</time>
      </trkpt>
      <trkpt lat="45.53177" lon="5.22879">
        <ele>460</ele>
        <time>2023-08-29T09:34:39Z</time>
      </trkpt>
      <trkpt lat="45.53177" lon="5.22874">
        <ele>460</ele>
        <time>2023-08-29T09:34:40Z</time>
      </trkpt>
      <trkpt lat="45.53177" lon="5.22867">
        <ele>460</ele>
        <time>2023-08-29T09:34:41Z</time>
      </trkpt>
      <trkpt lat="45.53176" lon="5.22861">
        <ele>460</ele>
        <time>2023-08-29T09:34:42Z</time>
      </trkpt>
      <trkpt lat="45.53176" lon="5.22855">
        <ele>460</ele>
        <time>2023-08-29T09:34:43Z</time>
      </trkpt>
      <trkpt lat="45.53176" lon="5.22848">
        <ele>460.4</ele>
        <time>2023-08-29T09:34:44Z</time>
      </trkpt>
      <trkpt lat="45.53175" lon="5.22842">
        <ele>460.4</ele>
        <time>2023-08-29T09:34:45Z</time>
      </trkpt>
      <trkpt lat="45.53175" lon="5.22836">
        <ele>460.4</ele>
        <time>2023-08-29T09:34:46Z</time>
      </trkpt>
      <trkpt lat="45.53174" lon="5.2283">
        <ele>460.4</ele>
        <time>2023-08-29T09:34:47Z</time>
      </trkpt>
      <trkpt lat="45.53174" lon="5.22825">
        <ele>460.6</ele>
        <time>2023-08-29T09:34:48Z</time>
      </trkpt>
      <trkpt lat="45.53173" lon="5.22818">
        <ele>460.6</ele>
        <time>2023-08-29T09:34:49Z</time>
      </trkpt>
      <trkpt lat="45.53172" lon="5.22813">
        <ele>461</ele>
        <time>2023-08-29T09:34:50Z</time>
      </trkpt>
      <trkpt lat="45.53171" lon="5.22807">
        <ele>461.2</ele>
        <time>2023-08-29T09:34:51Z</time>
      </trkpt>
      <trkpt lat="45.5317" lon="5.22801">
        <ele>461.4</ele>
        <time>2023-08-29T09:34:52Z</time>
      </trkpt>
      <trkpt lat="45.5317" lon="5.22795">
        <ele>461.6</ele>
        <time>2023-08-29T09:34:53Z</time>
      </trkpt>
      <trkpt lat="45.53169" lon="5.22788">
        <ele>461.8</ele>
        <time>2023-08-29T09:34:54Z</time>
      </trkpt>
      <trkpt lat="45.53168" lon="5.22782">
        <ele>461.8</ele>
        <time>2023-08-29T09:34:55Z</time>
      </trkpt>
      <trkpt lat="45.53168" lon="5.22778">
        <ele>462</ele>
        <time>2023-08-29T09:34:56Z</time>
      </trkpt>
      <trkpt lat="45.53168" lon="5.22774">
        <ele>462.4</ele>
        <time>2023-08-29T09:34:57Z</time>
      </trkpt>
      <trkpt lat="45.53167" lon="5.22769">
        <ele>462.6</ele>
        <time>2023-08-29T09:34:58Z</time>
      </trkpt>
      <trkpt lat="45.53167" lon="5.22764">
        <ele>462.8</ele>
        <time>2023-08-29T09:34:59Z</time>
      </trkpt>
      <trkpt lat="45.53166" lon="5.22759">
        <ele>463.2</ele>
        <time>2023-08-29T09:35:00Z</time>
      </trkpt>
      <trkpt lat="45.53166" lon="5.22754">
        <ele>463.6</ele>
        <time>2023-08-29T09:35:01Z</time>
      </trkpt>
      <trkpt lat="45.53165" lon="5.2275">
        <ele>463.8</ele>
        <time>2023-08-29T09:35:02Z</time>
      </trkpt>
      <trkpt lat="45.53165" lon="5.22746">
        <ele>464</ele>
        <time>2023-08-29T09:35:03Z</time>
      </trkpt>
      <trkpt lat="45.53165" lon="5.22741">
        <ele>464.4</ele>
        <time>2023-08-29T09:35:04Z</time>
      </trkpt>
      <trkpt lat="45.53165" lon="5.22738">
        <ele>464.8</ele>
        <time>2023-08-29T09:35:05Z</time>
      </trkpt>
      <trkpt lat="45.53164" lon="5.22734">
        <ele>465.2</ele>
        <time>2023-08-29T09:35:06Z</time>
      </trkpt>
      <trkpt lat="45.53163" lon="5.2273">
        <ele>465.6</ele>
        <time>2023-08-29T09:35:07Z</time>
      </trkpt>
      <trkpt lat="45.53163" lon="5.22726">
        <ele>466</ele>
        <time>2023-08-29T09:35:08Z</time>
      </trkpt>
      <trkpt lat="45.53163" lon="5.22721">
        <ele>466.2</ele>
        <time>2023-08-29T09:35:09Z</time>
      </trkpt>
      <trkpt lat="45.53163" lon="5.22717">
        <ele>466.4</ele>
        <time>2023-08-29T09:35:10Z</time>
      </trkpt>
      <trkpt lat="45.53163" lon="5.22712">
        <ele>466.8</ele>
        <time>2023-08-29T09:35:11Z</time>
      </trkpt>
      <trkpt lat="45.53163" lon="5.22707">
        <ele>467</ele>
        <time>2023-08-29T09:35:12Z</time>
      </trkpt>
      <trkpt lat="45.53163" lon="5.22703">
        <ele>467</ele>
        <time>2023-08-29T09:35:13Z</time>
      </trkpt>
      <trkpt lat="45.53163" lon="5.22698">
        <ele>467.4</ele>
        <time>2023-08-29T09:35:14Z</time>
      </trkpt>
      <trkpt lat="45.53163" lon="5.22694">
        <ele>467.4</ele>
        <time>2023-08-29T09:35:15Z</time>
      </trkpt>
      <trkpt lat="45.53164" lon="5.22689">
        <ele>467.6</ele>
        <time>2023-08-29T09:35:16Z</time>
      </trkpt>
      <trkpt lat="45.53165" lon="5.22683">
        <ele>467.6</ele>
        <time>2023-08-29T09:35:17Z</time>
      </trkpt>
      <trkpt lat="45.53165" lon="5.22678">
        <ele>468</ele>
        <time>2023-08-29T09:35:18Z</time>
      </trkpt>
      <trkpt lat="45.53166" lon="5.22673">
        <ele>468.2</ele>
        <time>2023-08-29T09:35:19Z</time>
      </trkpt>
      <trkpt lat="45.53167" lon="5.22669">
        <ele>468.4</ele>
        <time>2023-08-29T09:35:20Z</time>
      </trkpt>
      <trkpt lat="45.53168" lon="5.22664">
        <ele>468.6</ele>
        <time>2023-08-29T09:35:21Z</time>
      </trkpt>
      <trkpt lat="45.53169" lon="5.2266">
        <ele>468.8</ele>
        <time>2023-08-29T09:35:22Z</time>
      </trkpt>
      <trkpt lat="45.5317" lon="5.22655">
        <ele>468.8</ele>
        <time>2023-08-29T09:35:23Z</time>
      </trkpt>
      <trkpt lat="45.5317" lon="5.2265">
        <ele>468.8</ele>
        <time>2023-08-29T09:35:24Z</time>
      </trkpt>
      <trkpt lat="45.53169" lon="5.22644">
        <ele>468.8</ele>
        <time>2023-08-29T09:35:25Z</time>
      </trkpt>
      <trkpt lat="45.53168" lon="5.22639">
        <ele>468.6</ele>
        <time>2023-08-29T09:35:26Z</time>
      </trkpt>
      <trkpt lat="45.53167" lon="5.22634">
        <ele>468.6</ele>
        <time>2023-08-29T09:35:27Z</time>
      </trkpt>
      <trkpt lat="45.53167" lon="5.22629">
        <ele>468.6</ele>
        <time>2023-08-29T09:35:28Z</time>
      </trkpt>
      <trkpt lat="45.53166" lon="5.22625">
        <ele>468.6</ele>
        <time>2023-08-29T09:35:29Z</time>
      </trkpt>
      <trkpt lat="45.53165" lon="5.22621">
        <ele>468.6</ele>
        <time>2023-08-29T09:35:30Z</time>
      </trkpt>
      <trkpt lat="45.53164" lon="5.22616">
        <ele>468.6</ele>
        <time>2023-08-29T09:35:31Z</time>
      </trkpt>
      <trkpt lat="45.53163" lon="5.22611">
        <ele>468.8</ele>
        <time>2023-08-29T09:35:32Z</time>
      </trkpt>
      <trkpt lat="45.53162" lon="5.22606">
        <ele>468.8</ele>
        <time>2023-08-29T09:35:33Z</time>
      </trkpt>
      <trkpt lat="45.5316" lon="5.22601">
        <ele>468.8</ele>
        <time>2023-08-29T09:35:34Z</time>
      </trkpt>
      <trkpt lat="45.53159" lon="5.22596">
        <ele>469</ele>
        <time>2023-08-29T09:35:35Z</time>
      </trkpt>
      <trkpt lat="45.53158" lon="5.22591">
        <ele>469</ele>
        <time>2023-08-29T09:35:36Z</time>
      </trkpt>
      <trkpt lat="45.53157" lon="5.22586">
        <ele>468.8</ele>
        <time>2023-08-29T09:35:37Z</time>
      </trkpt>
      <trkpt lat="45.53157" lon="5.22581">
        <ele>468.8</ele>
        <time>2023-08-29T09:35:38Z</time>
      </trkpt>
      <trkpt lat="45.53156" lon="5.22576">
        <ele>468.8</ele>
        <time>2023-08-29T09:35:39Z</time>
      </trkpt>
      <trkpt lat="45.53155" lon="5.22572">
        <ele>468.8</ele>
        <time>2023-08-29T09:35:40Z</time>
      </trkpt>
      <trkpt lat="45.53154" lon="5.22566">
        <ele>468.8</ele>
        <time>2023-08-29T09:35:41Z</time>
      </trkpt>
      <trkpt lat="45.53152" lon="5.22559">
        <ele>468.6</ele>
        <time>2023-08-29T09:35:42Z</time>
      </trkpt>
      <trkpt lat="45.5315" lon="5.22552">
        <ele>468.4</ele>
        <time>2023-08-29T09:35:43Z</time>
      </trkpt>
      <trkpt lat="45.53149" lon="5.22544">
        <ele>468</ele>
        <time>2023-08-29T09:35:44Z</time>
      </trkpt>
      <trkpt lat="45.53146" lon="5.22536">
        <ele>467.2</ele>
        <time>2023-08-29T09:35:45Z</time>
      </trkpt>
      <trkpt lat="45.53144" lon="5.22526">
        <ele>466.8</ele>
        <time>2023-08-29T09:35:46Z</time>
      </trkpt>
      <trkpt lat="45.53143" lon="5.22517">
        <ele>466</ele>
        <time>2023-08-29T09:35:47Z</time>
      </trkpt>
      <trkpt lat="45.53141" lon="5.22506">
        <ele>466</ele>
        <time>2023-08-29T09:35:48Z</time>
      </trkpt>
      <trkpt lat="45.53141" lon="5.22496">
        <ele>465.4</ele>
        <time>2023-08-29T09:35:49Z</time>
      </trkpt>
      <trkpt lat="45.53141" lon="5.22487">
        <ele>464.8</ele>
        <time>2023-08-29T09:35:50Z</time>
      </trkpt>
      <trkpt lat="45.53142" lon="5.22477">
        <ele>464.4</ele>
        <time>2023-08-29T09:35:51Z</time>
      </trkpt>
      <trkpt lat="45.53144" lon="5.22468">
        <ele>464.4</ele>
        <time>2023-08-29T09:35:52Z</time>
      </trkpt>
      <trkpt lat="45.53146" lon="5.2246">
        <ele>464.2</ele>
        <time>2023-08-29T09:35:53Z</time>
      </trkpt>
      <trkpt lat="45.53148" lon="5.22453">
        <ele>463.6</ele>
        <time>2023-08-29T09:35:54Z</time>
      </trkpt>
      <trkpt lat="45.53151" lon="5.22446">
        <ele>463.4</ele>
        <time>2023-08-29T09:35:55Z</time>
      </trkpt>
      <trkpt lat="45.53154" lon="5.22439">
        <ele>463.4</ele>
        <time>2023-08-29T09:35:56Z</time>
      </trkpt>
      <trkpt lat="45.53156" lon="5.22431">
        <ele>463.4</ele>
        <time>2023-08-29T09:35:57Z</time>
      </trkpt>
      <trkpt lat="45.53158" lon="5.22424">
        <ele>463.6</ele>
        <time>2023-08-29T09:35:58Z</time>
      </trkpt>
      <trkpt lat="45.53161" lon="5.22417">
        <ele>463.8</ele>
        <time>2023-08-29T09:35:59Z</time>
      </trkpt>
      <trkpt lat="45.53163" lon="5.22409">
        <ele>463.8</ele>
        <time>2023-08-29T09:36:00Z</time>
      </trkpt>
      <trkpt lat="45.53164" lon="5.22402">
        <ele>464</ele>
        <time>2023-08-29T09:36:01Z</time>
      </trkpt>
      <trkpt lat="45.53166" lon="5.22395">
        <ele>464</ele>
        <time>2023-08-29T09:36:02Z</time>
      </trkpt>
      <trkpt lat="45.53168" lon="5.22387">
        <ele>464</ele>
        <time>2023-08-29T09:36:03Z</time>
      </trkpt>
      <trkpt lat="45.53169" lon="5.2238">
        <ele>464.4</ele>
        <time>2023-08-29T09:36:04Z</time>
      </trkpt>
      <trkpt lat="45.5317" lon="5.22373">
        <ele>464.4</ele>
        <time>2023-08-29T09:36:05Z</time>
      </trkpt>
      <trkpt lat="45.53171" lon="5.22367">
        <ele>464.6</ele>
        <time>2023-08-29T09:36:06Z</time>
      </trkpt>
      <trkpt lat="45.53172" lon="5.22361">
        <ele>464.6</ele>
        <time>2023-08-29T09:36:07Z</time>
      </trkpt>
      <trkpt lat="45.53173" lon="5.22356">
        <ele>464.6</ele>
        <time>2023-08-29T09:36:08Z</time>
      </trkpt>
      <trkpt lat="45.53174" lon="5.2235">
        <ele>464.6</ele>
        <time>2023-08-29T09:36:09Z</time>
      </trkpt>
      <trkpt lat="45.53174" lon="5.22344">
        <ele>464.8</ele>
        <time>2023-08-29T09:36:10Z</time>
      </trkpt>
      <trkpt lat="45.53175" lon="5.22338">
        <ele>465</ele>
        <time>2023-08-29T09:36:11Z</time>
      </trkpt>
      <trkpt lat="45.53176" lon="5.22331">
        <ele>465</ele>
        <time>2023-08-29T09:36:12Z</time>
      </trkpt>
      <trkpt lat="45.53176" lon="5.22325">
        <ele>465.4</ele>
        <time>2023-08-29T09:36:13Z</time>
      </trkpt>
      <trkpt lat="45.53177" lon="5.22318">
        <ele>465.4</ele>
        <time>2023-08-29T09:36:14Z</time>
      </trkpt>
      <trkpt lat="45.53177" lon="5.22311">
        <ele>465.4</ele>
        <time>2023-08-29T09:36:15Z</time>
      </trkpt>
      <trkpt lat="45.53177" lon="5.22304">
        <ele>465.4</ele>
        <time>2023-08-29T09:36:16Z</time>
      </trkpt>
      <trkpt lat="45.53178" lon="5.22296">
        <ele>465.6</ele>
        <time>2023-08-29T09:36:17Z</time>
      </trkpt>
      <trkpt lat="45.5318" lon="5.22289">
        <ele>465.4</ele>
        <time>2023-08-29T09:36:18Z</time>
      </trkpt>
      <trkpt lat="45.53181" lon="5.22282">
        <ele>465</ele>
        <time>2023-08-29T09:36:19Z</time>
      </trkpt>
      <trkpt lat="45.53182" lon="5.22275">
        <ele>464.6</ele>
        <time>2023-08-29T09:36:20Z</time>
      </trkpt>
      <trkpt lat="45.53184" lon="5.22267">
        <ele>464.4</ele>
        <time>2023-08-29T09:36:21Z</time>
      </trkpt>
      <trkpt lat="45.53185" lon="5.22259">
        <ele>464.2</ele>
        <time>2023-08-29T09:36:22Z</time>
      </trkpt>
      <trkpt lat="45.53187" lon="5.22252">
        <ele>463.6</ele>
        <time>2023-08-29T09:36:23Z</time>
      </trkpt>
      <trkpt lat="45.53188" lon="5.22246">
        <ele>463</ele>
        <time>2023-08-29T09:36:24Z</time>
      </trkpt>
      <trkpt lat="45.53189" lon="5.2224">
        <ele>462.8</ele>
        <time>2023-08-29T09:36:25Z</time>
      </trkpt>
      <trkpt lat="45.53189" lon="5.22233">
        <ele>462.4</ele>
        <time>2023-08-29T09:36:26Z</time>
      </trkpt>
      <trkpt lat="45.5319" lon="5.22225">
        <ele>462.2</ele>
        <time>2023-08-29T09:36:27Z</time>
      </trkpt>
      <trkpt lat="45.53191" lon="5.22219">
        <ele>461.8</ele>
        <time>2023-08-29T09:36:28Z</time>
      </trkpt>
      <trkpt lat="45.53191" lon="5.22214">
        <ele>461.4</ele>
        <time>2023-08-29T09:36:29Z</time>
      </trkpt>
      <trkpt lat="45.53192" lon="5.22209">
        <ele>461.2</ele>
        <time>2023-08-29T09:36:30Z</time>
      </trkpt>
      <trkpt lat="45.53192" lon="5.22205">
        <ele>461</ele>
        <time>2023-08-29T09:36:31Z</time>
      </trkpt>
      <trkpt lat="45.53192" lon="5.22202">
        <ele>460.8</ele>
        <time>2023-08-29T09:36:32Z</time>
      </trkpt>
      <trkpt lat="45.53192" lon="5.22199">
        <ele>460.8</ele>
        <time>2023-08-29T09:36:33Z</time>
      </trkpt>
      <trkpt lat="45.53193" lon="5.22197">
        <ele>460.8</ele>
        <time>2023-08-29T09:36:34Z</time>
      </trkpt>
      <trkpt lat="45.53193" lon="5.22195">
        <ele>460.8</ele>
        <time>2023-08-29T09:36:35Z</time>
      </trkpt>
      <trkpt lat="45.53193" lon="5.22195">
        <ele>460.8</ele>
        <time>2023-08-29T09:36:36Z</time>
      </trkpt>
      <trkpt lat="45.53193" lon="5.22195">
        <ele>460.8</ele>
        <time>2023-08-29T09:36:37Z</time>
      </trkpt>
      <trkpt lat="45.53194" lon="5.22188">
        <ele>460.8</ele>
        <time>2023-08-29T09:37:04Z</time>
      </trkpt>
      <trkpt lat="45.53194" lon="5.22187">
        <ele>460.8</ele>
        <time>2023-08-29T09:37:05Z</time>
      </trkpt>
      <trkpt lat="45.53194" lon="5.22183">
        <ele>460.6</ele>
        <time>2023-08-29T09:37:06Z</time>
      </trkpt>
      <trkpt lat="45.53195" lon="5.22178">
        <ele>460.6</ele>
        <time>2023-08-29T09:37:07Z</time>
      </trkpt>
      <trkpt lat="45.53196" lon="5.22174">
        <ele>460.6</ele>
        <time>2023-08-29T09:37:08Z</time>
      </trkpt>
      <trkpt lat="45.53197" lon="5.22168">
        <ele>460.6</ele>
        <time>2023-08-29T09:37:09Z</time>
      </trkpt>
      <trkpt lat="45.53198" lon="5.22163">
        <ele>460.4</ele>
        <time>2023-08-29T09:37:10Z</time>
      </trkpt>
      <trkpt lat="45.53199" lon="5.22158">
        <ele>460.4</ele>
        <time>2023-08-29T09:37:11Z</time>
      </trkpt>
      <trkpt lat="45.53201" lon="5.22153">
        <ele>460.2</ele>
        <time>2023-08-29T09:37:12Z</time>
      </trkpt>
      <trkpt lat="45.53204" lon="5.22148">
        <ele>459.8</ele>
        <time>2023-08-29T09:37:13Z</time>
      </trkpt>
      <trkpt lat="45.53206" lon="5.22142">
        <ele>459.8</ele>
        <time>2023-08-29T09:37:14Z</time>
      </trkpt>
      <trkpt lat="45.53207" lon="5.22136">
        <ele>459.6</ele>
        <time>2023-08-29T09:37:15Z</time>
      </trkpt>
      <trkpt lat="45.53209" lon="5.2213">
        <ele>459.4</ele>
        <time>2023-08-29T09:37:16Z</time>
      </trkpt>
      <trkpt lat="45.53211" lon="5.22124">
        <ele>459.2</ele>
        <time>2023-08-29T09:37:17Z</time>
      </trkpt>
      <trkpt lat="45.53213" lon="5.22118">
        <ele>459.2</ele>
        <time>2023-08-29T09:37:18Z</time>
      </trkpt>
      <trkpt lat="45.53215" lon="5.22112">
        <ele>459.2</ele>
        <time>2023-08-29T09:37:19Z</time>
      </trkpt>
      <trkpt lat="45.53218" lon="5.22106">
        <ele>459.2</ele>
        <time>2023-08-29T09:37:20Z</time>
      </trkpt>
      <trkpt lat="45.5322" lon="5.22101">
        <ele>459.2</ele>
        <time>2023-08-29T09:37:21Z</time>
      </trkpt>
      <trkpt lat="45.53222" lon="5.22095">
        <ele>459.2</ele>
        <time>2023-08-29T09:37:22Z</time>
      </trkpt>
      <trkpt lat="45.53224" lon="5.2209">
        <ele>459.2</ele>
        <time>2023-08-29T09:37:23Z</time>
      </trkpt>
      <trkpt lat="45.53226" lon="5.22085">
        <ele>459</ele>
        <time>2023-08-29T09:37:24Z</time>
      </trkpt>
      <trkpt lat="45.53229" lon="5.22078">
        <ele>458.6</ele>
        <time>2023-08-29T09:37:25Z</time>
      </trkpt>
      <trkpt lat="45.53232" lon="5.22073">
        <ele>458.2</ele>
        <time>2023-08-29T09:37:26Z</time>
      </trkpt>
      <trkpt lat="45.53234" lon="5.22067">
        <ele>458.2</ele>
        <time>2023-08-29T09:37:27Z</time>
      </trkpt>
      <trkpt lat="45.53237" lon="5.22063">
        <ele>458.2</ele>
        <time>2023-08-29T09:37:28Z</time>
      </trkpt>
      <trkpt lat="45.5324" lon="5.22058">
        <ele>458.2</ele>
        <time>2023-08-29T09:37:29Z</time>
      </trkpt>
      <trkpt lat="45.53242" lon="5.22054">
        <ele>458.2</ele>
        <time>2023-08-29T09:37:30Z</time>
      </trkpt>
      <trkpt lat="45.53245" lon="5.22049">
        <ele>458.2</ele>
        <time>2023-08-29T09:37:31Z</time>
      </trkpt>
      <trkpt lat="45.53247" lon="5.22044">
        <ele>458.2</ele>
        <time>2023-08-29T09:37:32Z</time>
      </trkpt>
      <trkpt lat="45.53249" lon="5.22039">
        <ele>458.2</ele>
        <time>2023-08-29T09:37:33Z</time>
      </trkpt>
      <trkpt lat="45.53251" lon="5.22034">
        <ele>458.2</ele>
        <time>2023-08-29T09:37:34Z</time>
      </trkpt>
      <trkpt lat="45.53254" lon="5.22029">
        <ele>458.2</ele>
        <time>2023-08-29T09:37:35Z</time>
      </trkpt>
      <trkpt lat="45.53256" lon="5.22024">
        <ele>458.2</ele>
        <time>2023-08-29T09:37:36Z</time>
      </trkpt>
      <trkpt lat="45.53258" lon="5.22019">
        <ele>458.2</ele>
        <time>2023-08-29T09:37:37Z</time>
      </trkpt>
      <trkpt lat="45.53261" lon="5.22014">
        <ele>458.4</ele>
        <time>2023-08-29T09:37:38Z</time>
      </trkpt>
      <trkpt lat="45.53263" lon="5.22009">
        <ele>458.4</ele>
        <time>2023-08-29T09:37:39Z</time>
      </trkpt>
      <trkpt lat="45.53265" lon="5.22004">
        <ele>458.4</ele>
        <time>2023-08-29T09:37:40Z</time>
      </trkpt>
      <trkpt lat="45.53267" lon="5.21999">
        <ele>458.6</ele>
        <time>2023-08-29T09:37:41Z</time>
      </trkpt>
      <trkpt lat="45.53267" lon="5.21993">
        <ele>459</ele>
        <time>2023-08-29T09:37:42Z</time>
      </trkpt>
      <trkpt lat="45.53268" lon="5.21988">
        <ele>459.2</ele>
        <time>2023-08-29T09:37:43Z</time>
      </trkpt>
      <trkpt lat="45.53267" lon="5.21983">
        <ele>459.2</ele>
        <time>2023-08-29T09:37:44Z</time>
      </trkpt>
      <trkpt lat="45.53266" lon="5.21978">
        <ele>459.4</ele>
        <time>2023-08-29T09:37:45Z</time>
      </trkpt>
      <trkpt lat="45.53264" lon="5.21973">
        <ele>459.4</ele>
        <time>2023-08-29T09:37:46Z</time>
      </trkpt>
      <trkpt lat="45.53261" lon="5.21969">
        <ele>459.4</ele>
        <time>2023-08-29T09:37:47Z</time>
      </trkpt>
      <trkpt lat="45.53259" lon="5.21966">
        <ele>459.4</ele>
        <time>2023-08-29T09:37:48Z</time>
      </trkpt>
      <trkpt lat="45.53256" lon="5.21962">
        <ele>459.6</ele>
        <time>2023-08-29T09:37:49Z</time>
      </trkpt>
      <trkpt lat="45.53253" lon="5.21958">
        <ele>459.8</ele>
        <time>2023-08-29T09:37:50Z</time>
      </trkpt>
      <trkpt lat="45.5325" lon="5.21954">
        <ele>460</ele>
        <time>2023-08-29T09:37:51Z</time>
      </trkpt>
      <trkpt lat="45.53247" lon="5.21951">
        <ele>459.8</ele>
        <time>2023-08-29T09:37:52Z</time>
      </trkpt>
      <trkpt lat="45.53244" lon="5.21946">
        <ele>460</ele>
        <time>2023-08-29T09:37:53Z</time>
      </trkpt>
      <trkpt lat="45.53241" lon="5.21942">
        <ele>460</ele>
        <time>2023-08-29T09:37:54Z</time>
      </trkpt>
      <trkpt lat="45.53238" lon="5.21938">
        <ele>460</ele>
        <time>2023-08-29T09:37:55Z</time>
      </trkpt>
      <trkpt lat="45.53235" lon="5.21934">
        <ele>459.8</ele>
        <time>2023-08-29T09:37:56Z</time>
      </trkpt>
      <trkpt lat="45.53232" lon="5.21931">
        <ele>459.8</ele>
        <time>2023-08-29T09:37:57Z</time>
      </trkpt>
      <trkpt lat="45.53229" lon="5.21928">
        <ele>459.8</ele>
        <time>2023-08-29T09:37:58Z</time>
      </trkpt>
      <trkpt lat="45.53227" lon="5.21924">
        <ele>459.8</ele>
        <time>2023-08-29T09:37:59Z</time>
      </trkpt>
      <trkpt lat="45.53224" lon="5.21919">
        <ele>459.8</ele>
        <time>2023-08-29T09:38:00Z</time>
      </trkpt>
      <trkpt lat="45.53221" lon="5.21915">
        <ele>459.6</ele>
        <time>2023-08-29T09:38:01Z</time>
      </trkpt>
      <trkpt lat="45.53218" lon="5.2191">
        <ele>459.4</ele>
        <time>2023-08-29T09:38:02Z</time>
      </trkpt>
      <trkpt lat="45.53214" lon="5.21905">
        <ele>459</ele>
        <time>2023-08-29T09:38:03Z</time>
      </trkpt>
      <trkpt lat="45.53212" lon="5.21901">
        <ele>459</ele>
        <time>2023-08-29T09:38:04Z</time>
      </trkpt>
      <trkpt lat="45.53208" lon="5.21897">
        <ele>459</ele>
        <time>2023-08-29T09:38:05Z</time>
      </trkpt>
      <trkpt lat="45.53205" lon="5.21894">
        <ele>459</ele>
        <time>2023-08-29T09:38:06Z</time>
      </trkpt>
      <trkpt lat="45.53203" lon="5.2189">
        <ele>459.2</ele>
        <time>2023-08-29T09:38:07Z</time>
      </trkpt>
      <trkpt lat="45.53202" lon="5.21884">
        <ele>459.2</ele>
        <time>2023-08-29T09:38:08Z</time>
      </trkpt>
      <trkpt lat="45.53202" lon="5.21879">
        <ele>459.4</ele>
        <time>2023-08-29T09:38:09Z</time>
      </trkpt>
      <trkpt lat="45.53202" lon="5.21874">
        <ele>459.4</ele>
        <time>2023-08-29T09:38:10Z</time>
      </trkpt>
      <trkpt lat="45.53202" lon="5.21868">
        <ele>459.4</ele>
        <time>2023-08-29T09:38:11Z</time>
      </trkpt>
      <trkpt lat="45.53203" lon="5.21863">
        <ele>459.6</ele>
        <time>2023-08-29T09:38:12Z</time>
      </trkpt>
      <trkpt lat="45.53204" lon="5.21857">
        <ele>459.6</ele>
        <time>2023-08-29T09:38:13Z</time>
      </trkpt>
      <trkpt lat="45.53206" lon="5.21852">
        <ele>459.6</ele>
        <time>2023-08-29T09:38:14Z</time>
      </trkpt>
      <trkpt lat="45.53208" lon="5.21846">
        <ele>459.4</ele>
        <time>2023-08-29T09:38:15Z</time>
      </trkpt>
      <trkpt lat="45.53209" lon="5.21841">
        <ele>459.4</ele>
        <time>2023-08-29T09:38:16Z</time>
      </trkpt>
      <trkpt lat="45.53211" lon="5.21836">
        <ele>459.4</ele>
        <time>2023-08-29T09:38:17Z</time>
      </trkpt>
      <trkpt lat="45.53214" lon="5.21831">
        <ele>459.4</ele>
        <time>2023-08-29T09:38:18Z</time>
      </trkpt>
      <trkpt lat="45.53216" lon="5.21826">
        <ele>459.4</ele>
        <time>2023-08-29T09:38:19Z</time>
      </trkpt>
      <trkpt lat="45.53218" lon="5.21819">
        <ele>459.4</ele>
        <time>2023-08-29T09:38:20Z</time>
      </trkpt>
      <trkpt lat="45.5322" lon="5.21813">
        <ele>459.2</ele>
        <time>2023-08-29T09:38:21Z</time>
      </trkpt>
      <trkpt lat="45.53222" lon="5.21808">
        <ele>459.2</ele>
        <time>2023-08-29T09:38:22Z</time>
      </trkpt>
      <trkpt lat="45.53224" lon="5.21803">
        <ele>459.2</ele>
        <time>2023-08-29T09:38:23Z</time>
      </trkpt>
      <trkpt lat="45.53226" lon="5.21797">
        <ele>459.2</ele>
        <time>2023-08-29T09:38:24Z</time>
      </trkpt>
      <trkpt lat="45.53228" lon="5.21792">
        <ele>459</ele>
        <time>2023-08-29T09:38:25Z</time>
      </trkpt>
      <trkpt lat="45.5323" lon="5.21786">
        <ele>459</ele>
        <time>2023-08-29T09:38:26Z</time>
      </trkpt>
      <trkpt lat="45.53233" lon="5.21782">
        <ele>459</ele>
        <time>2023-08-29T09:38:27Z</time>
      </trkpt>
      <trkpt lat="45.53235" lon="5.21777">
        <ele>459</ele>
        <time>2023-08-29T09:38:28Z</time>
      </trkpt>
      <trkpt lat="45.53237" lon="5.21772">
        <ele>459</ele>
        <time>2023-08-29T09:38:29Z</time>
      </trkpt>
      <trkpt lat="45.53239" lon="5.21766">
        <ele>459</ele>
        <time>2023-08-29T09:38:30Z</time>
      </trkpt>
      <trkpt lat="45.53242" lon="5.2176">
        <ele>459</ele>
        <time>2023-08-29T09:38:31Z</time>
      </trkpt>
      <trkpt lat="45.53244" lon="5.21752">
        <ele>459</ele>
        <time>2023-08-29T09:38:32Z</time>
      </trkpt>
      <trkpt lat="45.53247" lon="5.21745">
        <ele>459</ele>
        <time>2023-08-29T09:38:33Z</time>
      </trkpt>
      <trkpt lat="45.5325" lon="5.21738">
        <ele>459</ele>
        <time>2023-08-29T09:38:34Z</time>
      </trkpt>
      <trkpt lat="45.53252" lon="5.21731">
        <ele>458.8</ele>
        <time>2023-08-29T09:38:35Z</time>
      </trkpt>
      <trkpt lat="45.53255" lon="5.21724">
        <ele>458.8</ele>
        <time>2023-08-29T09:38:36Z</time>
      </trkpt>
      <trkpt lat="45.53258" lon="5.21718">
        <ele>458.8</ele>
        <time>2023-08-29T09:38:37Z</time>
      </trkpt>
      <trkpt lat="45.5326" lon="5.21712">
        <ele>458.8</ele>
        <time>2023-08-29T09:38:38Z</time>
      </trkpt>
      <trkpt lat="45.53263" lon="5.21705">
        <ele>458.4</ele>
        <time>2023-08-29T09:38:39Z</time>
      </trkpt>
      <trkpt lat="45.53266" lon="5.21697">
        <ele>458.2</ele>
        <time>2023-08-29T09:38:40Z</time>
      </trkpt>
      <trkpt lat="45.53269" lon="5.21691">
        <ele>458</ele>
        <time>2023-08-29T09:38:41Z</time>
      </trkpt>
      <trkpt lat="45.53272" lon="5.21684">
        <ele>457.8</ele>
        <time>2023-08-29T09:38:42Z</time>
      </trkpt>
      <trkpt lat="45.53275" lon="5.21677">
        <ele>457.6</ele>
        <time>2023-08-29T09:38:43Z</time>
      </trkpt>
      <trkpt lat="45.53277" lon="5.2167">
        <ele>457.4</ele>
        <time>2023-08-29T09:38:44Z</time>
      </trkpt>
      <trkpt lat="45.5328" lon="5.21663">
        <ele>457.2</ele>
        <time>2023-08-29T09:38:45Z</time>
      </trkpt>
      <trkpt lat="45.53283" lon="5.21656">
        <ele>457.2</ele>
        <time>2023-08-29T09:38:46Z</time>
      </trkpt>
      <trkpt lat="45.53287" lon="5.2165">
        <ele>457.2</ele>
        <time>2023-08-29T09:38:47Z</time>
      </trkpt>
      <trkpt lat="45.5329" lon="5.21643">
        <ele>457.4</ele>
        <time>2023-08-29T09:38:48Z</time>
      </trkpt>
      <trkpt lat="45.53294" lon="5.21636">
        <ele>457.4</ele>
        <time>2023-08-29T09:38:49Z</time>
      </trkpt>
      <trkpt lat="45.53297" lon="5.21629">
        <ele>457.4</ele>
        <time>2023-08-29T09:38:50Z</time>
      </trkpt>
      <trkpt lat="45.53301" lon="5.21624">
        <ele>457.4</ele>
        <time>2023-08-29T09:38:51Z</time>
      </trkpt>
      <trkpt lat="45.53305" lon="5.21617">
        <ele>457.4</ele>
        <time>2023-08-29T09:38:52Z</time>
      </trkpt>
      <trkpt lat="45.53308" lon="5.21611">
        <ele>457.4</ele>
        <time>2023-08-29T09:38:53Z</time>
      </trkpt>
      <trkpt lat="45.53312" lon="5.21606">
        <ele>457.2</ele>
        <time>2023-08-29T09:38:54Z</time>
      </trkpt>
      <trkpt lat="45.53316" lon="5.216">
        <ele>457</ele>
        <time>2023-08-29T09:38:55Z</time>
      </trkpt>
      <trkpt lat="45.53319" lon="5.21595">
        <ele>457</ele>
        <time>2023-08-29T09:38:56Z</time>
      </trkpt>
      <trkpt lat="45.53323" lon="5.21589">
        <ele>457</ele>
        <time>2023-08-29T09:38:57Z</time>
      </trkpt>
      <trkpt lat="45.53327" lon="5.21584">
        <ele>456.8</ele>
        <time>2023-08-29T09:38:58Z</time>
      </trkpt>
      <trkpt lat="45.5333" lon="5.21578">
        <ele>456.8</ele>
        <time>2023-08-29T09:38:59Z</time>
      </trkpt>
      <trkpt lat="45.53334" lon="5.21573">
        <ele>456.8</ele>
        <time>2023-08-29T09:39:00Z</time>
      </trkpt>
      <trkpt lat="45.53338" lon="5.21567">
        <ele>456.6</ele>
        <time>2023-08-29T09:39:01Z</time>
      </trkpt>
      <trkpt lat="45.53342" lon="5.21562">
        <ele>456.2</ele>
        <time>2023-08-29T09:39:02Z</time>
      </trkpt>
      <trkpt lat="45.53345" lon="5.21557">
        <ele>456.2</ele>
        <time>2023-08-29T09:39:03Z</time>
      </trkpt>
      <trkpt lat="45.53349" lon="5.21552">
        <ele>456</ele>
        <time>2023-08-29T09:39:04Z</time>
      </trkpt>
      <trkpt lat="45.53352" lon="5.21547">
        <ele>455.8</ele>
        <time>2023-08-29T09:39:05Z</time>
      </trkpt>
      <trkpt lat="45.53355" lon="5.21542">
        <ele>455.8</ele>
        <time>2023-08-29T09:39:06Z</time>
      </trkpt>
      <trkpt lat="45.53358" lon="5.21537">
        <ele>455.6</ele>
        <time>2023-08-29T09:39:07Z</time>
      </trkpt>
      <trkpt lat="45.53361" lon="5.21533">
        <ele>455.6</ele>
        <time>2023-08-29T09:39:08Z</time>
      </trkpt>
      <trkpt lat="45.53365" lon="5.21528">
        <ele>455.6</ele>
        <time>2023-08-29T09:39:09Z</time>
      </trkpt>
      <trkpt lat="45.53368" lon="5.21523">
        <ele>455.6</ele>
        <time>2023-08-29T09:39:10Z</time>
      </trkpt>
      <trkpt lat="45.53371" lon="5.21518">
        <ele>455.6</ele>
        <time>2023-08-29T09:39:11Z</time>
      </trkpt>
      <trkpt lat="45.53374" lon="5.21513">
        <ele>455</ele>
        <time>2023-08-29T09:39:12Z</time>
      </trkpt>
      <trkpt lat="45.53376" lon="5.21508">
        <ele>455</ele>
        <time>2023-08-29T09:39:13Z</time>
      </trkpt>
      <trkpt lat="45.53379" lon="5.21503">
        <ele>454.8</ele>
        <time>2023-08-29T09:39:14Z</time>
      </trkpt>
      <trkpt lat="45.53382" lon="5.21498">
        <ele>454.8</ele>
        <time>2023-08-29T09:39:15Z</time>
      </trkpt>
      <trkpt lat="45.53385" lon="5.21493">
        <ele>454.8</ele>
        <time>2023-08-29T09:39:16Z</time>
      </trkpt>
      <trkpt lat="45.53387" lon="5.21489">
        <ele>454.8</ele>
        <time>2023-08-29T09:39:17Z</time>
      </trkpt>
      <trkpt lat="45.5339" lon="5.21483">
        <ele>455.4</ele>
        <time>2023-08-29T09:39:18Z</time>
      </trkpt>
      <trkpt lat="45.53393" lon="5.21478">
        <ele>455.4</ele>
        <time>2023-08-29T09:39:19Z</time>
      </trkpt>
      <trkpt lat="45.53396" lon="5.21472">
        <ele>455.8</ele>
        <time>2023-08-29T09:39:20Z</time>
      </trkpt>
      <trkpt lat="45.53399" lon="5.21467">
        <ele>455.8</ele>
        <time>2023-08-29T09:39:21Z</time>
      </trkpt>
      <trkpt lat="45.53403" lon="5.21461">
        <ele>456.2</ele>
        <time>2023-08-29T09:39:22Z</time>
      </trkpt>
      <trkpt lat="45.53405" lon="5.21457">
        <ele>456.4</ele>
        <time>2023-08-29T09:39:23Z</time>
      </trkpt>
      <trkpt lat="45.53408" lon="5.21452">
        <ele>456.4</ele>
        <time>2023-08-29T09:39:24Z</time>
      </trkpt>
      <trkpt lat="45.53412" lon="5.21448">
        <ele>456.4</ele>
        <time>2023-08-29T09:39:25Z</time>
      </trkpt>
      <trkpt lat="45.53414" lon="5.21444">
        <ele>456.4</ele>
        <time>2023-08-29T09:39:26Z</time>
      </trkpt>
      <trkpt lat="45.53417" lon="5.2144">
        <ele>456.4</ele>
        <time>2023-08-29T09:39:27Z</time>
      </trkpt>
      <trkpt lat="45.5342" lon="5.21437">
        <ele>456.4</ele>
        <time>2023-08-29T09:39:28Z</time>
      </trkpt>
      <trkpt lat="45.53423" lon="5.21433">
        <ele>456.4</ele>
        <time>2023-08-29T09:39:29Z</time>
      </trkpt>
      <trkpt lat="45.53425" lon="5.21429">
        <ele>456.4</ele>
        <time>2023-08-29T09:39:30Z</time>
      </trkpt>
      <trkpt lat="45.53428" lon="5.21425">
        <ele>456.6</ele>
        <time>2023-08-29T09:39:31Z</time>
      </trkpt>
      <trkpt lat="45.5343" lon="5.2142">
        <ele>456.6</ele>
        <time>2023-08-29T09:39:32Z</time>
      </trkpt>
      <trkpt lat="45.53433" lon="5.21415">
        <ele>456.6</ele>
        <time>2023-08-29T09:39:33Z</time>
      </trkpt>
      <trkpt lat="45.53435" lon="5.21408">
        <ele>456.6</ele>
        <time>2023-08-29T09:39:34Z</time>
      </trkpt>
      <trkpt lat="45.53437" lon="5.21402">
        <ele>456.6</ele>
        <time>2023-08-29T09:39:35Z</time>
      </trkpt>
      <trkpt lat="45.53439" lon="5.21395">
        <ele>456.2</ele>
        <time>2023-08-29T09:39:36Z</time>
      </trkpt>
      <trkpt lat="45.5344" lon="5.21387">
        <ele>455.8</ele>
        <time>2023-08-29T09:39:37Z</time>
      </trkpt>
      <trkpt lat="45.53441" lon="5.2138">
        <ele>455.6</ele>
        <time>2023-08-29T09:39:38Z</time>
      </trkpt>
      <trkpt lat="45.53442" lon="5.21372">
        <ele>455</ele>
        <time>2023-08-29T09:39:39Z</time>
      </trkpt>
      <trkpt lat="45.53443" lon="5.21365">
        <ele>454.8</ele>
        <time>2023-08-29T09:39:40Z</time>
      </trkpt>
      <trkpt lat="45.53444" lon="5.21358">
        <ele>454.8</ele>
        <time>2023-08-29T09:39:41Z</time>
      </trkpt>
      <trkpt lat="45.53445" lon="5.21351">
        <ele>454.4</ele>
        <time>2023-08-29T09:39:42Z</time>
      </trkpt>
      <trkpt lat="45.53446" lon="5.21344">
        <ele>454.2</ele>
        <time>2023-08-29T09:39:43Z</time>
      </trkpt>
      <trkpt lat="45.53446" lon="5.21337">
        <ele>454</ele>
        <time>2023-08-29T09:39:44Z</time>
      </trkpt>
      <trkpt lat="45.53447" lon="5.2133">
        <ele>454</ele>
        <time>2023-08-29T09:39:45Z</time>
      </trkpt>
      <trkpt lat="45.53448" lon="5.21324">
        <ele>454</ele>
        <time>2023-08-29T09:39:46Z</time>
      </trkpt>
      <trkpt lat="45.53449" lon="5.21317">
        <ele>454</ele>
        <time>2023-08-29T09:39:47Z</time>
      </trkpt>
      <trkpt lat="45.5345" lon="5.21311">
        <ele>454</ele>
        <time>2023-08-29T09:39:48Z</time>
      </trkpt>
      <trkpt lat="45.53451" lon="5.21305">
        <ele>454</ele>
        <time>2023-08-29T09:39:49Z</time>
      </trkpt>
      <trkpt lat="45.53452" lon="5.21298">
        <ele>454.2</ele>
        <time>2023-08-29T09:39:50Z</time>
      </trkpt>
      <trkpt lat="45.53452" lon="5.21291">
        <ele>454.2</ele>
        <time>2023-08-29T09:39:51Z</time>
      </trkpt>
      <trkpt lat="45.53453" lon="5.21284">
        <ele>454.2</ele>
        <time>2023-08-29T09:39:52Z</time>
      </trkpt>
      <trkpt lat="45.53454" lon="5.21276">
        <ele>454.2</ele>
        <time>2023-08-29T09:39:53Z</time>
      </trkpt>
      <trkpt lat="45.53454" lon="5.21269">
        <ele>454.2</ele>
        <time>2023-08-29T09:39:54Z</time>
      </trkpt>
      <trkpt lat="45.53455" lon="5.21262">
        <ele>453.8</ele>
        <time>2023-08-29T09:39:55Z</time>
      </trkpt>
      <trkpt lat="45.53456" lon="5.21254">
        <ele>453.4</ele>
        <time>2023-08-29T09:39:56Z</time>
      </trkpt>
      <trkpt lat="45.53457" lon="5.21246">
        <ele>453.4</ele>
        <time>2023-08-29T09:39:57Z</time>
      </trkpt>
      <trkpt lat="45.53458" lon="5.21238">
        <ele>453.2</ele>
        <time>2023-08-29T09:39:58Z</time>
      </trkpt>
      <trkpt lat="45.53458" lon="5.2123">
        <ele>453.2</ele>
        <time>2023-08-29T09:39:59Z</time>
      </trkpt>
      <trkpt lat="45.53459" lon="5.21223">
        <ele>452.6</ele>
        <time>2023-08-29T09:40:00Z</time>
      </trkpt>
      <trkpt lat="45.5346" lon="5.21216">
        <ele>451.6</ele>
        <time>2023-08-29T09:40:01Z</time>
      </trkpt>
      <trkpt lat="45.53461" lon="5.21209">
        <ele>451.6</ele>
        <time>2023-08-29T09:40:02Z</time>
      </trkpt>
      <trkpt lat="45.53461" lon="5.21201">
        <ele>451.6</ele>
        <time>2023-08-29T09:40:03Z</time>
      </trkpt>
      <trkpt lat="45.53462" lon="5.21194">
        <ele>451.4</ele>
        <time>2023-08-29T09:40:04Z</time>
      </trkpt>
      <trkpt lat="45.53463" lon="5.21186">
        <ele>451.4</ele>
        <time>2023-08-29T09:40:05Z</time>
      </trkpt>
      <trkpt lat="45.53464" lon="5.21179">
        <ele>451.4</ele>
        <time>2023-08-29T09:40:06Z</time>
      </trkpt>
      <trkpt lat="45.53465" lon="5.21172">
        <ele>451.2</ele>
        <time>2023-08-29T09:40:07Z</time>
      </trkpt>
      <trkpt lat="45.53465" lon="5.21165">
        <ele>451.2</ele>
        <time>2023-08-29T09:40:08Z</time>
      </trkpt>
      <trkpt lat="45.53466" lon="5.21157">
        <ele>451.2</ele>
        <time>2023-08-29T09:40:09Z</time>
      </trkpt>
      <trkpt lat="45.53467" lon="5.21151">
        <ele>451.2</ele>
        <time>2023-08-29T09:40:10Z</time>
      </trkpt>
      <trkpt lat="45.53468" lon="5.21145">
        <ele>451.4</ele>
        <time>2023-08-29T09:40:11Z</time>
      </trkpt>
      <trkpt lat="45.53469" lon="5.21138">
        <ele>451.4</ele>
        <time>2023-08-29T09:40:12Z</time>
      </trkpt>
      <trkpt lat="45.53471" lon="5.21133">
        <ele>451.4</ele>
        <time>2023-08-29T09:40:13Z</time>
      </trkpt>
      <trkpt lat="45.53474" lon="5.21127">
        <ele>451.4</ele>
        <time>2023-08-29T09:40:14Z</time>
      </trkpt>
      <trkpt lat="45.53477" lon="5.21122">
        <ele>451.6</ele>
        <time>2023-08-29T09:40:15Z</time>
      </trkpt>
      <trkpt lat="45.53482" lon="5.21119">
        <ele>451.6</ele>
        <time>2023-08-29T09:40:16Z</time>
      </trkpt>
      <trkpt lat="45.53486" lon="5.21116">
        <ele>451.6</ele>
        <time>2023-08-29T09:40:17Z</time>
      </trkpt>
      <trkpt lat="45.53491" lon="5.21115">
        <ele>451.6</ele>
        <time>2023-08-29T09:40:18Z</time>
      </trkpt>
      <trkpt lat="45.53496" lon="5.21115">
        <ele>451.6</ele>
        <time>2023-08-29T09:40:19Z</time>
      </trkpt>
      <trkpt lat="45.53501" lon="5.21114">
        <ele>451.8</ele>
        <time>2023-08-29T09:40:20Z</time>
      </trkpt>
      <trkpt lat="45.53506" lon="5.21113">
        <ele>451.8</ele>
        <time>2023-08-29T09:40:21Z</time>
      </trkpt>
      <trkpt lat="45.5351" lon="5.21112">
        <ele>452</ele>
        <time>2023-08-29T09:40:22Z</time>
      </trkpt>
      <trkpt lat="45.53515" lon="5.21112">
        <ele>452.4</ele>
        <time>2023-08-29T09:40:23Z</time>
      </trkpt>
      <trkpt lat="45.5352" lon="5.21112">
        <ele>452.4</ele>
        <time>2023-08-29T09:40:24Z</time>
      </trkpt>
      <trkpt lat="45.53524" lon="5.21112">
        <ele>452.4</ele>
        <time>2023-08-29T09:40:25Z</time>
      </trkpt>
      <trkpt lat="45.53529" lon="5.21112">
        <ele>453</ele>
        <time>2023-08-29T09:40:26Z</time>
      </trkpt>
      <trkpt lat="45.53533" lon="5.21112">
        <ele>453</ele>
        <time>2023-08-29T09:40:27Z</time>
      </trkpt>
      <trkpt lat="45.53537" lon="5.21112">
        <ele>453</ele>
        <time>2023-08-29T09:40:28Z</time>
      </trkpt>
      <trkpt lat="45.53542" lon="5.21111">
        <ele>453</ele>
        <time>2023-08-29T09:40:29Z</time>
      </trkpt>
      <trkpt lat="45.53546" lon="5.21111">
        <ele>453</ele>
        <time>2023-08-29T09:40:30Z</time>
      </trkpt>
      <trkpt lat="45.5355" lon="5.2111">
        <ele>453.2</ele>
        <time>2023-08-29T09:40:31Z</time>
      </trkpt>
      <trkpt lat="45.53555" lon="5.21108">
        <ele>453.2</ele>
        <time>2023-08-29T09:40:32Z</time>
      </trkpt>
      <trkpt lat="45.53558" lon="5.21105">
        <ele>453.2</ele>
        <time>2023-08-29T09:40:33Z</time>
      </trkpt>
      <trkpt lat="45.5356" lon="5.21101">
        <ele>453.2</ele>
        <time>2023-08-29T09:40:34Z</time>
      </trkpt>
      <trkpt lat="45.53561" lon="5.21097">
        <ele>453.4</ele>
        <time>2023-08-29T09:40:35Z</time>
      </trkpt>
      <trkpt lat="45.53563" lon="5.21094">
        <ele>453.6</ele>
        <time>2023-08-29T09:40:36Z</time>
      </trkpt>
      <trkpt lat="45.53563" lon="5.21089">
        <ele>453.8</ele>
        <time>2023-08-29T09:40:37Z</time>
      </trkpt>
      <trkpt lat="45.53564" lon="5.21086">
        <ele>454</ele>
        <time>2023-08-29T09:40:38Z</time>
      </trkpt>
      <trkpt lat="45.53564" lon="5.21082">
        <ele>454.4</ele>
        <time>2023-08-29T09:40:39Z</time>
      </trkpt>
      <trkpt lat="45.53564" lon="5.21078">
        <ele>454.6</ele>
        <time>2023-08-29T09:40:40Z</time>
      </trkpt>
      <trkpt lat="45.53564" lon="5.21074">
        <ele>454.8</ele>
        <time>2023-08-29T09:40:41Z</time>
      </trkpt>
      <trkpt lat="45.53565" lon="5.21069">
        <ele>455</ele>
        <time>2023-08-29T09:40:42Z</time>
      </trkpt>
      <trkpt lat="45.53565" lon="5.21065">
        <ele>455</ele>
        <time>2023-08-29T09:40:43Z</time>
      </trkpt>
      <trkpt lat="45.53565" lon="5.21061">
        <ele>455</ele>
        <time>2023-08-29T09:40:44Z</time>
      </trkpt>
      <trkpt lat="45.53565" lon="5.21056">
        <ele>455</ele>
        <time>2023-08-29T09:40:45Z</time>
      </trkpt>
      <trkpt lat="45.53566" lon="5.21051">
        <ele>454.8</ele>
        <time>2023-08-29T09:40:46Z</time>
      </trkpt>
      <trkpt lat="45.53567" lon="5.21047">
        <ele>454.8</ele>
        <time>2023-08-29T09:40:47Z</time>
      </trkpt>
      <trkpt lat="45.53568" lon="5.21042">
        <ele>454.8</ele>
        <time>2023-08-29T09:40:48Z</time>
      </trkpt>
      <trkpt lat="45.5357" lon="5.21036">
        <ele>454.8</ele>
        <time>2023-08-29T09:40:49Z</time>
      </trkpt>
      <trkpt lat="45.53571" lon="5.2103">
        <ele>454.8</ele>
        <time>2023-08-29T09:40:50Z</time>
      </trkpt>
      <trkpt lat="45.53573" lon="5.21025">
        <ele>454.8</ele>
        <time>2023-08-29T09:40:51Z</time>
      </trkpt>
      <trkpt lat="45.53574" lon="5.21019">
        <ele>454.8</ele>
        <time>2023-08-29T09:40:52Z</time>
      </trkpt>
      <trkpt lat="45.53576" lon="5.21014">
        <ele>454.2</ele>
        <time>2023-08-29T09:40:53Z</time>
      </trkpt>
      <trkpt lat="45.53577" lon="5.21009">
        <ele>453.6</ele>
        <time>2023-08-29T09:40:54Z</time>
      </trkpt>
      <trkpt lat="45.53579" lon="5.21004">
        <ele>453.6</ele>
        <time>2023-08-29T09:40:55Z</time>
      </trkpt>
      <trkpt lat="45.5358" lon="5.20998">
        <ele>453.6</ele>
        <time>2023-08-29T09:40:56Z</time>
      </trkpt>
      <trkpt lat="45.53582" lon="5.20991">
        <ele>453.4</ele>
        <time>2023-08-29T09:40:57Z</time>
      </trkpt>
      <trkpt lat="45.53583" lon="5.20985">
        <ele>453.4</ele>
        <time>2023-08-29T09:40:58Z</time>
      </trkpt>
      <trkpt lat="45.53584" lon="5.20978">
        <ele>453.4</ele>
        <time>2023-08-29T09:40:59Z</time>
      </trkpt>
      <trkpt lat="45.53585" lon="5.2097">
        <ele>453.4</ele>
        <time>2023-08-29T09:41:00Z</time>
      </trkpt>
      <trkpt lat="45.53587" lon="5.20963">
        <ele>453.4</ele>
        <time>2023-08-29T09:41:01Z</time>
      </trkpt>
      <trkpt lat="45.53589" lon="5.20956">
        <ele>453</ele>
        <time>2023-08-29T09:41:02Z</time>
      </trkpt>
      <trkpt lat="45.5359" lon="5.20949">
        <ele>453</ele>
        <time>2023-08-29T09:41:03Z</time>
      </trkpt>
      <trkpt lat="45.53591" lon="5.20941">
        <ele>452.6</ele>
        <time>2023-08-29T09:41:04Z</time>
      </trkpt>
      <trkpt lat="45.53592" lon="5.20933">
        <ele>452.2</ele>
        <time>2023-08-29T09:41:05Z</time>
      </trkpt>
      <trkpt lat="45.53593" lon="5.20924">
        <ele>452</ele>
        <time>2023-08-29T09:41:06Z</time>
      </trkpt>
      <trkpt lat="45.53594" lon="5.20916">
        <ele>451.4</ele>
        <time>2023-08-29T09:41:07Z</time>
      </trkpt>
      <trkpt lat="45.53595" lon="5.20906">
        <ele>451.2</ele>
        <time>2023-08-29T09:41:08Z</time>
      </trkpt>
      <trkpt lat="45.53596" lon="5.20896">
        <ele>451</ele>
        <time>2023-08-29T09:41:09Z</time>
      </trkpt>
      <trkpt lat="45.53597" lon="5.20886">
        <ele>450.8</ele>
        <time>2023-08-29T09:41:10Z</time>
      </trkpt>
      <trkpt lat="45.53598" lon="5.20876">
        <ele>450.4</ele>
        <time>2023-08-29T09:41:11Z</time>
      </trkpt>
      <trkpt lat="45.53599" lon="5.20866">
        <ele>450</ele>
        <time>2023-08-29T09:41:12Z</time>
      </trkpt>
      <trkpt lat="45.536" lon="5.20856">
        <ele>450</ele>
        <time>2023-08-29T09:41:13Z</time>
      </trkpt>
      <trkpt lat="45.53601" lon="5.20846">
        <ele>449.2</ele>
        <time>2023-08-29T09:41:14Z</time>
      </trkpt>
      <trkpt lat="45.53602" lon="5.20836">
        <ele>449</ele>
        <time>2023-08-29T09:41:15Z</time>
      </trkpt>
      <trkpt lat="45.53603" lon="5.20826">
        <ele>448.8</ele>
        <time>2023-08-29T09:41:16Z</time>
      </trkpt>
      <trkpt lat="45.53604" lon="5.20817">
        <ele>448.6</ele>
        <time>2023-08-29T09:41:17Z</time>
      </trkpt>
      <trkpt lat="45.53606" lon="5.20807">
        <ele>448.6</ele>
        <time>2023-08-29T09:41:18Z</time>
      </trkpt>
      <trkpt lat="45.53607" lon="5.20798">
        <ele>448.2</ele>
        <time>2023-08-29T09:41:19Z</time>
      </trkpt>
      <trkpt lat="45.53609" lon="5.20788">
        <ele>447.6</ele>
        <time>2023-08-29T09:41:20Z</time>
      </trkpt>
      <trkpt lat="45.5361" lon="5.20778">
        <ele>447.6</ele>
        <time>2023-08-29T09:41:21Z</time>
      </trkpt>
      <trkpt lat="45.53611" lon="5.20768">
        <ele>447.6</ele>
        <time>2023-08-29T09:41:22Z</time>
      </trkpt>
      <trkpt lat="45.53613" lon="5.20759">
        <ele>447.4</ele>
        <time>2023-08-29T09:41:23Z</time>
      </trkpt>
      <trkpt lat="45.53614" lon="5.20749">
        <ele>447.2</ele>
        <time>2023-08-29T09:41:24Z</time>
      </trkpt>
      <trkpt lat="45.53615" lon="5.2074">
        <ele>447.2</ele>
        <time>2023-08-29T09:41:25Z</time>
      </trkpt>
      <trkpt lat="45.53616" lon="5.20732">
        <ele>447</ele>
        <time>2023-08-29T09:41:26Z</time>
      </trkpt>
      <trkpt lat="45.53617" lon="5.20722">
        <ele>446.8</ele>
        <time>2023-08-29T09:41:27Z</time>
      </trkpt>
      <trkpt lat="45.53618" lon="5.20714">
        <ele>446.6</ele>
        <time>2023-08-29T09:41:28Z</time>
      </trkpt>
      <trkpt lat="45.5362" lon="5.20705">
        <ele>446.6</ele>
        <time>2023-08-29T09:41:29Z</time>
      </trkpt>
      <trkpt lat="45.53621" lon="5.20696">
        <ele>446.6</ele>
        <time>2023-08-29T09:41:30Z</time>
      </trkpt>
      <trkpt lat="45.53623" lon="5.20689">
        <ele>446.4</ele>
        <time>2023-08-29T09:41:31Z</time>
      </trkpt>
      <trkpt lat="45.53625" lon="5.2068">
        <ele>446.4</ele>
        <time>2023-08-29T09:41:32Z</time>
      </trkpt>
      <trkpt lat="45.53626" lon="5.20672">
        <ele>446.4</ele>
        <time>2023-08-29T09:41:33Z</time>
      </trkpt>
      <trkpt lat="45.53629" lon="5.20664">
        <ele>446.2</ele>
        <time>2023-08-29T09:41:34Z</time>
      </trkpt>
      <trkpt lat="45.53631" lon="5.20656">
        <ele>446</ele>
        <time>2023-08-29T09:41:35Z</time>
      </trkpt>
      <trkpt lat="45.53633" lon="5.2065">
        <ele>445.4</ele>
        <time>2023-08-29T09:41:36Z</time>
      </trkpt>
      <trkpt lat="45.53636" lon="5.20643">
        <ele>445.4</ele>
        <time>2023-08-29T09:41:37Z</time>
      </trkpt>
      <trkpt lat="45.53639" lon="5.20637">
        <ele>445.4</ele>
        <time>2023-08-29T09:41:38Z</time>
      </trkpt>
      <trkpt lat="45.53643" lon="5.20631">
        <ele>445.2</ele>
        <time>2023-08-29T09:41:39Z</time>
      </trkpt>
      <trkpt lat="45.53647" lon="5.20624">
        <ele>445.2</ele>
        <time>2023-08-29T09:41:40Z</time>
      </trkpt>
      <trkpt lat="45.53651" lon="5.20618">
        <ele>445.2</ele>
        <time>2023-08-29T09:41:41Z</time>
      </trkpt>
      <trkpt lat="45.53655" lon="5.20612">
        <ele>445</ele>
        <time>2023-08-29T09:41:42Z</time>
      </trkpt>
      <trkpt lat="45.53659" lon="5.20607">
        <ele>444.6</ele>
        <time>2023-08-29T09:41:43Z</time>
      </trkpt>
      <trkpt lat="45.53663" lon="5.20602">
        <ele>444.6</ele>
        <time>2023-08-29T09:41:44Z</time>
      </trkpt>
      <trkpt lat="45.53668" lon="5.20597">
        <ele>443.8</ele>
        <time>2023-08-29T09:41:45Z</time>
      </trkpt>
      <trkpt lat="45.53671" lon="5.20593">
        <ele>443.6</ele>
        <time>2023-08-29T09:41:46Z</time>
      </trkpt>
      <trkpt lat="45.53675" lon="5.20588">
        <ele>443.2</ele>
        <time>2023-08-29T09:41:47Z</time>
      </trkpt>
      <trkpt lat="45.53678" lon="5.20584">
        <ele>442.6</ele>
        <time>2023-08-29T09:41:48Z</time>
      </trkpt>
      <trkpt lat="45.53681" lon="5.2058">
        <ele>442.2</ele>
        <time>2023-08-29T09:41:49Z</time>
      </trkpt>
      <trkpt lat="45.53684" lon="5.20578">
        <ele>442</ele>
        <time>2023-08-29T09:41:50Z</time>
      </trkpt>
      <trkpt lat="45.53685" lon="5.20575">
        <ele>442</ele>
        <time>2023-08-29T09:41:51Z</time>
      </trkpt>
      <trkpt lat="45.53687" lon="5.20573">
        <ele>441.8</ele>
        <time>2023-08-29T09:41:52Z</time>
      </trkpt>
      <trkpt lat="45.53689" lon="5.20572">
        <ele>441.8</ele>
        <time>2023-08-29T09:41:53Z</time>
      </trkpt>
      <trkpt lat="45.53691" lon="5.20572">
        <ele>441.6</ele>
        <time>2023-08-29T09:41:54Z</time>
      </trkpt>
      <trkpt lat="45.53693" lon="5.20573">
        <ele>441.6</ele>
        <time>2023-08-29T09:41:55Z</time>
      </trkpt>
      <trkpt lat="45.53695" lon="5.20575">
        <ele>441.4</ele>
        <time>2023-08-29T09:41:56Z</time>
      </trkpt>
      <trkpt lat="45.53696" lon="5.20579">
        <ele>441.4</ele>
        <time>2023-08-29T09:41:57Z</time>
      </trkpt>
      <trkpt lat="45.53696" lon="5.20584">
        <ele>441.4</ele>
        <time>2023-08-29T09:41:58Z</time>
      </trkpt>
      <trkpt lat="45.53695" lon="5.20589">
        <ele>441.4</ele>
        <time>2023-08-29T09:41:59Z</time>
      </trkpt>
      <trkpt lat="45.53696" lon="5.20594">
        <ele>441.4</ele>
        <time>2023-08-29T09:42:00Z</time>
      </trkpt>
      <trkpt lat="45.53696" lon="5.20599">
        <ele>441.6</ele>
        <time>2023-08-29T09:42:01Z</time>
      </trkpt>
      <trkpt lat="45.53695" lon="5.20604">
        <ele>441.6</ele>
        <time>2023-08-29T09:42:02Z</time>
      </trkpt>
      <trkpt lat="45.53695" lon="5.20609">
        <ele>441.6</ele>
        <time>2023-08-29T09:42:03Z</time>
      </trkpt>
      <trkpt lat="45.53695" lon="5.20616">
        <ele>441.6</ele>
        <time>2023-08-29T09:42:04Z</time>
      </trkpt>
      <trkpt lat="45.53695" lon="5.20622">
        <ele>441.8</ele>
        <time>2023-08-29T09:42:05Z</time>
      </trkpt>
      <trkpt lat="45.53694" lon="5.20628">
        <ele>441.8</ele>
        <time>2023-08-29T09:42:06Z</time>
      </trkpt>
      <trkpt lat="45.53694" lon="5.20636">
        <ele>441.8</ele>
        <time>2023-08-29T09:42:07Z</time>
      </trkpt>
      <trkpt lat="45.53694" lon="5.20642">
        <ele>442</ele>
        <time>2023-08-29T09:42:08Z</time>
      </trkpt>
      <trkpt lat="45.53693" lon="5.20649">
        <ele>442</ele>
        <time>2023-08-29T09:42:09Z</time>
      </trkpt>
      <trkpt lat="45.53693" lon="5.20656">
        <ele>442</ele>
        <time>2023-08-29T09:42:10Z</time>
      </trkpt>
      <trkpt lat="45.53692" lon="5.20663">
        <ele>442.2</ele>
        <time>2023-08-29T09:42:11Z</time>
      </trkpt>
      <trkpt lat="45.53692" lon="5.20669">
        <ele>442.2</ele>
        <time>2023-08-29T09:42:12Z</time>
      </trkpt>
      <trkpt lat="45.53692" lon="5.20676">
        <ele>442.2</ele>
        <time>2023-08-29T09:42:13Z</time>
      </trkpt>
      <trkpt lat="45.53692" lon="5.20683">
        <ele>442.2</ele>
        <time>2023-08-29T09:42:14Z</time>
      </trkpt>
      <trkpt lat="45.53692" lon="5.2069">
        <ele>442.2</ele>
        <time>2023-08-29T09:42:15Z</time>
      </trkpt>
      <trkpt lat="45.53692" lon="5.20697">
        <ele>442.4</ele>
        <time>2023-08-29T09:42:16Z</time>
      </trkpt>
      <trkpt lat="45.53692" lon="5.20704">
        <ele>442.4</ele>
        <time>2023-08-29T09:42:17Z</time>
      </trkpt>
      <trkpt lat="45.53692" lon="5.20712">
        <ele>442.4</ele>
        <time>2023-08-29T09:42:18Z</time>
      </trkpt>
      <trkpt lat="45.53693" lon="5.20718">
        <ele>442.4</ele>
        <time>2023-08-29T09:42:19Z</time>
      </trkpt>
      <trkpt lat="45.53693" lon="5.20725">
        <ele>442.4</ele>
        <time>2023-08-29T09:42:20Z</time>
      </trkpt>
      <trkpt lat="45.53693" lon="5.20732">
        <ele>442.4</ele>
        <time>2023-08-29T09:42:21Z</time>
      </trkpt>
      <trkpt lat="45.53694" lon="5.20739">
        <ele>442.4</ele>
        <time>2023-08-29T09:42:22Z</time>
      </trkpt>
      <trkpt lat="45.53694" lon="5.20747">
        <ele>442.6</ele>
        <time>2023-08-29T09:42:23Z</time>
      </trkpt>
      <trkpt lat="45.53694" lon="5.20755">
        <ele>442.6</ele>
        <time>2023-08-29T09:42:24Z</time>
      </trkpt>
      <trkpt lat="45.53695" lon="5.20762">
        <ele>443</ele>
        <time>2023-08-29T09:42:25Z</time>
      </trkpt>
      <trkpt lat="45.53695" lon="5.20769">
        <ele>443</ele>
        <time>2023-08-29T09:42:26Z</time>
      </trkpt>
      <trkpt lat="45.53696" lon="5.20776">
        <ele>443</ele>
        <time>2023-08-29T09:42:27Z</time>
      </trkpt>
      <trkpt lat="45.53696" lon="5.20783">
        <ele>443</ele>
        <time>2023-08-29T09:42:28Z</time>
      </trkpt>
      <trkpt lat="45.53696" lon="5.2079">
        <ele>443</ele>
        <time>2023-08-29T09:42:29Z</time>
      </trkpt>
      <trkpt lat="45.53696" lon="5.20796">
        <ele>443</ele>
        <time>2023-08-29T09:42:30Z</time>
      </trkpt>
      <trkpt lat="45.53697" lon="5.20803">
        <ele>443</ele>
        <time>2023-08-29T09:42:31Z</time>
      </trkpt>
      <trkpt lat="45.53697" lon="5.20811">
        <ele>443.2</ele>
        <time>2023-08-29T09:42:32Z</time>
      </trkpt>
      <trkpt lat="45.53698" lon="5.20818">
        <ele>443.2</ele>
        <time>2023-08-29T09:42:33Z</time>
      </trkpt>
      <trkpt lat="45.53698" lon="5.20825">
        <ele>443.2</ele>
        <time>2023-08-29T09:42:34Z</time>
      </trkpt>
      <trkpt lat="45.53699" lon="5.20832">
        <ele>443.2</ele>
        <time>2023-08-29T09:42:35Z</time>
      </trkpt>
      <trkpt lat="45.53699" lon="5.20839">
        <ele>443.2</ele>
        <time>2023-08-29T09:42:36Z</time>
      </trkpt>
      <trkpt lat="45.537" lon="5.20846">
        <ele>443.2</ele>
        <time>2023-08-29T09:42:37Z</time>
      </trkpt>
      <trkpt lat="45.537" lon="5.20852">
        <ele>443.2</ele>
        <time>2023-08-29T09:42:38Z</time>
      </trkpt>
      <trkpt lat="45.537" lon="5.20859">
        <ele>443.2</ele>
        <time>2023-08-29T09:42:39Z</time>
      </trkpt>
      <trkpt lat="45.537" lon="5.20866">
        <ele>443.2</ele>
        <time>2023-08-29T09:42:40Z</time>
      </trkpt>
      <trkpt lat="45.537" lon="5.20873">
        <ele>443.4</ele>
        <time>2023-08-29T09:42:41Z</time>
      </trkpt>
      <trkpt lat="45.53699" lon="5.2088">
        <ele>443.6</ele>
        <time>2023-08-29T09:42:42Z</time>
      </trkpt>
      <trkpt lat="45.53699" lon="5.20887">
        <ele>443.8</ele>
        <time>2023-08-29T09:42:43Z</time>
      </trkpt>
      <trkpt lat="45.53698" lon="5.20894">
        <ele>443.8</ele>
        <time>2023-08-29T09:42:44Z</time>
      </trkpt>
      <trkpt lat="45.53698" lon="5.20901">
        <ele>444</ele>
        <time>2023-08-29T09:42:45Z</time>
      </trkpt>
      <trkpt lat="45.53697" lon="5.20909">
        <ele>444.2</ele>
        <time>2023-08-29T09:42:46Z</time>
      </trkpt>
      <trkpt lat="45.53696" lon="5.20916">
        <ele>444.2</ele>
        <time>2023-08-29T09:42:47Z</time>
      </trkpt>
      <trkpt lat="45.53695" lon="5.20924">
        <ele>444.6</ele>
        <time>2023-08-29T09:42:48Z</time>
      </trkpt>
      <trkpt lat="45.53694" lon="5.20931">
        <ele>444.6</ele>
        <time>2023-08-29T09:42:49Z</time>
      </trkpt>
      <trkpt lat="45.53693" lon="5.20939">
        <ele>445</ele>
        <time>2023-08-29T09:42:50Z</time>
      </trkpt>
      <trkpt lat="45.53692" lon="5.20946">
        <ele>445</ele>
        <time>2023-08-29T09:42:51Z</time>
      </trkpt>
      <trkpt lat="45.53691" lon="5.20952">
        <ele>445</ele>
        <time>2023-08-29T09:42:52Z</time>
      </trkpt>
      <trkpt lat="45.5369" lon="5.20958">
        <ele>445</ele>
        <time>2023-08-29T09:42:53Z</time>
      </trkpt>
      <trkpt lat="45.53689" lon="5.20965">
        <ele>445</ele>
        <time>2023-08-29T09:42:54Z</time>
      </trkpt>
      <trkpt lat="45.53688" lon="5.20972">
        <ele>445.2</ele>
        <time>2023-08-29T09:42:55Z</time>
      </trkpt>
      <trkpt lat="45.53687" lon="5.20979">
        <ele>445.6</ele>
        <time>2023-08-29T09:42:56Z</time>
      </trkpt>
      <trkpt lat="45.53686" lon="5.20985">
        <ele>445.8</ele>
        <time>2023-08-29T09:42:57Z</time>
      </trkpt>
      <trkpt lat="45.53686" lon="5.20991">
        <ele>446</ele>
        <time>2023-08-29T09:42:58Z</time>
      </trkpt>
      <trkpt lat="45.53685" lon="5.20998">
        <ele>446.2</ele>
        <time>2023-08-29T09:42:59Z</time>
      </trkpt>
      <trkpt lat="45.53684" lon="5.21004">
        <ele>446.2</ele>
        <time>2023-08-29T09:43:00Z</time>
      </trkpt>
      <trkpt lat="45.53684" lon="5.21011">
        <ele>446.2</ele>
        <time>2023-08-29T09:43:01Z</time>
      </trkpt>
      <trkpt lat="45.53683" lon="5.21018">
        <ele>446.2</ele>
        <time>2023-08-29T09:43:02Z</time>
      </trkpt>
      <trkpt lat="45.53683" lon="5.21024">
        <ele>446.2</ele>
        <time>2023-08-29T09:43:03Z</time>
      </trkpt>
      <trkpt lat="45.53683" lon="5.21031">
        <ele>446.2</ele>
        <time>2023-08-29T09:43:04Z</time>
      </trkpt>
      <trkpt lat="45.53683" lon="5.21038">
        <ele>446.2</ele>
        <time>2023-08-29T09:43:05Z</time>
      </trkpt>
      <trkpt lat="45.53683" lon="5.21045">
        <ele>446</ele>
        <time>2023-08-29T09:43:06Z</time>
      </trkpt>
      <trkpt lat="45.53683" lon="5.21052">
        <ele>446</ele>
        <time>2023-08-29T09:43:07Z</time>
      </trkpt>
      <trkpt lat="45.53684" lon="5.21059">
        <ele>446</ele>
        <time>2023-08-29T09:43:08Z</time>
      </trkpt>
      <trkpt lat="45.53685" lon="5.21066">
        <ele>446</ele>
        <time>2023-08-29T09:43:09Z</time>
      </trkpt>
      <trkpt lat="45.53685" lon="5.21073">
        <ele>445.8</ele>
        <time>2023-08-29T09:43:10Z</time>
      </trkpt>
      <trkpt lat="45.53687" lon="5.2108">
        <ele>445.8</ele>
        <time>2023-08-29T09:43:11Z</time>
      </trkpt>
      <trkpt lat="45.53688" lon="5.21087">
        <ele>445.8</ele>
        <time>2023-08-29T09:43:12Z</time>
      </trkpt>
      <trkpt lat="45.53689" lon="5.21095">
        <ele>445.6</ele>
        <time>2023-08-29T09:43:13Z</time>
      </trkpt>
      <trkpt lat="45.53691" lon="5.21102">
        <ele>445.6</ele>
        <time>2023-08-29T09:43:14Z</time>
      </trkpt>
      <trkpt lat="45.53692" lon="5.21109">
        <ele>445.4</ele>
        <time>2023-08-29T09:43:15Z</time>
      </trkpt>
      <trkpt lat="45.53694" lon="5.21116">
        <ele>445.2</ele>
        <time>2023-08-29T09:43:16Z</time>
      </trkpt>
      <trkpt lat="45.53696" lon="5.21124">
        <ele>445.2</ele>
        <time>2023-08-29T09:43:17Z</time>
      </trkpt>
      <trkpt lat="45.53698" lon="5.21131">
        <ele>445</ele>
        <time>2023-08-29T09:43:18Z</time>
      </trkpt>
      <trkpt lat="45.537" lon="5.21139">
        <ele>445</ele>
        <time>2023-08-29T09:43:19Z</time>
      </trkpt>
      <trkpt lat="45.53702" lon="5.21146">
        <ele>445</ele>
        <time>2023-08-29T09:43:20Z</time>
      </trkpt>
      <trkpt lat="45.53705" lon="5.21154">
        <ele>445</ele>
        <time>2023-08-29T09:43:21Z</time>
      </trkpt>
      <trkpt lat="45.53707" lon="5.21161">
        <ele>445</ele>
        <time>2023-08-29T09:43:22Z</time>
      </trkpt>
      <trkpt lat="45.53709" lon="5.2117">
        <ele>444.8</ele>
        <time>2023-08-29T09:43:23Z</time>
      </trkpt>
      <trkpt lat="45.53711" lon="5.21178">
        <ele>444.6</ele>
        <time>2023-08-29T09:43:24Z</time>
      </trkpt>
      <trkpt lat="45.53713" lon="5.21186">
        <ele>444.6</ele>
        <time>2023-08-29T09:43:25Z</time>
      </trkpt>
      <trkpt lat="45.53715" lon="5.21195">
        <ele>444.4</ele>
        <time>2023-08-29T09:43:26Z</time>
      </trkpt>
      <trkpt lat="45.53717" lon="5.21203">
        <ele>444.4</ele>
        <time>2023-08-29T09:43:27Z</time>
      </trkpt>
      <trkpt lat="45.53719" lon="5.21212">
        <ele>444.4</ele>
        <time>2023-08-29T09:43:28Z</time>
      </trkpt>
      <trkpt lat="45.5372" lon="5.21221">
        <ele>444.4</ele>
        <time>2023-08-29T09:43:29Z</time>
      </trkpt>
      <trkpt lat="45.53721" lon="5.2123">
        <ele>444</ele>
        <time>2023-08-29T09:43:30Z</time>
      </trkpt>
      <trkpt lat="45.53722" lon="5.21239">
        <ele>443.8</ele>
        <time>2023-08-29T09:43:31Z</time>
      </trkpt>
      <trkpt lat="45.53723" lon="5.21248">
        <ele>443.8</ele>
        <time>2023-08-29T09:43:32Z</time>
      </trkpt>
      <trkpt lat="45.53723" lon="5.21257">
        <ele>443.8</ele>
        <time>2023-08-29T09:43:33Z</time>
      </trkpt>
      <trkpt lat="45.53724" lon="5.21266">
        <ele>443.6</ele>
        <time>2023-08-29T09:43:34Z</time>
      </trkpt>
      <trkpt lat="45.53724" lon="5.21274">
        <ele>443.6</ele>
        <time>2023-08-29T09:43:35Z</time>
      </trkpt>
      <trkpt lat="45.53724" lon="5.21283">
        <ele>443.4</ele>
        <time>2023-08-29T09:43:36Z</time>
      </trkpt>
      <trkpt lat="45.53724" lon="5.21292">
        <ele>443.4</ele>
        <time>2023-08-29T09:43:37Z</time>
      </trkpt>
      <trkpt lat="45.53724" lon="5.21301">
        <ele>443.4</ele>
        <time>2023-08-29T09:43:38Z</time>
      </trkpt>
      <trkpt lat="45.53724" lon="5.21309">
        <ele>443.2</ele>
        <time>2023-08-29T09:43:39Z</time>
      </trkpt>
      <trkpt lat="45.53724" lon="5.21318">
        <ele>443</ele>
        <time>2023-08-29T09:43:40Z</time>
      </trkpt>
      <trkpt lat="45.53724" lon="5.21326">
        <ele>443</ele>
        <time>2023-08-29T09:43:41Z</time>
      </trkpt>
      <trkpt lat="45.53724" lon="5.21335">
        <ele>442.8</ele>
        <time>2023-08-29T09:43:42Z</time>
      </trkpt>
      <trkpt lat="45.53724" lon="5.21343">
        <ele>442.8</ele>
        <time>2023-08-29T09:43:43Z</time>
      </trkpt>
      <trkpt lat="45.53725" lon="5.21351">
        <ele>442.8</ele>
        <time>2023-08-29T09:43:44Z</time>
      </trkpt>
      <trkpt lat="45.53724" lon="5.2136">
        <ele>442.8</ele>
        <time>2023-08-29T09:43:45Z</time>
      </trkpt>
      <trkpt lat="45.53724" lon="5.21368">
        <ele>442.8</ele>
        <time>2023-08-29T09:43:46Z</time>
      </trkpt>
      <trkpt lat="45.53725" lon="5.21377">
        <ele>442.6</ele>
        <time>2023-08-29T09:43:47Z</time>
      </trkpt>
      <trkpt lat="45.53725" lon="5.21386">
        <ele>442.6</ele>
        <time>2023-08-29T09:43:48Z</time>
      </trkpt>
      <trkpt lat="45.53725" lon="5.21395">
        <ele>442.6</ele>
        <time>2023-08-29T09:43:49Z</time>
      </trkpt>
      <trkpt lat="45.53725" lon="5.21404">
        <ele>442.4</ele>
        <time>2023-08-29T09:43:50Z</time>
      </trkpt>
      <trkpt lat="45.53725" lon="5.21413">
        <ele>442.2</ele>
        <time>2023-08-29T09:43:51Z</time>
      </trkpt>
      <trkpt lat="45.53725" lon="5.21422">
        <ele>442.2</ele>
        <time>2023-08-29T09:43:52Z</time>
      </trkpt>
      <trkpt lat="45.53725" lon="5.21431">
        <ele>442.2</ele>
        <time>2023-08-29T09:43:53Z</time>
      </trkpt>
      <trkpt lat="45.53725" lon="5.2144">
        <ele>442.2</ele>
        <time>2023-08-29T09:43:54Z</time>
      </trkpt>
      <trkpt lat="45.53725" lon="5.21448">
        <ele>442.2</ele>
        <time>2023-08-29T09:43:55Z</time>
      </trkpt>
      <trkpt lat="45.53725" lon="5.21457">
        <ele>442.2</ele>
        <time>2023-08-29T09:43:56Z</time>
      </trkpt>
      <trkpt lat="45.53725" lon="5.21465">
        <ele>442.2</ele>
        <time>2023-08-29T09:43:57Z</time>
      </trkpt>
      <trkpt lat="45.53725" lon="5.21474">
        <ele>442.2</ele>
        <time>2023-08-29T09:43:58Z</time>
      </trkpt>
      <trkpt lat="45.53725" lon="5.21482">
        <ele>442.2</ele>
        <time>2023-08-29T09:43:59Z</time>
      </trkpt>
      <trkpt lat="45.53725" lon="5.21491">
        <ele>442</ele>
        <time>2023-08-29T09:44:00Z</time>
      </trkpt>
      <trkpt lat="45.53725" lon="5.21499">
        <ele>442</ele>
        <time>2023-08-29T09:44:01Z</time>
      </trkpt>
      <trkpt lat="45.53725" lon="5.21507">
        <ele>442</ele>
        <time>2023-08-29T09:44:02Z</time>
      </trkpt>
      <trkpt lat="45.53725" lon="5.21515">
        <ele>442</ele>
        <time>2023-08-29T09:44:03Z</time>
      </trkpt>
      <trkpt lat="45.53725" lon="5.21524">
        <ele>442</ele>
        <time>2023-08-29T09:44:04Z</time>
      </trkpt>
      <trkpt lat="45.53725" lon="5.21532">
        <ele>442.2</ele>
        <time>2023-08-29T09:44:05Z</time>
      </trkpt>
      <trkpt lat="45.53726" lon="5.21541">
        <ele>442.2</ele>
        <time>2023-08-29T09:44:06Z</time>
      </trkpt>
      <trkpt lat="45.53726" lon="5.21549">
        <ele>442.2</ele>
        <time>2023-08-29T09:44:07Z</time>
      </trkpt>
      <trkpt lat="45.53726" lon="5.21558">
        <ele>442.2</ele>
        <time>2023-08-29T09:44:08Z</time>
      </trkpt>
      <trkpt lat="45.53726" lon="5.21567">
        <ele>442.2</ele>
        <time>2023-08-29T09:44:09Z</time>
      </trkpt>
      <trkpt lat="45.53726" lon="5.21576">
        <ele>442.2</ele>
        <time>2023-08-29T09:44:10Z</time>
      </trkpt>
      <trkpt lat="45.53726" lon="5.21584">
        <ele>442.2</ele>
        <time>2023-08-29T09:44:11Z</time>
      </trkpt>
      <trkpt lat="45.53727" lon="5.21593">
        <ele>442.2</ele>
        <time>2023-08-29T09:44:12Z</time>
      </trkpt>
      <trkpt lat="45.53728" lon="5.21602">
        <ele>442.2</ele>
        <time>2023-08-29T09:44:13Z</time>
      </trkpt>
      <trkpt lat="45.53729" lon="5.21611">
        <ele>442.2</ele>
        <time>2023-08-29T09:44:14Z</time>
      </trkpt>
      <trkpt lat="45.53731" lon="5.21619">
        <ele>442.2</ele>
        <time>2023-08-29T09:44:15Z</time>
      </trkpt>
      <trkpt lat="45.53732" lon="5.21627">
        <ele>442</ele>
        <time>2023-08-29T09:44:16Z</time>
      </trkpt>
      <trkpt lat="45.53734" lon="5.21635">
        <ele>442</ele>
        <time>2023-08-29T09:44:17Z</time>
      </trkpt>
      <trkpt lat="45.53736" lon="5.21643">
        <ele>442</ele>
        <time>2023-08-29T09:44:18Z</time>
      </trkpt>
      <trkpt lat="45.53739" lon="5.2165">
        <ele>442</ele>
        <time>2023-08-29T09:44:19Z</time>
      </trkpt>
      <trkpt lat="45.53741" lon="5.21657">
        <ele>442</ele>
        <time>2023-08-29T09:44:20Z</time>
      </trkpt>
      <trkpt lat="45.53744" lon="5.21665">
        <ele>442</ele>
        <time>2023-08-29T09:44:21Z</time>
      </trkpt>
      <trkpt lat="45.53747" lon="5.21673">
        <ele>442</ele>
        <time>2023-08-29T09:44:22Z</time>
      </trkpt>
      <trkpt lat="45.53749" lon="5.21681">
        <ele>441.8</ele>
        <time>2023-08-29T09:44:23Z</time>
      </trkpt>
      <trkpt lat="45.53752" lon="5.21689">
        <ele>441.8</ele>
        <time>2023-08-29T09:44:24Z</time>
      </trkpt>
      <trkpt lat="45.53755" lon="5.21696">
        <ele>441.6</ele>
        <time>2023-08-29T09:44:25Z</time>
      </trkpt>
      <trkpt lat="45.53757" lon="5.21705">
        <ele>441.4</ele>
        <time>2023-08-29T09:44:26Z</time>
      </trkpt>
      <trkpt lat="45.5376" lon="5.21713">
        <ele>441.2</ele>
        <time>2023-08-29T09:44:27Z</time>
      </trkpt>
      <trkpt lat="45.53763" lon="5.2172">
        <ele>441</ele>
        <time>2023-08-29T09:44:28Z</time>
      </trkpt>
      <trkpt lat="45.53766" lon="5.21728">
        <ele>440.8</ele>
        <time>2023-08-29T09:44:29Z</time>
      </trkpt>
      <trkpt lat="45.53768" lon="5.21735">
        <ele>440.8</ele>
        <time>2023-08-29T09:44:30Z</time>
      </trkpt>
      <trkpt lat="45.53771" lon="5.21744">
        <ele>440.8</ele>
        <time>2023-08-29T09:44:31Z</time>
      </trkpt>
      <trkpt lat="45.53774" lon="5.21752">
        <ele>440.6</ele>
        <time>2023-08-29T09:44:32Z</time>
      </trkpt>
      <trkpt lat="45.53777" lon="5.2176">
        <ele>440.4</ele>
        <time>2023-08-29T09:44:33Z</time>
      </trkpt>
      <trkpt lat="45.53779" lon="5.21768">
        <ele>440</ele>
        <time>2023-08-29T09:44:34Z</time>
      </trkpt>
      <trkpt lat="45.53782" lon="5.21777">
        <ele>440</ele>
        <time>2023-08-29T09:44:35Z</time>
      </trkpt>
      <trkpt lat="45.53784" lon="5.21785">
        <ele>439.8</ele>
        <time>2023-08-29T09:44:36Z</time>
      </trkpt>
      <trkpt lat="45.53786" lon="5.21794">
        <ele>439.6</ele>
        <time>2023-08-29T09:44:37Z</time>
      </trkpt>
      <trkpt lat="45.53789" lon="5.21802">
        <ele>439.6</ele>
        <time>2023-08-29T09:44:38Z</time>
      </trkpt>
      <trkpt lat="45.53791" lon="5.2181">
        <ele>439.6</ele>
        <time>2023-08-29T09:44:39Z</time>
      </trkpt>
      <trkpt lat="45.53794" lon="5.21819">
        <ele>439.4</ele>
        <time>2023-08-29T09:44:40Z</time>
      </trkpt>
      <trkpt lat="45.53797" lon="5.21828">
        <ele>439.4</ele>
        <time>2023-08-29T09:44:41Z</time>
      </trkpt>
      <trkpt lat="45.53799" lon="5.21837">
        <ele>439.4</ele>
        <time>2023-08-29T09:44:42Z</time>
      </trkpt>
      <trkpt lat="45.53802" lon="5.21845">
        <ele>439.2</ele>
        <time>2023-08-29T09:44:43Z</time>
      </trkpt>
      <trkpt lat="45.53805" lon="5.21854">
        <ele>439</ele>
        <time>2023-08-29T09:44:44Z</time>
      </trkpt>
      <trkpt lat="45.53808" lon="5.21863">
        <ele>438.8</ele>
        <time>2023-08-29T09:44:45Z</time>
      </trkpt>
      <trkpt lat="45.53811" lon="5.21871">
        <ele>438.8</ele>
        <time>2023-08-29T09:44:46Z</time>
      </trkpt>
      <trkpt lat="45.53815" lon="5.2188">
        <ele>438.6</ele>
        <time>2023-08-29T09:44:47Z</time>
      </trkpt>
      <trkpt lat="45.53818" lon="5.21888">
        <ele>438.4</ele>
        <time>2023-08-29T09:44:48Z</time>
      </trkpt>
      <trkpt lat="45.53823" lon="5.21896">
        <ele>438.2</ele>
        <time>2023-08-29T09:44:49Z</time>
      </trkpt>
      <trkpt lat="45.53827" lon="5.21904">
        <ele>438.2</ele>
        <time>2023-08-29T09:44:50Z</time>
      </trkpt>
      <trkpt lat="45.53832" lon="5.21911">
        <ele>438.2</ele>
        <time>2023-08-29T09:44:51Z</time>
      </trkpt>
      <trkpt lat="45.53836" lon="5.21918">
        <ele>438</ele>
        <time>2023-08-29T09:44:52Z</time>
      </trkpt>
      <trkpt lat="45.53841" lon="5.21925">
        <ele>437.8</ele>
        <time>2023-08-29T09:44:53Z</time>
      </trkpt>
      <trkpt lat="45.53845" lon="5.21931">
        <ele>437.6</ele>
        <time>2023-08-29T09:44:54Z</time>
      </trkpt>
      <trkpt lat="45.5385" lon="5.21938">
        <ele>437.4</ele>
        <time>2023-08-29T09:44:55Z</time>
      </trkpt>
      <trkpt lat="45.53854" lon="5.21945">
        <ele>437.2</ele>
        <time>2023-08-29T09:44:56Z</time>
      </trkpt>
      <trkpt lat="45.53858" lon="5.21952">
        <ele>437.2</ele>
        <time>2023-08-29T09:44:57Z</time>
      </trkpt>
      <trkpt lat="45.53861" lon="5.21958">
        <ele>436.6</ele>
        <time>2023-08-29T09:44:58Z</time>
      </trkpt>
      <trkpt lat="45.53865" lon="5.21965">
        <ele>436.6</ele>
        <time>2023-08-29T09:44:59Z</time>
      </trkpt>
      <trkpt lat="45.53869" lon="5.21971">
        <ele>436.6</ele>
        <time>2023-08-29T09:45:00Z</time>
      </trkpt>
      <trkpt lat="45.53873" lon="5.21976">
        <ele>436.6</ele>
        <time>2023-08-29T09:45:01Z</time>
      </trkpt>
      <trkpt lat="45.53877" lon="5.2198">
        <ele>436.6</ele>
        <time>2023-08-29T09:45:02Z</time>
      </trkpt>
      <trkpt lat="45.53881" lon="5.21985">
        <ele>436.6</ele>
        <time>2023-08-29T09:45:03Z</time>
      </trkpt>
      <trkpt lat="45.53885" lon="5.21989">
        <ele>436.8</ele>
        <time>2023-08-29T09:45:04Z</time>
      </trkpt>
      <trkpt lat="45.53889" lon="5.21994">
        <ele>436.8</ele>
        <time>2023-08-29T09:45:05Z</time>
      </trkpt>
      <trkpt lat="45.53893" lon="5.22">
        <ele>437</ele>
        <time>2023-08-29T09:45:06Z</time>
      </trkpt>
      <trkpt lat="45.53897" lon="5.22006">
        <ele>437</ele>
        <time>2023-08-29T09:45:07Z</time>
      </trkpt>
      <trkpt lat="45.53901" lon="5.22012">
        <ele>437</ele>
        <time>2023-08-29T09:45:08Z</time>
      </trkpt>
      <trkpt lat="45.53905" lon="5.22019">
        <ele>436.8</ele>
        <time>2023-08-29T09:45:09Z</time>
      </trkpt>
      <trkpt lat="45.53909" lon="5.22025">
        <ele>436.4</ele>
        <time>2023-08-29T09:45:10Z</time>
      </trkpt>
      <trkpt lat="45.53913" lon="5.22032">
        <ele>435.8</ele>
        <time>2023-08-29T09:45:11Z</time>
      </trkpt>
      <trkpt lat="45.53917" lon="5.22039">
        <ele>435.8</ele>
        <time>2023-08-29T09:45:12Z</time>
      </trkpt>
      <trkpt lat="45.53921" lon="5.22045">
        <ele>435.8</ele>
        <time>2023-08-29T09:45:13Z</time>
      </trkpt>
      <trkpt lat="45.53925" lon="5.22051">
        <ele>435.8</ele>
        <time>2023-08-29T09:45:14Z</time>
      </trkpt>
      <trkpt lat="45.53929" lon="5.22058">
        <ele>435.6</ele>
        <time>2023-08-29T09:45:15Z</time>
      </trkpt>
      <trkpt lat="45.53932" lon="5.22065">
        <ele>435.4</ele>
        <time>2023-08-29T09:45:16Z</time>
      </trkpt>
      <trkpt lat="45.53935" lon="5.22072">
        <ele>435.4</ele>
        <time>2023-08-29T09:45:17Z</time>
      </trkpt>
      <trkpt lat="45.53938" lon="5.22079">
        <ele>435.4</ele>
        <time>2023-08-29T09:45:18Z</time>
      </trkpt>
      <trkpt lat="45.53942" lon="5.22086">
        <ele>435.4</ele>
        <time>2023-08-29T09:45:19Z</time>
      </trkpt>
      <trkpt lat="45.53945" lon="5.22094">
        <ele>435</ele>
        <time>2023-08-29T09:45:20Z</time>
      </trkpt>
      <trkpt lat="45.53948" lon="5.22101">
        <ele>435</ele>
        <time>2023-08-29T09:45:21Z</time>
      </trkpt>
      <trkpt lat="45.53952" lon="5.22108">
        <ele>434.8</ele>
        <time>2023-08-29T09:45:22Z</time>
      </trkpt>
      <trkpt lat="45.53957" lon="5.22114">
        <ele>434.4</ele>
        <time>2023-08-29T09:45:23Z</time>
      </trkpt>
      <trkpt lat="45.53962" lon="5.22118">
        <ele>434.2</ele>
        <time>2023-08-29T09:45:24Z</time>
      </trkpt>
      <trkpt lat="45.53968" lon="5.22121">
        <ele>434</ele>
        <time>2023-08-29T09:45:25Z</time>
      </trkpt>
      <trkpt lat="45.53974" lon="5.22121">
        <ele>433.8</ele>
        <time>2023-08-29T09:45:26Z</time>
      </trkpt>
      <trkpt lat="45.53979" lon="5.22121">
        <ele>433.6</ele>
        <time>2023-08-29T09:45:27Z</time>
      </trkpt>
      <trkpt lat="45.53985" lon="5.2212">
        <ele>433.2</ele>
        <time>2023-08-29T09:45:28Z</time>
      </trkpt>
      <trkpt lat="45.5399" lon="5.22119">
        <ele>433.2</ele>
        <time>2023-08-29T09:45:29Z</time>
      </trkpt>
      <trkpt lat="45.53996" lon="5.22118">
        <ele>433</ele>
        <time>2023-08-29T09:45:30Z</time>
      </trkpt>
      <trkpt lat="45.54001" lon="5.22116">
        <ele>432.4</ele>
        <time>2023-08-29T09:45:31Z</time>
      </trkpt>
      <trkpt lat="45.54007" lon="5.22114">
        <ele>432.2</ele>
        <time>2023-08-29T09:45:32Z</time>
      </trkpt>
      <trkpt lat="45.54012" lon="5.22112">
        <ele>431.8</ele>
        <time>2023-08-29T09:45:33Z</time>
      </trkpt>
      <trkpt lat="45.54017" lon="5.22111">
        <ele>431.8</ele>
        <time>2023-08-29T09:45:34Z</time>
      </trkpt>
      <trkpt lat="45.54022" lon="5.2211">
        <ele>431.6</ele>
        <time>2023-08-29T09:45:35Z</time>
      </trkpt>
      <trkpt lat="45.54028" lon="5.2211">
        <ele>431.6</ele>
        <time>2023-08-29T09:45:36Z</time>
      </trkpt>
      <trkpt lat="45.54033" lon="5.2211">
        <ele>431.8</ele>
        <time>2023-08-29T09:45:37Z</time>
      </trkpt>
      <trkpt lat="45.54038" lon="5.22111">
        <ele>431.8</ele>
        <time>2023-08-29T09:45:38Z</time>
      </trkpt>
      <trkpt lat="45.54044" lon="5.22113">
        <ele>431.8</ele>
        <time>2023-08-29T09:45:39Z</time>
      </trkpt>
      <trkpt lat="45.54049" lon="5.22117">
        <ele>432</ele>
        <time>2023-08-29T09:45:40Z</time>
      </trkpt>
      <trkpt lat="45.54052" lon="5.22122">
        <ele>432.4</ele>
        <time>2023-08-29T09:45:41Z</time>
      </trkpt>
      <trkpt lat="45.54056" lon="5.22126">
        <ele>432.4</ele>
        <time>2023-08-29T09:45:42Z</time>
      </trkpt>
      <trkpt lat="45.54059" lon="5.22131">
        <ele>432.4</ele>
        <time>2023-08-29T09:45:43Z</time>
      </trkpt>
      <trkpt lat="45.54063" lon="5.22136">
        <ele>432.8</ele>
        <time>2023-08-29T09:45:44Z</time>
      </trkpt>
      <trkpt lat="45.54066" lon="5.2214">
        <ele>433</ele>
        <time>2023-08-29T09:45:45Z</time>
      </trkpt>
      <trkpt lat="45.54068" lon="5.22144">
        <ele>433</ele>
        <time>2023-08-29T09:45:46Z</time>
      </trkpt>
      <trkpt lat="45.54071" lon="5.22149">
        <ele>433</ele>
        <time>2023-08-29T09:45:47Z</time>
      </trkpt>
      <trkpt lat="45.54074" lon="5.22154">
        <ele>433.2</ele>
        <time>2023-08-29T09:45:48Z</time>
      </trkpt>
      <trkpt lat="45.54077" lon="5.22159">
        <ele>433.4</ele>
        <time>2023-08-29T09:45:49Z</time>
      </trkpt>
      <trkpt lat="45.5408" lon="5.22164">
        <ele>433.4</ele>
        <time>2023-08-29T09:45:50Z</time>
      </trkpt>
      <trkpt lat="45.54083" lon="5.22169">
        <ele>433.6</ele>
        <time>2023-08-29T09:45:51Z</time>
      </trkpt>
      <trkpt lat="45.54086" lon="5.22174">
        <ele>433.6</ele>
        <time>2023-08-29T09:45:52Z</time>
      </trkpt>
      <trkpt lat="45.5409" lon="5.22179">
        <ele>433.6</ele>
        <time>2023-08-29T09:45:53Z</time>
      </trkpt>
      <trkpt lat="45.54093" lon="5.22184">
        <ele>433.6</ele>
        <time>2023-08-29T09:45:54Z</time>
      </trkpt>
      <trkpt lat="45.54097" lon="5.22188">
        <ele>433.6</ele>
        <time>2023-08-29T09:45:55Z</time>
      </trkpt>
      <trkpt lat="45.541" lon="5.22193">
        <ele>433.6</ele>
        <time>2023-08-29T09:45:56Z</time>
      </trkpt>
      <trkpt lat="45.54104" lon="5.22198">
        <ele>433.6</ele>
        <time>2023-08-29T09:45:57Z</time>
      </trkpt>
      <trkpt lat="45.54108" lon="5.22202">
        <ele>433.2</ele>
        <time>2023-08-29T09:45:58Z</time>
      </trkpt>
      <trkpt lat="45.54112" lon="5.22207">
        <ele>433.2</ele>
        <time>2023-08-29T09:45:59Z</time>
      </trkpt>
      <trkpt lat="45.54116" lon="5.22212">
        <ele>433.2</ele>
        <time>2023-08-29T09:46:00Z</time>
      </trkpt>
      <trkpt lat="45.5412" lon="5.22217">
        <ele>433.2</ele>
        <time>2023-08-29T09:46:01Z</time>
      </trkpt>
      <trkpt lat="45.54124" lon="5.22222">
        <ele>433</ele>
        <time>2023-08-29T09:46:02Z</time>
      </trkpt>
      <trkpt lat="45.54128" lon="5.22227">
        <ele>432.8</ele>
        <time>2023-08-29T09:46:03Z</time>
      </trkpt>
      <trkpt lat="45.54132" lon="5.22231">
        <ele>432.8</ele>
        <time>2023-08-29T09:46:04Z</time>
      </trkpt>
      <trkpt lat="45.54136" lon="5.22236">
        <ele>432.6</ele>
        <time>2023-08-29T09:46:05Z</time>
      </trkpt>
      <trkpt lat="45.5414" lon="5.22241">
        <ele>432.6</ele>
        <time>2023-08-29T09:46:06Z</time>
      </trkpt>
      <trkpt lat="45.54144" lon="5.22245">
        <ele>432.4</ele>
        <time>2023-08-29T09:46:07Z</time>
      </trkpt>
      <trkpt lat="45.54148" lon="5.2225">
        <ele>432.4</ele>
        <time>2023-08-29T09:46:08Z</time>
      </trkpt>
      <trkpt lat="45.54153" lon="5.22254">
        <ele>432.2</ele>
        <time>2023-08-29T09:46:09Z</time>
      </trkpt>
      <trkpt lat="45.54157" lon="5.2226">
        <ele>432.2</ele>
        <time>2023-08-29T09:46:10Z</time>
      </trkpt>
      <trkpt lat="45.54162" lon="5.22267">
        <ele>432</ele>
        <time>2023-08-29T09:46:11Z</time>
      </trkpt>
      <trkpt lat="45.54167" lon="5.22273">
        <ele>431.6</ele>
        <time>2023-08-29T09:46:12Z</time>
      </trkpt>
      <trkpt lat="45.54172" lon="5.22279">
        <ele>431.6</ele>
        <time>2023-08-29T09:46:13Z</time>
      </trkpt>
      <trkpt lat="45.54177" lon="5.22285">
        <ele>431</ele>
        <time>2023-08-29T09:46:14Z</time>
      </trkpt>
      <trkpt lat="45.54183" lon="5.22292">
        <ele>430.4</ele>
        <time>2023-08-29T09:46:15Z</time>
      </trkpt>
      <trkpt lat="45.54189" lon="5.22299">
        <ele>429.8</ele>
        <time>2023-08-29T09:46:16Z</time>
      </trkpt>
      <trkpt lat="45.54195" lon="5.22305">
        <ele>429.2</ele>
        <time>2023-08-29T09:46:17Z</time>
      </trkpt>
      <trkpt lat="45.542" lon="5.22312">
        <ele>429</ele>
        <time>2023-08-29T09:46:18Z</time>
      </trkpt>
      <trkpt lat="45.54207" lon="5.22319">
        <ele>428.6</ele>
        <time>2023-08-29T09:46:19Z</time>
      </trkpt>
      <trkpt lat="45.54213" lon="5.22324">
        <ele>428.2</ele>
        <time>2023-08-29T09:46:20Z</time>
      </trkpt>
      <trkpt lat="45.54219" lon="5.2233">
        <ele>428.2</ele>
        <time>2023-08-29T09:46:21Z</time>
      </trkpt>
      <trkpt lat="45.54224" lon="5.22337">
        <ele>427.6</ele>
        <time>2023-08-29T09:46:22Z</time>
      </trkpt>
      <trkpt lat="45.54229" lon="5.22345">
        <ele>427.6</ele>
        <time>2023-08-29T09:46:23Z</time>
      </trkpt>
      <trkpt lat="45.54234" lon="5.22352">
        <ele>427.6</ele>
        <time>2023-08-29T09:46:24Z</time>
      </trkpt>
      <trkpt lat="45.54238" lon="5.2236">
        <ele>427.4</ele>
        <time>2023-08-29T09:46:25Z</time>
      </trkpt>
      <trkpt lat="45.54242" lon="5.22367">
        <ele>427.4</ele>
        <time>2023-08-29T09:46:26Z</time>
      </trkpt>
      <trkpt lat="45.54245" lon="5.22374">
        <ele>427.6</ele>
        <time>2023-08-29T09:46:27Z</time>
      </trkpt>
      <trkpt lat="45.5425" lon="5.22381">
        <ele>427.6</ele>
        <time>2023-08-29T09:46:28Z</time>
      </trkpt>
      <trkpt lat="45.54254" lon="5.22387">
        <ele>427.6</ele>
        <time>2023-08-29T09:46:29Z</time>
      </trkpt>
      <trkpt lat="45.54257" lon="5.22394">
        <ele>427.6</ele>
        <time>2023-08-29T09:46:30Z</time>
      </trkpt>
      <trkpt lat="45.54261" lon="5.22401">
        <ele>427.6</ele>
        <time>2023-08-29T09:46:31Z</time>
      </trkpt>
      <trkpt lat="45.54264" lon="5.22407">
        <ele>428</ele>
        <time>2023-08-29T09:46:32Z</time>
      </trkpt>
      <trkpt lat="45.54268" lon="5.22413">
        <ele>428.2</ele>
        <time>2023-08-29T09:46:33Z</time>
      </trkpt>
      <trkpt lat="45.54271" lon="5.22418">
        <ele>428.2</ele>
        <time>2023-08-29T09:46:34Z</time>
      </trkpt>
      <trkpt lat="45.54275" lon="5.22422">
        <ele>428.2</ele>
        <time>2023-08-29T09:46:35Z</time>
      </trkpt>
      <trkpt lat="45.54278" lon="5.22427">
        <ele>428.2</ele>
        <time>2023-08-29T09:46:36Z</time>
      </trkpt>
      <trkpt lat="45.54282" lon="5.22431">
        <ele>428.2</ele>
        <time>2023-08-29T09:46:37Z</time>
      </trkpt>
      <trkpt lat="45.54285" lon="5.22435">
        <ele>428.4</ele>
        <time>2023-08-29T09:46:38Z</time>
      </trkpt>
      <trkpt lat="45.54289" lon="5.2244">
        <ele>428.6</ele>
        <time>2023-08-29T09:46:39Z</time>
      </trkpt>
      <trkpt lat="45.54294" lon="5.22445">
        <ele>428.6</ele>
        <time>2023-08-29T09:46:40Z</time>
      </trkpt>
      <trkpt lat="45.54297" lon="5.2245">
        <ele>428.6</ele>
        <time>2023-08-29T09:46:41Z</time>
      </trkpt>
      <trkpt lat="45.54302" lon="5.22454">
        <ele>428.6</ele>
        <time>2023-08-29T09:46:42Z</time>
      </trkpt>
      <trkpt lat="45.54306" lon="5.22458">
        <ele>428.4</ele>
        <time>2023-08-29T09:46:43Z</time>
      </trkpt>
      <trkpt lat="45.54309" lon="5.22462">
        <ele>428.2</ele>
        <time>2023-08-29T09:46:44Z</time>
      </trkpt>
      <trkpt lat="45.54314" lon="5.22465">
        <ele>428.2</ele>
        <time>2023-08-29T09:46:45Z</time>
      </trkpt>
      <trkpt lat="45.54318" lon="5.22467">
        <ele>428.2</ele>
        <time>2023-08-29T09:46:46Z</time>
      </trkpt>
      <trkpt lat="45.54321" lon="5.22469">
        <ele>428</ele>
        <time>2023-08-29T09:46:47Z</time>
      </trkpt>
      <trkpt lat="45.54324" lon="5.22469">
        <ele>428</ele>
        <time>2023-08-29T09:46:48Z</time>
      </trkpt>
      <trkpt lat="45.54326" lon="5.2247">
        <ele>428</ele>
        <time>2023-08-29T09:46:49Z</time>
      </trkpt>
      <trkpt lat="45.54329" lon="5.22471">
        <ele>427.8</ele>
        <time>2023-08-29T09:46:50Z</time>
      </trkpt>
      <trkpt lat="45.54332" lon="5.22473">
        <ele>427.8</ele>
        <time>2023-08-29T09:46:51Z</time>
      </trkpt>
      <trkpt lat="45.54336" lon="5.22474">
        <ele>427.8</ele>
        <time>2023-08-29T09:46:52Z</time>
      </trkpt>
      <trkpt lat="45.54339" lon="5.22475">
        <ele>427.8</ele>
        <time>2023-08-29T09:46:53Z</time>
      </trkpt>
      <trkpt lat="45.54343" lon="5.22474">
        <ele>427.6</ele>
        <time>2023-08-29T09:46:54Z</time>
      </trkpt>
      <trkpt lat="45.54347" lon="5.22471">
        <ele>427.4</ele>
        <time>2023-08-29T09:46:55Z</time>
      </trkpt>
      <trkpt lat="45.5435" lon="5.2247">
        <ele>427.4</ele>
        <time>2023-08-29T09:46:56Z</time>
      </trkpt>
      <trkpt lat="45.54354" lon="5.22469">
        <ele>427</ele>
        <time>2023-08-29T09:46:57Z</time>
      </trkpt>
      <trkpt lat="45.54359" lon="5.22467">
        <ele>426.8</ele>
        <time>2023-08-29T09:46:58Z</time>
      </trkpt>
      <trkpt lat="45.54363" lon="5.22466">
        <ele>426.6</ele>
        <time>2023-08-29T09:46:59Z</time>
      </trkpt>
      <trkpt lat="45.54367" lon="5.22464">
        <ele>426.6</ele>
        <time>2023-08-29T09:47:00Z</time>
      </trkpt>
      <trkpt lat="45.54371" lon="5.22462">
        <ele>426.6</ele>
        <time>2023-08-29T09:47:01Z</time>
      </trkpt>
      <trkpt lat="45.54376" lon="5.2246">
        <ele>426.6</ele>
        <time>2023-08-29T09:47:02Z</time>
      </trkpt>
      <trkpt lat="45.5438" lon="5.22458">
        <ele>426.6</ele>
        <time>2023-08-29T09:47:03Z</time>
      </trkpt>
      <trkpt lat="45.54384" lon="5.22456">
        <ele>426.6</ele>
        <time>2023-08-29T09:47:04Z</time>
      </trkpt>
      <trkpt lat="45.54387" lon="5.22453">
        <ele>426.8</ele>
        <time>2023-08-29T09:47:05Z</time>
      </trkpt>
      <trkpt lat="45.54391" lon="5.22451">
        <ele>426.8</ele>
        <time>2023-08-29T09:47:06Z</time>
      </trkpt>
      <trkpt lat="45.54396" lon="5.22448">
        <ele>427.2</ele>
        <time>2023-08-29T09:47:07Z</time>
      </trkpt>
      <trkpt lat="45.54399" lon="5.22446">
        <ele>427.2</ele>
        <time>2023-08-29T09:47:08Z</time>
      </trkpt>
      <trkpt lat="45.54403" lon="5.22445">
        <ele>427.4</ele>
        <time>2023-08-29T09:47:09Z</time>
      </trkpt>
      <trkpt lat="45.54407" lon="5.22443">
        <ele>427.4</ele>
        <time>2023-08-29T09:47:10Z</time>
      </trkpt>
      <trkpt lat="45.5441" lon="5.22441">
        <ele>427.4</ele>
        <time>2023-08-29T09:47:11Z</time>
      </trkpt>
      <trkpt lat="45.54414" lon="5.2244">
        <ele>427.6</ele>
        <time>2023-08-29T09:47:12Z</time>
      </trkpt>
      <trkpt lat="45.54418" lon="5.22438">
        <ele>427.8</ele>
        <time>2023-08-29T09:47:13Z</time>
      </trkpt>
      <trkpt lat="45.54422" lon="5.22435">
        <ele>427.8</ele>
        <time>2023-08-29T09:47:14Z</time>
      </trkpt>
      <trkpt lat="45.54425" lon="5.22433">
        <ele>428</ele>
        <time>2023-08-29T09:47:15Z</time>
      </trkpt>
      <trkpt lat="45.54429" lon="5.22431">
        <ele>428</ele>
        <time>2023-08-29T09:47:16Z</time>
      </trkpt>
      <trkpt lat="45.54433" lon="5.22429">
        <ele>428.2</ele>
        <time>2023-08-29T09:47:17Z</time>
      </trkpt>
      <trkpt lat="45.54437" lon="5.22427">
        <ele>428.4</ele>
        <time>2023-08-29T09:47:18Z</time>
      </trkpt>
      <trkpt lat="45.54441" lon="5.22425">
        <ele>428.6</ele>
        <time>2023-08-29T09:47:19Z</time>
      </trkpt>
      <trkpt lat="45.54445" lon="5.22423">
        <ele>428.6</ele>
        <time>2023-08-29T09:47:20Z</time>
      </trkpt>
      <trkpt lat="45.54449" lon="5.22421">
        <ele>428.8</ele>
        <time>2023-08-29T09:47:21Z</time>
      </trkpt>
      <trkpt lat="45.54453" lon="5.22418">
        <ele>428.8</ele>
        <time>2023-08-29T09:47:22Z</time>
      </trkpt>
      <trkpt lat="45.54457" lon="5.22415">
        <ele>428.8</ele>
        <time>2023-08-29T09:47:23Z</time>
      </trkpt>
      <trkpt lat="45.54461" lon="5.22412">
        <ele>428.8</ele>
        <time>2023-08-29T09:47:24Z</time>
      </trkpt>
      <trkpt lat="45.54465" lon="5.2241">
        <ele>428.6</ele>
        <time>2023-08-29T09:47:25Z</time>
      </trkpt>
      <trkpt lat="45.54469" lon="5.22407">
        <ele>428.6</ele>
        <time>2023-08-29T09:47:26Z</time>
      </trkpt>
      <trkpt lat="45.54473" lon="5.22405">
        <ele>428.6</ele>
        <time>2023-08-29T09:47:27Z</time>
      </trkpt>
      <trkpt lat="45.54477" lon="5.22402">
        <ele>428.6</ele>
        <time>2023-08-29T09:47:28Z</time>
      </trkpt>
      <trkpt lat="45.54481" lon="5.22399">
        <ele>428.8</ele>
        <time>2023-08-29T09:47:29Z</time>
      </trkpt>
      <trkpt lat="45.54485" lon="5.22395">
        <ele>428.8</ele>
        <time>2023-08-29T09:47:30Z</time>
      </trkpt>
      <trkpt lat="45.54489" lon="5.22391">
        <ele>428.8</ele>
        <time>2023-08-29T09:47:31Z</time>
      </trkpt>
      <trkpt lat="45.54493" lon="5.22387">
        <ele>428.8</ele>
        <time>2023-08-29T09:47:32Z</time>
      </trkpt>
      <trkpt lat="45.54498" lon="5.22384">
        <ele>428.6</ele>
        <time>2023-08-29T09:47:33Z</time>
      </trkpt>
      <trkpt lat="45.54502" lon="5.22382">
        <ele>428.6</ele>
        <time>2023-08-29T09:47:34Z</time>
      </trkpt>
      <trkpt lat="45.54507" lon="5.2238">
        <ele>428.4</ele>
        <time>2023-08-29T09:47:35Z</time>
      </trkpt>
      <trkpt lat="45.54511" lon="5.22377">
        <ele>428.4</ele>
        <time>2023-08-29T09:47:36Z</time>
      </trkpt>
      <trkpt lat="45.54516" lon="5.22375">
        <ele>428.4</ele>
        <time>2023-08-29T09:47:37Z</time>
      </trkpt>
      <trkpt lat="45.54519" lon="5.22373">
        <ele>428.4</ele>
        <time>2023-08-29T09:47:38Z</time>
      </trkpt>
      <trkpt lat="45.54523" lon="5.22372">
        <ele>428.4</ele>
        <time>2023-08-29T09:47:39Z</time>
      </trkpt>
      <trkpt lat="45.54527" lon="5.2237">
        <ele>428.4</ele>
        <time>2023-08-29T09:47:40Z</time>
      </trkpt>
      <trkpt lat="45.54532" lon="5.22368">
        <ele>428.6</ele>
        <time>2023-08-29T09:47:41Z</time>
      </trkpt>
      <trkpt lat="45.54536" lon="5.22368">
        <ele>428.6</ele>
        <time>2023-08-29T09:47:42Z</time>
      </trkpt>
      <trkpt lat="45.54541" lon="5.22367">
        <ele>428.6</ele>
        <time>2023-08-29T09:47:43Z</time>
      </trkpt>
      <trkpt lat="45.54545" lon="5.22368">
        <ele>428.4</ele>
        <time>2023-08-29T09:47:44Z</time>
      </trkpt>
      <trkpt lat="45.5455" lon="5.22369">
        <ele>428.6</ele>
        <time>2023-08-29T09:47:45Z</time>
      </trkpt>
      <trkpt lat="45.54555" lon="5.22369">
        <ele>428.6</ele>
        <time>2023-08-29T09:47:46Z</time>
      </trkpt>
      <trkpt lat="45.5456" lon="5.2237">
        <ele>428.6</ele>
        <time>2023-08-29T09:47:47Z</time>
      </trkpt>
      <trkpt lat="45.54565" lon="5.22371">
        <ele>428.8</ele>
        <time>2023-08-29T09:47:48Z</time>
      </trkpt>
      <trkpt lat="45.54569" lon="5.22372">
        <ele>429</ele>
        <time>2023-08-29T09:47:49Z</time>
      </trkpt>
      <trkpt lat="45.54573" lon="5.22372">
        <ele>429.2</ele>
        <time>2023-08-29T09:47:50Z</time>
      </trkpt>
      <trkpt lat="45.54577" lon="5.22373">
        <ele>429.2</ele>
        <time>2023-08-29T09:47:51Z</time>
      </trkpt>
      <trkpt lat="45.54581" lon="5.22373">
        <ele>429.4</ele>
        <time>2023-08-29T09:47:52Z</time>
      </trkpt>
      <trkpt lat="45.54585" lon="5.22374">
        <ele>429.4</ele>
        <time>2023-08-29T09:47:53Z</time>
      </trkpt>
      <trkpt lat="45.54589" lon="5.22375">
        <ele>429.6</ele>
        <time>2023-08-29T09:47:54Z</time>
      </trkpt>
      <trkpt lat="45.54593" lon="5.22375">
        <ele>429.6</ele>
        <time>2023-08-29T09:47:55Z</time>
      </trkpt>
      <trkpt lat="45.54597" lon="5.22376">
        <ele>430</ele>
        <time>2023-08-29T09:47:56Z</time>
      </trkpt>
      <trkpt lat="45.546" lon="5.22377">
        <ele>430.4</ele>
        <time>2023-08-29T09:47:57Z</time>
      </trkpt>
      <trkpt lat="45.54604" lon="5.22379">
        <ele>430.4</ele>
        <time>2023-08-29T09:47:58Z</time>
      </trkpt>
      <trkpt lat="45.54607" lon="5.2238">
        <ele>430.6</ele>
        <time>2023-08-29T09:47:59Z</time>
      </trkpt>
      <trkpt lat="45.54611" lon="5.2238">
        <ele>430.6</ele>
        <time>2023-08-29T09:48:00Z</time>
      </trkpt>
      <trkpt lat="45.54615" lon="5.22382">
        <ele>431</ele>
        <time>2023-08-29T09:48:01Z</time>
      </trkpt>
      <trkpt lat="45.54619" lon="5.22383">
        <ele>431.4</ele>
        <time>2023-08-29T09:48:02Z</time>
      </trkpt>
      <trkpt lat="45.54622" lon="5.22384">
        <ele>431.8</ele>
        <time>2023-08-29T09:48:03Z</time>
      </trkpt>
      <trkpt lat="45.54626" lon="5.22385">
        <ele>432</ele>
        <time>2023-08-29T09:48:04Z</time>
      </trkpt>
      <trkpt lat="45.54629" lon="5.22385">
        <ele>432.6</ele>
        <time>2023-08-29T09:48:05Z</time>
      </trkpt>
      <trkpt lat="45.54632" lon="5.22386">
        <ele>433</ele>
        <time>2023-08-29T09:48:06Z</time>
      </trkpt>
      <trkpt lat="45.54636" lon="5.22388">
        <ele>433.6</ele>
        <time>2023-08-29T09:48:07Z</time>
      </trkpt>
      <trkpt lat="45.5464" lon="5.22389">
        <ele>434</ele>
        <time>2023-08-29T09:48:08Z</time>
      </trkpt>
      <trkpt lat="45.54644" lon="5.22391">
        <ele>434</ele>
        <time>2023-08-29T09:48:09Z</time>
      </trkpt>
      <trkpt lat="45.54648" lon="5.22392">
        <ele>434</ele>
        <time>2023-08-29T09:48:10Z</time>
      </trkpt>
      <trkpt lat="45.54653" lon="5.22394">
        <ele>434</ele>
        <time>2023-08-29T09:48:11Z</time>
      </trkpt>
      <trkpt lat="45.54657" lon="5.22394">
        <ele>434</ele>
        <time>2023-08-29T09:48:12Z</time>
      </trkpt>
      <trkpt lat="45.5466" lon="5.22395">
        <ele>434</ele>
        <time>2023-08-29T09:48:13Z</time>
      </trkpt>
      <trkpt lat="45.54664" lon="5.22396">
        <ele>434</ele>
        <time>2023-08-29T09:48:14Z</time>
      </trkpt>
      <trkpt lat="45.54668" lon="5.22396">
        <ele>434</ele>
        <time>2023-08-29T09:48:15Z</time>
      </trkpt>
      <trkpt lat="45.54671" lon="5.22397">
        <ele>434</ele>
        <time>2023-08-29T09:48:16Z</time>
      </trkpt>
      <trkpt lat="45.54675" lon="5.22398">
        <ele>434</ele>
        <time>2023-08-29T09:48:17Z</time>
      </trkpt>
      <trkpt lat="45.54679" lon="5.22399">
        <ele>434</ele>
        <time>2023-08-29T09:48:18Z</time>
      </trkpt>
      <trkpt lat="45.54682" lon="5.224">
        <ele>434</ele>
        <time>2023-08-29T09:48:19Z</time>
      </trkpt>
      <trkpt lat="45.54686" lon="5.22401">
        <ele>434.2</ele>
        <time>2023-08-29T09:48:20Z</time>
      </trkpt>
      <trkpt lat="45.5469" lon="5.22402">
        <ele>434.2</ele>
        <time>2023-08-29T09:48:21Z</time>
      </trkpt>
      <trkpt lat="45.54694" lon="5.22403">
        <ele>434.6</ele>
        <time>2023-08-29T09:48:22Z</time>
      </trkpt>
      <trkpt lat="45.54697" lon="5.22405">
        <ele>434.6</ele>
        <time>2023-08-29T09:48:23Z</time>
      </trkpt>
      <trkpt lat="45.547" lon="5.22406">
        <ele>434.6</ele>
        <time>2023-08-29T09:48:24Z</time>
      </trkpt>
      <trkpt lat="45.54704" lon="5.22407">
        <ele>434.6</ele>
        <time>2023-08-29T09:48:25Z</time>
      </trkpt>
      <trkpt lat="45.54708" lon="5.22408">
        <ele>434.6</ele>
        <time>2023-08-29T09:48:26Z</time>
      </trkpt>
      <trkpt lat="45.54711" lon="5.22409">
        <ele>434.8</ele>
        <time>2023-08-29T09:48:27Z</time>
      </trkpt>
      <trkpt lat="45.54714" lon="5.2241">
        <ele>434.8</ele>
        <time>2023-08-29T09:48:28Z</time>
      </trkpt>
      <trkpt lat="45.54715" lon="5.2241">
        <ele>434.8</ele>
        <time>2023-08-29T09:48:29Z</time>
      </trkpt>
      <trkpt lat="45.54717" lon="5.2241">
        <ele>435</ele>
        <time>2023-08-29T09:48:30Z</time>
      </trkpt>
      <trkpt lat="45.54719" lon="5.2241">
        <ele>435.2</ele>
        <time>2023-08-29T09:48:31Z</time>
      </trkpt>
      <trkpt lat="45.54719" lon="5.22411">
        <ele>435.6</ele>
        <time>2023-08-29T09:48:32Z</time>
      </trkpt>
      <trkpt lat="45.54719" lon="5.22411">
        <ele>435.6</ele>
        <time>2023-08-29T09:48:33Z</time>
      </trkpt>
      <trkpt lat="45.5472" lon="5.22411">
        <ele>435.6</ele>
        <time>2023-08-29T09:48:34Z</time>
      </trkpt>
      <trkpt lat="45.5472" lon="5.2241">
        <ele>435.6</ele>
        <time>2023-08-29T09:48:35Z</time>
      </trkpt>
      <trkpt lat="45.54724" lon="5.22409">
        <ele>435.2</ele>
        <time>2023-08-29T09:49:07Z</time>
      </trkpt>
      <trkpt lat="45.54726" lon="5.22409">
        <ele>435.2</ele>
        <time>2023-08-29T09:49:08Z</time>
      </trkpt>
      <trkpt lat="45.54727" lon="5.22408">
        <ele>435</ele>
        <time>2023-08-29T09:49:09Z</time>
      </trkpt>
      <trkpt lat="45.54729" lon="5.22407">
        <ele>435</ele>
        <time>2023-08-29T09:49:10Z</time>
      </trkpt>
      <trkpt lat="45.54732" lon="5.22406">
        <ele>435</ele>
        <time>2023-08-29T09:49:11Z</time>
      </trkpt>
      <trkpt lat="45.54735" lon="5.22406">
        <ele>435</ele>
        <time>2023-08-29T09:49:12Z</time>
      </trkpt>
      <trkpt lat="45.54739" lon="5.22405">
        <ele>434.8</ele>
        <time>2023-08-29T09:49:13Z</time>
      </trkpt>
      <trkpt lat="45.54742" lon="5.22404">
        <ele>434.8</ele>
        <time>2023-08-29T09:49:14Z</time>
      </trkpt>
      <trkpt lat="45.54745" lon="5.22403">
        <ele>434.8</ele>
        <time>2023-08-29T09:49:15Z</time>
      </trkpt>
      <trkpt lat="45.54748" lon="5.22401">
        <ele>435</ele>
        <time>2023-08-29T09:49:16Z</time>
      </trkpt>
      <trkpt lat="45.54752" lon="5.224">
        <ele>435</ele>
        <time>2023-08-29T09:49:17Z</time>
      </trkpt>
      <trkpt lat="45.54755" lon="5.22399">
        <ele>435</ele>
        <time>2023-08-29T09:49:18Z</time>
      </trkpt>
      <trkpt lat="45.54759" lon="5.22399">
        <ele>435</ele>
        <time>2023-08-29T09:49:19Z</time>
      </trkpt>
      <trkpt lat="45.54763" lon="5.224">
        <ele>435</ele>
        <time>2023-08-29T09:49:20Z</time>
      </trkpt>
      <trkpt lat="45.54767" lon="5.22401">
        <ele>435.2</ele>
        <time>2023-08-29T09:49:21Z</time>
      </trkpt>
      <trkpt lat="45.5477" lon="5.22402">
        <ele>435.2</ele>
        <time>2023-08-29T09:49:22Z</time>
      </trkpt>
      <trkpt lat="45.54774" lon="5.22404">
        <ele>435.6</ele>
        <time>2023-08-29T09:49:23Z</time>
      </trkpt>
      <trkpt lat="45.54777" lon="5.22405">
        <ele>435.6</ele>
        <time>2023-08-29T09:49:24Z</time>
      </trkpt>
      <trkpt lat="45.54781" lon="5.22407">
        <ele>436</ele>
        <time>2023-08-29T09:49:25Z</time>
      </trkpt>
      <trkpt lat="45.54784" lon="5.22409">
        <ele>436.2</ele>
        <time>2023-08-29T09:49:26Z</time>
      </trkpt>
      <trkpt lat="45.54788" lon="5.2241">
        <ele>436.2</ele>
        <time>2023-08-29T09:49:27Z</time>
      </trkpt>
      <trkpt lat="45.54791" lon="5.22412">
        <ele>436.2</ele>
        <time>2023-08-29T09:49:28Z</time>
      </trkpt>
      <trkpt lat="45.54794" lon="5.22412">
        <ele>436.2</ele>
        <time>2023-08-29T09:49:29Z</time>
      </trkpt>
      <trkpt lat="45.54798" lon="5.22414">
        <ele>436.6</ele>
        <time>2023-08-29T09:49:30Z</time>
      </trkpt>
      <trkpt lat="45.54803" lon="5.22415">
        <ele>437.2</ele>
        <time>2023-08-29T09:49:31Z</time>
      </trkpt>
      <trkpt lat="45.54807" lon="5.22416">
        <ele>437.2</ele>
        <time>2023-08-29T09:49:32Z</time>
      </trkpt>
      <trkpt lat="45.54811" lon="5.22416">
        <ele>437.6</ele>
        <time>2023-08-29T09:49:33Z</time>
      </trkpt>
      <trkpt lat="45.54815" lon="5.22416">
        <ele>438</ele>
        <time>2023-08-29T09:49:34Z</time>
      </trkpt>
      <trkpt lat="45.5482" lon="5.22416">
        <ele>438.2</ele>
        <time>2023-08-29T09:49:35Z</time>
      </trkpt>
      <trkpt lat="45.54824" lon="5.22415">
        <ele>438.4</ele>
        <time>2023-08-29T09:49:36Z</time>
      </trkpt>
      <trkpt lat="45.54828" lon="5.22414">
        <ele>438.4</ele>
        <time>2023-08-29T09:49:37Z</time>
      </trkpt>
      <trkpt lat="45.54832" lon="5.22412">
        <ele>438.6</ele>
        <time>2023-08-29T09:49:38Z</time>
      </trkpt>
      <trkpt lat="45.54836" lon="5.2241">
        <ele>438.6</ele>
        <time>2023-08-29T09:49:39Z</time>
      </trkpt>
      <trkpt lat="45.5484" lon="5.22409">
        <ele>438.6</ele>
        <time>2023-08-29T09:49:40Z</time>
      </trkpt>
      <trkpt lat="45.54845" lon="5.22406">
        <ele>438.8</ele>
        <time>2023-08-29T09:49:41Z</time>
      </trkpt>
      <trkpt lat="45.54849" lon="5.22403">
        <ele>438.8</ele>
        <time>2023-08-29T09:49:42Z</time>
      </trkpt>
      <trkpt lat="45.54853" lon="5.224">
        <ele>438.8</ele>
        <time>2023-08-29T09:49:43Z</time>
      </trkpt>
      <trkpt lat="45.54856" lon="5.22398">
        <ele>439</ele>
        <time>2023-08-29T09:49:44Z</time>
      </trkpt>
      <trkpt lat="45.5486" lon="5.22396">
        <ele>439.2</ele>
        <time>2023-08-29T09:49:45Z</time>
      </trkpt>
      <trkpt lat="45.54863" lon="5.22394">
        <ele>439.2</ele>
        <time>2023-08-29T09:49:46Z</time>
      </trkpt>
      <trkpt lat="45.54867" lon="5.22395">
        <ele>439.4</ele>
        <time>2023-08-29T09:49:47Z</time>
      </trkpt>
      <trkpt lat="45.54871" lon="5.22395">
        <ele>439.6</ele>
        <time>2023-08-29T09:49:48Z</time>
      </trkpt>
      <trkpt lat="45.54874" lon="5.22396">
        <ele>440</ele>
        <time>2023-08-29T09:49:49Z</time>
      </trkpt>
      <trkpt lat="45.54878" lon="5.22397">
        <ele>440.6</ele>
        <time>2023-08-29T09:49:50Z</time>
      </trkpt>
      <trkpt lat="45.54882" lon="5.22397">
        <ele>441</ele>
        <time>2023-08-29T09:49:51Z</time>
      </trkpt>
      <trkpt lat="45.54886" lon="5.22396">
        <ele>441.4</ele>
        <time>2023-08-29T09:49:52Z</time>
      </trkpt>
      <trkpt lat="45.54888" lon="5.22393">
        <ele>441.6</ele>
        <time>2023-08-29T09:49:53Z</time>
      </trkpt>
      <trkpt lat="45.54889" lon="5.22389">
        <ele>441.8</ele>
        <time>2023-08-29T09:49:54Z</time>
      </trkpt>
      <trkpt lat="45.5489" lon="5.22385">
        <ele>442.2</ele>
        <time>2023-08-29T09:49:55Z</time>
      </trkpt>
      <trkpt lat="45.5489" lon="5.2238">
        <ele>442.6</ele>
        <time>2023-08-29T09:49:56Z</time>
      </trkpt>
      <trkpt lat="45.54891" lon="5.22377">
        <ele>442.8</ele>
        <time>2023-08-29T09:49:57Z</time>
      </trkpt>
      <trkpt lat="45.5489" lon="5.22374">
        <ele>442.8</ele>
        <time>2023-08-29T09:49:58Z</time>
      </trkpt>
      <trkpt lat="45.5489" lon="5.22372">
        <ele>443</ele>
        <time>2023-08-29T09:49:59Z</time>
      </trkpt>
      <trkpt lat="45.5489" lon="5.22372">
        <ele>443</ele>
        <time>2023-08-29T09:50:00Z</time>
      </trkpt>
      <trkpt lat="45.54891" lon="5.22373">
        <ele>443</ele>
        <time>2023-08-29T09:50:01Z</time>
      </trkpt>
      <trkpt lat="45.54915" lon="5.22344">
        <ele>446.6</ele>
        <time>2023-08-29T09:50:54Z</time>
      </trkpt>
      <trkpt lat="45.54916" lon="5.22341">
        <ele>446.6</ele>
        <time>2023-08-29T09:50:55Z</time>
      </trkpt>
      <trkpt lat="45.54918" lon="5.22339">
        <ele>446.6</ele>
        <time>2023-08-29T09:50:56Z</time>
      </trkpt>
      <trkpt lat="45.5492" lon="5.22337">
        <ele>446.6</ele>
        <time>2023-08-29T09:50:57Z</time>
      </trkpt>
      <trkpt lat="45.54923" lon="5.22336">
        <ele>446.6</ele>
        <time>2023-08-29T09:50:58Z</time>
      </trkpt>
      <trkpt lat="45.54925" lon="5.22334">
        <ele>446.6</ele>
        <time>2023-08-29T09:50:59Z</time>
      </trkpt>
      <trkpt lat="45.54928" lon="5.22332">
        <ele>446.6</ele>
        <time>2023-08-29T09:51:00Z</time>
      </trkpt>
      <trkpt lat="45.5493" lon="5.22331">
        <ele>446.6</ele>
        <time>2023-08-29T09:51:01Z</time>
      </trkpt>
      <trkpt lat="45.54932" lon="5.22329">
        <ele>446.6</ele>
        <time>2023-08-29T09:51:02Z</time>
      </trkpt>
      <trkpt lat="45.54935" lon="5.22327">
        <ele>446.6</ele>
        <time>2023-08-29T09:51:03Z</time>
      </trkpt>
      <trkpt lat="45.54937" lon="5.22325">
        <ele>446.6</ele>
        <time>2023-08-29T09:51:04Z</time>
      </trkpt>
      <trkpt lat="45.5494" lon="5.22323">
        <ele>447</ele>
        <time>2023-08-29T09:51:05Z</time>
      </trkpt>
      <trkpt lat="45.54942" lon="5.2232">
        <ele>447</ele>
        <time>2023-08-29T09:51:06Z</time>
      </trkpt>
      <trkpt lat="45.54944" lon="5.22318">
        <ele>447</ele>
        <time>2023-08-29T09:51:07Z</time>
      </trkpt>
      <trkpt lat="45.54946" lon="5.22316">
        <ele>447.2</ele>
        <time>2023-08-29T09:51:08Z</time>
      </trkpt>
      <trkpt lat="45.54948" lon="5.22314">
        <ele>447.4</ele>
        <time>2023-08-29T09:51:09Z</time>
      </trkpt>
      <trkpt lat="45.54951" lon="5.22312">
        <ele>447.4</ele>
        <time>2023-08-29T09:51:10Z</time>
      </trkpt>
      <trkpt lat="45.54953" lon="5.22309">
        <ele>447.4</ele>
        <time>2023-08-29T09:51:11Z</time>
      </trkpt>
      <trkpt lat="45.54955" lon="5.22307">
        <ele>447.8</ele>
        <time>2023-08-29T09:51:12Z</time>
      </trkpt>
      <trkpt lat="45.54958" lon="5.22305">
        <ele>448.2</ele>
        <time>2023-08-29T09:51:13Z</time>
      </trkpt>
      <trkpt lat="45.5496" lon="5.22303">
        <ele>448.2</ele>
        <time>2023-08-29T09:51:14Z</time>
      </trkpt>
      <trkpt lat="45.54963" lon="5.22301">
        <ele>448.4</ele>
        <time>2023-08-29T09:51:15Z</time>
      </trkpt>
      <trkpt lat="45.54966" lon="5.22298">
        <ele>448.8</ele>
        <time>2023-08-29T09:51:16Z</time>
      </trkpt>
      <trkpt lat="45.54969" lon="5.22296">
        <ele>448.8</ele>
        <time>2023-08-29T09:51:17Z</time>
      </trkpt>
      <trkpt lat="45.54971" lon="5.22293">
        <ele>448.8</ele>
        <time>2023-08-29T09:51:18Z</time>
      </trkpt>
      <trkpt lat="45.54974" lon="5.2229">
        <ele>449</ele>
        <time>2023-08-29T09:51:19Z</time>
      </trkpt>
      <trkpt lat="45.54977" lon="5.22287">
        <ele>449</ele>
        <time>2023-08-29T09:51:20Z</time>
      </trkpt>
      <trkpt lat="45.5498" lon="5.22284">
        <ele>449</ele>
        <time>2023-08-29T09:51:21Z</time>
      </trkpt>
      <trkpt lat="45.54983" lon="5.22282">
        <ele>449</ele>
        <time>2023-08-29T09:51:22Z</time>
      </trkpt>
      <trkpt lat="45.54986" lon="5.22279">
        <ele>449.2</ele>
        <time>2023-08-29T09:51:23Z</time>
      </trkpt>
      <trkpt lat="45.54989" lon="5.22275">
        <ele>449.4</ele>
        <time>2023-08-29T09:51:24Z</time>
      </trkpt>
      <trkpt lat="45.54991" lon="5.22272">
        <ele>449.4</ele>
        <time>2023-08-29T09:51:25Z</time>
      </trkpt>
      <trkpt lat="45.54994" lon="5.22269">
        <ele>449.4</ele>
        <time>2023-08-29T09:51:26Z</time>
      </trkpt>
      <trkpt lat="45.54997" lon="5.22267">
        <ele>449.6</ele>
        <time>2023-08-29T09:51:27Z</time>
      </trkpt>
      <trkpt lat="45.55" lon="5.22264">
        <ele>449.6</ele>
        <time>2023-08-29T09:51:28Z</time>
      </trkpt>
      <trkpt lat="45.55003" lon="5.22261">
        <ele>449.6</ele>
        <time>2023-08-29T09:51:29Z</time>
      </trkpt>
      <trkpt lat="45.55007" lon="5.22258">
        <ele>449.8</ele>
        <time>2023-08-29T09:51:30Z</time>
      </trkpt>
      <trkpt lat="45.5501" lon="5.22255">
        <ele>449.8</ele>
        <time>2023-08-29T09:51:31Z</time>
      </trkpt>
      <trkpt lat="45.55014" lon="5.22252">
        <ele>449.8</ele>
        <time>2023-08-29T09:51:32Z</time>
      </trkpt>
      <trkpt lat="45.55016" lon="5.22249">
        <ele>449.8</ele>
        <time>2023-08-29T09:51:33Z</time>
      </trkpt>
      <trkpt lat="45.5502" lon="5.22246">
        <ele>449.8</ele>
        <time>2023-08-29T09:51:34Z</time>
      </trkpt>
      <trkpt lat="45.55023" lon="5.22244">
        <ele>449.8</ele>
        <time>2023-08-29T09:51:35Z</time>
      </trkpt>
      <trkpt lat="45.55026" lon="5.22241">
        <ele>450</ele>
        <time>2023-08-29T09:51:36Z</time>
      </trkpt>
      <trkpt lat="45.5503" lon="5.22238">
        <ele>450.2</ele>
        <time>2023-08-29T09:51:37Z</time>
      </trkpt>
      <trkpt lat="45.55033" lon="5.22234">
        <ele>450.2</ele>
        <time>2023-08-29T09:51:38Z</time>
      </trkpt>
      <trkpt lat="45.55035" lon="5.22231">
        <ele>450.2</ele>
        <time>2023-08-29T09:51:39Z</time>
      </trkpt>
      <trkpt lat="45.55037" lon="5.22228">
        <ele>450.2</ele>
        <time>2023-08-29T09:51:40Z</time>
      </trkpt>
      <trkpt lat="45.55041" lon="5.22226">
        <ele>450.2</ele>
        <time>2023-08-29T09:51:41Z</time>
      </trkpt>
      <trkpt lat="45.55043" lon="5.22223">
        <ele>450.2</ele>
        <time>2023-08-29T09:51:42Z</time>
      </trkpt>
      <trkpt lat="45.55046" lon="5.2222">
        <ele>450.2</ele>
        <time>2023-08-29T09:51:43Z</time>
      </trkpt>
      <trkpt lat="45.5505" lon="5.22216">
        <ele>450.2</ele>
        <time>2023-08-29T09:51:44Z</time>
      </trkpt>
      <trkpt lat="45.55053" lon="5.22213">
        <ele>450.2</ele>
        <time>2023-08-29T09:51:45Z</time>
      </trkpt>
      <trkpt lat="45.55056" lon="5.22211">
        <ele>450.2</ele>
        <time>2023-08-29T09:51:46Z</time>
      </trkpt>
      <trkpt lat="45.55059" lon="5.22208">
        <ele>450.2</ele>
        <time>2023-08-29T09:51:47Z</time>
      </trkpt>
      <trkpt lat="45.55062" lon="5.22205">
        <ele>450.6</ele>
        <time>2023-08-29T09:51:48Z</time>
      </trkpt>
      <trkpt lat="45.55065" lon="5.222">
        <ele>450.6</ele>
        <time>2023-08-29T09:51:49Z</time>
      </trkpt>
      <trkpt lat="45.55068" lon="5.22196">
        <ele>450.6</ele>
        <time>2023-08-29T09:51:50Z</time>
      </trkpt>
      <trkpt lat="45.55071" lon="5.22192">
        <ele>450.6</ele>
        <time>2023-08-29T09:51:51Z</time>
      </trkpt>
      <trkpt lat="45.55075" lon="5.22189">
        <ele>450.6</ele>
        <time>2023-08-29T09:51:52Z</time>
      </trkpt>
      <trkpt lat="45.5508" lon="5.22186">
        <ele>450.6</ele>
        <time>2023-08-29T09:51:53Z</time>
      </trkpt>
      <trkpt lat="45.55084" lon="5.22184">
        <ele>450.6</ele>
        <time>2023-08-29T09:51:54Z</time>
      </trkpt>
      <trkpt lat="45.55087" lon="5.22183">
        <ele>450.6</ele>
        <time>2023-08-29T09:51:55Z</time>
      </trkpt>
      <trkpt lat="45.55092" lon="5.22181">
        <ele>450.6</ele>
        <time>2023-08-29T09:51:56Z</time>
      </trkpt>
      <trkpt lat="45.55096" lon="5.2218">
        <ele>450.4</ele>
        <time>2023-08-29T09:51:57Z</time>
      </trkpt>
      <trkpt lat="45.55101" lon="5.22178">
        <ele>450.4</ele>
        <time>2023-08-29T09:51:58Z</time>
      </trkpt>
      <trkpt lat="45.55106" lon="5.22176">
        <ele>450.4</ele>
        <time>2023-08-29T09:51:59Z</time>
      </trkpt>
      <trkpt lat="45.55111" lon="5.22174">
        <ele>450.4</ele>
        <time>2023-08-29T09:52:00Z</time>
      </trkpt>
      <trkpt lat="45.55116" lon="5.22172">
        <ele>450.2</ele>
        <time>2023-08-29T09:52:01Z</time>
      </trkpt>
      <trkpt lat="45.55121" lon="5.2217">
        <ele>449.8</ele>
        <time>2023-08-29T09:52:02Z</time>
      </trkpt>
      <trkpt lat="45.55126" lon="5.22169">
        <ele>449.6</ele>
        <time>2023-08-29T09:52:03Z</time>
      </trkpt>
      <trkpt lat="45.55131" lon="5.22167">
        <ele>449.6</ele>
        <time>2023-08-29T09:52:04Z</time>
      </trkpt>
      <trkpt lat="45.55136" lon="5.22166">
        <ele>449.6</ele>
        <time>2023-08-29T09:52:05Z</time>
      </trkpt>
      <trkpt lat="45.55141" lon="5.22164">
        <ele>449.6</ele>
        <time>2023-08-29T09:52:06Z</time>
      </trkpt>
      <trkpt lat="45.55146" lon="5.22163">
        <ele>449.4</ele>
        <time>2023-08-29T09:52:07Z</time>
      </trkpt>
      <trkpt lat="45.55152" lon="5.22161">
        <ele>449.2</ele>
        <time>2023-08-29T09:52:08Z</time>
      </trkpt>
      <trkpt lat="45.55156" lon="5.22159">
        <ele>449</ele>
        <time>2023-08-29T09:52:09Z</time>
      </trkpt>
      <trkpt lat="45.55162" lon="5.22158">
        <ele>448.8</ele>
        <time>2023-08-29T09:52:10Z</time>
      </trkpt>
      <trkpt lat="45.55166" lon="5.22157">
        <ele>448.8</ele>
        <time>2023-08-29T09:52:11Z</time>
      </trkpt>
      <trkpt lat="45.55172" lon="5.22156">
        <ele>448.8</ele>
        <time>2023-08-29T09:52:12Z</time>
      </trkpt>
      <trkpt lat="45.55176" lon="5.22155">
        <ele>448.8</ele>
        <time>2023-08-29T09:52:13Z</time>
      </trkpt>
      <trkpt lat="45.55182" lon="5.22154">
        <ele>448.8</ele>
        <time>2023-08-29T09:52:14Z</time>
      </trkpt>
      <trkpt lat="45.55187" lon="5.22154">
        <ele>448.8</ele>
        <time>2023-08-29T09:52:15Z</time>
      </trkpt>
      <trkpt lat="45.55193" lon="5.22153">
        <ele>448.6</ele>
        <time>2023-08-29T09:52:16Z</time>
      </trkpt>
      <trkpt lat="45.55198" lon="5.22153">
        <ele>448.6</ele>
        <time>2023-08-29T09:52:17Z</time>
      </trkpt>
      <trkpt lat="45.55203" lon="5.22152">
        <ele>448.4</ele>
        <time>2023-08-29T09:52:18Z</time>
      </trkpt>
      <trkpt lat="45.55208" lon="5.22152">
        <ele>448.4</ele>
        <time>2023-08-29T09:52:19Z</time>
      </trkpt>
      <trkpt lat="45.55213" lon="5.22152">
        <ele>448.2</ele>
        <time>2023-08-29T09:52:20Z</time>
      </trkpt>
      <trkpt lat="45.55218" lon="5.22152">
        <ele>448.2</ele>
        <time>2023-08-29T09:52:21Z</time>
      </trkpt>
      <trkpt lat="45.55224" lon="5.22153">
        <ele>448.2</ele>
        <time>2023-08-29T09:52:22Z</time>
      </trkpt>
      <trkpt lat="45.55229" lon="5.22155">
        <ele>448.2</ele>
        <time>2023-08-29T09:52:23Z</time>
      </trkpt>
      <trkpt lat="45.55234" lon="5.22156">
        <ele>448.2</ele>
        <time>2023-08-29T09:52:24Z</time>
      </trkpt>
      <trkpt lat="45.5524" lon="5.22159">
        <ele>448.2</ele>
        <time>2023-08-29T09:52:25Z</time>
      </trkpt>
      <trkpt lat="45.55245" lon="5.22161">
        <ele>448.2</ele>
        <time>2023-08-29T09:52:26Z</time>
      </trkpt>
      <trkpt lat="45.5525" lon="5.22162">
        <ele>448.2</ele>
        <time>2023-08-29T09:52:27Z</time>
      </trkpt>
      <trkpt lat="45.55255" lon="5.22164">
        <ele>448</ele>
        <time>2023-08-29T09:52:28Z</time>
      </trkpt>
      <trkpt lat="45.5526" lon="5.22166">
        <ele>448</ele>
        <time>2023-08-29T09:52:29Z</time>
      </trkpt>
      <trkpt lat="45.55265" lon="5.22168">
        <ele>448</ele>
        <time>2023-08-29T09:52:30Z</time>
      </trkpt>
      <trkpt lat="45.5527" lon="5.22169">
        <ele>447.8</ele>
        <time>2023-08-29T09:52:31Z</time>
      </trkpt>
      <trkpt lat="45.55275" lon="5.22171">
        <ele>447.8</ele>
        <time>2023-08-29T09:52:32Z</time>
      </trkpt>
      <trkpt lat="45.5528" lon="5.22173">
        <ele>447.8</ele>
        <time>2023-08-29T09:52:33Z</time>
      </trkpt>
      <trkpt lat="45.55285" lon="5.22174">
        <ele>447.8</ele>
        <time>2023-08-29T09:52:34Z</time>
      </trkpt>
      <trkpt lat="45.5529" lon="5.22176">
        <ele>447.8</ele>
        <time>2023-08-29T09:52:35Z</time>
      </trkpt>
      <trkpt lat="45.55296" lon="5.22178">
        <ele>447.8</ele>
        <time>2023-08-29T09:52:36Z</time>
      </trkpt>
      <trkpt lat="45.55301" lon="5.2218">
        <ele>447.8</ele>
        <time>2023-08-29T09:52:37Z</time>
      </trkpt>
      <trkpt lat="45.55306" lon="5.22182">
        <ele>447.8</ele>
        <time>2023-08-29T09:52:38Z</time>
      </trkpt>
      <trkpt lat="45.55311" lon="5.22183">
        <ele>447.8</ele>
        <time>2023-08-29T09:52:39Z</time>
      </trkpt>
      <trkpt lat="45.55316" lon="5.22185">
        <ele>447.8</ele>
        <time>2023-08-29T09:52:40Z</time>
      </trkpt>
      <trkpt lat="45.55321" lon="5.22188">
        <ele>447.8</ele>
        <time>2023-08-29T09:52:41Z</time>
      </trkpt>
      <trkpt lat="45.55326" lon="5.2219">
        <ele>447.8</ele>
        <time>2023-08-29T09:52:42Z</time>
      </trkpt>
      <trkpt lat="45.55332" lon="5.22192">
        <ele>447.8</ele>
        <time>2023-08-29T09:52:43Z</time>
      </trkpt>
      <trkpt lat="45.55337" lon="5.22195">
        <ele>447.8</ele>
        <time>2023-08-29T09:52:44Z</time>
      </trkpt>
      <trkpt lat="45.55343" lon="5.22197">
        <ele>447.8</ele>
        <time>2023-08-29T09:52:45Z</time>
      </trkpt>
      <trkpt lat="45.55348" lon="5.222">
        <ele>447.8</ele>
        <time>2023-08-29T09:52:46Z</time>
      </trkpt>
      <trkpt lat="45.55354" lon="5.22203">
        <ele>447.6</ele>
        <time>2023-08-29T09:52:47Z</time>
      </trkpt>
      <trkpt lat="45.5536" lon="5.22206">
        <ele>447.4</ele>
        <time>2023-08-29T09:52:48Z</time>
      </trkpt>
      <trkpt lat="45.55364" lon="5.22211">
        <ele>447</ele>
        <time>2023-08-29T09:52:49Z</time>
      </trkpt>
      <trkpt lat="45.55369" lon="5.22216">
        <ele>446.4</ele>
        <time>2023-08-29T09:52:50Z</time>
      </trkpt>
      <trkpt lat="45.55373" lon="5.22222">
        <ele>446.4</ele>
        <time>2023-08-29T09:52:51Z</time>
      </trkpt>
      <trkpt lat="45.55377" lon="5.22228">
        <ele>446.2</ele>
        <time>2023-08-29T09:52:52Z</time>
      </trkpt>
      <trkpt lat="45.55379" lon="5.22235">
        <ele>446.2</ele>
        <time>2023-08-29T09:52:53Z</time>
      </trkpt>
      <trkpt lat="45.55382" lon="5.22241">
        <ele>446.2</ele>
        <time>2023-08-29T09:52:54Z</time>
      </trkpt>
      <trkpt lat="45.55386" lon="5.22248">
        <ele>446</ele>
        <time>2023-08-29T09:52:55Z</time>
      </trkpt>
      <trkpt lat="45.55389" lon="5.22254">
        <ele>445.8</ele>
        <time>2023-08-29T09:52:56Z</time>
      </trkpt>
      <trkpt lat="45.55392" lon="5.22261">
        <ele>445.8</ele>
        <time>2023-08-29T09:52:57Z</time>
      </trkpt>
      <trkpt lat="45.55394" lon="5.22268">
        <ele>445.8</ele>
        <time>2023-08-29T09:52:58Z</time>
      </trkpt>
      <trkpt lat="45.55397" lon="5.22275">
        <ele>446</ele>
        <time>2023-08-29T09:52:59Z</time>
      </trkpt>
      <trkpt lat="45.55401" lon="5.22282">
        <ele>446</ele>
        <time>2023-08-29T09:53:00Z</time>
      </trkpt>
      <trkpt lat="45.55404" lon="5.22288">
        <ele>446</ele>
        <time>2023-08-29T09:53:01Z</time>
      </trkpt>
      <trkpt lat="45.55407" lon="5.22294">
        <ele>446</ele>
        <time>2023-08-29T09:53:02Z</time>
      </trkpt>
      <trkpt lat="45.55411" lon="5.223">
        <ele>446.2</ele>
        <time>2023-08-29T09:53:03Z</time>
      </trkpt>
      <trkpt lat="45.55415" lon="5.22305">
        <ele>446.2</ele>
        <time>2023-08-29T09:53:04Z</time>
      </trkpt>
      <trkpt lat="45.55419" lon="5.2231">
        <ele>446.2</ele>
        <time>2023-08-29T09:53:05Z</time>
      </trkpt>
      <trkpt lat="45.55423" lon="5.22314">
        <ele>446.2</ele>
        <time>2023-08-29T09:53:06Z</time>
      </trkpt>
      <trkpt lat="45.55426" lon="5.22319">
        <ele>446.2</ele>
        <time>2023-08-29T09:53:07Z</time>
      </trkpt>
      <trkpt lat="45.5543" lon="5.22324">
        <ele>446.2</ele>
        <time>2023-08-29T09:53:08Z</time>
      </trkpt>
      <trkpt lat="45.55434" lon="5.22327">
        <ele>446.2</ele>
        <time>2023-08-29T09:53:09Z</time>
      </trkpt>
      <trkpt lat="45.55439" lon="5.22331">
        <ele>446.2</ele>
        <time>2023-08-29T09:53:10Z</time>
      </trkpt>
      <trkpt lat="45.55443" lon="5.22334">
        <ele>446.2</ele>
        <time>2023-08-29T09:53:11Z</time>
      </trkpt>
      <trkpt lat="45.55448" lon="5.22335">
        <ele>446.2</ele>
        <time>2023-08-29T09:53:12Z</time>
      </trkpt>
      <trkpt lat="45.55453" lon="5.22336">
        <ele>446.2</ele>
        <time>2023-08-29T09:53:13Z</time>
      </trkpt>
      <trkpt lat="45.55457" lon="5.22336">
        <ele>446.2</ele>
        <time>2023-08-29T09:53:14Z</time>
      </trkpt>
      <trkpt lat="45.55462" lon="5.22335">
        <ele>446.2</ele>
        <time>2023-08-29T09:53:15Z</time>
      </trkpt>
      <trkpt lat="45.55467" lon="5.22333">
        <ele>446.2</ele>
        <time>2023-08-29T09:53:16Z</time>
      </trkpt>
      <trkpt lat="45.55472" lon="5.22332">
        <ele>446.2</ele>
        <time>2023-08-29T09:53:17Z</time>
      </trkpt>
      <trkpt lat="45.55477" lon="5.2233">
        <ele>446.2</ele>
        <time>2023-08-29T09:53:18Z</time>
      </trkpt>
      <trkpt lat="45.55482" lon="5.22328">
        <ele>446.4</ele>
        <time>2023-08-29T09:53:19Z</time>
      </trkpt>
      <trkpt lat="45.55487" lon="5.22326">
        <ele>446.4</ele>
        <time>2023-08-29T09:53:20Z</time>
      </trkpt>
      <trkpt lat="45.55491" lon="5.22324">
        <ele>446.4</ele>
        <time>2023-08-29T09:53:21Z</time>
      </trkpt>
      <trkpt lat="45.55496" lon="5.22322">
        <ele>446.4</ele>
        <time>2023-08-29T09:53:22Z</time>
      </trkpt>
      <trkpt lat="45.55501" lon="5.2232">
        <ele>446.2</ele>
        <time>2023-08-29T09:53:23Z</time>
      </trkpt>
      <trkpt lat="45.55506" lon="5.2232">
        <ele>446.2</ele>
        <time>2023-08-29T09:53:24Z</time>
      </trkpt>
      <trkpt lat="45.5551" lon="5.22319">
        <ele>446</ele>
        <time>2023-08-29T09:53:25Z</time>
      </trkpt>
      <trkpt lat="45.55515" lon="5.2232">
        <ele>446</ele>
        <time>2023-08-29T09:53:26Z</time>
      </trkpt>
      <trkpt lat="45.5552" lon="5.2232">
        <ele>446</ele>
        <time>2023-08-29T09:53:27Z</time>
      </trkpt>
      <trkpt lat="45.55524" lon="5.22321">
        <ele>446</ele>
        <time>2023-08-29T09:53:28Z</time>
      </trkpt>
      <trkpt lat="45.55529" lon="5.22321">
        <ele>446</ele>
        <time>2023-08-29T09:53:29Z</time>
      </trkpt>
      <trkpt lat="45.55535" lon="5.22321">
        <ele>445.8</ele>
        <time>2023-08-29T09:53:30Z</time>
      </trkpt>
      <trkpt lat="45.55541" lon="5.2232">
        <ele>445.8</ele>
        <time>2023-08-29T09:53:31Z</time>
      </trkpt>
      <trkpt lat="45.55546" lon="5.22319">
        <ele>445.8</ele>
        <time>2023-08-29T09:53:32Z</time>
      </trkpt>
      <trkpt lat="45.55551" lon="5.22317">
        <ele>445.4</ele>
        <time>2023-08-29T09:53:33Z</time>
      </trkpt>
      <trkpt lat="45.55556" lon="5.22313">
        <ele>445.4</ele>
        <time>2023-08-29T09:53:34Z</time>
      </trkpt>
      <trkpt lat="45.5556" lon="5.22309">
        <ele>445.4</ele>
        <time>2023-08-29T09:53:35Z</time>
      </trkpt>
      <trkpt lat="45.55565" lon="5.22304">
        <ele>445.4</ele>
        <time>2023-08-29T09:53:36Z</time>
      </trkpt>
      <trkpt lat="45.55569" lon="5.223">
        <ele>445.6</ele>
        <time>2023-08-29T09:53:37Z</time>
      </trkpt>
      <trkpt lat="45.55573" lon="5.22295">
        <ele>445.6</ele>
        <time>2023-08-29T09:53:38Z</time>
      </trkpt>
      <trkpt lat="45.55577" lon="5.2229">
        <ele>445.6</ele>
        <time>2023-08-29T09:53:39Z</time>
      </trkpt>
      <trkpt lat="45.55581" lon="5.22285">
        <ele>445.6</ele>
        <time>2023-08-29T09:53:40Z</time>
      </trkpt>
      <trkpt lat="45.55585" lon="5.2228">
        <ele>445.4</ele>
        <time>2023-08-29T09:53:41Z</time>
      </trkpt>
      <trkpt lat="45.55589" lon="5.22275">
        <ele>445.4</ele>
        <time>2023-08-29T09:53:42Z</time>
      </trkpt>
      <trkpt lat="45.55593" lon="5.2227">
        <ele>445.2</ele>
        <time>2023-08-29T09:53:43Z</time>
      </trkpt>
      <trkpt lat="45.55597" lon="5.22265">
        <ele>445.2</ele>
        <time>2023-08-29T09:53:44Z</time>
      </trkpt>
      <trkpt lat="45.55601" lon="5.22261">
        <ele>445.2</ele>
        <time>2023-08-29T09:53:45Z</time>
      </trkpt>
      <trkpt lat="45.55605" lon="5.22257">
        <ele>445.2</ele>
        <time>2023-08-29T09:53:46Z</time>
      </trkpt>
      <trkpt lat="45.55609" lon="5.22253">
        <ele>445.2</ele>
        <time>2023-08-29T09:53:47Z</time>
      </trkpt>
      <trkpt lat="45.55612" lon="5.2225">
        <ele>445.2</ele>
        <time>2023-08-29T09:53:48Z</time>
      </trkpt>
      <trkpt lat="45.55615" lon="5.22248">
        <ele>445.2</ele>
        <time>2023-08-29T09:53:49Z</time>
      </trkpt>
      <trkpt lat="45.55618" lon="5.22245">
        <ele>445.2</ele>
        <time>2023-08-29T09:53:50Z</time>
      </trkpt>
      <trkpt lat="45.55622" lon="5.22242">
        <ele>445.2</ele>
        <time>2023-08-29T09:53:51Z</time>
      </trkpt>
      <trkpt lat="45.55626" lon="5.2224">
        <ele>445.2</ele>
        <time>2023-08-29T09:53:52Z</time>
      </trkpt>
      <trkpt lat="45.5563" lon="5.22238">
        <ele>445.2</ele>
        <time>2023-08-29T09:53:53Z</time>
      </trkpt>
      <trkpt lat="45.55634" lon="5.22238">
        <ele>445.2</ele>
        <time>2023-08-29T09:53:54Z</time>
      </trkpt>
      <trkpt lat="45.55639" lon="5.22238">
        <ele>445.2</ele>
        <time>2023-08-29T09:53:55Z</time>
      </trkpt>
      <trkpt lat="45.55643" lon="5.22239">
        <ele>445.2</ele>
        <time>2023-08-29T09:53:56Z</time>
      </trkpt>
      <trkpt lat="45.55648" lon="5.22241">
        <ele>445.6</ele>
        <time>2023-08-29T09:53:57Z</time>
      </trkpt>
      <trkpt lat="45.55653" lon="5.22245">
        <ele>445.8</ele>
        <time>2023-08-29T09:53:58Z</time>
      </trkpt>
      <trkpt lat="45.55657" lon="5.22248">
        <ele>445.8</ele>
        <time>2023-08-29T09:53:59Z</time>
      </trkpt>
      <trkpt lat="45.55661" lon="5.22253">
        <ele>446</ele>
        <time>2023-08-29T09:54:00Z</time>
      </trkpt>
      <trkpt lat="45.55665" lon="5.22258">
        <ele>446</ele>
        <time>2023-08-29T09:54:01Z</time>
      </trkpt>
      <trkpt lat="45.55669" lon="5.22263">
        <ele>446</ele>
        <time>2023-08-29T09:54:02Z</time>
      </trkpt>
      <trkpt lat="45.55673" lon="5.22269">
        <ele>446</ele>
        <time>2023-08-29T09:54:03Z</time>
      </trkpt>
      <trkpt lat="45.55676" lon="5.22274">
        <ele>446</ele>
        <time>2023-08-29T09:54:04Z</time>
      </trkpt>
      <trkpt lat="45.55679" lon="5.2228">
        <ele>446</ele>
        <time>2023-08-29T09:54:05Z</time>
      </trkpt>
      <trkpt lat="45.55682" lon="5.22286">
        <ele>446</ele>
        <time>2023-08-29T09:54:06Z</time>
      </trkpt>
      <trkpt lat="45.55685" lon="5.22291">
        <ele>446</ele>
        <time>2023-08-29T09:54:07Z</time>
      </trkpt>
      <trkpt lat="45.55688" lon="5.22296">
        <ele>445.8</ele>
        <time>2023-08-29T09:54:08Z</time>
      </trkpt>
      <trkpt lat="45.55691" lon="5.22301">
        <ele>445.8</ele>
        <time>2023-08-29T09:54:09Z</time>
      </trkpt>
      <trkpt lat="45.55694" lon="5.22306">
        <ele>445.6</ele>
        <time>2023-08-29T09:54:10Z</time>
      </trkpt>
      <trkpt lat="45.55698" lon="5.22312">
        <ele>445.4</ele>
        <time>2023-08-29T09:54:11Z</time>
      </trkpt>
      <trkpt lat="45.55701" lon="5.22317">
        <ele>445.2</ele>
        <time>2023-08-29T09:54:12Z</time>
      </trkpt>
      <trkpt lat="45.55704" lon="5.22323">
        <ele>445</ele>
        <time>2023-08-29T09:54:13Z</time>
      </trkpt>
      <trkpt lat="45.55707" lon="5.22329">
        <ele>445</ele>
        <time>2023-08-29T09:54:14Z</time>
      </trkpt>
      <trkpt lat="45.5571" lon="5.22334">
        <ele>445</ele>
        <time>2023-08-29T09:54:15Z</time>
      </trkpt>
      <trkpt lat="45.55714" lon="5.2234">
        <ele>445</ele>
        <time>2023-08-29T09:54:16Z</time>
      </trkpt>
      <trkpt lat="45.55717" lon="5.22346">
        <ele>445</ele>
        <time>2023-08-29T09:54:17Z</time>
      </trkpt>
      <trkpt lat="45.55719" lon="5.22351">
        <ele>445</ele>
        <time>2023-08-29T09:54:18Z</time>
      </trkpt>
      <trkpt lat="45.55722" lon="5.22357">
        <ele>445</ele>
        <time>2023-08-29T09:54:19Z</time>
      </trkpt>
      <trkpt lat="45.55724" lon="5.22364">
        <ele>445</ele>
        <time>2023-08-29T09:54:20Z</time>
      </trkpt>
      <trkpt lat="45.55727" lon="5.2237">
        <ele>444.8</ele>
        <time>2023-08-29T09:54:21Z</time>
      </trkpt>
      <trkpt lat="45.5573" lon="5.22378">
        <ele>444.8</ele>
        <time>2023-08-29T09:54:22Z</time>
      </trkpt>
      <trkpt lat="45.55731" lon="5.22385">
        <ele>444.8</ele>
        <time>2023-08-29T09:54:23Z</time>
      </trkpt>
      <trkpt lat="45.55733" lon="5.22392">
        <ele>444.8</ele>
        <time>2023-08-29T09:54:24Z</time>
      </trkpt>
      <trkpt lat="45.55734" lon="5.22399">
        <ele>444.4</ele>
        <time>2023-08-29T09:54:25Z</time>
      </trkpt>
      <trkpt lat="45.55735" lon="5.22406">
        <ele>444.4</ele>
        <time>2023-08-29T09:54:26Z</time>
      </trkpt>
      <trkpt lat="45.55735" lon="5.22414">
        <ele>444.4</ele>
        <time>2023-08-29T09:54:27Z</time>
      </trkpt>
      <trkpt lat="45.55735" lon="5.22422">
        <ele>444.4</ele>
        <time>2023-08-29T09:54:28Z</time>
      </trkpt>
      <trkpt lat="45.55735" lon="5.22429">
        <ele>444.2</ele>
        <time>2023-08-29T09:54:29Z</time>
      </trkpt>
      <trkpt lat="45.55734" lon="5.22438">
        <ele>444</ele>
        <time>2023-08-29T09:54:30Z</time>
      </trkpt>
      <trkpt lat="45.55733" lon="5.22446">
        <ele>443.2</ele>
        <time>2023-08-29T09:54:31Z</time>
      </trkpt>
      <trkpt lat="45.55733" lon="5.22454">
        <ele>443</ele>
        <time>2023-08-29T09:54:32Z</time>
      </trkpt>
      <trkpt lat="45.55733" lon="5.22461">
        <ele>443</ele>
        <time>2023-08-29T09:54:33Z</time>
      </trkpt>
      <trkpt lat="45.55735" lon="5.22469">
        <ele>442.6</ele>
        <time>2023-08-29T09:54:34Z</time>
      </trkpt>
      <trkpt lat="45.55739" lon="5.22474">
        <ele>442.4</ele>
        <time>2023-08-29T09:54:35Z</time>
      </trkpt>
      <trkpt lat="45.55744" lon="5.22478">
        <ele>442.4</ele>
        <time>2023-08-29T09:54:36Z</time>
      </trkpt>
      <trkpt lat="45.55748" lon="5.2248">
        <ele>442.2</ele>
        <time>2023-08-29T09:54:37Z</time>
      </trkpt>
      <trkpt lat="45.55751" lon="5.22481">
        <ele>442</ele>
        <time>2023-08-29T09:54:38Z</time>
      </trkpt>
      <trkpt lat="45.55753" lon="5.22484">
        <ele>442</ele>
        <time>2023-08-29T09:54:39Z</time>
      </trkpt>
      <trkpt lat="45.55755" lon="5.22488">
        <ele>442</ele>
        <time>2023-08-29T09:54:40Z</time>
      </trkpt>
      <trkpt lat="45.55756" lon="5.22492">
        <ele>442</ele>
        <time>2023-08-29T09:54:41Z</time>
      </trkpt>
      <trkpt lat="45.55755" lon="5.22497">
        <ele>442.4</ele>
        <time>2023-08-29T09:54:42Z</time>
      </trkpt>
      <trkpt lat="45.55753" lon="5.22502">
        <ele>442.4</ele>
        <time>2023-08-29T09:54:43Z</time>
      </trkpt>
      <trkpt lat="45.55751" lon="5.22506">
        <ele>442.6</ele>
        <time>2023-08-29T09:54:44Z</time>
      </trkpt>
      <trkpt lat="45.55749" lon="5.2251">
        <ele>442.6</ele>
        <time>2023-08-29T09:54:45Z</time>
      </trkpt>
      <trkpt lat="45.55747" lon="5.22515">
        <ele>442.6</ele>
        <time>2023-08-29T09:54:46Z</time>
      </trkpt>
      <trkpt lat="45.55745" lon="5.2252">
        <ele>442.4</ele>
        <time>2023-08-29T09:54:47Z</time>
      </trkpt>
      <trkpt lat="45.55743" lon="5.22526">
        <ele>442.4</ele>
        <time>2023-08-29T09:54:48Z</time>
      </trkpt>
      <trkpt lat="45.55742" lon="5.22532">
        <ele>442.4</ele>
        <time>2023-08-29T09:54:49Z</time>
      </trkpt>
      <trkpt lat="45.55741" lon="5.22538">
        <ele>442</ele>
        <time>2023-08-29T09:54:50Z</time>
      </trkpt>
      <trkpt lat="45.55741" lon="5.22545">
        <ele>441.8</ele>
        <time>2023-08-29T09:54:51Z</time>
      </trkpt>
      <trkpt lat="45.55741" lon="5.22551">
        <ele>441.8</ele>
        <time>2023-08-29T09:54:52Z</time>
      </trkpt>
      <trkpt lat="45.5574" lon="5.22558">
        <ele>441.6</ele>
        <time>2023-08-29T09:54:53Z</time>
      </trkpt>
      <trkpt lat="45.5574" lon="5.22566">
        <ele>441.6</ele>
        <time>2023-08-29T09:54:54Z</time>
      </trkpt>
      <trkpt lat="45.55739" lon="5.22574">
        <ele>441.6</ele>
        <time>2023-08-29T09:54:55Z</time>
      </trkpt>
      <trkpt lat="45.55739" lon="5.22583">
        <ele>441.4</ele>
        <time>2023-08-29T09:54:56Z</time>
      </trkpt>
      <trkpt lat="45.55739" lon="5.22592">
        <ele>441</ele>
        <time>2023-08-29T09:54:57Z</time>
      </trkpt>
      <trkpt lat="45.55738" lon="5.22601">
        <ele>440.8</ele>
        <time>2023-08-29T09:54:58Z</time>
      </trkpt>
      <trkpt lat="45.55738" lon="5.22611">
        <ele>440.8</ele>
        <time>2023-08-29T09:54:59Z</time>
      </trkpt>
      <trkpt lat="45.55737" lon="5.22621">
        <ele>440.4</ele>
        <time>2023-08-29T09:55:00Z</time>
      </trkpt>
      <trkpt lat="45.55736" lon="5.22631">
        <ele>439.8</ele>
        <time>2023-08-29T09:55:01Z</time>
      </trkpt>
      <trkpt lat="45.55735" lon="5.2264">
        <ele>439.4</ele>
        <time>2023-08-29T09:55:02Z</time>
      </trkpt>
      <trkpt lat="45.55735" lon="5.22647">
        <ele>438.8</ele>
        <time>2023-08-29T09:55:03Z</time>
      </trkpt>
      <trkpt lat="45.55735" lon="5.22653">
        <ele>438</ele>
        <time>2023-08-29T09:55:04Z</time>
      </trkpt>
      <trkpt lat="45.55736" lon="5.22658">
        <ele>437.8</ele>
        <time>2023-08-29T09:55:05Z</time>
      </trkpt>
      <trkpt lat="45.55739" lon="5.22664">
        <ele>437.4</ele>
        <time>2023-08-29T09:55:06Z</time>
      </trkpt>
      <trkpt lat="45.55743" lon="5.22667">
        <ele>437.2</ele>
        <time>2023-08-29T09:55:07Z</time>
      </trkpt>
      <trkpt lat="45.55746" lon="5.2267">
        <ele>437</ele>
        <time>2023-08-29T09:55:08Z</time>
      </trkpt>
      <trkpt lat="45.5575" lon="5.22672">
        <ele>436.8</ele>
        <time>2023-08-29T09:55:09Z</time>
      </trkpt>
      <trkpt lat="45.55754" lon="5.22674">
        <ele>436.6</ele>
        <time>2023-08-29T09:55:10Z</time>
      </trkpt>
      <trkpt lat="45.55759" lon="5.22676">
        <ele>436.2</ele>
        <time>2023-08-29T09:55:11Z</time>
      </trkpt>
      <trkpt lat="45.55763" lon="5.22678">
        <ele>436.2</ele>
        <time>2023-08-29T09:55:12Z</time>
      </trkpt>
      <trkpt lat="45.55768" lon="5.2268">
        <ele>436.2</ele>
        <time>2023-08-29T09:55:13Z</time>
      </trkpt>
      <trkpt lat="45.55773" lon="5.22683">
        <ele>436.2</ele>
        <time>2023-08-29T09:55:14Z</time>
      </trkpt>
      <trkpt lat="45.55778" lon="5.22685">
        <ele>436.2</ele>
        <time>2023-08-29T09:55:15Z</time>
      </trkpt>
      <trkpt lat="45.55784" lon="5.22687">
        <ele>436.4</ele>
        <time>2023-08-29T09:55:16Z</time>
      </trkpt>
      <trkpt lat="45.55789" lon="5.22689">
        <ele>436.4</ele>
        <time>2023-08-29T09:55:17Z</time>
      </trkpt>
      <trkpt lat="45.55794" lon="5.22691">
        <ele>436.4</ele>
        <time>2023-08-29T09:55:18Z</time>
      </trkpt>
      <trkpt lat="45.558" lon="5.22692">
        <ele>436.4</ele>
        <time>2023-08-29T09:55:19Z</time>
      </trkpt>
      <trkpt lat="45.55805" lon="5.22694">
        <ele>436.6</ele>
        <time>2023-08-29T09:55:20Z</time>
      </trkpt>
      <trkpt lat="45.5581" lon="5.22696">
        <ele>436.8</ele>
        <time>2023-08-29T09:55:21Z</time>
      </trkpt>
      <trkpt lat="45.55816" lon="5.22697">
        <ele>437</ele>
        <time>2023-08-29T09:55:22Z</time>
      </trkpt>
      <trkpt lat="45.55821" lon="5.22699">
        <ele>437</ele>
        <time>2023-08-29T09:55:23Z</time>
      </trkpt>
      <trkpt lat="45.55826" lon="5.22701">
        <ele>437</ele>
        <time>2023-08-29T09:55:24Z</time>
      </trkpt>
      <trkpt lat="45.55832" lon="5.22703">
        <ele>437.2</ele>
        <time>2023-08-29T09:55:25Z</time>
      </trkpt>
      <trkpt lat="45.55838" lon="5.22705">
        <ele>437.6</ele>
        <time>2023-08-29T09:55:26Z</time>
      </trkpt>
      <trkpt lat="45.55844" lon="5.22708">
        <ele>437.8</ele>
        <time>2023-08-29T09:55:27Z</time>
      </trkpt>
      <trkpt lat="45.55849" lon="5.2271">
        <ele>438.2</ele>
        <time>2023-08-29T09:55:28Z</time>
      </trkpt>
      <trkpt lat="45.55854" lon="5.22712">
        <ele>438.2</ele>
        <time>2023-08-29T09:55:29Z</time>
      </trkpt>
      <trkpt lat="45.55859" lon="5.22715">
        <ele>438.8</ele>
        <time>2023-08-29T09:55:30Z</time>
      </trkpt>
      <trkpt lat="45.55864" lon="5.22717">
        <ele>439</ele>
        <time>2023-08-29T09:55:31Z</time>
      </trkpt>
      <trkpt lat="45.55869" lon="5.22719">
        <ele>439.2</ele>
        <time>2023-08-29T09:55:32Z</time>
      </trkpt>
      <trkpt lat="45.55874" lon="5.2272">
        <ele>439.4</ele>
        <time>2023-08-29T09:55:33Z</time>
      </trkpt>
      <trkpt lat="45.55879" lon="5.22722">
        <ele>439.6</ele>
        <time>2023-08-29T09:55:34Z</time>
      </trkpt>
      <trkpt lat="45.55884" lon="5.22724">
        <ele>439.6</ele>
        <time>2023-08-29T09:55:35Z</time>
      </trkpt>
      <trkpt lat="45.55888" lon="5.22726">
        <ele>440</ele>
        <time>2023-08-29T09:55:36Z</time>
      </trkpt>
      <trkpt lat="45.55892" lon="5.22727">
        <ele>440.4</ele>
        <time>2023-08-29T09:55:37Z</time>
      </trkpt>
      <trkpt lat="45.55896" lon="5.22728">
        <ele>440.6</ele>
        <time>2023-08-29T09:55:38Z</time>
      </trkpt>
      <trkpt lat="45.559" lon="5.2273">
        <ele>441</ele>
        <time>2023-08-29T09:55:39Z</time>
      </trkpt>
      <trkpt lat="45.55904" lon="5.22731">
        <ele>441.4</ele>
        <time>2023-08-29T09:55:40Z</time>
      </trkpt>
      <trkpt lat="45.55908" lon="5.22732">
        <ele>441.6</ele>
        <time>2023-08-29T09:55:41Z</time>
      </trkpt>
      <trkpt lat="45.55912" lon="5.22734">
        <ele>442.2</ele>
        <time>2023-08-29T09:55:42Z</time>
      </trkpt>
      <trkpt lat="45.55915" lon="5.22735">
        <ele>442.4</ele>
        <time>2023-08-29T09:55:43Z</time>
      </trkpt>
      <trkpt lat="45.5592" lon="5.22736">
        <ele>442.8</ele>
        <time>2023-08-29T09:55:44Z</time>
      </trkpt>
      <trkpt lat="45.55924" lon="5.22737">
        <ele>443.2</ele>
        <time>2023-08-29T09:55:45Z</time>
      </trkpt>
      <trkpt lat="45.55928" lon="5.22737">
        <ele>443.2</ele>
        <time>2023-08-29T09:55:46Z</time>
      </trkpt>
      <trkpt lat="45.55932" lon="5.22738">
        <ele>443.4</ele>
        <time>2023-08-29T09:55:47Z</time>
      </trkpt>
      <trkpt lat="45.55936" lon="5.22738">
        <ele>443.6</ele>
        <time>2023-08-29T09:55:48Z</time>
      </trkpt>
      <trkpt lat="45.5594" lon="5.22739">
        <ele>444</ele>
        <time>2023-08-29T09:55:49Z</time>
      </trkpt>
      <trkpt lat="45.55944" lon="5.2274">
        <ele>444.2</ele>
        <time>2023-08-29T09:55:50Z</time>
      </trkpt>
      <trkpt lat="45.55947" lon="5.2274">
        <ele>444.6</ele>
        <time>2023-08-29T09:55:51Z</time>
      </trkpt>
      <trkpt lat="45.55951" lon="5.22741">
        <ele>444.6</ele>
        <time>2023-08-29T09:55:52Z</time>
      </trkpt>
      <trkpt lat="45.55954" lon="5.22741">
        <ele>444.8</ele>
        <time>2023-08-29T09:55:53Z</time>
      </trkpt>
      <trkpt lat="45.55958" lon="5.22742">
        <ele>444.8</ele>
        <time>2023-08-29T09:55:54Z</time>
      </trkpt>
      <trkpt lat="45.55961" lon="5.22741">
        <ele>445.2</ele>
        <time>2023-08-29T09:55:55Z</time>
      </trkpt>
      <trkpt lat="45.55965" lon="5.2274">
        <ele>445.4</ele>
        <time>2023-08-29T09:55:56Z</time>
      </trkpt>
      <trkpt lat="45.55968" lon="5.2274">
        <ele>445.8</ele>
        <time>2023-08-29T09:55:57Z</time>
      </trkpt>
      <trkpt lat="45.55972" lon="5.2274">
        <ele>446</ele>
        <time>2023-08-29T09:55:58Z</time>
      </trkpt>
      <trkpt lat="45.55976" lon="5.22739">
        <ele>446.2</ele>
        <time>2023-08-29T09:55:59Z</time>
      </trkpt>
      <trkpt lat="45.5598" lon="5.22739">
        <ele>446.2</ele>
        <time>2023-08-29T09:56:00Z</time>
      </trkpt>
      <trkpt lat="45.55984" lon="5.22739">
        <ele>446.4</ele>
        <time>2023-08-29T09:56:01Z</time>
      </trkpt>
      <trkpt lat="45.55988" lon="5.22738">
        <ele>446.6</ele>
        <time>2023-08-29T09:56:02Z</time>
      </trkpt>
      <trkpt lat="45.55992" lon="5.22738">
        <ele>446.8</ele>
        <time>2023-08-29T09:56:03Z</time>
      </trkpt>
      <trkpt lat="45.55996" lon="5.22738">
        <ele>447</ele>
        <time>2023-08-29T09:56:04Z</time>
      </trkpt>
      <trkpt lat="45.56001" lon="5.22738">
        <ele>447</ele>
        <time>2023-08-29T09:56:05Z</time>
      </trkpt>
      <trkpt lat="45.56005" lon="5.22738">
        <ele>447.4</ele>
        <time>2023-08-29T09:56:06Z</time>
      </trkpt>
      <trkpt lat="45.5601" lon="5.22738">
        <ele>447.4</ele>
        <time>2023-08-29T09:56:07Z</time>
      </trkpt>
      <trkpt lat="45.56014" lon="5.22739">
        <ele>447.4</ele>
        <time>2023-08-29T09:56:08Z</time>
      </trkpt>
      <trkpt lat="45.56019" lon="5.22739">
        <ele>447.6</ele>
        <time>2023-08-29T09:56:09Z</time>
      </trkpt>
      <trkpt lat="45.56023" lon="5.22739">
        <ele>447.8</ele>
        <time>2023-08-29T09:56:10Z</time>
      </trkpt>
      <trkpt lat="45.56028" lon="5.22739">
        <ele>447.8</ele>
        <time>2023-08-29T09:56:11Z</time>
      </trkpt>
      <trkpt lat="45.56032" lon="5.22739">
        <ele>447.8</ele>
        <time>2023-08-29T09:56:12Z</time>
      </trkpt>
      <trkpt lat="45.56036" lon="5.22739">
        <ele>448</ele>
        <time>2023-08-29T09:56:13Z</time>
      </trkpt>
      <trkpt lat="45.56041" lon="5.2274">
        <ele>448</ele>
        <time>2023-08-29T09:56:14Z</time>
      </trkpt>
      <trkpt lat="45.56045" lon="5.2274">
        <ele>448</ele>
        <time>2023-08-29T09:56:15Z</time>
      </trkpt>
      <trkpt lat="45.56049" lon="5.22741">
        <ele>448</ele>
        <time>2023-08-29T09:56:16Z</time>
      </trkpt>
      <trkpt lat="45.56053" lon="5.22742">
        <ele>448</ele>
        <time>2023-08-29T09:56:17Z</time>
      </trkpt>
      <trkpt lat="45.56057" lon="5.22743">
        <ele>448.4</ele>
        <time>2023-08-29T09:56:18Z</time>
      </trkpt>
      <trkpt lat="45.56061" lon="5.22743">
        <ele>448.4</ele>
        <time>2023-08-29T09:56:19Z</time>
      </trkpt>
      <trkpt lat="45.56064" lon="5.22743">
        <ele>448.4</ele>
        <time>2023-08-29T09:56:20Z</time>
      </trkpt>
      <trkpt lat="45.56068" lon="5.22744">
        <ele>448.6</ele>
        <time>2023-08-29T09:56:21Z</time>
      </trkpt>
      <trkpt lat="45.56071" lon="5.22744">
        <ele>449</ele>
        <time>2023-08-29T09:56:22Z</time>
      </trkpt>
      <trkpt lat="45.56075" lon="5.22746">
        <ele>449.4</ele>
        <time>2023-08-29T09:56:23Z</time>
      </trkpt>
      <trkpt lat="45.56078" lon="5.22746">
        <ele>449.6</ele>
        <time>2023-08-29T09:56:24Z</time>
      </trkpt>
      <trkpt lat="45.56082" lon="5.22747">
        <ele>450</ele>
        <time>2023-08-29T09:56:25Z</time>
      </trkpt>
      <trkpt lat="45.56085" lon="5.22747">
        <ele>450.2</ele>
        <time>2023-08-29T09:56:26Z</time>
      </trkpt>
      <trkpt lat="45.56088" lon="5.22747">
        <ele>451</ele>
        <time>2023-08-29T09:56:27Z</time>
      </trkpt>
      <trkpt lat="45.56092" lon="5.22748">
        <ele>451.4</ele>
        <time>2023-08-29T09:56:28Z</time>
      </trkpt>
      <trkpt lat="45.56095" lon="5.22749">
        <ele>451.8</ele>
        <time>2023-08-29T09:56:29Z</time>
      </trkpt>
      <trkpt lat="45.56098" lon="5.2275">
        <ele>452</ele>
        <time>2023-08-29T09:56:30Z</time>
      </trkpt>
      <trkpt lat="45.56101" lon="5.22751">
        <ele>452.2</ele>
        <time>2023-08-29T09:56:31Z</time>
      </trkpt>
      <trkpt lat="45.56104" lon="5.22752">
        <ele>452.4</ele>
        <time>2023-08-29T09:56:32Z</time>
      </trkpt>
      <trkpt lat="45.56107" lon="5.22753">
        <ele>452.6</ele>
        <time>2023-08-29T09:56:33Z</time>
      </trkpt>
      <trkpt lat="45.56109" lon="5.22754">
        <ele>453</ele>
        <time>2023-08-29T09:56:34Z</time>
      </trkpt>
      <trkpt lat="45.56112" lon="5.22755">
        <ele>453.2</ele>
        <time>2023-08-29T09:56:35Z</time>
      </trkpt>
      <trkpt lat="45.56114" lon="5.22756">
        <ele>453.6</ele>
        <time>2023-08-29T09:56:36Z</time>
      </trkpt>
      <trkpt lat="45.56117" lon="5.22757">
        <ele>454.2</ele>
        <time>2023-08-29T09:56:37Z</time>
      </trkpt>
      <trkpt lat="45.56119" lon="5.22758">
        <ele>454.4</ele>
        <time>2023-08-29T09:56:38Z</time>
      </trkpt>
      <trkpt lat="45.56121" lon="5.22759">
        <ele>454.6</ele>
        <time>2023-08-29T09:56:39Z</time>
      </trkpt>
      <trkpt lat="45.56124" lon="5.2276">
        <ele>454.8</ele>
        <time>2023-08-29T09:56:40Z</time>
      </trkpt>
      <trkpt lat="45.56126" lon="5.22761">
        <ele>455</ele>
        <time>2023-08-29T09:56:41Z</time>
      </trkpt>
      <trkpt lat="45.56128" lon="5.22761">
        <ele>455.2</ele>
        <time>2023-08-29T09:56:42Z</time>
      </trkpt>
      <trkpt lat="45.56131" lon="5.22761">
        <ele>455.2</ele>
        <time>2023-08-29T09:56:43Z</time>
      </trkpt>
      <trkpt lat="45.56135" lon="5.2276">
        <ele>455.4</ele>
        <time>2023-08-29T09:56:44Z</time>
      </trkpt>
      <trkpt lat="45.56138" lon="5.22759">
        <ele>455.4</ele>
        <time>2023-08-29T09:56:45Z</time>
      </trkpt>
      <trkpt lat="45.56142" lon="5.22757">
        <ele>455.4</ele>
        <time>2023-08-29T09:56:46Z</time>
      </trkpt>
      <trkpt lat="45.56145" lon="5.22755">
        <ele>455.4</ele>
        <time>2023-08-29T09:56:47Z</time>
      </trkpt>
      <trkpt lat="45.56148" lon="5.22752">
        <ele>455.4</ele>
        <time>2023-08-29T09:56:48Z</time>
      </trkpt>
      <trkpt lat="45.56151" lon="5.2275">
        <ele>455.6</ele>
        <time>2023-08-29T09:56:49Z</time>
      </trkpt>
      <trkpt lat="45.56154" lon="5.22747">
        <ele>455.6</ele>
        <time>2023-08-29T09:56:50Z</time>
      </trkpt>
      <trkpt lat="45.56158" lon="5.22745">
        <ele>455.8</ele>
        <time>2023-08-29T09:56:51Z</time>
      </trkpt>
      <trkpt lat="45.56162" lon="5.22742">
        <ele>455.8</ele>
        <time>2023-08-29T09:56:52Z</time>
      </trkpt>
      <trkpt lat="45.56166" lon="5.22739">
        <ele>455.8</ele>
        <time>2023-08-29T09:56:53Z</time>
      </trkpt>
      <trkpt lat="45.56169" lon="5.22736">
        <ele>455.8</ele>
        <time>2023-08-29T09:56:54Z</time>
      </trkpt>
      <trkpt lat="45.56172" lon="5.22733">
        <ele>455.8</ele>
        <time>2023-08-29T09:56:55Z</time>
      </trkpt>
      <trkpt lat="45.56176" lon="5.2273">
        <ele>455.8</ele>
        <time>2023-08-29T09:56:56Z</time>
      </trkpt>
      <trkpt lat="45.56179" lon="5.22728">
        <ele>455.8</ele>
        <time>2023-08-29T09:56:57Z</time>
      </trkpt>
      <trkpt lat="45.56182" lon="5.22725">
        <ele>455.6</ele>
        <time>2023-08-29T09:56:58Z</time>
      </trkpt>
      <trkpt lat="45.56186" lon="5.22722">
        <ele>455.6</ele>
        <time>2023-08-29T09:56:59Z</time>
      </trkpt>
      <trkpt lat="45.5619" lon="5.22719">
        <ele>455.6</ele>
        <time>2023-08-29T09:57:00Z</time>
      </trkpt>
      <trkpt lat="45.56194" lon="5.22717">
        <ele>455.6</ele>
        <time>2023-08-29T09:57:01Z</time>
      </trkpt>
      <trkpt lat="45.56197" lon="5.22714">
        <ele>455.6</ele>
        <time>2023-08-29T09:57:02Z</time>
      </trkpt>
      <trkpt lat="45.562" lon="5.22713">
        <ele>455.6</ele>
        <time>2023-08-29T09:57:03Z</time>
      </trkpt>
      <trkpt lat="45.56203" lon="5.2271">
        <ele>455.6</ele>
        <time>2023-08-29T09:57:04Z</time>
      </trkpt>
      <trkpt lat="45.56207" lon="5.22707">
        <ele>455.4</ele>
        <time>2023-08-29T09:57:05Z</time>
      </trkpt>
      <trkpt lat="45.56211" lon="5.22704">
        <ele>455.4</ele>
        <time>2023-08-29T09:57:06Z</time>
      </trkpt>
      <trkpt lat="45.56215" lon="5.22702">
        <ele>455.4</ele>
        <time>2023-08-29T09:57:07Z</time>
      </trkpt>
      <trkpt lat="45.56219" lon="5.22699">
        <ele>455.4</ele>
        <time>2023-08-29T09:57:08Z</time>
      </trkpt>
      <trkpt lat="45.56223" lon="5.22696">
        <ele>455.6</ele>
        <time>2023-08-29T09:57:09Z</time>
      </trkpt>
      <trkpt lat="45.56226" lon="5.22694">
        <ele>455.8</ele>
        <time>2023-08-29T09:57:10Z</time>
      </trkpt>
      <trkpt lat="45.56231" lon="5.22691">
        <ele>455.8</ele>
        <time>2023-08-29T09:57:11Z</time>
      </trkpt>
      <trkpt lat="45.56235" lon="5.22688">
        <ele>455.8</ele>
        <time>2023-08-29T09:57:12Z</time>
      </trkpt>
      <trkpt lat="45.56238" lon="5.22686">
        <ele>455.8</ele>
        <time>2023-08-29T09:57:13Z</time>
      </trkpt>
      <trkpt lat="45.56242" lon="5.22682">
        <ele>455.6</ele>
        <time>2023-08-29T09:57:14Z</time>
      </trkpt>
      <trkpt lat="45.56246" lon="5.2268">
        <ele>455.6</ele>
        <time>2023-08-29T09:57:15Z</time>
      </trkpt>
      <trkpt lat="45.56249" lon="5.22677">
        <ele>455.6</ele>
        <time>2023-08-29T09:57:16Z</time>
      </trkpt>
      <trkpt lat="45.56253" lon="5.22673">
        <ele>455.6</ele>
        <time>2023-08-29T09:57:17Z</time>
      </trkpt>
      <trkpt lat="45.56257" lon="5.2267">
        <ele>456</ele>
        <time>2023-08-29T09:57:18Z</time>
      </trkpt>
      <trkpt lat="45.5626" lon="5.22667">
        <ele>456.2</ele>
        <time>2023-08-29T09:57:19Z</time>
      </trkpt>
      <trkpt lat="45.56264" lon="5.22665">
        <ele>456.4</ele>
        <time>2023-08-29T09:57:20Z</time>
      </trkpt>
      <trkpt lat="45.56268" lon="5.22662">
        <ele>456.8</ele>
        <time>2023-08-29T09:57:21Z</time>
      </trkpt>
      <trkpt lat="45.56271" lon="5.2266">
        <ele>456.8</ele>
        <time>2023-08-29T09:57:22Z</time>
      </trkpt>
      <trkpt lat="45.56274" lon="5.22657">
        <ele>456.8</ele>
        <time>2023-08-29T09:57:23Z</time>
      </trkpt>
      <trkpt lat="45.56278" lon="5.22654">
        <ele>456.8</ele>
        <time>2023-08-29T09:57:24Z</time>
      </trkpt>
      <trkpt lat="45.56282" lon="5.22651">
        <ele>457</ele>
        <time>2023-08-29T09:57:25Z</time>
      </trkpt>
      <trkpt lat="45.56285" lon="5.22648">
        <ele>457</ele>
        <time>2023-08-29T09:57:26Z</time>
      </trkpt>
      <trkpt lat="45.56289" lon="5.22645">
        <ele>457.2</ele>
        <time>2023-08-29T09:57:27Z</time>
      </trkpt>
      <trkpt lat="45.56292" lon="5.22643">
        <ele>457.2</ele>
        <time>2023-08-29T09:57:28Z</time>
      </trkpt>
      <trkpt lat="45.56296" lon="5.22639">
        <ele>457.4</ele>
        <time>2023-08-29T09:57:29Z</time>
      </trkpt>
      <trkpt lat="45.56299" lon="5.22637">
        <ele>457.6</ele>
        <time>2023-08-29T09:57:30Z</time>
      </trkpt>
      <trkpt lat="45.56303" lon="5.22634">
        <ele>457.8</ele>
        <time>2023-08-29T09:57:31Z</time>
      </trkpt>
      <trkpt lat="45.56306" lon="5.22631">
        <ele>458</ele>
        <time>2023-08-29T09:57:32Z</time>
      </trkpt>
      <trkpt lat="45.56309" lon="5.22629">
        <ele>458.4</ele>
        <time>2023-08-29T09:57:33Z</time>
      </trkpt>
      <trkpt lat="45.56312" lon="5.22627">
        <ele>458.4</ele>
        <time>2023-08-29T09:57:34Z</time>
      </trkpt>
      <trkpt lat="45.56315" lon="5.22625">
        <ele>458.8</ele>
        <time>2023-08-29T09:57:35Z</time>
      </trkpt>
      <trkpt lat="45.56318" lon="5.22623">
        <ele>459</ele>
        <time>2023-08-29T09:57:36Z</time>
      </trkpt>
      <trkpt lat="45.56321" lon="5.2262">
        <ele>459.2</ele>
        <time>2023-08-29T09:57:37Z</time>
      </trkpt>
      <trkpt lat="45.56324" lon="5.22618">
        <ele>459.2</ele>
        <time>2023-08-29T09:57:38Z</time>
      </trkpt>
      <trkpt lat="45.56327" lon="5.22616">
        <ele>459.4</ele>
        <time>2023-08-29T09:57:39Z</time>
      </trkpt>
      <trkpt lat="45.56329" lon="5.22616">
        <ele>459.8</ele>
        <time>2023-08-29T09:57:40Z</time>
      </trkpt>
      <trkpt lat="45.56332" lon="5.22617">
        <ele>460.4</ele>
        <time>2023-08-29T09:57:41Z</time>
      </trkpt>
      <trkpt lat="45.56335" lon="5.22619">
        <ele>460.8</ele>
        <time>2023-08-29T09:57:42Z</time>
      </trkpt>
      <trkpt lat="45.56339" lon="5.22622">
        <ele>460.8</ele>
        <time>2023-08-29T09:57:43Z</time>
      </trkpt>
      <trkpt lat="45.56344" lon="5.22627">
        <ele>460.8</ele>
        <time>2023-08-29T09:57:44Z</time>
      </trkpt>
      <trkpt lat="45.56348" lon="5.22632">
        <ele>460.8</ele>
        <time>2023-08-29T09:57:45Z</time>
      </trkpt>
      <trkpt lat="45.56352" lon="5.22638">
        <ele>460.2</ele>
        <time>2023-08-29T09:57:46Z</time>
      </trkpt>
      <trkpt lat="45.56355" lon="5.22645">
        <ele>460.2</ele>
        <time>2023-08-29T09:57:47Z</time>
      </trkpt>
      <trkpt lat="45.56358" lon="5.22652">
        <ele>459.8</ele>
        <time>2023-08-29T09:57:48Z</time>
      </trkpt>
      <trkpt lat="45.56361" lon="5.22659">
        <ele>459.6</ele>
        <time>2023-08-29T09:57:49Z</time>
      </trkpt>
      <trkpt lat="45.56362" lon="5.22667">
        <ele>459.6</ele>
        <time>2023-08-29T09:57:50Z</time>
      </trkpt>
      <trkpt lat="45.56364" lon="5.22675">
        <ele>459.4</ele>
        <time>2023-08-29T09:57:51Z</time>
      </trkpt>
      <trkpt lat="45.56365" lon="5.22683">
        <ele>459.2</ele>
        <time>2023-08-29T09:57:52Z</time>
      </trkpt>
      <trkpt lat="45.56366" lon="5.22691">
        <ele>459.2</ele>
        <time>2023-08-29T09:57:53Z</time>
      </trkpt>
      <trkpt lat="45.56367" lon="5.22699">
        <ele>459.2</ele>
        <time>2023-08-29T09:57:54Z</time>
      </trkpt>
      <trkpt lat="45.56367" lon="5.22707">
        <ele>459.2</ele>
        <time>2023-08-29T09:57:55Z</time>
      </trkpt>
      <trkpt lat="45.56367" lon="5.22715">
        <ele>459.4</ele>
        <time>2023-08-29T09:57:56Z</time>
      </trkpt>
      <trkpt lat="45.56368" lon="5.22723">
        <ele>459.6</ele>
        <time>2023-08-29T09:57:57Z</time>
      </trkpt>
      <trkpt lat="45.56368" lon="5.2273">
        <ele>459.6</ele>
        <time>2023-08-29T09:57:58Z</time>
      </trkpt>
      <trkpt lat="45.56369" lon="5.22736">
        <ele>460.2</ele>
        <time>2023-08-29T09:57:59Z</time>
      </trkpt>
      <trkpt lat="45.56371" lon="5.22743">
        <ele>460.2</ele>
        <time>2023-08-29T09:58:00Z</time>
      </trkpt>
      <trkpt lat="45.56372" lon="5.2275">
        <ele>460.6</ele>
        <time>2023-08-29T09:58:01Z</time>
      </trkpt>
      <trkpt lat="45.56374" lon="5.22756">
        <ele>461.4</ele>
        <time>2023-08-29T09:58:02Z</time>
      </trkpt>
      <trkpt lat="45.56376" lon="5.22762">
        <ele>461.6</ele>
        <time>2023-08-29T09:58:03Z</time>
      </trkpt>
      <trkpt lat="45.56378" lon="5.22768">
        <ele>462</ele>
        <time>2023-08-29T09:58:04Z</time>
      </trkpt>
      <trkpt lat="45.56381" lon="5.22774">
        <ele>462.4</ele>
        <time>2023-08-29T09:58:05Z</time>
      </trkpt>
      <trkpt lat="45.56384" lon="5.2278">
        <ele>462.6</ele>
        <time>2023-08-29T09:58:06Z</time>
      </trkpt>
      <trkpt lat="45.56387" lon="5.22786">
        <ele>462.8</ele>
        <time>2023-08-29T09:58:07Z</time>
      </trkpt>
      <trkpt lat="45.5639" lon="5.22792">
        <ele>462.8</ele>
        <time>2023-08-29T09:58:08Z</time>
      </trkpt>
      <trkpt lat="45.56392" lon="5.22798">
        <ele>462.8</ele>
        <time>2023-08-29T09:58:09Z</time>
      </trkpt>
      <trkpt lat="45.56395" lon="5.22804">
        <ele>462.8</ele>
        <time>2023-08-29T09:58:10Z</time>
      </trkpt>
      <trkpt lat="45.56398" lon="5.2281">
        <ele>462.6</ele>
        <time>2023-08-29T09:58:11Z</time>
      </trkpt>
      <trkpt lat="45.56401" lon="5.22816">
        <ele>462.6</ele>
        <time>2023-08-29T09:58:12Z</time>
      </trkpt>
      <trkpt lat="45.56405" lon="5.22822">
        <ele>462.6</ele>
        <time>2023-08-29T09:58:13Z</time>
      </trkpt>
      <trkpt lat="45.56408" lon="5.22829">
        <ele>462.6</ele>
        <time>2023-08-29T09:58:14Z</time>
      </trkpt>
      <trkpt lat="45.5641" lon="5.22835">
        <ele>462.6</ele>
        <time>2023-08-29T09:58:15Z</time>
      </trkpt>
      <trkpt lat="45.56413" lon="5.22842">
        <ele>462.8</ele>
        <time>2023-08-29T09:58:16Z</time>
      </trkpt>
      <trkpt lat="45.56416" lon="5.22848">
        <ele>462.8</ele>
        <time>2023-08-29T09:58:17Z</time>
      </trkpt>
      <trkpt lat="45.56419" lon="5.22855">
        <ele>462.8</ele>
        <time>2023-08-29T09:58:18Z</time>
      </trkpt>
      <trkpt lat="45.56422" lon="5.22863">
        <ele>462.8</ele>
        <time>2023-08-29T09:58:19Z</time>
      </trkpt>
      <trkpt lat="45.56424" lon="5.2287">
        <ele>463</ele>
        <time>2023-08-29T09:58:20Z</time>
      </trkpt>
      <trkpt lat="45.56427" lon="5.22877">
        <ele>463</ele>
        <time>2023-08-29T09:58:21Z</time>
      </trkpt>
      <trkpt lat="45.56429" lon="5.22884">
        <ele>463.2</ele>
        <time>2023-08-29T09:58:22Z</time>
      </trkpt>
      <trkpt lat="45.56432" lon="5.22891">
        <ele>463.2</ele>
        <time>2023-08-29T09:58:23Z</time>
      </trkpt>
      <trkpt lat="45.56434" lon="5.22898">
        <ele>463.2</ele>
        <time>2023-08-29T09:58:24Z</time>
      </trkpt>
      <trkpt lat="45.56436" lon="5.22906">
        <ele>463.2</ele>
        <time>2023-08-29T09:58:25Z</time>
      </trkpt>
      <trkpt lat="45.56439" lon="5.22914">
        <ele>463.2</ele>
        <time>2023-08-29T09:58:26Z</time>
      </trkpt>
      <trkpt lat="45.56441" lon="5.22921">
        <ele>463.2</ele>
        <time>2023-08-29T09:58:27Z</time>
      </trkpt>
      <trkpt lat="45.56443" lon="5.22929">
        <ele>463</ele>
        <time>2023-08-29T09:58:28Z</time>
      </trkpt>
      <trkpt lat="45.56446" lon="5.22936">
        <ele>463</ele>
        <time>2023-08-29T09:58:29Z</time>
      </trkpt>
      <trkpt lat="45.56448" lon="5.22943">
        <ele>463</ele>
        <time>2023-08-29T09:58:30Z</time>
      </trkpt>
      <trkpt lat="45.5645" lon="5.2295">
        <ele>463</ele>
        <time>2023-08-29T09:58:31Z</time>
      </trkpt>
      <trkpt lat="45.56452" lon="5.22957">
        <ele>463</ele>
        <time>2023-08-29T09:58:32Z</time>
      </trkpt>
      <trkpt lat="45.56455" lon="5.22964">
        <ele>463.2</ele>
        <time>2023-08-29T09:58:33Z</time>
      </trkpt>
      <trkpt lat="45.56457" lon="5.22971">
        <ele>463.4</ele>
        <time>2023-08-29T09:58:34Z</time>
      </trkpt>
      <trkpt lat="45.56459" lon="5.22978">
        <ele>463.4</ele>
        <time>2023-08-29T09:58:35Z</time>
      </trkpt>
      <trkpt lat="45.56461" lon="5.22985">
        <ele>463.6</ele>
        <time>2023-08-29T09:58:36Z</time>
      </trkpt>
      <trkpt lat="45.56462" lon="5.22992">
        <ele>463.6</ele>
        <time>2023-08-29T09:58:37Z</time>
      </trkpt>
      <trkpt lat="45.56463" lon="5.23">
        <ele>463.6</ele>
        <time>2023-08-29T09:58:38Z</time>
      </trkpt>
      <trkpt lat="45.56464" lon="5.23008">
        <ele>463.6</ele>
        <time>2023-08-29T09:58:39Z</time>
      </trkpt>
      <trkpt lat="45.56465" lon="5.23015">
        <ele>464</ele>
        <time>2023-08-29T09:58:40Z</time>
      </trkpt>
      <trkpt lat="45.56466" lon="5.23022">
        <ele>464.4</ele>
        <time>2023-08-29T09:58:41Z</time>
      </trkpt>
      <trkpt lat="45.56467" lon="5.23029">
        <ele>464.8</ele>
        <time>2023-08-29T09:58:42Z</time>
      </trkpt>
      <trkpt lat="45.56467" lon="5.23036">
        <ele>465.2</ele>
        <time>2023-08-29T09:58:43Z</time>
      </trkpt>
      <trkpt lat="45.56467" lon="5.23043">
        <ele>465.4</ele>
        <time>2023-08-29T09:58:44Z</time>
      </trkpt>
      <trkpt lat="45.56468" lon="5.23051">
        <ele>465.4</ele>
        <time>2023-08-29T09:58:45Z</time>
      </trkpt>
      <trkpt lat="45.56468" lon="5.23058">
        <ele>465.4</ele>
        <time>2023-08-29T09:58:46Z</time>
      </trkpt>
      <trkpt lat="45.56469" lon="5.23065">
        <ele>465.6</ele>
        <time>2023-08-29T09:58:47Z</time>
      </trkpt>
      <trkpt lat="45.56469" lon="5.23073">
        <ele>465.6</ele>
        <time>2023-08-29T09:58:48Z</time>
      </trkpt>
      <trkpt lat="45.56469" lon="5.2308">
        <ele>466</ele>
        <time>2023-08-29T09:58:49Z</time>
      </trkpt>
      <trkpt lat="45.56468" lon="5.23088">
        <ele>466</ele>
        <time>2023-08-29T09:58:50Z</time>
      </trkpt>
      <trkpt lat="45.56468" lon="5.23097">
        <ele>466</ele>
        <time>2023-08-29T09:58:51Z</time>
      </trkpt>
      <trkpt lat="45.56468" lon="5.23106">
        <ele>466</ele>
        <time>2023-08-29T09:58:52Z</time>
      </trkpt>
      <trkpt lat="45.56469" lon="5.23114">
        <ele>465.6</ele>
        <time>2023-08-29T09:58:53Z</time>
      </trkpt>
      <trkpt lat="45.56469" lon="5.23123">
        <ele>465.2</ele>
        <time>2023-08-29T09:58:54Z</time>
      </trkpt>
      <trkpt lat="45.56469" lon="5.23133">
        <ele>465</ele>
        <time>2023-08-29T09:58:55Z</time>
      </trkpt>
      <trkpt lat="45.56469" lon="5.23142">
        <ele>464.6</ele>
        <time>2023-08-29T09:58:56Z</time>
      </trkpt>
      <trkpt lat="45.56469" lon="5.23152">
        <ele>464.4</ele>
        <time>2023-08-29T09:58:57Z</time>
      </trkpt>
      <trkpt lat="45.56468" lon="5.23161">
        <ele>464.2</ele>
        <time>2023-08-29T09:58:58Z</time>
      </trkpt>
      <trkpt lat="45.56468" lon="5.23171">
        <ele>464</ele>
        <time>2023-08-29T09:58:59Z</time>
      </trkpt>
      <trkpt lat="45.56467" lon="5.23181">
        <ele>463.8</ele>
        <time>2023-08-29T09:59:00Z</time>
      </trkpt>
      <trkpt lat="45.56466" lon="5.23191">
        <ele>463.8</ele>
        <time>2023-08-29T09:59:01Z</time>
      </trkpt>
      <trkpt lat="45.56465" lon="5.232">
        <ele>463.4</ele>
        <time>2023-08-29T09:59:02Z</time>
      </trkpt>
      <trkpt lat="45.56463" lon="5.23211">
        <ele>463.4</ele>
        <time>2023-08-29T09:59:03Z</time>
      </trkpt>
      <trkpt lat="45.56462" lon="5.2322">
        <ele>463.2</ele>
        <time>2023-08-29T09:59:04Z</time>
      </trkpt>
      <trkpt lat="45.5646" lon="5.23229">
        <ele>462.6</ele>
        <time>2023-08-29T09:59:05Z</time>
      </trkpt>
      <trkpt lat="45.56458" lon="5.23238">
        <ele>462.6</ele>
        <time>2023-08-29T09:59:06Z</time>
      </trkpt>
      <trkpt lat="45.56456" lon="5.23246">
        <ele>462.6</ele>
        <time>2023-08-29T09:59:07Z</time>
      </trkpt>
      <trkpt lat="45.56454" lon="5.23255">
        <ele>462.6</ele>
        <time>2023-08-29T09:59:08Z</time>
      </trkpt>
      <trkpt lat="45.56452" lon="5.23264">
        <ele>462.6</ele>
        <time>2023-08-29T09:59:09Z</time>
      </trkpt>
      <trkpt lat="45.5645" lon="5.23272">
        <ele>462.6</ele>
        <time>2023-08-29T09:59:10Z</time>
      </trkpt>
      <trkpt lat="45.56449" lon="5.23281">
        <ele>462.6</ele>
        <time>2023-08-29T09:59:11Z</time>
      </trkpt>
      <trkpt lat="45.56447" lon="5.23289">
        <ele>462.6</ele>
        <time>2023-08-29T09:59:12Z</time>
      </trkpt>
      <trkpt lat="45.56445" lon="5.23297">
        <ele>462.6</ele>
        <time>2023-08-29T09:59:13Z</time>
      </trkpt>
      <trkpt lat="45.56443" lon="5.23305">
        <ele>462.6</ele>
        <time>2023-08-29T09:59:14Z</time>
      </trkpt>
      <trkpt lat="45.5644" lon="5.23313">
        <ele>462.6</ele>
        <time>2023-08-29T09:59:15Z</time>
      </trkpt>
      <trkpt lat="45.56437" lon="5.23321">
        <ele>462.6</ele>
        <time>2023-08-29T09:59:16Z</time>
      </trkpt>
      <trkpt lat="45.56433" lon="5.23328">
        <ele>462.6</ele>
        <time>2023-08-29T09:59:17Z</time>
      </trkpt>
      <trkpt lat="45.5643" lon="5.23335">
        <ele>462.6</ele>
        <time>2023-08-29T09:59:18Z</time>
      </trkpt>
      <trkpt lat="45.56426" lon="5.23342">
        <ele>462.6</ele>
        <time>2023-08-29T09:59:19Z</time>
      </trkpt>
      <trkpt lat="45.56422" lon="5.23347">
        <ele>462.6</ele>
        <time>2023-08-29T09:59:20Z</time>
      </trkpt>
      <trkpt lat="45.56419" lon="5.23353">
        <ele>462.6</ele>
        <time>2023-08-29T09:59:21Z</time>
      </trkpt>
      <trkpt lat="45.56416" lon="5.23359">
        <ele>462.8</ele>
        <time>2023-08-29T09:59:22Z</time>
      </trkpt>
      <trkpt lat="45.56413" lon="5.23364">
        <ele>462.8</ele>
        <time>2023-08-29T09:59:23Z</time>
      </trkpt>
      <trkpt lat="45.56409" lon="5.2337">
        <ele>462.8</ele>
        <time>2023-08-29T09:59:24Z</time>
      </trkpt>
      <trkpt lat="45.56406" lon="5.23378">
        <ele>462.8</ele>
        <time>2023-08-29T09:59:25Z</time>
      </trkpt>
      <trkpt lat="45.56402" lon="5.23385">
        <ele>462.8</ele>
        <time>2023-08-29T09:59:26Z</time>
      </trkpt>
      <trkpt lat="45.56399" lon="5.23392">
        <ele>463</ele>
        <time>2023-08-29T09:59:27Z</time>
      </trkpt>
      <trkpt lat="45.56396" lon="5.234">
        <ele>463</ele>
        <time>2023-08-29T09:59:28Z</time>
      </trkpt>
      <trkpt lat="45.56395" lon="5.23407">
        <ele>463.2</ele>
        <time>2023-08-29T09:59:29Z</time>
      </trkpt>
      <trkpt lat="45.56393" lon="5.23414">
        <ele>463.2</ele>
        <time>2023-08-29T09:59:30Z</time>
      </trkpt>
      <trkpt lat="45.56391" lon="5.23422">
        <ele>463.4</ele>
        <time>2023-08-29T09:59:31Z</time>
      </trkpt>
      <trkpt lat="45.56389" lon="5.2343">
        <ele>463.6</ele>
        <time>2023-08-29T09:59:32Z</time>
      </trkpt>
      <trkpt lat="45.56387" lon="5.23437">
        <ele>463.8</ele>
        <time>2023-08-29T09:59:33Z</time>
      </trkpt>
      <trkpt lat="45.56386" lon="5.23445">
        <ele>464</ele>
        <time>2023-08-29T09:59:34Z</time>
      </trkpt>
      <trkpt lat="45.56384" lon="5.23454">
        <ele>464.2</ele>
        <time>2023-08-29T09:59:35Z</time>
      </trkpt>
      <trkpt lat="45.56382" lon="5.23462">
        <ele>464.2</ele>
        <time>2023-08-29T09:59:36Z</time>
      </trkpt>
      <trkpt lat="45.5638" lon="5.23471">
        <ele>464.2</ele>
        <time>2023-08-29T09:59:37Z</time>
      </trkpt>
      <trkpt lat="45.56378" lon="5.23479">
        <ele>464.2</ele>
        <time>2023-08-29T09:59:38Z</time>
      </trkpt>
      <trkpt lat="45.56376" lon="5.23488">
        <ele>464.2</ele>
        <time>2023-08-29T09:59:39Z</time>
      </trkpt>
      <trkpt lat="45.56374" lon="5.23497">
        <ele>464.2</ele>
        <time>2023-08-29T09:59:40Z</time>
      </trkpt>
      <trkpt lat="45.56372" lon="5.23507">
        <ele>464</ele>
        <time>2023-08-29T09:59:41Z</time>
      </trkpt>
      <trkpt lat="45.5637" lon="5.23517">
        <ele>463.8</ele>
        <time>2023-08-29T09:59:42Z</time>
      </trkpt>
      <trkpt lat="45.56368" lon="5.23526">
        <ele>463.6</ele>
        <time>2023-08-29T09:59:43Z</time>
      </trkpt>
      <trkpt lat="45.56366" lon="5.23536">
        <ele>463.4</ele>
        <time>2023-08-29T09:59:44Z</time>
      </trkpt>
      <trkpt lat="45.56364" lon="5.23546">
        <ele>463.2</ele>
        <time>2023-08-29T09:59:45Z</time>
      </trkpt>
      <trkpt lat="45.56361" lon="5.23556">
        <ele>463</ele>
        <time>2023-08-29T09:59:46Z</time>
      </trkpt>
      <trkpt lat="45.56359" lon="5.23565">
        <ele>463</ele>
        <time>2023-08-29T09:59:47Z</time>
      </trkpt>
      <trkpt lat="45.56356" lon="5.23574">
        <ele>463</ele>
        <time>2023-08-29T09:59:48Z</time>
      </trkpt>
      <trkpt lat="45.56354" lon="5.23583">
        <ele>463</ele>
        <time>2023-08-29T09:59:49Z</time>
      </trkpt>
      <trkpt lat="45.56351" lon="5.23591">
        <ele>463</ele>
        <time>2023-08-29T09:59:50Z</time>
      </trkpt>
      <trkpt lat="45.56349" lon="5.236">
        <ele>462.8</ele>
        <time>2023-08-29T09:59:51Z</time>
      </trkpt>
      <trkpt lat="45.56345" lon="5.23608">
        <ele>462.8</ele>
        <time>2023-08-29T09:59:52Z</time>
      </trkpt>
      <trkpt lat="45.56343" lon="5.23616">
        <ele>462.8</ele>
        <time>2023-08-29T09:59:53Z</time>
      </trkpt>
      <trkpt lat="45.5634" lon="5.23623">
        <ele>462.8</ele>
        <time>2023-08-29T09:59:54Z</time>
      </trkpt>
      <trkpt lat="45.56337" lon="5.2363">
        <ele>462.8</ele>
        <time>2023-08-29T09:59:55Z</time>
      </trkpt>
      <trkpt lat="45.56333" lon="5.23638">
        <ele>463.2</ele>
        <time>2023-08-29T09:59:56Z</time>
      </trkpt>
      <trkpt lat="45.5633" lon="5.23644">
        <ele>463.4</ele>
        <time>2023-08-29T09:59:57Z</time>
      </trkpt>
      <trkpt lat="45.56327" lon="5.2365">
        <ele>463.6</ele>
        <time>2023-08-29T09:59:58Z</time>
      </trkpt>
      <trkpt lat="45.56323" lon="5.23656">
        <ele>463.6</ele>
        <time>2023-08-29T09:59:59Z</time>
      </trkpt>
      <trkpt lat="45.56319" lon="5.23663">
        <ele>463.8</ele>
        <time>2023-08-29T10:00:00Z</time>
      </trkpt>
      <trkpt lat="45.56315" lon="5.23669">
        <ele>463.8</ele>
        <time>2023-08-29T10:00:01Z</time>
      </trkpt>
      <trkpt lat="45.56311" lon="5.23676">
        <ele>464</ele>
        <time>2023-08-29T10:00:02Z</time>
      </trkpt>
      <trkpt lat="45.56308" lon="5.23683">
        <ele>464.4</ele>
        <time>2023-08-29T10:00:03Z</time>
      </trkpt>
      <trkpt lat="45.56305" lon="5.2369">
        <ele>464.4</ele>
        <time>2023-08-29T10:00:04Z</time>
      </trkpt>
      <trkpt lat="45.56301" lon="5.23698">
        <ele>464.6</ele>
        <time>2023-08-29T10:00:05Z</time>
      </trkpt>
      <trkpt lat="45.56298" lon="5.23705">
        <ele>464.6</ele>
        <time>2023-08-29T10:00:06Z</time>
      </trkpt>
      <trkpt lat="45.56295" lon="5.23712">
        <ele>464.8</ele>
        <time>2023-08-29T10:00:07Z</time>
      </trkpt>
      <trkpt lat="45.56292" lon="5.2372">
        <ele>464.8</ele>
        <time>2023-08-29T10:00:08Z</time>
      </trkpt>
      <trkpt lat="45.56289" lon="5.23728">
        <ele>464.8</ele>
        <time>2023-08-29T10:00:09Z</time>
      </trkpt>
      <trkpt lat="45.56286" lon="5.23736">
        <ele>464.8</ele>
        <time>2023-08-29T10:00:10Z</time>
      </trkpt>
      <trkpt lat="45.56284" lon="5.23744">
        <ele>464.8</ele>
        <time>2023-08-29T10:00:11Z</time>
      </trkpt>
      <trkpt lat="45.56282" lon="5.23753">
        <ele>464.8</ele>
        <time>2023-08-29T10:00:12Z</time>
      </trkpt>
      <trkpt lat="45.5628" lon="5.23762">
        <ele>464.8</ele>
        <time>2023-08-29T10:00:13Z</time>
      </trkpt>
      <trkpt lat="45.56278" lon="5.23771">
        <ele>464.8</ele>
        <time>2023-08-29T10:00:14Z</time>
      </trkpt>
      <trkpt lat="45.56276" lon="5.2378">
        <ele>464.6</ele>
        <time>2023-08-29T10:00:15Z</time>
      </trkpt>
      <trkpt lat="45.56274" lon="5.23788">
        <ele>464.6</ele>
        <time>2023-08-29T10:00:16Z</time>
      </trkpt>
      <trkpt lat="45.56273" lon="5.23797">
        <ele>464.6</ele>
        <time>2023-08-29T10:00:17Z</time>
      </trkpt>
      <trkpt lat="45.56273" lon="5.23806">
        <ele>464.6</ele>
        <time>2023-08-29T10:00:18Z</time>
      </trkpt>
      <trkpt lat="45.56272" lon="5.23815">
        <ele>464.6</ele>
        <time>2023-08-29T10:00:19Z</time>
      </trkpt>
      <trkpt lat="45.56271" lon="5.23824">
        <ele>464.4</ele>
        <time>2023-08-29T10:00:20Z</time>
      </trkpt>
      <trkpt lat="45.56271" lon="5.23834">
        <ele>464.4</ele>
        <time>2023-08-29T10:00:21Z</time>
      </trkpt>
      <trkpt lat="45.56271" lon="5.23843">
        <ele>464.4</ele>
        <time>2023-08-29T10:00:22Z</time>
      </trkpt>
      <trkpt lat="45.56271" lon="5.23853">
        <ele>464.2</ele>
        <time>2023-08-29T10:00:23Z</time>
      </trkpt>
      <trkpt lat="45.56272" lon="5.23863">
        <ele>463.8</ele>
        <time>2023-08-29T10:00:24Z</time>
      </trkpt>
      <trkpt lat="45.56273" lon="5.23873">
        <ele>463.6</ele>
        <time>2023-08-29T10:00:25Z</time>
      </trkpt>
      <trkpt lat="45.56275" lon="5.23883">
        <ele>463.4</ele>
        <time>2023-08-29T10:00:26Z</time>
      </trkpt>
      <trkpt lat="45.56276" lon="5.23893">
        <ele>463.4</ele>
        <time>2023-08-29T10:00:27Z</time>
      </trkpt>
      <trkpt lat="45.56278" lon="5.23903">
        <ele>463</ele>
        <time>2023-08-29T10:00:28Z</time>
      </trkpt>
      <trkpt lat="45.5628" lon="5.23913">
        <ele>462.8</ele>
        <time>2023-08-29T10:00:29Z</time>
      </trkpt>
      <trkpt lat="45.56282" lon="5.23923">
        <ele>462.4</ele>
        <time>2023-08-29T10:00:30Z</time>
      </trkpt>
      <trkpt lat="45.56284" lon="5.23934">
        <ele>462</ele>
        <time>2023-08-29T10:00:31Z</time>
      </trkpt>
      <trkpt lat="45.56286" lon="5.23944">
        <ele>461.8</ele>
        <time>2023-08-29T10:00:32Z</time>
      </trkpt>
      <trkpt lat="45.56289" lon="5.23954">
        <ele>461.6</ele>
        <time>2023-08-29T10:00:33Z</time>
      </trkpt>
      <trkpt lat="45.56292" lon="5.23964">
        <ele>461.4</ele>
        <time>2023-08-29T10:00:34Z</time>
      </trkpt>
      <trkpt lat="45.56295" lon="5.23974">
        <ele>461.2</ele>
        <time>2023-08-29T10:00:35Z</time>
      </trkpt>
      <trkpt lat="45.56298" lon="5.23983">
        <ele>461</ele>
        <time>2023-08-29T10:00:36Z</time>
      </trkpt>
      <trkpt lat="45.56301" lon="5.23993">
        <ele>461</ele>
        <time>2023-08-29T10:00:37Z</time>
      </trkpt>
      <trkpt lat="45.56304" lon="5.24003">
        <ele>460.8</ele>
        <time>2023-08-29T10:00:38Z</time>
      </trkpt>
      <trkpt lat="45.56307" lon="5.24013">
        <ele>460.6</ele>
        <time>2023-08-29T10:00:39Z</time>
      </trkpt>
      <trkpt lat="45.5631" lon="5.24023">
        <ele>460.4</ele>
        <time>2023-08-29T10:00:40Z</time>
      </trkpt>
      <trkpt lat="45.56313" lon="5.24032">
        <ele>460.2</ele>
        <time>2023-08-29T10:00:41Z</time>
      </trkpt>
      <trkpt lat="45.56316" lon="5.24043">
        <ele>459.8</ele>
        <time>2023-08-29T10:00:42Z</time>
      </trkpt>
      <trkpt lat="45.56319" lon="5.24053">
        <ele>459.6</ele>
        <time>2023-08-29T10:00:43Z</time>
      </trkpt>
      <trkpt lat="45.56322" lon="5.24063">
        <ele>459.6</ele>
        <time>2023-08-29T10:00:44Z</time>
      </trkpt>
      <trkpt lat="45.56325" lon="5.24074">
        <ele>459.2</ele>
        <time>2023-08-29T10:00:45Z</time>
      </trkpt>
      <trkpt lat="45.56327" lon="5.24085">
        <ele>458.8</ele>
        <time>2023-08-29T10:00:46Z</time>
      </trkpt>
      <trkpt lat="45.5633" lon="5.24097">
        <ele>458.2</ele>
        <time>2023-08-29T10:00:47Z</time>
      </trkpt>
      <trkpt lat="45.56333" lon="5.24108">
        <ele>458.2</ele>
        <time>2023-08-29T10:00:48Z</time>
      </trkpt>
      <trkpt lat="45.56335" lon="5.2412">
        <ele>458</ele>
        <time>2023-08-29T10:00:49Z</time>
      </trkpt>
      <trkpt lat="45.56337" lon="5.24133">
        <ele>457.6</ele>
        <time>2023-08-29T10:00:50Z</time>
      </trkpt>
      <trkpt lat="45.5634" lon="5.24145">
        <ele>457</ele>
        <time>2023-08-29T10:00:51Z</time>
      </trkpt>
      <trkpt lat="45.56343" lon="5.24157">
        <ele>456.6</ele>
        <time>2023-08-29T10:00:52Z</time>
      </trkpt>
      <trkpt lat="45.56345" lon="5.24169">
        <ele>456</ele>
        <time>2023-08-29T10:00:53Z</time>
      </trkpt>
      <trkpt lat="45.56348" lon="5.24181">
        <ele>455.4</ele>
        <time>2023-08-29T10:00:54Z</time>
      </trkpt>
      <trkpt lat="45.56351" lon="5.24194">
        <ele>455</ele>
        <time>2023-08-29T10:00:55Z</time>
      </trkpt>
      <trkpt lat="45.56353" lon="5.24206">
        <ele>454.8</ele>
        <time>2023-08-29T10:00:56Z</time>
      </trkpt>
      <trkpt lat="45.56356" lon="5.24218">
        <ele>454.4</ele>
        <time>2023-08-29T10:00:57Z</time>
      </trkpt>
      <trkpt lat="45.56358" lon="5.2423">
        <ele>454.2</ele>
        <time>2023-08-29T10:00:58Z</time>
      </trkpt>
      <trkpt lat="45.56361" lon="5.24241">
        <ele>454.2</ele>
        <time>2023-08-29T10:00:59Z</time>
      </trkpt>
      <trkpt lat="45.56363" lon="5.24251">
        <ele>454.2</ele>
        <time>2023-08-29T10:01:00Z</time>
      </trkpt>
      <trkpt lat="45.56366" lon="5.24261">
        <ele>454.2</ele>
        <time>2023-08-29T10:01:01Z</time>
      </trkpt>
      <trkpt lat="45.56368" lon="5.2427">
        <ele>454.2</ele>
        <time>2023-08-29T10:01:02Z</time>
      </trkpt>
      <trkpt lat="45.5637" lon="5.24278">
        <ele>454.4</ele>
        <time>2023-08-29T10:01:03Z</time>
      </trkpt>
      <trkpt lat="45.56371" lon="5.24286">
        <ele>454.4</ele>
        <time>2023-08-29T10:01:04Z</time>
      </trkpt>
      <trkpt lat="45.56373" lon="5.24293">
        <ele>454.6</ele>
        <time>2023-08-29T10:01:05Z</time>
      </trkpt>
      <trkpt lat="45.56374" lon="5.24299">
        <ele>455</ele>
        <time>2023-08-29T10:01:06Z</time>
      </trkpt>
      <trkpt lat="45.56375" lon="5.24306">
        <ele>455.4</ele>
        <time>2023-08-29T10:01:07Z</time>
      </trkpt>
      <trkpt lat="45.56377" lon="5.24313">
        <ele>456</ele>
        <time>2023-08-29T10:01:08Z</time>
      </trkpt>
      <trkpt lat="45.56378" lon="5.2432">
        <ele>456.6</ele>
        <time>2023-08-29T10:01:09Z</time>
      </trkpt>
      <trkpt lat="45.5638" lon="5.24326">
        <ele>457</ele>
        <time>2023-08-29T10:01:10Z</time>
      </trkpt>
      <trkpt lat="45.56381" lon="5.24333">
        <ele>457.4</ele>
        <time>2023-08-29T10:01:11Z</time>
      </trkpt>
      <trkpt lat="45.56382" lon="5.24339">
        <ele>457.6</ele>
        <time>2023-08-29T10:01:12Z</time>
      </trkpt>
      <trkpt lat="45.56383" lon="5.24345">
        <ele>457.8</ele>
        <time>2023-08-29T10:01:13Z</time>
      </trkpt>
      <trkpt lat="45.56384" lon="5.24351">
        <ele>458</ele>
        <time>2023-08-29T10:01:14Z</time>
      </trkpt>
      <trkpt lat="45.56385" lon="5.24357">
        <ele>458.4</ele>
        <time>2023-08-29T10:01:15Z</time>
      </trkpt>
      <trkpt lat="45.56387" lon="5.24363">
        <ele>458.4</ele>
        <time>2023-08-29T10:01:16Z</time>
      </trkpt>
      <trkpt lat="45.56388" lon="5.24369">
        <ele>458.6</ele>
        <time>2023-08-29T10:01:17Z</time>
      </trkpt>
      <trkpt lat="45.56389" lon="5.24375">
        <ele>458.6</ele>
        <time>2023-08-29T10:01:18Z</time>
      </trkpt>
      <trkpt lat="45.5639" lon="5.24381">
        <ele>458.8</ele>
        <time>2023-08-29T10:01:19Z</time>
      </trkpt>
      <trkpt lat="45.56391" lon="5.24387">
        <ele>459</ele>
        <time>2023-08-29T10:01:20Z</time>
      </trkpt>
      <trkpt lat="45.56393" lon="5.24394">
        <ele>459</ele>
        <time>2023-08-29T10:01:21Z</time>
      </trkpt>
      <trkpt lat="45.56394" lon="5.24402">
        <ele>459</ele>
        <time>2023-08-29T10:01:22Z</time>
      </trkpt>
      <trkpt lat="45.56395" lon="5.24408">
        <ele>459</ele>
        <time>2023-08-29T10:01:23Z</time>
      </trkpt>
      <trkpt lat="45.56397" lon="5.24415">
        <ele>459</ele>
        <time>2023-08-29T10:01:24Z</time>
      </trkpt>
      <trkpt lat="45.56398" lon="5.24423">
        <ele>459</ele>
        <time>2023-08-29T10:01:25Z</time>
      </trkpt>
      <trkpt lat="45.564" lon="5.24431">
        <ele>459</ele>
        <time>2023-08-29T10:01:26Z</time>
      </trkpt>
      <trkpt lat="45.56401" lon="5.24438">
        <ele>459</ele>
        <time>2023-08-29T10:01:27Z</time>
      </trkpt>
      <trkpt lat="45.56403" lon="5.24446">
        <ele>459</ele>
        <time>2023-08-29T10:01:28Z</time>
      </trkpt>
      <trkpt lat="45.56405" lon="5.24453">
        <ele>459</ele>
        <time>2023-08-29T10:01:29Z</time>
      </trkpt>
      <trkpt lat="45.56406" lon="5.24461">
        <ele>459</ele>
        <time>2023-08-29T10:01:30Z</time>
      </trkpt>
      <trkpt lat="45.56407" lon="5.24469">
        <ele>459</ele>
        <time>2023-08-29T10:01:31Z</time>
      </trkpt>
      <trkpt lat="45.56409" lon="5.24476">
        <ele>459</ele>
        <time>2023-08-29T10:01:32Z</time>
      </trkpt>
      <trkpt lat="45.5641" lon="5.24484">
        <ele>459</ele>
        <time>2023-08-29T10:01:33Z</time>
      </trkpt>
      <trkpt lat="45.56411" lon="5.24491">
        <ele>459</ele>
        <time>2023-08-29T10:01:34Z</time>
      </trkpt>
      <trkpt lat="45.56413" lon="5.24499">
        <ele>458.8</ele>
        <time>2023-08-29T10:01:35Z</time>
      </trkpt>
      <trkpt lat="45.56414" lon="5.24506">
        <ele>458.6</ele>
        <time>2023-08-29T10:01:36Z</time>
      </trkpt>
      <trkpt lat="45.56416" lon="5.24514">
        <ele>458.6</ele>
        <time>2023-08-29T10:01:37Z</time>
      </trkpt>
      <trkpt lat="45.56417" lon="5.24522">
        <ele>458.6</ele>
        <time>2023-08-29T10:01:38Z</time>
      </trkpt>
      <trkpt lat="45.56419" lon="5.24529">
        <ele>458.6</ele>
        <time>2023-08-29T10:01:39Z</time>
      </trkpt>
      <trkpt lat="45.5642" lon="5.24537">
        <ele>458.6</ele>
        <time>2023-08-29T10:01:40Z</time>
      </trkpt>
      <trkpt lat="45.56422" lon="5.24544">
        <ele>458.6</ele>
        <time>2023-08-29T10:01:41Z</time>
      </trkpt>
      <trkpt lat="45.56424" lon="5.24552">
        <ele>458.6</ele>
        <time>2023-08-29T10:01:42Z</time>
      </trkpt>
      <trkpt lat="45.56425" lon="5.24559">
        <ele>458.4</ele>
        <time>2023-08-29T10:01:43Z</time>
      </trkpt>
      <trkpt lat="45.56427" lon="5.24567">
        <ele>458.4</ele>
        <time>2023-08-29T10:01:44Z</time>
      </trkpt>
      <trkpt lat="45.56429" lon="5.24574">
        <ele>458.4</ele>
        <time>2023-08-29T10:01:45Z</time>
      </trkpt>
      <trkpt lat="45.5643" lon="5.24582">
        <ele>458.4</ele>
        <time>2023-08-29T10:01:46Z</time>
      </trkpt>
      <trkpt lat="45.56432" lon="5.2459">
        <ele>458.4</ele>
        <time>2023-08-29T10:01:47Z</time>
      </trkpt>
      <trkpt lat="45.56433" lon="5.24598">
        <ele>458.4</ele>
        <time>2023-08-29T10:01:48Z</time>
      </trkpt>
      <trkpt lat="45.56435" lon="5.24607">
        <ele>458.4</ele>
        <time>2023-08-29T10:01:49Z</time>
      </trkpt>
      <trkpt lat="45.56437" lon="5.24615">
        <ele>458.4</ele>
        <time>2023-08-29T10:01:50Z</time>
      </trkpt>
      <trkpt lat="45.56439" lon="5.24623">
        <ele>458.4</ele>
        <time>2023-08-29T10:01:51Z</time>
      </trkpt>
      <trkpt lat="45.56442" lon="5.24632">
        <ele>458.4</ele>
        <time>2023-08-29T10:01:52Z</time>
      </trkpt>
      <trkpt lat="45.56444" lon="5.2464">
        <ele>458.4</ele>
        <time>2023-08-29T10:01:53Z</time>
      </trkpt>
      <trkpt lat="45.56446" lon="5.24648">
        <ele>458.4</ele>
        <time>2023-08-29T10:01:54Z</time>
      </trkpt>
      <trkpt lat="45.56449" lon="5.24657">
        <ele>458.4</ele>
        <time>2023-08-29T10:01:55Z</time>
      </trkpt>
      <trkpt lat="45.56452" lon="5.24665">
        <ele>458.2</ele>
        <time>2023-08-29T10:01:56Z</time>
      </trkpt>
      <trkpt lat="45.56455" lon="5.24673">
        <ele>458.2</ele>
        <time>2023-08-29T10:01:57Z</time>
      </trkpt>
      <trkpt lat="45.56458" lon="5.24682">
        <ele>458</ele>
        <time>2023-08-29T10:01:58Z</time>
      </trkpt>
      <trkpt lat="45.56461" lon="5.2469">
        <ele>458</ele>
        <time>2023-08-29T10:01:59Z</time>
      </trkpt>
      <trkpt lat="45.56465" lon="5.24698">
        <ele>457.8</ele>
        <time>2023-08-29T10:02:00Z</time>
      </trkpt>
      <trkpt lat="45.56468" lon="5.24706">
        <ele>457.8</ele>
        <time>2023-08-29T10:02:01Z</time>
      </trkpt>
      <trkpt lat="45.56472" lon="5.24714">
        <ele>457.8</ele>
        <time>2023-08-29T10:02:02Z</time>
      </trkpt>
      <trkpt lat="45.56475" lon="5.24722">
        <ele>457.8</ele>
        <time>2023-08-29T10:02:03Z</time>
      </trkpt>
      <trkpt lat="45.56479" lon="5.2473">
        <ele>457.8</ele>
        <time>2023-08-29T10:02:04Z</time>
      </trkpt>
      <trkpt lat="45.56483" lon="5.24738">
        <ele>457.8</ele>
        <time>2023-08-29T10:02:05Z</time>
      </trkpt>
      <trkpt lat="45.56486" lon="5.24746">
        <ele>458</ele>
        <time>2023-08-29T10:02:06Z</time>
      </trkpt>
      <trkpt lat="45.56488" lon="5.24754">
        <ele>458</ele>
        <time>2023-08-29T10:02:07Z</time>
      </trkpt>
      <trkpt lat="45.56491" lon="5.24763">
        <ele>458</ele>
        <time>2023-08-29T10:02:08Z</time>
      </trkpt>
      <trkpt lat="45.56493" lon="5.24771">
        <ele>458</ele>
        <time>2023-08-29T10:02:09Z</time>
      </trkpt>
      <trkpt lat="45.56495" lon="5.24779">
        <ele>458</ele>
        <time>2023-08-29T10:02:10Z</time>
      </trkpt>
      <trkpt lat="45.56497" lon="5.24787">
        <ele>458</ele>
        <time>2023-08-29T10:02:11Z</time>
      </trkpt>
      <trkpt lat="45.56499" lon="5.24796">
        <ele>458.2</ele>
        <time>2023-08-29T10:02:12Z</time>
      </trkpt>
      <trkpt lat="45.56501" lon="5.24804">
        <ele>458.2</ele>
        <time>2023-08-29T10:02:13Z</time>
      </trkpt>
      <trkpt lat="45.56502" lon="5.24812">
        <ele>458.2</ele>
        <time>2023-08-29T10:02:14Z</time>
      </trkpt>
      <trkpt lat="45.56504" lon="5.24821">
        <ele>458.2</ele>
        <time>2023-08-29T10:02:15Z</time>
      </trkpt>
      <trkpt lat="45.56506" lon="5.2483">
        <ele>458</ele>
        <time>2023-08-29T10:02:16Z</time>
      </trkpt>
      <trkpt lat="45.56508" lon="5.24838">
        <ele>458</ele>
        <time>2023-08-29T10:02:17Z</time>
      </trkpt>
      <trkpt lat="45.56509" lon="5.24846">
        <ele>457.8</ele>
        <time>2023-08-29T10:02:18Z</time>
      </trkpt>
      <trkpt lat="45.56511" lon="5.24854">
        <ele>457.8</ele>
        <time>2023-08-29T10:02:19Z</time>
      </trkpt>
      <trkpt lat="45.56512" lon="5.24862">
        <ele>457.8</ele>
        <time>2023-08-29T10:02:20Z</time>
      </trkpt>
      <trkpt lat="45.56514" lon="5.24869">
        <ele>457.8</ele>
        <time>2023-08-29T10:02:21Z</time>
      </trkpt>
      <trkpt lat="45.56516" lon="5.24877">
        <ele>458</ele>
        <time>2023-08-29T10:02:22Z</time>
      </trkpt>
      <trkpt lat="45.56518" lon="5.24885">
        <ele>458</ele>
        <time>2023-08-29T10:02:23Z</time>
      </trkpt>
      <trkpt lat="45.5652" lon="5.24893">
        <ele>458.4</ele>
        <time>2023-08-29T10:02:24Z</time>
      </trkpt>
      <trkpt lat="45.56521" lon="5.24901">
        <ele>458.6</ele>
        <time>2023-08-29T10:02:25Z</time>
      </trkpt>
      <trkpt lat="45.56522" lon="5.24908">
        <ele>458.6</ele>
        <time>2023-08-29T10:02:26Z</time>
      </trkpt>
      <trkpt lat="45.56523" lon="5.24916">
        <ele>458.8</ele>
        <time>2023-08-29T10:02:27Z</time>
      </trkpt>
      <trkpt lat="45.56524" lon="5.24923">
        <ele>459</ele>
        <time>2023-08-29T10:02:28Z</time>
      </trkpt>
      <trkpt lat="45.56526" lon="5.24931">
        <ele>459</ele>
        <time>2023-08-29T10:02:29Z</time>
      </trkpt>
      <trkpt lat="45.56527" lon="5.24938">
        <ele>459</ele>
        <time>2023-08-29T10:02:30Z</time>
      </trkpt>
      <trkpt lat="45.56529" lon="5.24946">
        <ele>459.2</ele>
        <time>2023-08-29T10:02:31Z</time>
      </trkpt>
      <trkpt lat="45.56531" lon="5.24954">
        <ele>459.4</ele>
        <time>2023-08-29T10:02:32Z</time>
      </trkpt>
      <trkpt lat="45.56531" lon="5.24961">
        <ele>459.4</ele>
        <time>2023-08-29T10:02:33Z</time>
      </trkpt>
      <trkpt lat="45.56532" lon="5.24968">
        <ele>459.4</ele>
        <time>2023-08-29T10:02:34Z</time>
      </trkpt>
      <trkpt lat="45.56533" lon="5.24976">
        <ele>459.6</ele>
        <time>2023-08-29T10:02:35Z</time>
      </trkpt>
      <trkpt lat="45.56533" lon="5.24983">
        <ele>459.6</ele>
        <time>2023-08-29T10:02:36Z</time>
      </trkpt>
      <trkpt lat="45.56534" lon="5.24991">
        <ele>459.6</ele>
        <time>2023-08-29T10:02:37Z</time>
      </trkpt>
      <trkpt lat="45.56535" lon="5.24998">
        <ele>459.8</ele>
        <time>2023-08-29T10:02:38Z</time>
      </trkpt>
      <trkpt lat="45.56535" lon="5.25005">
        <ele>459.8</ele>
        <time>2023-08-29T10:02:39Z</time>
      </trkpt>
      <trkpt lat="45.56536" lon="5.25012">
        <ele>459.8</ele>
        <time>2023-08-29T10:02:40Z</time>
      </trkpt>
      <trkpt lat="45.56536" lon="5.2502">
        <ele>459.8</ele>
        <time>2023-08-29T10:02:41Z</time>
      </trkpt>
      <trkpt lat="45.56536" lon="5.25028">
        <ele>460</ele>
        <time>2023-08-29T10:02:42Z</time>
      </trkpt>
      <trkpt lat="45.56536" lon="5.25035">
        <ele>460</ele>
        <time>2023-08-29T10:02:43Z</time>
      </trkpt>
      <trkpt lat="45.56537" lon="5.25042">
        <ele>460</ele>
        <time>2023-08-29T10:02:44Z</time>
      </trkpt>
      <trkpt lat="45.56537" lon="5.2505">
        <ele>460</ele>
        <time>2023-08-29T10:02:45Z</time>
      </trkpt>
      <trkpt lat="45.56536" lon="5.25056">
        <ele>460.2</ele>
        <time>2023-08-29T10:02:46Z</time>
      </trkpt>
      <trkpt lat="45.56536" lon="5.25063">
        <ele>460.2</ele>
        <time>2023-08-29T10:02:47Z</time>
      </trkpt>
      <trkpt lat="45.56536" lon="5.2507">
        <ele>460.6</ele>
        <time>2023-08-29T10:02:48Z</time>
      </trkpt>
      <trkpt lat="45.56535" lon="5.25077">
        <ele>460.8</ele>
        <time>2023-08-29T10:02:49Z</time>
      </trkpt>
      <trkpt lat="45.56535" lon="5.25084">
        <ele>461.4</ele>
        <time>2023-08-29T10:02:50Z</time>
      </trkpt>
      <trkpt lat="45.56534" lon="5.25091">
        <ele>461.6</ele>
        <time>2023-08-29T10:02:51Z</time>
      </trkpt>
      <trkpt lat="45.56533" lon="5.25097">
        <ele>461.8</ele>
        <time>2023-08-29T10:02:52Z</time>
      </trkpt>
      <trkpt lat="45.56532" lon="5.25103">
        <ele>462</ele>
        <time>2023-08-29T10:02:53Z</time>
      </trkpt>
      <trkpt lat="45.56531" lon="5.2511">
        <ele>462</ele>
        <time>2023-08-29T10:02:54Z</time>
      </trkpt>
      <trkpt lat="45.56531" lon="5.25117">
        <ele>462.2</ele>
        <time>2023-08-29T10:02:55Z</time>
      </trkpt>
      <trkpt lat="45.5653" lon="5.25124">
        <ele>462.2</ele>
        <time>2023-08-29T10:02:56Z</time>
      </trkpt>
      <trkpt lat="45.56529" lon="5.2513">
        <ele>462.2</ele>
        <time>2023-08-29T10:02:57Z</time>
      </trkpt>
      <trkpt lat="45.56529" lon="5.25138">
        <ele>462.2</ele>
        <time>2023-08-29T10:02:58Z</time>
      </trkpt>
      <trkpt lat="45.56528" lon="5.25146">
        <ele>462.2</ele>
        <time>2023-08-29T10:02:59Z</time>
      </trkpt>
      <trkpt lat="45.56527" lon="5.25153">
        <ele>462.2</ele>
        <time>2023-08-29T10:03:00Z</time>
      </trkpt>
      <trkpt lat="45.56526" lon="5.2516">
        <ele>462.2</ele>
        <time>2023-08-29T10:03:01Z</time>
      </trkpt>
      <trkpt lat="45.56525" lon="5.25167">
        <ele>462.2</ele>
        <time>2023-08-29T10:03:02Z</time>
      </trkpt>
      <trkpt lat="45.56524" lon="5.25175">
        <ele>462</ele>
        <time>2023-08-29T10:03:03Z</time>
      </trkpt>
      <trkpt lat="45.56522" lon="5.25182">
        <ele>462</ele>
        <time>2023-08-29T10:03:04Z</time>
      </trkpt>
      <trkpt lat="45.56521" lon="5.2519">
        <ele>462</ele>
        <time>2023-08-29T10:03:05Z</time>
      </trkpt>
      <trkpt lat="45.5652" lon="5.25197">
        <ele>462</ele>
        <time>2023-08-29T10:03:06Z</time>
      </trkpt>
      <trkpt lat="45.56519" lon="5.25204">
        <ele>462</ele>
        <time>2023-08-29T10:03:07Z</time>
      </trkpt>
      <trkpt lat="45.56518" lon="5.25212">
        <ele>462</ele>
        <time>2023-08-29T10:03:08Z</time>
      </trkpt>
      <trkpt lat="45.56517" lon="5.25219">
        <ele>462</ele>
        <time>2023-08-29T10:03:09Z</time>
      </trkpt>
      <trkpt lat="45.56516" lon="5.25227">
        <ele>462</ele>
        <time>2023-08-29T10:03:10Z</time>
      </trkpt>
      <trkpt lat="45.56516" lon="5.25235">
        <ele>462.2</ele>
        <time>2023-08-29T10:03:11Z</time>
      </trkpt>
      <trkpt lat="45.56515" lon="5.25242">
        <ele>462.2</ele>
        <time>2023-08-29T10:03:12Z</time>
      </trkpt>
      <trkpt lat="45.56514" lon="5.2525">
        <ele>462.2</ele>
        <time>2023-08-29T10:03:13Z</time>
      </trkpt>
      <trkpt lat="45.56513" lon="5.25257">
        <ele>462.2</ele>
        <time>2023-08-29T10:03:14Z</time>
      </trkpt>
      <trkpt lat="45.56512" lon="5.25264">
        <ele>462.4</ele>
        <time>2023-08-29T10:03:15Z</time>
      </trkpt>
      <trkpt lat="45.56511" lon="5.25271">
        <ele>462.4</ele>
        <time>2023-08-29T10:03:16Z</time>
      </trkpt>
      <trkpt lat="45.5651" lon="5.25278">
        <ele>462.6</ele>
        <time>2023-08-29T10:03:17Z</time>
      </trkpt>
      <trkpt lat="45.56509" lon="5.25285">
        <ele>462.6</ele>
        <time>2023-08-29T10:03:18Z</time>
      </trkpt>
      <trkpt lat="45.56508" lon="5.25293">
        <ele>462.6</ele>
        <time>2023-08-29T10:03:19Z</time>
      </trkpt>
      <trkpt lat="45.56508" lon="5.25302">
        <ele>462.6</ele>
        <time>2023-08-29T10:03:20Z</time>
      </trkpt>
      <trkpt lat="45.56507" lon="5.2531">
        <ele>462.6</ele>
        <time>2023-08-29T10:03:21Z</time>
      </trkpt>
      <trkpt lat="45.56506" lon="5.25319">
        <ele>462.6</ele>
        <time>2023-08-29T10:03:22Z</time>
      </trkpt>
      <trkpt lat="45.56506" lon="5.25327">
        <ele>462.6</ele>
        <time>2023-08-29T10:03:23Z</time>
      </trkpt>
      <trkpt lat="45.56506" lon="5.25336">
        <ele>462.2</ele>
        <time>2023-08-29T10:03:24Z</time>
      </trkpt>
      <trkpt lat="45.56505" lon="5.25344">
        <ele>462.2</ele>
        <time>2023-08-29T10:03:25Z</time>
      </trkpt>
      <trkpt lat="45.56505" lon="5.25353">
        <ele>462.2</ele>
        <time>2023-08-29T10:03:26Z</time>
      </trkpt>
      <trkpt lat="45.56505" lon="5.25362">
        <ele>462</ele>
        <time>2023-08-29T10:03:27Z</time>
      </trkpt>
      <trkpt lat="45.56505" lon="5.25371">
        <ele>461.8</ele>
        <time>2023-08-29T10:03:28Z</time>
      </trkpt>
      <trkpt lat="45.56505" lon="5.2538">
        <ele>461.8</ele>
        <time>2023-08-29T10:03:29Z</time>
      </trkpt>
      <trkpt lat="45.56505" lon="5.25389">
        <ele>461.8</ele>
        <time>2023-08-29T10:03:30Z</time>
      </trkpt>
      <trkpt lat="45.56505" lon="5.25399">
        <ele>461.6</ele>
        <time>2023-08-29T10:03:31Z</time>
      </trkpt>
      <trkpt lat="45.56504" lon="5.25408">
        <ele>461.4</ele>
        <time>2023-08-29T10:03:32Z</time>
      </trkpt>
      <trkpt lat="45.56504" lon="5.25417">
        <ele>461.4</ele>
        <time>2023-08-29T10:03:33Z</time>
      </trkpt>
      <trkpt lat="45.56504" lon="5.25426">
        <ele>461.2</ele>
        <time>2023-08-29T10:03:34Z</time>
      </trkpt>
      <trkpt lat="45.56504" lon="5.25435">
        <ele>461.2</ele>
        <time>2023-08-29T10:03:35Z</time>
      </trkpt>
      <trkpt lat="45.56504" lon="5.25444">
        <ele>461</ele>
        <time>2023-08-29T10:03:36Z</time>
      </trkpt>
      <trkpt lat="45.56504" lon="5.25453">
        <ele>460.8</ele>
        <time>2023-08-29T10:03:37Z</time>
      </trkpt>
      <trkpt lat="45.56504" lon="5.25462">
        <ele>460.8</ele>
        <time>2023-08-29T10:03:38Z</time>
      </trkpt>
      <trkpt lat="45.56504" lon="5.25471">
        <ele>460.8</ele>
        <time>2023-08-29T10:03:39Z</time>
      </trkpt>
      <trkpt lat="45.56504" lon="5.2548">
        <ele>460.8</ele>
        <time>2023-08-29T10:03:40Z</time>
      </trkpt>
      <trkpt lat="45.56503" lon="5.25489">
        <ele>460.8</ele>
        <time>2023-08-29T10:03:41Z</time>
      </trkpt>
      <trkpt lat="45.56503" lon="5.25498">
        <ele>460.8</ele>
        <time>2023-08-29T10:03:42Z</time>
      </trkpt>
      <trkpt lat="45.56503" lon="5.25507">
        <ele>460.8</ele>
        <time>2023-08-29T10:03:43Z</time>
      </trkpt>
      <trkpt lat="45.56502" lon="5.25515">
        <ele>460.8</ele>
        <time>2023-08-29T10:03:44Z</time>
      </trkpt>
      <trkpt lat="45.56502" lon="5.25523">
        <ele>460.8</ele>
        <time>2023-08-29T10:03:45Z</time>
      </trkpt>
      <trkpt lat="45.56502" lon="5.25532">
        <ele>460.8</ele>
        <time>2023-08-29T10:03:46Z</time>
      </trkpt>
      <trkpt lat="45.56502" lon="5.2554">
        <ele>460.8</ele>
        <time>2023-08-29T10:03:47Z</time>
      </trkpt>
      <trkpt lat="45.56502" lon="5.25549">
        <ele>460.8</ele>
        <time>2023-08-29T10:03:48Z</time>
      </trkpt>
      <trkpt lat="45.56502" lon="5.25557">
        <ele>460.8</ele>
        <time>2023-08-29T10:03:49Z</time>
      </trkpt>
      <trkpt lat="45.56502" lon="5.25566">
        <ele>460.8</ele>
        <time>2023-08-29T10:03:50Z</time>
      </trkpt>
      <trkpt lat="45.56502" lon="5.25575">
        <ele>460.8</ele>
        <time>2023-08-29T10:03:51Z</time>
      </trkpt>
      <trkpt lat="45.56503" lon="5.25584">
        <ele>460.6</ele>
        <time>2023-08-29T10:03:52Z</time>
      </trkpt>
      <trkpt lat="45.56503" lon="5.25592">
        <ele>460.4</ele>
        <time>2023-08-29T10:03:53Z</time>
      </trkpt>
      <trkpt lat="45.56504" lon="5.25601">
        <ele>460.4</ele>
        <time>2023-08-29T10:03:54Z</time>
      </trkpt>
      <trkpt lat="45.56505" lon="5.2561">
        <ele>460</ele>
        <time>2023-08-29T10:03:55Z</time>
      </trkpt>
      <trkpt lat="45.56506" lon="5.25619">
        <ele>459.8</ele>
        <time>2023-08-29T10:03:56Z</time>
      </trkpt>
      <trkpt lat="45.56507" lon="5.25628">
        <ele>459.8</ele>
        <time>2023-08-29T10:03:57Z</time>
      </trkpt>
      <trkpt lat="45.56508" lon="5.25637">
        <ele>459.4</ele>
        <time>2023-08-29T10:03:58Z</time>
      </trkpt>
      <trkpt lat="45.5651" lon="5.25646">
        <ele>459</ele>
        <time>2023-08-29T10:03:59Z</time>
      </trkpt>
      <trkpt lat="45.56511" lon="5.25656">
        <ele>458.8</ele>
        <time>2023-08-29T10:04:00Z</time>
      </trkpt>
      <trkpt lat="45.56513" lon="5.25665">
        <ele>458.4</ele>
        <time>2023-08-29T10:04:01Z</time>
      </trkpt>
      <trkpt lat="45.56514" lon="5.25675">
        <ele>458</ele>
        <time>2023-08-29T10:04:02Z</time>
      </trkpt>
      <trkpt lat="45.56516" lon="5.25684">
        <ele>457.8</ele>
        <time>2023-08-29T10:04:03Z</time>
      </trkpt>
      <trkpt lat="45.56518" lon="5.25693">
        <ele>457.6</ele>
        <time>2023-08-29T10:04:04Z</time>
      </trkpt>
      <trkpt lat="45.56519" lon="5.25703">
        <ele>457.2</ele>
        <time>2023-08-29T10:04:05Z</time>
      </trkpt>
      <trkpt lat="45.56521" lon="5.25713">
        <ele>457.2</ele>
        <time>2023-08-29T10:04:06Z</time>
      </trkpt>
      <trkpt lat="45.56523" lon="5.25722">
        <ele>457.2</ele>
        <time>2023-08-29T10:04:07Z</time>
      </trkpt>
      <trkpt lat="45.56525" lon="5.25731">
        <ele>457.2</ele>
        <time>2023-08-29T10:04:08Z</time>
      </trkpt>
      <trkpt lat="45.56526" lon="5.25741">
        <ele>457</ele>
        <time>2023-08-29T10:04:09Z</time>
      </trkpt>
      <trkpt lat="45.56528" lon="5.2575">
        <ele>457</ele>
        <time>2023-08-29T10:04:10Z</time>
      </trkpt>
      <trkpt lat="45.5653" lon="5.2576">
        <ele>456.8</ele>
        <time>2023-08-29T10:04:11Z</time>
      </trkpt>
      <trkpt lat="45.56531" lon="5.25769">
        <ele>456.8</ele>
        <time>2023-08-29T10:04:12Z</time>
      </trkpt>
      <trkpt lat="45.56534" lon="5.25778">
        <ele>456.8</ele>
        <time>2023-08-29T10:04:13Z</time>
      </trkpt>
      <trkpt lat="45.56536" lon="5.25788">
        <ele>456.8</ele>
        <time>2023-08-29T10:04:14Z</time>
      </trkpt>
      <trkpt lat="45.56537" lon="5.25798">
        <ele>456.6</ele>
        <time>2023-08-29T10:04:15Z</time>
      </trkpt>
      <trkpt lat="45.5654" lon="5.25808">
        <ele>456.6</ele>
        <time>2023-08-29T10:04:16Z</time>
      </trkpt>
      <trkpt lat="45.56542" lon="5.25819">
        <ele>456.6</ele>
        <time>2023-08-29T10:04:17Z</time>
      </trkpt>
      <trkpt lat="45.56544" lon="5.2583">
        <ele>456.2</ele>
        <time>2023-08-29T10:04:18Z</time>
      </trkpt>
      <trkpt lat="45.56546" lon="5.2584">
        <ele>455.8</ele>
        <time>2023-08-29T10:04:19Z</time>
      </trkpt>
      <trkpt lat="45.56548" lon="5.25851">
        <ele>455.6</ele>
        <time>2023-08-29T10:04:20Z</time>
      </trkpt>
      <trkpt lat="45.5655" lon="5.25861">
        <ele>455.2</ele>
        <time>2023-08-29T10:04:21Z</time>
      </trkpt>
      <trkpt lat="45.56553" lon="5.25872">
        <ele>455</ele>
        <time>2023-08-29T10:04:22Z</time>
      </trkpt>
      <trkpt lat="45.56554" lon="5.25882">
        <ele>454.8</ele>
        <time>2023-08-29T10:04:23Z</time>
      </trkpt>
      <trkpt lat="45.56556" lon="5.25892">
        <ele>454.8</ele>
        <time>2023-08-29T10:04:24Z</time>
      </trkpt>
      <trkpt lat="45.56558" lon="5.25902">
        <ele>454.8</ele>
        <time>2023-08-29T10:04:25Z</time>
      </trkpt>
      <trkpt lat="45.5656" lon="5.25912">
        <ele>454.6</ele>
        <time>2023-08-29T10:04:26Z</time>
      </trkpt>
      <trkpt lat="45.56561" lon="5.25922">
        <ele>454.6</ele>
        <time>2023-08-29T10:04:27Z</time>
      </trkpt>
      <trkpt lat="45.56563" lon="5.25932">
        <ele>454.4</ele>
        <time>2023-08-29T10:04:28Z</time>
      </trkpt>
      <trkpt lat="45.56565" lon="5.25941">
        <ele>454.4</ele>
        <time>2023-08-29T10:04:29Z</time>
      </trkpt>
      <trkpt lat="45.56567" lon="5.25951">
        <ele>454.2</ele>
        <time>2023-08-29T10:04:30Z</time>
      </trkpt>
      <trkpt lat="45.56569" lon="5.25959">
        <ele>454</ele>
        <time>2023-08-29T10:04:31Z</time>
      </trkpt>
      <trkpt lat="45.56572" lon="5.25968">
        <ele>454</ele>
        <time>2023-08-29T10:04:32Z</time>
      </trkpt>
      <trkpt lat="45.56575" lon="5.25976">
        <ele>453.8</ele>
        <time>2023-08-29T10:04:33Z</time>
      </trkpt>
      <trkpt lat="45.56579" lon="5.25985">
        <ele>453</ele>
        <time>2023-08-29T10:04:34Z</time>
      </trkpt>
      <trkpt lat="45.56582" lon="5.25993">
        <ele>453</ele>
        <time>2023-08-29T10:04:35Z</time>
      </trkpt>
      <trkpt lat="45.56585" lon="5.26002">
        <ele>453</ele>
        <time>2023-08-29T10:04:36Z</time>
      </trkpt>
      <trkpt lat="45.56588" lon="5.26011">
        <ele>453</ele>
        <time>2023-08-29T10:04:37Z</time>
      </trkpt>
      <trkpt lat="45.56591" lon="5.2602">
        <ele>453</ele>
        <time>2023-08-29T10:04:38Z</time>
      </trkpt>
      <trkpt lat="45.56594" lon="5.26029">
        <ele>453</ele>
        <time>2023-08-29T10:04:39Z</time>
      </trkpt>
      <trkpt lat="45.56596" lon="5.26037">
        <ele>452.8</ele>
        <time>2023-08-29T10:04:40Z</time>
      </trkpt>
      <trkpt lat="45.56599" lon="5.26046">
        <ele>452.6</ele>
        <time>2023-08-29T10:04:41Z</time>
      </trkpt>
      <trkpt lat="45.56603" lon="5.26054">
        <ele>452.6</ele>
        <time>2023-08-29T10:04:42Z</time>
      </trkpt>
      <trkpt lat="45.56606" lon="5.26062">
        <ele>452.4</ele>
        <time>2023-08-29T10:04:43Z</time>
      </trkpt>
      <trkpt lat="45.5661" lon="5.26071">
        <ele>451.8</ele>
        <time>2023-08-29T10:04:44Z</time>
      </trkpt>
      <trkpt lat="45.56614" lon="5.26079">
        <ele>451.8</ele>
        <time>2023-08-29T10:04:45Z</time>
      </trkpt>
      <trkpt lat="45.56617" lon="5.26088">
        <ele>451.8</ele>
        <time>2023-08-29T10:04:46Z</time>
      </trkpt>
      <trkpt lat="45.5662" lon="5.26098">
        <ele>451.6</ele>
        <time>2023-08-29T10:04:47Z</time>
      </trkpt>
      <trkpt lat="45.56622" lon="5.26109">
        <ele>451.6</ele>
        <time>2023-08-29T10:04:48Z</time>
      </trkpt>
      <trkpt lat="45.56625" lon="5.2612">
        <ele>451.2</ele>
        <time>2023-08-29T10:04:49Z</time>
      </trkpt>
      <trkpt lat="45.56628" lon="5.26131">
        <ele>450.4</ele>
        <time>2023-08-29T10:04:50Z</time>
      </trkpt>
      <trkpt lat="45.5663" lon="5.26143">
        <ele>449.8</ele>
        <time>2023-08-29T10:04:51Z</time>
      </trkpt>
      <trkpt lat="45.56633" lon="5.26154">
        <ele>449.4</ele>
        <time>2023-08-29T10:04:52Z</time>
      </trkpt>
      <trkpt lat="45.56636" lon="5.26166">
        <ele>449</ele>
        <time>2023-08-29T10:04:53Z</time>
      </trkpt>
      <trkpt lat="45.56638" lon="5.26177">
        <ele>447.6</ele>
        <time>2023-08-29T10:04:54Z</time>
      </trkpt>
      <trkpt lat="45.56642" lon="5.26188">
        <ele>446.8</ele>
        <time>2023-08-29T10:04:55Z</time>
      </trkpt>
      <trkpt lat="45.56645" lon="5.26198">
        <ele>446.4</ele>
        <time>2023-08-29T10:04:56Z</time>
      </trkpt>
      <trkpt lat="45.56648" lon="5.26209">
        <ele>446.4</ele>
        <time>2023-08-29T10:04:57Z</time>
      </trkpt>
      <trkpt lat="45.56652" lon="5.26219">
        <ele>446.4</ele>
        <time>2023-08-29T10:04:58Z</time>
      </trkpt>
      <trkpt lat="45.56656" lon="5.26228">
        <ele>446.2</ele>
        <time>2023-08-29T10:04:59Z</time>
      </trkpt>
      <trkpt lat="45.5666" lon="5.26238">
        <ele>446.2</ele>
        <time>2023-08-29T10:05:00Z</time>
      </trkpt>
      <trkpt lat="45.56664" lon="5.26247">
        <ele>446</ele>
        <time>2023-08-29T10:05:01Z</time>
      </trkpt>
      <trkpt lat="45.56668" lon="5.26256">
        <ele>446</ele>
        <time>2023-08-29T10:05:02Z</time>
      </trkpt>
      <trkpt lat="45.56673" lon="5.26266">
        <ele>445.8</ele>
        <time>2023-08-29T10:05:03Z</time>
      </trkpt>
      <trkpt lat="45.56677" lon="5.26276">
        <ele>445.2</ele>
        <time>2023-08-29T10:05:04Z</time>
      </trkpt>
      <trkpt lat="45.5668" lon="5.26286">
        <ele>445</ele>
        <time>2023-08-29T10:05:05Z</time>
      </trkpt>
      <trkpt lat="45.56684" lon="5.26296">
        <ele>444.8</ele>
        <time>2023-08-29T10:05:06Z</time>
      </trkpt>
      <trkpt lat="45.56688" lon="5.26307">
        <ele>444.2</ele>
        <time>2023-08-29T10:05:07Z</time>
      </trkpt>
      <trkpt lat="45.56691" lon="5.26317">
        <ele>443.6</ele>
        <time>2023-08-29T10:05:08Z</time>
      </trkpt>
      <trkpt lat="45.56695" lon="5.26327">
        <ele>443.6</ele>
        <time>2023-08-29T10:05:09Z</time>
      </trkpt>
      <trkpt lat="45.56698" lon="5.26335">
        <ele>443.4</ele>
        <time>2023-08-29T10:05:10Z</time>
      </trkpt>
      <trkpt lat="45.56702" lon="5.26343">
        <ele>443.4</ele>
        <time>2023-08-29T10:05:11Z</time>
      </trkpt>
      <trkpt lat="45.56707" lon="5.26351">
        <ele>443.4</ele>
        <time>2023-08-29T10:05:12Z</time>
      </trkpt>
      <trkpt lat="45.56711" lon="5.26358">
        <ele>443</ele>
        <time>2023-08-29T10:05:13Z</time>
      </trkpt>
      <trkpt lat="45.56715" lon="5.26364">
        <ele>442.8</ele>
        <time>2023-08-29T10:05:14Z</time>
      </trkpt>
      <trkpt lat="45.56717" lon="5.2637">
        <ele>442.8</ele>
        <time>2023-08-29T10:05:15Z</time>
      </trkpt>
      <trkpt lat="45.56718" lon="5.26376">
        <ele>442.6</ele>
        <time>2023-08-29T10:05:16Z</time>
      </trkpt>
      <trkpt lat="45.56717" lon="5.26382">
        <ele>442.6</ele>
        <time>2023-08-29T10:05:17Z</time>
      </trkpt>
      <trkpt lat="45.56717" lon="5.26387">
        <ele>442.6</ele>
        <time>2023-08-29T10:05:18Z</time>
      </trkpt>
      <trkpt lat="45.56718" lon="5.26391">
        <ele>442.6</ele>
        <time>2023-08-29T10:05:19Z</time>
      </trkpt>
      <trkpt lat="45.5672" lon="5.26394">
        <ele>442.6</ele>
        <time>2023-08-29T10:05:20Z</time>
      </trkpt>
      <trkpt lat="45.56721" lon="5.26396">
        <ele>442.6</ele>
        <time>2023-08-29T10:05:21Z</time>
      </trkpt>
      <trkpt lat="45.56722" lon="5.26396">
        <ele>442.6</ele>
        <time>2023-08-29T10:05:22Z</time>
      </trkpt>
      <trkpt lat="45.56722" lon="5.26396">
        <ele>442.6</ele>
        <time>2023-08-29T10:05:23Z</time>
      </trkpt>
    </trkseg>
  </trk>
</gpx>